<?xml version="1.0" encoding="UTF-8" standalone="no" ?>
<gpx xmlns="http://www.topografix.com/GPX/1/1" xmlns:xsi="http://www.w3.org/2001/XMLSchema-instance" xsi:schemaLocation="http://www.topografix.com/GPX/1/1 http://www.topografix.com/GPX/1/1/gpx.xsd" version="1.1" creator="VisuGPX - https://www.visugpx.com">
  <metadata>
    <name>Tour en Thur 2023-05 17-21</name>
  </metadata>
  <trk>
    <name><![CDATA[21 mai 2023 à 07:02:53]]></name>
    <extensions>
      <line xmlns="http://www.topografix.com/GPX/gpx_style/0/2">
        <color>FFFF00</color>
        <width>9</width>
      </line>
    </extensions>
    <trkseg>
      <trkpt lat="47.87608" lon="6.91675">
        <ele>881</ele>
        <time>2023-05-21T05:02:53Z</time>
      </trkpt>
      <trkpt lat="47.87616" lon="6.9168">
        <ele>876.9</ele>
        <time>2023-05-21T05:02:54Z</time>
      </trkpt>
      <trkpt lat="47.8764" lon="6.91676">
        <ele>864.8</ele>
        <time>2023-05-21T05:02:59Z</time>
      </trkpt>
      <trkpt lat="47.87612" lon="6.91674">
        <ele>879.8</ele>
        <time>2023-05-21T05:03:18Z</time>
      </trkpt>
      <trkpt lat="47.87608" lon="6.91686">
        <ele>880</ele>
        <time>2023-05-21T05:03:31Z</time>
      </trkpt>
      <trkpt lat="47.87595" lon="6.91676">
        <ele>884.8</ele>
        <time>2023-05-21T05:03:33Z</time>
      </trkpt>
      <trkpt lat="47.87598" lon="6.91689">
        <ele>883.4</ele>
        <time>2023-05-21T05:03:42Z</time>
      </trkpt>
      <trkpt lat="47.876" lon="6.91698">
        <ele>882.3</ele>
        <time>2023-05-21T05:03:57Z</time>
      </trkpt>
      <trkpt lat="47.87598" lon="6.91745">
        <ele>883</ele>
        <time>2023-05-21T05:04:29Z</time>
      </trkpt>
      <trkpt lat="47.87599" lon="6.91752">
        <ele>882.4</ele>
        <time>2023-05-21T05:04:33Z</time>
      </trkpt>
      <trkpt lat="47.87598" lon="6.91768">
        <ele>882.1</ele>
        <time>2023-05-21T05:04:41Z</time>
      </trkpt>
      <trkpt lat="47.87597" lon="6.91774">
        <ele>882.3</ele>
        <time>2023-05-21T05:04:45Z</time>
      </trkpt>
      <trkpt lat="47.87598" lon="6.91782">
        <ele>881.5</ele>
        <time>2023-05-21T05:04:49Z</time>
      </trkpt>
      <trkpt lat="47.87602" lon="6.91808">
        <ele>879.5</ele>
        <time>2023-05-21T05:05:06Z</time>
      </trkpt>
      <trkpt lat="47.87605" lon="6.91813">
        <ele>878.3</ele>
        <time>2023-05-21T05:05:10Z</time>
      </trkpt>
      <trkpt lat="47.87606" lon="6.91819">
        <ele>878.3</ele>
        <time>2023-05-21T05:05:15Z</time>
      </trkpt>
      <trkpt lat="47.87609" lon="6.91826">
        <ele>877.4</ele>
        <time>2023-05-21T05:05:19Z</time>
      </trkpt>
      <trkpt lat="47.87612" lon="6.91858">
        <ele>877.4</ele>
        <time>2023-05-21T05:05:37Z</time>
      </trkpt>
      <trkpt lat="47.87611" lon="6.91865">
        <ele>877.9</ele>
        <time>2023-05-21T05:05:41Z</time>
      </trkpt>
      <trkpt lat="47.87612" lon="6.91871">
        <ele>877</ele>
        <time>2023-05-21T05:05:45Z</time>
      </trkpt>
      <trkpt lat="47.8761" lon="6.91879">
        <ele>878.1</ele>
        <time>2023-05-21T05:05:49Z</time>
      </trkpt>
      <trkpt lat="47.87611" lon="6.91926">
        <ele>876.4</ele>
        <time>2023-05-21T05:06:15Z</time>
      </trkpt>
      <trkpt lat="47.87613" lon="6.91939">
        <ele>875.3</ele>
        <time>2023-05-21T05:06:23Z</time>
      </trkpt>
      <trkpt lat="47.87622" lon="6.91954">
        <ele>871.1</ele>
        <time>2023-05-21T05:06:34Z</time>
      </trkpt>
      <trkpt lat="47.87626" lon="6.91966">
        <ele>871.5</ele>
        <time>2023-05-21T05:06:42Z</time>
      </trkpt>
      <trkpt lat="47.87628" lon="6.91984">
        <ele>874.1</ele>
        <time>2023-05-21T05:06:52Z</time>
      </trkpt>
      <trkpt lat="47.87637" lon="6.92025">
        <ele>870.6</ele>
        <time>2023-05-21T05:07:16Z</time>
      </trkpt>
      <trkpt lat="47.87639" lon="6.92077">
        <ele>870</ele>
        <time>2023-05-21T05:07:46Z</time>
      </trkpt>
      <trkpt lat="47.8764" lon="6.92085">
        <ele>870.6</ele>
        <time>2023-05-21T05:07:50Z</time>
      </trkpt>
      <trkpt lat="47.87643" lon="6.92091">
        <ele>869.8</ele>
        <time>2023-05-21T05:07:55Z</time>
      </trkpt>
      <trkpt lat="47.87648" lon="6.92095">
        <ele>866.7</ele>
        <time>2023-05-21T05:07:59Z</time>
      </trkpt>
      <trkpt lat="47.87663" lon="6.92127">
        <ele>862</ele>
        <time>2023-05-21T05:08:22Z</time>
      </trkpt>
      <trkpt lat="47.87666" lon="6.92144">
        <ele>863.5</ele>
        <time>2023-05-21T05:08:29Z</time>
      </trkpt>
      <trkpt lat="47.87671" lon="6.92157">
        <ele>862.2</ele>
        <time>2023-05-21T05:08:37Z</time>
      </trkpt>
      <trkpt lat="47.87673" lon="6.92165">
        <ele>862.3</ele>
        <time>2023-05-21T05:08:42Z</time>
      </trkpt>
      <trkpt lat="47.87686" lon="6.92189">
        <ele>859.6</ele>
        <time>2023-05-21T05:08:59Z</time>
      </trkpt>
      <trkpt lat="47.87689" lon="6.92204">
        <ele>861.4</ele>
        <time>2023-05-21T05:09:08Z</time>
      </trkpt>
      <trkpt lat="47.87691" lon="6.92219">
        <ele>863.8</ele>
        <time>2023-05-21T05:09:17Z</time>
      </trkpt>
      <trkpt lat="47.87699" lon="6.9223">
        <ele>861.2</ele>
        <time>2023-05-21T05:09:26Z</time>
      </trkpt>
      <trkpt lat="47.87703" lon="6.92252">
        <ele>864.6</ele>
        <time>2023-05-21T05:09:39Z</time>
      </trkpt>
      <trkpt lat="47.87707" lon="6.92259">
        <ele>864.2</ele>
        <time>2023-05-21T05:09:43Z</time>
      </trkpt>
      <trkpt lat="47.87706" lon="6.92267">
        <ele>867</ele>
        <time>2023-05-21T05:09:47Z</time>
      </trkpt>
      <trkpt lat="47.87706" lon="6.92276">
        <ele>869.4</ele>
        <time>2023-05-21T05:09:54Z</time>
      </trkpt>
      <trkpt lat="47.87715" lon="6.923">
        <ele>868.8</ele>
        <time>2023-05-21T05:10:10Z</time>
      </trkpt>
      <trkpt lat="47.87714" lon="6.92308">
        <ele>871</ele>
        <time>2023-05-21T05:10:14Z</time>
      </trkpt>
      <trkpt lat="47.87718" lon="6.92315">
        <ele>869.3</ele>
        <time>2023-05-21T05:10:19Z</time>
      </trkpt>
      <trkpt lat="47.87718" lon="6.92345">
        <ele>874.4</ele>
        <time>2023-05-21T05:10:38Z</time>
      </trkpt>
      <trkpt lat="47.87725" lon="6.92351">
        <ele>870.9</ele>
        <time>2023-05-21T05:10:45Z</time>
      </trkpt>
      <trkpt lat="47.87724" lon="6.92359">
        <ele>873.3</ele>
        <time>2023-05-21T05:10:50Z</time>
      </trkpt>
      <trkpt lat="47.87722" lon="6.9237">
        <ele>876.1</ele>
        <time>2023-05-21T05:10:58Z</time>
      </trkpt>
      <trkpt lat="47.87721" lon="6.92377">
        <ele>877.5</ele>
        <time>2023-05-21T05:11:06Z</time>
      </trkpt>
      <trkpt lat="47.8772" lon="6.92385">
        <ele>878.9</ele>
        <time>2023-05-21T05:11:11Z</time>
      </trkpt>
      <trkpt lat="47.87725" lon="6.92414">
        <ele>878.1</ele>
        <time>2023-05-21T05:11:28Z</time>
      </trkpt>
      <trkpt lat="47.87726" lon="6.92436">
        <ele>880.4</ele>
        <time>2023-05-21T05:11:40Z</time>
      </trkpt>
      <trkpt lat="47.87728" lon="6.9245">
        <ele>880.9</ele>
        <time>2023-05-21T05:11:50Z</time>
      </trkpt>
      <trkpt lat="47.87728" lon="6.92457">
        <ele>881.6</ele>
        <time>2023-05-21T05:11:54Z</time>
      </trkpt>
      <trkpt lat="47.87728" lon="6.92492">
        <ele>884.5</ele>
        <time>2023-05-21T05:12:18Z</time>
      </trkpt>
      <trkpt lat="47.87727" lon="6.92499">
        <ele>885.7</ele>
        <time>2023-05-21T05:12:23Z</time>
      </trkpt>
      <trkpt lat="47.87725" lon="6.92505">
        <ele>887</ele>
        <time>2023-05-21T05:12:28Z</time>
      </trkpt>
      <trkpt lat="47.87725" lon="6.92515">
        <ele>886.7</ele>
        <time>2023-05-21T05:12:35Z</time>
      </trkpt>
      <trkpt lat="47.87722" lon="6.92521">
        <ele>888.3</ele>
        <time>2023-05-21T05:12:39Z</time>
      </trkpt>
      <trkpt lat="47.87718" lon="6.92541">
        <ele>888.1</ele>
        <time>2023-05-21T05:12:51Z</time>
      </trkpt>
      <trkpt lat="47.87711" lon="6.92553">
        <ele>887.7</ele>
        <time>2023-05-21T05:13:02Z</time>
      </trkpt>
      <trkpt lat="47.87706" lon="6.92557">
        <ele>887.4</ele>
        <time>2023-05-21T05:13:06Z</time>
      </trkpt>
      <trkpt lat="47.87701" lon="6.92556">
        <ele>888.2</ele>
        <time>2023-05-21T05:13:10Z</time>
      </trkpt>
      <trkpt lat="47.87691" lon="6.92546">
        <ele>890.2</ele>
        <time>2023-05-21T05:13:26Z</time>
      </trkpt>
      <trkpt lat="47.87679" lon="6.92514">
        <ele>895.1</ele>
        <time>2023-05-21T05:13:46Z</time>
      </trkpt>
      <trkpt lat="47.87672" lon="6.92497">
        <ele>898.6</ele>
        <time>2023-05-21T05:14:04Z</time>
      </trkpt>
      <trkpt lat="47.87666" lon="6.92495">
        <ele>897.5</ele>
        <time>2023-05-21T05:14:08Z</time>
      </trkpt>
      <trkpt lat="47.87661" lon="6.92495">
        <ele>895.5</ele>
        <time>2023-05-21T05:14:12Z</time>
      </trkpt>
      <trkpt lat="47.87657" lon="6.92489">
        <ele>896.5</ele>
        <time>2023-05-21T05:14:19Z</time>
      </trkpt>
      <trkpt lat="47.87657" lon="6.92481">
        <ele>899.9</ele>
        <time>2023-05-21T05:14:23Z</time>
      </trkpt>
      <trkpt lat="47.8765" lon="6.92475">
        <ele>900.5</ele>
        <time>2023-05-21T05:14:31Z</time>
      </trkpt>
      <trkpt lat="47.87639" lon="6.92467">
        <ele>900.9</ele>
        <time>2023-05-21T05:14:43Z</time>
      </trkpt>
      <trkpt lat="47.8763" lon="6.92452">
        <ele>903.8</ele>
        <time>2023-05-21T05:14:57Z</time>
      </trkpt>
      <trkpt lat="47.87618" lon="6.9244">
        <ele>905.3</ele>
        <time>2023-05-21T05:15:09Z</time>
      </trkpt>
      <trkpt lat="47.87612" lon="6.92439">
        <ele>904.3</ele>
        <time>2023-05-21T05:15:13Z</time>
      </trkpt>
      <trkpt lat="47.87606" lon="6.9243">
        <ele>906.9</ele>
        <time>2023-05-21T05:15:24Z</time>
      </trkpt>
      <trkpt lat="47.87603" lon="6.92424">
        <ele>908.9</ele>
        <time>2023-05-21T05:15:29Z</time>
      </trkpt>
      <trkpt lat="47.87597" lon="6.92423">
        <ele>908.3</ele>
        <time>2023-05-21T05:15:35Z</time>
      </trkpt>
      <trkpt lat="47.87592" lon="6.9242">
        <ele>908.8</ele>
        <time>2023-05-21T05:15:39Z</time>
      </trkpt>
      <trkpt lat="47.87573" lon="6.92415">
        <ele>910</ele>
        <time>2023-05-21T05:15:57Z</time>
      </trkpt>
      <trkpt lat="47.87566" lon="6.92409">
        <ele>912.7</ele>
        <time>2023-05-21T05:16:06Z</time>
      </trkpt>
      <trkpt lat="47.87558" lon="6.92408">
        <ele>913.3</ele>
        <time>2023-05-21T05:16:15Z</time>
      </trkpt>
      <trkpt lat="47.87552" lon="6.92402">
        <ele>915</ele>
        <time>2023-05-21T05:16:23Z</time>
      </trkpt>
      <trkpt lat="47.87542" lon="6.924">
        <ele>913.8</ele>
        <time>2023-05-21T05:16:30Z</time>
      </trkpt>
      <trkpt lat="47.87537" lon="6.92394">
        <ele>915.4</ele>
        <time>2023-05-21T05:16:37Z</time>
      </trkpt>
      <trkpt lat="47.87523" lon="6.92384">
        <ele>916.3</ele>
        <time>2023-05-21T05:16:49Z</time>
      </trkpt>
      <trkpt lat="47.87517" lon="6.92374">
        <ele>918.4</ele>
        <time>2023-05-21T05:16:58Z</time>
      </trkpt>
      <trkpt lat="47.87502" lon="6.92364">
        <ele>917.4</ele>
        <time>2023-05-21T05:17:12Z</time>
      </trkpt>
      <trkpt lat="47.87497" lon="6.92363">
        <ele>916.2</ele>
        <time>2023-05-21T05:17:15Z</time>
      </trkpt>
      <trkpt lat="47.87489" lon="6.92357">
        <ele>916.2</ele>
        <time>2023-05-21T05:17:23Z</time>
      </trkpt>
      <trkpt lat="47.87486" lon="6.92352">
        <ele>917.2</ele>
        <time>2023-05-21T05:17:27Z</time>
      </trkpt>
      <trkpt lat="47.87481" lon="6.9235">
        <ele>916.4</ele>
        <time>2023-05-21T05:17:31Z</time>
      </trkpt>
      <trkpt lat="47.87454" lon="6.92324">
        <ele>918.6</ele>
        <time>2023-05-21T05:18:00Z</time>
      </trkpt>
      <trkpt lat="47.87449" lon="6.92322">
        <ele>917.9</ele>
        <time>2023-05-21T05:18:04Z</time>
      </trkpt>
      <trkpt lat="47.87445" lon="6.92317">
        <ele>918.6</ele>
        <time>2023-05-21T05:18:09Z</time>
      </trkpt>
      <trkpt lat="47.87442" lon="6.92311">
        <ele>920.1</ele>
        <time>2023-05-21T05:18:13Z</time>
      </trkpt>
      <trkpt lat="47.87428" lon="6.92302">
        <ele>918.8</ele>
        <time>2023-05-21T05:18:26Z</time>
      </trkpt>
      <trkpt lat="47.87394" lon="6.92269">
        <ele>917.9</ele>
        <time>2023-05-21T05:18:57Z</time>
      </trkpt>
      <trkpt lat="47.8739" lon="6.92266">
        <ele>917.3</ele>
        <time>2023-05-21T05:19:01Z</time>
      </trkpt>
      <trkpt lat="47.87389" lon="6.92259">
        <ele>918.8</ele>
        <time>2023-05-21T05:19:05Z</time>
      </trkpt>
      <trkpt lat="47.87382" lon="6.92249">
        <ele>918.1</ele>
        <time>2023-05-21T05:19:14Z</time>
      </trkpt>
      <trkpt lat="47.87376" lon="6.92236">
        <ele>919.5</ele>
        <time>2023-05-21T05:19:24Z</time>
      </trkpt>
      <trkpt lat="47.87369" lon="6.92226">
        <ele>919.5</ele>
        <time>2023-05-21T05:19:32Z</time>
      </trkpt>
      <trkpt lat="47.87362" lon="6.92209">
        <ele>920.8</ele>
        <time>2023-05-21T05:19:42Z</time>
      </trkpt>
      <trkpt lat="47.87354" lon="6.92202">
        <ele>918.6</ele>
        <time>2023-05-21T05:19:51Z</time>
      </trkpt>
      <trkpt lat="47.87344" lon="6.92186">
        <ele>919</ele>
        <time>2023-05-21T05:20:04Z</time>
      </trkpt>
      <trkpt lat="47.87327" lon="6.92171">
        <ele>916.6</ele>
        <time>2023-05-21T05:20:19Z</time>
      </trkpt>
      <trkpt lat="47.87324" lon="6.92167">
        <ele>916.5</ele>
        <time>2023-05-21T05:20:22Z</time>
      </trkpt>
      <trkpt lat="47.87322" lon="6.92157">
        <ele>919</ele>
        <time>2023-05-21T05:20:29Z</time>
      </trkpt>
      <trkpt lat="47.87308" lon="6.92136">
        <ele>920</ele>
        <time>2023-05-21T05:20:43Z</time>
      </trkpt>
      <trkpt lat="47.87299" lon="6.92129">
        <ele>918.7</ele>
        <time>2023-05-21T05:20:51Z</time>
      </trkpt>
      <trkpt lat="47.87295" lon="6.92124">
        <ele>918.6</ele>
        <time>2023-05-21T05:20:55Z</time>
      </trkpt>
      <trkpt lat="47.8729" lon="6.9212">
        <ele>917.8</ele>
        <time>2023-05-21T05:20:59Z</time>
      </trkpt>
      <trkpt lat="47.87287" lon="6.92114">
        <ele>918.2</ele>
        <time>2023-05-21T05:21:03Z</time>
      </trkpt>
      <trkpt lat="47.87282" lon="6.921">
        <ele>920.3</ele>
        <time>2023-05-21T05:21:11Z</time>
      </trkpt>
      <trkpt lat="47.87278" lon="6.92096">
        <ele>919.5</ele>
        <time>2023-05-21T05:21:15Z</time>
      </trkpt>
      <trkpt lat="47.87271" lon="6.92085">
        <ele>920.8</ele>
        <time>2023-05-21T05:21:23Z</time>
      </trkpt>
      <trkpt lat="47.87263" lon="6.92075">
        <ele>921.5</ele>
        <time>2023-05-21T05:21:31Z</time>
      </trkpt>
      <trkpt lat="47.8723" lon="6.92058">
        <ele>921.1</ele>
        <time>2023-05-21T05:22:01Z</time>
      </trkpt>
      <trkpt lat="47.87225" lon="6.92054">
        <ele>921.4</ele>
        <time>2023-05-21T05:22:05Z</time>
      </trkpt>
      <trkpt lat="47.8721" lon="6.92045">
        <ele>922.1</ele>
        <time>2023-05-21T05:22:22Z</time>
      </trkpt>
      <trkpt lat="47.87205" lon="6.92041">
        <ele>922.5</ele>
        <time>2023-05-21T05:22:27Z</time>
      </trkpt>
      <trkpt lat="47.87199" lon="6.92041">
        <ele>922.3</ele>
        <time>2023-05-21T05:22:29Z</time>
      </trkpt>
      <trkpt lat="47.87195" lon="6.92039">
        <ele>922.4</ele>
        <time>2023-05-21T05:22:32Z</time>
      </trkpt>
      <trkpt lat="47.87191" lon="6.92035">
        <ele>922.7</ele>
        <time>2023-05-21T05:22:36Z</time>
      </trkpt>
      <trkpt lat="47.87187" lon="6.9203">
        <ele>923.2</ele>
        <time>2023-05-21T05:22:39Z</time>
      </trkpt>
      <trkpt lat="47.87183" lon="6.92027">
        <ele>923.4</ele>
        <time>2023-05-21T05:22:43Z</time>
      </trkpt>
      <trkpt lat="47.87179" lon="6.9202">
        <ele>925</ele>
        <time>2023-05-21T05:22:45Z</time>
      </trkpt>
      <trkpt lat="47.87174" lon="6.92017">
        <ele>925.7</ele>
        <time>2023-05-21T05:22:50Z</time>
      </trkpt>
      <trkpt lat="47.8717" lon="6.92016">
        <ele>925.9</ele>
        <time>2023-05-21T05:22:54Z</time>
      </trkpt>
      <trkpt lat="47.87164" lon="6.92018">
        <ele>925.8</ele>
        <time>2023-05-21T05:23:01Z</time>
      </trkpt>
      <trkpt lat="47.8716" lon="6.92024">
        <ele>924.7</ele>
        <time>2023-05-21T05:23:08Z</time>
      </trkpt>
      <trkpt lat="47.87151" lon="6.9203">
        <ele>925.1</ele>
        <time>2023-05-21T05:23:17Z</time>
      </trkpt>
      <trkpt lat="47.87142" lon="6.92032">
        <ele>926.6</ele>
        <time>2023-05-21T05:23:25Z</time>
      </trkpt>
      <trkpt lat="47.87134" lon="6.9204">
        <ele>927</ele>
        <time>2023-05-21T05:23:34Z</time>
      </trkpt>
      <trkpt lat="47.87129" lon="6.92047">
        <ele>927</ele>
        <time>2023-05-21T05:23:39Z</time>
      </trkpt>
      <trkpt lat="47.87125" lon="6.92049">
        <ele>927.7</ele>
        <time>2023-05-21T05:23:44Z</time>
      </trkpt>
      <trkpt lat="47.87096" lon="6.92075">
        <ele>931.1</ele>
        <time>2023-05-21T05:24:15Z</time>
      </trkpt>
      <trkpt lat="47.87085" lon="6.92086">
        <ele>932.8</ele>
        <time>2023-05-21T05:24:29Z</time>
      </trkpt>
      <trkpt lat="47.87078" lon="6.92098">
        <ele>933.5</ele>
        <time>2023-05-21T05:24:37Z</time>
      </trkpt>
      <trkpt lat="47.8707" lon="6.92108">
        <ele>935.4</ele>
        <time>2023-05-21T05:24:45Z</time>
      </trkpt>
      <trkpt lat="47.87066" lon="6.9212">
        <ele>934.8</ele>
        <time>2023-05-21T05:24:53Z</time>
      </trkpt>
      <trkpt lat="47.87062" lon="6.92124">
        <ele>936</ele>
        <time>2023-05-21T05:24:57Z</time>
      </trkpt>
      <trkpt lat="47.87044" lon="6.92153">
        <ele>939.2</ele>
        <time>2023-05-21T05:25:21Z</time>
      </trkpt>
      <trkpt lat="47.87025" lon="6.92199">
        <ele>940.9</ele>
        <time>2023-05-21T05:25:54Z</time>
      </trkpt>
      <trkpt lat="47.87012" lon="6.92227">
        <ele>942.9</ele>
        <time>2023-05-21T05:26:14Z</time>
      </trkpt>
      <trkpt lat="47.87011" lon="6.92234">
        <ele>942.2</ele>
        <time>2023-05-21T05:26:17Z</time>
      </trkpt>
      <trkpt lat="47.87003" lon="6.92258">
        <ele>942.7</ele>
        <time>2023-05-21T05:26:33Z</time>
      </trkpt>
      <trkpt lat="47.86999" lon="6.92262">
        <ele>943.9</ele>
        <time>2023-05-21T05:26:42Z</time>
      </trkpt>
      <trkpt lat="47.86998" lon="6.92248">
        <ele>945</ele>
        <time>2023-05-21T05:27:13Z</time>
      </trkpt>
      <trkpt lat="47.86994" lon="6.92243">
        <ele>945.5</ele>
        <time>2023-05-21T05:27:21Z</time>
      </trkpt>
      <trkpt lat="47.86986" lon="6.92237">
        <ele>945.7</ele>
        <time>2023-05-21T05:27:30Z</time>
      </trkpt>
      <trkpt lat="47.86994" lon="6.92223">
        <ele>951.1</ele>
        <time>2023-05-21T05:27:46Z</time>
      </trkpt>
      <trkpt lat="47.86993" lon="6.92224">
        <ele>950.7</ele>
        <time>2023-05-21T05:27:55Z</time>
      </trkpt>
      <trkpt lat="47.86981" lon="6.92225">
        <ele>949</ele>
        <time>2023-05-21T05:28:09Z</time>
      </trkpt>
      <trkpt lat="47.86983" lon="6.92217">
        <ele>951.9</ele>
        <time>2023-05-21T05:28:17Z</time>
      </trkpt>
      <trkpt lat="47.86986" lon="6.92213">
        <ele>953.5</ele>
        <time>2023-05-21T05:28:24Z</time>
      </trkpt>
      <trkpt lat="47.86981" lon="6.92211">
        <ele>953.6</ele>
        <time>2023-05-21T05:28:36Z</time>
      </trkpt>
      <trkpt lat="47.86975" lon="6.92197">
        <ele>957.5</ele>
        <time>2023-05-21T05:28:47Z</time>
      </trkpt>
      <trkpt lat="47.86975" lon="6.9219">
        <ele>959</ele>
        <time>2023-05-21T05:28:52Z</time>
      </trkpt>
      <trkpt lat="47.86965" lon="6.9215">
        <ele>960.8</ele>
        <time>2023-05-21T05:29:21Z</time>
      </trkpt>
      <trkpt lat="47.86964" lon="6.92133">
        <ele>962.7</ele>
        <time>2023-05-21T05:29:32Z</time>
      </trkpt>
      <trkpt lat="47.86963" lon="6.9212">
        <ele>964.1</ele>
        <time>2023-05-21T05:29:40Z</time>
      </trkpt>
      <trkpt lat="47.8696" lon="6.92114">
        <ele>963.4</ele>
        <time>2023-05-21T05:29:44Z</time>
      </trkpt>
      <trkpt lat="47.86957" lon="6.92087">
        <ele>966.1</ele>
        <time>2023-05-21T05:30:05Z</time>
      </trkpt>
      <trkpt lat="47.86955" lon="6.92076">
        <ele>967</ele>
        <time>2023-05-21T05:30:15Z</time>
      </trkpt>
      <trkpt lat="47.86954" lon="6.92069">
        <ele>967.8</ele>
        <time>2023-05-21T05:30:18Z</time>
      </trkpt>
      <trkpt lat="47.86955" lon="6.9206">
        <ele>970.3</ele>
        <time>2023-05-21T05:30:22Z</time>
      </trkpt>
      <trkpt lat="47.86954" lon="6.92054">
        <ele>970.8</ele>
        <time>2023-05-21T05:30:25Z</time>
      </trkpt>
      <trkpt lat="47.86954" lon="6.92044">
        <ele>972.6</ele>
        <time>2023-05-21T05:30:39Z</time>
      </trkpt>
      <trkpt lat="47.86952" lon="6.92037">
        <ele>972.5</ele>
        <time>2023-05-21T05:30:46Z</time>
      </trkpt>
      <trkpt lat="47.86958" lon="6.92039">
        <ele>976.3</ele>
        <time>2023-05-21T05:30:57Z</time>
      </trkpt>
      <trkpt lat="47.8696" lon="6.92052">
        <ele>975.3</ele>
        <time>2023-05-21T05:31:05Z</time>
      </trkpt>
      <trkpt lat="47.86964" lon="6.92059">
        <ele>976.6</ele>
        <time>2023-05-21T05:31:10Z</time>
      </trkpt>
      <trkpt lat="47.86967" lon="6.92051">
        <ele>980.2</ele>
        <time>2023-05-21T05:31:17Z</time>
      </trkpt>
      <trkpt lat="47.86963" lon="6.92046">
        <ele>978.4</ele>
        <time>2023-05-21T05:31:21Z</time>
      </trkpt>
      <trkpt lat="47.86964" lon="6.92033">
        <ele>981.4</ele>
        <time>2023-05-21T05:31:33Z</time>
      </trkpt>
      <trkpt lat="47.86964" lon="6.92024">
        <ele>982.8</ele>
        <time>2023-05-21T05:31:40Z</time>
      </trkpt>
      <trkpt lat="47.86961" lon="6.92008">
        <ele>982.5</ele>
        <time>2023-05-21T05:31:52Z</time>
      </trkpt>
      <trkpt lat="47.86962" lon="6.92">
        <ele>984</ele>
        <time>2023-05-21T05:31:55Z</time>
      </trkpt>
      <trkpt lat="47.86961" lon="6.91981">
        <ele>985.9</ele>
        <time>2023-05-21T05:32:08Z</time>
      </trkpt>
      <trkpt lat="47.86959" lon="6.91961">
        <ele>985.5</ele>
        <time>2023-05-21T05:32:23Z</time>
      </trkpt>
      <trkpt lat="47.8696" lon="6.91955">
        <ele>986.2</ele>
        <time>2023-05-21T05:32:26Z</time>
      </trkpt>
      <trkpt lat="47.86964" lon="6.91949">
        <ele>989.1</ele>
        <time>2023-05-21T05:32:30Z</time>
      </trkpt>
      <trkpt lat="47.86962" lon="6.91941">
        <ele>987.7</ele>
        <time>2023-05-21T05:32:35Z</time>
      </trkpt>
      <trkpt lat="47.86965" lon="6.91905">
        <ele>991.8</ele>
        <time>2023-05-21T05:32:58Z</time>
      </trkpt>
      <trkpt lat="47.86961" lon="6.919">
        <ele>989.3</ele>
        <time>2023-05-21T05:33:04Z</time>
      </trkpt>
      <trkpt lat="47.86959" lon="6.9189">
        <ele>988.9</ele>
        <time>2023-05-21T05:33:11Z</time>
      </trkpt>
      <trkpt lat="47.86964" lon="6.91877">
        <ele>993.9</ele>
        <time>2023-05-21T05:33:18Z</time>
      </trkpt>
      <trkpt lat="47.86964" lon="6.91866">
        <ele>994.9</ele>
        <time>2023-05-21T05:33:25Z</time>
      </trkpt>
      <trkpt lat="47.86961" lon="6.91851">
        <ele>993.6</ele>
        <time>2023-05-21T05:33:36Z</time>
      </trkpt>
      <trkpt lat="47.86962" lon="6.91844">
        <ele>994.5</ele>
        <time>2023-05-21T05:33:40Z</time>
      </trkpt>
      <trkpt lat="47.86968" lon="6.91839">
        <ele>998.4</ele>
        <time>2023-05-21T05:33:45Z</time>
      </trkpt>
      <trkpt lat="47.86966" lon="6.91832">
        <ele>997.2</ele>
        <time>2023-05-21T05:33:50Z</time>
      </trkpt>
      <trkpt lat="47.86966" lon="6.91812">
        <ele>996.8</ele>
        <time>2023-05-21T05:34:02Z</time>
      </trkpt>
      <trkpt lat="47.86968" lon="6.91806">
        <ele>998.1</ele>
        <time>2023-05-21T05:34:06Z</time>
      </trkpt>
      <trkpt lat="47.86968" lon="6.91776">
        <ele>1000</ele>
        <time>2023-05-21T05:34:23Z</time>
      </trkpt>
      <trkpt lat="47.86965" lon="6.91766">
        <ele>999.8</ele>
        <time>2023-05-21T05:34:29Z</time>
      </trkpt>
      <trkpt lat="47.86962" lon="6.91754">
        <ele>1000.4</ele>
        <time>2023-05-21T05:34:38Z</time>
      </trkpt>
      <trkpt lat="47.86961" lon="6.91746">
        <ele>1001.7</ele>
        <time>2023-05-21T05:34:43Z</time>
      </trkpt>
      <trkpt lat="47.8696" lon="6.91729">
        <ele>1005.3</ele>
        <time>2023-05-21T05:34:56Z</time>
      </trkpt>
      <trkpt lat="47.86957" lon="6.91705">
        <ele>1005.2</ele>
        <time>2023-05-21T05:35:12Z</time>
      </trkpt>
      <trkpt lat="47.86958" lon="6.91697">
        <ele>1005.8</ele>
        <time>2023-05-21T05:35:17Z</time>
      </trkpt>
      <trkpt lat="47.86957" lon="6.91687">
        <ele>1006</ele>
        <time>2023-05-21T05:35:23Z</time>
      </trkpt>
      <trkpt lat="47.86953" lon="6.91681">
        <ele>1004.8</ele>
        <time>2023-05-21T05:35:29Z</time>
      </trkpt>
      <trkpt lat="47.86957" lon="6.91681">
        <ele>1006.6</ele>
        <time>2023-05-21T05:36:38Z</time>
      </trkpt>
      <trkpt lat="47.86959" lon="6.91673">
        <ele>1008.2</ele>
        <time>2023-05-21T05:36:44Z</time>
      </trkpt>
      <trkpt lat="47.86963" lon="6.91668">
        <ele>1009.9</ele>
        <time>2023-05-21T05:37:21Z</time>
      </trkpt>
      <trkpt lat="47.86966" lon="6.9166">
        <ele>1010.2</ele>
        <time>2023-05-21T05:37:27Z</time>
      </trkpt>
      <trkpt lat="47.86966" lon="6.91654">
        <ele>1009.4</ele>
        <time>2023-05-21T05:37:30Z</time>
      </trkpt>
      <trkpt lat="47.86965" lon="6.91628">
        <ele>1006.9</ele>
        <time>2023-05-21T05:37:43Z</time>
      </trkpt>
      <trkpt lat="47.86967" lon="6.9162">
        <ele>1008.5</ele>
        <time>2023-05-21T05:37:48Z</time>
      </trkpt>
      <trkpt lat="47.86965" lon="6.91606">
        <ele>1006.8</ele>
        <time>2023-05-21T05:37:54Z</time>
      </trkpt>
      <trkpt lat="47.86965" lon="6.91596">
        <ele>1006.5</ele>
        <time>2023-05-21T05:38:02Z</time>
      </trkpt>
      <trkpt lat="47.86965" lon="6.91589">
        <ele>1006.2</ele>
        <time>2023-05-21T05:38:06Z</time>
      </trkpt>
      <trkpt lat="47.86968" lon="6.91585">
        <ele>1008.6</ele>
        <time>2023-05-21T05:38:10Z</time>
      </trkpt>
      <trkpt lat="47.86969" lon="6.91573">
        <ele>1008.6</ele>
        <time>2023-05-21T05:38:18Z</time>
      </trkpt>
      <trkpt lat="47.86971" lon="6.91565">
        <ele>1009.7</ele>
        <time>2023-05-21T05:38:22Z</time>
      </trkpt>
      <trkpt lat="47.8697" lon="6.91552">
        <ele>1007.9</ele>
        <time>2023-05-21T05:38:30Z</time>
      </trkpt>
      <trkpt lat="47.86971" lon="6.91542">
        <ele>1007.6</ele>
        <time>2023-05-21T05:38:36Z</time>
      </trkpt>
      <trkpt lat="47.86974" lon="6.91501">
        <ele>1007.1</ele>
        <time>2023-05-21T05:38:52Z</time>
      </trkpt>
      <trkpt lat="47.86973" lon="6.91493">
        <ele>1007.9</ele>
        <time>2023-05-21T05:38:59Z</time>
      </trkpt>
      <trkpt lat="47.86975" lon="6.91486">
        <ele>1010.4</ele>
        <time>2023-05-21T05:39:04Z</time>
      </trkpt>
      <trkpt lat="47.86972" lon="6.91477">
        <ele>1010.9</ele>
        <time>2023-05-21T05:39:08Z</time>
      </trkpt>
      <trkpt lat="47.86974" lon="6.91469">
        <ele>1013.8</ele>
        <time>2023-05-21T05:39:11Z</time>
      </trkpt>
      <trkpt lat="47.8697" lon="6.91458">
        <ele>1016.7</ele>
        <time>2023-05-21T05:39:18Z</time>
      </trkpt>
      <trkpt lat="47.86962" lon="6.91461">
        <ele>1014</ele>
        <time>2023-05-21T05:39:28Z</time>
      </trkpt>
      <trkpt lat="47.86955" lon="6.91464">
        <ele>1011.4</ele>
        <time>2023-05-21T05:39:36Z</time>
      </trkpt>
      <trkpt lat="47.86955" lon="6.91457">
        <ele>1014.1</ele>
        <time>2023-05-21T05:39:39Z</time>
      </trkpt>
      <trkpt lat="47.86952" lon="6.91446">
        <ele>1017.8</ele>
        <time>2023-05-21T05:39:46Z</time>
      </trkpt>
      <trkpt lat="47.86947" lon="6.91446">
        <ele>1016.8</ele>
        <time>2023-05-21T05:39:50Z</time>
      </trkpt>
      <trkpt lat="47.86943" lon="6.91446">
        <ele>1015.7</ele>
        <time>2023-05-21T05:39:55Z</time>
      </trkpt>
      <trkpt lat="47.86944" lon="6.91434">
        <ele>1019.8</ele>
        <time>2023-05-21T05:40:02Z</time>
      </trkpt>
      <trkpt lat="47.86934" lon="6.91435">
        <ele>1015.7</ele>
        <time>2023-05-21T05:40:09Z</time>
      </trkpt>
      <trkpt lat="47.86931" lon="6.91429">
        <ele>1016.7</ele>
        <time>2023-05-21T05:40:13Z</time>
      </trkpt>
      <trkpt lat="47.86924" lon="6.91418">
        <ele>1018.6</ele>
        <time>2023-05-21T05:40:20Z</time>
      </trkpt>
      <trkpt lat="47.8692" lon="6.91415">
        <ele>1018.6</ele>
        <time>2023-05-21T05:40:24Z</time>
      </trkpt>
      <trkpt lat="47.86908" lon="6.91404">
        <ele>1018.1</ele>
        <time>2023-05-21T05:40:37Z</time>
      </trkpt>
      <trkpt lat="47.86907" lon="6.91396">
        <ele>1020.9</ele>
        <time>2023-05-21T05:40:42Z</time>
      </trkpt>
      <trkpt lat="47.86907" lon="6.91389">
        <ele>1023.8</ele>
        <time>2023-05-21T05:40:46Z</time>
      </trkpt>
      <trkpt lat="47.86902" lon="6.91385">
        <ele>1023.5</ele>
        <time>2023-05-21T05:40:49Z</time>
      </trkpt>
      <trkpt lat="47.86898" lon="6.91384">
        <ele>1022.3</ele>
        <time>2023-05-21T05:40:54Z</time>
      </trkpt>
      <trkpt lat="47.86893" lon="6.91384">
        <ele>1020.2</ele>
        <time>2023-05-21T05:40:58Z</time>
      </trkpt>
      <trkpt lat="47.86889" lon="6.91381">
        <ele>1020</ele>
        <time>2023-05-21T05:41:01Z</time>
      </trkpt>
      <trkpt lat="47.86881" lon="6.91376">
        <ele>1019.5</ele>
        <time>2023-05-21T05:41:12Z</time>
      </trkpt>
      <trkpt lat="47.86878" lon="6.91371">
        <ele>1020.7</ele>
        <time>2023-05-21T05:41:16Z</time>
      </trkpt>
      <trkpt lat="47.86879" lon="6.91364">
        <ele>1024.4</ele>
        <time>2023-05-21T05:41:19Z</time>
      </trkpt>
      <trkpt lat="47.86874" lon="6.91359">
        <ele>1024.2</ele>
        <time>2023-05-21T05:41:23Z</time>
      </trkpt>
      <trkpt lat="47.86871" lon="6.9135">
        <ele>1025.6</ele>
        <time>2023-05-21T05:41:31Z</time>
      </trkpt>
      <trkpt lat="47.86869" lon="6.91327">
        <ele>1031.2</ele>
        <time>2023-05-21T05:41:45Z</time>
      </trkpt>
      <trkpt lat="47.86863" lon="6.91324">
        <ele>1029.2</ele>
        <time>2023-05-21T05:41:48Z</time>
      </trkpt>
      <trkpt lat="47.86861" lon="6.91315">
        <ele>1030.6</ele>
        <time>2023-05-21T05:41:53Z</time>
      </trkpt>
      <trkpt lat="47.86857" lon="6.91312">
        <ele>1029.2</ele>
        <time>2023-05-21T05:41:56Z</time>
      </trkpt>
      <trkpt lat="47.86854" lon="6.91307">
        <ele>1029</ele>
        <time>2023-05-21T05:42:00Z</time>
      </trkpt>
      <trkpt lat="47.86849" lon="6.913">
        <ele>1028</ele>
        <time>2023-05-21T05:42:09Z</time>
      </trkpt>
      <trkpt lat="47.86849" lon="6.91292">
        <ele>1029.6</ele>
        <time>2023-05-21T05:42:12Z</time>
      </trkpt>
      <trkpt lat="47.86845" lon="6.91284">
        <ele>1029.1</ele>
        <time>2023-05-21T05:42:19Z</time>
      </trkpt>
      <trkpt lat="47.86844" lon="6.91278">
        <ele>1029.7</ele>
        <time>2023-05-21T05:42:22Z</time>
      </trkpt>
      <trkpt lat="47.86846" lon="6.91271">
        <ele>1031.1</ele>
        <time>2023-05-21T05:42:25Z</time>
      </trkpt>
      <trkpt lat="47.86848" lon="6.91266">
        <ele>1032.3</ele>
        <time>2023-05-21T05:42:28Z</time>
      </trkpt>
      <trkpt lat="47.86849" lon="6.91256">
        <ele>1033.2</ele>
        <time>2023-05-21T05:42:31Z</time>
      </trkpt>
      <trkpt lat="47.8685" lon="6.91251">
        <ele>1034</ele>
        <time>2023-05-21T05:42:35Z</time>
      </trkpt>
      <trkpt lat="47.86851" lon="6.91241">
        <ele>1035.2</ele>
        <time>2023-05-21T05:42:43Z</time>
      </trkpt>
      <trkpt lat="47.8685" lon="6.91234">
        <ele>1035</ele>
        <time>2023-05-21T05:42:46Z</time>
      </trkpt>
      <trkpt lat="47.86852" lon="6.91227">
        <ele>1036.7</ele>
        <time>2023-05-21T05:42:51Z</time>
      </trkpt>
      <trkpt lat="47.86846" lon="6.91216">
        <ele>1033.5</ele>
        <time>2023-05-21T05:43:01Z</time>
      </trkpt>
      <trkpt lat="47.86844" lon="6.91209">
        <ele>1032.5</ele>
        <time>2023-05-21T05:43:05Z</time>
      </trkpt>
      <trkpt lat="47.86843" lon="6.912">
        <ele>1032.1</ele>
        <time>2023-05-21T05:43:10Z</time>
      </trkpt>
      <trkpt lat="47.86844" lon="6.9119">
        <ele>1033.7</ele>
        <time>2023-05-21T05:43:14Z</time>
      </trkpt>
      <trkpt lat="47.8684" lon="6.91176">
        <ele>1032.7</ele>
        <time>2023-05-21T05:43:20Z</time>
      </trkpt>
      <trkpt lat="47.86837" lon="6.91165">
        <ele>1032.3</ele>
        <time>2023-05-21T05:43:26Z</time>
      </trkpt>
      <trkpt lat="47.86834" lon="6.91159">
        <ele>1031.7</ele>
        <time>2023-05-21T05:43:29Z</time>
      </trkpt>
      <trkpt lat="47.86834" lon="6.91152">
        <ele>1033.8</ele>
        <time>2023-05-21T05:43:32Z</time>
      </trkpt>
      <trkpt lat="47.86833" lon="6.91146">
        <ele>1034.7</ele>
        <time>2023-05-21T05:43:36Z</time>
      </trkpt>
      <trkpt lat="47.86832" lon="6.9114">
        <ele>1035.7</ele>
        <time>2023-05-21T05:43:40Z</time>
      </trkpt>
      <trkpt lat="47.86824" lon="6.91133">
        <ele>1031.7</ele>
        <time>2023-05-21T05:43:49Z</time>
      </trkpt>
      <trkpt lat="47.86824" lon="6.91124">
        <ele>1034.4</ele>
        <time>2023-05-21T05:43:56Z</time>
      </trkpt>
      <trkpt lat="47.86818" lon="6.91102">
        <ele>1037.3</ele>
        <time>2023-05-21T05:44:08Z</time>
      </trkpt>
      <trkpt lat="47.86813" lon="6.91097">
        <ele>1034.7</ele>
        <time>2023-05-21T05:44:14Z</time>
      </trkpt>
      <trkpt lat="47.8681" lon="6.91094">
        <ele>1032.9</ele>
        <time>2023-05-21T05:44:17Z</time>
      </trkpt>
      <trkpt lat="47.86808" lon="6.91085">
        <ele>1034.1</ele>
        <time>2023-05-21T05:44:22Z</time>
      </trkpt>
      <trkpt lat="47.86804" lon="6.91081">
        <ele>1032.2</ele>
        <time>2023-05-21T05:44:26Z</time>
      </trkpt>
      <trkpt lat="47.86795" lon="6.91071">
        <ele>1031.6</ele>
        <time>2023-05-21T05:44:37Z</time>
      </trkpt>
      <trkpt lat="47.86793" lon="6.91064">
        <ele>1033.6</ele>
        <time>2023-05-21T05:44:40Z</time>
      </trkpt>
      <trkpt lat="47.8679" lon="6.91057">
        <ele>1035</ele>
        <time>2023-05-21T05:44:44Z</time>
      </trkpt>
      <trkpt lat="47.86786" lon="6.91052">
        <ele>1035.3</ele>
        <time>2023-05-21T05:44:48Z</time>
      </trkpt>
      <trkpt lat="47.86769" lon="6.91045">
        <ele>1032.2</ele>
        <time>2023-05-21T05:45:03Z</time>
      </trkpt>
      <trkpt lat="47.86764" lon="6.91038">
        <ele>1034.7</ele>
        <time>2023-05-21T05:45:13Z</time>
      </trkpt>
      <trkpt lat="47.86754" lon="6.91034">
        <ele>1034.5</ele>
        <time>2023-05-21T05:45:26Z</time>
      </trkpt>
      <trkpt lat="47.86746" lon="6.91024">
        <ele>1037.3</ele>
        <time>2023-05-21T05:45:33Z</time>
      </trkpt>
      <trkpt lat="47.86741" lon="6.91022">
        <ele>1035.7</ele>
        <time>2023-05-21T05:45:36Z</time>
      </trkpt>
      <trkpt lat="47.86735" lon="6.91016">
        <ele>1035.5</ele>
        <time>2023-05-21T05:45:43Z</time>
      </trkpt>
      <trkpt lat="47.86731" lon="6.91008">
        <ele>1036.8</ele>
        <time>2023-05-21T05:45:50Z</time>
      </trkpt>
      <trkpt lat="47.86731" lon="6.91001">
        <ele>1040.2</ele>
        <time>2023-05-21T05:45:55Z</time>
      </trkpt>
      <trkpt lat="47.8673" lon="6.90995">
        <ele>1041.6</ele>
        <time>2023-05-21T05:45:57Z</time>
      </trkpt>
      <trkpt lat="47.86722" lon="6.90991">
        <ele>1036.4</ele>
        <time>2023-05-21T05:46:04Z</time>
      </trkpt>
      <trkpt lat="47.8672" lon="6.90984">
        <ele>1036.8</ele>
        <time>2023-05-21T05:46:09Z</time>
      </trkpt>
      <trkpt lat="47.86719" lon="6.90976">
        <ele>1038.1</ele>
        <time>2023-05-21T05:46:12Z</time>
      </trkpt>
      <trkpt lat="47.8672" lon="6.90967">
        <ele>1040.3</ele>
        <time>2023-05-21T05:46:15Z</time>
      </trkpt>
      <trkpt lat="47.86716" lon="6.90961">
        <ele>1037.3</ele>
        <time>2023-05-21T05:46:19Z</time>
      </trkpt>
      <trkpt lat="47.86717" lon="6.90954">
        <ele>1038.6</ele>
        <time>2023-05-21T05:46:23Z</time>
      </trkpt>
      <trkpt lat="47.86713" lon="6.9094">
        <ele>1037.3</ele>
        <time>2023-05-21T05:46:27Z</time>
      </trkpt>
      <trkpt lat="47.86715" lon="6.90925">
        <ele>1041.5</ele>
        <time>2023-05-21T05:46:34Z</time>
      </trkpt>
      <trkpt lat="47.86716" lon="6.90919">
        <ele>1043.2</ele>
        <time>2023-05-21T05:46:39Z</time>
      </trkpt>
      <trkpt lat="47.86712" lon="6.90914">
        <ele>1042.5</ele>
        <time>2023-05-21T05:46:41Z</time>
      </trkpt>
      <trkpt lat="47.86707" lon="6.90914">
        <ele>1039.8</ele>
        <time>2023-05-21T05:46:44Z</time>
      </trkpt>
      <trkpt lat="47.86699" lon="6.90911">
        <ele>1036.7</ele>
        <time>2023-05-21T05:46:54Z</time>
      </trkpt>
      <trkpt lat="47.86693" lon="6.90911">
        <ele>1034</ele>
        <time>2023-05-21T05:46:59Z</time>
      </trkpt>
      <trkpt lat="47.8669" lon="6.90903">
        <ele>1036.8</ele>
        <time>2023-05-21T05:47:06Z</time>
      </trkpt>
      <trkpt lat="47.86688" lon="6.90895">
        <ele>1039.9</ele>
        <time>2023-05-21T05:47:10Z</time>
      </trkpt>
      <trkpt lat="47.8668" lon="6.90892">
        <ele>1040.5</ele>
        <time>2023-05-21T05:47:17Z</time>
      </trkpt>
      <trkpt lat="47.86674" lon="6.90897">
        <ele>1037.5</ele>
        <time>2023-05-21T05:47:20Z</time>
      </trkpt>
      <trkpt lat="47.8667" lon="6.90901">
        <ele>1034.9</ele>
        <time>2023-05-21T05:47:23Z</time>
      </trkpt>
      <trkpt lat="47.86665" lon="6.90899">
        <ele>1035.9</ele>
        <time>2023-05-21T05:47:28Z</time>
      </trkpt>
      <trkpt lat="47.86659" lon="6.90903">
        <ele>1034.9</ele>
        <time>2023-05-21T05:47:34Z</time>
      </trkpt>
      <trkpt lat="47.86651" lon="6.90902">
        <ele>1037</ele>
        <time>2023-05-21T05:47:41Z</time>
      </trkpt>
      <trkpt lat="47.86646" lon="6.90902">
        <ele>1038</ele>
        <time>2023-05-21T05:47:44Z</time>
      </trkpt>
      <trkpt lat="47.86642" lon="6.90905">
        <ele>1037.3</ele>
        <time>2023-05-21T05:47:48Z</time>
      </trkpt>
      <trkpt lat="47.86635" lon="6.90911">
        <ele>1035.1</ele>
        <time>2023-05-21T05:47:54Z</time>
      </trkpt>
      <trkpt lat="47.86626" lon="6.90911">
        <ele>1035.6</ele>
        <time>2023-05-21T05:48:03Z</time>
      </trkpt>
      <trkpt lat="47.86621" lon="6.90912">
        <ele>1035.3</ele>
        <time>2023-05-21T05:48:06Z</time>
      </trkpt>
      <trkpt lat="47.86617" lon="6.90909">
        <ele>1037.3</ele>
        <time>2023-05-21T05:48:11Z</time>
      </trkpt>
      <trkpt lat="47.86604" lon="6.90913">
        <ele>1037.2</ele>
        <time>2023-05-21T05:48:20Z</time>
      </trkpt>
      <trkpt lat="47.86594" lon="6.90916">
        <ele>1037.8</ele>
        <time>2023-05-21T05:48:28Z</time>
      </trkpt>
      <trkpt lat="47.86589" lon="6.90919">
        <ele>1037.3</ele>
        <time>2023-05-21T05:48:32Z</time>
      </trkpt>
      <trkpt lat="47.86575" lon="6.90926">
        <ele>1037.6</ele>
        <time>2023-05-21T05:48:46Z</time>
      </trkpt>
      <trkpt lat="47.8657" lon="6.90934">
        <ele>1035.1</ele>
        <time>2023-05-21T05:48:54Z</time>
      </trkpt>
      <trkpt lat="47.86566" lon="6.90938">
        <ele>1034.4</ele>
        <time>2023-05-21T05:49:00Z</time>
      </trkpt>
      <trkpt lat="47.86561" lon="6.90941">
        <ele>1034.7</ele>
        <time>2023-05-21T05:49:03Z</time>
      </trkpt>
      <trkpt lat="47.86557" lon="6.90942">
        <ele>1035.6</ele>
        <time>2023-05-21T05:49:06Z</time>
      </trkpt>
      <trkpt lat="47.86548" lon="6.90941">
        <ele>1037.4</ele>
        <time>2023-05-21T05:49:15Z</time>
      </trkpt>
      <trkpt lat="47.86544" lon="6.90942">
        <ele>1037.5</ele>
        <time>2023-05-21T05:49:19Z</time>
      </trkpt>
      <trkpt lat="47.86539" lon="6.90946">
        <ele>1037.3</ele>
        <time>2023-05-21T05:49:22Z</time>
      </trkpt>
      <trkpt lat="47.86534" lon="6.90947">
        <ele>1038.1</ele>
        <time>2023-05-21T05:49:26Z</time>
      </trkpt>
      <trkpt lat="47.86531" lon="6.90943">
        <ele>1038.8</ele>
        <time>2023-05-21T05:49:30Z</time>
      </trkpt>
      <trkpt lat="47.86523" lon="6.90943">
        <ele>1039.2</ele>
        <time>2023-05-21T05:49:44Z</time>
      </trkpt>
      <trkpt lat="47.8652" lon="6.90937">
        <ele>1039.8</ele>
        <time>2023-05-21T05:49:48Z</time>
      </trkpt>
      <trkpt lat="47.86514" lon="6.90924">
        <ele>1040.5</ele>
        <time>2023-05-21T05:49:56Z</time>
      </trkpt>
      <trkpt lat="47.86504" lon="6.90908">
        <ele>1040.7</ele>
        <time>2023-05-21T05:50:07Z</time>
      </trkpt>
      <trkpt lat="47.86471" lon="6.90872">
        <ele>1040.9</ele>
        <time>2023-05-21T05:50:38Z</time>
      </trkpt>
      <trkpt lat="47.86466" lon="6.90872">
        <ele>1041</ele>
        <time>2023-05-21T05:50:42Z</time>
      </trkpt>
      <trkpt lat="47.86453" lon="6.90878">
        <ele>1040.4</ele>
        <time>2023-05-21T05:50:52Z</time>
      </trkpt>
      <trkpt lat="47.86446" lon="6.90888">
        <ele>1039.1</ele>
        <time>2023-05-21T05:50:59Z</time>
      </trkpt>
      <trkpt lat="47.8643" lon="6.90903">
        <ele>1040.5</ele>
        <time>2023-05-21T05:51:16Z</time>
      </trkpt>
      <trkpt lat="47.86423" lon="6.90912">
        <ele>1040.4</ele>
        <time>2023-05-21T05:51:22Z</time>
      </trkpt>
      <trkpt lat="47.86417" lon="6.90923">
        <ele>1040</ele>
        <time>2023-05-21T05:51:30Z</time>
      </trkpt>
      <trkpt lat="47.86409" lon="6.90932">
        <ele>1040.4</ele>
        <time>2023-05-21T05:51:37Z</time>
      </trkpt>
      <trkpt lat="47.86405" lon="6.90935">
        <ele>1040.4</ele>
        <time>2023-05-21T05:51:41Z</time>
      </trkpt>
      <trkpt lat="47.86386" lon="6.90959">
        <ele>1040.4</ele>
        <time>2023-05-21T05:51:59Z</time>
      </trkpt>
      <trkpt lat="47.86377" lon="6.90966">
        <ele>1041.4</ele>
        <time>2023-05-21T05:52:07Z</time>
      </trkpt>
      <trkpt lat="47.86374" lon="6.90971">
        <ele>1041.6</ele>
        <time>2023-05-21T05:52:10Z</time>
      </trkpt>
      <trkpt lat="47.86351" lon="6.90989">
        <ele>1042.1</ele>
        <time>2023-05-21T05:52:33Z</time>
      </trkpt>
      <trkpt lat="47.86354" lon="6.91">
        <ele>1042.7</ele>
        <time>2023-05-21T05:52:41Z</time>
      </trkpt>
      <trkpt lat="47.86354" lon="6.91008">
        <ele>1044.2</ele>
        <time>2023-05-21T05:52:45Z</time>
      </trkpt>
      <trkpt lat="47.86353" lon="6.91014">
        <ele>1045.1</ele>
        <time>2023-05-21T05:52:49Z</time>
      </trkpt>
      <trkpt lat="47.86339" lon="6.91039">
        <ele>1047.6</ele>
        <time>2023-05-21T05:53:09Z</time>
      </trkpt>
      <trkpt lat="47.8632" lon="6.91062">
        <ele>1052.5</ele>
        <time>2023-05-21T05:53:31Z</time>
      </trkpt>
      <trkpt lat="47.86307" lon="6.91063">
        <ele>1052.7</ele>
        <time>2023-05-21T05:53:43Z</time>
      </trkpt>
      <trkpt lat="47.86302" lon="6.91066">
        <ele>1054.3</ele>
        <time>2023-05-21T05:53:46Z</time>
      </trkpt>
      <trkpt lat="47.86286" lon="6.91064">
        <ele>1055.9</ele>
        <time>2023-05-21T05:54:00Z</time>
      </trkpt>
      <trkpt lat="47.86274" lon="6.91058">
        <ele>1055.8</ele>
        <time>2023-05-21T05:54:06Z</time>
      </trkpt>
      <trkpt lat="47.86268" lon="6.9106">
        <ele>1058</ele>
        <time>2023-05-21T05:54:14Z</time>
      </trkpt>
      <trkpt lat="47.86259" lon="6.91055">
        <ele>1058.6</ele>
        <time>2023-05-21T05:54:22Z</time>
      </trkpt>
      <trkpt lat="47.86251" lon="6.91045">
        <ele>1058.1</ele>
        <time>2023-05-21T05:54:31Z</time>
      </trkpt>
      <trkpt lat="47.86246" lon="6.91042">
        <ele>1058.7</ele>
        <time>2023-05-21T05:54:36Z</time>
      </trkpt>
      <trkpt lat="47.8624" lon="6.9104">
        <ele>1060</ele>
        <time>2023-05-21T05:54:39Z</time>
      </trkpt>
      <trkpt lat="47.86237" lon="6.91034">
        <ele>1059.3</ele>
        <time>2023-05-21T05:54:43Z</time>
      </trkpt>
      <trkpt lat="47.86217" lon="6.91028">
        <ele>1063.6</ele>
        <time>2023-05-21T05:55:01Z</time>
      </trkpt>
      <trkpt lat="47.86207" lon="6.91021">
        <ele>1065.2</ele>
        <time>2023-05-21T05:55:13Z</time>
      </trkpt>
      <trkpt lat="47.86202" lon="6.91028">
        <ele>1067.9</ele>
        <time>2023-05-21T05:55:19Z</time>
      </trkpt>
      <trkpt lat="47.86196" lon="6.91024">
        <ele>1069</ele>
        <time>2023-05-21T05:55:28Z</time>
      </trkpt>
      <trkpt lat="47.86192" lon="6.91022">
        <ele>1069.9</ele>
        <time>2023-05-21T05:55:32Z</time>
      </trkpt>
      <trkpt lat="47.86186" lon="6.91018">
        <ele>1071.2</ele>
        <time>2023-05-21T05:55:39Z</time>
      </trkpt>
      <trkpt lat="47.86184" lon="6.91011">
        <ele>1070.7</ele>
        <time>2023-05-21T05:55:43Z</time>
      </trkpt>
      <trkpt lat="47.8618" lon="6.91007">
        <ele>1071.3</ele>
        <time>2023-05-21T05:55:52Z</time>
      </trkpt>
      <trkpt lat="47.86176" lon="6.91008">
        <ele>1072.7</ele>
        <time>2023-05-21T05:55:56Z</time>
      </trkpt>
      <trkpt lat="47.86169" lon="6.91007">
        <ele>1074.6</ele>
        <time>2023-05-21T05:56:03Z</time>
      </trkpt>
      <trkpt lat="47.86165" lon="6.91009">
        <ele>1076</ele>
        <time>2023-05-21T05:56:08Z</time>
      </trkpt>
      <trkpt lat="47.8616" lon="6.91007">
        <ele>1076.6</ele>
        <time>2023-05-21T05:56:14Z</time>
      </trkpt>
      <trkpt lat="47.86152" lon="6.91002">
        <ele>1077.1</ele>
        <time>2023-05-21T05:56:23Z</time>
      </trkpt>
      <trkpt lat="47.86149" lon="6.91011">
        <ele>1079.7</ele>
        <time>2023-05-21T05:56:30Z</time>
      </trkpt>
      <trkpt lat="47.86122" lon="6.90999">
        <ele>1082.5</ele>
        <time>2023-05-21T05:56:53Z</time>
      </trkpt>
      <trkpt lat="47.86118" lon="6.90996">
        <ele>1082.8</ele>
        <time>2023-05-21T05:56:58Z</time>
      </trkpt>
      <trkpt lat="47.86112" lon="6.90995">
        <ele>1083.9</ele>
        <time>2023-05-21T05:57:02Z</time>
      </trkpt>
      <trkpt lat="47.86105" lon="6.90997">
        <ele>1085.5</ele>
        <time>2023-05-21T05:57:09Z</time>
      </trkpt>
      <trkpt lat="47.86099" lon="6.90991">
        <ele>1085.3</ele>
        <time>2023-05-21T05:57:16Z</time>
      </trkpt>
      <trkpt lat="47.8609" lon="6.90992">
        <ele>1086.9</ele>
        <time>2023-05-21T05:57:23Z</time>
      </trkpt>
      <trkpt lat="47.86086" lon="6.90995">
        <ele>1088.3</ele>
        <time>2023-05-21T05:57:27Z</time>
      </trkpt>
      <trkpt lat="47.86081" lon="6.90996">
        <ele>1089.3</ele>
        <time>2023-05-21T05:57:30Z</time>
      </trkpt>
      <trkpt lat="47.86076" lon="6.90994">
        <ele>1089.4</ele>
        <time>2023-05-21T05:57:35Z</time>
      </trkpt>
      <trkpt lat="47.86071" lon="6.90992">
        <ele>1089.6</ele>
        <time>2023-05-21T05:57:43Z</time>
      </trkpt>
      <trkpt lat="47.86053" lon="6.90998">
        <ele>1093</ele>
        <time>2023-05-21T05:58:00Z</time>
      </trkpt>
      <trkpt lat="47.86048" lon="6.90995">
        <ele>1093.2</ele>
        <time>2023-05-21T05:58:05Z</time>
      </trkpt>
      <trkpt lat="47.86044" lon="6.90992">
        <ele>1093.2</ele>
        <time>2023-05-21T05:58:08Z</time>
      </trkpt>
      <trkpt lat="47.86033" lon="6.90996">
        <ele>1095.5</ele>
        <time>2023-05-21T05:58:19Z</time>
      </trkpt>
      <trkpt lat="47.8601" lon="6.90988">
        <ele>1099</ele>
        <time>2023-05-21T05:58:40Z</time>
      </trkpt>
      <trkpt lat="47.86004" lon="6.9099">
        <ele>1100.9</ele>
        <time>2023-05-21T05:58:45Z</time>
      </trkpt>
      <trkpt lat="47.85985" lon="6.90985">
        <ele>1104.8</ele>
        <time>2023-05-21T05:59:06Z</time>
      </trkpt>
      <trkpt lat="47.85977" lon="6.90977">
        <ele>1105.5</ele>
        <time>2023-05-21T05:59:14Z</time>
      </trkpt>
      <trkpt lat="47.85972" lon="6.90979">
        <ele>1107.3</ele>
        <time>2023-05-21T05:59:19Z</time>
      </trkpt>
      <trkpt lat="47.85965" lon="6.90979">
        <ele>1108.9</ele>
        <time>2023-05-21T05:59:28Z</time>
      </trkpt>
      <trkpt lat="47.8596" lon="6.90973">
        <ele>1109.2</ele>
        <time>2023-05-21T05:59:41Z</time>
      </trkpt>
      <trkpt lat="47.85952" lon="6.90956">
        <ele>1109.8</ele>
        <time>2023-05-21T05:59:53Z</time>
      </trkpt>
      <trkpt lat="47.85945" lon="6.90955">
        <ele>1111.6</ele>
        <time>2023-05-21T06:00:00Z</time>
      </trkpt>
      <trkpt lat="47.85933" lon="6.90954">
        <ele>1112.8</ele>
        <time>2023-05-21T06:00:15Z</time>
      </trkpt>
      <trkpt lat="47.85928" lon="6.90956">
        <ele>1113.4</ele>
        <time>2023-05-21T06:00:20Z</time>
      </trkpt>
      <trkpt lat="47.85897" lon="6.90991">
        <ele>1114.9</ele>
        <time>2023-05-21T06:00:52Z</time>
      </trkpt>
      <trkpt lat="47.85886" lon="6.91004">
        <ele>1115.2</ele>
        <time>2023-05-21T06:01:04Z</time>
      </trkpt>
      <trkpt lat="47.85882" lon="6.91009">
        <ele>1115.5</ele>
        <time>2023-05-21T06:01:09Z</time>
      </trkpt>
      <trkpt lat="47.85872" lon="6.91019">
        <ele>1115.5</ele>
        <time>2023-05-21T06:01:21Z</time>
      </trkpt>
      <trkpt lat="47.85867" lon="6.91021">
        <ele>1115.1</ele>
        <time>2023-05-21T06:01:26Z</time>
      </trkpt>
      <trkpt lat="47.85862" lon="6.9102">
        <ele>1114.3</ele>
        <time>2023-05-21T06:01:31Z</time>
      </trkpt>
      <trkpt lat="47.85833" lon="6.91054">
        <ele>1116.6</ele>
        <time>2023-05-21T06:02:05Z</time>
      </trkpt>
      <trkpt lat="47.85823" lon="6.91069">
        <ele>1116.1</ele>
        <time>2023-05-21T06:02:17Z</time>
      </trkpt>
      <trkpt lat="47.85806" lon="6.91112">
        <ele>1119.2</ele>
        <time>2023-05-21T06:02:43Z</time>
      </trkpt>
      <trkpt lat="47.85795" lon="6.91125">
        <ele>1117.4</ele>
        <time>2023-05-21T06:02:55Z</time>
      </trkpt>
      <trkpt lat="47.85778" lon="6.91159">
        <ele>1117</ele>
        <time>2023-05-21T06:03:20Z</time>
      </trkpt>
      <trkpt lat="47.85777" lon="6.91165">
        <ele>1117.5</ele>
        <time>2023-05-21T06:03:24Z</time>
      </trkpt>
      <trkpt lat="47.85754" lon="6.91205">
        <ele>1114.6</ele>
        <time>2023-05-21T06:03:57Z</time>
      </trkpt>
      <trkpt lat="47.85748" lon="6.91216">
        <ele>1113.5</ele>
        <time>2023-05-21T06:04:04Z</time>
      </trkpt>
      <trkpt lat="47.8573" lon="6.91268">
        <ele>1108.8</ele>
        <time>2023-05-21T06:04:36Z</time>
      </trkpt>
      <trkpt lat="47.85713" lon="6.91322">
        <ele>1104.1</ele>
        <time>2023-05-21T06:05:08Z</time>
      </trkpt>
      <trkpt lat="47.85708" lon="6.91335">
        <ele>1102.5</ele>
        <time>2023-05-21T06:05:17Z</time>
      </trkpt>
      <trkpt lat="47.85705" lon="6.91341">
        <ele>1101.7</ele>
        <time>2023-05-21T06:05:21Z</time>
      </trkpt>
      <trkpt lat="47.85696" lon="6.91368">
        <ele>1100.2</ele>
        <time>2023-05-21T06:05:37Z</time>
      </trkpt>
      <trkpt lat="47.85691" lon="6.91381">
        <ele>1099.1</ele>
        <time>2023-05-21T06:05:46Z</time>
      </trkpt>
      <trkpt lat="47.85689" lon="6.91388">
        <ele>1099</ele>
        <time>2023-05-21T06:05:50Z</time>
      </trkpt>
      <trkpt lat="47.85669" lon="6.9142">
        <ele>1097.1</ele>
        <time>2023-05-21T06:06:15Z</time>
      </trkpt>
      <trkpt lat="47.85646" lon="6.91464">
        <ele>1094</ele>
        <time>2023-05-21T06:06:47Z</time>
      </trkpt>
      <trkpt lat="47.85633" lon="6.91495">
        <ele>1093.1</ele>
        <time>2023-05-21T06:07:05Z</time>
      </trkpt>
      <trkpt lat="47.85626" lon="6.91515">
        <ele>1092.8</ele>
        <time>2023-05-21T06:07:17Z</time>
      </trkpt>
      <trkpt lat="47.85624" lon="6.9152">
        <ele>1092.7</ele>
        <time>2023-05-21T06:07:21Z</time>
      </trkpt>
      <trkpt lat="47.85618" lon="6.91538">
        <ele>1092.4</ele>
        <time>2023-05-21T06:07:33Z</time>
      </trkpt>
      <trkpt lat="47.85614" lon="6.91552">
        <ele>1092.4</ele>
        <time>2023-05-21T06:07:41Z</time>
      </trkpt>
      <trkpt lat="47.85612" lon="6.91565">
        <ele>1092.5</ele>
        <time>2023-05-21T06:07:49Z</time>
      </trkpt>
      <trkpt lat="47.85608" lon="6.91579">
        <ele>1091.8</ele>
        <time>2023-05-21T06:07:57Z</time>
      </trkpt>
      <trkpt lat="47.85608" lon="6.91587">
        <ele>1092.1</ele>
        <time>2023-05-21T06:08:02Z</time>
      </trkpt>
      <trkpt lat="47.856" lon="6.91621">
        <ele>1090.1</ele>
        <time>2023-05-21T06:08:22Z</time>
      </trkpt>
      <trkpt lat="47.85599" lon="6.91629">
        <ele>1089.9</ele>
        <time>2023-05-21T06:08:26Z</time>
      </trkpt>
      <trkpt lat="47.85596" lon="6.91643">
        <ele>1089.3</ele>
        <time>2023-05-21T06:08:34Z</time>
      </trkpt>
      <trkpt lat="47.85596" lon="6.9165">
        <ele>1089.5</ele>
        <time>2023-05-21T06:08:38Z</time>
      </trkpt>
      <trkpt lat="47.85587" lon="6.91692">
        <ele>1088.7</ele>
        <time>2023-05-21T06:09:02Z</time>
      </trkpt>
      <trkpt lat="47.85583" lon="6.91695">
        <ele>1088</ele>
        <time>2023-05-21T06:09:10Z</time>
      </trkpt>
      <trkpt lat="47.85578" lon="6.91714">
        <ele>1088.3</ele>
        <time>2023-05-21T06:09:32Z</time>
      </trkpt>
      <trkpt lat="47.85571" lon="6.91726">
        <ele>1088.1</ele>
        <time>2023-05-21T06:09:40Z</time>
      </trkpt>
      <trkpt lat="47.85558" lon="6.91736">
        <ele>1087.6</ele>
        <time>2023-05-21T06:09:52Z</time>
      </trkpt>
      <trkpt lat="47.85529" lon="6.91746">
        <ele>1088.8</ele>
        <time>2023-05-21T06:10:16Z</time>
      </trkpt>
      <trkpt lat="47.85524" lon="6.91746">
        <ele>1089.1</ele>
        <time>2023-05-21T06:10:20Z</time>
      </trkpt>
      <trkpt lat="47.85515" lon="6.91752">
        <ele>1090</ele>
        <time>2023-05-21T06:10:28Z</time>
      </trkpt>
      <trkpt lat="47.8551" lon="6.91751">
        <ele>1090.3</ele>
        <time>2023-05-21T06:10:36Z</time>
      </trkpt>
      <trkpt lat="47.85506" lon="6.91754">
        <ele>1090.7</ele>
        <time>2023-05-21T06:10:42Z</time>
      </trkpt>
      <trkpt lat="47.85498" lon="6.91755">
        <ele>1091.3</ele>
        <time>2023-05-21T06:10:54Z</time>
      </trkpt>
      <trkpt lat="47.85489" lon="6.91759">
        <ele>1092</ele>
        <time>2023-05-21T06:11:01Z</time>
      </trkpt>
      <trkpt lat="47.85485" lon="6.91755">
        <ele>1092.2</ele>
        <time>2023-05-21T06:11:05Z</time>
      </trkpt>
      <trkpt lat="47.85481" lon="6.91751">
        <ele>1092.4</ele>
        <time>2023-05-21T06:11:08Z</time>
      </trkpt>
      <trkpt lat="47.85473" lon="6.91741">
        <ele>1092.6</ele>
        <time>2023-05-21T06:11:15Z</time>
      </trkpt>
      <trkpt lat="47.85467" lon="6.91731">
        <ele>1092.7</ele>
        <time>2023-05-21T06:11:22Z</time>
      </trkpt>
      <trkpt lat="47.85465" lon="6.91724">
        <ele>1092.6</ele>
        <time>2023-05-21T06:11:27Z</time>
      </trkpt>
      <trkpt lat="47.85461" lon="6.91708">
        <ele>1091.7</ele>
        <time>2023-05-21T06:11:59Z</time>
      </trkpt>
      <trkpt lat="47.85442" lon="6.91671">
        <ele>1091.6</ele>
        <time>2023-05-21T06:12:39Z</time>
      </trkpt>
      <trkpt lat="47.85435" lon="6.91666">
        <ele>1091.9</ele>
        <time>2023-05-21T06:12:53Z</time>
      </trkpt>
      <trkpt lat="47.8543" lon="6.91667">
        <ele>1092.6</ele>
        <time>2023-05-21T06:12:57Z</time>
      </trkpt>
      <trkpt lat="47.85422" lon="6.9167">
        <ele>1093.7</ele>
        <time>2023-05-21T06:13:58Z</time>
      </trkpt>
      <trkpt lat="47.85415" lon="6.91684">
        <ele>1095.6</ele>
        <time>2023-05-21T06:14:09Z</time>
      </trkpt>
      <trkpt lat="47.8541" lon="6.91686">
        <ele>1096.8</ele>
        <time>2023-05-21T06:14:13Z</time>
      </trkpt>
      <trkpt lat="47.85399" lon="6.91685">
        <ele>1098.9</ele>
        <time>2023-05-21T06:14:25Z</time>
      </trkpt>
      <trkpt lat="47.85394" lon="6.91681">
        <ele>1099.5</ele>
        <time>2023-05-21T06:14:32Z</time>
      </trkpt>
      <trkpt lat="47.85378" lon="6.91675">
        <ele>1102.4</ele>
        <time>2023-05-21T06:14:48Z</time>
      </trkpt>
      <trkpt lat="47.85374" lon="6.91674">
        <ele>1103.1</ele>
        <time>2023-05-21T06:14:53Z</time>
      </trkpt>
      <trkpt lat="47.85369" lon="6.91676">
        <ele>1104.5</ele>
        <time>2023-05-21T06:14:58Z</time>
      </trkpt>
      <trkpt lat="47.85364" lon="6.91675">
        <ele>1105.5</ele>
        <time>2023-05-21T06:15:02Z</time>
      </trkpt>
      <trkpt lat="47.85354" lon="6.91668">
        <ele>1107.3</ele>
        <time>2023-05-21T06:15:18Z</time>
      </trkpt>
      <trkpt lat="47.8533" lon="6.9166">
        <ele>1113</ele>
        <time>2023-05-21T06:15:49Z</time>
      </trkpt>
      <trkpt lat="47.85314" lon="6.91649">
        <ele>1116</ele>
        <time>2023-05-21T06:16:13Z</time>
      </trkpt>
      <trkpt lat="47.8531" lon="6.91649">
        <ele>1117.2</ele>
        <time>2023-05-21T06:16:18Z</time>
      </trkpt>
      <trkpt lat="47.85298" lon="6.91643">
        <ele>1119.8</ele>
        <time>2023-05-21T06:16:33Z</time>
      </trkpt>
      <trkpt lat="47.85271" lon="6.91629">
        <ele>1124.9</ele>
        <time>2023-05-21T06:17:07Z</time>
      </trkpt>
      <trkpt lat="47.85267" lon="6.91627">
        <ele>1125.6</ele>
        <time>2023-05-21T06:17:13Z</time>
      </trkpt>
      <trkpt lat="47.85236" lon="6.91622">
        <ele>1131.7</ele>
        <time>2023-05-21T06:17:46Z</time>
      </trkpt>
      <trkpt lat="47.85204" lon="6.91622">
        <ele>1137.4</ele>
        <time>2023-05-21T06:18:19Z</time>
      </trkpt>
      <trkpt lat="47.85198" lon="6.91619">
        <ele>1137.8</ele>
        <time>2023-05-21T06:18:27Z</time>
      </trkpt>
      <trkpt lat="47.85172" lon="6.91617">
        <ele>1141.9</ele>
        <time>2023-05-21T06:18:59Z</time>
      </trkpt>
      <trkpt lat="47.85167" lon="6.91616">
        <ele>1142.6</ele>
        <time>2023-05-21T06:19:04Z</time>
      </trkpt>
      <trkpt lat="47.85137" lon="6.91626">
        <ele>1148.4</ele>
        <time>2023-05-21T06:19:33Z</time>
      </trkpt>
      <trkpt lat="47.85131" lon="6.91625">
        <ele>1149.1</ele>
        <time>2023-05-21T06:19:40Z</time>
      </trkpt>
      <trkpt lat="47.85123" lon="6.91627">
        <ele>1150.6</ele>
        <time>2023-05-21T06:19:51Z</time>
      </trkpt>
      <trkpt lat="47.85113" lon="6.91636">
        <ele>1153.3</ele>
        <time>2023-05-21T06:20:06Z</time>
      </trkpt>
      <trkpt lat="47.85097" lon="6.91641">
        <ele>1155.8</ele>
        <time>2023-05-21T06:20:24Z</time>
      </trkpt>
      <trkpt lat="47.85091" lon="6.91642">
        <ele>1156.6</ele>
        <time>2023-05-21T06:20:31Z</time>
      </trkpt>
      <trkpt lat="47.85074" lon="6.91649">
        <ele>1159.3</ele>
        <time>2023-05-21T06:20:51Z</time>
      </trkpt>
      <trkpt lat="47.85043" lon="6.91659">
        <ele>1163</ele>
        <time>2023-05-21T06:21:24Z</time>
      </trkpt>
      <trkpt lat="47.85017" lon="6.91675">
        <ele>1167.5</ele>
        <time>2023-05-21T06:21:52Z</time>
      </trkpt>
      <trkpt lat="47.85012" lon="6.91674">
        <ele>1167.9</ele>
        <time>2023-05-21T06:22:00Z</time>
      </trkpt>
      <trkpt lat="47.85004" lon="6.91679">
        <ele>1169.4</ele>
        <time>2023-05-21T06:22:11Z</time>
      </trkpt>
      <trkpt lat="47.8498" lon="6.91699">
        <ele>1174.9</ele>
        <time>2023-05-21T06:22:44Z</time>
      </trkpt>
      <trkpt lat="47.8496" lon="6.91716">
        <ele>1178.9</ele>
        <time>2023-05-21T06:23:08Z</time>
      </trkpt>
      <trkpt lat="47.8493" lon="6.9173">
        <ele>1183</ele>
        <time>2023-05-21T06:23:37Z</time>
      </trkpt>
      <trkpt lat="47.8492" lon="6.91732">
        <ele>1183.9</ele>
        <time>2023-05-21T06:23:47Z</time>
      </trkpt>
      <trkpt lat="47.84912" lon="6.91737">
        <ele>1184.9</ele>
        <time>2023-05-21T06:23:55Z</time>
      </trkpt>
      <trkpt lat="47.84907" lon="6.91739">
        <ele>1185.5</ele>
        <time>2023-05-21T06:23:59Z</time>
      </trkpt>
      <trkpt lat="47.84879" lon="6.91757">
        <ele>1189</ele>
        <time>2023-05-21T06:24:29Z</time>
      </trkpt>
      <trkpt lat="47.84865" lon="6.91773">
        <ele>1190</ele>
        <time>2023-05-21T06:24:45Z</time>
      </trkpt>
      <trkpt lat="47.84859" lon="6.91785">
        <ele>1189.9</ele>
        <time>2023-05-21T06:25:03Z</time>
      </trkpt>
      <trkpt lat="47.84852" lon="6.91785">
        <ele>1189.5</ele>
        <time>2023-05-21T06:25:14Z</time>
      </trkpt>
      <trkpt lat="47.84847" lon="6.91787">
        <ele>1189</ele>
        <time>2023-05-21T06:25:19Z</time>
      </trkpt>
      <trkpt lat="47.84842" lon="6.91785">
        <ele>1188.9</ele>
        <time>2023-05-21T06:25:23Z</time>
      </trkpt>
      <trkpt lat="47.84834" lon="6.91777">
        <ele>1190.1</ele>
        <time>2023-05-21T06:25:30Z</time>
      </trkpt>
      <trkpt lat="47.84802" lon="6.91764">
        <ele>1191.6</ele>
        <time>2023-05-21T06:25:58Z</time>
      </trkpt>
      <trkpt lat="47.84791" lon="6.91756">
        <ele>1193.3</ele>
        <time>2023-05-21T06:26:10Z</time>
      </trkpt>
      <trkpt lat="47.84789" lon="6.91751">
        <ele>1195.2</ele>
        <time>2023-05-21T06:26:14Z</time>
      </trkpt>
      <trkpt lat="47.84774" lon="6.9173">
        <ele>1197.5</ele>
        <time>2023-05-21T06:26:31Z</time>
      </trkpt>
      <trkpt lat="47.84763" lon="6.91724">
        <ele>1198.3</ele>
        <time>2023-05-21T06:26:40Z</time>
      </trkpt>
      <trkpt lat="47.84759" lon="6.9172">
        <ele>1198.8</ele>
        <time>2023-05-21T06:26:44Z</time>
      </trkpt>
      <trkpt lat="47.84754" lon="6.91719">
        <ele>1199.1</ele>
        <time>2023-05-21T06:26:48Z</time>
      </trkpt>
      <trkpt lat="47.84749" lon="6.9172">
        <ele>1199.2</ele>
        <time>2023-05-21T06:26:51Z</time>
      </trkpt>
      <trkpt lat="47.84736" lon="6.91715">
        <ele>1199.7</ele>
        <time>2023-05-21T06:27:04Z</time>
      </trkpt>
      <trkpt lat="47.8473" lon="6.91716">
        <ele>1199.6</ele>
        <time>2023-05-21T06:27:11Z</time>
      </trkpt>
      <trkpt lat="47.84725" lon="6.91715">
        <ele>1199.8</ele>
        <time>2023-05-21T06:27:17Z</time>
      </trkpt>
      <trkpt lat="47.84719" lon="6.9171">
        <ele>1200.1</ele>
        <time>2023-05-21T06:27:22Z</time>
      </trkpt>
      <trkpt lat="47.84718" lon="6.91705">
        <ele>1200.7</ele>
        <time>2023-05-21T06:27:25Z</time>
      </trkpt>
      <trkpt lat="47.84713" lon="6.91704">
        <ele>1200.6</ele>
        <time>2023-05-21T06:27:29Z</time>
      </trkpt>
      <trkpt lat="47.84708" lon="6.91705">
        <ele>1200.3</ele>
        <time>2023-05-21T06:27:34Z</time>
      </trkpt>
      <trkpt lat="47.84702" lon="6.91702">
        <ele>1200.6</ele>
        <time>2023-05-21T06:27:40Z</time>
      </trkpt>
      <trkpt lat="47.84698" lon="6.91704">
        <ele>1200.1</ele>
        <time>2023-05-21T06:27:44Z</time>
      </trkpt>
      <trkpt lat="47.84668" lon="6.91712">
        <ele>1197.9</ele>
        <time>2023-05-21T06:28:07Z</time>
      </trkpt>
      <trkpt lat="47.84652" lon="6.9171">
        <ele>1195.7</ele>
        <time>2023-05-21T06:28:21Z</time>
      </trkpt>
      <trkpt lat="47.84628" lon="6.91713">
        <ele>1190.8</ele>
        <time>2023-05-21T06:28:40Z</time>
      </trkpt>
      <trkpt lat="47.84598" lon="6.917">
        <ele>1189.5</ele>
        <time>2023-05-21T06:29:10Z</time>
      </trkpt>
      <trkpt lat="47.84578" lon="6.91701">
        <ele>1185.2</ele>
        <time>2023-05-21T06:29:23Z</time>
      </trkpt>
      <trkpt lat="47.84574" lon="6.91699">
        <ele>1185.1</ele>
        <time>2023-05-21T06:29:28Z</time>
      </trkpt>
      <trkpt lat="47.84568" lon="6.917">
        <ele>1183.8</ele>
        <time>2023-05-21T06:29:32Z</time>
      </trkpt>
      <trkpt lat="47.84564" lon="6.91701">
        <ele>1182.8</ele>
        <time>2023-05-21T06:29:36Z</time>
      </trkpt>
      <trkpt lat="47.84555" lon="6.91697">
        <ele>1182.2</ele>
        <time>2023-05-21T06:29:44Z</time>
      </trkpt>
      <trkpt lat="47.84552" lon="6.91693">
        <ele>1182.4</ele>
        <time>2023-05-21T06:29:48Z</time>
      </trkpt>
      <trkpt lat="47.84547" lon="6.91695">
        <ele>1180.7</ele>
        <time>2023-05-21T06:29:51Z</time>
      </trkpt>
      <trkpt lat="47.84543" lon="6.91695">
        <ele>1179.7</ele>
        <time>2023-05-21T06:29:54Z</time>
      </trkpt>
      <trkpt lat="47.84524" lon="6.91692">
        <ele>1175.7</ele>
        <time>2023-05-21T06:30:09Z</time>
      </trkpt>
      <trkpt lat="47.8452" lon="6.91688">
        <ele>1175.6</ele>
        <time>2023-05-21T06:30:12Z</time>
      </trkpt>
      <trkpt lat="47.84514" lon="6.91691">
        <ele>1173.3</ele>
        <time>2023-05-21T06:30:15Z</time>
      </trkpt>
      <trkpt lat="47.8451" lon="6.91688">
        <ele>1173</ele>
        <time>2023-05-21T06:30:19Z</time>
      </trkpt>
      <trkpt lat="47.84504" lon="6.91691">
        <ele>1170.8</ele>
        <time>2023-05-21T06:30:23Z</time>
      </trkpt>
      <trkpt lat="47.845" lon="6.91688">
        <ele>1170.4</ele>
        <time>2023-05-21T06:30:27Z</time>
      </trkpt>
      <trkpt lat="47.84496" lon="6.91685">
        <ele>1169.9</ele>
        <time>2023-05-21T06:30:32Z</time>
      </trkpt>
      <trkpt lat="47.84491" lon="6.91684">
        <ele>1168.8</ele>
        <time>2023-05-21T06:30:37Z</time>
      </trkpt>
      <trkpt lat="47.84471" lon="6.91689">
        <ele>1162.1</ele>
        <time>2023-05-21T06:30:49Z</time>
      </trkpt>
      <trkpt lat="47.84467" lon="6.91691">
        <ele>1160.7</ele>
        <time>2023-05-21T06:30:53Z</time>
      </trkpt>
      <trkpt lat="47.84463" lon="6.91689">
        <ele>1160.3</ele>
        <time>2023-05-21T06:30:57Z</time>
      </trkpt>
      <trkpt lat="47.84458" lon="6.91689">
        <ele>1159.2</ele>
        <time>2023-05-21T06:31:00Z</time>
      </trkpt>
      <trkpt lat="47.84444" lon="6.91696">
        <ele>1154.6</ele>
        <time>2023-05-21T06:31:13Z</time>
      </trkpt>
      <trkpt lat="47.8444" lon="6.91695">
        <ele>1153.6</ele>
        <time>2023-05-21T06:31:18Z</time>
      </trkpt>
      <trkpt lat="47.84433" lon="6.91695">
        <ele>1151.6</ele>
        <time>2023-05-21T06:31:24Z</time>
      </trkpt>
      <trkpt lat="47.84428" lon="6.91692">
        <ele>1150.8</ele>
        <time>2023-05-21T06:31:30Z</time>
      </trkpt>
      <trkpt lat="47.84422" lon="6.91692">
        <ele>1149.1</ele>
        <time>2023-05-21T06:31:36Z</time>
      </trkpt>
      <trkpt lat="47.844" lon="6.91683">
        <ele>1143.9</ele>
        <time>2023-05-21T06:31:59Z</time>
      </trkpt>
      <trkpt lat="47.84395" lon="6.91684">
        <ele>1142.1</ele>
        <time>2023-05-21T06:32:02Z</time>
      </trkpt>
      <trkpt lat="47.84384" lon="6.91677">
        <ele>1139.3</ele>
        <time>2023-05-21T06:32:14Z</time>
      </trkpt>
      <trkpt lat="47.84368" lon="6.91673">
        <ele>1134.5</ele>
        <time>2023-05-21T06:32:27Z</time>
      </trkpt>
      <trkpt lat="47.84364" lon="6.91669">
        <ele>1133.7</ele>
        <time>2023-05-21T06:32:30Z</time>
      </trkpt>
      <trkpt lat="47.8436" lon="6.9167">
        <ele>1132.3</ele>
        <time>2023-05-21T06:32:33Z</time>
      </trkpt>
      <trkpt lat="47.84351" lon="6.91668">
        <ele>1130</ele>
        <time>2023-05-21T06:32:40Z</time>
      </trkpt>
      <trkpt lat="47.84345" lon="6.91669">
        <ele>1128.2</ele>
        <time>2023-05-21T06:32:44Z</time>
      </trkpt>
      <trkpt lat="47.8434" lon="6.91667">
        <ele>1126.9</ele>
        <time>2023-05-21T06:32:48Z</time>
      </trkpt>
      <trkpt lat="47.84334" lon="6.91654">
        <ele>1127</ele>
        <time>2023-05-21T06:32:59Z</time>
      </trkpt>
      <trkpt lat="47.84331" lon="6.91649">
        <ele>1126.8</ele>
        <time>2023-05-21T06:33:03Z</time>
      </trkpt>
      <trkpt lat="47.84319" lon="6.9165">
        <ele>1123</ele>
        <time>2023-05-21T06:33:14Z</time>
      </trkpt>
      <trkpt lat="47.84315" lon="6.91648">
        <ele>1122</ele>
        <time>2023-05-21T06:33:18Z</time>
      </trkpt>
      <trkpt lat="47.84305" lon="6.91635">
        <ele>1120.4</ele>
        <time>2023-05-21T06:33:30Z</time>
      </trkpt>
      <trkpt lat="47.843" lon="6.91633">
        <ele>1119.2</ele>
        <time>2023-05-21T06:33:35Z</time>
      </trkpt>
      <trkpt lat="47.84294" lon="6.91636">
        <ele>1117</ele>
        <time>2023-05-21T06:33:40Z</time>
      </trkpt>
      <trkpt lat="47.84291" lon="6.91638">
        <ele>1115.9</ele>
        <time>2023-05-21T06:33:44Z</time>
      </trkpt>
      <trkpt lat="47.84287" lon="6.91634">
        <ele>1115.2</ele>
        <time>2023-05-21T06:33:48Z</time>
      </trkpt>
      <trkpt lat="47.84288" lon="6.91622">
        <ele>1117</ele>
        <time>2023-05-21T06:34:14Z</time>
      </trkpt>
      <trkpt lat="47.84284" lon="6.91618">
        <ele>1116.2</ele>
        <time>2023-05-21T06:34:18Z</time>
      </trkpt>
      <trkpt lat="47.8428" lon="6.91613">
        <ele>1115.5</ele>
        <time>2023-05-21T06:34:21Z</time>
      </trkpt>
      <trkpt lat="47.84277" lon="6.91608">
        <ele>1115.2</ele>
        <time>2023-05-21T06:34:25Z</time>
      </trkpt>
      <trkpt lat="47.84274" lon="6.91603">
        <ele>1115</ele>
        <time>2023-05-21T06:34:29Z</time>
      </trkpt>
      <trkpt lat="47.84269" lon="6.91591">
        <ele>1115</ele>
        <time>2023-05-21T06:34:38Z</time>
      </trkpt>
      <trkpt lat="47.84266" lon="6.91582">
        <ele>1115.1</ele>
        <time>2023-05-21T06:34:48Z</time>
      </trkpt>
      <trkpt lat="47.8426" lon="6.91562">
        <ele>1114.5</ele>
        <time>2023-05-21T06:35:00Z</time>
      </trkpt>
      <trkpt lat="47.84256" lon="6.91548">
        <ele>1114.3</ele>
        <time>2023-05-21T06:35:09Z</time>
      </trkpt>
      <trkpt lat="47.84253" lon="6.91542">
        <ele>1114</ele>
        <time>2023-05-21T06:35:17Z</time>
      </trkpt>
      <trkpt lat="47.84255" lon="6.91542">
        <ele>1114.3</ele>
        <time>2023-05-21T06:36:30Z</time>
      </trkpt>
      <trkpt lat="47.84258" lon="6.91543">
        <ele>1114.8</ele>
        <time>2023-05-21T07:13:53Z</time>
      </trkpt>
      <trkpt lat="47.84256" lon="6.91542">
        <ele>1114.5</ele>
        <time>2023-05-21T07:13:54Z</time>
      </trkpt>
      <trkpt lat="47.84257" lon="6.91551">
        <ele>1114.4</ele>
        <time>2023-05-21T07:14:24Z</time>
      </trkpt>
      <trkpt lat="47.8426" lon="6.91559">
        <ele>1114.6</ele>
        <time>2023-05-21T07:14:35Z</time>
      </trkpt>
      <trkpt lat="47.84261" lon="6.91566">
        <ele>1114.5</ele>
        <time>2023-05-21T07:14:39Z</time>
      </trkpt>
      <trkpt lat="47.84263" lon="6.91573">
        <ele>1114.7</ele>
        <time>2023-05-21T07:14:42Z</time>
      </trkpt>
      <trkpt lat="47.84268" lon="6.91585">
        <ele>1115.4</ele>
        <time>2023-05-21T07:14:51Z</time>
      </trkpt>
      <trkpt lat="47.84275" lon="6.91595">
        <ele>1116.1</ele>
        <time>2023-05-21T07:14:58Z</time>
      </trkpt>
      <trkpt lat="47.84279" lon="6.91604">
        <ele>1116.2</ele>
        <time>2023-05-21T07:15:05Z</time>
      </trkpt>
      <trkpt lat="47.84285" lon="6.91616">
        <ele>1116.8</ele>
        <time>2023-05-21T07:15:13Z</time>
      </trkpt>
      <trkpt lat="47.8429" lon="6.91622">
        <ele>1117.6</ele>
        <time>2023-05-21T07:15:20Z</time>
      </trkpt>
      <trkpt lat="47.84293" lon="6.91627">
        <ele>1117.9</ele>
        <time>2023-05-21T07:15:28Z</time>
      </trkpt>
      <trkpt lat="47.84321" lon="6.91648">
        <ele>1123.8</ele>
        <time>2023-05-21T07:20:08Z</time>
      </trkpt>
      <trkpt lat="47.84328" lon="6.91648">
        <ele>1126</ele>
        <time>2023-05-21T07:20:20Z</time>
      </trkpt>
      <trkpt lat="47.84337" lon="6.91652">
        <ele>1128.2</ele>
        <time>2023-05-21T07:20:30Z</time>
      </trkpt>
      <trkpt lat="47.8434" lon="6.91658">
        <ele>1128.2</ele>
        <time>2023-05-21T07:20:34Z</time>
      </trkpt>
      <trkpt lat="47.84348" lon="6.91668">
        <ele>1129.1</ele>
        <time>2023-05-21T07:20:43Z</time>
      </trkpt>
      <trkpt lat="47.84349" lon="6.91674">
        <ele>1128.8</ele>
        <time>2023-05-21T07:20:48Z</time>
      </trkpt>
      <trkpt lat="47.84352" lon="6.91681">
        <ele>1129</ele>
        <time>2023-05-21T07:20:52Z</time>
      </trkpt>
      <trkpt lat="47.84356" lon="6.91686">
        <ele>1129.6</ele>
        <time>2023-05-21T07:21:08Z</time>
      </trkpt>
      <trkpt lat="47.84361" lon="6.9169">
        <ele>1130.5</ele>
        <time>2023-05-21T07:21:25Z</time>
      </trkpt>
      <trkpt lat="47.8437" lon="6.91719">
        <ele>1130.8</ele>
        <time>2023-05-21T07:21:45Z</time>
      </trkpt>
      <trkpt lat="47.84376" lon="6.91722">
        <ele>1132.3</ele>
        <time>2023-05-21T07:21:50Z</time>
      </trkpt>
      <trkpt lat="47.84383" lon="6.91735">
        <ele>1132.6</ele>
        <time>2023-05-21T07:21:58Z</time>
      </trkpt>
      <trkpt lat="47.84387" lon="6.91739">
        <ele>1133.1</ele>
        <time>2023-05-21T07:22:03Z</time>
      </trkpt>
      <trkpt lat="47.84394" lon="6.9175">
        <ele>1133.3</ele>
        <time>2023-05-21T07:22:10Z</time>
      </trkpt>
      <trkpt lat="47.8442" lon="6.91786">
        <ele>1134.9</ele>
        <time>2023-05-21T07:22:36Z</time>
      </trkpt>
      <trkpt lat="47.84425" lon="6.91797">
        <ele>1134.9</ele>
        <time>2023-05-21T07:22:42Z</time>
      </trkpt>
      <trkpt lat="47.84434" lon="6.91806">
        <ele>1136.3</ele>
        <time>2023-05-21T07:22:51Z</time>
      </trkpt>
      <trkpt lat="47.84437" lon="6.91814">
        <ele>1136.6</ele>
        <time>2023-05-21T07:22:59Z</time>
      </trkpt>
      <trkpt lat="47.84444" lon="6.91825">
        <ele>1137.5</ele>
        <time>2023-05-21T07:23:07Z</time>
      </trkpt>
      <trkpt lat="47.84447" lon="6.91839">
        <ele>1137.2</ele>
        <time>2023-05-21T07:23:16Z</time>
      </trkpt>
      <trkpt lat="47.84451" lon="6.91842">
        <ele>1138</ele>
        <time>2023-05-21T07:23:19Z</time>
      </trkpt>
      <trkpt lat="47.84454" lon="6.91848">
        <ele>1138.2</ele>
        <time>2023-05-21T07:23:23Z</time>
      </trkpt>
      <trkpt lat="47.84452" lon="6.91855">
        <ele>1137.1</ele>
        <time>2023-05-21T07:23:27Z</time>
      </trkpt>
      <trkpt lat="47.84451" lon="6.91862">
        <ele>1136.3</ele>
        <time>2023-05-21T07:23:31Z</time>
      </trkpt>
      <trkpt lat="47.84454" lon="6.91875">
        <ele>1135.5</ele>
        <time>2023-05-21T07:23:38Z</time>
      </trkpt>
      <trkpt lat="47.84457" lon="6.91882">
        <ele>1134.9</ele>
        <time>2023-05-21T07:23:43Z</time>
      </trkpt>
      <trkpt lat="47.84456" lon="6.91888">
        <ele>1134.1</ele>
        <time>2023-05-21T07:23:47Z</time>
      </trkpt>
      <trkpt lat="47.84457" lon="6.91895">
        <ele>1131.9</ele>
        <time>2023-05-21T07:23:51Z</time>
      </trkpt>
      <trkpt lat="47.84469" lon="6.91896">
        <ele>1130.7</ele>
        <time>2023-05-21T07:24:06Z</time>
      </trkpt>
      <trkpt lat="47.84473" lon="6.9189">
        <ele>1133</ele>
        <time>2023-05-21T07:24:10Z</time>
      </trkpt>
      <trkpt lat="47.84476" lon="6.91885">
        <ele>1133</ele>
        <time>2023-05-21T07:24:13Z</time>
      </trkpt>
      <trkpt lat="47.84481" lon="6.91881">
        <ele>1131.6</ele>
        <time>2023-05-21T07:24:18Z</time>
      </trkpt>
      <trkpt lat="47.8449" lon="6.9187">
        <ele>1132</ele>
        <time>2023-05-21T07:24:31Z</time>
      </trkpt>
      <trkpt lat="47.84495" lon="6.91867">
        <ele>1131.6</ele>
        <time>2023-05-21T07:24:34Z</time>
      </trkpt>
      <trkpt lat="47.84499" lon="6.91865">
        <ele>1131.2</ele>
        <time>2023-05-21T07:24:37Z</time>
      </trkpt>
      <trkpt lat="47.84509" lon="6.9186">
        <ele>1127.3</ele>
        <time>2023-05-21T07:24:47Z</time>
      </trkpt>
      <trkpt lat="47.84514" lon="6.9185">
        <ele>1128</ele>
        <time>2023-05-21T07:24:55Z</time>
      </trkpt>
      <trkpt lat="47.84523" lon="6.91841">
        <ele>1126.3</ele>
        <time>2023-05-21T07:25:00Z</time>
      </trkpt>
      <trkpt lat="47.84526" lon="6.91834">
        <ele>1127.7</ele>
        <time>2023-05-21T07:25:04Z</time>
      </trkpt>
      <trkpt lat="47.84541" lon="6.91826">
        <ele>1126.1</ele>
        <time>2023-05-21T07:25:13Z</time>
      </trkpt>
      <trkpt lat="47.84545" lon="6.91824">
        <ele>1125.6</ele>
        <time>2023-05-21T07:25:18Z</time>
      </trkpt>
      <trkpt lat="47.8455" lon="6.91821">
        <ele>1125.3</ele>
        <time>2023-05-21T07:25:21Z</time>
      </trkpt>
      <trkpt lat="47.84556" lon="6.91823">
        <ele>1122.2</ele>
        <time>2023-05-21T07:25:25Z</time>
      </trkpt>
      <trkpt lat="47.84561" lon="6.91821">
        <ele>1122.7</ele>
        <time>2023-05-21T07:25:30Z</time>
      </trkpt>
      <trkpt lat="47.84573" lon="6.91815">
        <ele>1124.8</ele>
        <time>2023-05-21T07:25:41Z</time>
      </trkpt>
      <trkpt lat="47.84578" lon="6.91813">
        <ele>1125.4</ele>
        <time>2023-05-21T07:25:44Z</time>
      </trkpt>
      <trkpt lat="47.84595" lon="6.91814">
        <ele>1126.4</ele>
        <time>2023-05-21T07:25:52Z</time>
      </trkpt>
      <trkpt lat="47.84601" lon="6.91813">
        <ele>1127.9</ele>
        <time>2023-05-21T07:26:00Z</time>
      </trkpt>
      <trkpt lat="47.84604" lon="6.91817">
        <ele>1126.4</ele>
        <time>2023-05-21T07:26:03Z</time>
      </trkpt>
      <trkpt lat="47.84611" lon="6.91817">
        <ele>1127.6</ele>
        <time>2023-05-21T07:26:09Z</time>
      </trkpt>
      <trkpt lat="47.84619" lon="6.91821">
        <ele>1129.2</ele>
        <time>2023-05-21T07:26:15Z</time>
      </trkpt>
      <trkpt lat="47.8463" lon="6.91828">
        <ele>1130.7</ele>
        <time>2023-05-21T07:26:21Z</time>
      </trkpt>
      <trkpt lat="47.84633" lon="6.91841">
        <ele>1125.8</ele>
        <time>2023-05-21T07:26:28Z</time>
      </trkpt>
      <trkpt lat="47.84646" lon="6.91836">
        <ele>1132.7</ele>
        <time>2023-05-21T07:26:43Z</time>
      </trkpt>
      <trkpt lat="47.84656" lon="6.91841">
        <ele>1132.7</ele>
        <time>2023-05-21T07:26:48Z</time>
      </trkpt>
      <trkpt lat="47.84657" lon="6.91848">
        <ele>1129.1</ele>
        <time>2023-05-21T07:26:51Z</time>
      </trkpt>
      <trkpt lat="47.84657" lon="6.91854">
        <ele>1125.8</ele>
        <time>2023-05-21T07:26:55Z</time>
      </trkpt>
      <trkpt lat="47.84663" lon="6.91856">
        <ele>1126.1</ele>
        <time>2023-05-21T07:27:03Z</time>
      </trkpt>
      <trkpt lat="47.84668" lon="6.91856">
        <ele>1127</ele>
        <time>2023-05-21T07:27:12Z</time>
      </trkpt>
      <trkpt lat="47.84673" lon="6.91853">
        <ele>1128.8</ele>
        <time>2023-05-21T07:27:18Z</time>
      </trkpt>
      <trkpt lat="47.84678" lon="6.91853">
        <ele>1128.8</ele>
        <time>2023-05-21T07:27:21Z</time>
      </trkpt>
      <trkpt lat="47.84682" lon="6.91849">
        <ele>1131</ele>
        <time>2023-05-21T07:27:25Z</time>
      </trkpt>
      <trkpt lat="47.84692" lon="6.9185">
        <ele>1130.6</ele>
        <time>2023-05-21T07:27:30Z</time>
      </trkpt>
      <trkpt lat="47.84703" lon="6.91857">
        <ele>1128.9</ele>
        <time>2023-05-21T07:27:39Z</time>
      </trkpt>
      <trkpt lat="47.8471" lon="6.91859">
        <ele>1129.4</ele>
        <time>2023-05-21T07:27:47Z</time>
      </trkpt>
      <trkpt lat="47.84711" lon="6.91867">
        <ele>1127.2</ele>
        <time>2023-05-21T07:27:49Z</time>
      </trkpt>
      <trkpt lat="47.84711" lon="6.91881">
        <ele>1124</ele>
        <time>2023-05-21T07:27:54Z</time>
      </trkpt>
      <trkpt lat="47.84709" lon="6.91895">
        <ele>1120.6</ele>
        <time>2023-05-21T07:27:59Z</time>
      </trkpt>
      <trkpt lat="47.8471" lon="6.91902">
        <ele>1119.6</ele>
        <time>2023-05-21T07:28:03Z</time>
      </trkpt>
      <trkpt lat="47.84713" lon="6.91906">
        <ele>1119.6</ele>
        <time>2023-05-21T07:28:06Z</time>
      </trkpt>
      <trkpt lat="47.84721" lon="6.91906">
        <ele>1121.6</ele>
        <time>2023-05-21T07:28:15Z</time>
      </trkpt>
      <trkpt lat="47.84729" lon="6.91916">
        <ele>1120.4</ele>
        <time>2023-05-21T07:28:28Z</time>
      </trkpt>
      <trkpt lat="47.84735" lon="6.91918">
        <ele>1119.9</ele>
        <time>2023-05-21T07:28:31Z</time>
      </trkpt>
      <trkpt lat="47.84739" lon="6.91923">
        <ele>1117.9</ele>
        <time>2023-05-21T07:28:35Z</time>
      </trkpt>
      <trkpt lat="47.84741" lon="6.91913">
        <ele>1121.6</ele>
        <time>2023-05-21T07:28:42Z</time>
      </trkpt>
      <trkpt lat="47.84746" lon="6.91912">
        <ele>1122.1</ele>
        <time>2023-05-21T07:28:47Z</time>
      </trkpt>
      <trkpt lat="47.84751" lon="6.91913">
        <ele>1122.4</ele>
        <time>2023-05-21T07:28:51Z</time>
      </trkpt>
      <trkpt lat="47.84757" lon="6.91917">
        <ele>1123.2</ele>
        <time>2023-05-21T07:28:54Z</time>
      </trkpt>
      <trkpt lat="47.84763" lon="6.91928">
        <ele>1122.6</ele>
        <time>2023-05-21T07:29:01Z</time>
      </trkpt>
      <trkpt lat="47.84761" lon="6.91958">
        <ele>1114.4</ele>
        <time>2023-05-21T07:29:17Z</time>
      </trkpt>
      <trkpt lat="47.84764" lon="6.91963">
        <ele>1114.9</ele>
        <time>2023-05-21T07:29:20Z</time>
      </trkpt>
      <trkpt lat="47.84769" lon="6.91965">
        <ele>1117</ele>
        <time>2023-05-21T07:29:25Z</time>
      </trkpt>
      <trkpt lat="47.84771" lon="6.91972">
        <ele>1115.9</ele>
        <time>2023-05-21T07:29:29Z</time>
      </trkpt>
      <trkpt lat="47.84778" lon="6.91983">
        <ele>1116.3</ele>
        <time>2023-05-21T07:29:39Z</time>
      </trkpt>
      <trkpt lat="47.84781" lon="6.91988">
        <ele>1115.4</ele>
        <time>2023-05-21T07:29:42Z</time>
      </trkpt>
      <trkpt lat="47.8478" lon="6.91995">
        <ele>1113.4</ele>
        <time>2023-05-21T07:29:45Z</time>
      </trkpt>
      <trkpt lat="47.84779" lon="6.92002">
        <ele>1110.7</ele>
        <time>2023-05-21T07:29:48Z</time>
      </trkpt>
      <trkpt lat="47.84778" lon="6.92001">
        <ele>1111.4</ele>
        <time>2023-05-21T07:30:11Z</time>
      </trkpt>
      <trkpt lat="47.8478" lon="6.91993">
        <ele>1114</ele>
        <time>2023-05-21T07:30:57Z</time>
      </trkpt>
      <trkpt lat="47.8478" lon="6.91986">
        <ele>1115.8</ele>
        <time>2023-05-21T07:31:40Z</time>
      </trkpt>
      <trkpt lat="47.84786" lon="6.91984">
        <ele>1117.4</ele>
        <time>2023-05-21T07:31:44Z</time>
      </trkpt>
      <trkpt lat="47.84803" lon="6.91988">
        <ele>1118.3</ele>
        <time>2023-05-21T07:31:58Z</time>
      </trkpt>
      <trkpt lat="47.8481" lon="6.91995">
        <ele>1116.3</ele>
        <time>2023-05-21T07:32:10Z</time>
      </trkpt>
      <trkpt lat="47.84817" lon="6.92005">
        <ele>1111.7</ele>
        <time>2023-05-21T07:32:17Z</time>
      </trkpt>
      <trkpt lat="47.84822" lon="6.92004">
        <ele>1113.5</ele>
        <time>2023-05-21T07:32:21Z</time>
      </trkpt>
      <trkpt lat="47.84828" lon="6.92006">
        <ele>1113.8</ele>
        <time>2023-05-21T07:32:24Z</time>
      </trkpt>
      <trkpt lat="47.84832" lon="6.92018">
        <ele>1109</ele>
        <time>2023-05-21T07:32:29Z</time>
      </trkpt>
      <trkpt lat="47.84832" lon="6.92027">
        <ele>1104.7</ele>
        <time>2023-05-21T07:32:33Z</time>
      </trkpt>
      <trkpt lat="47.84834" lon="6.92033">
        <ele>1103.3</ele>
        <time>2023-05-21T07:32:37Z</time>
      </trkpt>
      <trkpt lat="47.84839" lon="6.92038">
        <ele>1104.5</ele>
        <time>2023-05-21T07:32:43Z</time>
      </trkpt>
      <trkpt lat="47.84843" lon="6.92041">
        <ele>1105.6</ele>
        <time>2023-05-21T07:32:51Z</time>
      </trkpt>
      <trkpt lat="47.84848" lon="6.92048">
        <ele>1104.6</ele>
        <time>2023-05-21T07:33:02Z</time>
      </trkpt>
      <trkpt lat="47.84854" lon="6.9205">
        <ele>1106.6</ele>
        <time>2023-05-21T07:33:07Z</time>
      </trkpt>
      <trkpt lat="47.84859" lon="6.92056">
        <ele>1104.8</ele>
        <time>2023-05-21T07:33:13Z</time>
      </trkpt>
      <trkpt lat="47.84864" lon="6.92057">
        <ele>1107.1</ele>
        <time>2023-05-21T07:33:16Z</time>
      </trkpt>
      <trkpt lat="47.84868" lon="6.92067">
        <ele>1104.3</ele>
        <time>2023-05-21T07:33:23Z</time>
      </trkpt>
      <trkpt lat="47.84873" lon="6.9207">
        <ele>1105.9</ele>
        <time>2023-05-21T07:33:28Z</time>
      </trkpt>
      <trkpt lat="47.84874" lon="6.92076">
        <ele>1103.3</ele>
        <time>2023-05-21T07:33:32Z</time>
      </trkpt>
      <trkpt lat="47.8488" lon="6.92082">
        <ele>1104</ele>
        <time>2023-05-21T07:33:38Z</time>
      </trkpt>
      <trkpt lat="47.84883" lon="6.92086">
        <ele>1104.4</ele>
        <time>2023-05-21T07:33:43Z</time>
      </trkpt>
      <trkpt lat="47.84882" lon="6.92094">
        <ele>1101.2</ele>
        <time>2023-05-21T07:33:46Z</time>
      </trkpt>
      <trkpt lat="47.84886" lon="6.92105">
        <ele>1100.6</ele>
        <time>2023-05-21T07:33:56Z</time>
      </trkpt>
      <trkpt lat="47.84887" lon="6.92111">
        <ele>1099.6</ele>
        <time>2023-05-21T07:33:59Z</time>
      </trkpt>
      <trkpt lat="47.84887" lon="6.92119">
        <ele>1098.5</ele>
        <time>2023-05-21T07:34:01Z</time>
      </trkpt>
      <trkpt lat="47.8489" lon="6.92133">
        <ele>1098.6</ele>
        <time>2023-05-21T07:34:09Z</time>
      </trkpt>
      <trkpt lat="47.849" lon="6.92158">
        <ele>1100.6</ele>
        <time>2023-05-21T07:34:25Z</time>
      </trkpt>
      <trkpt lat="47.849" lon="6.92172">
        <ele>1098.5</ele>
        <time>2023-05-21T07:34:32Z</time>
      </trkpt>
      <trkpt lat="47.84898" lon="6.92187">
        <ele>1096.2</ele>
        <time>2023-05-21T07:34:39Z</time>
      </trkpt>
      <trkpt lat="47.84899" lon="6.92195">
        <ele>1096.5</ele>
        <time>2023-05-21T07:34:44Z</time>
      </trkpt>
      <trkpt lat="47.84902" lon="6.92208">
        <ele>1096</ele>
        <time>2023-05-21T07:34:52Z</time>
      </trkpt>
      <trkpt lat="47.84903" lon="6.92214">
        <ele>1095.5</ele>
        <time>2023-05-21T07:34:56Z</time>
      </trkpt>
      <trkpt lat="47.84904" lon="6.9222">
        <ele>1095</ele>
        <time>2023-05-21T07:35:00Z</time>
      </trkpt>
      <trkpt lat="47.84902" lon="6.92226">
        <ele>1092.7</ele>
        <time>2023-05-21T07:35:04Z</time>
      </trkpt>
      <trkpt lat="47.84902" lon="6.92251">
        <ele>1092</ele>
        <time>2023-05-21T07:35:19Z</time>
      </trkpt>
      <trkpt lat="47.84897" lon="6.92252">
        <ele>1087.5</ele>
        <time>2023-05-21T07:35:45Z</time>
      </trkpt>
      <trkpt lat="47.84896" lon="6.92261">
        <ele>1087.2</ele>
        <time>2023-05-21T07:36:16Z</time>
      </trkpt>
      <trkpt lat="47.84895" lon="6.92269">
        <ele>1086.5</ele>
        <time>2023-05-21T07:36:21Z</time>
      </trkpt>
      <trkpt lat="47.84898" lon="6.92275">
        <ele>1091.1</ele>
        <time>2023-05-21T07:36:30Z</time>
      </trkpt>
      <trkpt lat="47.84896" lon="6.92282">
        <ele>1088.1</ele>
        <time>2023-05-21T07:36:35Z</time>
      </trkpt>
      <trkpt lat="47.84894" lon="6.92292">
        <ele>1085</ele>
        <time>2023-05-21T07:36:44Z</time>
      </trkpt>
      <trkpt lat="47.84895" lon="6.92299">
        <ele>1085.7</ele>
        <time>2023-05-21T07:36:48Z</time>
      </trkpt>
      <trkpt lat="47.84893" lon="6.92306">
        <ele>1083.5</ele>
        <time>2023-05-21T07:36:53Z</time>
      </trkpt>
      <trkpt lat="47.84897" lon="6.92312">
        <ele>1086.1</ele>
        <time>2023-05-21T07:37:01Z</time>
      </trkpt>
      <trkpt lat="47.84899" lon="6.92332">
        <ele>1085.3</ele>
        <time>2023-05-21T07:37:11Z</time>
      </trkpt>
      <trkpt lat="47.84894" lon="6.92344">
        <ele>1081.1</ele>
        <time>2023-05-21T07:37:19Z</time>
      </trkpt>
      <trkpt lat="47.84895" lon="6.92355">
        <ele>1082.4</ele>
        <time>2023-05-21T07:37:25Z</time>
      </trkpt>
      <trkpt lat="47.8489" lon="6.92377">
        <ele>1081.7</ele>
        <time>2023-05-21T07:37:37Z</time>
      </trkpt>
      <trkpt lat="47.84886" lon="6.92382">
        <ele>1079.4</ele>
        <time>2023-05-21T07:37:41Z</time>
      </trkpt>
      <trkpt lat="47.84879" lon="6.92394">
        <ele>1076.3</ele>
        <time>2023-05-21T07:37:48Z</time>
      </trkpt>
      <trkpt lat="47.84877" lon="6.92409">
        <ele>1078</ele>
        <time>2023-05-21T07:37:56Z</time>
      </trkpt>
      <trkpt lat="47.84871" lon="6.92421">
        <ele>1074.5</ele>
        <time>2023-05-21T07:38:04Z</time>
      </trkpt>
      <trkpt lat="47.8487" lon="6.92428">
        <ele>1073.7</ele>
        <time>2023-05-21T07:38:08Z</time>
      </trkpt>
      <trkpt lat="47.84868" lon="6.92435">
        <ele>1072.5</ele>
        <time>2023-05-21T07:38:12Z</time>
      </trkpt>
      <trkpt lat="47.84867" lon="6.92442">
        <ele>1072.1</ele>
        <time>2023-05-21T07:38:15Z</time>
      </trkpt>
      <trkpt lat="47.84867" lon="6.92449">
        <ele>1071.9</ele>
        <time>2023-05-21T07:38:19Z</time>
      </trkpt>
      <trkpt lat="47.8487" lon="6.92461">
        <ele>1072.1</ele>
        <time>2023-05-21T07:38:25Z</time>
      </trkpt>
      <trkpt lat="47.84869" lon="6.92469">
        <ele>1071.1</ele>
        <time>2023-05-21T07:38:29Z</time>
      </trkpt>
      <trkpt lat="47.84871" lon="6.92476">
        <ele>1071.2</ele>
        <time>2023-05-21T07:38:47Z</time>
      </trkpt>
      <trkpt lat="47.8487" lon="6.92484">
        <ele>1071.5</ele>
        <time>2023-05-21T07:38:52Z</time>
      </trkpt>
      <trkpt lat="47.8487" lon="6.92495">
        <ele>1071.9</ele>
        <time>2023-05-21T07:39:02Z</time>
      </trkpt>
      <trkpt lat="47.84871" lon="6.92504">
        <ele>1072.5</ele>
        <time>2023-05-21T07:39:13Z</time>
      </trkpt>
      <trkpt lat="47.84873" lon="6.92513">
        <ele>1073.2</ele>
        <time>2023-05-21T07:39:22Z</time>
      </trkpt>
      <trkpt lat="47.84863" lon="6.92517">
        <ele>1077.9</ele>
        <time>2023-05-21T07:39:29Z</time>
      </trkpt>
      <trkpt lat="47.84848" lon="6.92512">
        <ele>1080.5</ele>
        <time>2023-05-21T07:39:44Z</time>
      </trkpt>
      <trkpt lat="47.84844" lon="6.92516">
        <ele>1082.7</ele>
        <time>2023-05-21T07:39:51Z</time>
      </trkpt>
      <trkpt lat="47.84837" lon="6.92516">
        <ele>1084.4</ele>
        <time>2023-05-21T07:40:04Z</time>
      </trkpt>
      <trkpt lat="47.84825" lon="6.92524">
        <ele>1087.5</ele>
        <time>2023-05-21T07:40:20Z</time>
      </trkpt>
      <trkpt lat="47.84831" lon="6.92529">
        <ele>1090.1</ele>
        <time>2023-05-21T07:40:30Z</time>
      </trkpt>
      <trkpt lat="47.84836" lon="6.92533">
        <ele>1090.8</ele>
        <time>2023-05-21T07:40:38Z</time>
      </trkpt>
      <trkpt lat="47.84841" lon="6.92534">
        <ele>1089.5</ele>
        <time>2023-05-21T07:40:47Z</time>
      </trkpt>
      <trkpt lat="47.84845" lon="6.92539">
        <ele>1089.9</ele>
        <time>2023-05-21T07:40:51Z</time>
      </trkpt>
      <trkpt lat="47.84851" lon="6.92543">
        <ele>1089.2</ele>
        <time>2023-05-21T07:40:58Z</time>
      </trkpt>
      <trkpt lat="47.84862" lon="6.92567">
        <ele>1092.3</ele>
        <time>2023-05-21T07:41:19Z</time>
      </trkpt>
      <trkpt lat="47.84863" lon="6.92582">
        <ele>1095.4</ele>
        <time>2023-05-21T07:41:26Z</time>
      </trkpt>
      <trkpt lat="47.84862" lon="6.9259">
        <ele>1096.4</ele>
        <time>2023-05-21T07:41:33Z</time>
      </trkpt>
      <trkpt lat="47.84862" lon="6.92597">
        <ele>1096.4</ele>
        <time>2023-05-21T07:41:37Z</time>
      </trkpt>
      <trkpt lat="47.84858" lon="6.92613">
        <ele>1098.2</ele>
        <time>2023-05-21T07:41:44Z</time>
      </trkpt>
      <trkpt lat="47.84859" lon="6.92633">
        <ele>1097.7</ele>
        <time>2023-05-21T07:41:56Z</time>
      </trkpt>
      <trkpt lat="47.84855" lon="6.92652">
        <ele>1099.3</ele>
        <time>2023-05-21T07:42:08Z</time>
      </trkpt>
      <trkpt lat="47.84856" lon="6.92659">
        <ele>1099.4</ele>
        <time>2023-05-21T07:42:12Z</time>
      </trkpt>
      <trkpt lat="47.84853" lon="6.92665">
        <ele>1100.1</ele>
        <time>2023-05-21T07:42:16Z</time>
      </trkpt>
      <trkpt lat="47.84853" lon="6.92677">
        <ele>1101.1</ele>
        <time>2023-05-21T07:42:23Z</time>
      </trkpt>
      <trkpt lat="47.8485" lon="6.92684">
        <ele>1102</ele>
        <time>2023-05-21T07:42:27Z</time>
      </trkpt>
      <trkpt lat="47.84851" lon="6.9269">
        <ele>1102.4</ele>
        <time>2023-05-21T07:42:32Z</time>
      </trkpt>
      <trkpt lat="47.84852" lon="6.92698">
        <ele>1102.9</ele>
        <time>2023-05-21T07:42:37Z</time>
      </trkpt>
      <trkpt lat="47.84853" lon="6.92705">
        <ele>1103.3</ele>
        <time>2023-05-21T07:42:41Z</time>
      </trkpt>
      <trkpt lat="47.84852" lon="6.92713">
        <ele>1104</ele>
        <time>2023-05-21T07:42:47Z</time>
      </trkpt>
      <trkpt lat="47.84857" lon="6.92746">
        <ele>1107.5</ele>
        <time>2023-05-21T07:43:11Z</time>
      </trkpt>
      <trkpt lat="47.84857" lon="6.92755">
        <ele>1108.5</ele>
        <time>2023-05-21T07:43:15Z</time>
      </trkpt>
      <trkpt lat="47.84859" lon="6.92761">
        <ele>1109.2</ele>
        <time>2023-05-21T07:43:20Z</time>
      </trkpt>
      <trkpt lat="47.84859" lon="6.92769">
        <ele>1110.1</ele>
        <time>2023-05-21T07:43:25Z</time>
      </trkpt>
      <trkpt lat="47.84861" lon="6.92785">
        <ele>1112</ele>
        <time>2023-05-21T07:43:35Z</time>
      </trkpt>
      <trkpt lat="47.84861" lon="6.92793">
        <ele>1113.2</ele>
        <time>2023-05-21T07:43:39Z</time>
      </trkpt>
      <trkpt lat="47.84864" lon="6.92815">
        <ele>1115.7</ele>
        <time>2023-05-21T07:43:54Z</time>
      </trkpt>
      <trkpt lat="47.84863" lon="6.92824">
        <ele>1117.2</ele>
        <time>2023-05-21T07:44:01Z</time>
      </trkpt>
      <trkpt lat="47.84863" lon="6.92831">
        <ele>1118.3</ele>
        <time>2023-05-21T07:44:05Z</time>
      </trkpt>
      <trkpt lat="47.84866" lon="6.92838">
        <ele>1118.5</ele>
        <time>2023-05-21T07:44:11Z</time>
      </trkpt>
      <trkpt lat="47.84865" lon="6.92859">
        <ele>1121.1</ele>
        <time>2023-05-21T07:44:23Z</time>
      </trkpt>
      <trkpt lat="47.84863" lon="6.92866">
        <ele>1122</ele>
        <time>2023-05-21T07:44:27Z</time>
      </trkpt>
      <trkpt lat="47.84861" lon="6.92882">
        <ele>1123.5</ele>
        <time>2023-05-21T07:44:35Z</time>
      </trkpt>
      <trkpt lat="47.84858" lon="6.92887">
        <ele>1124</ele>
        <time>2023-05-21T07:44:38Z</time>
      </trkpt>
      <trkpt lat="47.84854" lon="6.92913">
        <ele>1127.3</ele>
        <time>2023-05-21T07:44:54Z</time>
      </trkpt>
      <trkpt lat="47.84851" lon="6.92921">
        <ele>1128.8</ele>
        <time>2023-05-21T07:45:01Z</time>
      </trkpt>
      <trkpt lat="47.8485" lon="6.92934">
        <ele>1130.9</ele>
        <time>2023-05-21T07:45:10Z</time>
      </trkpt>
      <trkpt lat="47.84848" lon="6.92942">
        <ele>1132.5</ele>
        <time>2023-05-21T07:45:18Z</time>
      </trkpt>
      <trkpt lat="47.84845" lon="6.92935">
        <ele>1131.8</ele>
        <time>2023-05-21T07:45:32Z</time>
      </trkpt>
      <trkpt lat="47.84841" lon="6.92976">
        <ele>1139.3</ele>
        <time>2023-05-21T07:49:06Z</time>
      </trkpt>
      <trkpt lat="47.84841" lon="6.92988">
        <ele>1141.3</ele>
        <time>2023-05-21T07:49:17Z</time>
      </trkpt>
      <trkpt lat="47.84833" lon="6.93025">
        <ele>1147.7</ele>
        <time>2023-05-21T07:49:49Z</time>
      </trkpt>
      <trkpt lat="47.84833" lon="6.93063">
        <ele>1152</ele>
        <time>2023-05-21T07:50:17Z</time>
      </trkpt>
      <trkpt lat="47.84836" lon="6.93077">
        <ele>1153.5</ele>
        <time>2023-05-21T07:50:26Z</time>
      </trkpt>
      <trkpt lat="47.8484" lon="6.93084">
        <ele>1153.7</ele>
        <time>2023-05-21T07:50:34Z</time>
      </trkpt>
      <trkpt lat="47.84845" lon="6.93092">
        <ele>1154.6</ele>
        <time>2023-05-21T07:50:44Z</time>
      </trkpt>
      <trkpt lat="47.84848" lon="6.93098">
        <ele>1155.6</ele>
        <time>2023-05-21T07:50:48Z</time>
      </trkpt>
      <trkpt lat="47.84868" lon="6.93135">
        <ele>1160.7</ele>
        <time>2023-05-21T07:51:23Z</time>
      </trkpt>
      <trkpt lat="47.84872" lon="6.93151">
        <ele>1163.7</ele>
        <time>2023-05-21T07:51:33Z</time>
      </trkpt>
      <trkpt lat="47.84878" lon="6.9317">
        <ele>1166.4</ele>
        <time>2023-05-21T07:51:50Z</time>
      </trkpt>
      <trkpt lat="47.84881" lon="6.93175">
        <ele>1166.2</ele>
        <time>2023-05-21T07:51:54Z</time>
      </trkpt>
      <trkpt lat="47.84888" lon="6.93192">
        <ele>1166.9</ele>
        <time>2023-05-21T07:52:06Z</time>
      </trkpt>
      <trkpt lat="47.84891" lon="6.93227">
        <ele>1173.5</ele>
        <time>2023-05-21T07:52:27Z</time>
      </trkpt>
      <trkpt lat="47.84895" lon="6.93232">
        <ele>1172</ele>
        <time>2023-05-21T07:52:32Z</time>
      </trkpt>
      <trkpt lat="47.84899" lon="6.93246">
        <ele>1172.4</ele>
        <time>2023-05-21T07:52:40Z</time>
      </trkpt>
      <trkpt lat="47.84902" lon="6.93277">
        <ele>1175.8</ele>
        <time>2023-05-21T07:52:58Z</time>
      </trkpt>
      <trkpt lat="47.84906" lon="6.93291">
        <ele>1175.8</ele>
        <time>2023-05-21T07:53:06Z</time>
      </trkpt>
      <trkpt lat="47.84906" lon="6.93298">
        <ele>1177.1</ele>
        <time>2023-05-21T07:53:10Z</time>
      </trkpt>
      <trkpt lat="47.84911" lon="6.93309">
        <ele>1176.4</ele>
        <time>2023-05-21T07:53:17Z</time>
      </trkpt>
      <trkpt lat="47.84912" lon="6.93317">
        <ele>1177.1</ele>
        <time>2023-05-21T07:53:21Z</time>
      </trkpt>
      <trkpt lat="47.84914" lon="6.93322">
        <ele>1176.8</ele>
        <time>2023-05-21T07:53:24Z</time>
      </trkpt>
      <trkpt lat="47.84914" lon="6.93335">
        <ele>1178.8</ele>
        <time>2023-05-21T07:53:32Z</time>
      </trkpt>
      <trkpt lat="47.84917" lon="6.9334">
        <ele>1178</ele>
        <time>2023-05-21T07:53:36Z</time>
      </trkpt>
      <trkpt lat="47.84917" lon="6.93353">
        <ele>1180.3</ele>
        <time>2023-05-21T07:53:44Z</time>
      </trkpt>
      <trkpt lat="47.84922" lon="6.93366">
        <ele>1179.5</ele>
        <time>2023-05-21T07:53:53Z</time>
      </trkpt>
      <trkpt lat="47.84923" lon="6.93373">
        <ele>1179.8</ele>
        <time>2023-05-21T07:53:57Z</time>
      </trkpt>
      <trkpt lat="47.84922" lon="6.93381">
        <ele>1181.4</ele>
        <time>2023-05-21T07:54:01Z</time>
      </trkpt>
      <trkpt lat="47.84922" lon="6.9339">
        <ele>1182.3</ele>
        <time>2023-05-21T07:54:07Z</time>
      </trkpt>
      <trkpt lat="47.84923" lon="6.93398">
        <ele>1181.9</ele>
        <time>2023-05-21T07:54:10Z</time>
      </trkpt>
      <trkpt lat="47.84935" lon="6.93448">
        <ele>1178.4</ele>
        <time>2023-05-21T07:54:41Z</time>
      </trkpt>
      <trkpt lat="47.84939" lon="6.93461">
        <ele>1178.3</ele>
        <time>2023-05-21T07:54:47Z</time>
      </trkpt>
      <trkpt lat="47.84944" lon="6.93469">
        <ele>1178.7</ele>
        <time>2023-05-21T07:54:54Z</time>
      </trkpt>
      <trkpt lat="47.84946" lon="6.93475">
        <ele>1178.6</ele>
        <time>2023-05-21T07:54:57Z</time>
      </trkpt>
      <trkpt lat="47.84955" lon="6.93494">
        <ele>1177.6</ele>
        <time>2023-05-21T07:55:08Z</time>
      </trkpt>
      <trkpt lat="47.84957" lon="6.93501">
        <ele>1177.8</ele>
        <time>2023-05-21T07:55:11Z</time>
      </trkpt>
      <trkpt lat="47.84964" lon="6.9351">
        <ele>1178</ele>
        <time>2023-05-21T07:55:20Z</time>
      </trkpt>
      <trkpt lat="47.84969" lon="6.93521">
        <ele>1179.6</ele>
        <time>2023-05-21T07:55:29Z</time>
      </trkpt>
      <trkpt lat="47.84971" lon="6.93528">
        <ele>1181</ele>
        <time>2023-05-21T07:55:34Z</time>
      </trkpt>
      <trkpt lat="47.84971" lon="6.93538">
        <ele>1182</ele>
        <time>2023-05-21T07:55:40Z</time>
      </trkpt>
      <trkpt lat="47.84974" lon="6.93544">
        <ele>1182.1</ele>
        <time>2023-05-21T07:55:44Z</time>
      </trkpt>
      <trkpt lat="47.84977" lon="6.93547">
        <ele>1181.3</ele>
        <time>2023-05-21T07:55:48Z</time>
      </trkpt>
      <trkpt lat="47.84976" lon="6.93555">
        <ele>1182.6</ele>
        <time>2023-05-21T07:55:53Z</time>
      </trkpt>
      <trkpt lat="47.8498" lon="6.93561">
        <ele>1180.9</ele>
        <time>2023-05-21T07:55:57Z</time>
      </trkpt>
      <trkpt lat="47.84987" lon="6.93572">
        <ele>1178.8</ele>
        <time>2023-05-21T07:56:04Z</time>
      </trkpt>
      <trkpt lat="47.85003" lon="6.93601">
        <ele>1179.1</ele>
        <time>2023-05-21T07:56:21Z</time>
      </trkpt>
      <trkpt lat="47.85007" lon="6.93607">
        <ele>1178.7</ele>
        <time>2023-05-21T07:56:26Z</time>
      </trkpt>
      <trkpt lat="47.85011" lon="6.93613">
        <ele>1178.3</ele>
        <time>2023-05-21T07:56:30Z</time>
      </trkpt>
      <trkpt lat="47.85013" lon="6.93619">
        <ele>1178</ele>
        <time>2023-05-21T07:56:34Z</time>
      </trkpt>
      <trkpt lat="47.85014" lon="6.93628">
        <ele>1178.1</ele>
        <time>2023-05-21T07:56:39Z</time>
      </trkpt>
      <trkpt lat="47.85026" lon="6.93658">
        <ele>1178.3</ele>
        <time>2023-05-21T07:56:58Z</time>
      </trkpt>
      <trkpt lat="47.85029" lon="6.93665">
        <ele>1178.7</ele>
        <time>2023-05-21T07:57:02Z</time>
      </trkpt>
      <trkpt lat="47.85039" lon="6.93676">
        <ele>1178.5</ele>
        <time>2023-05-21T07:57:12Z</time>
      </trkpt>
      <trkpt lat="47.85043" lon="6.93678">
        <ele>1178.5</ele>
        <time>2023-05-21T07:57:15Z</time>
      </trkpt>
      <trkpt lat="47.85068" lon="6.93725">
        <ele>1179.9</ele>
        <time>2023-05-21T07:57:47Z</time>
      </trkpt>
      <trkpt lat="47.85076" lon="6.93738">
        <ele>1180</ele>
        <time>2023-05-21T07:57:56Z</time>
      </trkpt>
      <trkpt lat="47.85077" lon="6.93744">
        <ele>1180.6</ele>
        <time>2023-05-21T07:57:59Z</time>
      </trkpt>
      <trkpt lat="47.85089" lon="6.93768">
        <ele>1180.9</ele>
        <time>2023-05-21T07:58:16Z</time>
      </trkpt>
      <trkpt lat="47.85092" lon="6.9377">
        <ele>1180.4</ele>
        <time>2023-05-21T07:58:19Z</time>
      </trkpt>
      <trkpt lat="47.85095" lon="6.93784">
        <ele>1180.9</ele>
        <time>2023-05-21T07:58:24Z</time>
      </trkpt>
      <trkpt lat="47.85095" lon="6.93789">
        <ele>1181.2</ele>
        <time>2023-05-21T07:58:28Z</time>
      </trkpt>
      <trkpt lat="47.85098" lon="6.93796">
        <ele>1181.2</ele>
        <time>2023-05-21T07:58:33Z</time>
      </trkpt>
      <trkpt lat="47.85099" lon="6.93802">
        <ele>1181.5</ele>
        <time>2023-05-21T07:58:38Z</time>
      </trkpt>
      <trkpt lat="47.85103" lon="6.93811">
        <ele>1181.6</ele>
        <time>2023-05-21T07:58:43Z</time>
      </trkpt>
      <trkpt lat="47.8511" lon="6.93819">
        <ele>1181.6</ele>
        <time>2023-05-21T07:58:51Z</time>
      </trkpt>
      <trkpt lat="47.85122" lon="6.93832">
        <ele>1179.3</ele>
        <time>2023-05-21T07:59:03Z</time>
      </trkpt>
      <trkpt lat="47.85133" lon="6.93847">
        <ele>1177.3</ele>
        <time>2023-05-21T07:59:13Z</time>
      </trkpt>
      <trkpt lat="47.85138" lon="6.93863">
        <ele>1177.5</ele>
        <time>2023-05-21T07:59:21Z</time>
      </trkpt>
      <trkpt lat="47.85141" lon="6.93868">
        <ele>1176.9</ele>
        <time>2023-05-21T07:59:24Z</time>
      </trkpt>
      <trkpt lat="47.85144" lon="6.93874">
        <ele>1176.5</ele>
        <time>2023-05-21T07:59:29Z</time>
      </trkpt>
      <trkpt lat="47.85155" lon="6.93901">
        <ele>1175.9</ele>
        <time>2023-05-21T07:59:43Z</time>
      </trkpt>
      <trkpt lat="47.85157" lon="6.93907">
        <ele>1175.9</ele>
        <time>2023-05-21T07:59:47Z</time>
      </trkpt>
      <trkpt lat="47.85161" lon="6.93913">
        <ele>1175</ele>
        <time>2023-05-21T07:59:50Z</time>
      </trkpt>
      <trkpt lat="47.85164" lon="6.9392">
        <ele>1174.4</ele>
        <time>2023-05-21T07:59:54Z</time>
      </trkpt>
      <trkpt lat="47.85164" lon="6.93934">
        <ele>1175.5</ele>
        <time>2023-05-21T08:00:02Z</time>
      </trkpt>
      <trkpt lat="47.85169" lon="6.93946">
        <ele>1174</ele>
        <time>2023-05-21T08:00:10Z</time>
      </trkpt>
      <trkpt lat="47.8517" lon="6.93953">
        <ele>1173.8</ele>
        <time>2023-05-21T08:00:13Z</time>
      </trkpt>
      <trkpt lat="47.8517" lon="6.93961">
        <ele>1174.1</ele>
        <time>2023-05-21T08:00:17Z</time>
      </trkpt>
      <trkpt lat="47.85171" lon="6.93968">
        <ele>1174</ele>
        <time>2023-05-21T08:00:20Z</time>
      </trkpt>
      <trkpt lat="47.85175" lon="6.93981">
        <ele>1172.1</ele>
        <time>2023-05-21T08:00:28Z</time>
      </trkpt>
      <trkpt lat="47.85174" lon="6.93991">
        <ele>1172.2</ele>
        <time>2023-05-21T08:00:34Z</time>
      </trkpt>
      <trkpt lat="47.85175" lon="6.93998">
        <ele>1171.5</ele>
        <time>2023-05-21T08:00:37Z</time>
      </trkpt>
      <trkpt lat="47.85173" lon="6.9402">
        <ele>1169.5</ele>
        <time>2023-05-21T08:00:47Z</time>
      </trkpt>
      <trkpt lat="47.85169" lon="6.94036">
        <ele>1167.8</ele>
        <time>2023-05-21T08:00:57Z</time>
      </trkpt>
      <trkpt lat="47.85159" lon="6.94054">
        <ele>1164.6</ele>
        <time>2023-05-21T08:01:09Z</time>
      </trkpt>
      <trkpt lat="47.85153" lon="6.94059">
        <ele>1163.1</ele>
        <time>2023-05-21T08:01:15Z</time>
      </trkpt>
      <trkpt lat="47.8515" lon="6.94063">
        <ele>1161.4</ele>
        <time>2023-05-21T08:01:19Z</time>
      </trkpt>
      <trkpt lat="47.85145" lon="6.94068">
        <ele>1159.7</ele>
        <time>2023-05-21T08:01:23Z</time>
      </trkpt>
      <trkpt lat="47.85124" lon="6.94091">
        <ele>1155.6</ele>
        <time>2023-05-21T08:01:43Z</time>
      </trkpt>
      <trkpt lat="47.85119" lon="6.94104">
        <ele>1151.9</ele>
        <time>2023-05-21T08:01:52Z</time>
      </trkpt>
      <trkpt lat="47.85114" lon="6.94107">
        <ele>1152.6</ele>
        <time>2023-05-21T08:01:55Z</time>
      </trkpt>
      <trkpt lat="47.85111" lon="6.94112">
        <ele>1151.7</ele>
        <time>2023-05-21T08:01:59Z</time>
      </trkpt>
      <trkpt lat="47.85098" lon="6.94133">
        <ele>1149.7</ele>
        <time>2023-05-21T08:02:16Z</time>
      </trkpt>
      <trkpt lat="47.85093" lon="6.94148">
        <ele>1147.5</ele>
        <time>2023-05-21T08:02:26Z</time>
      </trkpt>
      <trkpt lat="47.8509" lon="6.94163">
        <ele>1144.7</ele>
        <time>2023-05-21T08:02:34Z</time>
      </trkpt>
      <trkpt lat="47.8508" lon="6.94179">
        <ele>1142</ele>
        <time>2023-05-21T08:02:46Z</time>
      </trkpt>
      <trkpt lat="47.85076" lon="6.94181">
        <ele>1141.5</ele>
        <time>2023-05-21T08:02:50Z</time>
      </trkpt>
      <trkpt lat="47.85068" lon="6.9419">
        <ele>1137.7</ele>
        <time>2023-05-21T08:02:58Z</time>
      </trkpt>
      <trkpt lat="47.8505" lon="6.94193">
        <ele>1136.2</ele>
        <time>2023-05-21T08:03:13Z</time>
      </trkpt>
      <trkpt lat="47.85046" lon="6.94191">
        <ele>1136.8</ele>
        <time>2023-05-21T08:03:17Z</time>
      </trkpt>
      <trkpt lat="47.85041" lon="6.94193">
        <ele>1135.2</ele>
        <time>2023-05-21T08:03:22Z</time>
      </trkpt>
      <trkpt lat="47.85036" lon="6.94199">
        <ele>1131.3</ele>
        <time>2023-05-21T08:03:28Z</time>
      </trkpt>
      <trkpt lat="47.85027" lon="6.94205">
        <ele>1127</ele>
        <time>2023-05-21T08:03:38Z</time>
      </trkpt>
      <trkpt lat="47.85018" lon="6.94206">
        <ele>1127</ele>
        <time>2023-05-21T08:03:44Z</time>
      </trkpt>
      <trkpt lat="47.85013" lon="6.94208">
        <ele>1126.3</ele>
        <time>2023-05-21T08:03:48Z</time>
      </trkpt>
      <trkpt lat="47.85004" lon="6.94218">
        <ele>1121.1</ele>
        <time>2023-05-21T08:03:59Z</time>
      </trkpt>
      <trkpt lat="47.84999" lon="6.9422">
        <ele>1120.5</ele>
        <time>2023-05-21T08:04:03Z</time>
      </trkpt>
      <trkpt lat="47.84993" lon="6.94225">
        <ele>1119.3</ele>
        <time>2023-05-21T08:04:09Z</time>
      </trkpt>
      <trkpt lat="47.84979" lon="6.94234">
        <ele>1118</ele>
        <time>2023-05-21T08:04:22Z</time>
      </trkpt>
      <trkpt lat="47.84973" lon="6.94234">
        <ele>1119.5</ele>
        <time>2023-05-21T08:04:26Z</time>
      </trkpt>
      <trkpt lat="47.84968" lon="6.94239">
        <ele>1118.4</ele>
        <time>2023-05-21T08:04:30Z</time>
      </trkpt>
      <trkpt lat="47.84964" lon="6.94242">
        <ele>1118.2</ele>
        <time>2023-05-21T08:04:34Z</time>
      </trkpt>
      <trkpt lat="47.8496" lon="6.94243">
        <ele>1119.2</ele>
        <time>2023-05-21T08:04:37Z</time>
      </trkpt>
      <trkpt lat="47.8495" lon="6.9425">
        <ele>1119.8</ele>
        <time>2023-05-21T08:04:43Z</time>
      </trkpt>
      <trkpt lat="47.84946" lon="6.94256">
        <ele>1118.8</ele>
        <time>2023-05-21T08:04:48Z</time>
      </trkpt>
      <trkpt lat="47.84942" lon="6.9426">
        <ele>1118.5</ele>
        <time>2023-05-21T08:04:51Z</time>
      </trkpt>
      <trkpt lat="47.84938" lon="6.94265">
        <ele>1117.9</ele>
        <time>2023-05-21T08:04:56Z</time>
      </trkpt>
      <trkpt lat="47.84928" lon="6.94284">
        <ele>1115.7</ele>
        <time>2023-05-21T08:05:10Z</time>
      </trkpt>
      <trkpt lat="47.8492" lon="6.94294">
        <ele>1116.6</ele>
        <time>2023-05-21T08:05:18Z</time>
      </trkpt>
      <trkpt lat="47.84918" lon="6.943">
        <ele>1115.9</ele>
        <time>2023-05-21T08:05:22Z</time>
      </trkpt>
      <trkpt lat="47.84915" lon="6.94305">
        <ele>1115.8</ele>
        <time>2023-05-21T08:05:26Z</time>
      </trkpt>
      <trkpt lat="47.84912" lon="6.94313">
        <ele>1113.4</ele>
        <time>2023-05-21T08:05:31Z</time>
      </trkpt>
      <trkpt lat="47.84908" lon="6.94316">
        <ele>1113.7</ele>
        <time>2023-05-21T08:05:35Z</time>
      </trkpt>
      <trkpt lat="47.849" lon="6.94326">
        <ele>1113.2</ele>
        <time>2023-05-21T08:05:42Z</time>
      </trkpt>
      <trkpt lat="47.84897" lon="6.94331">
        <ele>1112.8</ele>
        <time>2023-05-21T08:05:45Z</time>
      </trkpt>
      <trkpt lat="47.84889" lon="6.94357">
        <ele>1108.3</ele>
        <time>2023-05-21T08:05:58Z</time>
      </trkpt>
      <trkpt lat="47.84877" lon="6.94372">
        <ele>1110.9</ele>
        <time>2023-05-21T08:06:08Z</time>
      </trkpt>
      <trkpt lat="47.84876" lon="6.94392">
        <ele>1106.2</ele>
        <time>2023-05-21T08:06:20Z</time>
      </trkpt>
      <trkpt lat="47.84874" lon="6.94398">
        <ele>1106</ele>
        <time>2023-05-21T08:06:23Z</time>
      </trkpt>
      <trkpt lat="47.8487" lon="6.94405">
        <ele>1106.9</ele>
        <time>2023-05-21T08:06:30Z</time>
      </trkpt>
      <trkpt lat="47.84867" lon="6.94411">
        <ele>1107.5</ele>
        <time>2023-05-21T08:06:33Z</time>
      </trkpt>
      <trkpt lat="47.84862" lon="6.9443">
        <ele>1106.1</ele>
        <time>2023-05-21T08:06:43Z</time>
      </trkpt>
      <trkpt lat="47.84859" lon="6.94436">
        <ele>1105.9</ele>
        <time>2023-05-21T08:06:47Z</time>
      </trkpt>
      <trkpt lat="47.84857" lon="6.94442">
        <ele>1105</ele>
        <time>2023-05-21T08:06:50Z</time>
      </trkpt>
      <trkpt lat="47.84858" lon="6.94449">
        <ele>1101.9</ele>
        <time>2023-05-21T08:06:54Z</time>
      </trkpt>
      <trkpt lat="47.84854" lon="6.94453">
        <ele>1101.5</ele>
        <time>2023-05-21T08:06:58Z</time>
      </trkpt>
      <trkpt lat="47.8485" lon="6.94453">
        <ele>1102.8</ele>
        <time>2023-05-21T08:07:02Z</time>
      </trkpt>
      <trkpt lat="47.84845" lon="6.94454">
        <ele>1104.1</ele>
        <time>2023-05-21T08:07:05Z</time>
      </trkpt>
      <trkpt lat="47.84841" lon="6.94456">
        <ele>1104.7</ele>
        <time>2023-05-21T08:07:08Z</time>
      </trkpt>
      <trkpt lat="47.84837" lon="6.9446">
        <ele>1104.5</ele>
        <time>2023-05-21T08:07:12Z</time>
      </trkpt>
      <trkpt lat="47.84831" lon="6.94473">
        <ele>1101.6</ele>
        <time>2023-05-21T08:07:22Z</time>
      </trkpt>
      <trkpt lat="47.84827" lon="6.94484">
        <ele>1099.5</ele>
        <time>2023-05-21T08:07:30Z</time>
      </trkpt>
      <trkpt lat="47.84823" lon="6.94488">
        <ele>1099.6</ele>
        <time>2023-05-21T08:07:34Z</time>
      </trkpt>
      <trkpt lat="47.84822" lon="6.94495">
        <ele>1097.7</ele>
        <time>2023-05-21T08:07:37Z</time>
      </trkpt>
      <trkpt lat="47.84806" lon="6.94523">
        <ele>1093.6</ele>
        <time>2023-05-21T08:07:58Z</time>
      </trkpt>
      <trkpt lat="47.84804" lon="6.94532">
        <ele>1090.6</ele>
        <time>2023-05-21T08:08:05Z</time>
      </trkpt>
      <trkpt lat="47.84799" lon="6.94537">
        <ele>1090.2</ele>
        <time>2023-05-21T08:08:09Z</time>
      </trkpt>
      <trkpt lat="47.84793" lon="6.94548">
        <ele>1088.7</ele>
        <time>2023-05-21T08:08:16Z</time>
      </trkpt>
      <trkpt lat="47.84789" lon="6.94557">
        <ele>1087.9</ele>
        <time>2023-05-21T08:08:23Z</time>
      </trkpt>
      <trkpt lat="47.84784" lon="6.94582">
        <ele>1083.3</ele>
        <time>2023-05-21T08:08:41Z</time>
      </trkpt>
      <trkpt lat="47.84777" lon="6.94593">
        <ele>1083.4</ele>
        <time>2023-05-21T08:08:49Z</time>
      </trkpt>
      <trkpt lat="47.84772" lon="6.94598">
        <ele>1080.6</ele>
        <time>2023-05-21T08:08:55Z</time>
      </trkpt>
      <trkpt lat="47.8478" lon="6.94601">
        <ele>1079.1</ele>
        <time>2023-05-21T08:09:10Z</time>
      </trkpt>
      <trkpt lat="47.84777" lon="6.9462">
        <ele>1074.3</ele>
        <time>2023-05-21T08:09:22Z</time>
      </trkpt>
      <trkpt lat="47.84778" lon="6.94619">
        <ele>1074.6</ele>
        <time>2023-05-21T08:09:32Z</time>
      </trkpt>
      <trkpt lat="47.8478" lon="6.9461">
        <ele>1075.8</ele>
        <time>2023-05-21T08:09:38Z</time>
      </trkpt>
      <trkpt lat="47.84787" lon="6.94614">
        <ele>1069.5</ele>
        <time>2023-05-21T08:09:46Z</time>
      </trkpt>
      <trkpt lat="47.84786" lon="6.94634">
        <ele>1064.5</ele>
        <time>2023-05-21T08:09:59Z</time>
      </trkpt>
      <trkpt lat="47.84789" lon="6.9464">
        <ele>1060.6</ele>
        <time>2023-05-21T08:10:03Z</time>
      </trkpt>
      <trkpt lat="47.84792" lon="6.94637">
        <ele>1059.3</ele>
        <time>2023-05-21T08:10:21Z</time>
      </trkpt>
      <trkpt lat="47.84792" lon="6.94646">
        <ele>1056.7</ele>
        <time>2023-05-21T08:10:25Z</time>
      </trkpt>
      <trkpt lat="47.84786" lon="6.94681">
        <ele>1052.1</ele>
        <time>2023-05-21T08:10:41Z</time>
      </trkpt>
      <trkpt lat="47.84786" lon="6.94706">
        <ele>1048.8</ele>
        <time>2023-05-21T08:10:58Z</time>
      </trkpt>
      <trkpt lat="47.84784" lon="6.94712">
        <ele>1049.9</ele>
        <time>2023-05-21T08:11:06Z</time>
      </trkpt>
      <trkpt lat="47.84783" lon="6.94719">
        <ele>1050.1</ele>
        <time>2023-05-21T08:11:12Z</time>
      </trkpt>
      <trkpt lat="47.84782" lon="6.94725">
        <ele>1050.4</ele>
        <time>2023-05-21T08:11:16Z</time>
      </trkpt>
      <trkpt lat="47.84783" lon="6.94733">
        <ele>1049</ele>
        <time>2023-05-21T08:11:20Z</time>
      </trkpt>
      <trkpt lat="47.84781" lon="6.9474">
        <ele>1049.8</ele>
        <time>2023-05-21T08:11:24Z</time>
      </trkpt>
      <trkpt lat="47.84781" lon="6.94748">
        <ele>1049.1</ele>
        <time>2023-05-21T08:11:27Z</time>
      </trkpt>
      <trkpt lat="47.8478" lon="6.94754">
        <ele>1048.7</ele>
        <time>2023-05-21T08:11:31Z</time>
      </trkpt>
      <trkpt lat="47.84774" lon="6.94766">
        <ele>1048.7</ele>
        <time>2023-05-21T08:11:37Z</time>
      </trkpt>
      <trkpt lat="47.84772" lon="6.94773">
        <ele>1048</ele>
        <time>2023-05-21T08:11:40Z</time>
      </trkpt>
      <trkpt lat="47.84768" lon="6.94779">
        <ele>1048.2</ele>
        <time>2023-05-21T08:11:44Z</time>
      </trkpt>
      <trkpt lat="47.84767" lon="6.94787">
        <ele>1046.6</ele>
        <time>2023-05-21T08:11:52Z</time>
      </trkpt>
      <trkpt lat="47.8476" lon="6.94796">
        <ele>1046.8</ele>
        <time>2023-05-21T08:11:58Z</time>
      </trkpt>
      <trkpt lat="47.84755" lon="6.94799">
        <ele>1047.9</ele>
        <time>2023-05-21T08:12:01Z</time>
      </trkpt>
      <trkpt lat="47.84753" lon="6.94804">
        <ele>1047.3</ele>
        <time>2023-05-21T08:12:05Z</time>
      </trkpt>
      <trkpt lat="47.84749" lon="6.94824">
        <ele>1046.2</ele>
        <time>2023-05-21T08:12:17Z</time>
      </trkpt>
      <trkpt lat="47.84746" lon="6.94831">
        <ele>1046.3</ele>
        <time>2023-05-21T08:12:21Z</time>
      </trkpt>
      <trkpt lat="47.84744" lon="6.94837">
        <ele>1046.6</ele>
        <time>2023-05-21T08:12:25Z</time>
      </trkpt>
      <trkpt lat="47.84744" lon="6.94844">
        <ele>1046.4</ele>
        <time>2023-05-21T08:12:29Z</time>
      </trkpt>
      <trkpt lat="47.84746" lon="6.94852">
        <ele>1045.3</ele>
        <time>2023-05-21T08:12:33Z</time>
      </trkpt>
      <trkpt lat="47.84744" lon="6.94859">
        <ele>1045.9</ele>
        <time>2023-05-21T08:12:37Z</time>
      </trkpt>
      <trkpt lat="47.84746" lon="6.94866">
        <ele>1044.8</ele>
        <time>2023-05-21T08:12:41Z</time>
      </trkpt>
      <trkpt lat="47.84745" lon="6.94875">
        <ele>1045.2</ele>
        <time>2023-05-21T08:12:47Z</time>
      </trkpt>
      <trkpt lat="47.84748" lon="6.94893">
        <ele>1043.2</ele>
        <time>2023-05-21T08:12:56Z</time>
      </trkpt>
      <trkpt lat="47.84748" lon="6.94899">
        <ele>1043.3</ele>
        <time>2023-05-21T08:13:00Z</time>
      </trkpt>
      <trkpt lat="47.84745" lon="6.94906">
        <ele>1045.2</ele>
        <time>2023-05-21T08:13:04Z</time>
      </trkpt>
      <trkpt lat="47.84744" lon="6.94915">
        <ele>1045.9</ele>
        <time>2023-05-21T08:13:09Z</time>
      </trkpt>
      <trkpt lat="47.84748" lon="6.94921">
        <ele>1043.6</ele>
        <time>2023-05-21T08:13:12Z</time>
      </trkpt>
      <trkpt lat="47.84749" lon="6.94928">
        <ele>1043.4</ele>
        <time>2023-05-21T08:13:16Z</time>
      </trkpt>
      <trkpt lat="47.84748" lon="6.9494">
        <ele>1044.9</ele>
        <time>2023-05-21T08:13:23Z</time>
      </trkpt>
      <trkpt lat="47.84749" lon="6.94948">
        <ele>1045</ele>
        <time>2023-05-21T08:13:26Z</time>
      </trkpt>
      <trkpt lat="47.84751" lon="6.94955">
        <ele>1044.4</ele>
        <time>2023-05-21T08:13:30Z</time>
      </trkpt>
      <trkpt lat="47.84752" lon="6.94962">
        <ele>1044.5</ele>
        <time>2023-05-21T08:13:34Z</time>
      </trkpt>
      <trkpt lat="47.84752" lon="6.94971">
        <ele>1045.4</ele>
        <time>2023-05-21T08:13:38Z</time>
      </trkpt>
      <trkpt lat="47.84751" lon="6.94979">
        <ele>1047</ele>
        <time>2023-05-21T08:13:42Z</time>
      </trkpt>
      <trkpt lat="47.84752" lon="6.94986">
        <ele>1047</ele>
        <time>2023-05-21T08:13:46Z</time>
      </trkpt>
      <trkpt lat="47.84753" lon="6.94992">
        <ele>1047</ele>
        <time>2023-05-21T08:13:50Z</time>
      </trkpt>
      <trkpt lat="47.84754" lon="6.95006">
        <ele>1047</ele>
        <time>2023-05-21T08:13:56Z</time>
      </trkpt>
      <trkpt lat="47.84755" lon="6.95012">
        <ele>1046.1</ele>
        <time>2023-05-21T08:14:00Z</time>
      </trkpt>
      <trkpt lat="47.84754" lon="6.95019">
        <ele>1046.6</ele>
        <time>2023-05-21T08:14:04Z</time>
      </trkpt>
      <trkpt lat="47.84752" lon="6.95026">
        <ele>1047.8</ele>
        <time>2023-05-21T08:14:07Z</time>
      </trkpt>
      <trkpt lat="47.84752" lon="6.95035">
        <ele>1046.4</ele>
        <time>2023-05-21T08:14:11Z</time>
      </trkpt>
      <trkpt lat="47.84751" lon="6.95041">
        <ele>1046</ele>
        <time>2023-05-21T08:14:15Z</time>
      </trkpt>
      <trkpt lat="47.84746" lon="6.95061">
        <ele>1045</ele>
        <time>2023-05-21T08:14:26Z</time>
      </trkpt>
      <trkpt lat="47.84741" lon="6.95074">
        <ele>1044.8</ele>
        <time>2023-05-21T08:14:32Z</time>
      </trkpt>
      <trkpt lat="47.84738" lon="6.95078">
        <ele>1045.6</ele>
        <time>2023-05-21T08:14:36Z</time>
      </trkpt>
      <trkpt lat="47.84735" lon="6.95084">
        <ele>1046</ele>
        <time>2023-05-21T08:14:40Z</time>
      </trkpt>
      <trkpt lat="47.84733" lon="6.95094">
        <ele>1044</ele>
        <time>2023-05-21T08:14:46Z</time>
      </trkpt>
      <trkpt lat="47.84725" lon="6.95104">
        <ele>1045.1</ele>
        <time>2023-05-21T08:14:54Z</time>
      </trkpt>
      <trkpt lat="47.8472" lon="6.95115">
        <ele>1043.5</ele>
        <time>2023-05-21T08:15:01Z</time>
      </trkpt>
      <trkpt lat="47.84717" lon="6.95126">
        <ele>1042.1</ele>
        <time>2023-05-21T08:15:09Z</time>
      </trkpt>
      <trkpt lat="47.84715" lon="6.95132">
        <ele>1041.7</ele>
        <time>2023-05-21T08:15:12Z</time>
      </trkpt>
      <trkpt lat="47.84712" lon="6.95136">
        <ele>1042.1</ele>
        <time>2023-05-21T08:15:16Z</time>
      </trkpt>
      <trkpt lat="47.84709" lon="6.95149">
        <ele>1042</ele>
        <time>2023-05-21T08:15:23Z</time>
      </trkpt>
      <trkpt lat="47.84705" lon="6.95153">
        <ele>1043.3</ele>
        <time>2023-05-21T08:15:27Z</time>
      </trkpt>
      <trkpt lat="47.84704" lon="6.95162">
        <ele>1043.2</ele>
        <time>2023-05-21T08:15:31Z</time>
      </trkpt>
      <trkpt lat="47.84701" lon="6.95167">
        <ele>1044.2</ele>
        <time>2023-05-21T08:15:36Z</time>
      </trkpt>
      <trkpt lat="47.84699" lon="6.95173">
        <ele>1045.3</ele>
        <time>2023-05-21T08:15:39Z</time>
      </trkpt>
      <trkpt lat="47.84698" lon="6.95181">
        <ele>1046.2</ele>
        <time>2023-05-21T08:15:43Z</time>
      </trkpt>
      <trkpt lat="47.84697" lon="6.95187">
        <ele>1047.1</ele>
        <time>2023-05-21T08:15:47Z</time>
      </trkpt>
      <trkpt lat="47.847" lon="6.95195">
        <ele>1045.8</ele>
        <time>2023-05-21T08:15:53Z</time>
      </trkpt>
      <trkpt lat="47.84697" lon="6.95204">
        <ele>1047.8</ele>
        <time>2023-05-21T08:15:57Z</time>
      </trkpt>
      <trkpt lat="47.84695" lon="6.9521">
        <ele>1049.2</ele>
        <time>2023-05-21T08:15:59Z</time>
      </trkpt>
      <trkpt lat="47.84695" lon="6.95217">
        <ele>1049.4</ele>
        <time>2023-05-21T08:16:03Z</time>
      </trkpt>
      <trkpt lat="47.84696" lon="6.95224">
        <ele>1048.9</ele>
        <time>2023-05-21T08:16:07Z</time>
      </trkpt>
      <trkpt lat="47.84696" lon="6.95234">
        <ele>1048.5</ele>
        <time>2023-05-21T08:16:12Z</time>
      </trkpt>
      <trkpt lat="47.84696" lon="6.95242">
        <ele>1048.2</ele>
        <time>2023-05-21T08:16:16Z</time>
      </trkpt>
      <trkpt lat="47.84695" lon="6.95249">
        <ele>1048.6</ele>
        <time>2023-05-21T08:16:19Z</time>
      </trkpt>
      <trkpt lat="47.84695" lon="6.95264">
        <ele>1047.6</ele>
        <time>2023-05-21T08:16:26Z</time>
      </trkpt>
      <trkpt lat="47.84693" lon="6.95272">
        <ele>1048.1</ele>
        <time>2023-05-21T08:16:30Z</time>
      </trkpt>
      <trkpt lat="47.84691" lon="6.95278">
        <ele>1048.7</ele>
        <time>2023-05-21T08:16:33Z</time>
      </trkpt>
      <trkpt lat="47.84689" lon="6.95291">
        <ele>1048.5</ele>
        <time>2023-05-21T08:16:40Z</time>
      </trkpt>
      <trkpt lat="47.84691" lon="6.95299">
        <ele>1046.6</ele>
        <time>2023-05-21T08:16:45Z</time>
      </trkpt>
      <trkpt lat="47.84692" lon="6.95307">
        <ele>1045.2</ele>
        <time>2023-05-21T08:16:50Z</time>
      </trkpt>
      <trkpt lat="47.84689" lon="6.95313">
        <ele>1046</ele>
        <time>2023-05-21T08:16:53Z</time>
      </trkpt>
      <trkpt lat="47.84686" lon="6.95318">
        <ele>1047</ele>
        <time>2023-05-21T08:16:57Z</time>
      </trkpt>
      <trkpt lat="47.84685" lon="6.95325">
        <ele>1046.7</ele>
        <time>2023-05-21T08:17:02Z</time>
      </trkpt>
      <trkpt lat="47.84681" lon="6.95332">
        <ele>1048.4</ele>
        <time>2023-05-21T08:17:09Z</time>
      </trkpt>
      <trkpt lat="47.8468" lon="6.95339">
        <ele>1048.1</ele>
        <time>2023-05-21T08:17:13Z</time>
      </trkpt>
      <trkpt lat="47.8468" lon="6.9535">
        <ele>1046.5</ele>
        <time>2023-05-21T08:17:20Z</time>
      </trkpt>
      <trkpt lat="47.84677" lon="6.95356">
        <ele>1047.5</ele>
        <time>2023-05-21T08:17:23Z</time>
      </trkpt>
      <trkpt lat="47.84676" lon="6.95362">
        <ele>1047.2</ele>
        <time>2023-05-21T08:17:27Z</time>
      </trkpt>
      <trkpt lat="47.84667" lon="6.95407">
        <ele>1051.8</ele>
        <time>2023-05-21T08:17:50Z</time>
      </trkpt>
      <trkpt lat="47.84664" lon="6.95425">
        <ele>1053.4</ele>
        <time>2023-05-21T08:18:00Z</time>
      </trkpt>
      <trkpt lat="47.84667" lon="6.95472">
        <ele>1058.7</ele>
        <time>2023-05-21T08:18:31Z</time>
      </trkpt>
      <trkpt lat="47.84667" lon="6.95478">
        <ele>1060</ele>
        <time>2023-05-21T08:18:35Z</time>
      </trkpt>
      <trkpt lat="47.8467" lon="6.95483">
        <ele>1059.2</ele>
        <time>2023-05-21T08:18:40Z</time>
      </trkpt>
      <trkpt lat="47.84669" lon="6.9549">
        <ele>1061.3</ele>
        <time>2023-05-21T08:18:44Z</time>
      </trkpt>
      <trkpt lat="47.8467" lon="6.95506">
        <ele>1063.7</ele>
        <time>2023-05-21T08:18:55Z</time>
      </trkpt>
      <trkpt lat="47.84674" lon="6.95519">
        <ele>1063.2</ele>
        <time>2023-05-21T08:19:05Z</time>
      </trkpt>
      <trkpt lat="47.84672" lon="6.95528">
        <ele>1065.7</ele>
        <time>2023-05-21T08:19:13Z</time>
      </trkpt>
      <trkpt lat="47.84673" lon="6.95541">
        <ele>1065.1</ele>
        <time>2023-05-21T08:19:25Z</time>
      </trkpt>
      <trkpt lat="47.84671" lon="6.9555">
        <ele>1066.3</ele>
        <time>2023-05-21T08:19:33Z</time>
      </trkpt>
      <trkpt lat="47.84671" lon="6.95556">
        <ele>1066.3</ele>
        <time>2023-05-21T08:19:36Z</time>
      </trkpt>
      <trkpt lat="47.84669" lon="6.95566">
        <ele>1067.5</ele>
        <time>2023-05-21T08:19:42Z</time>
      </trkpt>
      <trkpt lat="47.84668" lon="6.95573">
        <ele>1068.2</ele>
        <time>2023-05-21T08:19:56Z</time>
      </trkpt>
      <trkpt lat="47.84669" lon="6.95579">
        <ele>1067.5</ele>
        <time>2023-05-21T08:20:00Z</time>
      </trkpt>
      <trkpt lat="47.84667" lon="6.95593">
        <ele>1069.5</ele>
        <time>2023-05-21T08:20:08Z</time>
      </trkpt>
      <trkpt lat="47.84668" lon="6.956">
        <ele>1069.3</ele>
        <time>2023-05-21T08:20:11Z</time>
      </trkpt>
      <trkpt lat="47.8467" lon="6.95606">
        <ele>1068.4</ele>
        <time>2023-05-21T08:20:15Z</time>
      </trkpt>
      <trkpt lat="47.84674" lon="6.95615">
        <ele>1066.5</ele>
        <time>2023-05-21T08:20:23Z</time>
      </trkpt>
      <trkpt lat="47.84679" lon="6.95626">
        <ele>1064.2</ele>
        <time>2023-05-21T08:20:31Z</time>
      </trkpt>
      <trkpt lat="47.84681" lon="6.95646">
        <ele>1065.1</ele>
        <time>2023-05-21T08:20:41Z</time>
      </trkpt>
      <trkpt lat="47.84683" lon="6.95655">
        <ele>1064.6</ele>
        <time>2023-05-21T08:20:49Z</time>
      </trkpt>
      <trkpt lat="47.84687" lon="6.95662">
        <ele>1062.3</ele>
        <time>2023-05-21T08:20:53Z</time>
      </trkpt>
      <trkpt lat="47.84687" lon="6.9567">
        <ele>1063.4</ele>
        <time>2023-05-21T08:20:58Z</time>
      </trkpt>
      <trkpt lat="47.84692" lon="6.95684">
        <ele>1061.5</ele>
        <time>2023-05-21T08:21:08Z</time>
      </trkpt>
      <trkpt lat="47.84693" lon="6.9569">
        <ele>1061.5</ele>
        <time>2023-05-21T08:21:14Z</time>
      </trkpt>
      <trkpt lat="47.84692" lon="6.95697">
        <ele>1063.4</ele>
        <time>2023-05-21T08:21:18Z</time>
      </trkpt>
      <trkpt lat="47.84696" lon="6.95703">
        <ele>1061.1</ele>
        <time>2023-05-21T08:21:23Z</time>
      </trkpt>
      <trkpt lat="47.84697" lon="6.95709">
        <ele>1061.2</ele>
        <time>2023-05-21T08:21:31Z</time>
      </trkpt>
      <trkpt lat="47.847" lon="6.95722">
        <ele>1060.8</ele>
        <time>2023-05-21T08:21:38Z</time>
      </trkpt>
      <trkpt lat="47.84702" lon="6.95728">
        <ele>1060.4</ele>
        <time>2023-05-21T08:21:41Z</time>
      </trkpt>
      <trkpt lat="47.84706" lon="6.95733">
        <ele>1058.4</ele>
        <time>2023-05-21T08:21:45Z</time>
      </trkpt>
      <trkpt lat="47.84713" lon="6.95752">
        <ele>1057.2</ele>
        <time>2023-05-21T08:21:56Z</time>
      </trkpt>
      <trkpt lat="47.84721" lon="6.95771">
        <ele>1056.9</ele>
        <time>2023-05-21T08:22:08Z</time>
      </trkpt>
      <trkpt lat="47.84723" lon="6.95778">
        <ele>1057.6</ele>
        <time>2023-05-21T08:22:13Z</time>
      </trkpt>
      <trkpt lat="47.84725" lon="6.95786">
        <ele>1059.1</ele>
        <time>2023-05-21T08:22:19Z</time>
      </trkpt>
      <trkpt lat="47.84729" lon="6.95791">
        <ele>1058.1</ele>
        <time>2023-05-21T08:22:22Z</time>
      </trkpt>
      <trkpt lat="47.84732" lon="6.95797">
        <ele>1058.1</ele>
        <time>2023-05-21T08:22:26Z</time>
      </trkpt>
      <trkpt lat="47.84736" lon="6.95802">
        <ele>1056.9</ele>
        <time>2023-05-21T08:22:31Z</time>
      </trkpt>
      <trkpt lat="47.84739" lon="6.95814">
        <ele>1057.7</ele>
        <time>2023-05-21T08:22:39Z</time>
      </trkpt>
      <trkpt lat="47.84742" lon="6.95821">
        <ele>1057.1</ele>
        <time>2023-05-21T08:22:43Z</time>
      </trkpt>
      <trkpt lat="47.84741" lon="6.95828">
        <ele>1059.3</ele>
        <time>2023-05-21T08:22:47Z</time>
      </trkpt>
      <trkpt lat="47.84745" lon="6.95834">
        <ele>1057.7</ele>
        <time>2023-05-21T08:22:53Z</time>
      </trkpt>
      <trkpt lat="47.84747" lon="6.95849">
        <ele>1058.8</ele>
        <time>2023-05-21T08:22:59Z</time>
      </trkpt>
      <trkpt lat="47.84748" lon="6.95857">
        <ele>1059.5</ele>
        <time>2023-05-21T08:23:03Z</time>
      </trkpt>
      <trkpt lat="47.84751" lon="6.95863">
        <ele>1058.1</ele>
        <time>2023-05-21T08:23:07Z</time>
      </trkpt>
      <trkpt lat="47.84753" lon="6.95872">
        <ele>1056.1</ele>
        <time>2023-05-21T08:23:15Z</time>
      </trkpt>
      <trkpt lat="47.84748" lon="6.95888">
        <ele>1057.4</ele>
        <time>2023-05-21T08:23:24Z</time>
      </trkpt>
      <trkpt lat="47.84746" lon="6.95892">
        <ele>1055.8</ele>
        <time>2023-05-21T08:23:29Z</time>
      </trkpt>
      <trkpt lat="47.84742" lon="6.95895">
        <ele>1054.6</ele>
        <time>2023-05-21T08:23:35Z</time>
      </trkpt>
      <trkpt lat="47.84735" lon="6.95897">
        <ele>1054.1</ele>
        <time>2023-05-21T08:23:50Z</time>
      </trkpt>
      <trkpt lat="47.84727" lon="6.95903">
        <ele>1051</ele>
        <time>2023-05-21T08:23:57Z</time>
      </trkpt>
      <trkpt lat="47.84723" lon="6.95905">
        <ele>1049.9</ele>
        <time>2023-05-21T08:24:02Z</time>
      </trkpt>
      <trkpt lat="47.84715" lon="6.95905">
        <ele>1051</ele>
        <time>2023-05-21T08:24:08Z</time>
      </trkpt>
      <trkpt lat="47.84712" lon="6.95911">
        <ele>1047.7</ele>
        <time>2023-05-21T08:24:13Z</time>
      </trkpt>
      <trkpt lat="47.84706" lon="6.95913">
        <ele>1047.6</ele>
        <time>2023-05-21T08:24:17Z</time>
      </trkpt>
      <trkpt lat="47.84701" lon="6.95912">
        <ele>1049.1</ele>
        <time>2023-05-21T08:24:20Z</time>
      </trkpt>
      <trkpt lat="47.84697" lon="6.95913">
        <ele>1049.4</ele>
        <time>2023-05-21T08:24:25Z</time>
      </trkpt>
      <trkpt lat="47.84693" lon="6.95911">
        <ele>1051.2</ele>
        <time>2023-05-21T08:24:28Z</time>
      </trkpt>
      <trkpt lat="47.84688" lon="6.95912">
        <ele>1051.9</ele>
        <time>2023-05-21T08:24:31Z</time>
      </trkpt>
      <trkpt lat="47.84683" lon="6.95918">
        <ele>1050.2</ele>
        <time>2023-05-21T08:24:37Z</time>
      </trkpt>
      <trkpt lat="47.84679" lon="6.95922">
        <ele>1049.3</ele>
        <time>2023-05-21T08:24:41Z</time>
      </trkpt>
      <trkpt lat="47.84674" lon="6.95924">
        <ele>1049.7</ele>
        <time>2023-05-21T08:24:44Z</time>
      </trkpt>
      <trkpt lat="47.84667" lon="6.95929">
        <ele>1049.1</ele>
        <time>2023-05-21T08:24:53Z</time>
      </trkpt>
      <trkpt lat="47.84664" lon="6.95936">
        <ele>1047.2</ele>
        <time>2023-05-21T08:24:57Z</time>
      </trkpt>
      <trkpt lat="47.84649" lon="6.95943">
        <ele>1051.5</ele>
        <time>2023-05-21T08:25:07Z</time>
      </trkpt>
      <trkpt lat="47.84647" lon="6.95951">
        <ele>1049.2</ele>
        <time>2023-05-21T08:25:15Z</time>
      </trkpt>
      <trkpt lat="47.84641" lon="6.95962">
        <ele>1047.9</ele>
        <time>2023-05-21T08:25:23Z</time>
      </trkpt>
      <trkpt lat="47.84638" lon="6.95968">
        <ele>1047.2</ele>
        <time>2023-05-21T08:25:26Z</time>
      </trkpt>
      <trkpt lat="47.84635" lon="6.95971">
        <ele>1047.6</ele>
        <time>2023-05-21T08:25:31Z</time>
      </trkpt>
      <trkpt lat="47.84632" lon="6.95981">
        <ele>1045.9</ele>
        <time>2023-05-21T08:25:38Z</time>
      </trkpt>
      <trkpt lat="47.84627" lon="6.95984">
        <ele>1047.6</ele>
        <time>2023-05-21T08:25:43Z</time>
      </trkpt>
      <trkpt lat="47.84624" lon="6.9599">
        <ele>1047.3</ele>
        <time>2023-05-21T08:25:46Z</time>
      </trkpt>
      <trkpt lat="47.8461" lon="6.95987">
        <ele>1055.6</ele>
        <time>2023-05-21T08:26:06Z</time>
      </trkpt>
      <trkpt lat="47.84608" lon="6.95994">
        <ele>1054.2</ele>
        <time>2023-05-21T08:26:23Z</time>
      </trkpt>
      <trkpt lat="47.84612" lon="6.96">
        <ele>1050.5</ele>
        <time>2023-05-21T08:26:28Z</time>
      </trkpt>
      <trkpt lat="47.84612" lon="6.9601">
        <ele>1047.6</ele>
        <time>2023-05-21T08:26:35Z</time>
      </trkpt>
      <trkpt lat="47.84611" lon="6.96018">
        <ele>1045.9</ele>
        <time>2023-05-21T08:26:39Z</time>
      </trkpt>
      <trkpt lat="47.84608" lon="6.96026">
        <ele>1044.9</ele>
        <time>2023-05-21T08:26:45Z</time>
      </trkpt>
      <trkpt lat="47.84599" lon="6.96045">
        <ele>1042.7</ele>
        <time>2023-05-21T08:26:55Z</time>
      </trkpt>
      <trkpt lat="47.84591" lon="6.96053">
        <ele>1043.1</ele>
        <time>2023-05-21T08:27:03Z</time>
      </trkpt>
      <trkpt lat="47.84567" lon="6.96067">
        <ele>1042.2</ele>
        <time>2023-05-21T08:27:22Z</time>
      </trkpt>
      <trkpt lat="47.84558" lon="6.96069">
        <ele>1042.4</ele>
        <time>2023-05-21T08:27:29Z</time>
      </trkpt>
      <trkpt lat="47.84541" lon="6.96081">
        <ele>1037.6</ele>
        <time>2023-05-21T08:27:42Z</time>
      </trkpt>
      <trkpt lat="47.84517" lon="6.96094">
        <ele>1033.5</ele>
        <time>2023-05-21T08:28:04Z</time>
      </trkpt>
      <trkpt lat="47.8451" lon="6.96102">
        <ele>1031</ele>
        <time>2023-05-21T08:28:12Z</time>
      </trkpt>
      <trkpt lat="47.84504" lon="6.96102">
        <ele>1032</ele>
        <time>2023-05-21T08:28:15Z</time>
      </trkpt>
      <trkpt lat="47.84489" lon="6.9612">
        <ele>1029.8</ele>
        <time>2023-05-21T08:28:34Z</time>
      </trkpt>
      <trkpt lat="47.84481" lon="6.96133">
        <ele>1028.6</ele>
        <time>2023-05-21T08:28:42Z</time>
      </trkpt>
      <trkpt lat="47.84478" lon="6.96148">
        <ele>1026</ele>
        <time>2023-05-21T08:28:51Z</time>
      </trkpt>
      <trkpt lat="47.84475" lon="6.96155">
        <ele>1025.9</ele>
        <time>2023-05-21T08:28:55Z</time>
      </trkpt>
      <trkpt lat="47.84472" lon="6.9616">
        <ele>1026.3</ele>
        <time>2023-05-21T08:29:00Z</time>
      </trkpt>
      <trkpt lat="47.84464" lon="6.96169">
        <ele>1027.8</ele>
        <time>2023-05-21T08:29:07Z</time>
      </trkpt>
      <trkpt lat="47.84464" lon="6.96176">
        <ele>1025.6</ele>
        <time>2023-05-21T08:29:11Z</time>
      </trkpt>
      <trkpt lat="47.84454" lon="6.96191">
        <ele>1025.6</ele>
        <time>2023-05-21T08:29:21Z</time>
      </trkpt>
      <trkpt lat="47.84449" lon="6.96203">
        <ele>1024.4</ele>
        <time>2023-05-21T08:29:29Z</time>
      </trkpt>
      <trkpt lat="47.84446" lon="6.9621">
        <ele>1023.8</ele>
        <time>2023-05-21T08:29:34Z</time>
      </trkpt>
      <trkpt lat="47.84447" lon="6.96217">
        <ele>1021.3</ele>
        <time>2023-05-21T08:29:39Z</time>
      </trkpt>
      <trkpt lat="47.84439" lon="6.96244">
        <ele>1017.1</ele>
        <time>2023-05-21T08:29:55Z</time>
      </trkpt>
      <trkpt lat="47.84436" lon="6.96249">
        <ele>1016.9</ele>
        <time>2023-05-21T08:29:58Z</time>
      </trkpt>
      <trkpt lat="47.8443" lon="6.96261">
        <ele>1015.9</ele>
        <time>2023-05-21T08:30:06Z</time>
      </trkpt>
      <trkpt lat="47.84411" lon="6.96289">
        <ele>1015.5</ele>
        <time>2023-05-21T08:30:28Z</time>
      </trkpt>
      <trkpt lat="47.84391" lon="6.96351">
        <ele>1007.4</ele>
        <time>2023-05-21T08:30:58Z</time>
      </trkpt>
      <trkpt lat="47.84382" lon="6.964">
        <ele>1002.6</ele>
        <time>2023-05-21T08:31:29Z</time>
      </trkpt>
      <trkpt lat="47.8437" lon="6.96458">
        <ele>999.1</ele>
        <time>2023-05-21T08:32:00Z</time>
      </trkpt>
      <trkpt lat="47.8436" lon="6.965">
        <ele>995.3</ele>
        <time>2023-05-21T08:32:23Z</time>
      </trkpt>
      <trkpt lat="47.84357" lon="6.96505">
        <ele>994.3</ele>
        <time>2023-05-21T08:32:27Z</time>
      </trkpt>
      <trkpt lat="47.84349" lon="6.96516">
        <ele>992.1</ele>
        <time>2023-05-21T08:32:34Z</time>
      </trkpt>
      <trkpt lat="47.84336" lon="6.96528">
        <ele>989.5</ele>
        <time>2023-05-21T08:32:43Z</time>
      </trkpt>
      <trkpt lat="47.8433" lon="6.9653">
        <ele>989.5</ele>
        <time>2023-05-21T08:32:47Z</time>
      </trkpt>
      <trkpt lat="47.84324" lon="6.96534">
        <ele>988.6</ele>
        <time>2023-05-21T08:32:51Z</time>
      </trkpt>
      <trkpt lat="47.84317" lon="6.9654">
        <ele>987.1</ele>
        <time>2023-05-21T08:32:59Z</time>
      </trkpt>
      <trkpt lat="47.84313" lon="6.96544">
        <ele>986.2</ele>
        <time>2023-05-21T08:33:03Z</time>
      </trkpt>
      <trkpt lat="47.84304" lon="6.9655">
        <ele>985.4</ele>
        <time>2023-05-21T08:33:10Z</time>
      </trkpt>
      <trkpt lat="47.84299" lon="6.96549">
        <ele>986.2</ele>
        <time>2023-05-21T08:33:14Z</time>
      </trkpt>
      <trkpt lat="47.84282" lon="6.96561">
        <ele>983.7</ele>
        <time>2023-05-21T08:33:29Z</time>
      </trkpt>
      <trkpt lat="47.84277" lon="6.96563">
        <ele>983.7</ele>
        <time>2023-05-21T08:33:33Z</time>
      </trkpt>
      <trkpt lat="47.84266" lon="6.96573">
        <ele>982.2</ele>
        <time>2023-05-21T08:33:43Z</time>
      </trkpt>
      <trkpt lat="47.84246" lon="6.96588">
        <ele>980.7</ele>
        <time>2023-05-21T08:33:55Z</time>
      </trkpt>
      <trkpt lat="47.84238" lon="6.96595">
        <ele>981.2</ele>
        <time>2023-05-21T08:34:02Z</time>
      </trkpt>
      <trkpt lat="47.84233" lon="6.96596">
        <ele>982.6</ele>
        <time>2023-05-21T08:34:06Z</time>
      </trkpt>
      <trkpt lat="47.84225" lon="6.96605">
        <ele>983.3</ele>
        <time>2023-05-21T08:34:14Z</time>
      </trkpt>
      <trkpt lat="47.8422" lon="6.96608">
        <ele>984</ele>
        <time>2023-05-21T08:34:20Z</time>
      </trkpt>
      <trkpt lat="47.84216" lon="6.96612">
        <ele>984</ele>
        <time>2023-05-21T08:34:23Z</time>
      </trkpt>
      <trkpt lat="47.84213" lon="6.96617">
        <ele>984</ele>
        <time>2023-05-21T08:34:29Z</time>
      </trkpt>
      <trkpt lat="47.84209" lon="6.96615">
        <ele>985.1</ele>
        <time>2023-05-21T08:34:33Z</time>
      </trkpt>
      <trkpt lat="47.84206" lon="6.96619">
        <ele>985.5</ele>
        <time>2023-05-21T08:34:37Z</time>
      </trkpt>
      <trkpt lat="47.84204" lon="6.96624">
        <ele>985.9</ele>
        <time>2023-05-21T08:34:41Z</time>
      </trkpt>
      <trkpt lat="47.84202" lon="6.96632">
        <ele>986.5</ele>
        <time>2023-05-21T08:34:45Z</time>
      </trkpt>
      <trkpt lat="47.84199" lon="6.96638">
        <ele>987.8</ele>
        <time>2023-05-21T08:34:48Z</time>
      </trkpt>
      <trkpt lat="47.84184" lon="6.96648">
        <ele>991.8</ele>
        <time>2023-05-21T08:35:03Z</time>
      </trkpt>
      <trkpt lat="47.84181" lon="6.96653">
        <ele>992.9</ele>
        <time>2023-05-21T08:35:08Z</time>
      </trkpt>
      <trkpt lat="47.84182" lon="6.96669">
        <ele>993.1</ele>
        <time>2023-05-21T08:35:22Z</time>
      </trkpt>
      <trkpt lat="47.84176" lon="6.96695">
        <ele>993.2</ele>
        <time>2023-05-21T08:35:36Z</time>
      </trkpt>
      <trkpt lat="47.84172" lon="6.96709">
        <ele>993</ele>
        <time>2023-05-21T08:35:46Z</time>
      </trkpt>
      <trkpt lat="47.84161" lon="6.96738">
        <ele>992.8</ele>
        <time>2023-05-21T08:36:04Z</time>
      </trkpt>
      <trkpt lat="47.84159" lon="6.96751">
        <ele>991.1</ele>
        <time>2023-05-21T08:36:10Z</time>
      </trkpt>
      <trkpt lat="47.84156" lon="6.96757">
        <ele>991.4</ele>
        <time>2023-05-21T08:36:13Z</time>
      </trkpt>
      <trkpt lat="47.84135" lon="6.96825">
        <ele>988.8</ele>
        <time>2023-05-21T08:36:46Z</time>
      </trkpt>
      <trkpt lat="47.84129" lon="6.96844">
        <ele>988</ele>
        <time>2023-05-21T08:36:55Z</time>
      </trkpt>
      <trkpt lat="47.84128" lon="6.96851">
        <ele>987.4</ele>
        <time>2023-05-21T08:36:59Z</time>
      </trkpt>
      <trkpt lat="47.8413" lon="6.96899">
        <ele>980.1</ele>
        <time>2023-05-21T08:37:27Z</time>
      </trkpt>
      <trkpt lat="47.84126" lon="6.96927">
        <ele>978.5</ele>
        <time>2023-05-21T08:37:44Z</time>
      </trkpt>
      <trkpt lat="47.84125" lon="6.96938">
        <ele>977.7</ele>
        <time>2023-05-21T08:37:50Z</time>
      </trkpt>
      <trkpt lat="47.84125" lon="6.96945">
        <ele>976.9</ele>
        <time>2023-05-21T08:37:55Z</time>
      </trkpt>
      <trkpt lat="47.84122" lon="6.96967">
        <ele>976.1</ele>
        <time>2023-05-21T08:38:07Z</time>
      </trkpt>
      <trkpt lat="47.84118" lon="6.9698">
        <ele>976.2</ele>
        <time>2023-05-21T08:38:13Z</time>
      </trkpt>
      <trkpt lat="47.84115" lon="6.97046">
        <ele>971.2</ele>
        <time>2023-05-21T08:38:45Z</time>
      </trkpt>
      <trkpt lat="47.84114" lon="6.97054">
        <ele>971</ele>
        <time>2023-05-21T08:38:48Z</time>
      </trkpt>
      <trkpt lat="47.84115" lon="6.97061">
        <ele>970.2</ele>
        <time>2023-05-21T08:38:51Z</time>
      </trkpt>
      <trkpt lat="47.84113" lon="6.97084">
        <ele>970.1</ele>
        <time>2023-05-21T08:39:04Z</time>
      </trkpt>
      <trkpt lat="47.84113" lon="6.97098">
        <ele>969.6</ele>
        <time>2023-05-21T08:39:10Z</time>
      </trkpt>
      <trkpt lat="47.84111" lon="6.97105">
        <ele>970.2</ele>
        <time>2023-05-21T08:39:14Z</time>
      </trkpt>
      <trkpt lat="47.8411" lon="6.97113">
        <ele>969.9</ele>
        <time>2023-05-21T08:39:18Z</time>
      </trkpt>
      <trkpt lat="47.84111" lon="6.97121">
        <ele>969.3</ele>
        <time>2023-05-21T08:39:23Z</time>
      </trkpt>
      <trkpt lat="47.84109" lon="6.97134">
        <ele>968.6</ele>
        <time>2023-05-21T08:39:31Z</time>
      </trkpt>
      <trkpt lat="47.84106" lon="6.9714">
        <ele>968.7</ele>
        <time>2023-05-21T08:39:35Z</time>
      </trkpt>
      <trkpt lat="47.84108" lon="6.97183">
        <ele>966.1</ele>
        <time>2023-05-21T08:39:59Z</time>
      </trkpt>
      <trkpt lat="47.84109" lon="6.9719">
        <ele>965.6</ele>
        <time>2023-05-21T08:40:03Z</time>
      </trkpt>
      <trkpt lat="47.84107" lon="6.97198">
        <ele>965.8</ele>
        <time>2023-05-21T08:40:07Z</time>
      </trkpt>
      <trkpt lat="47.84107" lon="6.97214">
        <ele>965.3</ele>
        <time>2023-05-21T08:40:15Z</time>
      </trkpt>
      <trkpt lat="47.84108" lon="6.97222">
        <ele>964.8</ele>
        <time>2023-05-21T08:40:19Z</time>
      </trkpt>
      <trkpt lat="47.84109" lon="6.97229">
        <ele>964.3</ele>
        <time>2023-05-21T08:40:23Z</time>
      </trkpt>
      <trkpt lat="47.84109" lon="6.97257">
        <ele>963.9</ele>
        <time>2023-05-21T08:40:37Z</time>
      </trkpt>
      <trkpt lat="47.84109" lon="6.97264">
        <ele>964.2</ele>
        <time>2023-05-21T08:40:41Z</time>
      </trkpt>
      <trkpt lat="47.84112" lon="6.97276">
        <ele>963.4</ele>
        <time>2023-05-21T08:40:47Z</time>
      </trkpt>
      <trkpt lat="47.84113" lon="6.97282">
        <ele>963</ele>
        <time>2023-05-21T08:40:50Z</time>
      </trkpt>
      <trkpt lat="47.84113" lon="6.9729">
        <ele>963.3</ele>
        <time>2023-05-21T08:40:54Z</time>
      </trkpt>
      <trkpt lat="47.84114" lon="6.97298">
        <ele>963</ele>
        <time>2023-05-21T08:40:58Z</time>
      </trkpt>
      <trkpt lat="47.84115" lon="6.97304">
        <ele>962.6</ele>
        <time>2023-05-21T08:41:02Z</time>
      </trkpt>
      <trkpt lat="47.84115" lon="6.97311">
        <ele>962.6</ele>
        <time>2023-05-21T08:41:05Z</time>
      </trkpt>
      <trkpt lat="47.84118" lon="6.97324">
        <ele>960.9</ele>
        <time>2023-05-21T08:41:12Z</time>
      </trkpt>
      <trkpt lat="47.8412" lon="6.97334">
        <ele>959.9</ele>
        <time>2023-05-21T08:41:20Z</time>
      </trkpt>
      <trkpt lat="47.84126" lon="6.97348">
        <ele>957.5</ele>
        <time>2023-05-21T08:41:30Z</time>
      </trkpt>
      <trkpt lat="47.84126" lon="6.97356">
        <ele>958.1</ele>
        <time>2023-05-21T08:41:34Z</time>
      </trkpt>
      <trkpt lat="47.84141" lon="6.97395">
        <ele>954.5</ele>
        <time>2023-05-21T08:41:54Z</time>
      </trkpt>
      <trkpt lat="47.84142" lon="6.97402">
        <ele>954.6</ele>
        <time>2023-05-21T08:41:59Z</time>
      </trkpt>
      <trkpt lat="47.84149" lon="6.97415">
        <ele>951.7</ele>
        <time>2023-05-21T08:42:09Z</time>
      </trkpt>
      <trkpt lat="47.8415" lon="6.97431">
        <ele>953</ele>
        <time>2023-05-21T08:42:17Z</time>
      </trkpt>
      <trkpt lat="47.84152" lon="6.97438">
        <ele>952.6</ele>
        <time>2023-05-21T08:42:20Z</time>
      </trkpt>
      <trkpt lat="47.84167" lon="6.9748">
        <ele>947.6</ele>
        <time>2023-05-21T08:42:45Z</time>
      </trkpt>
      <trkpt lat="47.84168" lon="6.97495">
        <ele>948.7</ele>
        <time>2023-05-21T08:42:52Z</time>
      </trkpt>
      <trkpt lat="47.84173" lon="6.97512">
        <ele>948.2</ele>
        <time>2023-05-21T08:43:01Z</time>
      </trkpt>
      <trkpt lat="47.84176" lon="6.97516">
        <ele>947.1</ele>
        <time>2023-05-21T08:43:05Z</time>
      </trkpt>
      <trkpt lat="47.84182" lon="6.97538">
        <ele>947.4</ele>
        <time>2023-05-21T08:43:16Z</time>
      </trkpt>
      <trkpt lat="47.84185" lon="6.97544">
        <ele>946.8</ele>
        <time>2023-05-21T08:43:20Z</time>
      </trkpt>
      <trkpt lat="47.84188" lon="6.97556">
        <ele>947.3</ele>
        <time>2023-05-21T08:43:27Z</time>
      </trkpt>
      <trkpt lat="47.84198" lon="6.97573">
        <ele>944.8</ele>
        <time>2023-05-21T08:43:37Z</time>
      </trkpt>
      <trkpt lat="47.84202" lon="6.976">
        <ele>945.1</ele>
        <time>2023-05-21T08:43:50Z</time>
      </trkpt>
      <trkpt lat="47.84203" lon="6.97609">
        <ele>944.9</ele>
        <time>2023-05-21T08:43:55Z</time>
      </trkpt>
      <trkpt lat="47.842" lon="6.97623">
        <ele>946.1</ele>
        <time>2023-05-21T08:44:02Z</time>
      </trkpt>
      <trkpt lat="47.84202" lon="6.97638">
        <ele>944.4</ele>
        <time>2023-05-21T08:44:08Z</time>
      </trkpt>
      <trkpt lat="47.84198" lon="6.97653">
        <ele>944.9</ele>
        <time>2023-05-21T08:44:19Z</time>
      </trkpt>
      <trkpt lat="47.84197" lon="6.97665">
        <ele>943.8</ele>
        <time>2023-05-21T08:44:25Z</time>
      </trkpt>
      <trkpt lat="47.84201" lon="6.97671">
        <ele>941</ele>
        <time>2023-05-21T08:44:28Z</time>
      </trkpt>
      <trkpt lat="47.84201" lon="6.97686">
        <ele>939.4</ele>
        <time>2023-05-21T08:44:34Z</time>
      </trkpt>
      <trkpt lat="47.84197" lon="6.97693">
        <ele>940.8</ele>
        <time>2023-05-21T08:44:37Z</time>
      </trkpt>
      <trkpt lat="47.84194" lon="6.97698">
        <ele>941.5</ele>
        <time>2023-05-21T08:44:40Z</time>
      </trkpt>
      <trkpt lat="47.84189" lon="6.977">
        <ele>941.7</ele>
        <time>2023-05-21T08:44:47Z</time>
      </trkpt>
      <trkpt lat="47.84184" lon="6.97745">
        <ele>937.3</ele>
        <time>2023-05-21T08:45:11Z</time>
      </trkpt>
      <trkpt lat="47.84185" lon="6.97763">
        <ele>937.1</ele>
        <time>2023-05-21T08:45:20Z</time>
      </trkpt>
      <trkpt lat="47.84192" lon="6.97784">
        <ele>938.2</ele>
        <time>2023-05-21T08:45:32Z</time>
      </trkpt>
      <trkpt lat="47.84193" lon="6.97806">
        <ele>939.8</ele>
        <time>2023-05-21T08:45:43Z</time>
      </trkpt>
      <trkpt lat="47.84191" lon="6.97812">
        <ele>940.1</ele>
        <time>2023-05-21T08:45:47Z</time>
      </trkpt>
      <trkpt lat="47.84187" lon="6.97816">
        <ele>939.9</ele>
        <time>2023-05-21T08:45:52Z</time>
      </trkpt>
      <trkpt lat="47.84185" lon="6.97823">
        <ele>940.1</ele>
        <time>2023-05-21T08:45:56Z</time>
      </trkpt>
      <trkpt lat="47.84186" lon="6.9783">
        <ele>940.9</ele>
        <time>2023-05-21T08:46:00Z</time>
      </trkpt>
      <trkpt lat="47.84184" lon="6.97839">
        <ele>941.6</ele>
        <time>2023-05-21T08:46:10Z</time>
      </trkpt>
      <trkpt lat="47.84184" lon="6.97846">
        <ele>942.7</ele>
        <time>2023-05-21T08:46:14Z</time>
      </trkpt>
      <trkpt lat="47.84179" lon="6.97858">
        <ele>943.1</ele>
        <time>2023-05-21T08:46:23Z</time>
      </trkpt>
      <trkpt lat="47.84173" lon="6.97894">
        <ele>948.7</ele>
        <time>2023-05-21T08:46:48Z</time>
      </trkpt>
      <trkpt lat="47.8417" lon="6.97899">
        <ele>948.5</ele>
        <time>2023-05-21T08:46:52Z</time>
      </trkpt>
      <trkpt lat="47.84169" lon="6.97906">
        <ele>949.7</ele>
        <time>2023-05-21T08:46:57Z</time>
      </trkpt>
      <trkpt lat="47.84166" lon="6.97929">
        <ele>953.8</ele>
        <time>2023-05-21T08:47:16Z</time>
      </trkpt>
      <trkpt lat="47.84156" lon="6.97949">
        <ele>955</ele>
        <time>2023-05-21T08:47:34Z</time>
      </trkpt>
      <trkpt lat="47.84153" lon="6.97962">
        <ele>957.6</ele>
        <time>2023-05-21T08:47:45Z</time>
      </trkpt>
      <trkpt lat="47.84144" lon="6.97983">
        <ele>961.1</ele>
        <time>2023-05-21T08:48:03Z</time>
      </trkpt>
      <trkpt lat="47.84139" lon="6.97986">
        <ele>960.5</ele>
        <time>2023-05-21T08:48:07Z</time>
      </trkpt>
      <trkpt lat="47.84123" lon="6.98014">
        <ele>963.8</ele>
        <time>2023-05-21T08:48:33Z</time>
      </trkpt>
      <trkpt lat="47.84119" lon="6.98018">
        <ele>963.7</ele>
        <time>2023-05-21T08:48:38Z</time>
      </trkpt>
      <trkpt lat="47.84116" lon="6.98025">
        <ele>964.9</ele>
        <time>2023-05-21T08:48:43Z</time>
      </trkpt>
      <trkpt lat="47.84104" lon="6.98049">
        <ele>967.2</ele>
        <time>2023-05-21T08:49:03Z</time>
      </trkpt>
      <trkpt lat="47.84102" lon="6.98058">
        <ele>968.9</ele>
        <time>2023-05-21T08:49:09Z</time>
      </trkpt>
      <trkpt lat="47.84097" lon="6.98063">
        <ele>968</ele>
        <time>2023-05-21T08:49:13Z</time>
      </trkpt>
      <trkpt lat="47.84095" lon="6.98077">
        <ele>970.3</ele>
        <time>2023-05-21T08:49:21Z</time>
      </trkpt>
      <trkpt lat="47.84093" lon="6.98086">
        <ele>971.2</ele>
        <time>2023-05-21T08:49:29Z</time>
      </trkpt>
      <trkpt lat="47.84092" lon="6.98092">
        <ele>971.8</ele>
        <time>2023-05-21T08:49:34Z</time>
      </trkpt>
      <trkpt lat="47.84091" lon="6.98105">
        <ele>973.4</ele>
        <time>2023-05-21T08:49:42Z</time>
      </trkpt>
      <trkpt lat="47.84094" lon="6.9815">
        <ele>976.8</ele>
        <time>2023-05-21T08:50:11Z</time>
      </trkpt>
      <trkpt lat="47.84097" lon="6.98157">
        <ele>977.6</ele>
        <time>2023-05-21T08:50:15Z</time>
      </trkpt>
      <trkpt lat="47.84101" lon="6.98162">
        <ele>979</ele>
        <time>2023-05-21T08:50:19Z</time>
      </trkpt>
      <trkpt lat="47.84102" lon="6.9817">
        <ele>978.7</ele>
        <time>2023-05-21T08:50:24Z</time>
      </trkpt>
      <trkpt lat="47.84106" lon="6.98175">
        <ele>980.1</ele>
        <time>2023-05-21T08:50:27Z</time>
      </trkpt>
      <trkpt lat="47.84106" lon="6.98185">
        <ele>979.2</ele>
        <time>2023-05-21T08:50:34Z</time>
      </trkpt>
      <trkpt lat="47.84108" lon="6.98193">
        <ele>979.5</ele>
        <time>2023-05-21T08:50:38Z</time>
      </trkpt>
      <trkpt lat="47.8411" lon="6.98198">
        <ele>980.1</ele>
        <time>2023-05-21T08:50:42Z</time>
      </trkpt>
      <trkpt lat="47.84107" lon="6.98213">
        <ele>976.9</ele>
        <time>2023-05-21T08:50:52Z</time>
      </trkpt>
      <trkpt lat="47.84108" lon="6.98219">
        <ele>976.8</ele>
        <time>2023-05-21T08:50:57Z</time>
      </trkpt>
      <trkpt lat="47.84111" lon="6.98224">
        <ele>977.8</ele>
        <time>2023-05-21T08:51:00Z</time>
      </trkpt>
      <trkpt lat="47.84113" lon="6.98232">
        <ele>978.2</ele>
        <time>2023-05-21T08:51:03Z</time>
      </trkpt>
      <trkpt lat="47.84112" lon="6.98241">
        <ele>977.1</ele>
        <time>2023-05-21T08:51:09Z</time>
      </trkpt>
      <trkpt lat="47.84114" lon="6.98247">
        <ele>977.7</ele>
        <time>2023-05-21T08:51:13Z</time>
      </trkpt>
      <trkpt lat="47.84113" lon="6.98254">
        <ele>977</ele>
        <time>2023-05-21T08:51:17Z</time>
      </trkpt>
      <trkpt lat="47.84111" lon="6.98268">
        <ele>975.9</ele>
        <time>2023-05-21T08:51:25Z</time>
      </trkpt>
      <trkpt lat="47.8411" lon="6.98282">
        <ele>975.6</ele>
        <time>2023-05-21T08:51:33Z</time>
      </trkpt>
      <trkpt lat="47.84111" lon="6.98289">
        <ele>976.4</ele>
        <time>2023-05-21T08:51:37Z</time>
      </trkpt>
      <trkpt lat="47.84111" lon="6.98304">
        <ele>976.9</ele>
        <time>2023-05-21T08:51:45Z</time>
      </trkpt>
      <trkpt lat="47.8411" lon="6.98312">
        <ele>976.5</ele>
        <time>2023-05-21T08:51:48Z</time>
      </trkpt>
      <trkpt lat="47.8411" lon="6.9832">
        <ele>976.5</ele>
        <time>2023-05-21T08:51:53Z</time>
      </trkpt>
      <trkpt lat="47.8411" lon="6.98326">
        <ele>976.5</ele>
        <time>2023-05-21T08:51:56Z</time>
      </trkpt>
      <trkpt lat="47.8411" lon="6.98334">
        <ele>976.4</ele>
        <time>2023-05-21T08:52:01Z</time>
      </trkpt>
      <trkpt lat="47.84112" lon="6.9834">
        <ele>977.5</ele>
        <time>2023-05-21T08:52:05Z</time>
      </trkpt>
      <trkpt lat="47.84112" lon="6.98347">
        <ele>977.5</ele>
        <time>2023-05-21T08:52:09Z</time>
      </trkpt>
      <trkpt lat="47.84115" lon="6.98386">
        <ele>978.7</ele>
        <time>2023-05-21T08:52:33Z</time>
      </trkpt>
      <trkpt lat="47.84119" lon="6.98395">
        <ele>978.5</ele>
        <time>2023-05-21T08:52:41Z</time>
      </trkpt>
      <trkpt lat="47.84122" lon="6.98406">
        <ele>976.1</ele>
        <time>2023-05-21T08:52:50Z</time>
      </trkpt>
      <trkpt lat="47.84136" lon="6.98419">
        <ele>976.3</ele>
        <time>2023-05-21T08:53:03Z</time>
      </trkpt>
      <trkpt lat="47.84148" lon="6.98436">
        <ele>976</ele>
        <time>2023-05-21T08:53:17Z</time>
      </trkpt>
      <trkpt lat="47.84156" lon="6.98462">
        <ele>973.8</ele>
        <time>2023-05-21T08:53:32Z</time>
      </trkpt>
      <trkpt lat="47.84156" lon="6.98476">
        <ele>971.8</ele>
        <time>2023-05-21T08:53:40Z</time>
      </trkpt>
      <trkpt lat="47.84156" lon="6.98483">
        <ele>971.6</ele>
        <time>2023-05-21T08:53:43Z</time>
      </trkpt>
      <trkpt lat="47.84159" lon="6.98544">
        <ele>974.4</ele>
        <time>2023-05-21T08:54:14Z</time>
      </trkpt>
      <trkpt lat="47.84157" lon="6.98563">
        <ele>975.5</ele>
        <time>2023-05-21T08:54:25Z</time>
      </trkpt>
      <trkpt lat="47.84155" lon="6.9857">
        <ele>975.9</ele>
        <time>2023-05-21T08:54:28Z</time>
      </trkpt>
      <trkpt lat="47.84153" lon="6.98576">
        <ele>976.1</ele>
        <time>2023-05-21T08:54:32Z</time>
      </trkpt>
      <trkpt lat="47.84144" lon="6.98591">
        <ele>976.5</ele>
        <time>2023-05-21T08:54:44Z</time>
      </trkpt>
      <trkpt lat="47.84139" lon="6.98594">
        <ele>975.5</ele>
        <time>2023-05-21T08:54:48Z</time>
      </trkpt>
      <trkpt lat="47.84132" lon="6.98604">
        <ele>976.1</ele>
        <time>2023-05-21T08:54:56Z</time>
      </trkpt>
      <trkpt lat="47.84116" lon="6.98631">
        <ele>976.4</ele>
        <time>2023-05-21T08:55:16Z</time>
      </trkpt>
      <trkpt lat="47.84103" lon="6.98662">
        <ele>975.2</ele>
        <time>2023-05-21T08:55:36Z</time>
      </trkpt>
      <trkpt lat="47.841" lon="6.98676">
        <ele>975.5</ele>
        <time>2023-05-21T08:55:44Z</time>
      </trkpt>
      <trkpt lat="47.84096" lon="6.98694">
        <ele>975.2</ele>
        <time>2023-05-21T08:55:53Z</time>
      </trkpt>
      <trkpt lat="47.84095" lon="6.98702">
        <ele>975.6</ele>
        <time>2023-05-21T08:55:57Z</time>
      </trkpt>
      <trkpt lat="47.84093" lon="6.98708">
        <ele>975.2</ele>
        <time>2023-05-21T08:56:01Z</time>
      </trkpt>
      <trkpt lat="47.8409" lon="6.98754">
        <ele>977.7</ele>
        <time>2023-05-21T08:56:27Z</time>
      </trkpt>
      <trkpt lat="47.84086" lon="6.98769">
        <ele>977.3</ele>
        <time>2023-05-21T08:56:35Z</time>
      </trkpt>
      <trkpt lat="47.84086" lon="6.98782">
        <ele>978.6</ele>
        <time>2023-05-21T08:56:43Z</time>
      </trkpt>
      <trkpt lat="47.84083" lon="6.98802">
        <ele>979.5</ele>
        <time>2023-05-21T08:56:55Z</time>
      </trkpt>
      <trkpt lat="47.84072" lon="6.98826">
        <ele>980.1</ele>
        <time>2023-05-21T08:57:10Z</time>
      </trkpt>
      <trkpt lat="47.84066" lon="6.98837">
        <ele>981</ele>
        <time>2023-05-21T08:57:18Z</time>
      </trkpt>
      <trkpt lat="47.8406" lon="6.98839">
        <ele>980.4</ele>
        <time>2023-05-21T08:57:22Z</time>
      </trkpt>
      <trkpt lat="47.84052" lon="6.98845">
        <ele>980.3</ele>
        <time>2023-05-21T08:57:29Z</time>
      </trkpt>
      <trkpt lat="47.84048" lon="6.98847">
        <ele>980.3</ele>
        <time>2023-05-21T08:57:33Z</time>
      </trkpt>
      <trkpt lat="47.84041" lon="6.98856">
        <ele>981.5</ele>
        <time>2023-05-21T08:57:40Z</time>
      </trkpt>
      <trkpt lat="47.84034" lon="6.98863">
        <ele>982.3</ele>
        <time>2023-05-21T08:58:04Z</time>
      </trkpt>
      <trkpt lat="47.84032" lon="6.98867">
        <ele>982.4</ele>
        <time>2023-05-21T08:58:15Z</time>
      </trkpt>
      <trkpt lat="47.84028" lon="6.98871">
        <ele>982.4</ele>
        <time>2023-05-21T08:59:30Z</time>
      </trkpt>
      <trkpt lat="47.84028" lon="6.98909">
        <ele>982.3</ele>
        <time>2023-05-21T09:00:10Z</time>
      </trkpt>
      <trkpt lat="47.84028" lon="6.98911">
        <ele>982.2</ele>
        <time>2023-05-21T09:00:11Z</time>
      </trkpt>
      <trkpt lat="47.84017" lon="6.98921">
        <ele>982.3</ele>
        <time>2023-05-21T09:00:27Z</time>
      </trkpt>
      <trkpt lat="47.83995" lon="6.98927">
        <ele>983</ele>
        <time>2023-05-21T09:00:47Z</time>
      </trkpt>
      <trkpt lat="47.83961" lon="6.98934">
        <ele>985</ele>
        <time>2023-05-21T09:01:20Z</time>
      </trkpt>
      <trkpt lat="47.83941" lon="6.9894">
        <ele>986.1</ele>
        <time>2023-05-21T09:01:40Z</time>
      </trkpt>
      <trkpt lat="47.83903" lon="6.98937">
        <ele>988.3</ele>
        <time>2023-05-21T09:02:13Z</time>
      </trkpt>
      <trkpt lat="47.8389" lon="6.98939">
        <ele>989.1</ele>
        <time>2023-05-21T09:02:25Z</time>
      </trkpt>
      <trkpt lat="47.83871" lon="6.9895">
        <ele>991.8</ele>
        <time>2023-05-21T09:02:44Z</time>
      </trkpt>
      <trkpt lat="47.83867" lon="6.98954">
        <ele>992.3</ele>
        <time>2023-05-21T09:02:48Z</time>
      </trkpt>
      <trkpt lat="47.83861" lon="6.98961">
        <ele>992.8</ele>
        <time>2023-05-21T09:02:55Z</time>
      </trkpt>
      <trkpt lat="47.83858" lon="6.98964">
        <ele>993</ele>
        <time>2023-05-21T09:02:59Z</time>
      </trkpt>
      <trkpt lat="47.83831" lon="6.98978">
        <ele>995.3</ele>
        <time>2023-05-21T09:03:26Z</time>
      </trkpt>
      <trkpt lat="47.83821" lon="6.98976">
        <ele>995.9</ele>
        <time>2023-05-21T09:03:34Z</time>
      </trkpt>
      <trkpt lat="47.8381" lon="6.9897">
        <ele>997.1</ele>
        <time>2023-05-21T09:03:56Z</time>
      </trkpt>
      <trkpt lat="47.838" lon="6.98962">
        <ele>998.5</ele>
        <time>2023-05-21T09:04:06Z</time>
      </trkpt>
      <trkpt lat="47.83786" lon="6.98956">
        <ele>999.3</ele>
        <time>2023-05-21T09:04:19Z</time>
      </trkpt>
      <trkpt lat="47.83772" lon="6.98946">
        <ele>1000.8</ele>
        <time>2023-05-21T09:04:35Z</time>
      </trkpt>
      <trkpt lat="47.83747" lon="6.98939">
        <ele>1002</ele>
        <time>2023-05-21T09:04:57Z</time>
      </trkpt>
      <trkpt lat="47.8373" lon="6.98943">
        <ele>1004</ele>
        <time>2023-05-21T09:05:17Z</time>
      </trkpt>
      <trkpt lat="47.83697" lon="6.98958">
        <ele>1006.3</ele>
        <time>2023-05-21T09:05:49Z</time>
      </trkpt>
      <trkpt lat="47.83676" lon="6.98969">
        <ele>1008.6</ele>
        <time>2023-05-21T09:06:10Z</time>
      </trkpt>
      <trkpt lat="47.83672" lon="6.98972">
        <ele>1009.1</ele>
        <time>2023-05-21T09:06:14Z</time>
      </trkpt>
      <trkpt lat="47.83668" lon="6.98974">
        <ele>1009.6</ele>
        <time>2023-05-21T09:06:28Z</time>
      </trkpt>
      <trkpt lat="47.83662" lon="6.98979">
        <ele>1010</ele>
        <time>2023-05-21T09:06:33Z</time>
      </trkpt>
      <trkpt lat="47.83649" lon="6.99">
        <ele>1010.8</ele>
        <time>2023-05-21T09:06:48Z</time>
      </trkpt>
      <trkpt lat="47.83647" lon="6.99006">
        <ele>1011</ele>
        <time>2023-05-21T09:06:51Z</time>
      </trkpt>
      <trkpt lat="47.8363" lon="6.9905">
        <ele>1014.3</ele>
        <time>2023-05-21T09:07:23Z</time>
      </trkpt>
      <trkpt lat="47.83622" lon="6.99068">
        <ele>1015.1</ele>
        <time>2023-05-21T09:07:37Z</time>
      </trkpt>
      <trkpt lat="47.83615" lon="6.99078">
        <ele>1015.7</ele>
        <time>2023-05-21T09:07:45Z</time>
      </trkpt>
      <trkpt lat="47.83594" lon="6.99098">
        <ele>1017.8</ele>
        <time>2023-05-21T09:08:08Z</time>
      </trkpt>
      <trkpt lat="47.83591" lon="6.99102">
        <ele>1018.1</ele>
        <time>2023-05-21T09:08:12Z</time>
      </trkpt>
      <trkpt lat="47.83581" lon="6.9911">
        <ele>1019.5</ele>
        <time>2023-05-21T09:08:23Z</time>
      </trkpt>
      <trkpt lat="47.83577" lon="6.99115">
        <ele>1019.7</ele>
        <time>2023-05-21T09:08:27Z</time>
      </trkpt>
      <trkpt lat="47.83569" lon="6.99123">
        <ele>1020.3</ele>
        <time>2023-05-21T09:08:35Z</time>
      </trkpt>
      <trkpt lat="47.83565" lon="6.99124">
        <ele>1020.9</ele>
        <time>2023-05-21T09:08:39Z</time>
      </trkpt>
      <trkpt lat="47.83547" lon="6.99145">
        <ele>1022.3</ele>
        <time>2023-05-21T09:09:01Z</time>
      </trkpt>
      <trkpt lat="47.8354" lon="6.99156">
        <ele>1023.2</ele>
        <time>2023-05-21T09:09:09Z</time>
      </trkpt>
      <trkpt lat="47.83532" lon="6.99189">
        <ele>1025.3</ele>
        <time>2023-05-21T09:09:34Z</time>
      </trkpt>
      <trkpt lat="47.83527" lon="6.99217">
        <ele>1026.3</ele>
        <time>2023-05-21T09:09:52Z</time>
      </trkpt>
      <trkpt lat="47.83525" lon="6.99223">
        <ele>1026.4</ele>
        <time>2023-05-21T09:09:56Z</time>
      </trkpt>
      <trkpt lat="47.83519" lon="6.99233">
        <ele>1026.8</ele>
        <time>2023-05-21T09:10:05Z</time>
      </trkpt>
      <trkpt lat="47.8351" lon="6.99237">
        <ele>1027.7</ele>
        <time>2023-05-21T09:10:13Z</time>
      </trkpt>
      <trkpt lat="47.835" lon="6.99239">
        <ele>1028.8</ele>
        <time>2023-05-21T09:10:21Z</time>
      </trkpt>
      <trkpt lat="47.83486" lon="6.99238">
        <ele>1029.2</ele>
        <time>2023-05-21T09:10:33Z</time>
      </trkpt>
      <trkpt lat="47.83482" lon="6.9924">
        <ele>1029.1</ele>
        <time>2023-05-21T09:10:37Z</time>
      </trkpt>
      <trkpt lat="47.83478" lon="6.99243">
        <ele>1029.1</ele>
        <time>2023-05-21T09:10:41Z</time>
      </trkpt>
      <trkpt lat="47.83474" lon="6.99256">
        <ele>1029.1</ele>
        <time>2023-05-21T09:10:48Z</time>
      </trkpt>
      <trkpt lat="47.83473" lon="6.99262">
        <ele>1029.4</ele>
        <time>2023-05-21T09:10:52Z</time>
      </trkpt>
      <trkpt lat="47.83476" lon="6.99309">
        <ele>1031.7</ele>
        <time>2023-05-21T09:11:21Z</time>
      </trkpt>
      <trkpt lat="47.8347" lon="6.99363">
        <ele>1034.6</ele>
        <time>2023-05-21T09:11:52Z</time>
      </trkpt>
      <trkpt lat="47.83463" lon="6.99397">
        <ele>1036.5</ele>
        <time>2023-05-21T09:12:12Z</time>
      </trkpt>
      <trkpt lat="47.8346" lon="6.99404">
        <ele>1036.6</ele>
        <time>2023-05-21T09:12:17Z</time>
      </trkpt>
      <trkpt lat="47.83457" lon="6.99409">
        <ele>1036.8</ele>
        <time>2023-05-21T09:12:21Z</time>
      </trkpt>
      <trkpt lat="47.8345" lon="6.99416">
        <ele>1037.3</ele>
        <time>2023-05-21T09:12:29Z</time>
      </trkpt>
      <trkpt lat="47.83441" lon="6.99416">
        <ele>1038.6</ele>
        <time>2023-05-21T09:12:36Z</time>
      </trkpt>
      <trkpt lat="47.83436" lon="6.99419">
        <ele>1038.3</ele>
        <time>2023-05-21T09:12:40Z</time>
      </trkpt>
      <trkpt lat="47.83427" lon="6.9942">
        <ele>1039.3</ele>
        <time>2023-05-21T09:12:48Z</time>
      </trkpt>
      <trkpt lat="47.8341" lon="6.99427">
        <ele>1039.4</ele>
        <time>2023-05-21T09:13:05Z</time>
      </trkpt>
      <trkpt lat="47.83388" lon="6.99425">
        <ele>1043.4</ele>
        <time>2023-05-21T09:13:25Z</time>
      </trkpt>
      <trkpt lat="47.83376" lon="6.99437">
        <ele>1043.4</ele>
        <time>2023-05-21T09:13:36Z</time>
      </trkpt>
      <trkpt lat="47.83369" lon="6.99446">
        <ele>1043</ele>
        <time>2023-05-21T09:13:44Z</time>
      </trkpt>
      <trkpt lat="47.83347" lon="6.99459">
        <ele>1045.7</ele>
        <time>2023-05-21T09:14:04Z</time>
      </trkpt>
      <trkpt lat="47.83336" lon="6.9947">
        <ele>1046.7</ele>
        <time>2023-05-21T09:14:17Z</time>
      </trkpt>
      <trkpt lat="47.83332" lon="6.99477">
        <ele>1046.4</ele>
        <time>2023-05-21T09:14:22Z</time>
      </trkpt>
      <trkpt lat="47.83326" lon="6.9948">
        <ele>1046.9</ele>
        <time>2023-05-21T09:14:28Z</time>
      </trkpt>
      <trkpt lat="47.83309" lon="6.99492">
        <ele>1047.8</ele>
        <time>2023-05-21T09:14:43Z</time>
      </trkpt>
      <trkpt lat="47.833" lon="6.99495">
        <ele>1049.1</ele>
        <time>2023-05-21T09:14:52Z</time>
      </trkpt>
      <trkpt lat="47.83266" lon="6.99517">
        <ele>1051.7</ele>
        <time>2023-05-21T09:15:25Z</time>
      </trkpt>
      <trkpt lat="47.83247" lon="6.99532">
        <ele>1053.1</ele>
        <time>2023-05-21T09:15:43Z</time>
      </trkpt>
      <trkpt lat="47.83232" lon="6.99551">
        <ele>1054.5</ele>
        <time>2023-05-21T09:16:00Z</time>
      </trkpt>
      <trkpt lat="47.83228" lon="6.99557">
        <ele>1055</ele>
        <time>2023-05-21T09:16:05Z</time>
      </trkpt>
      <trkpt lat="47.83218" lon="6.9959">
        <ele>1055.7</ele>
        <time>2023-05-21T09:16:26Z</time>
      </trkpt>
      <trkpt lat="47.83208" lon="6.99608">
        <ele>1056.9</ele>
        <time>2023-05-21T09:16:38Z</time>
      </trkpt>
      <trkpt lat="47.832" lon="6.99617">
        <ele>1058</ele>
        <time>2023-05-21T09:16:48Z</time>
      </trkpt>
      <trkpt lat="47.83177" lon="6.99661">
        <ele>1059.2</ele>
        <time>2023-05-21T09:17:20Z</time>
      </trkpt>
      <trkpt lat="47.83173" lon="6.99672">
        <ele>1060.2</ele>
        <time>2023-05-21T09:17:28Z</time>
      </trkpt>
      <trkpt lat="47.83169" lon="6.99687">
        <ele>1062</ele>
        <time>2023-05-21T09:17:40Z</time>
      </trkpt>
      <trkpt lat="47.83165" lon="6.997">
        <ele>1063.9</ele>
        <time>2023-05-21T09:17:49Z</time>
      </trkpt>
      <trkpt lat="47.83168" lon="6.99712">
        <ele>1065.9</ele>
        <time>2023-05-21T09:17:59Z</time>
      </trkpt>
      <trkpt lat="47.83174" lon="6.99724">
        <ele>1066.6</ele>
        <time>2023-05-21T09:18:10Z</time>
      </trkpt>
      <trkpt lat="47.83186" lon="6.99767">
        <ele>1072.8</ele>
        <time>2023-05-21T09:18:46Z</time>
      </trkpt>
      <trkpt lat="47.83186" lon="6.99776">
        <ele>1074.9</ele>
        <time>2023-05-21T09:18:54Z</time>
      </trkpt>
      <trkpt lat="47.83184" lon="6.99782">
        <ele>1076.9</ele>
        <time>2023-05-21T09:18:59Z</time>
      </trkpt>
      <trkpt lat="47.83186" lon="6.99795">
        <ele>1077.7</ele>
        <time>2023-05-21T09:19:13Z</time>
      </trkpt>
      <trkpt lat="47.83185" lon="6.99802">
        <ele>1079.3</ele>
        <time>2023-05-21T09:19:19Z</time>
      </trkpt>
      <trkpt lat="47.83181" lon="6.99813">
        <ele>1082.2</ele>
        <time>2023-05-21T09:19:32Z</time>
      </trkpt>
      <trkpt lat="47.83175" lon="6.99829">
        <ele>1085.6</ele>
        <time>2023-05-21T09:19:50Z</time>
      </trkpt>
      <trkpt lat="47.8317" lon="6.99837">
        <ele>1087.7</ele>
        <time>2023-05-21T09:20:00Z</time>
      </trkpt>
      <trkpt lat="47.83165" lon="6.99841">
        <ele>1089.3</ele>
        <time>2023-05-21T09:20:04Z</time>
      </trkpt>
      <trkpt lat="47.83156" lon="6.99859">
        <ele>1090.4</ele>
        <time>2023-05-21T09:20:20Z</time>
      </trkpt>
      <trkpt lat="47.83151" lon="6.99863">
        <ele>1092.1</ele>
        <time>2023-05-21T09:20:27Z</time>
      </trkpt>
      <trkpt lat="47.83136" lon="6.99901">
        <ele>1095.9</ele>
        <time>2023-05-21T09:20:59Z</time>
      </trkpt>
      <trkpt lat="47.83133" lon="6.99906">
        <ele>1096.5</ele>
        <time>2023-05-21T09:21:03Z</time>
      </trkpt>
      <trkpt lat="47.83129" lon="6.9991">
        <ele>1097.6</ele>
        <time>2023-05-21T09:21:08Z</time>
      </trkpt>
      <trkpt lat="47.83117" lon="6.99935">
        <ele>1101.7</ele>
        <time>2023-05-21T09:21:26Z</time>
      </trkpt>
      <trkpt lat="47.83114" lon="6.9994">
        <ele>1102.9</ele>
        <time>2023-05-21T09:21:32Z</time>
      </trkpt>
      <trkpt lat="47.83111" lon="6.99947">
        <ele>1104.3</ele>
        <time>2023-05-21T09:21:40Z</time>
      </trkpt>
      <trkpt lat="47.83111" lon="6.99954">
        <ele>1105</ele>
        <time>2023-05-21T09:21:45Z</time>
      </trkpt>
      <trkpt lat="47.83101" lon="6.99983">
        <ele>1108.5</ele>
        <time>2023-05-21T09:22:16Z</time>
      </trkpt>
      <trkpt lat="47.83103" lon="6.99993">
        <ele>1110.6</ele>
        <time>2023-05-21T09:22:23Z</time>
      </trkpt>
      <trkpt lat="47.83098" lon="7">
        <ele>1112</ele>
        <time>2023-05-21T09:22:30Z</time>
      </trkpt>
      <trkpt lat="47.83096" lon="7.00007">
        <ele>1113.8</ele>
        <time>2023-05-21T09:22:44Z</time>
      </trkpt>
      <trkpt lat="47.83091" lon="7.00023">
        <ele>1118.2</ele>
        <time>2023-05-21T09:23:01Z</time>
      </trkpt>
      <trkpt lat="47.83094" lon="7.00029">
        <ele>1119.6</ele>
        <time>2023-05-21T09:23:08Z</time>
      </trkpt>
      <trkpt lat="47.83094" lon="7.00036">
        <ele>1121.4</ele>
        <time>2023-05-21T09:23:20Z</time>
      </trkpt>
      <trkpt lat="47.83098" lon="7.00045">
        <ele>1122.9</ele>
        <time>2023-05-21T09:23:31Z</time>
      </trkpt>
      <trkpt lat="47.83099" lon="7.00052">
        <ele>1124.1</ele>
        <time>2023-05-21T09:23:39Z</time>
      </trkpt>
      <trkpt lat="47.83097" lon="7.00058">
        <ele>1125.8</ele>
        <time>2023-05-21T09:23:57Z</time>
      </trkpt>
      <trkpt lat="47.83097" lon="7.00059">
        <ele>1125.8</ele>
        <time>2023-05-21T09:24:24Z</time>
      </trkpt>
      <trkpt lat="47.83098" lon="7.00069">
        <ele>1126.1</ele>
        <time>2023-05-21T09:24:42Z</time>
      </trkpt>
      <trkpt lat="47.83096" lon="7.00099">
        <ele>1128</ele>
        <time>2023-05-21T09:25:01Z</time>
      </trkpt>
      <trkpt lat="47.83087" lon="7.00136">
        <ele>1132.3</ele>
        <time>2023-05-21T09:25:23Z</time>
      </trkpt>
      <trkpt lat="47.83082" lon="7.00135">
        <ele>1135.9</ele>
        <time>2023-05-21T09:25:29Z</time>
      </trkpt>
      <trkpt lat="47.83083" lon="7.00157">
        <ele>1134.5</ele>
        <time>2023-05-21T09:25:53Z</time>
      </trkpt>
      <trkpt lat="47.83078" lon="7.00167">
        <ele>1136.9</ele>
        <time>2023-05-21T09:26:05Z</time>
      </trkpt>
      <trkpt lat="47.83073" lon="7.0018">
        <ele>1139.7</ele>
        <time>2023-05-21T09:26:17Z</time>
      </trkpt>
      <trkpt lat="47.83069" lon="7.00184">
        <ele>1141.7</ele>
        <time>2023-05-21T09:26:21Z</time>
      </trkpt>
      <trkpt lat="47.83065" lon="7.00191">
        <ele>1143.6</ele>
        <time>2023-05-21T09:26:29Z</time>
      </trkpt>
      <trkpt lat="47.83062" lon="7.00181">
        <ele>1145.2</ele>
        <time>2023-05-21T09:26:39Z</time>
      </trkpt>
      <trkpt lat="47.83053" lon="7.00144">
        <ele>1151.4</ele>
        <time>2023-05-21T09:27:07Z</time>
      </trkpt>
      <trkpt lat="47.83051" lon="7.00116">
        <ele>1152.5</ele>
        <time>2023-05-21T09:27:29Z</time>
      </trkpt>
      <trkpt lat="47.83044" lon="7.00126">
        <ele>1153.1</ele>
        <time>2023-05-21T09:27:45Z</time>
      </trkpt>
      <trkpt lat="47.83037" lon="7.00137">
        <ele>1156</ele>
        <time>2023-05-21T09:27:58Z</time>
      </trkpt>
      <trkpt lat="47.83033" lon="7.00132">
        <ele>1155.8</ele>
        <time>2023-05-21T09:28:04Z</time>
      </trkpt>
      <trkpt lat="47.83036" lon="7.00122">
        <ele>1153.1</ele>
        <time>2023-05-21T09:28:16Z</time>
      </trkpt>
      <trkpt lat="47.83035" lon="7.00115">
        <ele>1151.6</ele>
        <time>2023-05-21T09:28:26Z</time>
      </trkpt>
      <trkpt lat="47.83027" lon="7.00159">
        <ele>1159.1</ele>
        <time>2023-05-21T09:31:41Z</time>
      </trkpt>
      <trkpt lat="47.83026" lon="7.00161">
        <ele>1159.3</ele>
        <time>2023-05-21T09:31:42Z</time>
      </trkpt>
      <trkpt lat="47.83023" lon="7.00171">
        <ele>1159.7</ele>
        <time>2023-05-21T09:31:49Z</time>
      </trkpt>
      <trkpt lat="47.83017" lon="7.00181">
        <ele>1160.4</ele>
        <time>2023-05-21T09:31:57Z</time>
      </trkpt>
      <trkpt lat="47.83016" lon="7.00187">
        <ele>1160.4</ele>
        <time>2023-05-21T09:32:02Z</time>
      </trkpt>
      <trkpt lat="47.83012" lon="7.00193">
        <ele>1160.9</ele>
        <time>2023-05-21T09:32:07Z</time>
      </trkpt>
      <trkpt lat="47.83005" lon="7.00202">
        <ele>1161.8</ele>
        <time>2023-05-21T09:32:16Z</time>
      </trkpt>
      <trkpt lat="47.83001" lon="7.00208">
        <ele>1162.3</ele>
        <time>2023-05-21T09:32:20Z</time>
      </trkpt>
      <trkpt lat="47.82999" lon="7.00213">
        <ele>1162.2</ele>
        <time>2023-05-21T09:32:24Z</time>
      </trkpt>
      <trkpt lat="47.82989" lon="7.00229">
        <ele>1161</ele>
        <time>2023-05-21T09:32:36Z</time>
      </trkpt>
      <trkpt lat="47.82983" lon="7.0024">
        <ele>1160.7</ele>
        <time>2023-05-21T09:32:43Z</time>
      </trkpt>
      <trkpt lat="47.82975" lon="7.00254">
        <ele>1160.9</ele>
        <time>2023-05-21T09:32:56Z</time>
      </trkpt>
      <trkpt lat="47.82955" lon="7.00302">
        <ele>1162.7</ele>
        <time>2023-05-21T09:33:27Z</time>
      </trkpt>
      <trkpt lat="47.82951" lon="7.00307">
        <ele>1163.3</ele>
        <time>2023-05-21T09:33:31Z</time>
      </trkpt>
      <trkpt lat="47.82933" lon="7.00354">
        <ele>1166.3</ele>
        <time>2023-05-21T09:34:05Z</time>
      </trkpt>
      <trkpt lat="47.82915" lon="7.00399">
        <ele>1170.8</ele>
        <time>2023-05-21T09:34:39Z</time>
      </trkpt>
      <trkpt lat="47.82912" lon="7.00412">
        <ele>1172</ele>
        <time>2023-05-21T09:34:47Z</time>
      </trkpt>
      <trkpt lat="47.82908" lon="7.00423">
        <ele>1173.2</ele>
        <time>2023-05-21T09:34:55Z</time>
      </trkpt>
      <trkpt lat="47.82904" lon="7.00439">
        <ele>1175.3</ele>
        <time>2023-05-21T09:35:09Z</time>
      </trkpt>
      <trkpt lat="47.82899" lon="7.00448">
        <ele>1176.8</ele>
        <time>2023-05-21T09:35:21Z</time>
      </trkpt>
      <trkpt lat="47.82895" lon="7.00449">
        <ele>1177.4</ele>
        <time>2023-05-21T09:35:27Z</time>
      </trkpt>
      <trkpt lat="47.82891" lon="7.00456">
        <ele>1178.2</ele>
        <time>2023-05-21T09:35:39Z</time>
      </trkpt>
      <trkpt lat="47.82882" lon="7.00464">
        <ele>1178.2</ele>
        <time>2023-05-21T09:36:13Z</time>
      </trkpt>
      <trkpt lat="47.82878" lon="7.00468">
        <ele>1178.1</ele>
        <time>2023-05-21T09:36:17Z</time>
      </trkpt>
      <trkpt lat="47.82869" lon="7.00475">
        <ele>1177.4</ele>
        <time>2023-05-21T09:36:24Z</time>
      </trkpt>
      <trkpt lat="47.82836" lon="7.00507">
        <ele>1172.7</ele>
        <time>2023-05-21T09:36:56Z</time>
      </trkpt>
      <trkpt lat="47.82832" lon="7.00511">
        <ele>1172.2</ele>
        <time>2023-05-21T09:36:59Z</time>
      </trkpt>
      <trkpt lat="47.82807" lon="7.00535">
        <ele>1169.2</ele>
        <time>2023-05-21T09:37:21Z</time>
      </trkpt>
      <trkpt lat="47.828" lon="7.00545">
        <ele>1168.5</ele>
        <time>2023-05-21T09:37:29Z</time>
      </trkpt>
      <trkpt lat="47.82796" lon="7.00549">
        <ele>1168.3</ele>
        <time>2023-05-21T09:37:33Z</time>
      </trkpt>
      <trkpt lat="47.82779" lon="7.00561">
        <ele>1168.3</ele>
        <time>2023-05-21T09:37:47Z</time>
      </trkpt>
      <trkpt lat="47.82748" lon="7.0059">
        <ele>1168.3</ele>
        <time>2023-05-21T09:38:15Z</time>
      </trkpt>
      <trkpt lat="47.82744" lon="7.00592">
        <ele>1168.1</ele>
        <time>2023-05-21T09:38:19Z</time>
      </trkpt>
      <trkpt lat="47.82737" lon="7.00601">
        <ele>1167.4</ele>
        <time>2023-05-21T09:38:26Z</time>
      </trkpt>
      <trkpt lat="47.82733" lon="7.00602">
        <ele>1167.4</ele>
        <time>2023-05-21T09:38:30Z</time>
      </trkpt>
      <trkpt lat="47.82728" lon="7.00607">
        <ele>1167.1</ele>
        <time>2023-05-21T09:38:35Z</time>
      </trkpt>
      <trkpt lat="47.82695" lon="7.00623">
        <ele>1164.3</ele>
        <time>2023-05-21T09:39:05Z</time>
      </trkpt>
      <trkpt lat="47.82681" lon="7.00627">
        <ele>1163.3</ele>
        <time>2023-05-21T09:39:18Z</time>
      </trkpt>
      <trkpt lat="47.82674" lon="7.0063">
        <ele>1162.8</ele>
        <time>2023-05-21T09:39:28Z</time>
      </trkpt>
      <trkpt lat="47.82659" lon="7.0065">
        <ele>1160.5</ele>
        <time>2023-05-21T09:39:45Z</time>
      </trkpt>
      <trkpt lat="47.82655" lon="7.00653">
        <ele>1160.2</ele>
        <time>2023-05-21T09:39:49Z</time>
      </trkpt>
      <trkpt lat="47.82645" lon="7.00667">
        <ele>1158.7</ele>
        <time>2023-05-21T09:40:00Z</time>
      </trkpt>
      <trkpt lat="47.82641" lon="7.0067">
        <ele>1158.4</ele>
        <time>2023-05-21T09:40:04Z</time>
      </trkpt>
      <trkpt lat="47.82614" lon="7.00706">
        <ele>1154.7</ele>
        <time>2023-05-21T09:40:37Z</time>
      </trkpt>
      <trkpt lat="47.82583" lon="7.00741">
        <ele>1152</ele>
        <time>2023-05-21T09:41:07Z</time>
      </trkpt>
      <trkpt lat="47.82557" lon="7.00784">
        <ele>1150.4</ele>
        <time>2023-05-21T09:41:39Z</time>
      </trkpt>
      <trkpt lat="47.82531" lon="7.00818">
        <ele>1148.6</ele>
        <time>2023-05-21T09:42:07Z</time>
      </trkpt>
      <trkpt lat="47.82527" lon="7.00822">
        <ele>1148.3</ele>
        <time>2023-05-21T09:42:11Z</time>
      </trkpt>
      <trkpt lat="47.82495" lon="7.00855">
        <ele>1146.6</ele>
        <time>2023-05-21T09:42:43Z</time>
      </trkpt>
      <trkpt lat="47.82487" lon="7.00863">
        <ele>1146.3</ele>
        <time>2023-05-21T09:42:51Z</time>
      </trkpt>
      <trkpt lat="47.8246" lon="7.00904">
        <ele>1144.1</ele>
        <time>2023-05-21T09:43:22Z</time>
      </trkpt>
      <trkpt lat="47.8244" lon="7.00935">
        <ele>1142.1</ele>
        <time>2023-05-21T09:43:44Z</time>
      </trkpt>
      <trkpt lat="47.82435" lon="7.00924">
        <ele>1143.3</ele>
        <time>2023-05-21T09:44:07Z</time>
      </trkpt>
      <trkpt lat="47.82432" lon="7.00912">
        <ele>1144.3</ele>
        <time>2023-05-21T09:44:19Z</time>
      </trkpt>
      <trkpt lat="47.82429" lon="7.00904">
        <ele>1144.9</ele>
        <time>2023-05-21T09:44:25Z</time>
      </trkpt>
      <trkpt lat="47.82424" lon="7.00888">
        <ele>1146.1</ele>
        <time>2023-05-21T09:44:37Z</time>
      </trkpt>
      <trkpt lat="47.82415" lon="7.00873">
        <ele>1147.3</ele>
        <time>2023-05-21T09:44:50Z</time>
      </trkpt>
      <trkpt lat="47.82415" lon="7.00851">
        <ele>1148.8</ele>
        <time>2023-05-21T09:45:03Z</time>
      </trkpt>
      <trkpt lat="47.82415" lon="7.00836">
        <ele>1149.9</ele>
        <time>2023-05-21T09:45:12Z</time>
      </trkpt>
      <trkpt lat="47.82414" lon="7.00814">
        <ele>1150.8</ele>
        <time>2023-05-21T09:45:26Z</time>
      </trkpt>
      <trkpt lat="47.82415" lon="7.00808">
        <ele>1151</ele>
        <time>2023-05-21T09:45:30Z</time>
      </trkpt>
      <trkpt lat="47.82416" lon="7.00793">
        <ele>1151</ele>
        <time>2023-05-21T09:45:39Z</time>
      </trkpt>
      <trkpt lat="47.82417" lon="7.00786">
        <ele>1151</ele>
        <time>2023-05-21T09:45:43Z</time>
      </trkpt>
      <trkpt lat="47.82417" lon="7.00778">
        <ele>1151</ele>
        <time>2023-05-21T09:45:47Z</time>
      </trkpt>
      <trkpt lat="47.82414" lon="7.00771">
        <ele>1150.5</ele>
        <time>2023-05-21T09:45:55Z</time>
      </trkpt>
      <trkpt lat="47.8241" lon="7.00773">
        <ele>1150.7</ele>
        <time>2023-05-21T09:46:01Z</time>
      </trkpt>
      <trkpt lat="47.82399" lon="7.00778">
        <ele>1151</ele>
        <time>2023-05-21T09:46:09Z</time>
      </trkpt>
      <trkpt lat="47.8237" lon="7.00794">
        <ele>1152.9</ele>
        <time>2023-05-21T09:46:39Z</time>
      </trkpt>
      <trkpt lat="47.82363" lon="7.00795">
        <ele>1153.5</ele>
        <time>2023-05-21T09:46:46Z</time>
      </trkpt>
      <trkpt lat="47.82358" lon="7.00797">
        <ele>1153.7</ele>
        <time>2023-05-21T09:46:51Z</time>
      </trkpt>
      <trkpt lat="47.82353" lon="7.00801">
        <ele>1153.8</ele>
        <time>2023-05-21T09:46:57Z</time>
      </trkpt>
      <trkpt lat="47.82348" lon="7.00805">
        <ele>1154</ele>
        <time>2023-05-21T09:47:01Z</time>
      </trkpt>
      <trkpt lat="47.82343" lon="7.00809">
        <ele>1154</ele>
        <time>2023-05-21T09:47:05Z</time>
      </trkpt>
      <trkpt lat="47.8233" lon="7.00817">
        <ele>1154.3</ele>
        <time>2023-05-21T09:47:18Z</time>
      </trkpt>
      <trkpt lat="47.82322" lon="7.00823">
        <ele>1155.3</ele>
        <time>2023-05-21T09:47:27Z</time>
      </trkpt>
      <trkpt lat="47.82305" lon="7.0083">
        <ele>1157.9</ele>
        <time>2023-05-21T09:47:48Z</time>
      </trkpt>
      <trkpt lat="47.82302" lon="7.00834">
        <ele>1158.7</ele>
        <time>2023-05-21T09:47:52Z</time>
      </trkpt>
      <trkpt lat="47.82293" lon="7.00839">
        <ele>1160.6</ele>
        <time>2023-05-21T09:48:03Z</time>
      </trkpt>
      <trkpt lat="47.82284" lon="7.00842">
        <ele>1162.4</ele>
        <time>2023-05-21T09:48:16Z</time>
      </trkpt>
      <trkpt lat="47.82277" lon="7.00849">
        <ele>1164.3</ele>
        <time>2023-05-21T09:48:28Z</time>
      </trkpt>
      <trkpt lat="47.82252" lon="7.00862">
        <ele>1168.7</ele>
        <time>2023-05-21T09:49:00Z</time>
      </trkpt>
      <trkpt lat="47.82222" lon="7.00878">
        <ele>1174</ele>
        <time>2023-05-21T09:49:32Z</time>
      </trkpt>
      <trkpt lat="47.82193" lon="7.00892">
        <ele>1180.3</ele>
        <time>2023-05-21T09:50:05Z</time>
      </trkpt>
      <trkpt lat="47.82188" lon="7.00894">
        <ele>1181.1</ele>
        <time>2023-05-21T09:50:13Z</time>
      </trkpt>
      <trkpt lat="47.82183" lon="7.00899">
        <ele>1182</ele>
        <time>2023-05-21T09:50:18Z</time>
      </trkpt>
      <trkpt lat="47.82176" lon="7.00899">
        <ele>1183</ele>
        <time>2023-05-21T09:50:33Z</time>
      </trkpt>
      <trkpt lat="47.82165" lon="7.00904">
        <ele>1184.7</ele>
        <time>2023-05-21T09:50:46Z</time>
      </trkpt>
      <trkpt lat="47.8216" lon="7.00905">
        <ele>1185.2</ele>
        <time>2023-05-21T09:50:50Z</time>
      </trkpt>
      <trkpt lat="47.82128" lon="7.00916">
        <ele>1188.7</ele>
        <time>2023-05-21T09:51:21Z</time>
      </trkpt>
      <trkpt lat="47.82096" lon="7.00929">
        <ele>1190.2</ele>
        <time>2023-05-21T09:51:54Z</time>
      </trkpt>
      <trkpt lat="47.82092" lon="7.0093">
        <ele>1190.1</ele>
        <time>2023-05-21T09:52:43Z</time>
      </trkpt>
      <trkpt lat="47.82067" lon="7.00913">
        <ele>1189.4</ele>
        <time>2023-05-21T09:56:42Z</time>
      </trkpt>
      <trkpt lat="47.82046" lon="7.00898">
        <ele>1189</ele>
        <time>2023-05-21T09:57:04Z</time>
      </trkpt>
      <trkpt lat="47.82041" lon="7.00895">
        <ele>1188.9</ele>
        <time>2023-05-21T09:57:09Z</time>
      </trkpt>
      <trkpt lat="47.82036" lon="7.00892">
        <ele>1188.9</ele>
        <time>2023-05-21T09:57:13Z</time>
      </trkpt>
      <trkpt lat="47.82033" lon="7.00888">
        <ele>1189.1</ele>
        <time>2023-05-21T09:57:21Z</time>
      </trkpt>
      <trkpt lat="47.8203" lon="7.00891">
        <ele>1188.8</ele>
        <time>2023-05-21T09:57:39Z</time>
      </trkpt>
      <trkpt lat="47.82023" lon="7.00895">
        <ele>1187.2</ele>
        <time>2023-05-21T09:58:31Z</time>
      </trkpt>
      <trkpt lat="47.82015" lon="7.00898">
        <ele>1185.4</ele>
        <time>2023-05-21T09:58:41Z</time>
      </trkpt>
      <trkpt lat="47.82003" lon="7.00911">
        <ele>1182.6</ele>
        <time>2023-05-21T09:58:53Z</time>
      </trkpt>
      <trkpt lat="47.81999" lon="7.00917">
        <ele>1182</ele>
        <time>2023-05-21T09:58:57Z</time>
      </trkpt>
      <trkpt lat="47.81995" lon="7.00929">
        <ele>1181.4</ele>
        <time>2023-05-21T09:59:05Z</time>
      </trkpt>
      <trkpt lat="47.81996" lon="7.00942">
        <ele>1180.9</ele>
        <time>2023-05-21T09:59:13Z</time>
      </trkpt>
      <trkpt lat="47.81997" lon="7.00952">
        <ele>1180.4</ele>
        <time>2023-05-21T09:59:23Z</time>
      </trkpt>
      <trkpt lat="47.81997" lon="7.00966">
        <ele>1179.4</ele>
        <time>2023-05-21T09:59:31Z</time>
      </trkpt>
      <trkpt lat="47.81999" lon="7.0098">
        <ele>1178.4</ele>
        <time>2023-05-21T09:59:39Z</time>
      </trkpt>
      <trkpt lat="47.82" lon="7.00987">
        <ele>1177.9</ele>
        <time>2023-05-21T09:59:43Z</time>
      </trkpt>
      <trkpt lat="47.82" lon="7.00993">
        <ele>1177.5</ele>
        <time>2023-05-21T09:59:46Z</time>
      </trkpt>
      <trkpt lat="47.82003" lon="7.01009">
        <ele>1176.5</ele>
        <time>2023-05-21T09:59:54Z</time>
      </trkpt>
      <trkpt lat="47.82008" lon="7.01029">
        <ele>1175.2</ele>
        <time>2023-05-21T10:00:06Z</time>
      </trkpt>
      <trkpt lat="47.82009" lon="7.01039">
        <ele>1174.1</ele>
        <time>2023-05-21T10:00:13Z</time>
      </trkpt>
      <trkpt lat="47.82011" lon="7.01046">
        <ele>1173.4</ele>
        <time>2023-05-21T10:00:17Z</time>
      </trkpt>
      <trkpt lat="47.82024" lon="7.01085">
        <ele>1168.4</ele>
        <time>2023-05-21T10:00:44Z</time>
      </trkpt>
      <trkpt lat="47.82034" lon="7.01101">
        <ele>1167.1</ele>
        <time>2023-05-21T10:00:56Z</time>
      </trkpt>
      <trkpt lat="47.82036" lon="7.01107">
        <ele>1166.5</ele>
        <time>2023-05-21T10:01:00Z</time>
      </trkpt>
      <trkpt lat="47.82047" lon="7.0112">
        <ele>1165.3</ele>
        <time>2023-05-21T10:01:12Z</time>
      </trkpt>
      <trkpt lat="47.82057" lon="7.01135">
        <ele>1163.9</ele>
        <time>2023-05-21T10:01:24Z</time>
      </trkpt>
      <trkpt lat="47.82076" lon="7.01157">
        <ele>1162.5</ele>
        <time>2023-05-21T10:01:46Z</time>
      </trkpt>
      <trkpt lat="47.82079" lon="7.01163">
        <ele>1161.9</ele>
        <time>2023-05-21T10:01:52Z</time>
      </trkpt>
      <trkpt lat="47.82081" lon="7.01169">
        <ele>1161</ele>
        <time>2023-05-21T10:01:55Z</time>
      </trkpt>
      <trkpt lat="47.82112" lon="7.01204">
        <ele>1156.4</ele>
        <time>2023-05-21T10:02:29Z</time>
      </trkpt>
      <trkpt lat="47.82116" lon="7.01208">
        <ele>1155.9</ele>
        <time>2023-05-21T10:02:32Z</time>
      </trkpt>
      <trkpt lat="47.82124" lon="7.01215">
        <ele>1155.3</ele>
        <time>2023-05-21T10:02:40Z</time>
      </trkpt>
      <trkpt lat="47.82133" lon="7.01224">
        <ele>1154.5</ele>
        <time>2023-05-21T10:02:48Z</time>
      </trkpt>
      <trkpt lat="47.82143" lon="7.01242">
        <ele>1152</ele>
        <time>2023-05-21T10:03:00Z</time>
      </trkpt>
      <trkpt lat="47.82155" lon="7.01253">
        <ele>1150.5</ele>
        <time>2023-05-21T10:03:12Z</time>
      </trkpt>
      <trkpt lat="47.82158" lon="7.01259">
        <ele>1149.6</ele>
        <time>2023-05-21T10:03:16Z</time>
      </trkpt>
      <trkpt lat="47.82162" lon="7.01263">
        <ele>1149.2</ele>
        <time>2023-05-21T10:03:21Z</time>
      </trkpt>
      <trkpt lat="47.82165" lon="7.01268">
        <ele>1148.6</ele>
        <time>2023-05-21T10:03:25Z</time>
      </trkpt>
      <trkpt lat="47.82173" lon="7.01277">
        <ele>1147.1</ele>
        <time>2023-05-21T10:03:34Z</time>
      </trkpt>
      <trkpt lat="47.82176" lon="7.01282">
        <ele>1146.1</ele>
        <time>2023-05-21T10:03:38Z</time>
      </trkpt>
      <trkpt lat="47.82178" lon="7.01289">
        <ele>1144.7</ele>
        <time>2023-05-21T10:03:43Z</time>
      </trkpt>
      <trkpt lat="47.82193" lon="7.01314">
        <ele>1140.1</ele>
        <time>2023-05-21T10:04:04Z</time>
      </trkpt>
      <trkpt lat="47.82195" lon="7.01321">
        <ele>1138.6</ele>
        <time>2023-05-21T10:04:09Z</time>
      </trkpt>
      <trkpt lat="47.8221" lon="7.01345">
        <ele>1133.4</ele>
        <time>2023-05-21T10:04:31Z</time>
      </trkpt>
      <trkpt lat="47.8222" lon="7.01374">
        <ele>1128.6</ele>
        <time>2023-05-21T10:04:52Z</time>
      </trkpt>
      <trkpt lat="47.82223" lon="7.0143">
        <ele>1120.1</ele>
        <time>2023-05-21T10:05:24Z</time>
      </trkpt>
      <trkpt lat="47.82228" lon="7.01458">
        <ele>1116.3</ele>
        <time>2023-05-21T10:05:40Z</time>
      </trkpt>
      <trkpt lat="47.8223" lon="7.01465">
        <ele>1115.5</ele>
        <time>2023-05-21T10:05:44Z</time>
      </trkpt>
      <trkpt lat="47.82233" lon="7.01478">
        <ele>1114.2</ele>
        <time>2023-05-21T10:05:52Z</time>
      </trkpt>
      <trkpt lat="47.82231" lon="7.01536">
        <ele>1110.2</ele>
        <time>2023-05-21T10:06:24Z</time>
      </trkpt>
      <trkpt lat="47.82232" lon="7.01597">
        <ele>1108.3</ele>
        <time>2023-05-21T10:06:55Z</time>
      </trkpt>
      <trkpt lat="47.82232" lon="7.01613">
        <ele>1108</ele>
        <time>2023-05-21T10:07:03Z</time>
      </trkpt>
      <trkpt lat="47.82232" lon="7.01673">
        <ele>1108.5</ele>
        <time>2023-05-21T10:07:34Z</time>
      </trkpt>
      <trkpt lat="47.82234" lon="7.0173">
        <ele>1108.2</ele>
        <time>2023-05-21T10:08:07Z</time>
      </trkpt>
      <trkpt lat="47.82235" lon="7.0174">
        <ele>1108.3</ele>
        <time>2023-05-21T10:08:15Z</time>
      </trkpt>
      <trkpt lat="47.8224" lon="7.01768">
        <ele>1108.5</ele>
        <time>2023-05-21T10:08:30Z</time>
      </trkpt>
      <trkpt lat="47.82241" lon="7.01774">
        <ele>1108.6</ele>
        <time>2023-05-21T10:08:34Z</time>
      </trkpt>
      <trkpt lat="47.82246" lon="7.01794">
        <ele>1108.3</ele>
        <time>2023-05-21T10:08:46Z</time>
      </trkpt>
      <trkpt lat="47.82246" lon="7.01808">
        <ele>1107.8</ele>
        <time>2023-05-21T10:08:53Z</time>
      </trkpt>
      <trkpt lat="47.82252" lon="7.01845">
        <ele>1106.5</ele>
        <time>2023-05-21T10:09:13Z</time>
      </trkpt>
      <trkpt lat="47.82253" lon="7.01853">
        <ele>1106.3</ele>
        <time>2023-05-21T10:09:17Z</time>
      </trkpt>
      <trkpt lat="47.82256" lon="7.01876">
        <ele>1105.9</ele>
        <time>2023-05-21T10:09:29Z</time>
      </trkpt>
      <trkpt lat="47.82256" lon="7.01884">
        <ele>1105.8</ele>
        <time>2023-05-21T10:09:33Z</time>
      </trkpt>
      <trkpt lat="47.82258" lon="7.01906">
        <ele>1105.3</ele>
        <time>2023-05-21T10:09:44Z</time>
      </trkpt>
      <trkpt lat="47.8226" lon="7.01913">
        <ele>1105.1</ele>
        <time>2023-05-21T10:09:48Z</time>
      </trkpt>
      <trkpt lat="47.82264" lon="7.01939">
        <ele>1104.2</ele>
        <time>2023-05-21T10:10:03Z</time>
      </trkpt>
      <trkpt lat="47.82269" lon="7.01942">
        <ele>1104.1</ele>
        <time>2023-05-21T10:10:11Z</time>
      </trkpt>
      <trkpt lat="47.82267" lon="7.0195">
        <ele>1103.9</ele>
        <time>2023-05-21T10:10:16Z</time>
      </trkpt>
      <trkpt lat="47.82271" lon="7.01979">
        <ele>1103.7</ele>
        <time>2023-05-21T10:10:32Z</time>
      </trkpt>
      <trkpt lat="47.82274" lon="7.01986">
        <ele>1103.8</ele>
        <time>2023-05-21T10:10:36Z</time>
      </trkpt>
      <trkpt lat="47.82277" lon="7.01991">
        <ele>1104</ele>
        <time>2023-05-21T10:10:40Z</time>
      </trkpt>
      <trkpt lat="47.82273" lon="7.01997">
        <ele>1103.7</ele>
        <time>2023-05-21T10:10:48Z</time>
      </trkpt>
      <trkpt lat="47.82252" lon="7.02017">
        <ele>1102.1</ele>
        <time>2023-05-21T10:11:09Z</time>
      </trkpt>
      <trkpt lat="47.82236" lon="7.02028">
        <ele>1100</ele>
        <time>2023-05-21T10:11:25Z</time>
      </trkpt>
      <trkpt lat="47.82228" lon="7.02036">
        <ele>1098.5</ele>
        <time>2023-05-21T10:11:33Z</time>
      </trkpt>
      <trkpt lat="47.82225" lon="7.02041">
        <ele>1097.9</ele>
        <time>2023-05-21T10:11:37Z</time>
      </trkpt>
      <trkpt lat="47.82205" lon="7.02093">
        <ele>1093.9</ele>
        <time>2023-05-21T10:12:09Z</time>
      </trkpt>
      <trkpt lat="47.82183" lon="7.02145">
        <ele>1090.2</ele>
        <time>2023-05-21T10:12:41Z</time>
      </trkpt>
      <trkpt lat="47.82164" lon="7.02196">
        <ele>1086.4</ele>
        <time>2023-05-21T10:13:13Z</time>
      </trkpt>
      <trkpt lat="47.82157" lon="7.02216">
        <ele>1085.3</ele>
        <time>2023-05-21T10:13:25Z</time>
      </trkpt>
      <trkpt lat="47.82132" lon="7.02261">
        <ele>1082.5</ele>
        <time>2023-05-21T10:13:56Z</time>
      </trkpt>
      <trkpt lat="47.82128" lon="7.02265">
        <ele>1081.9</ele>
        <time>2023-05-21T10:14:00Z</time>
      </trkpt>
      <trkpt lat="47.82104" lon="7.02311">
        <ele>1081</ele>
        <time>2023-05-21T10:14:31Z</time>
      </trkpt>
      <trkpt lat="47.82087" lon="7.02339">
        <ele>1080.9</ele>
        <time>2023-05-21T10:14:50Z</time>
      </trkpt>
      <trkpt lat="47.82082" lon="7.02343">
        <ele>1080.3</ele>
        <time>2023-05-21T10:14:55Z</time>
      </trkpt>
      <trkpt lat="47.82073" lon="7.0236">
        <ele>1080.5</ele>
        <time>2023-05-21T10:15:08Z</time>
      </trkpt>
      <trkpt lat="47.82061" lon="7.0237">
        <ele>1078</ele>
        <time>2023-05-21T10:15:21Z</time>
      </trkpt>
      <trkpt lat="47.82033" lon="7.0241">
        <ele>1075.3</ele>
        <time>2023-05-21T10:15:50Z</time>
      </trkpt>
      <trkpt lat="47.81996" lon="7.02434">
        <ele>1073.4</ele>
        <time>2023-05-21T10:16:21Z</time>
      </trkpt>
      <trkpt lat="47.8196" lon="7.02454">
        <ele>1069.5</ele>
        <time>2023-05-21T10:16:53Z</time>
      </trkpt>
      <trkpt lat="47.81928" lon="7.02474">
        <ele>1067.5</ele>
        <time>2023-05-21T10:17:20Z</time>
      </trkpt>
      <trkpt lat="47.81919" lon="7.02477">
        <ele>1066.6</ele>
        <time>2023-05-21T10:17:28Z</time>
      </trkpt>
      <trkpt lat="47.81905" lon="7.02488">
        <ele>1068</ele>
        <time>2023-05-21T10:17:38Z</time>
      </trkpt>
      <trkpt lat="47.81903" lon="7.02481">
        <ele>1065.9</ele>
        <time>2023-05-21T10:17:42Z</time>
      </trkpt>
      <trkpt lat="47.81897" lon="7.0248">
        <ele>1065</ele>
        <time>2023-05-21T10:17:51Z</time>
      </trkpt>
      <trkpt lat="47.81893" lon="7.0248">
        <ele>1064.6</ele>
        <time>2023-05-21T10:17:55Z</time>
      </trkpt>
      <trkpt lat="47.81888" lon="7.02478">
        <ele>1063.6</ele>
        <time>2023-05-21T10:18:00Z</time>
      </trkpt>
      <trkpt lat="47.81878" lon="7.02479">
        <ele>1063.6</ele>
        <time>2023-05-21T10:18:12Z</time>
      </trkpt>
      <trkpt lat="47.81872" lon="7.02479">
        <ele>1063.3</ele>
        <time>2023-05-21T10:18:15Z</time>
      </trkpt>
      <trkpt lat="47.81867" lon="7.02478">
        <ele>1062.9</ele>
        <time>2023-05-21T10:18:20Z</time>
      </trkpt>
      <trkpt lat="47.81847" lon="7.02472">
        <ele>1059.9</ele>
        <time>2023-05-21T10:18:34Z</time>
      </trkpt>
      <trkpt lat="47.81843" lon="7.02468">
        <ele>1058.3</ele>
        <time>2023-05-21T10:18:39Z</time>
      </trkpt>
      <trkpt lat="47.81833" lon="7.02468">
        <ele>1057.6</ele>
        <time>2023-05-21T10:18:47Z</time>
      </trkpt>
      <trkpt lat="47.81822" lon="7.02456">
        <ele>1052.7</ele>
        <time>2023-05-21T10:18:58Z</time>
      </trkpt>
      <trkpt lat="47.81807" lon="7.0245">
        <ele>1049.1</ele>
        <time>2023-05-21T10:19:12Z</time>
      </trkpt>
      <trkpt lat="47.81796" lon="7.02452">
        <ele>1048.3</ele>
        <time>2023-05-21T10:19:20Z</time>
      </trkpt>
      <trkpt lat="47.81785" lon="7.02454">
        <ele>1047.2</ele>
        <time>2023-05-21T10:19:31Z</time>
      </trkpt>
      <trkpt lat="47.8178" lon="7.02452">
        <ele>1045.8</ele>
        <time>2023-05-21T10:19:35Z</time>
      </trkpt>
      <trkpt lat="47.81776" lon="7.02452">
        <ele>1045</ele>
        <time>2023-05-21T10:19:39Z</time>
      </trkpt>
      <trkpt lat="47.81772" lon="7.02452">
        <ele>1044.1</ele>
        <time>2023-05-21T10:19:44Z</time>
      </trkpt>
      <trkpt lat="47.81762" lon="7.02454">
        <ele>1042.5</ele>
        <time>2023-05-21T10:19:51Z</time>
      </trkpt>
      <trkpt lat="47.81758" lon="7.02459">
        <ele>1043.1</ele>
        <time>2023-05-21T10:20:01Z</time>
      </trkpt>
      <trkpt lat="47.81755" lon="7.02464">
        <ele>1043.8</ele>
        <time>2023-05-21T10:20:04Z</time>
      </trkpt>
      <trkpt lat="47.8175" lon="7.02463">
        <ele>1042.3</ele>
        <time>2023-05-21T10:20:07Z</time>
      </trkpt>
      <trkpt lat="47.81746" lon="7.02466">
        <ele>1042.2</ele>
        <time>2023-05-21T10:20:11Z</time>
      </trkpt>
      <trkpt lat="47.81741" lon="7.02467">
        <ele>1041.2</ele>
        <time>2023-05-21T10:20:14Z</time>
      </trkpt>
      <trkpt lat="47.81736" lon="7.02466">
        <ele>1039.6</ele>
        <time>2023-05-21T10:20:18Z</time>
      </trkpt>
      <trkpt lat="47.81731" lon="7.02467">
        <ele>1038.6</ele>
        <time>2023-05-21T10:20:21Z</time>
      </trkpt>
      <trkpt lat="47.81726" lon="7.02464">
        <ele>1036.3</ele>
        <time>2023-05-21T10:20:24Z</time>
      </trkpt>
      <trkpt lat="47.81721" lon="7.02465">
        <ele>1035.4</ele>
        <time>2023-05-21T10:20:27Z</time>
      </trkpt>
      <trkpt lat="47.81707" lon="7.02476">
        <ele>1035.7</ele>
        <time>2023-05-21T10:20:37Z</time>
      </trkpt>
      <trkpt lat="47.81697" lon="7.02472">
        <ele>1032.5</ele>
        <time>2023-05-21T10:20:45Z</time>
      </trkpt>
      <trkpt lat="47.81694" lon="7.02476">
        <ele>1033</ele>
        <time>2023-05-21T10:20:51Z</time>
      </trkpt>
      <trkpt lat="47.81684" lon="7.02475">
        <ele>1030.2</ele>
        <time>2023-05-21T10:20:57Z</time>
      </trkpt>
      <trkpt lat="47.81678" lon="7.02472">
        <ele>1027.8</ele>
        <time>2023-05-21T10:21:01Z</time>
      </trkpt>
      <trkpt lat="47.81666" lon="7.02474">
        <ele>1025.3</ele>
        <time>2023-05-21T10:21:15Z</time>
      </trkpt>
      <trkpt lat="47.81662" lon="7.02479">
        <ele>1025.6</ele>
        <time>2023-05-21T10:21:19Z</time>
      </trkpt>
      <trkpt lat="47.81657" lon="7.02481">
        <ele>1024.7</ele>
        <time>2023-05-21T10:21:26Z</time>
      </trkpt>
      <trkpt lat="47.81647" lon="7.02474">
        <ele>1019.8</ele>
        <time>2023-05-21T10:21:34Z</time>
      </trkpt>
      <trkpt lat="47.81642" lon="7.02474">
        <ele>1018.4</ele>
        <time>2023-05-21T10:21:38Z</time>
      </trkpt>
      <trkpt lat="47.81638" lon="7.02475">
        <ele>1017.5</ele>
        <time>2023-05-21T10:21:43Z</time>
      </trkpt>
      <trkpt lat="47.81633" lon="7.02478">
        <ele>1016.7</ele>
        <time>2023-05-21T10:21:47Z</time>
      </trkpt>
      <trkpt lat="47.81628" lon="7.02479">
        <ele>1015.2</ele>
        <time>2023-05-21T10:21:50Z</time>
      </trkpt>
      <trkpt lat="47.81625" lon="7.02487">
        <ele>1016.2</ele>
        <time>2023-05-21T10:21:59Z</time>
      </trkpt>
      <trkpt lat="47.8161" lon="7.02501">
        <ele>1013.7</ele>
        <time>2023-05-21T10:22:13Z</time>
      </trkpt>
      <trkpt lat="47.81607" lon="7.02508">
        <ele>1013.7</ele>
        <time>2023-05-21T10:22:16Z</time>
      </trkpt>
      <trkpt lat="47.81603" lon="7.02512">
        <ele>1012.8</ele>
        <time>2023-05-21T10:22:20Z</time>
      </trkpt>
      <trkpt lat="47.81596" lon="7.02522">
        <ele>1011.9</ele>
        <time>2023-05-21T10:22:27Z</time>
      </trkpt>
      <trkpt lat="47.81586" lon="7.02532">
        <ele>1009.6</ele>
        <time>2023-05-21T10:22:39Z</time>
      </trkpt>
      <trkpt lat="47.81572" lon="7.02539">
        <ele>1005.3</ele>
        <time>2023-05-21T10:22:55Z</time>
      </trkpt>
      <trkpt lat="47.81548" lon="7.02571">
        <ele>1000.7</ele>
        <time>2023-05-21T10:23:22Z</time>
      </trkpt>
      <trkpt lat="47.81543" lon="7.02571">
        <ele>998.7</ele>
        <time>2023-05-21T10:23:26Z</time>
      </trkpt>
      <trkpt lat="47.81538" lon="7.02575">
        <ele>997.4</ele>
        <time>2023-05-21T10:23:32Z</time>
      </trkpt>
      <trkpt lat="47.81533" lon="7.02581">
        <ele>996.5</ele>
        <time>2023-05-21T10:23:39Z</time>
      </trkpt>
      <trkpt lat="47.81529" lon="7.02583">
        <ele>995.4</ele>
        <time>2023-05-21T10:23:43Z</time>
      </trkpt>
      <trkpt lat="47.81526" lon="7.02589">
        <ele>994.7</ele>
        <time>2023-05-21T10:23:48Z</time>
      </trkpt>
      <trkpt lat="47.81524" lon="7.02597">
        <ele>994.4</ele>
        <time>2023-05-21T10:23:52Z</time>
      </trkpt>
      <trkpt lat="47.81511" lon="7.0261">
        <ele>990.3</ele>
        <time>2023-05-21T10:24:09Z</time>
      </trkpt>
      <trkpt lat="47.81506" lon="7.02624">
        <ele>988.3</ele>
        <time>2023-05-21T10:24:19Z</time>
      </trkpt>
      <trkpt lat="47.81498" lon="7.02632">
        <ele>985.2</ele>
        <time>2023-05-21T10:24:26Z</time>
      </trkpt>
      <trkpt lat="47.81498" lon="7.02648">
        <ele>984.2</ele>
        <time>2023-05-21T10:24:35Z</time>
      </trkpt>
      <trkpt lat="47.81497" lon="7.02656">
        <ele>983</ele>
        <time>2023-05-21T10:24:39Z</time>
      </trkpt>
      <trkpt lat="47.81493" lon="7.02661">
        <ele>980.8</ele>
        <time>2023-05-21T10:24:43Z</time>
      </trkpt>
      <trkpt lat="47.81493" lon="7.02667">
        <ele>980.2</ele>
        <time>2023-05-21T10:24:48Z</time>
      </trkpt>
      <trkpt lat="47.81496" lon="7.02673">
        <ele>980.1</ele>
        <time>2023-05-21T10:24:54Z</time>
      </trkpt>
      <trkpt lat="47.81498" lon="7.02682">
        <ele>978.9</ele>
        <time>2023-05-21T10:25:04Z</time>
      </trkpt>
      <trkpt lat="47.815" lon="7.02689">
        <ele>978.2</ele>
        <time>2023-05-21T10:25:10Z</time>
      </trkpt>
      <trkpt lat="47.81508" lon="7.02704">
        <ele>977.5</ele>
        <time>2023-05-21T10:25:22Z</time>
      </trkpt>
      <trkpt lat="47.81526" lon="7.02746">
        <ele>973.3</ele>
        <time>2023-05-21T10:25:49Z</time>
      </trkpt>
      <trkpt lat="47.81524" lon="7.02752">
        <ele>970.9</ele>
        <time>2023-05-21T10:25:52Z</time>
      </trkpt>
      <trkpt lat="47.81535" lon="7.02772">
        <ele>969.1</ele>
        <time>2023-05-21T10:26:09Z</time>
      </trkpt>
      <trkpt lat="47.81542" lon="7.02783">
        <ele>967.9</ele>
        <time>2023-05-21T10:26:17Z</time>
      </trkpt>
      <trkpt lat="47.81546" lon="7.02778">
        <ele>970.8</ele>
        <time>2023-05-21T10:26:22Z</time>
      </trkpt>
      <trkpt lat="47.81554" lon="7.02783">
        <ele>971.8</ele>
        <time>2023-05-21T10:26:25Z</time>
      </trkpt>
      <trkpt lat="47.81552" lon="7.02792">
        <ele>968.2</ele>
        <time>2023-05-21T10:26:29Z</time>
      </trkpt>
      <trkpt lat="47.81555" lon="7.028">
        <ele>966.6</ele>
        <time>2023-05-21T10:26:32Z</time>
      </trkpt>
      <trkpt lat="47.81553" lon="7.02807">
        <ele>963.7</ele>
        <time>2023-05-21T10:26:34Z</time>
      </trkpt>
      <trkpt lat="47.81556" lon="7.02812">
        <ele>962.8</ele>
        <time>2023-05-21T10:26:37Z</time>
      </trkpt>
      <trkpt lat="47.81561" lon="7.02818">
        <ele>962</ele>
        <time>2023-05-21T10:26:42Z</time>
      </trkpt>
      <trkpt lat="47.81567" lon="7.02814">
        <ele>965.3</ele>
        <time>2023-05-21T10:26:46Z</time>
      </trkpt>
      <trkpt lat="47.81574" lon="7.02828">
        <ele>961.3</ele>
        <time>2023-05-21T10:26:56Z</time>
      </trkpt>
      <trkpt lat="47.81594" lon="7.02844">
        <ele>959.6</ele>
        <time>2023-05-21T10:27:19Z</time>
      </trkpt>
      <trkpt lat="47.81597" lon="7.02851">
        <ele>957.6</ele>
        <time>2023-05-21T10:27:23Z</time>
      </trkpt>
      <trkpt lat="47.81608" lon="7.02865">
        <ele>955.6</ele>
        <time>2023-05-21T10:27:39Z</time>
      </trkpt>
      <trkpt lat="47.81613" lon="7.02877">
        <ele>952.9</ele>
        <time>2023-05-21T10:27:44Z</time>
      </trkpt>
      <trkpt lat="47.81619" lon="7.02883">
        <ele>952.5</ele>
        <time>2023-05-21T10:27:50Z</time>
      </trkpt>
      <trkpt lat="47.81636" lon="7.0289">
        <ele>954.8</ele>
        <time>2023-05-21T10:28:04Z</time>
      </trkpt>
      <trkpt lat="47.81634" lon="7.02922">
        <ele>945.9</ele>
        <time>2023-05-21T10:28:20Z</time>
      </trkpt>
      <trkpt lat="47.81641" lon="7.02923">
        <ele>949.5</ele>
        <time>2023-05-21T10:28:30Z</time>
      </trkpt>
      <trkpt lat="47.81642" lon="7.02937">
        <ele>950.7</ele>
        <time>2023-05-21T10:28:44Z</time>
      </trkpt>
      <trkpt lat="47.81642" lon="7.02945">
        <ele>951</ele>
        <time>2023-05-21T10:28:46Z</time>
      </trkpt>
      <trkpt lat="47.81638" lon="7.02954">
        <ele>948.8</ele>
        <time>2023-05-21T10:28:55Z</time>
      </trkpt>
      <trkpt lat="47.81627" lon="7.02955">
        <ele>941.7</ele>
        <time>2023-05-21T10:28:59Z</time>
      </trkpt>
      <trkpt lat="47.81633" lon="7.0297">
        <ele>946.1</ele>
        <time>2023-05-21T10:29:05Z</time>
      </trkpt>
      <trkpt lat="47.81627" lon="7.02984">
        <ele>943.1</ele>
        <time>2023-05-21T10:29:14Z</time>
      </trkpt>
      <trkpt lat="47.81626" lon="7.02999">
        <ele>943.6</ele>
        <time>2023-05-21T10:29:27Z</time>
      </trkpt>
      <trkpt lat="47.81618" lon="7.03015">
        <ele>939.3</ele>
        <time>2023-05-21T10:29:41Z</time>
      </trkpt>
      <trkpt lat="47.81617" lon="7.03029">
        <ele>939.4</ele>
        <time>2023-05-21T10:29:46Z</time>
      </trkpt>
      <trkpt lat="47.81615" lon="7.03034">
        <ele>938.4</ele>
        <time>2023-05-21T10:29:51Z</time>
      </trkpt>
      <trkpt lat="47.81611" lon="7.03039">
        <ele>936.3</ele>
        <time>2023-05-21T10:29:53Z</time>
      </trkpt>
      <trkpt lat="47.81604" lon="7.03046">
        <ele>932.5</ele>
        <time>2023-05-21T10:30:00Z</time>
      </trkpt>
      <trkpt lat="47.81601" lon="7.03051">
        <ele>931</ele>
        <time>2023-05-21T10:30:06Z</time>
      </trkpt>
      <trkpt lat="47.81598" lon="7.03071">
        <ele>929.7</ele>
        <time>2023-05-21T10:30:14Z</time>
      </trkpt>
      <trkpt lat="47.8159" lon="7.03106">
        <ele>926.9</ele>
        <time>2023-05-21T10:30:36Z</time>
      </trkpt>
      <trkpt lat="47.81585" lon="7.03111">
        <ele>924.8</ele>
        <time>2023-05-21T10:30:41Z</time>
      </trkpt>
      <trkpt lat="47.81581" lon="7.0312">
        <ele>923.5</ele>
        <time>2023-05-21T10:30:46Z</time>
      </trkpt>
      <trkpt lat="47.81579" lon="7.03128">
        <ele>923.2</ele>
        <time>2023-05-21T10:30:49Z</time>
      </trkpt>
      <trkpt lat="47.81574" lon="7.03137">
        <ele>921.5</ele>
        <time>2023-05-21T10:30:52Z</time>
      </trkpt>
      <trkpt lat="47.81572" lon="7.03143">
        <ele>921.1</ele>
        <time>2023-05-21T10:30:54Z</time>
      </trkpt>
      <trkpt lat="47.81564" lon="7.03149">
        <ele>918.2</ele>
        <time>2023-05-21T10:31:01Z</time>
      </trkpt>
      <trkpt lat="47.81564" lon="7.03159">
        <ele>919.4</ele>
        <time>2023-05-21T10:31:13Z</time>
      </trkpt>
      <trkpt lat="47.81537" lon="7.03201">
        <ele>915.1</ele>
        <time>2023-05-21T10:31:45Z</time>
      </trkpt>
      <trkpt lat="47.81525" lon="7.03214">
        <ele>913.7</ele>
        <time>2023-05-21T10:32:00Z</time>
      </trkpt>
      <trkpt lat="47.81522" lon="7.0322">
        <ele>913.9</ele>
        <time>2023-05-21T10:32:06Z</time>
      </trkpt>
      <trkpt lat="47.81517" lon="7.03223">
        <ele>913</ele>
        <time>2023-05-21T10:32:09Z</time>
      </trkpt>
      <trkpt lat="47.81512" lon="7.03224">
        <ele>911.8</ele>
        <time>2023-05-21T10:32:11Z</time>
      </trkpt>
      <trkpt lat="47.81501" lon="7.0324">
        <ele>912.1</ele>
        <time>2023-05-21T10:32:22Z</time>
      </trkpt>
      <trkpt lat="47.81496" lon="7.03241">
        <ele>911.2</ele>
        <time>2023-05-21T10:32:25Z</time>
      </trkpt>
      <trkpt lat="47.81491" lon="7.03238">
        <ele>909.5</ele>
        <time>2023-05-21T10:32:27Z</time>
      </trkpt>
      <trkpt lat="47.81487" lon="7.03235">
        <ele>908</ele>
        <time>2023-05-21T10:32:32Z</time>
      </trkpt>
      <trkpt lat="47.8148" lon="7.03237">
        <ele>906.9</ele>
        <time>2023-05-21T10:32:38Z</time>
      </trkpt>
      <trkpt lat="47.81473" lon="7.03234">
        <ele>904.7</ele>
        <time>2023-05-21T10:32:44Z</time>
      </trkpt>
      <trkpt lat="47.81468" lon="7.03231">
        <ele>903.1</ele>
        <time>2023-05-21T10:32:49Z</time>
      </trkpt>
      <trkpt lat="47.81461" lon="7.03238">
        <ele>903.7</ele>
        <time>2023-05-21T10:32:54Z</time>
      </trkpt>
      <trkpt lat="47.81453" lon="7.03242">
        <ele>903.6</ele>
        <time>2023-05-21T10:33:03Z</time>
      </trkpt>
      <trkpt lat="47.81429" lon="7.0325">
        <ele>902.8</ele>
        <time>2023-05-21T10:33:23Z</time>
      </trkpt>
      <trkpt lat="47.81419" lon="7.03245">
        <ele>899.6</ele>
        <time>2023-05-21T10:33:32Z</time>
      </trkpt>
      <trkpt lat="47.81394" lon="7.03243">
        <ele>894.6</ele>
        <time>2023-05-21T10:33:54Z</time>
      </trkpt>
      <trkpt lat="47.81385" lon="7.0324">
        <ele>892.3</ele>
        <time>2023-05-21T10:34:03Z</time>
      </trkpt>
      <trkpt lat="47.8138" lon="7.03242">
        <ele>892.2</ele>
        <time>2023-05-21T10:34:07Z</time>
      </trkpt>
      <trkpt lat="47.81376" lon="7.03239">
        <ele>890.8</ele>
        <time>2023-05-21T10:34:11Z</time>
      </trkpt>
      <trkpt lat="47.8137" lon="7.03241">
        <ele>890.6</ele>
        <time>2023-05-21T10:34:15Z</time>
      </trkpt>
      <trkpt lat="47.81361" lon="7.03246">
        <ele>890.8</ele>
        <time>2023-05-21T10:34:24Z</time>
      </trkpt>
      <trkpt lat="47.81347" lon="7.03245">
        <ele>888.9</ele>
        <time>2023-05-21T10:34:35Z</time>
      </trkpt>
      <trkpt lat="47.81343" lon="7.03241">
        <ele>887</ele>
        <time>2023-05-21T10:34:39Z</time>
      </trkpt>
      <trkpt lat="47.81337" lon="7.03241">
        <ele>886.2</ele>
        <time>2023-05-21T10:34:43Z</time>
      </trkpt>
      <trkpt lat="47.81322" lon="7.03245">
        <ele>885.7</ele>
        <time>2023-05-21T10:34:55Z</time>
      </trkpt>
      <trkpt lat="47.81316" lon="7.03249">
        <ele>886.2</ele>
        <time>2023-05-21T10:34:58Z</time>
      </trkpt>
      <trkpt lat="47.81311" lon="7.03249">
        <ele>885.5</ele>
        <time>2023-05-21T10:35:02Z</time>
      </trkpt>
      <trkpt lat="47.81307" lon="7.03247">
        <ele>884.3</ele>
        <time>2023-05-21T10:35:06Z</time>
      </trkpt>
      <trkpt lat="47.81296" lon="7.03248">
        <ele>883.7</ele>
        <time>2023-05-21T10:35:14Z</time>
      </trkpt>
      <trkpt lat="47.81285" lon="7.03243">
        <ele>881.5</ele>
        <time>2023-05-21T10:35:24Z</time>
      </trkpt>
      <trkpt lat="47.81277" lon="7.0324">
        <ele>880</ele>
        <time>2023-05-21T10:35:33Z</time>
      </trkpt>
      <trkpt lat="47.81283" lon="7.03237">
        <ele>879.6</ele>
        <time>2023-05-21T10:35:49Z</time>
      </trkpt>
      <trkpt lat="47.81285" lon="7.03231">
        <ele>878</ele>
        <time>2023-05-21T10:36:07Z</time>
      </trkpt>
      <trkpt lat="47.81281" lon="7.03234">
        <ele>878.6</ele>
        <time>2023-05-21T10:36:48Z</time>
      </trkpt>
      <trkpt lat="47.81277" lon="7.03235">
        <ele>878.6</ele>
        <time>2023-05-21T10:36:50Z</time>
      </trkpt>
      <trkpt lat="47.81272" lon="7.03235">
        <ele>878</ele>
        <time>2023-05-21T10:36:52Z</time>
      </trkpt>
      <trkpt lat="47.81263" lon="7.03238">
        <ele>877.6</ele>
        <time>2023-05-21T10:37:04Z</time>
      </trkpt>
      <trkpt lat="47.81253" lon="7.03242">
        <ele>877.4</ele>
        <time>2023-05-21T10:37:11Z</time>
      </trkpt>
      <trkpt lat="47.81248" lon="7.03241">
        <ele>876.4</ele>
        <time>2023-05-21T10:37:15Z</time>
      </trkpt>
      <trkpt lat="47.81235" lon="7.03248">
        <ele>876.3</ele>
        <time>2023-05-21T10:37:27Z</time>
      </trkpt>
      <trkpt lat="47.8121" lon="7.03255">
        <ele>873.3</ele>
        <time>2023-05-21T10:37:50Z</time>
      </trkpt>
      <trkpt lat="47.81205" lon="7.03255">
        <ele>872.3</ele>
        <time>2023-05-21T10:37:54Z</time>
      </trkpt>
      <trkpt lat="47.81196" lon="7.03258">
        <ele>870.9</ele>
        <time>2023-05-21T10:38:02Z</time>
      </trkpt>
      <trkpt lat="47.8119" lon="7.03262">
        <ele>870.2</ele>
        <time>2023-05-21T10:38:12Z</time>
      </trkpt>
      <trkpt lat="47.81187" lon="7.03267">
        <ele>870.1</ele>
        <time>2023-05-21T10:38:17Z</time>
      </trkpt>
      <trkpt lat="47.81185" lon="7.03273">
        <ele>870.1</ele>
        <time>2023-05-21T10:38:22Z</time>
      </trkpt>
      <trkpt lat="47.81183" lon="7.03281">
        <ele>869.6</ele>
        <time>2023-05-21T10:38:27Z</time>
      </trkpt>
      <trkpt lat="47.8118" lon="7.03293">
        <ele>868</ele>
        <time>2023-05-21T10:38:33Z</time>
      </trkpt>
      <trkpt lat="47.81174" lon="7.03304">
        <ele>866.2</ele>
        <time>2023-05-21T10:38:41Z</time>
      </trkpt>
      <trkpt lat="47.81167" lon="7.03327">
        <ele>863.5</ele>
        <time>2023-05-21T10:38:54Z</time>
      </trkpt>
      <trkpt lat="47.81165" lon="7.03341">
        <ele>862.4</ele>
        <time>2023-05-21T10:39:04Z</time>
      </trkpt>
      <trkpt lat="47.81166" lon="7.03349">
        <ele>861.9</ele>
        <time>2023-05-21T10:39:08Z</time>
      </trkpt>
      <trkpt lat="47.81169" lon="7.03354">
        <ele>861.6</ele>
        <time>2023-05-21T10:39:12Z</time>
      </trkpt>
      <trkpt lat="47.81172" lon="7.0337">
        <ele>860.1</ele>
        <time>2023-05-21T10:39:22Z</time>
      </trkpt>
      <trkpt lat="47.81174" lon="7.03376">
        <ele>859.4</ele>
        <time>2023-05-21T10:39:26Z</time>
      </trkpt>
      <trkpt lat="47.81174" lon="7.03382">
        <ele>858.6</ele>
        <time>2023-05-21T10:39:30Z</time>
      </trkpt>
      <trkpt lat="47.81177" lon="7.03388">
        <ele>857.7</ele>
        <time>2023-05-21T10:39:34Z</time>
      </trkpt>
      <trkpt lat="47.81177" lon="7.0341">
        <ele>855</ele>
        <time>2023-05-21T10:39:45Z</time>
      </trkpt>
      <trkpt lat="47.81173" lon="7.03418">
        <ele>854.7</ele>
        <time>2023-05-21T10:39:48Z</time>
      </trkpt>
      <trkpt lat="47.81168" lon="7.03442">
        <ele>852.9</ele>
        <time>2023-05-21T10:40:03Z</time>
      </trkpt>
      <trkpt lat="47.81166" lon="7.03447">
        <ele>853</ele>
        <time>2023-05-21T10:40:06Z</time>
      </trkpt>
      <trkpt lat="47.81165" lon="7.03455">
        <ele>852.5</ele>
        <time>2023-05-21T10:40:10Z</time>
      </trkpt>
      <trkpt lat="47.81162" lon="7.03461">
        <ele>853.2</ele>
        <time>2023-05-21T10:40:14Z</time>
      </trkpt>
      <trkpt lat="47.81159" lon="7.03481">
        <ele>851.8</ele>
        <time>2023-05-21T10:40:27Z</time>
      </trkpt>
      <trkpt lat="47.81157" lon="7.03487">
        <ele>851.7</ele>
        <time>2023-05-21T10:40:30Z</time>
      </trkpt>
      <trkpt lat="47.81151" lon="7.03509">
        <ele>849.9</ele>
        <time>2023-05-21T10:40:44Z</time>
      </trkpt>
      <trkpt lat="47.81143" lon="7.03525">
        <ele>849.6</ele>
        <time>2023-05-21T10:40:53Z</time>
      </trkpt>
      <trkpt lat="47.8114" lon="7.03564">
        <ele>842.4</ele>
        <time>2023-05-21T10:41:17Z</time>
      </trkpt>
      <trkpt lat="47.81138" lon="7.03571">
        <ele>842</ele>
        <time>2023-05-21T10:41:21Z</time>
      </trkpt>
      <trkpt lat="47.81134" lon="7.03576">
        <ele>842.3</ele>
        <time>2023-05-21T10:41:25Z</time>
      </trkpt>
      <trkpt lat="47.81132" lon="7.03582">
        <ele>841.8</ele>
        <time>2023-05-21T10:41:28Z</time>
      </trkpt>
      <trkpt lat="47.81128" lon="7.03586">
        <ele>841.9</ele>
        <time>2023-05-21T10:41:32Z</time>
      </trkpt>
      <trkpt lat="47.81124" lon="7.03589">
        <ele>842.1</ele>
        <time>2023-05-21T10:41:36Z</time>
      </trkpt>
      <trkpt lat="47.81119" lon="7.03594">
        <ele>841.8</ele>
        <time>2023-05-21T10:41:40Z</time>
      </trkpt>
      <trkpt lat="47.81101" lon="7.03605">
        <ele>842.2</ele>
        <time>2023-05-21T10:41:57Z</time>
      </trkpt>
      <trkpt lat="47.81093" lon="7.03614">
        <ele>841</ele>
        <time>2023-05-21T10:42:05Z</time>
      </trkpt>
      <trkpt lat="47.81087" lon="7.03624">
        <ele>838.7</ele>
        <time>2023-05-21T10:42:13Z</time>
      </trkpt>
      <trkpt lat="47.81082" lon="7.03636">
        <ele>835.8</ele>
        <time>2023-05-21T10:42:20Z</time>
      </trkpt>
      <trkpt lat="47.81079" lon="7.0364">
        <ele>835.7</ele>
        <time>2023-05-21T10:42:24Z</time>
      </trkpt>
      <trkpt lat="47.81077" lon="7.03647">
        <ele>834.5</ele>
        <time>2023-05-21T10:42:28Z</time>
      </trkpt>
      <trkpt lat="47.81074" lon="7.03651">
        <ele>834.7</ele>
        <time>2023-05-21T10:42:32Z</time>
      </trkpt>
      <trkpt lat="47.81069" lon="7.03666">
        <ele>832.9</ele>
        <time>2023-05-21T10:42:39Z</time>
      </trkpt>
      <trkpt lat="47.81067" lon="7.03682">
        <ele>830</ele>
        <time>2023-05-21T10:42:50Z</time>
      </trkpt>
      <trkpt lat="47.81065" lon="7.03688">
        <ele>829.5</ele>
        <time>2023-05-21T10:42:54Z</time>
      </trkpt>
      <trkpt lat="47.81064" lon="7.03703">
        <ele>826.3</ele>
        <time>2023-05-21T10:43:03Z</time>
      </trkpt>
      <trkpt lat="47.8106" lon="7.03707">
        <ele>827.4</ele>
        <time>2023-05-21T10:43:06Z</time>
      </trkpt>
      <trkpt lat="47.81057" lon="7.03713">
        <ele>827.5</ele>
        <time>2023-05-21T10:43:09Z</time>
      </trkpt>
      <trkpt lat="47.81052" lon="7.03721">
        <ele>828.1</ele>
        <time>2023-05-21T10:43:15Z</time>
      </trkpt>
      <trkpt lat="47.81047" lon="7.03733">
        <ele>826.7</ele>
        <time>2023-05-21T10:43:21Z</time>
      </trkpt>
      <trkpt lat="47.81037" lon="7.0375">
        <ele>825.7</ele>
        <time>2023-05-21T10:43:32Z</time>
      </trkpt>
      <trkpt lat="47.81035" lon="7.03756">
        <ele>824.4</ele>
        <time>2023-05-21T10:43:36Z</time>
      </trkpt>
      <trkpt lat="47.81013" lon="7.03776">
        <ele>819.2</ele>
        <time>2023-05-21T10:43:59Z</time>
      </trkpt>
      <trkpt lat="47.80999" lon="7.03775">
        <ele>818.9</ele>
        <time>2023-05-21T10:44:10Z</time>
      </trkpt>
      <trkpt lat="47.80994" lon="7.03771">
        <ele>819.3</ele>
        <time>2023-05-21T10:44:15Z</time>
      </trkpt>
      <trkpt lat="47.80969" lon="7.0377">
        <ele>814.4</ele>
        <time>2023-05-21T10:44:34Z</time>
      </trkpt>
      <trkpt lat="47.80964" lon="7.03773">
        <ele>812.6</ele>
        <time>2023-05-21T10:44:38Z</time>
      </trkpt>
      <trkpt lat="47.80954" lon="7.0377">
        <ele>813.1</ele>
        <time>2023-05-21T10:44:46Z</time>
      </trkpt>
      <trkpt lat="47.80943" lon="7.0377">
        <ele>812.4</ele>
        <time>2023-05-21T10:44:55Z</time>
      </trkpt>
      <trkpt lat="47.80939" lon="7.03772">
        <ele>811.5</ele>
        <time>2023-05-21T10:44:59Z</time>
      </trkpt>
      <trkpt lat="47.80926" lon="7.03782">
        <ele>807.3</ele>
        <time>2023-05-21T10:45:14Z</time>
      </trkpt>
      <trkpt lat="47.80917" lon="7.03784">
        <ele>806.8</ele>
        <time>2023-05-21T10:45:21Z</time>
      </trkpt>
      <trkpt lat="47.8091" lon="7.03795">
        <ele>804.8</ele>
        <time>2023-05-21T10:45:27Z</time>
      </trkpt>
      <trkpt lat="47.80905" lon="7.03798">
        <ele>805.2</ele>
        <time>2023-05-21T10:45:31Z</time>
      </trkpt>
      <trkpt lat="47.809" lon="7.03798">
        <ele>806.7</ele>
        <time>2023-05-21T10:45:34Z</time>
      </trkpt>
      <trkpt lat="47.80893" lon="7.03805">
        <ele>806</ele>
        <time>2023-05-21T10:45:41Z</time>
      </trkpt>
      <trkpt lat="47.80892" lon="7.03811">
        <ele>804.1</ele>
        <time>2023-05-21T10:45:46Z</time>
      </trkpt>
      <trkpt lat="47.80884" lon="7.03824">
        <ele>802.9</ele>
        <time>2023-05-21T10:45:56Z</time>
      </trkpt>
      <trkpt lat="47.80884" lon="7.03831">
        <ele>800.6</ele>
        <time>2023-05-21T10:45:59Z</time>
      </trkpt>
      <trkpt lat="47.8088" lon="7.03835">
        <ele>801.5</ele>
        <time>2023-05-21T10:46:03Z</time>
      </trkpt>
      <trkpt lat="47.80874" lon="7.03848">
        <ele>800.6</ele>
        <time>2023-05-21T10:46:11Z</time>
      </trkpt>
      <trkpt lat="47.80873" lon="7.03855">
        <ele>798.9</ele>
        <time>2023-05-21T10:46:15Z</time>
      </trkpt>
      <trkpt lat="47.80861" lon="7.03882">
        <ele>796.8</ele>
        <time>2023-05-21T10:46:32Z</time>
      </trkpt>
      <trkpt lat="47.80859" lon="7.03898">
        <ele>792</ele>
        <time>2023-05-21T10:46:40Z</time>
      </trkpt>
      <trkpt lat="47.80854" lon="7.03912">
        <ele>791</ele>
        <time>2023-05-21T10:46:48Z</time>
      </trkpt>
      <trkpt lat="47.80854" lon="7.03919">
        <ele>788.9</ele>
        <time>2023-05-21T10:46:52Z</time>
      </trkpt>
      <trkpt lat="47.80853" lon="7.03925">
        <ele>788.5</ele>
        <time>2023-05-21T10:46:56Z</time>
      </trkpt>
      <trkpt lat="47.8085" lon="7.03932">
        <ele>789.8</ele>
        <time>2023-05-21T10:46:59Z</time>
      </trkpt>
      <trkpt lat="47.80851" lon="7.03955">
        <ele>786.3</ele>
        <time>2023-05-21T10:47:10Z</time>
      </trkpt>
      <trkpt lat="47.80855" lon="7.0398">
        <ele>783</ele>
        <time>2023-05-21T10:47:24Z</time>
      </trkpt>
      <trkpt lat="47.80848" lon="7.0401">
        <ele>783.5</ele>
        <time>2023-05-21T10:47:42Z</time>
      </trkpt>
      <trkpt lat="47.80835" lon="7.0403">
        <ele>782.5</ele>
        <time>2023-05-21T10:47:55Z</time>
      </trkpt>
      <trkpt lat="47.8083" lon="7.04033">
        <ele>782.6</ele>
        <time>2023-05-21T10:47:58Z</time>
      </trkpt>
      <trkpt lat="47.80819" lon="7.04045">
        <ele>779.6</ele>
        <time>2023-05-21T10:48:08Z</time>
      </trkpt>
      <trkpt lat="47.80815" lon="7.04048">
        <ele>779</ele>
        <time>2023-05-21T10:48:11Z</time>
      </trkpt>
      <trkpt lat="47.80799" lon="7.0406">
        <ele>776.6</ele>
        <time>2023-05-21T10:48:24Z</time>
      </trkpt>
      <trkpt lat="47.8079" lon="7.04065">
        <ele>776.7</ele>
        <time>2023-05-21T10:48:33Z</time>
      </trkpt>
      <trkpt lat="47.80772" lon="7.0409">
        <ele>772.3</ele>
        <time>2023-05-21T10:48:53Z</time>
      </trkpt>
      <trkpt lat="47.80771" lon="7.04096">
        <ele>770.5</ele>
        <time>2023-05-21T10:48:57Z</time>
      </trkpt>
      <trkpt lat="47.80761" lon="7.04113">
        <ele>768.6</ele>
        <time>2023-05-21T10:49:09Z</time>
      </trkpt>
      <trkpt lat="47.80757" lon="7.04116">
        <ele>769.2</ele>
        <time>2023-05-21T10:49:13Z</time>
      </trkpt>
      <trkpt lat="47.80752" lon="7.04128">
        <ele>767.1</ele>
        <time>2023-05-21T10:49:22Z</time>
      </trkpt>
      <trkpt lat="47.80751" lon="7.04136">
        <ele>764.6</ele>
        <time>2023-05-21T10:49:26Z</time>
      </trkpt>
      <trkpt lat="47.80748" lon="7.04142">
        <ele>763.9</ele>
        <time>2023-05-21T10:49:29Z</time>
      </trkpt>
      <trkpt lat="47.80745" lon="7.04147">
        <ele>763.5</ele>
        <time>2023-05-21T10:49:32Z</time>
      </trkpt>
      <trkpt lat="47.80737" lon="7.04157">
        <ele>763.7</ele>
        <time>2023-05-21T10:49:39Z</time>
      </trkpt>
      <trkpt lat="47.80732" lon="7.04169">
        <ele>762</ele>
        <time>2023-05-21T10:49:47Z</time>
      </trkpt>
      <trkpt lat="47.80725" lon="7.04179">
        <ele>761.8</ele>
        <time>2023-05-21T10:49:56Z</time>
      </trkpt>
      <trkpt lat="47.80718" lon="7.04198">
        <ele>757.7</ele>
        <time>2023-05-21T10:50:05Z</time>
      </trkpt>
      <trkpt lat="47.80715" lon="7.04204">
        <ele>756.1</ele>
        <time>2023-05-21T10:50:08Z</time>
      </trkpt>
      <trkpt lat="47.80711" lon="7.04208">
        <ele>755.7</ele>
        <time>2023-05-21T10:50:11Z</time>
      </trkpt>
      <trkpt lat="47.80709" lon="7.04215">
        <ele>753.5</ele>
        <time>2023-05-21T10:50:16Z</time>
      </trkpt>
      <trkpt lat="47.80703" lon="7.04224">
        <ele>751.9</ele>
        <time>2023-05-21T10:50:24Z</time>
      </trkpt>
      <trkpt lat="47.80675" lon="7.04248">
        <ele>748.5</ele>
        <time>2023-05-21T10:50:53Z</time>
      </trkpt>
      <trkpt lat="47.80669" lon="7.04249">
        <ele>749</ele>
        <time>2023-05-21T10:50:57Z</time>
      </trkpt>
      <trkpt lat="47.80656" lon="7.04258">
        <ele>748.3</ele>
        <time>2023-05-21T10:51:08Z</time>
      </trkpt>
      <trkpt lat="47.8066" lon="7.04262">
        <ele>748</ele>
        <time>2023-05-21T10:51:16Z</time>
      </trkpt>
      <trkpt lat="47.80675" lon="7.04259">
        <ele>746.8</ele>
        <time>2023-05-21T10:51:27Z</time>
      </trkpt>
      <trkpt lat="47.80679" lon="7.04257">
        <ele>746.5</ele>
        <time>2023-05-21T10:51:30Z</time>
      </trkpt>
      <trkpt lat="47.80683" lon="7.04253">
        <ele>746.3</ele>
        <time>2023-05-21T10:51:34Z</time>
      </trkpt>
      <trkpt lat="47.80693" lon="7.0425">
        <ele>745.2</ele>
        <time>2023-05-21T10:51:41Z</time>
      </trkpt>
      <trkpt lat="47.80689" lon="7.04257">
        <ele>745</ele>
        <time>2023-05-21T10:51:50Z</time>
      </trkpt>
      <trkpt lat="47.80675" lon="7.04281">
        <ele>745</ele>
        <time>2023-05-21T10:54:39Z</time>
      </trkpt>
      <trkpt lat="47.80668" lon="7.04267">
        <ele>747</ele>
        <time>2023-05-21T12:50:28Z</time>
      </trkpt>
      <trkpt lat="47.80667" lon="7.04267">
        <ele>747.1</ele>
        <time>2023-05-21T12:50:29Z</time>
      </trkpt>
      <trkpt lat="47.80664" lon="7.04271">
        <ele>747</ele>
        <time>2023-05-21T12:50:38Z</time>
      </trkpt>
      <trkpt lat="47.80661" lon="7.04276">
        <ele>746.9</ele>
        <time>2023-05-21T12:50:43Z</time>
      </trkpt>
      <trkpt lat="47.80657" lon="7.04282">
        <ele>748.1</ele>
        <time>2023-05-21T12:50:53Z</time>
      </trkpt>
      <trkpt lat="47.80655" lon="7.04289">
        <ele>749.6</ele>
        <time>2023-05-21T12:50:56Z</time>
      </trkpt>
      <trkpt lat="47.80661" lon="7.0429">
        <ele>748.5</ele>
        <time>2023-05-21T12:51:03Z</time>
      </trkpt>
      <trkpt lat="47.80669" lon="7.04305">
        <ele>748.4</ele>
        <time>2023-05-21T12:51:17Z</time>
      </trkpt>
      <trkpt lat="47.80674" lon="7.04308">
        <ele>747.7</ele>
        <time>2023-05-21T12:51:23Z</time>
      </trkpt>
      <trkpt lat="47.80679" lon="7.04323">
        <ele>748.9</ele>
        <time>2023-05-21T12:51:32Z</time>
      </trkpt>
      <trkpt lat="47.80678" lon="7.0433">
        <ele>750.5</ele>
        <time>2023-05-21T12:51:36Z</time>
      </trkpt>
      <trkpt lat="47.80686" lon="7.0435">
        <ele>750.2</ele>
        <time>2023-05-21T12:51:50Z</time>
      </trkpt>
      <trkpt lat="47.80683" lon="7.04359">
        <ele>753.2</ele>
        <time>2023-05-21T12:51:57Z</time>
      </trkpt>
      <trkpt lat="47.80682" lon="7.04368">
        <ele>756.7</ele>
        <time>2023-05-21T12:52:05Z</time>
      </trkpt>
      <trkpt lat="47.80689" lon="7.0438">
        <ele>757.3</ele>
        <time>2023-05-21T12:52:18Z</time>
      </trkpt>
      <trkpt lat="47.80692" lon="7.04392">
        <ele>759.6</ele>
        <time>2023-05-21T12:52:28Z</time>
      </trkpt>
      <trkpt lat="47.80696" lon="7.04398">
        <ele>758</ele>
        <time>2023-05-21T12:52:33Z</time>
      </trkpt>
      <trkpt lat="47.807" lon="7.04412">
        <ele>757.1</ele>
        <time>2023-05-21T12:52:41Z</time>
      </trkpt>
      <trkpt lat="47.80705" lon="7.04424">
        <ele>755.9</ele>
        <time>2023-05-21T12:52:49Z</time>
      </trkpt>
      <trkpt lat="47.80707" lon="7.04431">
        <ele>755.9</ele>
        <time>2023-05-21T12:52:54Z</time>
      </trkpt>
      <trkpt lat="47.80715" lon="7.0445">
        <ele>754.4</ele>
        <time>2023-05-21T12:53:07Z</time>
      </trkpt>
      <trkpt lat="47.80717" lon="7.04461">
        <ele>755.9</ele>
        <time>2023-05-21T12:53:15Z</time>
      </trkpt>
      <trkpt lat="47.8072" lon="7.04469">
        <ele>755.8</ele>
        <time>2023-05-21T12:53:21Z</time>
      </trkpt>
      <trkpt lat="47.80722" lon="7.04474">
        <ele>755.7</ele>
        <time>2023-05-21T12:53:25Z</time>
      </trkpt>
      <trkpt lat="47.80722" lon="7.04488">
        <ele>760.3</ele>
        <time>2023-05-21T12:53:34Z</time>
      </trkpt>
      <trkpt lat="47.80729" lon="7.04504">
        <ele>760.8</ele>
        <time>2023-05-21T12:53:50Z</time>
      </trkpt>
      <trkpt lat="47.80731" lon="7.04518">
        <ele>763.5</ele>
        <time>2023-05-21T12:53:59Z</time>
      </trkpt>
      <trkpt lat="47.80735" lon="7.04525">
        <ele>762.9</ele>
        <time>2023-05-21T12:54:04Z</time>
      </trkpt>
      <trkpt lat="47.80738" lon="7.04529">
        <ele>762.1</ele>
        <time>2023-05-21T12:54:08Z</time>
      </trkpt>
      <trkpt lat="47.80742" lon="7.04542">
        <ele>763.2</ele>
        <time>2023-05-21T12:54:17Z</time>
      </trkpt>
      <trkpt lat="47.80742" lon="7.04549">
        <ele>765.2</ele>
        <time>2023-05-21T12:54:21Z</time>
      </trkpt>
      <trkpt lat="47.80745" lon="7.04556">
        <ele>764.9</ele>
        <time>2023-05-21T12:54:29Z</time>
      </trkpt>
      <trkpt lat="47.80746" lon="7.04563">
        <ele>765.5</ele>
        <time>2023-05-21T12:54:34Z</time>
      </trkpt>
      <trkpt lat="47.80749" lon="7.04575">
        <ele>765.4</ele>
        <time>2023-05-21T12:54:45Z</time>
      </trkpt>
      <trkpt lat="47.80748" lon="7.04589">
        <ele>768.3</ele>
        <time>2023-05-21T12:54:52Z</time>
      </trkpt>
      <trkpt lat="47.80748" lon="7.04597">
        <ele>769.1</ele>
        <time>2023-05-21T12:54:57Z</time>
      </trkpt>
      <trkpt lat="47.80742" lon="7.04619">
        <ele>776.3</ele>
        <time>2023-05-21T12:55:15Z</time>
      </trkpt>
      <trkpt lat="47.80747" lon="7.04639">
        <ele>778.6</ele>
        <time>2023-05-21T12:55:31Z</time>
      </trkpt>
      <trkpt lat="47.80761" lon="7.04646">
        <ele>780.6</ele>
        <time>2023-05-21T12:55:43Z</time>
      </trkpt>
      <trkpt lat="47.80766" lon="7.04645">
        <ele>780.4</ele>
        <time>2023-05-21T12:55:49Z</time>
      </trkpt>
      <trkpt lat="47.80771" lon="7.04647">
        <ele>781.4</ele>
        <time>2023-05-21T12:55:58Z</time>
      </trkpt>
      <trkpt lat="47.80778" lon="7.04648">
        <ele>781.9</ele>
        <time>2023-05-21T12:56:05Z</time>
      </trkpt>
      <trkpt lat="47.80793" lon="7.04656">
        <ele>779.8</ele>
        <time>2023-05-21T12:56:32Z</time>
      </trkpt>
      <trkpt lat="47.80799" lon="7.04668">
        <ele>784</ele>
        <time>2023-05-21T12:56:42Z</time>
      </trkpt>
      <trkpt lat="47.80803" lon="7.0467">
        <ele>784.1</ele>
        <time>2023-05-21T12:56:47Z</time>
      </trkpt>
      <trkpt lat="47.80803" lon="7.04679">
        <ele>788.3</ele>
        <time>2023-05-21T12:56:51Z</time>
      </trkpt>
      <trkpt lat="47.80812" lon="7.04689">
        <ele>792.3</ele>
        <time>2023-05-21T12:57:00Z</time>
      </trkpt>
      <trkpt lat="47.80802" lon="7.04689">
        <ele>793.2</ele>
        <time>2023-05-21T12:57:13Z</time>
      </trkpt>
      <trkpt lat="47.80798" lon="7.04692">
        <ele>795.5</ele>
        <time>2023-05-21T12:57:17Z</time>
      </trkpt>
      <trkpt lat="47.80782" lon="7.04691">
        <ele>798.5</ele>
        <time>2023-05-21T12:57:32Z</time>
      </trkpt>
      <trkpt lat="47.80788" lon="7.04694">
        <ele>798.6</ele>
        <time>2023-05-21T12:57:52Z</time>
      </trkpt>
      <trkpt lat="47.80794" lon="7.04694">
        <ele>797.3</ele>
        <time>2023-05-21T12:57:57Z</time>
      </trkpt>
      <trkpt lat="47.80798" lon="7.04694">
        <ele>796.4</ele>
        <time>2023-05-21T12:58:00Z</time>
      </trkpt>
      <trkpt lat="47.80804" lon="7.047">
        <ele>797.7</ele>
        <time>2023-05-21T12:58:08Z</time>
      </trkpt>
      <trkpt lat="47.80809" lon="7.04706">
        <ele>799.6</ele>
        <time>2023-05-21T12:58:13Z</time>
      </trkpt>
      <trkpt lat="47.80815" lon="7.0471">
        <ele>800.7</ele>
        <time>2023-05-21T12:58:17Z</time>
      </trkpt>
      <trkpt lat="47.80821" lon="7.04713">
        <ele>801.2</ele>
        <time>2023-05-21T12:58:26Z</time>
      </trkpt>
      <trkpt lat="47.80824" lon="7.04718">
        <ele>802.7</ele>
        <time>2023-05-21T12:58:35Z</time>
      </trkpt>
      <trkpt lat="47.80831" lon="7.04727">
        <ele>804.4</ele>
        <time>2023-05-21T12:58:47Z</time>
      </trkpt>
      <trkpt lat="47.80833" lon="7.04733">
        <ele>805.4</ele>
        <time>2023-05-21T12:58:51Z</time>
      </trkpt>
      <trkpt lat="47.80835" lon="7.04752">
        <ele>807.9</ele>
        <time>2023-05-21T12:59:05Z</time>
      </trkpt>
      <trkpt lat="47.80833" lon="7.04758">
        <ele>809.4</ele>
        <time>2023-05-21T12:59:09Z</time>
      </trkpt>
      <trkpt lat="47.80833" lon="7.04765">
        <ele>809.7</ele>
        <time>2023-05-21T12:59:12Z</time>
      </trkpt>
      <trkpt lat="47.80835" lon="7.04783">
        <ele>808.8</ele>
        <time>2023-05-21T12:59:25Z</time>
      </trkpt>
      <trkpt lat="47.80832" lon="7.04794">
        <ele>810.2</ele>
        <time>2023-05-21T12:59:33Z</time>
      </trkpt>
      <trkpt lat="47.80823" lon="7.04814">
        <ele>814.2</ele>
        <time>2023-05-21T12:59:51Z</time>
      </trkpt>
      <trkpt lat="47.8082" lon="7.04819">
        <ele>815.4</ele>
        <time>2023-05-21T12:59:55Z</time>
      </trkpt>
      <trkpt lat="47.80814" lon="7.0483">
        <ele>818.1</ele>
        <time>2023-05-21T13:00:08Z</time>
      </trkpt>
      <trkpt lat="47.80813" lon="7.04839">
        <ele>817.5</ele>
        <time>2023-05-21T13:00:14Z</time>
      </trkpt>
      <trkpt lat="47.80805" lon="7.04857">
        <ele>820.1</ele>
        <time>2023-05-21T13:00:30Z</time>
      </trkpt>
      <trkpt lat="47.80804" lon="7.04875">
        <ele>820.1</ele>
        <time>2023-05-21T13:00:42Z</time>
      </trkpt>
      <trkpt lat="47.80805" lon="7.04887">
        <ele>819.4</ele>
        <time>2023-05-21T13:00:50Z</time>
      </trkpt>
      <trkpt lat="47.80801" lon="7.04895">
        <ele>822.8</ele>
        <time>2023-05-21T13:00:55Z</time>
      </trkpt>
      <trkpt lat="47.80799" lon="7.04909">
        <ele>826</ele>
        <time>2023-05-21T13:01:08Z</time>
      </trkpt>
      <trkpt lat="47.80802" lon="7.04915">
        <ele>824.9</ele>
        <time>2023-05-21T13:01:14Z</time>
      </trkpt>
      <trkpt lat="47.80804" lon="7.04921">
        <ele>825.2</ele>
        <time>2023-05-21T13:01:16Z</time>
      </trkpt>
      <trkpt lat="47.80804" lon="7.04933">
        <ele>828.6</ele>
        <time>2023-05-21T13:01:27Z</time>
      </trkpt>
      <trkpt lat="47.80806" lon="7.0494">
        <ele>829.5</ele>
        <time>2023-05-21T13:01:33Z</time>
      </trkpt>
      <trkpt lat="47.80812" lon="7.04943">
        <ele>828</ele>
        <time>2023-05-21T13:01:40Z</time>
      </trkpt>
      <trkpt lat="47.8081" lon="7.04951">
        <ele>831.6</ele>
        <time>2023-05-21T13:01:46Z</time>
      </trkpt>
      <trkpt lat="47.80814" lon="7.04957">
        <ele>832</ele>
        <time>2023-05-21T13:01:52Z</time>
      </trkpt>
      <trkpt lat="47.8082" lon="7.04965">
        <ele>832.3</ele>
        <time>2023-05-21T13:02:00Z</time>
      </trkpt>
      <trkpt lat="47.80826" lon="7.04986">
        <ele>837</ele>
        <time>2023-05-21T13:02:18Z</time>
      </trkpt>
      <trkpt lat="47.80831" lon="7.04989">
        <ele>836</ele>
        <time>2023-05-21T13:02:22Z</time>
      </trkpt>
      <trkpt lat="47.80835" lon="7.04997">
        <ele>837.5</ele>
        <time>2023-05-21T13:02:28Z</time>
      </trkpt>
      <trkpt lat="47.80842" lon="7.05002">
        <ele>837.6</ele>
        <time>2023-05-21T13:02:34Z</time>
      </trkpt>
      <trkpt lat="47.80844" lon="7.05009">
        <ele>839.7</ele>
        <time>2023-05-21T13:02:42Z</time>
      </trkpt>
      <trkpt lat="47.80854" lon="7.05016">
        <ele>840</ele>
        <time>2023-05-21T13:02:54Z</time>
      </trkpt>
      <trkpt lat="47.80863" lon="7.05025">
        <ele>841.4</ele>
        <time>2023-05-21T13:03:06Z</time>
      </trkpt>
      <trkpt lat="47.80865" lon="7.05037">
        <ele>845.7</ele>
        <time>2023-05-21T13:03:17Z</time>
      </trkpt>
      <trkpt lat="47.8087" lon="7.0504">
        <ele>845.6</ele>
        <time>2023-05-21T13:03:21Z</time>
      </trkpt>
      <trkpt lat="47.80881" lon="7.05047">
        <ele>845.6</ele>
        <time>2023-05-21T13:03:32Z</time>
      </trkpt>
      <trkpt lat="47.80902" lon="7.05058">
        <ele>846.5</ele>
        <time>2023-05-21T13:03:51Z</time>
      </trkpt>
      <trkpt lat="47.80907" lon="7.05064">
        <ele>847</ele>
        <time>2023-05-21T13:03:58Z</time>
      </trkpt>
      <trkpt lat="47.80908" lon="7.05072">
        <ele>848.1</ele>
        <time>2023-05-21T13:04:05Z</time>
      </trkpt>
      <trkpt lat="47.80906" lon="7.05087">
        <ele>850.1</ele>
        <time>2023-05-21T13:04:13Z</time>
      </trkpt>
      <trkpt lat="47.80914" lon="7.05098">
        <ele>847.6</ele>
        <time>2023-05-21T13:04:21Z</time>
      </trkpt>
      <trkpt lat="47.8091" lon="7.05131">
        <ele>844.6</ele>
        <time>2023-05-21T13:04:39Z</time>
      </trkpt>
      <trkpt lat="47.80907" lon="7.05138">
        <ele>844.2</ele>
        <time>2023-05-21T13:04:44Z</time>
      </trkpt>
      <trkpt lat="47.80906" lon="7.05148">
        <ele>842.7</ele>
        <time>2023-05-21T13:04:51Z</time>
      </trkpt>
      <trkpt lat="47.80903" lon="7.05157">
        <ele>841.7</ele>
        <time>2023-05-21T13:04:59Z</time>
      </trkpt>
      <trkpt lat="47.809" lon="7.05163">
        <ele>841.1</ele>
        <time>2023-05-21T13:05:04Z</time>
      </trkpt>
      <trkpt lat="47.80895" lon="7.05168">
        <ele>840.7</ele>
        <time>2023-05-21T13:05:09Z</time>
      </trkpt>
      <trkpt lat="47.80881" lon="7.05192">
        <ele>836.1</ele>
        <time>2023-05-21T13:05:25Z</time>
      </trkpt>
      <trkpt lat="47.80872" lon="7.05196">
        <ele>836.6</ele>
        <time>2023-05-21T13:05:31Z</time>
      </trkpt>
      <trkpt lat="47.8087" lon="7.05201">
        <ele>835.4</ele>
        <time>2023-05-21T13:05:35Z</time>
      </trkpt>
      <trkpt lat="47.80865" lon="7.05212">
        <ele>832.7</ele>
        <time>2023-05-21T13:05:44Z</time>
      </trkpt>
      <trkpt lat="47.80848" lon="7.05231">
        <ele>829.8</ele>
        <time>2023-05-21T13:06:03Z</time>
      </trkpt>
      <trkpt lat="47.80844" lon="7.05234">
        <ele>829.7</ele>
        <time>2023-05-21T13:06:08Z</time>
      </trkpt>
      <trkpt lat="47.8084" lon="7.05239">
        <ele>829</ele>
        <time>2023-05-21T13:06:12Z</time>
      </trkpt>
      <trkpt lat="47.80834" lon="7.05244">
        <ele>828.8</ele>
        <time>2023-05-21T13:06:19Z</time>
      </trkpt>
      <trkpt lat="47.80828" lon="7.05254">
        <ele>826.4</ele>
        <time>2023-05-21T13:06:27Z</time>
      </trkpt>
      <trkpt lat="47.80819" lon="7.05264">
        <ele>824.6</ele>
        <time>2023-05-21T13:06:35Z</time>
      </trkpt>
      <trkpt lat="47.80809" lon="7.05274">
        <ele>823.4</ele>
        <time>2023-05-21T13:06:46Z</time>
      </trkpt>
      <trkpt lat="47.80804" lon="7.05275">
        <ele>824.2</ele>
        <time>2023-05-21T13:06:50Z</time>
      </trkpt>
      <trkpt lat="47.80801" lon="7.0528">
        <ele>823.3</ele>
        <time>2023-05-21T13:06:54Z</time>
      </trkpt>
      <trkpt lat="47.80786" lon="7.05299">
        <ele>820.9</ele>
        <time>2023-05-21T13:07:07Z</time>
      </trkpt>
      <trkpt lat="47.80781" lon="7.05311">
        <ele>818.6</ele>
        <time>2023-05-21T13:07:15Z</time>
      </trkpt>
      <trkpt lat="47.80776" lon="7.05313">
        <ele>819.2</ele>
        <time>2023-05-21T13:07:23Z</time>
      </trkpt>
      <trkpt lat="47.80768" lon="7.05322">
        <ele>818</ele>
        <time>2023-05-21T13:07:33Z</time>
      </trkpt>
      <trkpt lat="47.80766" lon="7.05329">
        <ele>816.1</ele>
        <time>2023-05-21T13:07:37Z</time>
      </trkpt>
      <trkpt lat="47.8076" lon="7.05336">
        <ele>814.6</ele>
        <time>2023-05-21T13:07:44Z</time>
      </trkpt>
      <trkpt lat="47.80754" lon="7.05343">
        <ele>813</ele>
        <time>2023-05-21T13:07:53Z</time>
      </trkpt>
      <trkpt lat="47.80745" lon="7.05348">
        <ele>812.6</ele>
        <time>2023-05-21T13:08:01Z</time>
      </trkpt>
      <trkpt lat="47.80735" lon="7.05358">
        <ele>810.8</ele>
        <time>2023-05-21T13:08:12Z</time>
      </trkpt>
      <trkpt lat="47.80721" lon="7.05368">
        <ele>810.5</ele>
        <time>2023-05-21T13:08:26Z</time>
      </trkpt>
      <trkpt lat="47.80716" lon="7.05375">
        <ele>810.4</ele>
        <time>2023-05-21T13:08:35Z</time>
      </trkpt>
      <trkpt lat="47.80702" lon="7.05411">
        <ele>806.7</ele>
        <time>2023-05-21T13:09:01Z</time>
      </trkpt>
      <trkpt lat="47.80701" lon="7.05418">
        <ele>805.3</ele>
        <time>2023-05-21T13:09:05Z</time>
      </trkpt>
      <trkpt lat="47.80697" lon="7.0543">
        <ele>803.7</ele>
        <time>2023-05-21T13:09:14Z</time>
      </trkpt>
      <trkpt lat="47.80694" lon="7.05436">
        <ele>803.3</ele>
        <time>2023-05-21T13:09:19Z</time>
      </trkpt>
      <trkpt lat="47.80691" lon="7.05449">
        <ele>801.5</ele>
        <time>2023-05-21T13:09:27Z</time>
      </trkpt>
      <trkpt lat="47.80689" lon="7.05454">
        <ele>801.4</ele>
        <time>2023-05-21T13:09:31Z</time>
      </trkpt>
      <trkpt lat="47.80688" lon="7.05463">
        <ele>799.9</ele>
        <time>2023-05-21T13:09:36Z</time>
      </trkpt>
      <trkpt lat="47.80676" lon="7.05505">
        <ele>796.9</ele>
        <time>2023-05-21T13:10:03Z</time>
      </trkpt>
      <trkpt lat="47.80675" lon="7.05515">
        <ele>795.9</ele>
        <time>2023-05-21T13:10:11Z</time>
      </trkpt>
      <trkpt lat="47.80674" lon="7.05522">
        <ele>795.4</ele>
        <time>2023-05-21T13:10:14Z</time>
      </trkpt>
      <trkpt lat="47.80675" lon="7.05531">
        <ele>793.6</ele>
        <time>2023-05-21T13:10:21Z</time>
      </trkpt>
      <trkpt lat="47.8067" lon="7.05568">
        <ele>790.6</ele>
        <time>2023-05-21T13:10:41Z</time>
      </trkpt>
      <trkpt lat="47.80667" lon="7.0558">
        <ele>790.3</ele>
        <time>2023-05-21T13:10:49Z</time>
      </trkpt>
      <trkpt lat="47.80666" lon="7.05617">
        <ele>786.8</ele>
        <time>2023-05-21T13:11:09Z</time>
      </trkpt>
      <trkpt lat="47.80667" lon="7.05624">
        <ele>785.9</ele>
        <time>2023-05-21T13:11:13Z</time>
      </trkpt>
      <trkpt lat="47.80667" lon="7.05641">
        <ele>784.7</ele>
        <time>2023-05-21T13:11:25Z</time>
      </trkpt>
      <trkpt lat="47.80669" lon="7.05652">
        <ele>783</ele>
        <time>2023-05-21T13:11:32Z</time>
      </trkpt>
      <trkpt lat="47.80669" lon="7.05658">
        <ele>782.6</ele>
        <time>2023-05-21T13:11:36Z</time>
      </trkpt>
      <trkpt lat="47.8067" lon="7.05665">
        <ele>781.7</ele>
        <time>2023-05-21T13:11:40Z</time>
      </trkpt>
      <trkpt lat="47.80667" lon="7.0568">
        <ele>781.9</ele>
        <time>2023-05-21T13:11:50Z</time>
      </trkpt>
      <trkpt lat="47.80674" lon="7.05719">
        <ele>776.9</ele>
        <time>2023-05-21T13:12:15Z</time>
      </trkpt>
      <trkpt lat="47.80678" lon="7.05724">
        <ele>775.1</ele>
        <time>2023-05-21T13:12:19Z</time>
      </trkpt>
      <trkpt lat="47.8068" lon="7.05741">
        <ele>773.9</ele>
        <time>2023-05-21T13:12:33Z</time>
      </trkpt>
      <trkpt lat="47.80683" lon="7.05748">
        <ele>772.6</ele>
        <time>2023-05-21T13:12:38Z</time>
      </trkpt>
      <trkpt lat="47.80688" lon="7.05804">
        <ele>769.4</ele>
        <time>2023-05-21T13:13:10Z</time>
      </trkpt>
      <trkpt lat="47.80697" lon="7.05831">
        <ele>765.8</ele>
        <time>2023-05-21T13:13:28Z</time>
      </trkpt>
      <trkpt lat="47.80695" lon="7.05845">
        <ele>765.9</ele>
        <time>2023-05-21T13:13:36Z</time>
      </trkpt>
      <trkpt lat="47.80697" lon="7.05854">
        <ele>764.5</ele>
        <time>2023-05-21T13:13:42Z</time>
      </trkpt>
      <trkpt lat="47.80705" lon="7.05874">
        <ele>761.1</ele>
        <time>2023-05-21T13:13:56Z</time>
      </trkpt>
      <trkpt lat="47.80705" lon="7.05881">
        <ele>761</ele>
        <time>2023-05-21T13:14:00Z</time>
      </trkpt>
      <trkpt lat="47.80709" lon="7.05894">
        <ele>759.4</ele>
        <time>2023-05-21T13:14:09Z</time>
      </trkpt>
      <trkpt lat="47.80708" lon="7.05902">
        <ele>758.9</ele>
        <time>2023-05-21T13:14:13Z</time>
      </trkpt>
      <trkpt lat="47.8071" lon="7.05909">
        <ele>757.9</ele>
        <time>2023-05-21T13:14:17Z</time>
      </trkpt>
      <trkpt lat="47.80708" lon="7.05916">
        <ele>757.6</ele>
        <time>2023-05-21T13:14:20Z</time>
      </trkpt>
      <trkpt lat="47.80696" lon="7.05929">
        <ele>755.8</ele>
        <time>2023-05-21T13:14:30Z</time>
      </trkpt>
      <trkpt lat="47.80664" lon="7.0594">
        <ele>747.9</ele>
        <time>2023-05-21T13:14:58Z</time>
      </trkpt>
      <trkpt lat="47.80653" lon="7.0594">
        <ele>746.2</ele>
        <time>2023-05-21T13:15:05Z</time>
      </trkpt>
      <trkpt lat="47.80648" lon="7.05938">
        <ele>746</ele>
        <time>2023-05-21T13:15:08Z</time>
      </trkpt>
      <trkpt lat="47.80644" lon="7.05938">
        <ele>745.4</ele>
        <time>2023-05-21T13:15:11Z</time>
      </trkpt>
      <trkpt lat="47.80638" lon="7.05934">
        <ele>745.5</ele>
        <time>2023-05-21T13:15:18Z</time>
      </trkpt>
      <trkpt lat="47.80634" lon="7.05937">
        <ele>744.4</ele>
        <time>2023-05-21T13:15:22Z</time>
      </trkpt>
      <trkpt lat="47.80628" lon="7.05936">
        <ele>744</ele>
        <time>2023-05-21T13:15:25Z</time>
      </trkpt>
      <trkpt lat="47.80625" lon="7.05934">
        <ele>744.1</ele>
        <time>2023-05-21T13:15:28Z</time>
      </trkpt>
      <trkpt lat="47.8062" lon="7.05936">
        <ele>743.1</ele>
        <time>2023-05-21T13:15:32Z</time>
      </trkpt>
      <trkpt lat="47.80614" lon="7.05936">
        <ele>742.5</ele>
        <time>2023-05-21T13:15:36Z</time>
      </trkpt>
      <trkpt lat="47.8061" lon="7.05932">
        <ele>742.8</ele>
        <time>2023-05-21T13:15:41Z</time>
      </trkpt>
      <trkpt lat="47.80601" lon="7.05929">
        <ele>742.9</ele>
        <time>2023-05-21T13:15:47Z</time>
      </trkpt>
      <trkpt lat="47.80597" lon="7.05925">
        <ele>742.8</ele>
        <time>2023-05-21T13:15:52Z</time>
      </trkpt>
      <trkpt lat="47.80596" lon="7.05934">
        <ele>742.7</ele>
        <time>2023-05-21T13:15:59Z</time>
      </trkpt>
      <trkpt lat="47.80597" lon="7.0594">
        <ele>742.6</ele>
        <time>2023-05-21T13:16:03Z</time>
      </trkpt>
      <trkpt lat="47.806" lon="7.05947">
        <ele>741.9</ele>
        <time>2023-05-21T13:16:08Z</time>
      </trkpt>
      <trkpt lat="47.80601" lon="7.05957">
        <ele>740.5</ele>
        <time>2023-05-21T13:16:14Z</time>
      </trkpt>
      <trkpt lat="47.80599" lon="7.05971">
        <ele>739.2</ele>
        <time>2023-05-21T13:16:22Z</time>
      </trkpt>
      <trkpt lat="47.80594" lon="7.05983">
        <ele>738.4</ele>
        <time>2023-05-21T13:16:28Z</time>
      </trkpt>
      <trkpt lat="47.80587" lon="7.0599">
        <ele>738.9</ele>
        <time>2023-05-21T13:16:35Z</time>
      </trkpt>
      <trkpt lat="47.80584" lon="7.05997">
        <ele>738.4</ele>
        <time>2023-05-21T13:16:40Z</time>
      </trkpt>
      <trkpt lat="47.80579" lon="7.06">
        <ele>738.6</ele>
        <time>2023-05-21T13:16:43Z</time>
      </trkpt>
      <trkpt lat="47.80575" lon="7.06001">
        <ele>739</ele>
        <time>2023-05-21T13:16:46Z</time>
      </trkpt>
      <trkpt lat="47.80571" lon="7.06005">
        <ele>738.8</ele>
        <time>2023-05-21T13:16:49Z</time>
      </trkpt>
      <trkpt lat="47.80568" lon="7.06011">
        <ele>738.1</ele>
        <time>2023-05-21T13:16:53Z</time>
      </trkpt>
      <trkpt lat="47.80564" lon="7.06013">
        <ele>738.5</ele>
        <time>2023-05-21T13:16:57Z</time>
      </trkpt>
      <trkpt lat="47.80558" lon="7.06016">
        <ele>739.2</ele>
        <time>2023-05-21T13:17:03Z</time>
      </trkpt>
      <trkpt lat="47.80557" lon="7.06031">
        <ele>737.2</ele>
        <time>2023-05-21T13:17:12Z</time>
      </trkpt>
      <trkpt lat="47.80555" lon="7.06057">
        <ele>733.7</ele>
        <time>2023-05-21T13:17:26Z</time>
      </trkpt>
      <trkpt lat="47.8055" lon="7.06063">
        <ele>732.9</ele>
        <time>2023-05-21T13:17:33Z</time>
      </trkpt>
      <trkpt lat="47.80543" lon="7.06075">
        <ele>730.9</ele>
        <time>2023-05-21T13:17:41Z</time>
      </trkpt>
      <trkpt lat="47.80535" lon="7.06081">
        <ele>730.5</ele>
        <time>2023-05-21T13:17:48Z</time>
      </trkpt>
      <trkpt lat="47.80531" lon="7.06085">
        <ele>730.1</ele>
        <time>2023-05-21T13:17:52Z</time>
      </trkpt>
      <trkpt lat="47.80521" lon="7.0609">
        <ele>728.9</ele>
        <time>2023-05-21T13:18:00Z</time>
      </trkpt>
      <trkpt lat="47.80495" lon="7.06096">
        <ele>725.7</ele>
        <time>2023-05-21T13:18:22Z</time>
      </trkpt>
      <trkpt lat="47.80457" lon="7.06093">
        <ele>720.5</ele>
        <time>2023-05-21T13:18:53Z</time>
      </trkpt>
      <trkpt lat="47.80439" lon="7.06086">
        <ele>718.7</ele>
        <time>2023-05-21T13:19:08Z</time>
      </trkpt>
      <trkpt lat="47.80429" lon="7.06084">
        <ele>717.6</ele>
        <time>2023-05-21T13:19:16Z</time>
      </trkpt>
      <trkpt lat="47.80425" lon="7.06087">
        <ele>716.5</ele>
        <time>2023-05-21T13:19:21Z</time>
      </trkpt>
      <trkpt lat="47.80419" lon="7.06086">
        <ele>715.8</ele>
        <time>2023-05-21T13:19:25Z</time>
      </trkpt>
      <trkpt lat="47.8041" lon="7.0609">
        <ele>713.8</ele>
        <time>2023-05-21T13:19:33Z</time>
      </trkpt>
      <trkpt lat="47.80399" lon="7.06088">
        <ele>712.3</ele>
        <time>2023-05-21T13:19:41Z</time>
      </trkpt>
      <trkpt lat="47.80394" lon="7.06088">
        <ele>711.5</ele>
        <time>2023-05-21T13:19:44Z</time>
      </trkpt>
      <trkpt lat="47.80386" lon="7.06084">
        <ele>710.9</ele>
        <time>2023-05-21T13:19:53Z</time>
      </trkpt>
      <trkpt lat="47.8038" lon="7.06085">
        <ele>710.6</ele>
        <time>2023-05-21T13:19:57Z</time>
      </trkpt>
      <trkpt lat="47.80376" lon="7.0609">
        <ele>710.3</ele>
        <time>2023-05-21T13:20:01Z</time>
      </trkpt>
      <trkpt lat="47.80375" lon="7.06104">
        <ele>709.8</ele>
        <time>2023-05-21T13:20:09Z</time>
      </trkpt>
      <trkpt lat="47.8038" lon="7.06122">
        <ele>708.1</ele>
        <time>2023-05-21T13:20:25Z</time>
      </trkpt>
      <trkpt lat="47.8038" lon="7.06129">
        <ele>707.4</ele>
        <time>2023-05-21T13:20:29Z</time>
      </trkpt>
      <trkpt lat="47.80378" lon="7.06137">
        <ele>706.8</ele>
        <time>2023-05-21T13:20:34Z</time>
      </trkpt>
      <trkpt lat="47.80374" lon="7.06144">
        <ele>706.7</ele>
        <time>2023-05-21T13:20:39Z</time>
      </trkpt>
      <trkpt lat="47.80372" lon="7.06151">
        <ele>706.5</ele>
        <time>2023-05-21T13:20:43Z</time>
      </trkpt>
      <trkpt lat="47.80372" lon="7.06165">
        <ele>705.4</ele>
        <time>2023-05-21T13:20:50Z</time>
      </trkpt>
      <trkpt lat="47.80374" lon="7.0618">
        <ele>704.3</ele>
        <time>2023-05-21T13:20:58Z</time>
      </trkpt>
      <trkpt lat="47.80374" lon="7.06202">
        <ele>703.4</ele>
        <time>2023-05-21T13:21:12Z</time>
      </trkpt>
      <trkpt lat="47.80376" lon="7.06211">
        <ele>702.3</ele>
        <time>2023-05-21T13:21:18Z</time>
      </trkpt>
      <trkpt lat="47.80378" lon="7.06261">
        <ele>699.5</ele>
        <time>2023-05-21T13:21:47Z</time>
      </trkpt>
      <trkpt lat="47.80377" lon="7.06274">
        <ele>699.6</ele>
        <time>2023-05-21T13:21:55Z</time>
      </trkpt>
      <trkpt lat="47.80378" lon="7.06316">
        <ele>699.4</ele>
        <time>2023-05-21T13:22:18Z</time>
      </trkpt>
      <trkpt lat="47.80375" lon="7.06336">
        <ele>699.7</ele>
        <time>2023-05-21T13:22:30Z</time>
      </trkpt>
      <trkpt lat="47.80372" lon="7.06342">
        <ele>700.1</ele>
        <time>2023-05-21T13:22:34Z</time>
      </trkpt>
      <trkpt lat="47.80367" lon="7.06364">
        <ele>699.3</ele>
        <time>2023-05-21T13:22:47Z</time>
      </trkpt>
      <trkpt lat="47.80345" lon="7.06405">
        <ele>698.4</ele>
        <time>2023-05-21T13:23:13Z</time>
      </trkpt>
      <trkpt lat="47.80344" lon="7.06416">
        <ele>696.2</ele>
        <time>2023-05-21T13:23:21Z</time>
      </trkpt>
      <trkpt lat="47.80338" lon="7.06429">
        <ele>697.8</ele>
        <time>2023-05-21T13:23:29Z</time>
      </trkpt>
      <trkpt lat="47.80327" lon="7.06461">
        <ele>700.3</ele>
        <time>2023-05-21T13:23:48Z</time>
      </trkpt>
      <trkpt lat="47.80327" lon="7.06468">
        <ele>699.8</ele>
        <time>2023-05-21T13:23:52Z</time>
      </trkpt>
      <trkpt lat="47.80325" lon="7.06474">
        <ele>700.2</ele>
        <time>2023-05-21T13:23:56Z</time>
      </trkpt>
      <trkpt lat="47.80326" lon="7.06482">
        <ele>699.1</ele>
        <time>2023-05-21T13:24:00Z</time>
      </trkpt>
      <trkpt lat="47.80313" lon="7.06534">
        <ele>699.7</ele>
        <time>2023-05-21T13:24:34Z</time>
      </trkpt>
      <trkpt lat="47.80311" lon="7.0654">
        <ele>700.1</ele>
        <time>2023-05-21T13:24:37Z</time>
      </trkpt>
      <trkpt lat="47.80312" lon="7.06563">
        <ele>699.2</ele>
        <time>2023-05-21T13:24:49Z</time>
      </trkpt>
      <trkpt lat="47.80311" lon="7.06569">
        <ele>699.8</ele>
        <time>2023-05-21T13:24:52Z</time>
      </trkpt>
      <trkpt lat="47.80312" lon="7.06583">
        <ele>700.1</ele>
        <time>2023-05-21T13:25:00Z</time>
      </trkpt>
      <trkpt lat="47.80314" lon="7.06589">
        <ele>699.8</ele>
        <time>2023-05-21T13:25:04Z</time>
      </trkpt>
      <trkpt lat="47.80321" lon="7.066">
        <ele>698.5</ele>
        <time>2023-05-21T13:25:12Z</time>
      </trkpt>
      <trkpt lat="47.80326" lon="7.06612">
        <ele>698</ele>
        <time>2023-05-21T13:25:21Z</time>
      </trkpt>
      <trkpt lat="47.80333" lon="7.06624">
        <ele>697.9</ele>
        <time>2023-05-21T13:25:29Z</time>
      </trkpt>
      <trkpt lat="47.80339" lon="7.06629">
        <ele>696.3</ele>
        <time>2023-05-21T13:25:33Z</time>
      </trkpt>
      <trkpt lat="47.80343" lon="7.06635">
        <ele>695.4</ele>
        <time>2023-05-21T13:25:39Z</time>
      </trkpt>
      <trkpt lat="47.80361" lon="7.06659">
        <ele>689.5</ele>
        <time>2023-05-21T13:26:03Z</time>
      </trkpt>
      <trkpt lat="47.80362" lon="7.06665">
        <ele>689.4</ele>
        <time>2023-05-21T13:26:07Z</time>
      </trkpt>
      <trkpt lat="47.80376" lon="7.06688">
        <ele>683.1</ele>
        <time>2023-05-21T13:26:27Z</time>
      </trkpt>
      <trkpt lat="47.80375" lon="7.06726">
        <ele>683.7</ele>
        <time>2023-05-21T13:26:48Z</time>
      </trkpt>
      <trkpt lat="47.80377" lon="7.06733">
        <ele>682.3</ele>
        <time>2023-05-21T13:26:53Z</time>
      </trkpt>
      <trkpt lat="47.80377" lon="7.0674">
        <ele>681.8</ele>
        <time>2023-05-21T13:26:58Z</time>
      </trkpt>
      <trkpt lat="47.80376" lon="7.06757">
        <ele>679.9</ele>
        <time>2023-05-21T13:27:08Z</time>
      </trkpt>
      <trkpt lat="47.80374" lon="7.06765">
        <ele>678.5</ele>
        <time>2023-05-21T13:27:12Z</time>
      </trkpt>
      <trkpt lat="47.80371" lon="7.06769">
        <ele>678.3</ele>
        <time>2023-05-21T13:27:15Z</time>
      </trkpt>
      <trkpt lat="47.80352" lon="7.06782">
        <ele>677.8</ele>
        <time>2023-05-21T13:27:31Z</time>
      </trkpt>
      <trkpt lat="47.80327" lon="7.06811">
        <ele>670.3</ele>
        <time>2023-05-21T13:27:56Z</time>
      </trkpt>
      <trkpt lat="47.80323" lon="7.06814">
        <ele>669.6</ele>
        <time>2023-05-21T13:28:00Z</time>
      </trkpt>
      <trkpt lat="47.80318" lon="7.06815">
        <ele>670.2</ele>
        <time>2023-05-21T13:28:04Z</time>
      </trkpt>
      <trkpt lat="47.80311" lon="7.06824">
        <ele>667.7</ele>
        <time>2023-05-21T13:28:14Z</time>
      </trkpt>
      <trkpt lat="47.80308" lon="7.06829">
        <ele>666.2</ele>
        <time>2023-05-21T13:28:18Z</time>
      </trkpt>
      <trkpt lat="47.80279" lon="7.06859">
        <ele>663.5</ele>
        <time>2023-05-21T13:28:51Z</time>
      </trkpt>
      <trkpt lat="47.80272" lon="7.06868">
        <ele>663.5</ele>
        <time>2023-05-21T13:28:59Z</time>
      </trkpt>
      <trkpt lat="47.80267" lon="7.06889">
        <ele>660.2</ele>
        <time>2023-05-21T13:29:12Z</time>
      </trkpt>
      <trkpt lat="47.80269" lon="7.06903">
        <ele>658</ele>
        <time>2023-05-21T13:29:21Z</time>
      </trkpt>
      <trkpt lat="47.80278" lon="7.06924">
        <ele>651.9</ele>
        <time>2023-05-21T13:29:35Z</time>
      </trkpt>
      <trkpt lat="47.80279" lon="7.06933">
        <ele>651.3</ele>
        <time>2023-05-21T13:29:41Z</time>
      </trkpt>
      <trkpt lat="47.8028" lon="7.06953">
        <ele>649.9</ele>
        <time>2023-05-21T13:29:53Z</time>
      </trkpt>
      <trkpt lat="47.80276" lon="7.0701">
        <ele>645.2</ele>
        <time>2023-05-21T13:30:27Z</time>
      </trkpt>
      <trkpt lat="47.80275" lon="7.07024">
        <ele>643.5</ele>
        <time>2023-05-21T13:30:35Z</time>
      </trkpt>
      <trkpt lat="47.80266" lon="7.07044">
        <ele>640.5</ele>
        <time>2023-05-21T13:30:50Z</time>
      </trkpt>
      <trkpt lat="47.80254" lon="7.07058">
        <ele>640.5</ele>
        <time>2023-05-21T13:31:03Z</time>
      </trkpt>
      <trkpt lat="47.80252" lon="7.07065">
        <ele>638.7</ele>
        <time>2023-05-21T13:31:07Z</time>
      </trkpt>
      <trkpt lat="47.80248" lon="7.07067">
        <ele>639.3</ele>
        <time>2023-05-21T13:31:11Z</time>
      </trkpt>
      <trkpt lat="47.80244" lon="7.07075">
        <ele>637.5</ele>
        <time>2023-05-21T13:31:17Z</time>
      </trkpt>
      <trkpt lat="47.80241" lon="7.07079">
        <ele>637</ele>
        <time>2023-05-21T13:31:20Z</time>
      </trkpt>
      <trkpt lat="47.80239" lon="7.07085">
        <ele>635.5</ele>
        <time>2023-05-21T13:31:24Z</time>
      </trkpt>
      <trkpt lat="47.80237" lon="7.07093">
        <ele>633.1</ele>
        <time>2023-05-21T13:31:28Z</time>
      </trkpt>
      <trkpt lat="47.80225" lon="7.07109">
        <ele>630.1</ele>
        <time>2023-05-21T13:31:43Z</time>
      </trkpt>
      <trkpt lat="47.80208" lon="7.07138">
        <ele>624.4</ele>
        <time>2023-05-21T13:32:05Z</time>
      </trkpt>
      <trkpt lat="47.80205" lon="7.07141">
        <ele>624.7</ele>
        <time>2023-05-21T13:32:08Z</time>
      </trkpt>
      <trkpt lat="47.80202" lon="7.07148">
        <ele>624.1</ele>
        <time>2023-05-21T13:32:12Z</time>
      </trkpt>
      <trkpt lat="47.80199" lon="7.07162">
        <ele>622.1</ele>
        <time>2023-05-21T13:32:18Z</time>
      </trkpt>
      <trkpt lat="47.80197" lon="7.07168">
        <ele>621.5</ele>
        <time>2023-05-21T13:32:22Z</time>
      </trkpt>
      <trkpt lat="47.80194" lon="7.07172">
        <ele>621.4</ele>
        <time>2023-05-21T13:32:25Z</time>
      </trkpt>
      <trkpt lat="47.80189" lon="7.07173">
        <ele>620.3</ele>
        <time>2023-05-21T13:32:30Z</time>
      </trkpt>
      <trkpt lat="47.80183" lon="7.07169">
        <ele>620.3</ele>
        <time>2023-05-21T13:32:35Z</time>
      </trkpt>
      <trkpt lat="47.80179" lon="7.07169">
        <ele>619.6</ele>
        <time>2023-05-21T13:32:39Z</time>
      </trkpt>
      <trkpt lat="47.80175" lon="7.0717">
        <ele>618.7</ele>
        <time>2023-05-21T13:32:43Z</time>
      </trkpt>
      <trkpt lat="47.80171" lon="7.07172">
        <ele>617.6</ele>
        <time>2023-05-21T13:32:48Z</time>
      </trkpt>
      <trkpt lat="47.80152" lon="7.07197">
        <ele>612.2</ele>
        <time>2023-05-21T13:33:11Z</time>
      </trkpt>
      <trkpt lat="47.80151" lon="7.07203">
        <ele>611.5</ele>
        <time>2023-05-21T13:33:14Z</time>
      </trkpt>
      <trkpt lat="47.80137" lon="7.07225">
        <ele>611.2</ele>
        <time>2023-05-21T13:33:27Z</time>
      </trkpt>
      <trkpt lat="47.80128" lon="7.07229">
        <ele>611.8</ele>
        <time>2023-05-21T13:33:33Z</time>
      </trkpt>
      <trkpt lat="47.80124" lon="7.0723">
        <ele>612.1</ele>
        <time>2023-05-21T13:33:36Z</time>
      </trkpt>
      <trkpt lat="47.80119" lon="7.07234">
        <ele>612.7</ele>
        <time>2023-05-21T13:33:40Z</time>
      </trkpt>
      <trkpt lat="47.80113" lon="7.0724">
        <ele>613.8</ele>
        <time>2023-05-21T13:33:49Z</time>
      </trkpt>
      <trkpt lat="47.80108" lon="7.0725">
        <ele>615</ele>
        <time>2023-05-21T13:33:56Z</time>
      </trkpt>
      <trkpt lat="47.80084" lon="7.0728">
        <ele>618.1</ele>
        <time>2023-05-21T13:34:26Z</time>
      </trkpt>
      <trkpt lat="47.80067" lon="7.07296">
        <ele>618.1</ele>
        <time>2023-05-21T13:34:44Z</time>
      </trkpt>
      <trkpt lat="47.80058" lon="7.07307">
        <ele>619.3</ele>
        <time>2023-05-21T13:34:56Z</time>
      </trkpt>
      <trkpt lat="47.80052" lon="7.0731">
        <ele>619.2</ele>
        <time>2023-05-21T13:35:00Z</time>
      </trkpt>
      <trkpt lat="47.80043" lon="7.07321">
        <ele>619.8</ele>
        <time>2023-05-21T13:35:11Z</time>
      </trkpt>
      <trkpt lat="47.80035" lon="7.07328">
        <ele>619.9</ele>
        <time>2023-05-21T13:35:18Z</time>
      </trkpt>
      <trkpt lat="47.8003" lon="7.07338">
        <ele>621.1</ele>
        <time>2023-05-21T13:35:25Z</time>
      </trkpt>
      <trkpt lat="47.80025" lon="7.07341">
        <ele>620.8</ele>
        <time>2023-05-21T13:35:29Z</time>
      </trkpt>
      <trkpt lat="47.80021" lon="7.07346">
        <ele>620.8</ele>
        <time>2023-05-21T13:35:33Z</time>
      </trkpt>
      <trkpt lat="47.80017" lon="7.07349">
        <ele>620.5</ele>
        <time>2023-05-21T13:35:37Z</time>
      </trkpt>
      <trkpt lat="47.80014" lon="7.07355">
        <ele>620.9</ele>
        <time>2023-05-21T13:35:41Z</time>
      </trkpt>
      <trkpt lat="47.80009" lon="7.0736">
        <ele>620.7</ele>
        <time>2023-05-21T13:35:48Z</time>
      </trkpt>
      <trkpt lat="47.80005" lon="7.07362">
        <ele>620.2</ele>
        <time>2023-05-21T13:35:52Z</time>
      </trkpt>
      <trkpt lat="47.79998" lon="7.07375">
        <ele>620.2</ele>
        <time>2023-05-21T13:36:03Z</time>
      </trkpt>
      <trkpt lat="47.79995" lon="7.07387">
        <ele>620.8</ele>
        <time>2023-05-21T13:36:10Z</time>
      </trkpt>
      <trkpt lat="47.79991" lon="7.07393">
        <ele>619.8</ele>
        <time>2023-05-21T13:36:14Z</time>
      </trkpt>
      <trkpt lat="47.79989" lon="7.07404">
        <ele>619.9</ele>
        <time>2023-05-21T13:36:27Z</time>
      </trkpt>
      <trkpt lat="47.79975" lon="7.0743">
        <ele>617.5</ele>
        <time>2023-05-21T13:36:44Z</time>
      </trkpt>
      <trkpt lat="47.79961" lon="7.07469">
        <ele>617.1</ele>
        <time>2023-05-21T13:37:08Z</time>
      </trkpt>
      <trkpt lat="47.7995" lon="7.07492">
        <ele>615.3</ele>
        <time>2023-05-21T13:37:24Z</time>
      </trkpt>
      <trkpt lat="47.79945" lon="7.07506">
        <ele>614.9</ele>
        <time>2023-05-21T13:37:33Z</time>
      </trkpt>
      <trkpt lat="47.79939" lon="7.07517">
        <ele>614</ele>
        <time>2023-05-21T13:37:41Z</time>
      </trkpt>
      <trkpt lat="47.79934" lon="7.07522">
        <ele>612.9</ele>
        <time>2023-05-21T13:37:45Z</time>
      </trkpt>
      <trkpt lat="47.79932" lon="7.07529">
        <ele>613.1</ele>
        <time>2023-05-21T13:37:50Z</time>
      </trkpt>
      <trkpt lat="47.79924" lon="7.07538">
        <ele>611.2</ele>
        <time>2023-05-21T13:37:56Z</time>
      </trkpt>
      <trkpt lat="47.79922" lon="7.07543">
        <ele>610.9</ele>
        <time>2023-05-21T13:38:00Z</time>
      </trkpt>
      <trkpt lat="47.7992" lon="7.07551">
        <ele>610.9</ele>
        <time>2023-05-21T13:38:04Z</time>
      </trkpt>
      <trkpt lat="47.79918" lon="7.07557">
        <ele>610.5</ele>
        <time>2023-05-21T13:38:08Z</time>
      </trkpt>
      <trkpt lat="47.79911" lon="7.07607">
        <ele>607.1</ele>
        <time>2023-05-21T13:38:41Z</time>
      </trkpt>
      <trkpt lat="47.79912" lon="7.07616">
        <ele>607.7</ele>
        <time>2023-05-21T13:38:47Z</time>
      </trkpt>
      <trkpt lat="47.7991" lon="7.07623">
        <ele>606.7</ele>
        <time>2023-05-21T13:38:52Z</time>
      </trkpt>
      <trkpt lat="47.79909" lon="7.07629">
        <ele>606.3</ele>
        <time>2023-05-21T13:38:56Z</time>
      </trkpt>
      <trkpt lat="47.79904" lon="7.07641">
        <ele>604.2</ele>
        <time>2023-05-21T13:39:03Z</time>
      </trkpt>
      <trkpt lat="47.79898" lon="7.07669">
        <ele>603.4</ele>
        <time>2023-05-21T13:39:21Z</time>
      </trkpt>
      <trkpt lat="47.79895" lon="7.07673">
        <ele>602.3</ele>
        <time>2023-05-21T13:39:25Z</time>
      </trkpt>
      <trkpt lat="47.79893" lon="7.0768">
        <ele>601.9</ele>
        <time>2023-05-21T13:39:29Z</time>
      </trkpt>
      <trkpt lat="47.79892" lon="7.07687">
        <ele>601.9</ele>
        <time>2023-05-21T13:39:33Z</time>
      </trkpt>
      <trkpt lat="47.79883" lon="7.0771">
        <ele>599.7</ele>
        <time>2023-05-21T13:39:49Z</time>
      </trkpt>
      <trkpt lat="47.79879" lon="7.07716">
        <ele>598.6</ele>
        <time>2023-05-21T13:39:53Z</time>
      </trkpt>
      <trkpt lat="47.79849" lon="7.07753">
        <ele>588.7</ele>
        <time>2023-05-21T13:40:27Z</time>
      </trkpt>
      <trkpt lat="47.79845" lon="7.07756">
        <ele>587.3</ele>
        <time>2023-05-21T13:40:30Z</time>
      </trkpt>
      <trkpt lat="47.79841" lon="7.07758">
        <ele>586</ele>
        <time>2023-05-21T13:40:35Z</time>
      </trkpt>
      <trkpt lat="47.79832" lon="7.07767">
        <ele>583.2</ele>
        <time>2023-05-21T13:40:44Z</time>
      </trkpt>
      <trkpt lat="47.79821" lon="7.07771">
        <ele>580.2</ele>
        <time>2023-05-21T13:40:56Z</time>
      </trkpt>
      <trkpt lat="47.79797" lon="7.07769">
        <ele>574.3</ele>
        <time>2023-05-21T13:41:18Z</time>
      </trkpt>
      <trkpt lat="47.79794" lon="7.07764">
        <ele>573.4</ele>
        <time>2023-05-21T13:41:21Z</time>
      </trkpt>
      <trkpt lat="47.79791" lon="7.07757">
        <ele>572.4</ele>
        <time>2023-05-21T13:41:24Z</time>
      </trkpt>
      <trkpt lat="47.79778" lon="7.07751">
        <ele>569.2</ele>
        <time>2023-05-21T13:41:35Z</time>
      </trkpt>
      <trkpt lat="47.79765" lon="7.07739">
        <ele>566.3</ele>
        <time>2023-05-21T13:41:45Z</time>
      </trkpt>
      <trkpt lat="47.79761" lon="7.07737">
        <ele>565.6</ele>
        <time>2023-05-21T13:41:47Z</time>
      </trkpt>
      <trkpt lat="47.79752" lon="7.07729">
        <ele>563.4</ele>
        <time>2023-05-21T13:41:54Z</time>
      </trkpt>
      <trkpt lat="47.79748" lon="7.07726">
        <ele>562.5</ele>
        <time>2023-05-21T13:41:57Z</time>
      </trkpt>
      <trkpt lat="47.79742" lon="7.07719">
        <ele>560.7</ele>
        <time>2023-05-21T13:42:05Z</time>
      </trkpt>
      <trkpt lat="47.79737" lon="7.07717">
        <ele>559.9</ele>
        <time>2023-05-21T13:42:09Z</time>
      </trkpt>
      <trkpt lat="47.79732" lon="7.07715">
        <ele>559.1</ele>
        <time>2023-05-21T13:42:12Z</time>
      </trkpt>
      <trkpt lat="47.79728" lon="7.07712">
        <ele>558.2</ele>
        <time>2023-05-21T13:42:15Z</time>
      </trkpt>
      <trkpt lat="47.79709" lon="7.07711">
        <ele>554.9</ele>
        <time>2023-05-21T13:42:30Z</time>
      </trkpt>
      <trkpt lat="47.79704" lon="7.07711">
        <ele>553.9</ele>
        <time>2023-05-21T13:42:33Z</time>
      </trkpt>
      <trkpt lat="47.79694" lon="7.07708">
        <ele>551.3</ele>
        <time>2023-05-21T13:42:45Z</time>
      </trkpt>
      <trkpt lat="47.79687" lon="7.07708">
        <ele>549.7</ele>
        <time>2023-05-21T13:42:47Z</time>
      </trkpt>
      <trkpt lat="47.79678" lon="7.07713">
        <ele>548.4</ele>
        <time>2023-05-21T13:42:55Z</time>
      </trkpt>
      <trkpt lat="47.79662" lon="7.07724">
        <ele>545.8</ele>
        <time>2023-05-21T13:43:13Z</time>
      </trkpt>
      <trkpt lat="47.79653" lon="7.07727">
        <ele>543.6</ele>
        <time>2023-05-21T13:43:21Z</time>
      </trkpt>
      <trkpt lat="47.79649" lon="7.07731">
        <ele>542.9</ele>
        <time>2023-05-21T13:43:26Z</time>
      </trkpt>
      <trkpt lat="47.79646" lon="7.07735">
        <ele>542.4</ele>
        <time>2023-05-21T13:43:30Z</time>
      </trkpt>
      <trkpt lat="47.79636" lon="7.07743">
        <ele>540.4</ele>
        <time>2023-05-21T13:43:39Z</time>
      </trkpt>
      <trkpt lat="47.79634" lon="7.07753">
        <ele>540.8</ele>
        <time>2023-05-21T13:43:45Z</time>
      </trkpt>
      <trkpt lat="47.79631" lon="7.07758">
        <ele>540.2</ele>
        <time>2023-05-21T13:43:49Z</time>
      </trkpt>
      <trkpt lat="47.79629" lon="7.07766">
        <ele>540.1</ele>
        <time>2023-05-21T13:43:54Z</time>
      </trkpt>
      <trkpt lat="47.79624" lon="7.0777">
        <ele>538.8</ele>
        <time>2023-05-21T13:43:57Z</time>
      </trkpt>
      <trkpt lat="47.7961" lon="7.07799">
        <ele>534.8</ele>
        <time>2023-05-21T13:44:17Z</time>
      </trkpt>
      <trkpt lat="47.79607" lon="7.07807">
        <ele>534.2</ele>
        <time>2023-05-21T13:44:21Z</time>
      </trkpt>
      <trkpt lat="47.79604" lon="7.07813">
        <ele>533.5</ele>
        <time>2023-05-21T13:44:26Z</time>
      </trkpt>
      <trkpt lat="47.79602" lon="7.07821">
        <ele>532.8</ele>
        <time>2023-05-21T13:44:30Z</time>
      </trkpt>
      <trkpt lat="47.79598" lon="7.07832">
        <ele>531.7</ele>
        <time>2023-05-21T13:44:38Z</time>
      </trkpt>
      <trkpt lat="47.79596" lon="7.07844">
        <ele>530.1</ele>
        <time>2023-05-21T13:44:47Z</time>
      </trkpt>
      <trkpt lat="47.79586" lon="7.07868">
        <ele>524.7</ele>
        <time>2023-05-21T13:45:03Z</time>
      </trkpt>
      <trkpt lat="47.79579" lon="7.0788">
        <ele>521.1</ele>
        <time>2023-05-21T13:45:14Z</time>
      </trkpt>
      <trkpt lat="47.79576" lon="7.07884">
        <ele>519.6</ele>
        <time>2023-05-21T13:45:19Z</time>
      </trkpt>
      <trkpt lat="47.79571" lon="7.07886">
        <ele>517.9</ele>
        <time>2023-05-21T13:45:24Z</time>
      </trkpt>
      <trkpt lat="47.79564" lon="7.07885">
        <ele>516.1</ele>
        <time>2023-05-21T13:45:30Z</time>
      </trkpt>
      <trkpt lat="47.79555" lon="7.07881">
        <ele>514.2</ele>
        <time>2023-05-21T13:45:40Z</time>
      </trkpt>
      <trkpt lat="47.79549" lon="7.07882">
        <ele>511.9</ele>
        <time>2023-05-21T13:45:46Z</time>
      </trkpt>
      <trkpt lat="47.79545" lon="7.0789">
        <ele>509</ele>
        <time>2023-05-21T13:45:54Z</time>
      </trkpt>
      <trkpt lat="47.79546" lon="7.07906">
        <ele>506.5</ele>
        <time>2023-05-21T13:46:04Z</time>
      </trkpt>
      <trkpt lat="47.79551" lon="7.07914">
        <ele>506.8</ele>
        <time>2023-05-21T13:46:11Z</time>
      </trkpt>
      <trkpt lat="47.79552" lon="7.07921">
        <ele>505.8</ele>
        <time>2023-05-21T13:46:15Z</time>
      </trkpt>
      <trkpt lat="47.79558" lon="7.07935">
        <ele>504.8</ele>
        <time>2023-05-21T13:46:27Z</time>
      </trkpt>
      <trkpt lat="47.79561" lon="7.07951">
        <ele>502.8</ele>
        <time>2023-05-21T13:46:36Z</time>
      </trkpt>
      <trkpt lat="47.79557" lon="7.07985">
        <ele>496.5</ele>
        <time>2023-05-21T13:46:55Z</time>
      </trkpt>
      <trkpt lat="47.79559" lon="7.07992">
        <ele>496</ele>
        <time>2023-05-21T13:46:59Z</time>
      </trkpt>
      <trkpt lat="47.79555" lon="7.07998">
        <ele>494.1</ele>
        <time>2023-05-21T13:47:02Z</time>
      </trkpt>
      <trkpt lat="47.79556" lon="7.08004">
        <ele>493.5</ele>
        <time>2023-05-21T13:47:06Z</time>
      </trkpt>
      <trkpt lat="47.79554" lon="7.08017">
        <ele>491.2</ele>
        <time>2023-05-21T13:47:14Z</time>
      </trkpt>
      <trkpt lat="47.79554" lon="7.08025">
        <ele>490.1</ele>
        <time>2023-05-21T13:47:17Z</time>
      </trkpt>
      <trkpt lat="47.79554" lon="7.08032">
        <ele>489.4</ele>
        <time>2023-05-21T13:47:20Z</time>
      </trkpt>
      <trkpt lat="47.79554" lon="7.0804">
        <ele>488.8</ele>
        <time>2023-05-21T13:47:24Z</time>
      </trkpt>
      <trkpt lat="47.79548" lon="7.08053">
        <ele>486.6</ele>
        <time>2023-05-21T13:47:31Z</time>
      </trkpt>
      <trkpt lat="47.79548" lon="7.08059">
        <ele>486</ele>
        <time>2023-05-21T13:47:35Z</time>
      </trkpt>
      <trkpt lat="47.79546" lon="7.08067">
        <ele>484.7</ele>
        <time>2023-05-21T13:47:39Z</time>
      </trkpt>
      <trkpt lat="47.79543" lon="7.08072">
        <ele>483.7</ele>
        <time>2023-05-21T13:47:43Z</time>
      </trkpt>
      <trkpt lat="47.7954" lon="7.08079">
        <ele>482.7</ele>
        <time>2023-05-21T13:47:47Z</time>
      </trkpt>
      <trkpt lat="47.7954" lon="7.08093">
        <ele>481.6</ele>
        <time>2023-05-21T13:47:53Z</time>
      </trkpt>
      <trkpt lat="47.7953" lon="7.0811">
        <ele>479.3</ele>
        <time>2023-05-21T13:48:05Z</time>
      </trkpt>
      <trkpt lat="47.79524" lon="7.08129">
        <ele>477.2</ele>
        <time>2023-05-21T13:48:17Z</time>
      </trkpt>
      <trkpt lat="47.79521" lon="7.08134">
        <ele>476.5</ele>
        <time>2023-05-21T13:48:20Z</time>
      </trkpt>
      <trkpt lat="47.79516" lon="7.08136">
        <ele>475.8</ele>
        <time>2023-05-21T13:48:22Z</time>
      </trkpt>
      <trkpt lat="47.79512" lon="7.0814">
        <ele>475.2</ele>
        <time>2023-05-21T13:48:26Z</time>
      </trkpt>
      <trkpt lat="47.79506" lon="7.08153">
        <ele>473.6</ele>
        <time>2023-05-21T13:48:36Z</time>
      </trkpt>
      <trkpt lat="47.79502" lon="7.08167">
        <ele>472.2</ele>
        <time>2023-05-21T13:48:44Z</time>
      </trkpt>
      <trkpt lat="47.79498" lon="7.08175">
        <ele>471.6</ele>
        <time>2023-05-21T13:48:48Z</time>
      </trkpt>
      <trkpt lat="47.79494" lon="7.08178">
        <ele>471.3</ele>
        <time>2023-05-21T13:48:51Z</time>
      </trkpt>
      <trkpt lat="47.79492" lon="7.08185">
        <ele>471.1</ele>
        <time>2023-05-21T13:48:54Z</time>
      </trkpt>
      <trkpt lat="47.7949" lon="7.08192">
        <ele>471</ele>
        <time>2023-05-21T13:48:58Z</time>
      </trkpt>
      <trkpt lat="47.79489" lon="7.08206">
        <ele>471.3</ele>
        <time>2023-05-21T13:49:05Z</time>
      </trkpt>
      <trkpt lat="47.79486" lon="7.08213">
        <ele>471.7</ele>
        <time>2023-05-21T13:49:10Z</time>
      </trkpt>
      <trkpt lat="47.79477" lon="7.08217">
        <ele>472.3</ele>
        <time>2023-05-21T13:49:15Z</time>
      </trkpt>
      <trkpt lat="47.79474" lon="7.08217">
        <ele>472.5</ele>
        <time>2023-05-21T13:49:18Z</time>
      </trkpt>
      <trkpt lat="47.79469" lon="7.08215">
        <ele>472.7</ele>
        <time>2023-05-21T13:49:22Z</time>
      </trkpt>
      <trkpt lat="47.79464" lon="7.08216">
        <ele>473.1</ele>
        <time>2023-05-21T13:49:26Z</time>
      </trkpt>
      <trkpt lat="47.79458" lon="7.08217">
        <ele>473.6</ele>
        <time>2023-05-21T13:49:30Z</time>
      </trkpt>
      <trkpt lat="47.79452" lon="7.08216">
        <ele>474</ele>
        <time>2023-05-21T13:49:36Z</time>
      </trkpt>
      <trkpt lat="47.79441" lon="7.08221">
        <ele>474.9</ele>
        <time>2023-05-21T13:49:46Z</time>
      </trkpt>
      <trkpt lat="47.79437" lon="7.08222">
        <ele>475</ele>
        <time>2023-05-21T13:49:49Z</time>
      </trkpt>
      <trkpt lat="47.79432" lon="7.08226">
        <ele>475.4</ele>
        <time>2023-05-21T13:49:56Z</time>
      </trkpt>
      <trkpt lat="47.79426" lon="7.08227">
        <ele>475.6</ele>
        <time>2023-05-21T13:49:59Z</time>
      </trkpt>
      <trkpt lat="47.79422" lon="7.08229">
        <ele>475.9</ele>
        <time>2023-05-21T13:50:03Z</time>
      </trkpt>
      <trkpt lat="47.7941" lon="7.0823">
        <ele>476.1</ele>
        <time>2023-05-21T13:50:12Z</time>
      </trkpt>
      <trkpt lat="47.79403" lon="7.08234">
        <ele>476.7</ele>
        <time>2023-05-21T13:50:21Z</time>
      </trkpt>
      <trkpt lat="47.79397" lon="7.08229">
        <ele>476</ele>
        <time>2023-05-21T13:50:30Z</time>
      </trkpt>
      <trkpt lat="47.79386" lon="7.08225">
        <ele>475.1</ele>
        <time>2023-05-21T13:50:38Z</time>
      </trkpt>
      <trkpt lat="47.79381" lon="7.08227">
        <ele>474.8</ele>
        <time>2023-05-21T13:50:42Z</time>
      </trkpt>
      <trkpt lat="47.79378" lon="7.0823">
        <ele>474.9</ele>
        <time>2023-05-21T13:50:46Z</time>
      </trkpt>
      <trkpt lat="47.79367" lon="7.08232">
        <ele>474</ele>
        <time>2023-05-21T13:50:57Z</time>
      </trkpt>
      <trkpt lat="47.79362" lon="7.08236">
        <ele>474.1</ele>
        <time>2023-05-21T13:51:04Z</time>
      </trkpt>
      <trkpt lat="47.79356" lon="7.08241">
        <ele>473.9</ele>
        <time>2023-05-21T13:51:10Z</time>
      </trkpt>
      <trkpt lat="47.79348" lon="7.08251">
        <ele>474.2</ele>
        <time>2023-05-21T13:51:17Z</time>
      </trkpt>
      <trkpt lat="47.79342" lon="7.08253">
        <ele>473.6</ele>
        <time>2023-05-21T13:51:19Z</time>
      </trkpt>
      <trkpt lat="47.79338" lon="7.08257">
        <ele>473.6</ele>
        <time>2023-05-21T13:51:24Z</time>
      </trkpt>
      <trkpt lat="47.79318" lon="7.08265">
        <ele>473.1</ele>
        <time>2023-05-21T13:51:41Z</time>
      </trkpt>
      <trkpt lat="47.79312" lon="7.08264">
        <ele>472.5</ele>
        <time>2023-05-21T13:51:43Z</time>
      </trkpt>
      <trkpt lat="47.79308" lon="7.08261">
        <ele>471.8</ele>
        <time>2023-05-21T13:51:47Z</time>
      </trkpt>
      <trkpt lat="47.79304" lon="7.08265">
        <ele>472.1</ele>
        <time>2023-05-21T13:51:51Z</time>
      </trkpt>
      <trkpt lat="47.79283" lon="7.08262">
        <ele>470.9</ele>
        <time>2023-05-21T13:52:09Z</time>
      </trkpt>
      <trkpt lat="47.79278" lon="7.08264">
        <ele>471</ele>
        <time>2023-05-21T13:52:12Z</time>
      </trkpt>
      <trkpt lat="47.79262" lon="7.0827">
        <ele>471.5</ele>
        <time>2023-05-21T13:52:27Z</time>
      </trkpt>
      <trkpt lat="47.79257" lon="7.08274">
        <ele>471.8</ele>
        <time>2023-05-21T13:52:31Z</time>
      </trkpt>
      <trkpt lat="47.79247" lon="7.08274">
        <ele>471.5</ele>
        <time>2023-05-21T13:52:37Z</time>
      </trkpt>
      <trkpt lat="47.79238" lon="7.08276">
        <ele>471.4</ele>
        <time>2023-05-21T13:52:44Z</time>
      </trkpt>
      <trkpt lat="47.79226" lon="7.08275">
        <ele>470.9</ele>
        <time>2023-05-21T13:52:56Z</time>
      </trkpt>
      <trkpt lat="47.79215" lon="7.08278">
        <ele>470.5</ele>
        <time>2023-05-21T13:53:07Z</time>
      </trkpt>
      <trkpt lat="47.79209" lon="7.08279">
        <ele>470.1</ele>
        <time>2023-05-21T13:53:12Z</time>
      </trkpt>
      <trkpt lat="47.7919" lon="7.08289">
        <ele>468.8</ele>
        <time>2023-05-21T13:53:27Z</time>
      </trkpt>
      <trkpt lat="47.79183" lon="7.08293">
        <ele>468.1</ele>
        <time>2023-05-21T13:53:34Z</time>
      </trkpt>
      <trkpt lat="47.7916" lon="7.08305">
        <ele>466.2</ele>
        <time>2023-05-21T13:53:55Z</time>
      </trkpt>
      <trkpt lat="47.79155" lon="7.08305">
        <ele>465.7</ele>
        <time>2023-05-21T13:53:59Z</time>
      </trkpt>
      <trkpt lat="47.7915" lon="7.08307">
        <ele>465.3</ele>
        <time>2023-05-21T13:54:03Z</time>
      </trkpt>
      <trkpt lat="47.79139" lon="7.08316">
        <ele>464.8</ele>
        <time>2023-05-21T13:54:13Z</time>
      </trkpt>
      <trkpt lat="47.79133" lon="7.08315">
        <ele>464.2</ele>
        <time>2023-05-21T13:54:16Z</time>
      </trkpt>
      <trkpt lat="47.79123" lon="7.08323">
        <ele>464.3</ele>
        <time>2023-05-21T13:54:26Z</time>
      </trkpt>
      <trkpt lat="47.79112" lon="7.08328">
        <ele>464.3</ele>
        <time>2023-05-21T13:54:34Z</time>
      </trkpt>
      <trkpt lat="47.79096" lon="7.08334">
        <ele>464.5</ele>
        <time>2023-05-21T13:54:47Z</time>
      </trkpt>
      <trkpt lat="47.79092" lon="7.08339">
        <ele>464.7</ele>
        <time>2023-05-21T13:54:51Z</time>
      </trkpt>
      <trkpt lat="47.79083" lon="7.08346">
        <ele>464.9</ele>
        <time>2023-05-21T13:54:59Z</time>
      </trkpt>
      <trkpt lat="47.79079" lon="7.08351">
        <ele>464.8</ele>
        <time>2023-05-21T13:55:04Z</time>
      </trkpt>
      <trkpt lat="47.79075" lon="7.08361">
        <ele>465.4</ele>
        <time>2023-05-21T13:55:12Z</time>
      </trkpt>
      <trkpt lat="47.79051" lon="7.08402">
        <ele>465.9</ele>
        <time>2023-05-21T13:55:41Z</time>
      </trkpt>
      <trkpt lat="47.79046" lon="7.08406">
        <ele>465.9</ele>
        <time>2023-05-21T13:55:46Z</time>
      </trkpt>
      <trkpt lat="47.79038" lon="7.08416">
        <ele>466</ele>
        <time>2023-05-21T13:55:53Z</time>
      </trkpt>
      <trkpt lat="47.79007" lon="7.08444">
        <ele>466</ele>
        <time>2023-05-21T13:56:25Z</time>
      </trkpt>
      <trkpt lat="47.79002" lon="7.08447">
        <ele>466</ele>
        <time>2023-05-21T13:56:28Z</time>
      </trkpt>
      <trkpt lat="47.78999" lon="7.08453">
        <ele>466</ele>
        <time>2023-05-21T13:56:32Z</time>
      </trkpt>
      <trkpt lat="47.78998" lon="7.0846">
        <ele>466</ele>
        <time>2023-05-21T13:56:36Z</time>
      </trkpt>
      <trkpt lat="47.79" lon="7.0847">
        <ele>466</ele>
        <time>2023-05-21T13:56:44Z</time>
      </trkpt>
      <trkpt lat="47.7901" lon="7.08482">
        <ele>466</ele>
        <time>2023-05-21T13:56:57Z</time>
      </trkpt>
      <trkpt lat="47.79013" lon="7.08491">
        <ele>466</ele>
        <time>2023-05-21T13:57:03Z</time>
      </trkpt>
      <trkpt lat="47.79018" lon="7.08504">
        <ele>465.9</ele>
        <time>2023-05-21T13:57:11Z</time>
      </trkpt>
      <trkpt lat="47.79022" lon="7.0851">
        <ele>465.6</ele>
        <time>2023-05-21T13:57:15Z</time>
      </trkpt>
      <trkpt lat="47.79023" lon="7.08516">
        <ele>465.4</ele>
        <time>2023-05-21T13:57:19Z</time>
      </trkpt>
      <trkpt lat="47.7903" lon="7.08527">
        <ele>464.9</ele>
        <time>2023-05-21T13:57:27Z</time>
      </trkpt>
      <trkpt lat="47.79041" lon="7.08547">
        <ele>463</ele>
        <time>2023-05-21T13:57:44Z</time>
      </trkpt>
      <trkpt lat="47.79045" lon="7.08551">
        <ele>462.6</ele>
        <time>2023-05-21T13:57:48Z</time>
      </trkpt>
      <trkpt lat="47.79051" lon="7.08554">
        <ele>462.2</ele>
        <time>2023-05-21T13:57:52Z</time>
      </trkpt>
      <trkpt lat="47.79055" lon="7.08562">
        <ele>461.8</ele>
        <time>2023-05-21T13:57:57Z</time>
      </trkpt>
      <trkpt lat="47.79055" lon="7.08569">
        <ele>461.5</ele>
        <time>2023-05-21T13:58:00Z</time>
      </trkpt>
      <trkpt lat="47.79059" lon="7.08573">
        <ele>461.1</ele>
        <time>2023-05-21T13:58:03Z</time>
      </trkpt>
      <trkpt lat="47.79064" lon="7.08574">
        <ele>460.7</ele>
        <time>2023-05-21T13:58:05Z</time>
      </trkpt>
      <trkpt lat="47.79062" lon="7.08585">
        <ele>460.5</ele>
        <time>2023-05-21T13:58:13Z</time>
      </trkpt>
      <trkpt lat="47.79063" lon="7.08591">
        <ele>460.2</ele>
        <time>2023-05-21T13:58:17Z</time>
      </trkpt>
      <trkpt lat="47.79075" lon="7.08616">
        <ele>458.2</ele>
        <time>2023-05-21T13:58:35Z</time>
      </trkpt>
      <trkpt lat="47.79076" lon="7.08622">
        <ele>457.7</ele>
        <time>2023-05-21T13:58:39Z</time>
      </trkpt>
      <trkpt lat="47.79094" lon="7.08652">
        <ele>454.4</ele>
        <time>2023-05-21T13:59:03Z</time>
      </trkpt>
      <trkpt lat="47.79092" lon="7.08658">
        <ele>454.4</ele>
        <time>2023-05-21T13:59:06Z</time>
      </trkpt>
      <trkpt lat="47.79093" lon="7.08673">
        <ele>453.6</ele>
        <time>2023-05-21T13:59:13Z</time>
      </trkpt>
      <trkpt lat="47.79093" lon="7.08679">
        <ele>453.2</ele>
        <time>2023-05-21T13:59:16Z</time>
      </trkpt>
      <trkpt lat="47.79095" lon="7.08686">
        <ele>452.6</ele>
        <time>2023-05-21T13:59:19Z</time>
      </trkpt>
      <trkpt lat="47.79093" lon="7.087">
        <ele>451.9</ele>
        <time>2023-05-21T13:59:27Z</time>
      </trkpt>
      <trkpt lat="47.79096" lon="7.08706">
        <ele>451.3</ele>
        <time>2023-05-21T13:59:31Z</time>
      </trkpt>
      <trkpt lat="47.79095" lon="7.08713">
        <ele>450.8</ele>
        <time>2023-05-21T13:59:35Z</time>
      </trkpt>
      <trkpt lat="47.79099" lon="7.08727">
        <ele>449.6</ele>
        <time>2023-05-21T13:59:42Z</time>
      </trkpt>
      <trkpt lat="47.79099" lon="7.08735">
        <ele>449.2</ele>
        <time>2023-05-21T13:59:47Z</time>
      </trkpt>
      <trkpt lat="47.79095" lon="7.08748">
        <ele>448.7</ele>
        <time>2023-05-21T13:59:53Z</time>
      </trkpt>
      <trkpt lat="47.79097" lon="7.08756">
        <ele>448.1</ele>
        <time>2023-05-21T13:59:57Z</time>
      </trkpt>
      <trkpt lat="47.79102" lon="7.08768">
        <ele>447</ele>
        <time>2023-05-21T14:00:05Z</time>
      </trkpt>
      <trkpt lat="47.79103" lon="7.08776">
        <ele>446.4</ele>
        <time>2023-05-21T14:00:09Z</time>
      </trkpt>
      <trkpt lat="47.79108" lon="7.08795">
        <ele>444.9</ele>
        <time>2023-05-21T14:00:21Z</time>
      </trkpt>
      <trkpt lat="47.79107" lon="7.08802">
        <ele>444.4</ele>
        <time>2023-05-21T14:00:26Z</time>
      </trkpt>
      <trkpt lat="47.79112" lon="7.08816">
        <ele>443.6</ele>
        <time>2023-05-21T14:00:33Z</time>
      </trkpt>
      <trkpt lat="47.79111" lon="7.08838">
        <ele>442.7</ele>
        <time>2023-05-21T14:00:45Z</time>
      </trkpt>
      <trkpt lat="47.7911" lon="7.08846">
        <ele>442.1</ele>
        <time>2023-05-21T14:00:49Z</time>
      </trkpt>
      <trkpt lat="47.79112" lon="7.08853">
        <ele>441.5</ele>
        <time>2023-05-21T14:00:54Z</time>
      </trkpt>
      <trkpt lat="47.79112" lon="7.0886">
        <ele>441</ele>
        <time>2023-05-21T14:00:57Z</time>
      </trkpt>
      <trkpt lat="47.79118" lon="7.08885">
        <ele>439</ele>
        <time>2023-05-21T14:01:10Z</time>
      </trkpt>
      <trkpt lat="47.79118" lon="7.08894">
        <ele>438.6</ele>
        <time>2023-05-21T14:01:15Z</time>
      </trkpt>
      <trkpt lat="47.79121" lon="7.089">
        <ele>438.2</ele>
        <time>2023-05-21T14:01:20Z</time>
      </trkpt>
      <trkpt lat="47.7912" lon="7.08907">
        <ele>438</ele>
        <time>2023-05-21T14:01:23Z</time>
      </trkpt>
      <trkpt lat="47.7912" lon="7.08923">
        <ele>437.3</ele>
        <time>2023-05-21T14:01:31Z</time>
      </trkpt>
      <trkpt lat="47.79126" lon="7.08941">
        <ele>436.2</ele>
        <time>2023-05-21T14:01:40Z</time>
      </trkpt>
      <trkpt lat="47.79126" lon="7.08955">
        <ele>435.6</ele>
        <time>2023-05-21T14:01:48Z</time>
      </trkpt>
      <trkpt lat="47.79134" lon="7.09006">
        <ele>433.6</ele>
        <time>2023-05-21T14:02:20Z</time>
      </trkpt>
      <trkpt lat="47.79139" lon="7.09019">
        <ele>433.3</ele>
        <time>2023-05-21T14:02:28Z</time>
      </trkpt>
      <trkpt lat="47.79141" lon="7.09054">
        <ele>431.8</ele>
        <time>2023-05-21T14:02:48Z</time>
      </trkpt>
      <trkpt lat="47.7914" lon="7.09062">
        <ele>431.6</ele>
        <time>2023-05-21T14:02:52Z</time>
      </trkpt>
      <trkpt lat="47.7914" lon="7.09084">
        <ele>430.9</ele>
        <time>2023-05-21T14:03:04Z</time>
      </trkpt>
      <trkpt lat="47.79137" lon="7.09098">
        <ele>430.4</ele>
        <time>2023-05-21T14:03:12Z</time>
      </trkpt>
      <trkpt lat="47.79137" lon="7.09105">
        <ele>430.2</ele>
        <time>2023-05-21T14:03:16Z</time>
      </trkpt>
      <trkpt lat="47.79139" lon="7.0912">
        <ele>429.7</ele>
        <time>2023-05-21T14:03:24Z</time>
      </trkpt>
      <trkpt lat="47.79139" lon="7.09137">
        <ele>429.1</ele>
        <time>2023-05-21T14:03:34Z</time>
      </trkpt>
      <trkpt lat="47.79139" lon="7.09143">
        <ele>428.7</ele>
        <time>2023-05-21T14:03:38Z</time>
      </trkpt>
      <trkpt lat="47.79136" lon="7.09156">
        <ele>427.7</ele>
        <time>2023-05-21T14:03:45Z</time>
      </trkpt>
      <trkpt lat="47.79136" lon="7.09163">
        <ele>427.3</ele>
        <time>2023-05-21T14:03:48Z</time>
      </trkpt>
      <trkpt lat="47.79135" lon="7.0917">
        <ele>426.9</ele>
        <time>2023-05-21T14:03:51Z</time>
      </trkpt>
      <trkpt lat="47.79137" lon="7.09183">
        <ele>426.4</ele>
        <time>2023-05-21T14:04:00Z</time>
      </trkpt>
      <trkpt lat="47.79132" lon="7.09223">
        <ele>424</ele>
        <time>2023-05-21T14:04:26Z</time>
      </trkpt>
      <trkpt lat="47.79133" lon="7.09229">
        <ele>423.8</ele>
        <time>2023-05-21T14:04:30Z</time>
      </trkpt>
      <trkpt lat="47.7913" lon="7.09242">
        <ele>423.3</ele>
        <time>2023-05-21T14:04:38Z</time>
      </trkpt>
      <trkpt lat="47.79131" lon="7.09251">
        <ele>422.9</ele>
        <time>2023-05-21T14:04:44Z</time>
      </trkpt>
      <trkpt lat="47.79131" lon="7.09259">
        <ele>422.4</ele>
        <time>2023-05-21T14:04:49Z</time>
      </trkpt>
      <trkpt lat="47.79133" lon="7.09265">
        <ele>421.9</ele>
        <time>2023-05-21T14:04:53Z</time>
      </trkpt>
      <trkpt lat="47.79131" lon="7.09284">
        <ele>420.4</ele>
        <time>2023-05-21T14:05:04Z</time>
      </trkpt>
      <trkpt lat="47.79131" lon="7.09306">
        <ele>418.3</ele>
        <time>2023-05-21T14:05:16Z</time>
      </trkpt>
      <trkpt lat="47.7913" lon="7.09319">
        <ele>417.4</ele>
        <time>2023-05-21T14:05:24Z</time>
      </trkpt>
      <trkpt lat="47.79131" lon="7.09326">
        <ele>416.8</ele>
        <time>2023-05-21T14:05:29Z</time>
      </trkpt>
      <trkpt lat="47.79132" lon="7.09333">
        <ele>416.3</ele>
        <time>2023-05-21T14:05:33Z</time>
      </trkpt>
      <trkpt lat="47.79132" lon="7.09343">
        <ele>415.6</ele>
        <time>2023-05-21T14:05:39Z</time>
      </trkpt>
      <trkpt lat="47.79135" lon="7.09359">
        <ele>414.3</ele>
        <time>2023-05-21T14:05:48Z</time>
      </trkpt>
      <trkpt lat="47.79135" lon="7.09367">
        <ele>413.5</ele>
        <time>2023-05-21T14:05:52Z</time>
      </trkpt>
      <trkpt lat="47.79133" lon="7.09374">
        <ele>412.9</ele>
        <time>2023-05-21T14:05:57Z</time>
      </trkpt>
      <trkpt lat="47.79132" lon="7.0939">
        <ele>411.4</ele>
        <time>2023-05-21T14:06:05Z</time>
      </trkpt>
      <trkpt lat="47.7913" lon="7.09404">
        <ele>410.6</ele>
        <time>2023-05-21T14:06:12Z</time>
      </trkpt>
      <trkpt lat="47.79127" lon="7.09414">
        <ele>410</ele>
        <time>2023-05-21T14:06:19Z</time>
      </trkpt>
      <trkpt lat="47.79128" lon="7.09429">
        <ele>408.9</ele>
        <time>2023-05-21T14:06:28Z</time>
      </trkpt>
      <trkpt lat="47.7913" lon="7.09434">
        <ele>408.4</ele>
        <time>2023-05-21T14:06:32Z</time>
      </trkpt>
      <trkpt lat="47.79129" lon="7.09444">
        <ele>407.7</ele>
        <time>2023-05-21T14:06:38Z</time>
      </trkpt>
      <trkpt lat="47.79131" lon="7.09452">
        <ele>406.8</ele>
        <time>2023-05-21T14:06:41Z</time>
      </trkpt>
      <trkpt lat="47.7913" lon="7.09474">
        <ele>404.8</ele>
        <time>2023-05-21T14:06:53Z</time>
      </trkpt>
      <trkpt lat="47.79128" lon="7.09495">
        <ele>403.5</ele>
        <time>2023-05-21T14:07:02Z</time>
      </trkpt>
      <trkpt lat="47.79131" lon="7.095">
        <ele>402.9</ele>
        <time>2023-05-21T14:07:06Z</time>
      </trkpt>
      <trkpt lat="47.79135" lon="7.09503">
        <ele>402.2</ele>
        <time>2023-05-21T14:07:11Z</time>
      </trkpt>
      <trkpt lat="47.79138" lon="7.0951">
        <ele>401.4</ele>
        <time>2023-05-21T14:07:16Z</time>
      </trkpt>
      <trkpt lat="47.79141" lon="7.09515">
        <ele>400.6</ele>
        <time>2023-05-21T14:07:20Z</time>
      </trkpt>
      <trkpt lat="47.79147" lon="7.09515">
        <ele>399.8</ele>
        <time>2023-05-21T14:07:24Z</time>
      </trkpt>
      <trkpt lat="47.79151" lon="7.09518">
        <ele>399</ele>
        <time>2023-05-21T14:07:28Z</time>
      </trkpt>
      <trkpt lat="47.79155" lon="7.09511">
        <ele>398.9</ele>
        <time>2023-05-21T14:07:36Z</time>
      </trkpt>
      <trkpt lat="47.79164" lon="7.09512">
        <ele>397.5</ele>
        <time>2023-05-21T14:07:45Z</time>
      </trkpt>
      <trkpt lat="47.79179" lon="7.09526">
        <ele>393.9</ele>
        <time>2023-05-21T14:07:56Z</time>
      </trkpt>
      <trkpt lat="47.79196" lon="7.09531">
        <ele>390.6</ele>
        <time>2023-05-21T14:08:12Z</time>
      </trkpt>
      <trkpt lat="47.79201" lon="7.0953">
        <ele>389.7</ele>
        <time>2023-05-21T14:08:15Z</time>
      </trkpt>
      <trkpt lat="47.79206" lon="7.09532">
        <ele>388.8</ele>
        <time>2023-05-21T14:08:24Z</time>
      </trkpt>
      <trkpt lat="47.79216" lon="7.09519">
        <ele>387.4</ele>
        <time>2023-05-21T14:08:39Z</time>
      </trkpt>
      <trkpt lat="47.79221" lon="7.09519">
        <ele>386.5</ele>
        <time>2023-05-21T14:08:42Z</time>
      </trkpt>
      <trkpt lat="47.79238" lon="7.09536">
        <ele>383.4</ele>
        <time>2023-05-21T14:08:57Z</time>
      </trkpt>
      <trkpt lat="47.79242" lon="7.09542">
        <ele>382.6</ele>
        <time>2023-05-21T14:09:00Z</time>
      </trkpt>
      <trkpt lat="47.7925" lon="7.09558">
        <ele>380.9</ele>
        <time>2023-05-21T14:09:12Z</time>
      </trkpt>
      <trkpt lat="47.79255" lon="7.09561">
        <ele>380.1</ele>
        <time>2023-05-21T14:09:15Z</time>
      </trkpt>
      <trkpt lat="47.7926" lon="7.09574">
        <ele>378.9</ele>
        <time>2023-05-21T14:09:23Z</time>
      </trkpt>
      <trkpt lat="47.79279" lon="7.09599">
        <ele>374.6</ele>
        <time>2023-05-21T14:09:44Z</time>
      </trkpt>
      <trkpt lat="47.79284" lon="7.09602">
        <ele>373.5</ele>
        <time>2023-05-21T14:09:48Z</time>
      </trkpt>
      <trkpt lat="47.79287" lon="7.09608">
        <ele>372.5</ele>
        <time>2023-05-21T14:09:53Z</time>
      </trkpt>
      <trkpt lat="47.793" lon="7.0962">
        <ele>369.7</ele>
        <time>2023-05-21T14:10:04Z</time>
      </trkpt>
      <trkpt lat="47.7932" lon="7.09646">
        <ele>367.4</ele>
        <time>2023-05-21T14:10:25Z</time>
      </trkpt>
      <trkpt lat="47.79332" lon="7.09657">
        <ele>367</ele>
        <time>2023-05-21T14:10:35Z</time>
      </trkpt>
      <trkpt lat="47.79336" lon="7.09658">
        <ele>367.1</ele>
        <time>2023-05-21T14:10:38Z</time>
      </trkpt>
      <trkpt lat="47.7934" lon="7.0966">
        <ele>367.2</ele>
        <time>2023-05-21T14:10:41Z</time>
      </trkpt>
      <trkpt lat="47.79349" lon="7.09669">
        <ele>367.5</ele>
        <time>2023-05-21T14:10:49Z</time>
      </trkpt>
      <trkpt lat="47.79351" lon="7.09676">
        <ele>367.5</ele>
        <time>2023-05-21T14:10:53Z</time>
      </trkpt>
      <trkpt lat="47.7935" lon="7.09683">
        <ele>367.4</ele>
        <time>2023-05-21T14:10:56Z</time>
      </trkpt>
      <trkpt lat="47.79348" lon="7.09697">
        <ele>367.1</ele>
        <time>2023-05-21T14:11:02Z</time>
      </trkpt>
      <trkpt lat="47.79346" lon="7.09703">
        <ele>366.9</ele>
        <time>2023-05-21T14:11:05Z</time>
      </trkpt>
      <trkpt lat="47.79345" lon="7.09709">
        <ele>366.8</ele>
        <time>2023-05-21T14:11:08Z</time>
      </trkpt>
      <trkpt lat="47.79342" lon="7.09715">
        <ele>366.6</ele>
        <time>2023-05-21T14:11:12Z</time>
      </trkpt>
      <trkpt lat="47.79341" lon="7.09722">
        <ele>366.6</ele>
        <time>2023-05-21T14:11:16Z</time>
      </trkpt>
      <trkpt lat="47.79329" lon="7.09777">
        <ele>363.9</ele>
        <time>2023-05-21T14:11:48Z</time>
      </trkpt>
      <trkpt lat="47.79326" lon="7.0979">
        <ele>363.7</ele>
        <time>2023-05-21T14:11:56Z</time>
      </trkpt>
      <trkpt lat="47.79321" lon="7.09792">
        <ele>363.6</ele>
        <time>2023-05-21T14:12:10Z</time>
      </trkpt>
    </trkseg>
  </trk>
  <trk>
    <name><![CDATA[19 mai 2023 à 08:08:52]]></name>
    <extensions>
      <line xmlns="http://www.topografix.com/GPX/gpx_style/0/2">
        <color>ff0000</color>
        <width>9</width>
      </line>
    </extensions>
    <trkseg>
      <trkpt lat="47.90385" lon="7.08127">
        <ele>1338.8</ele>
        <time>2023-05-19T06:08:53Z</time>
      </trkpt>
      <trkpt lat="47.90385" lon="7.08127">
        <ele>1338.8</ele>
        <time>2023-05-19T06:08:54Z</time>
      </trkpt>
      <trkpt lat="47.90383" lon="7.08117">
        <ele>1338.7</ele>
        <time>2023-05-19T06:09:04Z</time>
      </trkpt>
      <trkpt lat="47.9038" lon="7.08112">
        <ele>1338.7</ele>
        <time>2023-05-19T06:09:10Z</time>
      </trkpt>
      <trkpt lat="47.90377" lon="7.08105">
        <ele>1338.7</ele>
        <time>2023-05-19T06:09:22Z</time>
      </trkpt>
      <trkpt lat="47.90375" lon="7.08099">
        <ele>1338.7</ele>
        <time>2023-05-19T06:09:28Z</time>
      </trkpt>
      <trkpt lat="47.90373" lon="7.08088">
        <ele>1338.9</ele>
        <time>2023-05-19T06:09:43Z</time>
      </trkpt>
      <trkpt lat="47.90372" lon="7.08081">
        <ele>1339.1</ele>
        <time>2023-05-19T06:09:47Z</time>
      </trkpt>
      <trkpt lat="47.90369" lon="7.08073">
        <ele>1339.3</ele>
        <time>2023-05-19T06:09:54Z</time>
      </trkpt>
      <trkpt lat="47.90355" lon="7.08039">
        <ele>1340.4</ele>
        <time>2023-05-19T06:10:19Z</time>
      </trkpt>
      <trkpt lat="47.90353" lon="7.08034">
        <ele>1340.5</ele>
        <time>2023-05-19T06:10:23Z</time>
      </trkpt>
      <trkpt lat="47.90349" lon="7.08025">
        <ele>1340.9</ele>
        <time>2023-05-19T06:10:30Z</time>
      </trkpt>
      <trkpt lat="47.90346" lon="7.08019">
        <ele>1341.2</ele>
        <time>2023-05-19T06:10:35Z</time>
      </trkpt>
      <trkpt lat="47.9034" lon="7.08008">
        <ele>1341.7</ele>
        <time>2023-05-19T06:10:45Z</time>
      </trkpt>
      <trkpt lat="47.90312" lon="7.07972">
        <ele>1343.8</ele>
        <time>2023-05-19T06:11:18Z</time>
      </trkpt>
      <trkpt lat="47.90304" lon="7.07964">
        <ele>1344.1</ele>
        <time>2023-05-19T06:11:26Z</time>
      </trkpt>
      <trkpt lat="47.903" lon="7.07961">
        <ele>1344.2</ele>
        <time>2023-05-19T06:11:30Z</time>
      </trkpt>
      <trkpt lat="47.90296" lon="7.07958">
        <ele>1344.3</ele>
        <time>2023-05-19T06:11:34Z</time>
      </trkpt>
      <trkpt lat="47.90282" lon="7.07941">
        <ele>1343.8</ele>
        <time>2023-05-19T06:11:49Z</time>
      </trkpt>
      <trkpt lat="47.90278" lon="7.07937">
        <ele>1343.5</ele>
        <time>2023-05-19T06:11:54Z</time>
      </trkpt>
      <trkpt lat="47.90266" lon="7.07927">
        <ele>1342.1</ele>
        <time>2023-05-19T06:12:10Z</time>
      </trkpt>
      <trkpt lat="47.90265" lon="7.07915">
        <ele>1340.9</ele>
        <time>2023-05-19T06:12:23Z</time>
      </trkpt>
      <trkpt lat="47.90264" lon="7.07909">
        <ele>1340.3</ele>
        <time>2023-05-19T06:12:27Z</time>
      </trkpt>
      <trkpt lat="47.9027" lon="7.07884">
        <ele>1337.7</ele>
        <time>2023-05-19T06:12:49Z</time>
      </trkpt>
      <trkpt lat="47.90274" lon="7.0788">
        <ele>1336.9</ele>
        <time>2023-05-19T06:12:53Z</time>
      </trkpt>
      <trkpt lat="47.90279" lon="7.07871">
        <ele>1335.3</ele>
        <time>2023-05-19T06:13:02Z</time>
      </trkpt>
      <trkpt lat="47.90282" lon="7.07867">
        <ele>1334.7</ele>
        <time>2023-05-19T06:13:07Z</time>
      </trkpt>
      <trkpt lat="47.90286" lon="7.07863">
        <ele>1334.3</ele>
        <time>2023-05-19T06:13:12Z</time>
      </trkpt>
      <trkpt lat="47.90294" lon="7.07854">
        <ele>1332.8</ele>
        <time>2023-05-19T06:13:24Z</time>
      </trkpt>
      <trkpt lat="47.90298" lon="7.07848">
        <ele>1331.5</ele>
        <time>2023-05-19T06:13:28Z</time>
      </trkpt>
      <trkpt lat="47.90305" lon="7.07834">
        <ele>1328.2</ele>
        <time>2023-05-19T06:13:41Z</time>
      </trkpt>
      <trkpt lat="47.90308" lon="7.07826">
        <ele>1326.2</ele>
        <time>2023-05-19T06:13:48Z</time>
      </trkpt>
      <trkpt lat="47.9031" lon="7.07821">
        <ele>1325</ele>
        <time>2023-05-19T06:13:52Z</time>
      </trkpt>
      <trkpt lat="47.90314" lon="7.07816">
        <ele>1324.1</ele>
        <time>2023-05-19T06:13:56Z</time>
      </trkpt>
      <trkpt lat="47.90315" lon="7.0781">
        <ele>1322.6</ele>
        <time>2023-05-19T06:14:00Z</time>
      </trkpt>
      <trkpt lat="47.90318" lon="7.07804">
        <ele>1321.4</ele>
        <time>2023-05-19T06:14:05Z</time>
      </trkpt>
      <trkpt lat="47.90322" lon="7.07797">
        <ele>1320.3</ele>
        <time>2023-05-19T06:14:11Z</time>
      </trkpt>
      <trkpt lat="47.90323" lon="7.0779">
        <ele>1318.7</ele>
        <time>2023-05-19T06:14:15Z</time>
      </trkpt>
      <trkpt lat="47.90325" lon="7.07784">
        <ele>1317.7</ele>
        <time>2023-05-19T06:14:19Z</time>
      </trkpt>
      <trkpt lat="47.90331" lon="7.0778">
        <ele>1318</ele>
        <time>2023-05-19T06:14:26Z</time>
      </trkpt>
      <trkpt lat="47.90334" lon="7.07775">
        <ele>1317.3</ele>
        <time>2023-05-19T06:14:31Z</time>
      </trkpt>
      <trkpt lat="47.90336" lon="7.07761">
        <ele>1313.6</ele>
        <time>2023-05-19T06:14:39Z</time>
      </trkpt>
      <trkpt lat="47.9034" lon="7.07757">
        <ele>1313.1</ele>
        <time>2023-05-19T06:14:43Z</time>
      </trkpt>
      <trkpt lat="47.90354" lon="7.07729">
        <ele>1308.2</ele>
        <time>2023-05-19T06:15:05Z</time>
      </trkpt>
      <trkpt lat="47.9036" lon="7.07719">
        <ele>1307.1</ele>
        <time>2023-05-19T06:15:12Z</time>
      </trkpt>
      <trkpt lat="47.90363" lon="7.07713">
        <ele>1306.4</ele>
        <time>2023-05-19T06:15:16Z</time>
      </trkpt>
      <trkpt lat="47.90364" lon="7.07707">
        <ele>1305.3</ele>
        <time>2023-05-19T06:15:20Z</time>
      </trkpt>
      <trkpt lat="47.90367" lon="7.07702">
        <ele>1304.8</ele>
        <time>2023-05-19T06:15:23Z</time>
      </trkpt>
      <trkpt lat="47.90371" lon="7.07699">
        <ele>1305.1</ele>
        <time>2023-05-19T06:15:27Z</time>
      </trkpt>
      <trkpt lat="47.90374" lon="7.07694">
        <ele>1304.7</ele>
        <time>2023-05-19T06:15:32Z</time>
      </trkpt>
      <trkpt lat="47.90378" lon="7.07681">
        <ele>1302.4</ele>
        <time>2023-05-19T06:15:40Z</time>
      </trkpt>
      <trkpt lat="47.90382" lon="7.07678">
        <ele>1302.7</ele>
        <time>2023-05-19T06:15:43Z</time>
      </trkpt>
      <trkpt lat="47.90387" lon="7.07676">
        <ele>1303.5</ele>
        <time>2023-05-19T06:15:46Z</time>
      </trkpt>
      <trkpt lat="47.90391" lon="7.07673">
        <ele>1303.7</ele>
        <time>2023-05-19T06:15:50Z</time>
      </trkpt>
      <trkpt lat="47.90394" lon="7.07668">
        <ele>1303.2</ele>
        <time>2023-05-19T06:16:05Z</time>
      </trkpt>
      <trkpt lat="47.90401" lon="7.07653">
        <ele>1300.5</ele>
        <time>2023-05-19T06:16:27Z</time>
      </trkpt>
      <trkpt lat="47.90403" lon="7.07645">
        <ele>1298.7</ele>
        <time>2023-05-19T06:16:31Z</time>
      </trkpt>
      <trkpt lat="47.90408" lon="7.0764">
        <ele>1298.4</ele>
        <time>2023-05-19T06:17:03Z</time>
      </trkpt>
      <trkpt lat="47.90416" lon="7.07617">
        <ele>1294.3</ele>
        <time>2023-05-19T06:17:23Z</time>
      </trkpt>
      <trkpt lat="47.90418" lon="7.07611">
        <ele>1293.2</ele>
        <time>2023-05-19T06:17:27Z</time>
      </trkpt>
      <trkpt lat="47.90423" lon="7.07561">
        <ele>1288.5</ele>
        <time>2023-05-19T06:17:48Z</time>
      </trkpt>
      <trkpt lat="47.90426" lon="7.07549">
        <ele>1287.5</ele>
        <time>2023-05-19T06:17:55Z</time>
      </trkpt>
      <trkpt lat="47.90429" lon="7.07543">
        <ele>1287.2</ele>
        <time>2023-05-19T06:18:01Z</time>
      </trkpt>
      <trkpt lat="47.90439" lon="7.07493">
        <ele>1284.5</ele>
        <time>2023-05-19T06:18:25Z</time>
      </trkpt>
      <trkpt lat="47.90439" lon="7.07479">
        <ele>1283.5</ele>
        <time>2023-05-19T06:18:33Z</time>
      </trkpt>
      <trkpt lat="47.90441" lon="7.07472">
        <ele>1283.4</ele>
        <time>2023-05-19T06:18:36Z</time>
      </trkpt>
      <trkpt lat="47.90439" lon="7.07466">
        <ele>1283</ele>
        <time>2023-05-19T06:18:39Z</time>
      </trkpt>
      <trkpt lat="47.90441" lon="7.07458">
        <ele>1283.3</ele>
        <time>2023-05-19T06:18:42Z</time>
      </trkpt>
      <trkpt lat="47.90441" lon="7.07437">
        <ele>1283.5</ele>
        <time>2023-05-19T06:18:51Z</time>
      </trkpt>
      <trkpt lat="47.90445" lon="7.07432">
        <ele>1284.5</ele>
        <time>2023-05-19T06:18:56Z</time>
      </trkpt>
      <trkpt lat="47.90451" lon="7.07413">
        <ele>1285.5</ele>
        <time>2023-05-19T06:19:08Z</time>
      </trkpt>
      <trkpt lat="47.90451" lon="7.07406">
        <ele>1285.5</ele>
        <time>2023-05-19T06:19:11Z</time>
      </trkpt>
      <trkpt lat="47.90452" lon="7.074">
        <ele>1285.5</ele>
        <time>2023-05-19T06:19:15Z</time>
      </trkpt>
      <trkpt lat="47.90452" lon="7.07393">
        <ele>1285.5</ele>
        <time>2023-05-19T06:19:18Z</time>
      </trkpt>
      <trkpt lat="47.90453" lon="7.07387">
        <ele>1285.5</ele>
        <time>2023-05-19T06:19:21Z</time>
      </trkpt>
      <trkpt lat="47.90453" lon="7.07381">
        <ele>1285.1</ele>
        <time>2023-05-19T06:19:24Z</time>
      </trkpt>
      <trkpt lat="47.90455" lon="7.07365">
        <ele>1284.4</ele>
        <time>2023-05-19T06:19:32Z</time>
      </trkpt>
      <trkpt lat="47.90456" lon="7.07351">
        <ele>1283.3</ele>
        <time>2023-05-19T06:19:39Z</time>
      </trkpt>
      <trkpt lat="47.90459" lon="7.07338">
        <ele>1282.5</ele>
        <time>2023-05-19T06:19:46Z</time>
      </trkpt>
      <trkpt lat="47.90457" lon="7.07331">
        <ele>1281.5</ele>
        <time>2023-05-19T06:19:51Z</time>
      </trkpt>
      <trkpt lat="47.90462" lon="7.07315">
        <ele>1279.9</ele>
        <time>2023-05-19T06:20:02Z</time>
      </trkpt>
      <trkpt lat="47.90468" lon="7.07305">
        <ele>1279.3</ele>
        <time>2023-05-19T06:20:10Z</time>
      </trkpt>
      <trkpt lat="47.9047" lon="7.07297">
        <ele>1278.8</ele>
        <time>2023-05-19T06:20:15Z</time>
      </trkpt>
      <trkpt lat="47.90472" lon="7.07292">
        <ele>1278.5</ele>
        <time>2023-05-19T06:20:18Z</time>
      </trkpt>
      <trkpt lat="47.90475" lon="7.07286">
        <ele>1278</ele>
        <time>2023-05-19T06:20:23Z</time>
      </trkpt>
      <trkpt lat="47.9048" lon="7.07277">
        <ele>1277.5</ele>
        <time>2023-05-19T06:20:31Z</time>
      </trkpt>
      <trkpt lat="47.90484" lon="7.07273">
        <ele>1277.5</ele>
        <time>2023-05-19T06:20:34Z</time>
      </trkpt>
      <trkpt lat="47.90487" lon="7.07269">
        <ele>1277.5</ele>
        <time>2023-05-19T06:20:37Z</time>
      </trkpt>
      <trkpt lat="47.90489" lon="7.07261">
        <ele>1277.3</ele>
        <time>2023-05-19T06:20:40Z</time>
      </trkpt>
      <trkpt lat="47.90489" lon="7.07255">
        <ele>1276.9</ele>
        <time>2023-05-19T06:20:44Z</time>
      </trkpt>
      <trkpt lat="47.90492" lon="7.0725">
        <ele>1277.3</ele>
        <time>2023-05-19T06:20:48Z</time>
      </trkpt>
      <trkpt lat="47.90493" lon="7.07243">
        <ele>1276.7</ele>
        <time>2023-05-19T06:20:52Z</time>
      </trkpt>
      <trkpt lat="47.9049" lon="7.07236">
        <ele>1275.3</ele>
        <time>2023-05-19T06:20:56Z</time>
      </trkpt>
      <trkpt lat="47.90493" lon="7.07228">
        <ele>1275.1</ele>
        <time>2023-05-19T06:21:00Z</time>
      </trkpt>
      <trkpt lat="47.90497" lon="7.07224">
        <ele>1275.5</ele>
        <time>2023-05-19T06:21:03Z</time>
      </trkpt>
      <trkpt lat="47.90499" lon="7.07219">
        <ele>1275.2</ele>
        <time>2023-05-19T06:21:07Z</time>
      </trkpt>
      <trkpt lat="47.90499" lon="7.07204">
        <ele>1272.6</ele>
        <time>2023-05-19T06:21:17Z</time>
      </trkpt>
      <trkpt lat="47.90499" lon="7.07197">
        <ele>1271.3</ele>
        <time>2023-05-19T06:21:22Z</time>
      </trkpt>
      <trkpt lat="47.90501" lon="7.07189">
        <ele>1270.8</ele>
        <time>2023-05-19T06:21:26Z</time>
      </trkpt>
      <trkpt lat="47.90501" lon="7.07181">
        <ele>1270.5</ele>
        <time>2023-05-19T06:21:29Z</time>
      </trkpt>
      <trkpt lat="47.90504" lon="7.07167">
        <ele>1269.7</ele>
        <time>2023-05-19T06:21:35Z</time>
      </trkpt>
      <trkpt lat="47.90504" lon="7.07161">
        <ele>1269.1</ele>
        <time>2023-05-19T06:21:38Z</time>
      </trkpt>
      <trkpt lat="47.90508" lon="7.07155">
        <ele>1268.3</ele>
        <time>2023-05-19T06:21:43Z</time>
      </trkpt>
      <trkpt lat="47.90507" lon="7.07146">
        <ele>1267.5</ele>
        <time>2023-05-19T06:21:47Z</time>
      </trkpt>
      <trkpt lat="47.90504" lon="7.07132">
        <ele>1266.1</ele>
        <time>2023-05-19T06:21:54Z</time>
      </trkpt>
      <trkpt lat="47.90505" lon="7.07119">
        <ele>1264.5</ele>
        <time>2023-05-19T06:22:00Z</time>
      </trkpt>
      <trkpt lat="47.90506" lon="7.07111">
        <ele>1263.6</ele>
        <time>2023-05-19T06:22:04Z</time>
      </trkpt>
      <trkpt lat="47.90505" lon="7.07104">
        <ele>1262.6</ele>
        <time>2023-05-19T06:22:07Z</time>
      </trkpt>
      <trkpt lat="47.90507" lon="7.07098">
        <ele>1261.5</ele>
        <time>2023-05-19T06:22:12Z</time>
      </trkpt>
      <trkpt lat="47.90511" lon="7.0709">
        <ele>1259.9</ele>
        <time>2023-05-19T06:22:18Z</time>
      </trkpt>
      <trkpt lat="47.90512" lon="7.07069">
        <ele>1256.3</ele>
        <time>2023-05-19T06:22:30Z</time>
      </trkpt>
      <trkpt lat="47.9051" lon="7.07063">
        <ele>1255.5</ele>
        <time>2023-05-19T06:22:33Z</time>
      </trkpt>
      <trkpt lat="47.90517" lon="7.07054">
        <ele>1253.7</ele>
        <time>2023-05-19T06:22:41Z</time>
      </trkpt>
      <trkpt lat="47.9052" lon="7.07048">
        <ele>1252.9</ele>
        <time>2023-05-19T06:22:45Z</time>
      </trkpt>
      <trkpt lat="47.90528" lon="7.0704">
        <ele>1251.2</ele>
        <time>2023-05-19T06:22:54Z</time>
      </trkpt>
      <trkpt lat="47.90532" lon="7.07041">
        <ele>1250.1</ele>
        <time>2023-05-19T06:22:58Z</time>
      </trkpt>
      <trkpt lat="47.90541" lon="7.07034">
        <ele>1246.4</ele>
        <time>2023-05-19T06:23:07Z</time>
      </trkpt>
      <trkpt lat="47.90546" lon="7.07022">
        <ele>1243.5</ele>
        <time>2023-05-19T06:23:18Z</time>
      </trkpt>
      <trkpt lat="47.90551" lon="7.07018">
        <ele>1241.5</ele>
        <time>2023-05-19T06:23:27Z</time>
      </trkpt>
      <trkpt lat="47.90561" lon="7.07015">
        <ele>1238</ele>
        <time>2023-05-19T06:23:38Z</time>
      </trkpt>
      <trkpt lat="47.90572" lon="7.07009">
        <ele>1234.4</ele>
        <time>2023-05-19T06:23:50Z</time>
      </trkpt>
      <trkpt lat="47.90593" lon="7.07002">
        <ele>1230</ele>
        <time>2023-05-19T06:24:06Z</time>
      </trkpt>
      <trkpt lat="47.90597" lon="7.07003">
        <ele>1229.6</ele>
        <time>2023-05-19T06:24:09Z</time>
      </trkpt>
      <trkpt lat="47.90607" lon="7.07001">
        <ele>1228.4</ele>
        <time>2023-05-19T06:24:16Z</time>
      </trkpt>
      <trkpt lat="47.90649" lon="7.06981">
        <ele>1221.2</ele>
        <time>2023-05-19T06:24:48Z</time>
      </trkpt>
      <trkpt lat="47.90654" lon="7.06979">
        <ele>1220.1</ele>
        <time>2023-05-19T06:24:52Z</time>
      </trkpt>
      <trkpt lat="47.90658" lon="7.06974">
        <ele>1219</ele>
        <time>2023-05-19T06:24:56Z</time>
      </trkpt>
      <trkpt lat="47.90667" lon="7.06969">
        <ele>1216.8</ele>
        <time>2023-05-19T06:25:03Z</time>
      </trkpt>
      <trkpt lat="47.90672" lon="7.06963">
        <ele>1215.7</ele>
        <time>2023-05-19T06:25:07Z</time>
      </trkpt>
      <trkpt lat="47.90673" lon="7.06956">
        <ele>1215.3</ele>
        <time>2023-05-19T06:25:11Z</time>
      </trkpt>
      <trkpt lat="47.90684" lon="7.06937">
        <ele>1212.9</ele>
        <time>2023-05-19T06:25:23Z</time>
      </trkpt>
      <trkpt lat="47.9069" lon="7.06927">
        <ele>1211.8</ele>
        <time>2023-05-19T06:25:29Z</time>
      </trkpt>
      <trkpt lat="47.90711" lon="7.0689">
        <ele>1207.7</ele>
        <time>2023-05-19T06:25:53Z</time>
      </trkpt>
      <trkpt lat="47.90733" lon="7.06867">
        <ele>1204.4</ele>
        <time>2023-05-19T06:26:12Z</time>
      </trkpt>
      <trkpt lat="47.90738" lon="7.06864">
        <ele>1203.7</ele>
        <time>2023-05-19T06:26:16Z</time>
      </trkpt>
      <trkpt lat="47.90778" lon="7.06823">
        <ele>1198</ele>
        <time>2023-05-19T06:26:48Z</time>
      </trkpt>
      <trkpt lat="47.90785" lon="7.06816">
        <ele>1197.5</ele>
        <time>2023-05-19T06:26:54Z</time>
      </trkpt>
      <trkpt lat="47.90788" lon="7.06814">
        <ele>1197.3</ele>
        <time>2023-05-19T06:26:57Z</time>
      </trkpt>
      <trkpt lat="47.90793" lon="7.0681">
        <ele>1196.9</ele>
        <time>2023-05-19T06:27:01Z</time>
      </trkpt>
      <trkpt lat="47.90797" lon="7.06805">
        <ele>1196.6</ele>
        <time>2023-05-19T06:27:05Z</time>
      </trkpt>
      <trkpt lat="47.90806" lon="7.06796">
        <ele>1196</ele>
        <time>2023-05-19T06:27:12Z</time>
      </trkpt>
      <trkpt lat="47.90814" lon="7.0679">
        <ele>1195.7</ele>
        <time>2023-05-19T06:27:19Z</time>
      </trkpt>
      <trkpt lat="47.9082" lon="7.06786">
        <ele>1195.5</ele>
        <time>2023-05-19T06:27:23Z</time>
      </trkpt>
      <trkpt lat="47.90824" lon="7.06781">
        <ele>1195.3</ele>
        <time>2023-05-19T06:27:27Z</time>
      </trkpt>
      <trkpt lat="47.90831" lon="7.06772">
        <ele>1194.9</ele>
        <time>2023-05-19T06:27:34Z</time>
      </trkpt>
      <trkpt lat="47.90836" lon="7.06767">
        <ele>1194.6</ele>
        <time>2023-05-19T06:27:39Z</time>
      </trkpt>
      <trkpt lat="47.90839" lon="7.06764">
        <ele>1194.4</ele>
        <time>2023-05-19T06:27:42Z</time>
      </trkpt>
      <trkpt lat="47.90844" lon="7.06762">
        <ele>1194.3</ele>
        <time>2023-05-19T06:27:46Z</time>
      </trkpt>
      <trkpt lat="47.90849" lon="7.06765">
        <ele>1194.2</ele>
        <time>2023-05-19T06:27:52Z</time>
      </trkpt>
      <trkpt lat="47.90854" lon="7.06765">
        <ele>1194.1</ele>
        <time>2023-05-19T06:27:56Z</time>
      </trkpt>
      <trkpt lat="47.9086" lon="7.06756">
        <ele>1194</ele>
        <time>2023-05-19T06:29:12Z</time>
      </trkpt>
      <trkpt lat="47.90864" lon="7.06752">
        <ele>1194.1</ele>
        <time>2023-05-19T06:29:15Z</time>
      </trkpt>
      <trkpt lat="47.90868" lon="7.06748">
        <ele>1194.2</ele>
        <time>2023-05-19T06:29:19Z</time>
      </trkpt>
      <trkpt lat="47.90872" lon="7.06744">
        <ele>1194.3</ele>
        <time>2023-05-19T06:29:22Z</time>
      </trkpt>
      <trkpt lat="47.90875" lon="7.0674">
        <ele>1194.3</ele>
        <time>2023-05-19T06:29:26Z</time>
      </trkpt>
      <trkpt lat="47.90879" lon="7.06735">
        <ele>1194.5</ele>
        <time>2023-05-19T06:29:30Z</time>
      </trkpt>
      <trkpt lat="47.90883" lon="7.06731">
        <ele>1194.6</ele>
        <time>2023-05-19T06:29:34Z</time>
      </trkpt>
      <trkpt lat="47.90893" lon="7.06723">
        <ele>1195.1</ele>
        <time>2023-05-19T06:29:42Z</time>
      </trkpt>
      <trkpt lat="47.90901" lon="7.06717">
        <ele>1195</ele>
        <time>2023-05-19T06:29:50Z</time>
      </trkpt>
      <trkpt lat="47.90905" lon="7.06714">
        <ele>1194.9</ele>
        <time>2023-05-19T06:29:53Z</time>
      </trkpt>
      <trkpt lat="47.90909" lon="7.0671">
        <ele>1194.7</ele>
        <time>2023-05-19T06:29:56Z</time>
      </trkpt>
      <trkpt lat="47.90913" lon="7.06707">
        <ele>1194.7</ele>
        <time>2023-05-19T06:29:59Z</time>
      </trkpt>
      <trkpt lat="47.9093" lon="7.06689">
        <ele>1195.1</ele>
        <time>2023-05-19T06:30:14Z</time>
      </trkpt>
      <trkpt lat="47.90934" lon="7.06683">
        <ele>1195.3</ele>
        <time>2023-05-19T06:30:18Z</time>
      </trkpt>
      <trkpt lat="47.90952" lon="7.06657">
        <ele>1196.6</ele>
        <time>2023-05-19T06:30:36Z</time>
      </trkpt>
      <trkpt lat="47.90955" lon="7.06651">
        <ele>1196.8</ele>
        <time>2023-05-19T06:30:42Z</time>
      </trkpt>
      <trkpt lat="47.9097" lon="7.06634">
        <ele>1199.3</ele>
        <time>2023-05-19T06:30:57Z</time>
      </trkpt>
      <trkpt lat="47.90973" lon="7.06629">
        <ele>1199.8</ele>
        <time>2023-05-19T06:31:01Z</time>
      </trkpt>
      <trkpt lat="47.90977" lon="7.06625">
        <ele>1200.4</ele>
        <time>2023-05-19T06:31:06Z</time>
      </trkpt>
      <trkpt lat="47.9099" lon="7.06604">
        <ele>1202</ele>
        <time>2023-05-19T06:31:21Z</time>
      </trkpt>
      <trkpt lat="47.90994" lon="7.06598">
        <ele>1202.2</ele>
        <time>2023-05-19T06:31:25Z</time>
      </trkpt>
      <trkpt lat="47.90998" lon="7.06593">
        <ele>1202.6</ele>
        <time>2023-05-19T06:31:29Z</time>
      </trkpt>
      <trkpt lat="47.91003" lon="7.0658">
        <ele>1202</ele>
        <time>2023-05-19T06:31:37Z</time>
      </trkpt>
      <trkpt lat="47.91007" lon="7.06576">
        <ele>1202.1</ele>
        <time>2023-05-19T06:31:40Z</time>
      </trkpt>
      <trkpt lat="47.91013" lon="7.06565">
        <ele>1201.6</ele>
        <time>2023-05-19T06:31:47Z</time>
      </trkpt>
      <trkpt lat="47.9102" lon="7.06552">
        <ele>1201.6</ele>
        <time>2023-05-19T06:31:56Z</time>
      </trkpt>
      <trkpt lat="47.91026" lon="7.06538">
        <ele>1201.3</ele>
        <time>2023-05-19T06:32:04Z</time>
      </trkpt>
      <trkpt lat="47.91029" lon="7.06532">
        <ele>1201.1</ele>
        <time>2023-05-19T06:32:08Z</time>
      </trkpt>
      <trkpt lat="47.91047" lon="7.06503">
        <ele>1201.7</ele>
        <time>2023-05-19T06:32:29Z</time>
      </trkpt>
      <trkpt lat="47.91052" lon="7.06488">
        <ele>1201.2</ele>
        <time>2023-05-19T06:32:37Z</time>
      </trkpt>
      <trkpt lat="47.91058" lon="7.06478">
        <ele>1201.6</ele>
        <time>2023-05-19T06:32:45Z</time>
      </trkpt>
      <trkpt lat="47.91061" lon="7.06473">
        <ele>1201.9</ele>
        <time>2023-05-19T06:32:48Z</time>
      </trkpt>
      <trkpt lat="47.91065" lon="7.0647">
        <ele>1202.7</ele>
        <time>2023-05-19T06:32:53Z</time>
      </trkpt>
      <trkpt lat="47.91068" lon="7.06464">
        <ele>1202.7</ele>
        <time>2023-05-19T06:32:57Z</time>
      </trkpt>
      <trkpt lat="47.91069" lon="7.06457">
        <ele>1201.9</ele>
        <time>2023-05-19T06:33:00Z</time>
      </trkpt>
      <trkpt lat="47.91072" lon="7.06451">
        <ele>1202</ele>
        <time>2023-05-19T06:33:04Z</time>
      </trkpt>
      <trkpt lat="47.91074" lon="7.06445">
        <ele>1201.7</ele>
        <time>2023-05-19T06:33:07Z</time>
      </trkpt>
      <trkpt lat="47.9108" lon="7.06432">
        <ele>1202.4</ele>
        <time>2023-05-19T06:33:15Z</time>
      </trkpt>
      <trkpt lat="47.91084" lon="7.0642">
        <ele>1202.6</ele>
        <time>2023-05-19T06:33:23Z</time>
      </trkpt>
      <trkpt lat="47.91092" lon="7.06396">
        <ele>1201</ele>
        <time>2023-05-19T06:33:37Z</time>
      </trkpt>
      <trkpt lat="47.91096" lon="7.0639">
        <ele>1201.7</ele>
        <time>2023-05-19T06:33:41Z</time>
      </trkpt>
      <trkpt lat="47.91105" lon="7.06374">
        <ele>1203.8</ele>
        <time>2023-05-19T06:33:52Z</time>
      </trkpt>
      <trkpt lat="47.91106" lon="7.06367">
        <ele>1203.4</ele>
        <time>2023-05-19T06:33:55Z</time>
      </trkpt>
      <trkpt lat="47.91112" lon="7.06348">
        <ele>1204.4</ele>
        <time>2023-05-19T06:34:08Z</time>
      </trkpt>
      <trkpt lat="47.91114" lon="7.06342">
        <ele>1204.7</ele>
        <time>2023-05-19T06:34:11Z</time>
      </trkpt>
      <trkpt lat="47.91117" lon="7.0632">
        <ele>1204.5</ele>
        <time>2023-05-19T06:34:24Z</time>
      </trkpt>
      <trkpt lat="47.91116" lon="7.06313">
        <ele>1203.6</ele>
        <time>2023-05-19T06:34:27Z</time>
      </trkpt>
      <trkpt lat="47.91116" lon="7.06306">
        <ele>1203.1</ele>
        <time>2023-05-19T06:34:31Z</time>
      </trkpt>
      <trkpt lat="47.91115" lon="7.06299">
        <ele>1202.5</ele>
        <time>2023-05-19T06:34:35Z</time>
      </trkpt>
      <trkpt lat="47.91117" lon="7.06291">
        <ele>1203.1</ele>
        <time>2023-05-19T06:34:39Z</time>
      </trkpt>
      <trkpt lat="47.91116" lon="7.06284">
        <ele>1202.5</ele>
        <time>2023-05-19T06:34:42Z</time>
      </trkpt>
      <trkpt lat="47.91116" lon="7.06276">
        <ele>1202.2</ele>
        <time>2023-05-19T06:34:46Z</time>
      </trkpt>
      <trkpt lat="47.91117" lon="7.06268">
        <ele>1202.1</ele>
        <time>2023-05-19T06:34:50Z</time>
      </trkpt>
      <trkpt lat="47.91117" lon="7.06252">
        <ele>1201.1</ele>
        <time>2023-05-19T06:34:58Z</time>
      </trkpt>
      <trkpt lat="47.9112" lon="7.0623">
        <ele>1200.1</ele>
        <time>2023-05-19T06:35:10Z</time>
      </trkpt>
      <trkpt lat="47.91122" lon="7.06225">
        <ele>1200.6</ele>
        <time>2023-05-19T06:35:13Z</time>
      </trkpt>
      <trkpt lat="47.91124" lon="7.06217">
        <ele>1201</ele>
        <time>2023-05-19T06:35:17Z</time>
      </trkpt>
      <trkpt lat="47.91124" lon="7.0621">
        <ele>1200.3</ele>
        <time>2023-05-19T06:35:20Z</time>
      </trkpt>
      <trkpt lat="47.91126" lon="7.06202">
        <ele>1200.7</ele>
        <time>2023-05-19T06:35:24Z</time>
      </trkpt>
      <trkpt lat="47.91128" lon="7.06197">
        <ele>1201.4</ele>
        <time>2023-05-19T06:35:28Z</time>
      </trkpt>
      <trkpt lat="47.91129" lon="7.06189">
        <ele>1201</ele>
        <time>2023-05-19T06:35:32Z</time>
      </trkpt>
      <trkpt lat="47.91132" lon="7.06175">
        <ele>1200.8</ele>
        <time>2023-05-19T06:35:39Z</time>
      </trkpt>
      <trkpt lat="47.91135" lon="7.0617">
        <ele>1201.6</ele>
        <time>2023-05-19T06:35:43Z</time>
      </trkpt>
      <trkpt lat="47.91136" lon="7.06163">
        <ele>1201.1</ele>
        <time>2023-05-19T06:35:47Z</time>
      </trkpt>
      <trkpt lat="47.91138" lon="7.06157">
        <ele>1201.2</ele>
        <time>2023-05-19T06:35:51Z</time>
      </trkpt>
      <trkpt lat="47.91142" lon="7.06136">
        <ele>1200</ele>
        <time>2023-05-19T06:36:01Z</time>
      </trkpt>
      <trkpt lat="47.91144" lon="7.0613">
        <ele>1200.2</ele>
        <time>2023-05-19T06:36:07Z</time>
      </trkpt>
      <trkpt lat="47.91148" lon="7.0611">
        <ele>1199.5</ele>
        <time>2023-05-19T06:36:18Z</time>
      </trkpt>
      <trkpt lat="47.9115" lon="7.06104">
        <ele>1199.8</ele>
        <time>2023-05-19T06:36:21Z</time>
      </trkpt>
      <trkpt lat="47.91152" lon="7.06089">
        <ele>1199.2</ele>
        <time>2023-05-19T06:36:28Z</time>
      </trkpt>
      <trkpt lat="47.91153" lon="7.06082">
        <ele>1199</ele>
        <time>2023-05-19T06:36:32Z</time>
      </trkpt>
      <trkpt lat="47.91156" lon="7.06068">
        <ele>1198.9</ele>
        <time>2023-05-19T06:36:40Z</time>
      </trkpt>
      <trkpt lat="47.91158" lon="7.06062">
        <ele>1199.1</ele>
        <time>2023-05-19T06:36:44Z</time>
      </trkpt>
      <trkpt lat="47.91157" lon="7.06055">
        <ele>1198.2</ele>
        <time>2023-05-19T06:36:47Z</time>
      </trkpt>
      <trkpt lat="47.91156" lon="7.06015">
        <ele>1198</ele>
        <time>2023-05-19T06:37:05Z</time>
      </trkpt>
      <trkpt lat="47.91155" lon="7.06007">
        <ele>1198.1</ele>
        <time>2023-05-19T06:37:10Z</time>
      </trkpt>
      <trkpt lat="47.91154" lon="7.06">
        <ele>1198.2</ele>
        <time>2023-05-19T06:37:13Z</time>
      </trkpt>
      <trkpt lat="47.91149" lon="7.05969">
        <ele>1199.9</ele>
        <time>2023-05-19T06:37:32Z</time>
      </trkpt>
      <trkpt lat="47.91142" lon="7.05958">
        <ele>1200.6</ele>
        <time>2023-05-19T06:37:39Z</time>
      </trkpt>
      <trkpt lat="47.91141" lon="7.05951">
        <ele>1201.3</ele>
        <time>2023-05-19T06:37:42Z</time>
      </trkpt>
      <trkpt lat="47.91142" lon="7.05945">
        <ele>1201.8</ele>
        <time>2023-05-19T06:37:45Z</time>
      </trkpt>
      <trkpt lat="47.91141" lon="7.05938">
        <ele>1202.6</ele>
        <time>2023-05-19T06:37:48Z</time>
      </trkpt>
      <trkpt lat="47.91135" lon="7.05922">
        <ele>1203.8</ele>
        <time>2023-05-19T06:37:59Z</time>
      </trkpt>
      <trkpt lat="47.91131" lon="7.05912">
        <ele>1204.6</ele>
        <time>2023-05-19T06:38:07Z</time>
      </trkpt>
      <trkpt lat="47.91125" lon="7.05903">
        <ele>1205.2</ele>
        <time>2023-05-19T06:38:16Z</time>
      </trkpt>
      <trkpt lat="47.91123" lon="7.05896">
        <ele>1206.1</ele>
        <time>2023-05-19T06:38:20Z</time>
      </trkpt>
      <trkpt lat="47.9112" lon="7.05889">
        <ele>1206.9</ele>
        <time>2023-05-19T06:38:26Z</time>
      </trkpt>
      <trkpt lat="47.91114" lon="7.05878">
        <ele>1209</ele>
        <time>2023-05-19T06:38:35Z</time>
      </trkpt>
      <trkpt lat="47.91108" lon="7.05866">
        <ele>1210.4</ele>
        <time>2023-05-19T06:38:47Z</time>
      </trkpt>
      <trkpt lat="47.91103" lon="7.05859">
        <ele>1209.3</ele>
        <time>2023-05-19T06:38:55Z</time>
      </trkpt>
      <trkpt lat="47.91102" lon="7.05853">
        <ele>1209.2</ele>
        <time>2023-05-19T06:38:59Z</time>
      </trkpt>
      <trkpt lat="47.91099" lon="7.05848">
        <ele>1208.1</ele>
        <time>2023-05-19T06:39:03Z</time>
      </trkpt>
      <trkpt lat="47.911" lon="7.05839">
        <ele>1209.1</ele>
        <time>2023-05-19T06:39:05Z</time>
      </trkpt>
      <trkpt lat="47.91101" lon="7.05832">
        <ele>1209.9</ele>
        <time>2023-05-19T06:39:09Z</time>
      </trkpt>
      <trkpt lat="47.91101" lon="7.05824">
        <ele>1210.1</ele>
        <time>2023-05-19T06:39:13Z</time>
      </trkpt>
      <trkpt lat="47.91098" lon="7.05803">
        <ele>1209.6</ele>
        <time>2023-05-19T06:39:22Z</time>
      </trkpt>
      <trkpt lat="47.91097" lon="7.05795">
        <ele>1209.9</ele>
        <time>2023-05-19T06:39:28Z</time>
      </trkpt>
      <trkpt lat="47.91098" lon="7.05787">
        <ele>1211</ele>
        <time>2023-05-19T06:39:33Z</time>
      </trkpt>
      <trkpt lat="47.91094" lon="7.0578">
        <ele>1210</ele>
        <time>2023-05-19T06:39:39Z</time>
      </trkpt>
      <trkpt lat="47.91093" lon="7.05772">
        <ele>1210.3</ele>
        <time>2023-05-19T06:39:44Z</time>
      </trkpt>
      <trkpt lat="47.91091" lon="7.05766">
        <ele>1209.9</ele>
        <time>2023-05-19T06:39:48Z</time>
      </trkpt>
      <trkpt lat="47.91088" lon="7.0576">
        <ele>1208.9</ele>
        <time>2023-05-19T06:39:53Z</time>
      </trkpt>
      <trkpt lat="47.91088" lon="7.05746">
        <ele>1210</ele>
        <time>2023-05-19T06:40:00Z</time>
      </trkpt>
      <trkpt lat="47.91089" lon="7.05739">
        <ele>1211.3</ele>
        <time>2023-05-19T06:40:03Z</time>
      </trkpt>
      <trkpt lat="47.91081" lon="7.05703">
        <ele>1209.4</ele>
        <time>2023-05-19T06:40:30Z</time>
      </trkpt>
      <trkpt lat="47.91082" lon="7.05689">
        <ele>1210.9</ele>
        <time>2023-05-19T06:40:38Z</time>
      </trkpt>
      <trkpt lat="47.91082" lon="7.05681">
        <ele>1211</ele>
        <time>2023-05-19T06:40:42Z</time>
      </trkpt>
      <trkpt lat="47.91081" lon="7.05675">
        <ele>1210.3</ele>
        <time>2023-05-19T06:40:46Z</time>
      </trkpt>
      <trkpt lat="47.91081" lon="7.05668">
        <ele>1210.5</ele>
        <time>2023-05-19T06:40:50Z</time>
      </trkpt>
      <trkpt lat="47.91083" lon="7.05654">
        <ele>1212.3</ele>
        <time>2023-05-19T06:40:59Z</time>
      </trkpt>
      <trkpt lat="47.91082" lon="7.0564">
        <ele>1212.2</ele>
        <time>2023-05-19T06:41:07Z</time>
      </trkpt>
      <trkpt lat="47.9108" lon="7.05634">
        <ele>1211.1</ele>
        <time>2023-05-19T06:41:09Z</time>
      </trkpt>
      <trkpt lat="47.91081" lon="7.05616">
        <ele>1211.2</ele>
        <time>2023-05-19T06:41:17Z</time>
      </trkpt>
      <trkpt lat="47.91081" lon="7.0561">
        <ele>1211</ele>
        <time>2023-05-19T06:41:20Z</time>
      </trkpt>
      <trkpt lat="47.91085" lon="7.05587">
        <ele>1210.6</ele>
        <time>2023-05-19T06:41:31Z</time>
      </trkpt>
      <trkpt lat="47.91084" lon="7.0555">
        <ele>1209.3</ele>
        <time>2023-05-19T06:41:48Z</time>
      </trkpt>
      <trkpt lat="47.91082" lon="7.05535">
        <ele>1209.4</ele>
        <time>2023-05-19T06:41:56Z</time>
      </trkpt>
      <trkpt lat="47.91084" lon="7.05515">
        <ele>1210.5</ele>
        <time>2023-05-19T06:42:08Z</time>
      </trkpt>
      <trkpt lat="47.91081" lon="7.05506">
        <ele>1210.4</ele>
        <time>2023-05-19T06:42:14Z</time>
      </trkpt>
      <trkpt lat="47.9108" lon="7.05484">
        <ele>1210.1</ele>
        <time>2023-05-19T06:42:26Z</time>
      </trkpt>
      <trkpt lat="47.9108" lon="7.05477">
        <ele>1209.9</ele>
        <time>2023-05-19T06:42:30Z</time>
      </trkpt>
      <trkpt lat="47.91078" lon="7.0547">
        <ele>1209.4</ele>
        <time>2023-05-19T06:42:34Z</time>
      </trkpt>
      <trkpt lat="47.91075" lon="7.05412">
        <ele>1203.3</ele>
        <time>2023-05-19T06:43:05Z</time>
      </trkpt>
      <trkpt lat="47.91074" lon="7.05405">
        <ele>1202.4</ele>
        <time>2023-05-19T06:43:09Z</time>
      </trkpt>
      <trkpt lat="47.91075" lon="7.05396">
        <ele>1201.6</ele>
        <time>2023-05-19T06:43:15Z</time>
      </trkpt>
      <trkpt lat="47.91075" lon="7.05389">
        <ele>1200.8</ele>
        <time>2023-05-19T06:43:18Z</time>
      </trkpt>
      <trkpt lat="47.91071" lon="7.05382">
        <ele>1199.7</ele>
        <time>2023-05-19T06:43:22Z</time>
      </trkpt>
      <trkpt lat="47.91069" lon="7.05369">
        <ele>1198.5</ele>
        <time>2023-05-19T06:43:29Z</time>
      </trkpt>
      <trkpt lat="47.91068" lon="7.05347">
        <ele>1196</ele>
        <time>2023-05-19T06:43:41Z</time>
      </trkpt>
      <trkpt lat="47.91067" lon="7.0534">
        <ele>1195.1</ele>
        <time>2023-05-19T06:43:45Z</time>
      </trkpt>
      <trkpt lat="47.91068" lon="7.05332">
        <ele>1194.2</ele>
        <time>2023-05-19T06:43:49Z</time>
      </trkpt>
      <trkpt lat="47.91071" lon="7.05328">
        <ele>1194</ele>
        <time>2023-05-19T06:43:54Z</time>
      </trkpt>
      <trkpt lat="47.91073" lon="7.05322">
        <ele>1193.4</ele>
        <time>2023-05-19T06:43:58Z</time>
      </trkpt>
      <trkpt lat="47.9107" lon="7.05309">
        <ele>1191.5</ele>
        <time>2023-05-19T06:44:07Z</time>
      </trkpt>
      <trkpt lat="47.9107" lon="7.0529">
        <ele>1188.8</ele>
        <time>2023-05-19T06:44:22Z</time>
      </trkpt>
      <trkpt lat="47.91064" lon="7.05277">
        <ele>1186.5</ele>
        <time>2023-05-19T06:44:32Z</time>
      </trkpt>
      <trkpt lat="47.91064" lon="7.0527">
        <ele>1186</ele>
        <time>2023-05-19T06:44:35Z</time>
      </trkpt>
      <trkpt lat="47.91066" lon="7.05256">
        <ele>1184.9</ele>
        <time>2023-05-19T06:44:42Z</time>
      </trkpt>
      <trkpt lat="47.91066" lon="7.05249">
        <ele>1184.3</ele>
        <time>2023-05-19T06:44:46Z</time>
      </trkpt>
      <trkpt lat="47.91064" lon="7.05221">
        <ele>1183.3</ele>
        <time>2023-05-19T06:45:01Z</time>
      </trkpt>
      <trkpt lat="47.91065" lon="7.05207">
        <ele>1183.3</ele>
        <time>2023-05-19T06:45:08Z</time>
      </trkpt>
      <trkpt lat="47.91064" lon="7.0519">
        <ele>1183.6</ele>
        <time>2023-05-19T06:45:16Z</time>
      </trkpt>
      <trkpt lat="47.91065" lon="7.05183">
        <ele>1184.2</ele>
        <time>2023-05-19T06:45:19Z</time>
      </trkpt>
      <trkpt lat="47.91065" lon="7.05175">
        <ele>1184.7</ele>
        <time>2023-05-19T06:45:23Z</time>
      </trkpt>
      <trkpt lat="47.91066" lon="7.05168">
        <ele>1185.3</ele>
        <time>2023-05-19T06:45:28Z</time>
      </trkpt>
      <trkpt lat="47.91066" lon="7.05161">
        <ele>1186.2</ele>
        <time>2023-05-19T06:45:33Z</time>
      </trkpt>
      <trkpt lat="47.91066" lon="7.05153">
        <ele>1187.3</ele>
        <time>2023-05-19T06:45:38Z</time>
      </trkpt>
      <trkpt lat="47.91067" lon="7.05145">
        <ele>1188.5</ele>
        <time>2023-05-19T06:45:44Z</time>
      </trkpt>
      <trkpt lat="47.91067" lon="7.05137">
        <ele>1189.5</ele>
        <time>2023-05-19T06:45:48Z</time>
      </trkpt>
      <trkpt lat="47.91068" lon="7.05131">
        <ele>1190</ele>
        <time>2023-05-19T06:45:52Z</time>
      </trkpt>
      <trkpt lat="47.91071" lon="7.05091">
        <ele>1192.3</ele>
        <time>2023-05-19T06:46:18Z</time>
      </trkpt>
      <trkpt lat="47.91072" lon="7.05084">
        <ele>1192.6</ele>
        <time>2023-05-19T06:46:22Z</time>
      </trkpt>
      <trkpt lat="47.91074" lon="7.05078">
        <ele>1192.5</ele>
        <time>2023-05-19T06:46:26Z</time>
      </trkpt>
      <trkpt lat="47.91081" lon="7.05066">
        <ele>1192.3</ele>
        <time>2023-05-19T06:46:37Z</time>
      </trkpt>
      <trkpt lat="47.91084" lon="7.0506">
        <ele>1192.1</ele>
        <time>2023-05-19T06:46:41Z</time>
      </trkpt>
      <trkpt lat="47.91091" lon="7.05051">
        <ele>1191.4</ele>
        <time>2023-05-19T06:46:49Z</time>
      </trkpt>
      <trkpt lat="47.91095" lon="7.05046">
        <ele>1190.9</ele>
        <time>2023-05-19T06:46:53Z</time>
      </trkpt>
      <trkpt lat="47.91108" lon="7.05033">
        <ele>1189.5</ele>
        <time>2023-05-19T06:47:08Z</time>
      </trkpt>
      <trkpt lat="47.91112" lon="7.05022">
        <ele>1188.1</ele>
        <time>2023-05-19T06:47:15Z</time>
      </trkpt>
      <trkpt lat="47.91114" lon="7.05016">
        <ele>1187.1</ele>
        <time>2023-05-19T06:47:18Z</time>
      </trkpt>
      <trkpt lat="47.91118" lon="7.05015">
        <ele>1186.8</ele>
        <time>2023-05-19T06:47:22Z</time>
      </trkpt>
      <trkpt lat="47.91128" lon="7.05001">
        <ele>1184.5</ele>
        <time>2023-05-19T06:47:34Z</time>
      </trkpt>
      <trkpt lat="47.91131" lon="7.04995">
        <ele>1183.5</ele>
        <time>2023-05-19T06:47:38Z</time>
      </trkpt>
      <trkpt lat="47.91164" lon="7.04952">
        <ele>1177.7</ele>
        <time>2023-05-19T06:48:11Z</time>
      </trkpt>
      <trkpt lat="47.91168" lon="7.0495">
        <ele>1177.6</ele>
        <time>2023-05-19T06:48:14Z</time>
      </trkpt>
      <trkpt lat="47.91172" lon="7.04946">
        <ele>1177.1</ele>
        <time>2023-05-19T06:48:18Z</time>
      </trkpt>
      <trkpt lat="47.91174" lon="7.0494">
        <ele>1176.6</ele>
        <time>2023-05-19T06:48:21Z</time>
      </trkpt>
      <trkpt lat="47.91178" lon="7.04934">
        <ele>1176.3</ele>
        <time>2023-05-19T06:48:25Z</time>
      </trkpt>
      <trkpt lat="47.91183" lon="7.04931">
        <ele>1176.4</ele>
        <time>2023-05-19T06:48:29Z</time>
      </trkpt>
      <trkpt lat="47.91186" lon="7.04925">
        <ele>1176.4</ele>
        <time>2023-05-19T06:48:33Z</time>
      </trkpt>
      <trkpt lat="47.91189" lon="7.0492">
        <ele>1176.5</ele>
        <time>2023-05-19T06:48:36Z</time>
      </trkpt>
      <trkpt lat="47.91193" lon="7.04915">
        <ele>1176.7</ele>
        <time>2023-05-19T06:48:41Z</time>
      </trkpt>
      <trkpt lat="47.91197" lon="7.04912">
        <ele>1176.7</ele>
        <time>2023-05-19T06:48:49Z</time>
      </trkpt>
      <trkpt lat="47.91204" lon="7.04902">
        <ele>1176.5</ele>
        <time>2023-05-19T06:48:59Z</time>
      </trkpt>
      <trkpt lat="47.91208" lon="7.04895">
        <ele>1176.6</ele>
        <time>2023-05-19T06:49:04Z</time>
      </trkpt>
      <trkpt lat="47.91212" lon="7.04891">
        <ele>1176.9</ele>
        <time>2023-05-19T06:49:08Z</time>
      </trkpt>
      <trkpt lat="47.91215" lon="7.04887">
        <ele>1177.1</ele>
        <time>2023-05-19T06:49:12Z</time>
      </trkpt>
      <trkpt lat="47.91221" lon="7.04878">
        <ele>1177.8</ele>
        <time>2023-05-19T06:49:20Z</time>
      </trkpt>
      <trkpt lat="47.91227" lon="7.04869">
        <ele>1178.2</ele>
        <time>2023-05-19T06:49:28Z</time>
      </trkpt>
      <trkpt lat="47.91234" lon="7.04861">
        <ele>1178.8</ele>
        <time>2023-05-19T06:49:35Z</time>
      </trkpt>
      <trkpt lat="47.91241" lon="7.04852">
        <ele>1178.6</ele>
        <time>2023-05-19T06:49:42Z</time>
      </trkpt>
      <trkpt lat="47.91248" lon="7.04842">
        <ele>1179</ele>
        <time>2023-05-19T06:49:51Z</time>
      </trkpt>
      <trkpt lat="47.91254" lon="7.04831">
        <ele>1179.3</ele>
        <time>2023-05-19T06:49:58Z</time>
      </trkpt>
      <trkpt lat="47.91256" lon="7.04819">
        <ele>1179.2</ele>
        <time>2023-05-19T06:50:05Z</time>
      </trkpt>
      <trkpt lat="47.91264" lon="7.04789">
        <ele>1181.3</ele>
        <time>2023-05-19T06:50:24Z</time>
      </trkpt>
      <trkpt lat="47.91266" lon="7.04783">
        <ele>1182.1</ele>
        <time>2023-05-19T06:50:28Z</time>
      </trkpt>
      <trkpt lat="47.91268" lon="7.04777">
        <ele>1182.9</ele>
        <time>2023-05-19T06:50:32Z</time>
      </trkpt>
      <trkpt lat="47.91271" lon="7.04764">
        <ele>1184.7</ele>
        <time>2023-05-19T06:50:41Z</time>
      </trkpt>
      <trkpt lat="47.91282" lon="7.04727">
        <ele>1191.6</ele>
        <time>2023-05-19T06:51:13Z</time>
      </trkpt>
      <trkpt lat="47.91286" lon="7.04714">
        <ele>1192.9</ele>
        <time>2023-05-19T06:51:23Z</time>
      </trkpt>
      <trkpt lat="47.91289" lon="7.04705">
        <ele>1193.3</ele>
        <time>2023-05-19T06:51:30Z</time>
      </trkpt>
      <trkpt lat="47.91293" lon="7.047">
        <ele>1194</ele>
        <time>2023-05-19T06:51:35Z</time>
      </trkpt>
      <trkpt lat="47.91294" lon="7.04693">
        <ele>1193.6</ele>
        <time>2023-05-19T06:51:41Z</time>
      </trkpt>
      <trkpt lat="47.91296" lon="7.04685">
        <ele>1192.3</ele>
        <time>2023-05-19T06:51:46Z</time>
      </trkpt>
      <trkpt lat="47.91301" lon="7.04655">
        <ele>1188.2</ele>
        <time>2023-05-19T06:52:04Z</time>
      </trkpt>
      <trkpt lat="47.91305" lon="7.04647">
        <ele>1188.2</ele>
        <time>2023-05-19T06:52:10Z</time>
      </trkpt>
      <trkpt lat="47.91311" lon="7.04635">
        <ele>1188</ele>
        <time>2023-05-19T06:52:17Z</time>
      </trkpt>
      <trkpt lat="47.91329" lon="7.04593">
        <ele>1185.4</ele>
        <time>2023-05-19T06:52:42Z</time>
      </trkpt>
      <trkpt lat="47.91341" lon="7.04567">
        <ele>1184.2</ele>
        <time>2023-05-19T06:52:57Z</time>
      </trkpt>
      <trkpt lat="47.91344" lon="7.04562">
        <ele>1184.4</ele>
        <time>2023-05-19T06:53:00Z</time>
      </trkpt>
      <trkpt lat="47.91351" lon="7.04543">
        <ele>1184.2</ele>
        <time>2023-05-19T06:53:10Z</time>
      </trkpt>
      <trkpt lat="47.9136" lon="7.04526">
        <ele>1185.1</ele>
        <time>2023-05-19T06:53:22Z</time>
      </trkpt>
      <trkpt lat="47.91364" lon="7.04523">
        <ele>1185.9</ele>
        <time>2023-05-19T06:53:26Z</time>
      </trkpt>
      <trkpt lat="47.91367" lon="7.04518">
        <ele>1185.9</ele>
        <time>2023-05-19T06:53:30Z</time>
      </trkpt>
      <trkpt lat="47.91369" lon="7.04511">
        <ele>1185.1</ele>
        <time>2023-05-19T06:53:34Z</time>
      </trkpt>
      <trkpt lat="47.91373" lon="7.04506">
        <ele>1185.8</ele>
        <time>2023-05-19T06:53:38Z</time>
      </trkpt>
      <trkpt lat="47.91375" lon="7.04498">
        <ele>1185.2</ele>
        <time>2023-05-19T06:53:42Z</time>
      </trkpt>
      <trkpt lat="47.91381" lon="7.04486">
        <ele>1185.7</ele>
        <time>2023-05-19T06:53:49Z</time>
      </trkpt>
      <trkpt lat="47.91392" lon="7.04468">
        <ele>1186.3</ele>
        <time>2023-05-19T06:54:00Z</time>
      </trkpt>
      <trkpt lat="47.91399" lon="7.04461">
        <ele>1187.1</ele>
        <time>2023-05-19T06:54:10Z</time>
      </trkpt>
      <trkpt lat="47.91407" lon="7.04447">
        <ele>1187</ele>
        <time>2023-05-19T06:54:19Z</time>
      </trkpt>
      <trkpt lat="47.91415" lon="7.0444">
        <ele>1187.5</ele>
        <time>2023-05-19T06:54:26Z</time>
      </trkpt>
      <trkpt lat="47.9142" lon="7.0444">
        <ele>1188.6</ele>
        <time>2023-05-19T06:54:30Z</time>
      </trkpt>
      <trkpt lat="47.9145" lon="7.04426">
        <ele>1190.3</ele>
        <time>2023-05-19T06:55:01Z</time>
      </trkpt>
      <trkpt lat="47.91454" lon="7.04424">
        <ele>1190.1</ele>
        <time>2023-05-19T06:55:05Z</time>
      </trkpt>
      <trkpt lat="47.91459" lon="7.04423">
        <ele>1190.4</ele>
        <time>2023-05-19T06:55:08Z</time>
      </trkpt>
      <trkpt lat="47.91465" lon="7.04423">
        <ele>1191</ele>
        <time>2023-05-19T06:55:12Z</time>
      </trkpt>
      <trkpt lat="47.9147" lon="7.04423">
        <ele>1191.6</ele>
        <time>2023-05-19T06:55:16Z</time>
      </trkpt>
      <trkpt lat="47.91479" lon="7.04424">
        <ele>1192.6</ele>
        <time>2023-05-19T06:55:23Z</time>
      </trkpt>
      <trkpt lat="47.91484" lon="7.04424">
        <ele>1193</ele>
        <time>2023-05-19T06:55:27Z</time>
      </trkpt>
      <trkpt lat="47.91514" lon="7.04421">
        <ele>1194.8</ele>
        <time>2023-05-19T06:55:50Z</time>
      </trkpt>
      <trkpt lat="47.91525" lon="7.04419">
        <ele>1195.4</ele>
        <time>2023-05-19T06:55:59Z</time>
      </trkpt>
      <trkpt lat="47.91529" lon="7.04418">
        <ele>1195.5</ele>
        <time>2023-05-19T06:56:03Z</time>
      </trkpt>
      <trkpt lat="47.91538" lon="7.04418">
        <ele>1196.1</ele>
        <time>2023-05-19T06:56:10Z</time>
      </trkpt>
      <trkpt lat="47.91542" lon="7.04414">
        <ele>1195.1</ele>
        <time>2023-05-19T06:56:13Z</time>
      </trkpt>
      <trkpt lat="47.91547" lon="7.04412">
        <ele>1194.8</ele>
        <time>2023-05-19T06:56:17Z</time>
      </trkpt>
      <trkpt lat="47.91552" lon="7.04411">
        <ele>1194.9</ele>
        <time>2023-05-19T06:56:21Z</time>
      </trkpt>
      <trkpt lat="47.91557" lon="7.04407">
        <ele>1194.1</ele>
        <time>2023-05-19T06:56:25Z</time>
      </trkpt>
      <trkpt lat="47.91571" lon="7.04398">
        <ele>1193.4</ele>
        <time>2023-05-19T06:56:36Z</time>
      </trkpt>
      <trkpt lat="47.9158" lon="7.04395">
        <ele>1193.7</ele>
        <time>2023-05-19T06:56:42Z</time>
      </trkpt>
      <trkpt lat="47.91587" lon="7.04388">
        <ele>1192.6</ele>
        <time>2023-05-19T06:56:48Z</time>
      </trkpt>
      <trkpt lat="47.91592" lon="7.04386">
        <ele>1193.2</ele>
        <time>2023-05-19T06:56:51Z</time>
      </trkpt>
      <trkpt lat="47.91597" lon="7.04383">
        <ele>1193.4</ele>
        <time>2023-05-19T06:56:55Z</time>
      </trkpt>
      <trkpt lat="47.9162" lon="7.04375">
        <ele>1196.7</ele>
        <time>2023-05-19T06:57:18Z</time>
      </trkpt>
      <trkpt lat="47.91624" lon="7.0437">
        <ele>1196.1</ele>
        <time>2023-05-19T06:57:22Z</time>
      </trkpt>
      <trkpt lat="47.91629" lon="7.04366">
        <ele>1196.1</ele>
        <time>2023-05-19T06:57:25Z</time>
      </trkpt>
      <trkpt lat="47.91633" lon="7.0436">
        <ele>1195.1</ele>
        <time>2023-05-19T06:57:29Z</time>
      </trkpt>
      <trkpt lat="47.91649" lon="7.04347">
        <ele>1195.4</ele>
        <time>2023-05-19T06:57:46Z</time>
      </trkpt>
      <trkpt lat="47.91659" lon="7.04333">
        <ele>1194.1</ele>
        <time>2023-05-19T06:57:57Z</time>
      </trkpt>
      <trkpt lat="47.91667" lon="7.04325">
        <ele>1194.4</ele>
        <time>2023-05-19T06:58:04Z</time>
      </trkpt>
      <trkpt lat="47.91691" lon="7.04291">
        <ele>1191</ele>
        <time>2023-05-19T06:58:29Z</time>
      </trkpt>
      <trkpt lat="47.91696" lon="7.04289">
        <ele>1192.1</ele>
        <time>2023-05-19T06:58:33Z</time>
      </trkpt>
      <trkpt lat="47.91699" lon="7.04284">
        <ele>1191.5</ele>
        <time>2023-05-19T06:58:37Z</time>
      </trkpt>
      <trkpt lat="47.91704" lon="7.04269">
        <ele>1188.3</ele>
        <time>2023-05-19T06:58:47Z</time>
      </trkpt>
      <trkpt lat="47.91709" lon="7.04262">
        <ele>1187.9</ele>
        <time>2023-05-19T06:58:56Z</time>
      </trkpt>
      <trkpt lat="47.91711" lon="7.04255">
        <ele>1186.6</ele>
        <time>2023-05-19T06:59:00Z</time>
      </trkpt>
      <trkpt lat="47.91715" lon="7.04249">
        <ele>1186.5</ele>
        <time>2023-05-19T06:59:04Z</time>
      </trkpt>
      <trkpt lat="47.91719" lon="7.04235">
        <ele>1183.4</ele>
        <time>2023-05-19T06:59:13Z</time>
      </trkpt>
      <trkpt lat="47.91723" lon="7.04232">
        <ele>1183.8</ele>
        <time>2023-05-19T06:59:17Z</time>
      </trkpt>
      <trkpt lat="47.91727" lon="7.04223">
        <ele>1181.8</ele>
        <time>2023-05-19T06:59:23Z</time>
      </trkpt>
      <trkpt lat="47.91728" lon="7.04217">
        <ele>1180.7</ele>
        <time>2023-05-19T06:59:27Z</time>
      </trkpt>
      <trkpt lat="47.91737" lon="7.04208">
        <ele>1181.4</ele>
        <time>2023-05-19T06:59:35Z</time>
      </trkpt>
      <trkpt lat="47.91741" lon="7.04203">
        <ele>1181.5</ele>
        <time>2023-05-19T06:59:39Z</time>
      </trkpt>
      <trkpt lat="47.91745" lon="7.04199">
        <ele>1181.7</ele>
        <time>2023-05-19T06:59:42Z</time>
      </trkpt>
      <trkpt lat="47.91748" lon="7.04194">
        <ele>1181.3</ele>
        <time>2023-05-19T06:59:45Z</time>
      </trkpt>
      <trkpt lat="47.91755" lon="7.04186">
        <ele>1181.7</ele>
        <time>2023-05-19T06:59:53Z</time>
      </trkpt>
      <trkpt lat="47.91758" lon="7.04181">
        <ele>1181.5</ele>
        <time>2023-05-19T06:59:57Z</time>
      </trkpt>
      <trkpt lat="47.91771" lon="7.04171">
        <ele>1183.7</ele>
        <time>2023-05-19T07:00:10Z</time>
      </trkpt>
      <trkpt lat="47.91776" lon="7.04167">
        <ele>1184.4</ele>
        <time>2023-05-19T07:00:14Z</time>
      </trkpt>
      <trkpt lat="47.91784" lon="7.04162">
        <ele>1185.4</ele>
        <time>2023-05-19T07:00:21Z</time>
      </trkpt>
      <trkpt lat="47.91791" lon="7.04158">
        <ele>1186.4</ele>
        <time>2023-05-19T07:00:28Z</time>
      </trkpt>
      <trkpt lat="47.91795" lon="7.04154">
        <ele>1186.7</ele>
        <time>2023-05-19T07:00:32Z</time>
      </trkpt>
      <trkpt lat="47.91805" lon="7.04145">
        <ele>1188.1</ele>
        <time>2023-05-19T07:00:41Z</time>
      </trkpt>
      <trkpt lat="47.91814" lon="7.04143">
        <ele>1188.8</ele>
        <time>2023-05-19T07:00:48Z</time>
      </trkpt>
      <trkpt lat="47.91818" lon="7.04139">
        <ele>1188.4</ele>
        <time>2023-05-19T07:00:52Z</time>
      </trkpt>
      <trkpt lat="47.91823" lon="7.04139">
        <ele>1188.9</ele>
        <time>2023-05-19T07:00:55Z</time>
      </trkpt>
      <trkpt lat="47.91837" lon="7.0413">
        <ele>1187.5</ele>
        <time>2023-05-19T07:01:07Z</time>
      </trkpt>
      <trkpt lat="47.91841" lon="7.04127">
        <ele>1187</ele>
        <time>2023-05-19T07:01:10Z</time>
      </trkpt>
      <trkpt lat="47.91847" lon="7.04125">
        <ele>1187</ele>
        <time>2023-05-19T07:01:15Z</time>
      </trkpt>
      <trkpt lat="47.91852" lon="7.04123">
        <ele>1186.9</ele>
        <time>2023-05-19T07:01:19Z</time>
      </trkpt>
      <trkpt lat="47.91861" lon="7.04118">
        <ele>1186.2</ele>
        <time>2023-05-19T07:01:27Z</time>
      </trkpt>
      <trkpt lat="47.91866" lon="7.04117">
        <ele>1187</ele>
        <time>2023-05-19T07:01:32Z</time>
      </trkpt>
      <trkpt lat="47.91871" lon="7.04115">
        <ele>1187.4</ele>
        <time>2023-05-19T07:01:36Z</time>
      </trkpt>
      <trkpt lat="47.91875" lon="7.04114">
        <ele>1187.9</ele>
        <time>2023-05-19T07:01:41Z</time>
      </trkpt>
      <trkpt lat="47.91882" lon="7.0411">
        <ele>1188</ele>
        <time>2023-05-19T07:01:48Z</time>
      </trkpt>
      <trkpt lat="47.91888" lon="7.04105">
        <ele>1187</ele>
        <time>2023-05-19T07:01:54Z</time>
      </trkpt>
      <trkpt lat="47.91899" lon="7.04101">
        <ele>1187.1</ele>
        <time>2023-05-19T07:02:03Z</time>
      </trkpt>
      <trkpt lat="47.91903" lon="7.04099">
        <ele>1187</ele>
        <time>2023-05-19T07:02:06Z</time>
      </trkpt>
      <trkpt lat="47.91908" lon="7.04099">
        <ele>1188</ele>
        <time>2023-05-19T07:02:09Z</time>
      </trkpt>
      <trkpt lat="47.91917" lon="7.04094">
        <ele>1187.9</ele>
        <time>2023-05-19T07:02:16Z</time>
      </trkpt>
      <trkpt lat="47.91921" lon="7.04089">
        <ele>1187.1</ele>
        <time>2023-05-19T07:02:19Z</time>
      </trkpt>
      <trkpt lat="47.91926" lon="7.04085">
        <ele>1186.9</ele>
        <time>2023-05-19T07:02:22Z</time>
      </trkpt>
      <trkpt lat="47.9193" lon="7.04083">
        <ele>1187.3</ele>
        <time>2023-05-19T07:02:25Z</time>
      </trkpt>
      <trkpt lat="47.91935" lon="7.04079">
        <ele>1187.2</ele>
        <time>2023-05-19T07:02:31Z</time>
      </trkpt>
      <trkpt lat="47.91939" lon="7.04075">
        <ele>1186.9</ele>
        <time>2023-05-19T07:02:35Z</time>
      </trkpt>
      <trkpt lat="47.9195" lon="7.0407">
        <ele>1188.2</ele>
        <time>2023-05-19T07:02:44Z</time>
      </trkpt>
      <trkpt lat="47.91954" lon="7.04065">
        <ele>1187.7</ele>
        <time>2023-05-19T07:02:48Z</time>
      </trkpt>
      <trkpt lat="47.91959" lon="7.0406">
        <ele>1187.5</ele>
        <time>2023-05-19T07:02:52Z</time>
      </trkpt>
      <trkpt lat="47.91979" lon="7.04047">
        <ele>1188.6</ele>
        <time>2023-05-19T07:03:08Z</time>
      </trkpt>
      <trkpt lat="47.91995" lon="7.04039">
        <ele>1189.8</ele>
        <time>2023-05-19T07:03:21Z</time>
      </trkpt>
      <trkpt lat="47.91999" lon="7.04035">
        <ele>1189.3</ele>
        <time>2023-05-19T07:03:25Z</time>
      </trkpt>
      <trkpt lat="47.92008" lon="7.04032">
        <ele>1190.2</ele>
        <time>2023-05-19T07:03:34Z</time>
      </trkpt>
      <trkpt lat="47.92018" lon="7.04025">
        <ele>1189.9</ele>
        <time>2023-05-19T07:03:42Z</time>
      </trkpt>
      <trkpt lat="47.92023" lon="7.04023">
        <ele>1190.2</ele>
        <time>2023-05-19T07:03:46Z</time>
      </trkpt>
      <trkpt lat="47.92028" lon="7.04018">
        <ele>1189.5</ele>
        <time>2023-05-19T07:03:51Z</time>
      </trkpt>
      <trkpt lat="47.92032" lon="7.04014">
        <ele>1189.1</ele>
        <time>2023-05-19T07:03:54Z</time>
      </trkpt>
      <trkpt lat="47.92036" lon="7.04011">
        <ele>1189</ele>
        <time>2023-05-19T07:03:57Z</time>
      </trkpt>
      <trkpt lat="47.92044" lon="7.04001">
        <ele>1187.4</ele>
        <time>2023-05-19T07:04:05Z</time>
      </trkpt>
      <trkpt lat="47.92048" lon="7.03997">
        <ele>1186.8</ele>
        <time>2023-05-19T07:04:08Z</time>
      </trkpt>
      <trkpt lat="47.92053" lon="7.03996">
        <ele>1187.4</ele>
        <time>2023-05-19T07:04:12Z</time>
      </trkpt>
      <trkpt lat="47.92057" lon="7.03996">
        <ele>1188.2</ele>
        <time>2023-05-19T07:04:16Z</time>
      </trkpt>
      <trkpt lat="47.92062" lon="7.03993">
        <ele>1187.5</ele>
        <time>2023-05-19T07:04:20Z</time>
      </trkpt>
      <trkpt lat="47.92066" lon="7.0399">
        <ele>1186.7</ele>
        <time>2023-05-19T07:04:24Z</time>
      </trkpt>
      <trkpt lat="47.92085" lon="7.03983">
        <ele>1187.1</ele>
        <time>2023-05-19T07:04:40Z</time>
      </trkpt>
      <trkpt lat="47.9209" lon="7.03983">
        <ele>1188.4</ele>
        <time>2023-05-19T07:04:44Z</time>
      </trkpt>
      <trkpt lat="47.92106" lon="7.03972">
        <ele>1188.4</ele>
        <time>2023-05-19T07:04:56Z</time>
      </trkpt>
      <trkpt lat="47.92123" lon="7.03954">
        <ele>1187.7</ele>
        <time>2023-05-19T07:05:11Z</time>
      </trkpt>
      <trkpt lat="47.92133" lon="7.03938">
        <ele>1188.3</ele>
        <time>2023-05-19T07:05:22Z</time>
      </trkpt>
      <trkpt lat="47.92136" lon="7.03931">
        <ele>1188.2</ele>
        <time>2023-05-19T07:05:27Z</time>
      </trkpt>
      <trkpt lat="47.9214" lon="7.03924">
        <ele>1188.2</ele>
        <time>2023-05-19T07:05:35Z</time>
      </trkpt>
      <trkpt lat="47.92155" lon="7.03892">
        <ele>1184.8</ele>
        <time>2023-05-19T07:05:56Z</time>
      </trkpt>
      <trkpt lat="47.92166" lon="7.03877">
        <ele>1185.3</ele>
        <time>2023-05-19T07:06:07Z</time>
      </trkpt>
      <trkpt lat="47.92172" lon="7.03871">
        <ele>1185.2</ele>
        <time>2023-05-19T07:06:14Z</time>
      </trkpt>
      <trkpt lat="47.92175" lon="7.03867">
        <ele>1185</ele>
        <time>2023-05-19T07:06:16Z</time>
      </trkpt>
      <trkpt lat="47.92178" lon="7.03861">
        <ele>1184.2</ele>
        <time>2023-05-19T07:06:19Z</time>
      </trkpt>
      <trkpt lat="47.92187" lon="7.03847">
        <ele>1184.3</ele>
        <time>2023-05-19T07:06:28Z</time>
      </trkpt>
      <trkpt lat="47.92194" lon="7.03837">
        <ele>1184.5</ele>
        <time>2023-05-19T07:06:35Z</time>
      </trkpt>
      <trkpt lat="47.92198" lon="7.03834">
        <ele>1185</ele>
        <time>2023-05-19T07:06:39Z</time>
      </trkpt>
      <trkpt lat="47.92202" lon="7.03828">
        <ele>1184.5</ele>
        <time>2023-05-19T07:06:43Z</time>
      </trkpt>
      <trkpt lat="47.92206" lon="7.03823">
        <ele>1184.2</ele>
        <time>2023-05-19T07:06:47Z</time>
      </trkpt>
      <trkpt lat="47.92221" lon="7.03805">
        <ele>1184.5</ele>
        <time>2023-05-19T07:07:02Z</time>
      </trkpt>
      <trkpt lat="47.92225" lon="7.038">
        <ele>1184.5</ele>
        <time>2023-05-19T07:07:06Z</time>
      </trkpt>
      <trkpt lat="47.92242" lon="7.03766">
        <ele>1183.7</ele>
        <time>2023-05-19T07:07:30Z</time>
      </trkpt>
      <trkpt lat="47.92246" lon="7.03753">
        <ele>1183.1</ele>
        <time>2023-05-19T07:07:39Z</time>
      </trkpt>
      <trkpt lat="47.92247" lon="7.03746">
        <ele>1182</ele>
        <time>2023-05-19T07:07:42Z</time>
      </trkpt>
      <trkpt lat="47.9225" lon="7.0374">
        <ele>1181.5</ele>
        <time>2023-05-19T07:07:46Z</time>
      </trkpt>
      <trkpt lat="47.92262" lon="7.03713">
        <ele>1180</ele>
        <time>2023-05-19T07:08:02Z</time>
      </trkpt>
      <trkpt lat="47.92266" lon="7.03709">
        <ele>1180.8</ele>
        <time>2023-05-19T07:08:06Z</time>
      </trkpt>
      <trkpt lat="47.92269" lon="7.03704">
        <ele>1181</ele>
        <time>2023-05-19T07:08:10Z</time>
      </trkpt>
      <trkpt lat="47.92272" lon="7.03699">
        <ele>1181.1</ele>
        <time>2023-05-19T07:08:14Z</time>
      </trkpt>
      <trkpt lat="47.92278" lon="7.03687">
        <ele>1180.5</ele>
        <time>2023-05-19T07:08:22Z</time>
      </trkpt>
      <trkpt lat="47.92281" lon="7.03681">
        <ele>1180</ele>
        <time>2023-05-19T07:08:25Z</time>
      </trkpt>
      <trkpt lat="47.92283" lon="7.03675">
        <ele>1179.4</ele>
        <time>2023-05-19T07:08:28Z</time>
      </trkpt>
      <trkpt lat="47.92288" lon="7.03661">
        <ele>1179</ele>
        <time>2023-05-19T07:08:36Z</time>
      </trkpt>
      <trkpt lat="47.92291" lon="7.03639">
        <ele>1178.3</ele>
        <time>2023-05-19T07:08:48Z</time>
      </trkpt>
      <trkpt lat="47.92291" lon="7.03593">
        <ele>1177.2</ele>
        <time>2023-05-19T07:09:12Z</time>
      </trkpt>
      <trkpt lat="47.9229" lon="7.03579">
        <ele>1176.7</ele>
        <time>2023-05-19T07:09:20Z</time>
      </trkpt>
      <trkpt lat="47.92284" lon="7.03519">
        <ele>1175.7</ele>
        <time>2023-05-19T07:09:53Z</time>
      </trkpt>
      <trkpt lat="47.92283" lon="7.03511">
        <ele>1175.6</ele>
        <time>2023-05-19T07:09:57Z</time>
      </trkpt>
      <trkpt lat="47.92283" lon="7.03504">
        <ele>1175.6</ele>
        <time>2023-05-19T07:10:01Z</time>
      </trkpt>
      <trkpt lat="47.92282" lon="7.03496">
        <ele>1175.5</ele>
        <time>2023-05-19T07:10:08Z</time>
      </trkpt>
      <trkpt lat="47.92281" lon="7.0349">
        <ele>1175.3</ele>
        <time>2023-05-19T07:10:12Z</time>
      </trkpt>
      <trkpt lat="47.92281" lon="7.03482">
        <ele>1175.3</ele>
        <time>2023-05-19T07:10:17Z</time>
      </trkpt>
      <trkpt lat="47.9228" lon="7.03476">
        <ele>1175.2</ele>
        <time>2023-05-19T07:10:21Z</time>
      </trkpt>
      <trkpt lat="47.92274" lon="7.03469">
        <ele>1174.6</ele>
        <time>2023-05-19T07:10:30Z</time>
      </trkpt>
      <trkpt lat="47.9227" lon="7.0347">
        <ele>1174.2</ele>
        <time>2023-05-19T07:10:35Z</time>
      </trkpt>
      <trkpt lat="47.92265" lon="7.03477">
        <ele>1173.7</ele>
        <time>2023-05-19T07:10:41Z</time>
      </trkpt>
      <trkpt lat="47.92262" lon="7.03476">
        <ele>1173.4</ele>
        <time>2023-05-19T07:10:50Z</time>
      </trkpt>
      <trkpt lat="47.92258" lon="7.0347">
        <ele>1172.9</ele>
        <time>2023-05-19T07:10:56Z</time>
      </trkpt>
      <trkpt lat="47.92255" lon="7.03466">
        <ele>1172.5</ele>
        <time>2023-05-19T07:11:01Z</time>
      </trkpt>
      <trkpt lat="47.92249" lon="7.03466">
        <ele>1171.8</ele>
        <time>2023-05-19T07:11:06Z</time>
      </trkpt>
      <trkpt lat="47.92245" lon="7.03464">
        <ele>1171.2</ele>
        <time>2023-05-19T07:11:10Z</time>
      </trkpt>
      <trkpt lat="47.92242" lon="7.03459">
        <ele>1170.8</ele>
        <time>2023-05-19T07:11:14Z</time>
      </trkpt>
      <trkpt lat="47.92239" lon="7.03454">
        <ele>1170.5</ele>
        <time>2023-05-19T07:11:22Z</time>
      </trkpt>
      <trkpt lat="47.92237" lon="7.03442">
        <ele>1170.6</ele>
        <time>2023-05-19T07:11:36Z</time>
      </trkpt>
      <trkpt lat="47.92243" lon="7.0344">
        <ele>1171.4</ele>
        <time>2023-05-19T07:11:57Z</time>
      </trkpt>
      <trkpt lat="47.92236" lon="7.0345">
        <ele>1170.3</ele>
        <time>2023-05-19T07:12:22Z</time>
      </trkpt>
      <trkpt lat="47.92258" lon="7.03436">
        <ele>1173.2</ele>
        <time>2023-05-19T07:59:59Z</time>
      </trkpt>
      <trkpt lat="47.92262" lon="7.0342">
        <ele>1174.2</ele>
        <time>2023-05-19T08:00:13Z</time>
      </trkpt>
      <trkpt lat="47.92263" lon="7.03411">
        <ele>1174.7</ele>
        <time>2023-05-19T08:00:20Z</time>
      </trkpt>
      <trkpt lat="47.92266" lon="7.034">
        <ele>1175.6</ele>
        <time>2023-05-19T08:00:28Z</time>
      </trkpt>
      <trkpt lat="47.92266" lon="7.03394">
        <ele>1175.9</ele>
        <time>2023-05-19T08:00:33Z</time>
      </trkpt>
      <trkpt lat="47.92269" lon="7.0338">
        <ele>1176.8</ele>
        <time>2023-05-19T08:00:45Z</time>
      </trkpt>
      <trkpt lat="47.92271" lon="7.03366">
        <ele>1177.5</ele>
        <time>2023-05-19T08:00:54Z</time>
      </trkpt>
      <trkpt lat="47.92276" lon="7.03349">
        <ele>1178.8</ele>
        <time>2023-05-19T08:01:06Z</time>
      </trkpt>
      <trkpt lat="47.92277" lon="7.03343">
        <ele>1179.3</ele>
        <time>2023-05-19T08:01:11Z</time>
      </trkpt>
      <trkpt lat="47.92284" lon="7.03307">
        <ele>1181.7</ele>
        <time>2023-05-19T08:01:36Z</time>
      </trkpt>
      <trkpt lat="47.92284" lon="7.03299">
        <ele>1182.2</ele>
        <time>2023-05-19T08:01:41Z</time>
      </trkpt>
      <trkpt lat="47.92293" lon="7.0326">
        <ele>1183.5</ele>
        <time>2023-05-19T08:02:06Z</time>
      </trkpt>
      <trkpt lat="47.92299" lon="7.03232">
        <ele>1183.9</ele>
        <time>2023-05-19T08:02:25Z</time>
      </trkpt>
      <trkpt lat="47.92302" lon="7.0321">
        <ele>1184.6</ele>
        <time>2023-05-19T08:02:37Z</time>
      </trkpt>
      <trkpt lat="47.92316" lon="7.03156">
        <ele>1185.4</ele>
        <time>2023-05-19T08:03:08Z</time>
      </trkpt>
      <trkpt lat="47.9232" lon="7.03143">
        <ele>1185.4</ele>
        <time>2023-05-19T08:03:16Z</time>
      </trkpt>
      <trkpt lat="47.92322" lon="7.03136">
        <ele>1185.5</ele>
        <time>2023-05-19T08:03:20Z</time>
      </trkpt>
      <trkpt lat="47.92325" lon="7.0313">
        <ele>1185.6</ele>
        <time>2023-05-19T08:03:24Z</time>
      </trkpt>
      <trkpt lat="47.92327" lon="7.03123">
        <ele>1185.8</ele>
        <time>2023-05-19T08:03:28Z</time>
      </trkpt>
      <trkpt lat="47.92336" lon="7.03104">
        <ele>1186.3</ele>
        <time>2023-05-19T08:03:40Z</time>
      </trkpt>
      <trkpt lat="47.92347" lon="7.03087">
        <ele>1186.9</ele>
        <time>2023-05-19T08:03:52Z</time>
      </trkpt>
      <trkpt lat="47.92351" lon="7.03084">
        <ele>1187</ele>
        <time>2023-05-19T08:03:58Z</time>
      </trkpt>
      <trkpt lat="47.92365" lon="7.03066">
        <ele>1187.6</ele>
        <time>2023-05-19T08:04:28Z</time>
      </trkpt>
      <trkpt lat="47.92374" lon="7.03058">
        <ele>1187.9</ele>
        <time>2023-05-19T08:04:36Z</time>
      </trkpt>
      <trkpt lat="47.92379" lon="7.03053">
        <ele>1188.2</ele>
        <time>2023-05-19T08:04:41Z</time>
      </trkpt>
      <trkpt lat="47.92382" lon="7.03049">
        <ele>1188.4</ele>
        <time>2023-05-19T08:04:45Z</time>
      </trkpt>
      <trkpt lat="47.92386" lon="7.03045">
        <ele>1188.7</ele>
        <time>2023-05-19T08:04:48Z</time>
      </trkpt>
      <trkpt lat="47.92394" lon="7.03034">
        <ele>1189.5</ele>
        <time>2023-05-19T08:04:57Z</time>
      </trkpt>
      <trkpt lat="47.92398" lon="7.0303">
        <ele>1189.6</ele>
        <time>2023-05-19T08:05:01Z</time>
      </trkpt>
      <trkpt lat="47.92402" lon="7.03027">
        <ele>1189.6</ele>
        <time>2023-05-19T08:05:05Z</time>
      </trkpt>
      <trkpt lat="47.92412" lon="7.03024">
        <ele>1189.4</ele>
        <time>2023-05-19T08:05:12Z</time>
      </trkpt>
      <trkpt lat="47.92416" lon="7.03021">
        <ele>1189.5</ele>
        <time>2023-05-19T08:05:15Z</time>
      </trkpt>
      <trkpt lat="47.92421" lon="7.03021">
        <ele>1189.5</ele>
        <time>2023-05-19T08:05:18Z</time>
      </trkpt>
      <trkpt lat="47.92426" lon="7.03021">
        <ele>1189.5</ele>
        <time>2023-05-19T08:05:21Z</time>
      </trkpt>
      <trkpt lat="47.9243" lon="7.03025">
        <ele>1189.2</ele>
        <time>2023-05-19T08:05:24Z</time>
      </trkpt>
      <trkpt lat="47.92433" lon="7.03029">
        <ele>1188.9</ele>
        <time>2023-05-19T08:05:27Z</time>
      </trkpt>
      <trkpt lat="47.92421" lon="7.02993">
        <ele>1191.5</ele>
        <time>2023-05-19T08:06:37Z</time>
      </trkpt>
      <trkpt lat="47.92425" lon="7.03008">
        <ele>1190.4</ele>
        <time>2023-05-19T08:06:44Z</time>
      </trkpt>
      <trkpt lat="47.92428" lon="7.02996">
        <ele>1191.3</ele>
        <time>2023-05-19T08:06:56Z</time>
      </trkpt>
      <trkpt lat="47.9243" lon="7.0299">
        <ele>1191.9</ele>
        <time>2023-05-19T08:07:01Z</time>
      </trkpt>
      <trkpt lat="47.92432" lon="7.02984">
        <ele>1192.5</ele>
        <time>2023-05-19T08:07:05Z</time>
      </trkpt>
      <trkpt lat="47.92432" lon="7.0296">
        <ele>1194.2</ele>
        <time>2023-05-19T08:07:19Z</time>
      </trkpt>
      <trkpt lat="47.92433" lon="7.02954">
        <ele>1194.5</ele>
        <time>2023-05-19T08:07:23Z</time>
      </trkpt>
      <trkpt lat="47.92436" lon="7.02941">
        <ele>1195.4</ele>
        <time>2023-05-19T08:07:31Z</time>
      </trkpt>
      <trkpt lat="47.92439" lon="7.02937">
        <ele>1195.8</ele>
        <time>2023-05-19T08:07:35Z</time>
      </trkpt>
      <trkpt lat="47.92449" lon="7.02932">
        <ele>1196.6</ele>
        <time>2023-05-19T08:07:43Z</time>
      </trkpt>
      <trkpt lat="47.92454" lon="7.02931">
        <ele>1197</ele>
        <time>2023-05-19T08:07:46Z</time>
      </trkpt>
      <trkpt lat="47.92459" lon="7.0293">
        <ele>1197.4</ele>
        <time>2023-05-19T08:07:51Z</time>
      </trkpt>
      <trkpt lat="47.92464" lon="7.02929">
        <ele>1197.8</ele>
        <time>2023-05-19T08:07:55Z</time>
      </trkpt>
      <trkpt lat="47.92469" lon="7.02929">
        <ele>1198</ele>
        <time>2023-05-19T08:07:59Z</time>
      </trkpt>
      <trkpt lat="47.92473" lon="7.02927">
        <ele>1198.5</ele>
        <time>2023-05-19T08:08:03Z</time>
      </trkpt>
      <trkpt lat="47.92478" lon="7.02927">
        <ele>1198.8</ele>
        <time>2023-05-19T08:08:07Z</time>
      </trkpt>
      <trkpt lat="47.92502" lon="7.02922">
        <ele>1200.9</ele>
        <time>2023-05-19T08:08:29Z</time>
      </trkpt>
      <trkpt lat="47.92507" lon="7.02919">
        <ele>1201.7</ele>
        <time>2023-05-19T08:08:34Z</time>
      </trkpt>
      <trkpt lat="47.92512" lon="7.02917">
        <ele>1202.4</ele>
        <time>2023-05-19T08:08:38Z</time>
      </trkpt>
      <trkpt lat="47.92516" lon="7.02915">
        <ele>1202.9</ele>
        <time>2023-05-19T08:08:42Z</time>
      </trkpt>
      <trkpt lat="47.9255" lon="7.0289">
        <ele>1207.8</ele>
        <time>2023-05-19T08:09:16Z</time>
      </trkpt>
      <trkpt lat="47.92575" lon="7.02869">
        <ele>1211.6</ele>
        <time>2023-05-19T08:09:42Z</time>
      </trkpt>
      <trkpt lat="47.92579" lon="7.02866">
        <ele>1212.1</ele>
        <time>2023-05-19T08:09:45Z</time>
      </trkpt>
      <trkpt lat="47.92583" lon="7.02863">
        <ele>1212.7</ele>
        <time>2023-05-19T08:09:49Z</time>
      </trkpt>
      <trkpt lat="47.92616" lon="7.02834">
        <ele>1215.9</ele>
        <time>2023-05-19T08:10:24Z</time>
      </trkpt>
      <trkpt lat="47.92624" lon="7.02827">
        <ele>1217.2</ele>
        <time>2023-05-19T08:10:32Z</time>
      </trkpt>
      <trkpt lat="47.92635" lon="7.02815">
        <ele>1218.8</ele>
        <time>2023-05-19T08:10:44Z</time>
      </trkpt>
      <trkpt lat="47.92639" lon="7.02811">
        <ele>1219.2</ele>
        <time>2023-05-19T08:10:48Z</time>
      </trkpt>
      <trkpt lat="47.92654" lon="7.02795">
        <ele>1219.8</ele>
        <time>2023-05-19T08:11:05Z</time>
      </trkpt>
      <trkpt lat="47.92661" lon="7.02784">
        <ele>1220.1</ele>
        <time>2023-05-19T08:11:13Z</time>
      </trkpt>
      <trkpt lat="47.92663" lon="7.02778">
        <ele>1220.4</ele>
        <time>2023-05-19T08:11:17Z</time>
      </trkpt>
      <trkpt lat="47.92665" lon="7.0277">
        <ele>1220.5</ele>
        <time>2023-05-19T08:11:21Z</time>
      </trkpt>
      <trkpt lat="47.92667" lon="7.02764">
        <ele>1220.4</ele>
        <time>2023-05-19T08:11:25Z</time>
      </trkpt>
      <trkpt lat="47.92673" lon="7.02745">
        <ele>1220.3</ele>
        <time>2023-05-19T08:11:37Z</time>
      </trkpt>
      <trkpt lat="47.92675" lon="7.02739">
        <ele>1220.2</ele>
        <time>2023-05-19T08:11:41Z</time>
      </trkpt>
      <trkpt lat="47.92677" lon="7.02732">
        <ele>1220.2</ele>
        <time>2023-05-19T08:11:45Z</time>
      </trkpt>
      <trkpt lat="47.92679" lon="7.02724">
        <ele>1220.2</ele>
        <time>2023-05-19T08:11:49Z</time>
      </trkpt>
      <trkpt lat="47.92687" lon="7.02704">
        <ele>1219.7</ele>
        <time>2023-05-19T08:12:00Z</time>
      </trkpt>
      <trkpt lat="47.92689" lon="7.02698">
        <ele>1219.7</ele>
        <time>2023-05-19T08:12:04Z</time>
      </trkpt>
      <trkpt lat="47.92691" lon="7.02691">
        <ele>1219.6</ele>
        <time>2023-05-19T08:12:08Z</time>
      </trkpt>
      <trkpt lat="47.92694" lon="7.02685">
        <ele>1219.4</ele>
        <time>2023-05-19T08:12:12Z</time>
      </trkpt>
      <trkpt lat="47.92696" lon="7.02678">
        <ele>1219.3</ele>
        <time>2023-05-19T08:12:16Z</time>
      </trkpt>
      <trkpt lat="47.92705" lon="7.02659">
        <ele>1219.3</ele>
        <time>2023-05-19T08:12:28Z</time>
      </trkpt>
      <trkpt lat="47.92725" lon="7.02627">
        <ele>1219.9</ele>
        <time>2023-05-19T08:12:51Z</time>
      </trkpt>
      <trkpt lat="47.92728" lon="7.02621">
        <ele>1219.8</ele>
        <time>2023-05-19T08:12:55Z</time>
      </trkpt>
      <trkpt lat="47.9273" lon="7.02606">
        <ele>1221.3</ele>
        <time>2023-05-19T08:13:04Z</time>
      </trkpt>
      <trkpt lat="47.92734" lon="7.02601">
        <ele>1220.9</ele>
        <time>2023-05-19T08:13:08Z</time>
      </trkpt>
      <trkpt lat="47.92752" lon="7.02586">
        <ele>1218.9</ele>
        <time>2023-05-19T08:13:24Z</time>
      </trkpt>
      <trkpt lat="47.92755" lon="7.0258">
        <ele>1219.1</ele>
        <time>2023-05-19T08:13:28Z</time>
      </trkpt>
      <trkpt lat="47.92758" lon="7.02574">
        <ele>1219.1</ele>
        <time>2023-05-19T08:13:32Z</time>
      </trkpt>
      <trkpt lat="47.9276" lon="7.02567">
        <ele>1219.7</ele>
        <time>2023-05-19T08:13:36Z</time>
      </trkpt>
      <trkpt lat="47.92765" lon="7.02546">
        <ele>1221.8</ele>
        <time>2023-05-19T08:13:49Z</time>
      </trkpt>
      <trkpt lat="47.92774" lon="7.02528">
        <ele>1222.1</ele>
        <time>2023-05-19T08:14:01Z</time>
      </trkpt>
      <trkpt lat="47.92785" lon="7.02495">
        <ele>1223</ele>
        <time>2023-05-19T08:14:21Z</time>
      </trkpt>
      <trkpt lat="47.92787" lon="7.0248">
        <ele>1223.5</ele>
        <time>2023-05-19T08:14:29Z</time>
      </trkpt>
      <trkpt lat="47.92789" lon="7.02474">
        <ele>1223.2</ele>
        <time>2023-05-19T08:14:33Z</time>
      </trkpt>
      <trkpt lat="47.92792" lon="7.0246">
        <ele>1223.5</ele>
        <time>2023-05-19T08:14:41Z</time>
      </trkpt>
      <trkpt lat="47.92794" lon="7.02453">
        <ele>1223.5</ele>
        <time>2023-05-19T08:14:45Z</time>
      </trkpt>
      <trkpt lat="47.92799" lon="7.02433">
        <ele>1223.3</ele>
        <time>2023-05-19T08:14:57Z</time>
      </trkpt>
      <trkpt lat="47.92801" lon="7.02426">
        <ele>1223</ele>
        <time>2023-05-19T08:15:01Z</time>
      </trkpt>
      <trkpt lat="47.92803" lon="7.02412">
        <ele>1223.1</ele>
        <time>2023-05-19T08:15:10Z</time>
      </trkpt>
      <trkpt lat="47.92803" lon="7.02381">
        <ele>1225</ele>
        <time>2023-05-19T08:15:26Z</time>
      </trkpt>
      <trkpt lat="47.92805" lon="7.02366">
        <ele>1225</ele>
        <time>2023-05-19T08:15:34Z</time>
      </trkpt>
      <trkpt lat="47.92807" lon="7.0236">
        <ele>1224.6</ele>
        <time>2023-05-19T08:15:38Z</time>
      </trkpt>
      <trkpt lat="47.92808" lon="7.02331">
        <ele>1224.3</ele>
        <time>2023-05-19T08:15:53Z</time>
      </trkpt>
      <trkpt lat="47.92809" lon="7.02272">
        <ele>1224.4</ele>
        <time>2023-05-19T08:16:23Z</time>
      </trkpt>
      <trkpt lat="47.92809" lon="7.02235">
        <ele>1225.2</ele>
        <time>2023-05-19T08:16:43Z</time>
      </trkpt>
      <trkpt lat="47.92807" lon="7.02229">
        <ele>1225.7</ele>
        <time>2023-05-19T08:16:47Z</time>
      </trkpt>
      <trkpt lat="47.92805" lon="7.02223">
        <ele>1226.1</ele>
        <time>2023-05-19T08:16:51Z</time>
      </trkpt>
      <trkpt lat="47.92796" lon="7.02212">
        <ele>1227.5</ele>
        <time>2023-05-19T08:17:01Z</time>
      </trkpt>
      <trkpt lat="47.92793" lon="7.02208">
        <ele>1228</ele>
        <time>2023-05-19T08:17:05Z</time>
      </trkpt>
      <trkpt lat="47.92792" lon="7.022">
        <ele>1228</ele>
        <time>2023-05-19T08:17:09Z</time>
      </trkpt>
      <trkpt lat="47.92792" lon="7.02193">
        <ele>1227.9</ele>
        <time>2023-05-19T08:17:14Z</time>
      </trkpt>
      <trkpt lat="47.92793" lon="7.02186">
        <ele>1227.7</ele>
        <time>2023-05-19T08:17:18Z</time>
      </trkpt>
      <trkpt lat="47.92801" lon="7.02143">
        <ele>1226</ele>
        <time>2023-05-19T08:17:42Z</time>
      </trkpt>
      <trkpt lat="47.92801" lon="7.02136">
        <ele>1225.7</ele>
        <time>2023-05-19T08:17:46Z</time>
      </trkpt>
      <trkpt lat="47.928" lon="7.02129">
        <ele>1225.3</ele>
        <time>2023-05-19T08:17:50Z</time>
      </trkpt>
      <trkpt lat="47.92799" lon="7.02122">
        <ele>1225</ele>
        <time>2023-05-19T08:17:54Z</time>
      </trkpt>
      <trkpt lat="47.92799" lon="7.02115">
        <ele>1224.4</ele>
        <time>2023-05-19T08:17:58Z</time>
      </trkpt>
      <trkpt lat="47.92797" lon="7.02108">
        <ele>1224.5</ele>
        <time>2023-05-19T08:18:02Z</time>
      </trkpt>
      <trkpt lat="47.92796" lon="7.02102">
        <ele>1224.5</ele>
        <time>2023-05-19T08:18:05Z</time>
      </trkpt>
      <trkpt lat="47.92794" lon="7.02094">
        <ele>1224.7</ele>
        <time>2023-05-19T08:18:09Z</time>
      </trkpt>
      <trkpt lat="47.92791" lon="7.02081">
        <ele>1225.1</ele>
        <time>2023-05-19T08:18:16Z</time>
      </trkpt>
      <trkpt lat="47.92787" lon="7.02067">
        <ele>1225.8</ele>
        <time>2023-05-19T08:18:24Z</time>
      </trkpt>
      <trkpt lat="47.92786" lon="7.02061">
        <ele>1225.8</ele>
        <time>2023-05-19T08:18:28Z</time>
      </trkpt>
      <trkpt lat="47.92783" lon="7.02055">
        <ele>1226.7</ele>
        <time>2023-05-19T08:18:31Z</time>
      </trkpt>
      <trkpt lat="47.92782" lon="7.02049">
        <ele>1226.5</ele>
        <time>2023-05-19T08:18:34Z</time>
      </trkpt>
      <trkpt lat="47.92777" lon="7.02036">
        <ele>1227.2</ele>
        <time>2023-05-19T08:18:42Z</time>
      </trkpt>
      <trkpt lat="47.92769" lon="7.02007">
        <ele>1227.5</ele>
        <time>2023-05-19T08:18:59Z</time>
      </trkpt>
      <trkpt lat="47.92767" lon="7.01995">
        <ele>1227.5</ele>
        <time>2023-05-19T08:19:05Z</time>
      </trkpt>
      <trkpt lat="47.92762" lon="7.01974">
        <ele>1228.8</ele>
        <time>2023-05-19T08:19:16Z</time>
      </trkpt>
      <trkpt lat="47.92762" lon="7.01966">
        <ele>1229.1</ele>
        <time>2023-05-19T08:19:21Z</time>
      </trkpt>
      <trkpt lat="47.92765" lon="7.01958">
        <ele>1229</ele>
        <time>2023-05-19T08:19:25Z</time>
      </trkpt>
      <trkpt lat="47.92768" lon="7.01954">
        <ele>1228.8</ele>
        <time>2023-05-19T08:19:28Z</time>
      </trkpt>
      <trkpt lat="47.92772" lon="7.01951">
        <ele>1228.6</ele>
        <time>2023-05-19T08:19:32Z</time>
      </trkpt>
      <trkpt lat="47.92778" lon="7.0195">
        <ele>1227.8</ele>
        <time>2023-05-19T08:19:36Z</time>
      </trkpt>
      <trkpt lat="47.92783" lon="7.01948">
        <ele>1228</ele>
        <time>2023-05-19T08:19:40Z</time>
      </trkpt>
      <trkpt lat="47.92794" lon="7.01944">
        <ele>1228.6</ele>
        <time>2023-05-19T08:19:48Z</time>
      </trkpt>
      <trkpt lat="47.9281" lon="7.01943">
        <ele>1228.7</ele>
        <time>2023-05-19T08:20:00Z</time>
      </trkpt>
      <trkpt lat="47.92831" lon="7.01937">
        <ele>1231.4</ele>
        <time>2023-05-19T08:20:15Z</time>
      </trkpt>
      <trkpt lat="47.92842" lon="7.01936">
        <ele>1231.2</ele>
        <time>2023-05-19T08:20:23Z</time>
      </trkpt>
      <trkpt lat="47.92852" lon="7.01934">
        <ele>1231.2</ele>
        <time>2023-05-19T08:20:31Z</time>
      </trkpt>
      <trkpt lat="47.92858" lon="7.01934">
        <ele>1230.8</ele>
        <time>2023-05-19T08:20:35Z</time>
      </trkpt>
      <trkpt lat="47.92868" lon="7.01935">
        <ele>1230.6</ele>
        <time>2023-05-19T08:20:43Z</time>
      </trkpt>
      <trkpt lat="47.92882" lon="7.01943">
        <ele>1229.8</ele>
        <time>2023-05-19T08:20:54Z</time>
      </trkpt>
      <trkpt lat="47.92887" lon="7.01945">
        <ele>1229.7</ele>
        <time>2023-05-19T08:20:58Z</time>
      </trkpt>
      <trkpt lat="47.92892" lon="7.01947">
        <ele>1229.4</ele>
        <time>2023-05-19T08:21:02Z</time>
      </trkpt>
      <trkpt lat="47.92902" lon="7.01952">
        <ele>1228.5</ele>
        <time>2023-05-19T08:21:10Z</time>
      </trkpt>
      <trkpt lat="47.92907" lon="7.01954">
        <ele>1228.3</ele>
        <time>2023-05-19T08:21:14Z</time>
      </trkpt>
      <trkpt lat="47.92921" lon="7.01959">
        <ele>1227.7</ele>
        <time>2023-05-19T08:21:27Z</time>
      </trkpt>
      <trkpt lat="47.92934" lon="7.01957">
        <ele>1227.2</ele>
        <time>2023-05-19T08:21:42Z</time>
      </trkpt>
      <trkpt lat="47.92963" lon="7.01945">
        <ele>1225.9</ele>
        <time>2023-05-19T08:22:06Z</time>
      </trkpt>
      <trkpt lat="47.92978" lon="7.01944">
        <ele>1224.6</ele>
        <time>2023-05-19T08:22:18Z</time>
      </trkpt>
      <trkpt lat="47.92983" lon="7.01944">
        <ele>1224.2</ele>
        <time>2023-05-19T08:22:21Z</time>
      </trkpt>
      <trkpt lat="47.92988" lon="7.01944">
        <ele>1223.9</ele>
        <time>2023-05-19T08:22:24Z</time>
      </trkpt>
      <trkpt lat="47.92993" lon="7.01944">
        <ele>1223.5</ele>
        <time>2023-05-19T08:22:28Z</time>
      </trkpt>
      <trkpt lat="47.93033" lon="7.01941">
        <ele>1220.9</ele>
        <time>2023-05-19T08:23:00Z</time>
      </trkpt>
      <trkpt lat="47.93072" lon="7.01939">
        <ele>1218.2</ele>
        <time>2023-05-19T08:23:34Z</time>
      </trkpt>
      <trkpt lat="47.93098" lon="7.0194">
        <ele>1215.5</ele>
        <time>2023-05-19T08:23:55Z</time>
      </trkpt>
      <trkpt lat="47.93102" lon="7.01942">
        <ele>1215</ele>
        <time>2023-05-19T08:23:58Z</time>
      </trkpt>
      <trkpt lat="47.93122" lon="7.01943">
        <ele>1213.6</ele>
        <time>2023-05-19T08:24:14Z</time>
      </trkpt>
      <trkpt lat="47.93128" lon="7.01944">
        <ele>1213.4</ele>
        <time>2023-05-19T08:24:19Z</time>
      </trkpt>
      <trkpt lat="47.93133" lon="7.01944">
        <ele>1213.2</ele>
        <time>2023-05-19T08:24:23Z</time>
      </trkpt>
      <trkpt lat="47.93138" lon="7.01946">
        <ele>1213</ele>
        <time>2023-05-19T08:24:27Z</time>
      </trkpt>
      <trkpt lat="47.93152" lon="7.01949">
        <ele>1212.1</ele>
        <time>2023-05-19T08:24:37Z</time>
      </trkpt>
      <trkpt lat="47.93157" lon="7.01952">
        <ele>1211.7</ele>
        <time>2023-05-19T08:24:41Z</time>
      </trkpt>
      <trkpt lat="47.93167" lon="7.01955">
        <ele>1211</ele>
        <time>2023-05-19T08:24:49Z</time>
      </trkpt>
      <trkpt lat="47.93181" lon="7.01956">
        <ele>1210.3</ele>
        <time>2023-05-19T08:25:00Z</time>
      </trkpt>
      <trkpt lat="47.93186" lon="7.01964">
        <ele>1209.8</ele>
        <time>2023-05-19T08:25:12Z</time>
      </trkpt>
      <trkpt lat="47.93191" lon="7.01968">
        <ele>1209.4</ele>
        <time>2023-05-19T08:25:16Z</time>
      </trkpt>
      <trkpt lat="47.93196" lon="7.01969">
        <ele>1209.1</ele>
        <time>2023-05-19T08:25:20Z</time>
      </trkpt>
      <trkpt lat="47.932" lon="7.01971">
        <ele>1209</ele>
        <time>2023-05-19T08:25:24Z</time>
      </trkpt>
      <trkpt lat="47.93205" lon="7.01971">
        <ele>1209</ele>
        <time>2023-05-19T08:25:28Z</time>
      </trkpt>
      <trkpt lat="47.93214" lon="7.0197">
        <ele>1209</ele>
        <time>2023-05-19T08:25:35Z</time>
      </trkpt>
      <trkpt lat="47.93218" lon="7.0197">
        <ele>1209</ele>
        <time>2023-05-19T08:25:39Z</time>
      </trkpt>
      <trkpt lat="47.93239" lon="7.0197">
        <ele>1209.6</ele>
        <time>2023-05-19T08:25:54Z</time>
      </trkpt>
      <trkpt lat="47.93244" lon="7.01971">
        <ele>1209.8</ele>
        <time>2023-05-19T08:25:58Z</time>
      </trkpt>
      <trkpt lat="47.9325" lon="7.01971">
        <ele>1210</ele>
        <time>2023-05-19T08:26:02Z</time>
      </trkpt>
      <trkpt lat="47.93265" lon="7.0197">
        <ele>1210.5</ele>
        <time>2023-05-19T08:26:14Z</time>
      </trkpt>
      <trkpt lat="47.9328" lon="7.01971">
        <ele>1211.2</ele>
        <time>2023-05-19T08:26:26Z</time>
      </trkpt>
      <trkpt lat="47.93285" lon="7.01971">
        <ele>1211.5</ele>
        <time>2023-05-19T08:26:30Z</time>
      </trkpt>
      <trkpt lat="47.9329" lon="7.0197">
        <ele>1211.8</ele>
        <time>2023-05-19T08:26:33Z</time>
      </trkpt>
      <trkpt lat="47.93331" lon="7.01973">
        <ele>1214.9</ele>
        <time>2023-05-19T08:27:05Z</time>
      </trkpt>
      <trkpt lat="47.93336" lon="7.01975">
        <ele>1215.3</ele>
        <time>2023-05-19T08:27:09Z</time>
      </trkpt>
      <trkpt lat="47.93356" lon="7.01981">
        <ele>1216.9</ele>
        <time>2023-05-19T08:27:25Z</time>
      </trkpt>
      <trkpt lat="47.93361" lon="7.01982">
        <ele>1217.3</ele>
        <time>2023-05-19T08:27:29Z</time>
      </trkpt>
      <trkpt lat="47.93366" lon="7.01985">
        <ele>1217.7</ele>
        <time>2023-05-19T08:27:34Z</time>
      </trkpt>
      <trkpt lat="47.9337" lon="7.01985">
        <ele>1217.9</ele>
        <time>2023-05-19T08:27:37Z</time>
      </trkpt>
      <trkpt lat="47.93385" lon="7.01993">
        <ele>1219.3</ele>
        <time>2023-05-19T08:27:50Z</time>
      </trkpt>
      <trkpt lat="47.93389" lon="7.01994">
        <ele>1219.6</ele>
        <time>2023-05-19T08:27:54Z</time>
      </trkpt>
      <trkpt lat="47.93399" lon="7.01999">
        <ele>1219.6</ele>
        <time>2023-05-19T08:28:02Z</time>
      </trkpt>
      <trkpt lat="47.93404" lon="7.02">
        <ele>1219.5</ele>
        <time>2023-05-19T08:28:06Z</time>
      </trkpt>
      <trkpt lat="47.93415" lon="7.02003">
        <ele>1219.2</ele>
        <time>2023-05-19T08:28:14Z</time>
      </trkpt>
      <trkpt lat="47.93419" lon="7.02007">
        <ele>1219.2</ele>
        <time>2023-05-19T08:28:18Z</time>
      </trkpt>
      <trkpt lat="47.93424" lon="7.02008">
        <ele>1219</ele>
        <time>2023-05-19T08:28:22Z</time>
      </trkpt>
      <trkpt lat="47.93433" lon="7.02009">
        <ele>1218.7</ele>
        <time>2023-05-19T08:28:29Z</time>
      </trkpt>
      <trkpt lat="47.93446" lon="7.02021">
        <ele>1218.6</ele>
        <time>2023-05-19T08:28:39Z</time>
      </trkpt>
      <trkpt lat="47.9345" lon="7.02027">
        <ele>1218.6</ele>
        <time>2023-05-19T08:28:43Z</time>
      </trkpt>
      <trkpt lat="47.93453" lon="7.02032">
        <ele>1218.4</ele>
        <time>2023-05-19T08:28:47Z</time>
      </trkpt>
      <trkpt lat="47.93458" lon="7.02037">
        <ele>1218.2</ele>
        <time>2023-05-19T08:28:51Z</time>
      </trkpt>
      <trkpt lat="47.93461" lon="7.02042">
        <ele>1218.1</ele>
        <time>2023-05-19T08:28:55Z</time>
      </trkpt>
      <trkpt lat="47.93466" lon="7.02047">
        <ele>1218</ele>
        <time>2023-05-19T08:28:59Z</time>
      </trkpt>
      <trkpt lat="47.9347" lon="7.0205">
        <ele>1217.9</ele>
        <time>2023-05-19T08:29:02Z</time>
      </trkpt>
      <trkpt lat="47.93479" lon="7.02057">
        <ele>1217.7</ele>
        <time>2023-05-19T08:29:10Z</time>
      </trkpt>
      <trkpt lat="47.93492" lon="7.02067">
        <ele>1216.9</ele>
        <time>2023-05-19T08:29:22Z</time>
      </trkpt>
      <trkpt lat="47.93497" lon="7.02067">
        <ele>1216.7</ele>
        <time>2023-05-19T08:29:27Z</time>
      </trkpt>
      <trkpt lat="47.93507" lon="7.02057">
        <ele>1216.2</ele>
        <time>2023-05-19T08:29:37Z</time>
      </trkpt>
      <trkpt lat="47.93511" lon="7.02054">
        <ele>1215.7</ele>
        <time>2023-05-19T08:29:41Z</time>
      </trkpt>
      <trkpt lat="47.93516" lon="7.02053">
        <ele>1215.1</ele>
        <time>2023-05-19T08:29:45Z</time>
      </trkpt>
      <trkpt lat="47.93526" lon="7.02057">
        <ele>1214.2</ele>
        <time>2023-05-19T08:29:54Z</time>
      </trkpt>
      <trkpt lat="47.9353" lon="7.0206">
        <ele>1213.8</ele>
        <time>2023-05-19T08:29:57Z</time>
      </trkpt>
      <trkpt lat="47.93538" lon="7.02068">
        <ele>1213.3</ele>
        <time>2023-05-19T08:30:04Z</time>
      </trkpt>
      <trkpt lat="47.93543" lon="7.02071">
        <ele>1212.9</ele>
        <time>2023-05-19T08:30:08Z</time>
      </trkpt>
      <trkpt lat="47.93546" lon="7.02077">
        <ele>1212.7</ele>
        <time>2023-05-19T08:30:12Z</time>
      </trkpt>
      <trkpt lat="47.9355" lon="7.02083">
        <ele>1212.4</ele>
        <time>2023-05-19T08:30:16Z</time>
      </trkpt>
      <trkpt lat="47.93558" lon="7.0209">
        <ele>1211.9</ele>
        <time>2023-05-19T08:30:23Z</time>
      </trkpt>
      <trkpt lat="47.93567" lon="7.02098">
        <ele>1211.8</ele>
        <time>2023-05-19T08:30:31Z</time>
      </trkpt>
      <trkpt lat="47.93572" lon="7.02103">
        <ele>1211.8</ele>
        <time>2023-05-19T08:30:35Z</time>
      </trkpt>
      <trkpt lat="47.93589" lon="7.02122">
        <ele>1212</ele>
        <time>2023-05-19T08:30:50Z</time>
      </trkpt>
      <trkpt lat="47.93596" lon="7.02131">
        <ele>1212</ele>
        <time>2023-05-19T08:30:57Z</time>
      </trkpt>
      <trkpt lat="47.93599" lon="7.02136">
        <ele>1212</ele>
        <time>2023-05-19T08:31:00Z</time>
      </trkpt>
      <trkpt lat="47.93602" lon="7.0214">
        <ele>1212</ele>
        <time>2023-05-19T08:31:03Z</time>
      </trkpt>
      <trkpt lat="47.93622" lon="7.02165">
        <ele>1212.9</ele>
        <time>2023-05-19T08:31:22Z</time>
      </trkpt>
      <trkpt lat="47.9363" lon="7.02174">
        <ele>1213</ele>
        <time>2023-05-19T08:31:30Z</time>
      </trkpt>
      <trkpt lat="47.93653" lon="7.02189">
        <ele>1213</ele>
        <time>2023-05-19T08:31:48Z</time>
      </trkpt>
      <trkpt lat="47.93662" lon="7.02195">
        <ele>1213</ele>
        <time>2023-05-19T08:31:57Z</time>
      </trkpt>
      <trkpt lat="47.93667" lon="7.02197">
        <ele>1213</ele>
        <time>2023-05-19T08:32:01Z</time>
      </trkpt>
      <trkpt lat="47.93673" lon="7.022">
        <ele>1213</ele>
        <time>2023-05-19T08:32:05Z</time>
      </trkpt>
      <trkpt lat="47.93678" lon="7.02202">
        <ele>1213</ele>
        <time>2023-05-19T08:32:09Z</time>
      </trkpt>
      <trkpt lat="47.93698" lon="7.02212">
        <ele>1212.8</ele>
        <time>2023-05-19T08:32:25Z</time>
      </trkpt>
      <trkpt lat="47.93708" lon="7.02217">
        <ele>1212.4</ele>
        <time>2023-05-19T08:32:33Z</time>
      </trkpt>
      <trkpt lat="47.93718" lon="7.02221">
        <ele>1212.1</ele>
        <time>2023-05-19T08:32:40Z</time>
      </trkpt>
      <trkpt lat="47.93727" lon="7.02227">
        <ele>1211.7</ele>
        <time>2023-05-19T08:32:47Z</time>
      </trkpt>
      <trkpt lat="47.93732" lon="7.02229">
        <ele>1211.3</ele>
        <time>2023-05-19T08:32:50Z</time>
      </trkpt>
      <trkpt lat="47.93737" lon="7.02232">
        <ele>1210.9</ele>
        <time>2023-05-19T08:32:54Z</time>
      </trkpt>
      <trkpt lat="47.93741" lon="7.02234">
        <ele>1210.6</ele>
        <time>2023-05-19T08:32:57Z</time>
      </trkpt>
      <trkpt lat="47.9375" lon="7.02237">
        <ele>1210</ele>
        <time>2023-05-19T08:33:03Z</time>
      </trkpt>
      <trkpt lat="47.9376" lon="7.02241">
        <ele>1209.9</ele>
        <time>2023-05-19T08:33:11Z</time>
      </trkpt>
      <trkpt lat="47.93764" lon="7.02244">
        <ele>1209.9</ele>
        <time>2023-05-19T08:33:14Z</time>
      </trkpt>
      <trkpt lat="47.93769" lon="7.02245">
        <ele>1209.9</ele>
        <time>2023-05-19T08:33:17Z</time>
      </trkpt>
      <trkpt lat="47.93774" lon="7.02247">
        <ele>1209.9</ele>
        <time>2023-05-19T08:33:21Z</time>
      </trkpt>
      <trkpt lat="47.93783" lon="7.02251">
        <ele>1210</ele>
        <time>2023-05-19T08:33:28Z</time>
      </trkpt>
      <trkpt lat="47.93799" lon="7.02257">
        <ele>1210.2</ele>
        <time>2023-05-19T08:33:40Z</time>
      </trkpt>
      <trkpt lat="47.93804" lon="7.0226">
        <ele>1210.3</ele>
        <time>2023-05-19T08:33:44Z</time>
      </trkpt>
      <trkpt lat="47.93835" lon="7.02272">
        <ele>1211.1</ele>
        <time>2023-05-19T08:34:09Z</time>
      </trkpt>
      <trkpt lat="47.9384" lon="7.02274">
        <ele>1211.5</ele>
        <time>2023-05-19T08:34:13Z</time>
      </trkpt>
      <trkpt lat="47.93851" lon="7.02279">
        <ele>1212.3</ele>
        <time>2023-05-19T08:34:23Z</time>
      </trkpt>
      <trkpt lat="47.93856" lon="7.02281">
        <ele>1212.7</ele>
        <time>2023-05-19T08:34:27Z</time>
      </trkpt>
      <trkpt lat="47.93861" lon="7.02283">
        <ele>1213</ele>
        <time>2023-05-19T08:34:31Z</time>
      </trkpt>
      <trkpt lat="47.93865" lon="7.02285">
        <ele>1213.4</ele>
        <time>2023-05-19T08:34:35Z</time>
      </trkpt>
      <trkpt lat="47.93874" lon="7.02288">
        <ele>1214.4</ele>
        <time>2023-05-19T08:34:43Z</time>
      </trkpt>
      <trkpt lat="47.93882" lon="7.02292">
        <ele>1215.3</ele>
        <time>2023-05-19T08:34:52Z</time>
      </trkpt>
      <trkpt lat="47.93901" lon="7.02299">
        <ele>1216.9</ele>
        <time>2023-05-19T08:35:06Z</time>
      </trkpt>
      <trkpt lat="47.93906" lon="7.02301">
        <ele>1217.2</ele>
        <time>2023-05-19T08:35:10Z</time>
      </trkpt>
      <trkpt lat="47.93944" lon="7.02311">
        <ele>1220</ele>
        <time>2023-05-19T08:35:42Z</time>
      </trkpt>
      <trkpt lat="47.93983" lon="7.02323">
        <ele>1223.4</ele>
        <time>2023-05-19T08:36:15Z</time>
      </trkpt>
      <trkpt lat="47.93999" lon="7.02323">
        <ele>1224.9</ele>
        <time>2023-05-19T08:36:27Z</time>
      </trkpt>
      <trkpt lat="47.94004" lon="7.02324">
        <ele>1225</ele>
        <time>2023-05-19T08:36:31Z</time>
      </trkpt>
      <trkpt lat="47.94025" lon="7.02326">
        <ele>1224.8</ele>
        <time>2023-05-19T08:36:47Z</time>
      </trkpt>
      <trkpt lat="47.94046" lon="7.02327">
        <ele>1223.6</ele>
        <time>2023-05-19T08:37:02Z</time>
      </trkpt>
      <trkpt lat="47.94088" lon="7.02335">
        <ele>1220.5</ele>
        <time>2023-05-19T08:37:34Z</time>
      </trkpt>
      <trkpt lat="47.94093" lon="7.02335">
        <ele>1220</ele>
        <time>2023-05-19T08:37:38Z</time>
      </trkpt>
      <trkpt lat="47.94098" lon="7.02336">
        <ele>1219.5</ele>
        <time>2023-05-19T08:37:42Z</time>
      </trkpt>
      <trkpt lat="47.94112" lon="7.02337">
        <ele>1218.1</ele>
        <time>2023-05-19T08:37:52Z</time>
      </trkpt>
      <trkpt lat="47.94122" lon="7.02339">
        <ele>1217.8</ele>
        <time>2023-05-19T08:37:59Z</time>
      </trkpt>
      <trkpt lat="47.94132" lon="7.0234">
        <ele>1217.5</ele>
        <time>2023-05-19T08:38:06Z</time>
      </trkpt>
      <trkpt lat="47.94148" lon="7.02342">
        <ele>1217.6</ele>
        <time>2023-05-19T08:38:19Z</time>
      </trkpt>
      <trkpt lat="47.94152" lon="7.02343">
        <ele>1217.8</ele>
        <time>2023-05-19T08:38:29Z</time>
      </trkpt>
      <trkpt lat="47.94158" lon="7.02341">
        <ele>1218</ele>
        <time>2023-05-19T08:38:34Z</time>
      </trkpt>
      <trkpt lat="47.94162" lon="7.02342">
        <ele>1218.1</ele>
        <time>2023-05-19T08:38:38Z</time>
      </trkpt>
      <trkpt lat="47.94197" lon="7.02343">
        <ele>1220.6</ele>
        <time>2023-05-19T08:39:07Z</time>
      </trkpt>
      <trkpt lat="47.94202" lon="7.02344">
        <ele>1221.1</ele>
        <time>2023-05-19T08:39:11Z</time>
      </trkpt>
      <trkpt lat="47.94208" lon="7.02343">
        <ele>1221.6</ele>
        <time>2023-05-19T08:39:24Z</time>
      </trkpt>
      <trkpt lat="47.94223" lon="7.02341">
        <ele>1223.1</ele>
        <time>2023-05-19T08:39:36Z</time>
      </trkpt>
      <trkpt lat="47.94233" lon="7.02344">
        <ele>1224.2</ele>
        <time>2023-05-19T08:39:44Z</time>
      </trkpt>
      <trkpt lat="47.94238" lon="7.02345">
        <ele>1224.7</ele>
        <time>2023-05-19T08:39:48Z</time>
      </trkpt>
      <trkpt lat="47.94245" lon="7.02344">
        <ele>1225.5</ele>
        <time>2023-05-19T08:39:52Z</time>
      </trkpt>
      <trkpt lat="47.9426" lon="7.02343">
        <ele>1227.9</ele>
        <time>2023-05-19T08:40:04Z</time>
      </trkpt>
      <trkpt lat="47.94272" lon="7.02339">
        <ele>1230.4</ele>
        <time>2023-05-19T08:40:22Z</time>
      </trkpt>
      <trkpt lat="47.94274" lon="7.02332">
        <ele>1231.2</ele>
        <time>2023-05-19T08:40:27Z</time>
      </trkpt>
      <trkpt lat="47.94279" lon="7.0233">
        <ele>1232.3</ele>
        <time>2023-05-19T08:40:31Z</time>
      </trkpt>
      <trkpt lat="47.9429" lon="7.0233">
        <ele>1234.3</ele>
        <time>2023-05-19T08:40:42Z</time>
      </trkpt>
      <trkpt lat="47.94297" lon="7.02331">
        <ele>1235.5</ele>
        <time>2023-05-19T08:40:51Z</time>
      </trkpt>
      <trkpt lat="47.94305" lon="7.02329">
        <ele>1237.1</ele>
        <time>2023-05-19T08:41:00Z</time>
      </trkpt>
      <trkpt lat="47.94311" lon="7.02329">
        <ele>1238.1</ele>
        <time>2023-05-19T08:41:04Z</time>
      </trkpt>
      <trkpt lat="47.94317" lon="7.02334">
        <ele>1239</ele>
        <time>2023-05-19T08:41:09Z</time>
      </trkpt>
      <trkpt lat="47.94332" lon="7.02326">
        <ele>1241.8</ele>
        <time>2023-05-19T08:41:29Z</time>
      </trkpt>
      <trkpt lat="47.94336" lon="7.02321">
        <ele>1242.5</ele>
        <time>2023-05-19T08:41:34Z</time>
      </trkpt>
      <trkpt lat="47.94356" lon="7.02324">
        <ele>1245.8</ele>
        <time>2023-05-19T08:42:01Z</time>
      </trkpt>
      <trkpt lat="47.94362" lon="7.02327">
        <ele>1246.6</ele>
        <time>2023-05-19T08:42:09Z</time>
      </trkpt>
      <trkpt lat="47.94367" lon="7.02322">
        <ele>1247.8</ele>
        <time>2023-05-19T08:42:17Z</time>
      </trkpt>
      <trkpt lat="47.94383" lon="7.02328">
        <ele>1250.2</ele>
        <time>2023-05-19T08:42:35Z</time>
      </trkpt>
      <trkpt lat="47.94388" lon="7.02327">
        <ele>1251.1</ele>
        <time>2023-05-19T08:42:39Z</time>
      </trkpt>
      <trkpt lat="47.94393" lon="7.02326">
        <ele>1251.7</ele>
        <time>2023-05-19T08:42:44Z</time>
      </trkpt>
      <trkpt lat="47.94397" lon="7.0233">
        <ele>1252</ele>
        <time>2023-05-19T08:42:48Z</time>
      </trkpt>
      <trkpt lat="47.94401" lon="7.02333">
        <ele>1252.3</ele>
        <time>2023-05-19T08:42:52Z</time>
      </trkpt>
      <trkpt lat="47.94409" lon="7.0234">
        <ele>1253</ele>
        <time>2023-05-19T08:43:00Z</time>
      </trkpt>
      <trkpt lat="47.94414" lon="7.02341">
        <ele>1253.5</ele>
        <time>2023-05-19T08:43:04Z</time>
      </trkpt>
      <trkpt lat="47.94419" lon="7.02341">
        <ele>1254</ele>
        <time>2023-05-19T08:43:08Z</time>
      </trkpt>
      <trkpt lat="47.94424" lon="7.02339">
        <ele>1254.6</ele>
        <time>2023-05-19T08:43:12Z</time>
      </trkpt>
      <trkpt lat="47.94432" lon="7.02334">
        <ele>1255.6</ele>
        <time>2023-05-19T08:43:18Z</time>
      </trkpt>
      <trkpt lat="47.94436" lon="7.02331">
        <ele>1256</ele>
        <time>2023-05-19T08:43:23Z</time>
      </trkpt>
      <trkpt lat="47.94443" lon="7.0233">
        <ele>1256.7</ele>
        <time>2023-05-19T08:43:29Z</time>
      </trkpt>
      <trkpt lat="47.94447" lon="7.02327">
        <ele>1257.1</ele>
        <time>2023-05-19T08:43:33Z</time>
      </trkpt>
      <trkpt lat="47.94457" lon="7.02317">
        <ele>1258</ele>
        <time>2023-05-19T08:43:47Z</time>
      </trkpt>
      <trkpt lat="47.94463" lon="7.02315">
        <ele>1258.8</ele>
        <time>2023-05-19T08:43:51Z</time>
      </trkpt>
      <trkpt lat="47.9447" lon="7.02313">
        <ele>1259.7</ele>
        <time>2023-05-19T08:43:59Z</time>
      </trkpt>
      <trkpt lat="47.94479" lon="7.02318">
        <ele>1260.6</ele>
        <time>2023-05-19T08:44:07Z</time>
      </trkpt>
      <trkpt lat="47.94486" lon="7.02326">
        <ele>1261.1</ele>
        <time>2023-05-19T08:44:14Z</time>
      </trkpt>
      <trkpt lat="47.94491" lon="7.0233">
        <ele>1261.4</ele>
        <time>2023-05-19T08:44:18Z</time>
      </trkpt>
      <trkpt lat="47.94496" lon="7.0233">
        <ele>1261.8</ele>
        <time>2023-05-19T08:44:22Z</time>
      </trkpt>
      <trkpt lat="47.945" lon="7.02328">
        <ele>1262.2</ele>
        <time>2023-05-19T08:44:27Z</time>
      </trkpt>
      <trkpt lat="47.94504" lon="7.02321">
        <ele>1262.7</ele>
        <time>2023-05-19T08:44:35Z</time>
      </trkpt>
      <trkpt lat="47.94509" lon="7.02319">
        <ele>1263</ele>
        <time>2023-05-19T08:44:39Z</time>
      </trkpt>
      <trkpt lat="47.94515" lon="7.0231">
        <ele>1263.5</ele>
        <time>2023-05-19T08:44:48Z</time>
      </trkpt>
      <trkpt lat="47.9452" lon="7.02308">
        <ele>1263.7</ele>
        <time>2023-05-19T08:44:52Z</time>
      </trkpt>
      <trkpt lat="47.94535" lon="7.02307">
        <ele>1263.7</ele>
        <time>2023-05-19T08:45:03Z</time>
      </trkpt>
      <trkpt lat="47.9454" lon="7.02307">
        <ele>1263.6</ele>
        <time>2023-05-19T08:45:07Z</time>
      </trkpt>
      <trkpt lat="47.94545" lon="7.02309">
        <ele>1263.4</ele>
        <time>2023-05-19T08:45:11Z</time>
      </trkpt>
      <trkpt lat="47.94549" lon="7.02312">
        <ele>1263.2</ele>
        <time>2023-05-19T08:45:15Z</time>
      </trkpt>
      <trkpt lat="47.94566" lon="7.02314">
        <ele>1262.5</ele>
        <time>2023-05-19T08:45:31Z</time>
      </trkpt>
      <trkpt lat="47.9457" lon="7.02312">
        <ele>1262.2</ele>
        <time>2023-05-19T08:45:35Z</time>
      </trkpt>
      <trkpt lat="47.94574" lon="7.02312">
        <ele>1262</ele>
        <time>2023-05-19T08:45:39Z</time>
      </trkpt>
      <trkpt lat="47.94579" lon="7.02309">
        <ele>1261.5</ele>
        <time>2023-05-19T08:45:43Z</time>
      </trkpt>
      <trkpt lat="47.94584" lon="7.02312">
        <ele>1261.5</ele>
        <time>2023-05-19T08:45:47Z</time>
      </trkpt>
      <trkpt lat="47.94589" lon="7.02312">
        <ele>1261.5</ele>
        <time>2023-05-19T08:45:51Z</time>
      </trkpt>
      <trkpt lat="47.94594" lon="7.0231">
        <ele>1261.4</ele>
        <time>2023-05-19T08:45:57Z</time>
      </trkpt>
      <trkpt lat="47.94604" lon="7.02301">
        <ele>1260.4</ele>
        <time>2023-05-19T08:46:06Z</time>
      </trkpt>
      <trkpt lat="47.94609" lon="7.02299">
        <ele>1260.1</ele>
        <time>2023-05-19T08:46:10Z</time>
      </trkpt>
      <trkpt lat="47.94614" lon="7.02299">
        <ele>1260.1</ele>
        <time>2023-05-19T08:46:13Z</time>
      </trkpt>
      <trkpt lat="47.94623" lon="7.02296">
        <ele>1259.6</ele>
        <time>2023-05-19T08:46:22Z</time>
      </trkpt>
      <trkpt lat="47.94628" lon="7.0229">
        <ele>1258.8</ele>
        <time>2023-05-19T08:46:28Z</time>
      </trkpt>
      <trkpt lat="47.94629" lon="7.02284">
        <ele>1257.9</ele>
        <time>2023-05-19T08:46:32Z</time>
      </trkpt>
      <trkpt lat="47.94628" lon="7.02277">
        <ele>1256.9</ele>
        <time>2023-05-19T08:46:36Z</time>
      </trkpt>
      <trkpt lat="47.94631" lon="7.02271">
        <ele>1256</ele>
        <time>2023-05-19T08:46:41Z</time>
      </trkpt>
      <trkpt lat="47.94656" lon="7.02235">
        <ele>1251.2</ele>
        <time>2023-05-19T08:47:13Z</time>
      </trkpt>
      <trkpt lat="47.94672" lon="7.02216">
        <ele>1247.8</ele>
        <time>2023-05-19T08:47:29Z</time>
      </trkpt>
      <trkpt lat="47.94677" lon="7.02215">
        <ele>1247.9</ele>
        <time>2023-05-19T08:47:32Z</time>
      </trkpt>
      <trkpt lat="47.94686" lon="7.02208">
        <ele>1246.8</ele>
        <time>2023-05-19T08:47:41Z</time>
      </trkpt>
      <trkpt lat="47.94713" lon="7.0218">
        <ele>1241.2</ele>
        <time>2023-05-19T08:48:10Z</time>
      </trkpt>
      <trkpt lat="47.94718" lon="7.02177">
        <ele>1240.7</ele>
        <time>2023-05-19T08:48:13Z</time>
      </trkpt>
      <trkpt lat="47.94725" lon="7.02169">
        <ele>1239</ele>
        <time>2023-05-19T08:48:21Z</time>
      </trkpt>
      <trkpt lat="47.94734" lon="7.02162">
        <ele>1237.8</ele>
        <time>2023-05-19T08:48:29Z</time>
      </trkpt>
      <trkpt lat="47.94741" lon="7.02153">
        <ele>1235.6</ele>
        <time>2023-05-19T08:48:37Z</time>
      </trkpt>
      <trkpt lat="47.94745" lon="7.02151">
        <ele>1235.4</ele>
        <time>2023-05-19T08:48:41Z</time>
      </trkpt>
      <trkpt lat="47.94749" lon="7.02146">
        <ele>1234.2</ele>
        <time>2023-05-19T08:48:47Z</time>
      </trkpt>
      <trkpt lat="47.9476" lon="7.02137">
        <ele>1232.5</ele>
        <time>2023-05-19T08:48:58Z</time>
      </trkpt>
      <trkpt lat="47.94779" lon="7.02117">
        <ele>1228.8</ele>
        <time>2023-05-19T08:49:18Z</time>
      </trkpt>
      <trkpt lat="47.94783" lon="7.02115">
        <ele>1228.7</ele>
        <time>2023-05-19T08:49:22Z</time>
      </trkpt>
      <trkpt lat="47.94787" lon="7.02109">
        <ele>1227.4</ele>
        <time>2023-05-19T08:49:26Z</time>
      </trkpt>
      <trkpt lat="47.94809" lon="7.02089">
        <ele>1224.6</ele>
        <time>2023-05-19T08:49:49Z</time>
      </trkpt>
      <trkpt lat="47.94814" lon="7.02087">
        <ele>1224.2</ele>
        <time>2023-05-19T08:49:53Z</time>
      </trkpt>
      <trkpt lat="47.94817" lon="7.02083">
        <ele>1223.3</ele>
        <time>2023-05-19T08:49:57Z</time>
      </trkpt>
      <trkpt lat="47.94822" lon="7.02082">
        <ele>1223.3</ele>
        <time>2023-05-19T08:50:00Z</time>
      </trkpt>
      <trkpt lat="47.94827" lon="7.0208">
        <ele>1223</ele>
        <time>2023-05-19T08:50:04Z</time>
      </trkpt>
      <trkpt lat="47.94837" lon="7.02076">
        <ele>1222.3</ele>
        <time>2023-05-19T08:50:12Z</time>
      </trkpt>
      <trkpt lat="47.94841" lon="7.02075">
        <ele>1221.9</ele>
        <time>2023-05-19T08:50:16Z</time>
      </trkpt>
      <trkpt lat="47.94845" lon="7.02073">
        <ele>1221.3</ele>
        <time>2023-05-19T08:50:19Z</time>
      </trkpt>
      <trkpt lat="47.94882" lon="7.02054">
        <ele>1215.9</ele>
        <time>2023-05-19T08:50:54Z</time>
      </trkpt>
      <trkpt lat="47.949" lon="7.02047">
        <ele>1213.1</ele>
        <time>2023-05-19T08:51:09Z</time>
      </trkpt>
      <trkpt lat="47.94904" lon="7.02045">
        <ele>1212.3</ele>
        <time>2023-05-19T08:51:13Z</time>
      </trkpt>
      <trkpt lat="47.94909" lon="7.02044">
        <ele>1211.6</ele>
        <time>2023-05-19T08:51:17Z</time>
      </trkpt>
      <trkpt lat="47.94912" lon="7.02042">
        <ele>1211</ele>
        <time>2023-05-19T08:52:02Z</time>
      </trkpt>
      <trkpt lat="47.94939" lon="7.02031">
        <ele>1207.8</ele>
        <time>2023-05-19T08:55:33Z</time>
      </trkpt>
      <trkpt lat="47.9494" lon="7.0203">
        <ele>1207.6</ele>
        <time>2023-05-19T08:55:34Z</time>
      </trkpt>
      <trkpt lat="47.94948" lon="7.02025">
        <ele>1206.4</ele>
        <time>2023-05-19T08:55:41Z</time>
      </trkpt>
      <trkpt lat="47.94952" lon="7.02022">
        <ele>1205.7</ele>
        <time>2023-05-19T08:55:45Z</time>
      </trkpt>
      <trkpt lat="47.94957" lon="7.0202">
        <ele>1205.3</ele>
        <time>2023-05-19T08:55:49Z</time>
      </trkpt>
      <trkpt lat="47.9497" lon="7.02014">
        <ele>1204.1</ele>
        <time>2023-05-19T08:55:59Z</time>
      </trkpt>
      <trkpt lat="47.94977" lon="7.02011">
        <ele>1203.3</ele>
        <time>2023-05-19T08:56:05Z</time>
      </trkpt>
      <trkpt lat="47.94986" lon="7.02009">
        <ele>1202.6</ele>
        <time>2023-05-19T08:56:13Z</time>
      </trkpt>
      <trkpt lat="47.9499" lon="7.02007">
        <ele>1202.2</ele>
        <time>2023-05-19T08:56:17Z</time>
      </trkpt>
      <trkpt lat="47.94995" lon="7.02004">
        <ele>1201.6</ele>
        <time>2023-05-19T08:56:21Z</time>
      </trkpt>
      <trkpt lat="47.95032" lon="7.01987">
        <ele>1197.9</ele>
        <time>2023-05-19T08:56:52Z</time>
      </trkpt>
      <trkpt lat="47.95036" lon="7.01985">
        <ele>1197.4</ele>
        <time>2023-05-19T08:56:56Z</time>
      </trkpt>
      <trkpt lat="47.95061" lon="7.01978">
        <ele>1194.6</ele>
        <time>2023-05-19T08:57:17Z</time>
      </trkpt>
      <trkpt lat="47.95066" lon="7.01977">
        <ele>1194</ele>
        <time>2023-05-19T08:57:21Z</time>
      </trkpt>
      <trkpt lat="47.95073" lon="7.01974">
        <ele>1193</ele>
        <time>2023-05-19T08:57:30Z</time>
      </trkpt>
      <trkpt lat="47.95083" lon="7.01974">
        <ele>1192.3</ele>
        <time>2023-05-19T08:57:37Z</time>
      </trkpt>
      <trkpt lat="47.95088" lon="7.01972">
        <ele>1191.6</ele>
        <time>2023-05-19T08:57:41Z</time>
      </trkpt>
      <trkpt lat="47.95092" lon="7.01972">
        <ele>1191.3</ele>
        <time>2023-05-19T08:57:45Z</time>
      </trkpt>
      <trkpt lat="47.95102" lon="7.0197">
        <ele>1190.3</ele>
        <time>2023-05-19T08:57:53Z</time>
      </trkpt>
      <trkpt lat="47.95107" lon="7.0197">
        <ele>1190</ele>
        <time>2023-05-19T08:57:57Z</time>
      </trkpt>
      <trkpt lat="47.95146" lon="7.01969">
        <ele>1187.5</ele>
        <time>2023-05-19T08:58:27Z</time>
      </trkpt>
      <trkpt lat="47.95149" lon="7.01962">
        <ele>1186.9</ele>
        <time>2023-05-19T08:58:31Z</time>
      </trkpt>
      <trkpt lat="47.95153" lon="7.01957">
        <ele>1186.4</ele>
        <time>2023-05-19T08:58:35Z</time>
      </trkpt>
      <trkpt lat="47.95157" lon="7.01954">
        <ele>1186</ele>
        <time>2023-05-19T08:58:39Z</time>
      </trkpt>
      <trkpt lat="47.95184" lon="7.01934">
        <ele>1184.6</ele>
        <time>2023-05-19T08:59:03Z</time>
      </trkpt>
      <trkpt lat="47.95188" lon="7.0193">
        <ele>1184.5</ele>
        <time>2023-05-19T08:59:07Z</time>
      </trkpt>
      <trkpt lat="47.95193" lon="7.01926">
        <ele>1184.3</ele>
        <time>2023-05-19T08:59:11Z</time>
      </trkpt>
      <trkpt lat="47.95197" lon="7.01926">
        <ele>1184.2</ele>
        <time>2023-05-19T08:59:16Z</time>
      </trkpt>
      <trkpt lat="47.95203" lon="7.01922">
        <ele>1183.8</ele>
        <time>2023-05-19T08:59:28Z</time>
      </trkpt>
      <trkpt lat="47.95208" lon="7.01918">
        <ele>1183.5</ele>
        <time>2023-05-19T08:59:32Z</time>
      </trkpt>
      <trkpt lat="47.95213" lon="7.01916">
        <ele>1183.3</ele>
        <time>2023-05-19T08:59:36Z</time>
      </trkpt>
      <trkpt lat="47.95218" lon="7.01913">
        <ele>1183.1</ele>
        <time>2023-05-19T08:59:40Z</time>
      </trkpt>
      <trkpt lat="47.95222" lon="7.01908">
        <ele>1183</ele>
        <time>2023-05-19T08:59:44Z</time>
      </trkpt>
      <trkpt lat="47.95226" lon="7.01906">
        <ele>1182.8</ele>
        <time>2023-05-19T08:59:48Z</time>
      </trkpt>
      <trkpt lat="47.9523" lon="7.01903">
        <ele>1182.6</ele>
        <time>2023-05-19T08:59:52Z</time>
      </trkpt>
      <trkpt lat="47.95235" lon="7.01901">
        <ele>1182.3</ele>
        <time>2023-05-19T08:59:56Z</time>
      </trkpt>
      <trkpt lat="47.95239" lon="7.01905">
        <ele>1182</ele>
        <time>2023-05-19T08:59:59Z</time>
      </trkpt>
      <trkpt lat="47.95242" lon="7.01933">
        <ele>1181.2</ele>
        <time>2023-05-19T09:00:16Z</time>
      </trkpt>
      <trkpt lat="47.95245" lon="7.01941">
        <ele>1180.6</ele>
        <time>2023-05-19T09:00:19Z</time>
      </trkpt>
      <trkpt lat="47.95242" lon="7.01942">
        <ele>1180.9</ele>
        <time>2023-05-19T09:01:09Z</time>
      </trkpt>
      <trkpt lat="47.95243" lon="7.01898">
        <ele>1182</ele>
        <time>2023-05-19T09:05:03Z</time>
      </trkpt>
      <trkpt lat="47.95244" lon="7.01897">
        <ele>1182</ele>
        <time>2023-05-19T09:05:04Z</time>
      </trkpt>
      <trkpt lat="47.95251" lon="7.01892">
        <ele>1181.7</ele>
        <time>2023-05-19T09:05:12Z</time>
      </trkpt>
      <trkpt lat="47.95255" lon="7.01888">
        <ele>1180.9</ele>
        <time>2023-05-19T09:05:16Z</time>
      </trkpt>
      <trkpt lat="47.95262" lon="7.01882">
        <ele>1179.7</ele>
        <time>2023-05-19T09:05:25Z</time>
      </trkpt>
      <trkpt lat="47.95265" lon="7.01876">
        <ele>1179.5</ele>
        <time>2023-05-19T09:05:29Z</time>
      </trkpt>
      <trkpt lat="47.95266" lon="7.0187">
        <ele>1179.7</ele>
        <time>2023-05-19T09:05:33Z</time>
      </trkpt>
      <trkpt lat="47.95269" lon="7.01863">
        <ele>1179.8</ele>
        <time>2023-05-19T09:05:37Z</time>
      </trkpt>
      <trkpt lat="47.95272" lon="7.01857">
        <ele>1179.9</ele>
        <time>2023-05-19T09:05:41Z</time>
      </trkpt>
      <trkpt lat="47.95275" lon="7.01851">
        <ele>1180</ele>
        <time>2023-05-19T09:05:45Z</time>
      </trkpt>
      <trkpt lat="47.95278" lon="7.01841">
        <ele>1180.3</ele>
        <time>2023-05-19T09:05:54Z</time>
      </trkpt>
      <trkpt lat="47.95281" lon="7.01834">
        <ele>1179.1</ele>
        <time>2023-05-19T09:05:58Z</time>
      </trkpt>
      <trkpt lat="47.95285" lon="7.01818">
        <ele>1178.3</ele>
        <time>2023-05-19T09:06:06Z</time>
      </trkpt>
      <trkpt lat="47.95289" lon="7.01804">
        <ele>1178.2</ele>
        <time>2023-05-19T09:06:15Z</time>
      </trkpt>
      <trkpt lat="47.95292" lon="7.01798">
        <ele>1178</ele>
        <time>2023-05-19T09:06:18Z</time>
      </trkpt>
      <trkpt lat="47.95294" lon="7.01791">
        <ele>1178.5</ele>
        <time>2023-05-19T09:06:22Z</time>
      </trkpt>
      <trkpt lat="47.95296" lon="7.01785">
        <ele>1179.1</ele>
        <time>2023-05-19T09:06:26Z</time>
      </trkpt>
      <trkpt lat="47.953" lon="7.0178">
        <ele>1179.3</ele>
        <time>2023-05-19T09:06:29Z</time>
      </trkpt>
      <trkpt lat="47.95303" lon="7.01775">
        <ele>1179.6</ele>
        <time>2023-05-19T09:06:33Z</time>
      </trkpt>
      <trkpt lat="47.95308" lon="7.01771">
        <ele>1178.5</ele>
        <time>2023-05-19T09:06:36Z</time>
      </trkpt>
      <trkpt lat="47.95309" lon="7.01763">
        <ele>1178.8</ele>
        <time>2023-05-19T09:06:40Z</time>
      </trkpt>
      <trkpt lat="47.95314" lon="7.0175">
        <ele>1178.9</ele>
        <time>2023-05-19T09:06:48Z</time>
      </trkpt>
      <trkpt lat="47.95318" lon="7.01746">
        <ele>1178.3</ele>
        <time>2023-05-19T09:06:51Z</time>
      </trkpt>
      <trkpt lat="47.9532" lon="7.01741">
        <ele>1178.5</ele>
        <time>2023-05-19T09:06:55Z</time>
      </trkpt>
      <trkpt lat="47.95326" lon="7.01733">
        <ele>1178.4</ele>
        <time>2023-05-19T09:07:01Z</time>
      </trkpt>
      <trkpt lat="47.95337" lon="7.01701">
        <ele>1179.4</ele>
        <time>2023-05-19T09:07:22Z</time>
      </trkpt>
      <trkpt lat="47.9534" lon="7.01694">
        <ele>1179.3</ele>
        <time>2023-05-19T09:07:26Z</time>
      </trkpt>
      <trkpt lat="47.95349" lon="7.01675">
        <ele>1178.2</ele>
        <time>2023-05-19T09:07:39Z</time>
      </trkpt>
      <trkpt lat="47.95351" lon="7.01654">
        <ele>1178.7</ele>
        <time>2023-05-19T09:07:50Z</time>
      </trkpt>
      <trkpt lat="47.95348" lon="7.01633">
        <ele>1179.3</ele>
        <time>2023-05-19T09:08:01Z</time>
      </trkpt>
      <trkpt lat="47.95348" lon="7.01618">
        <ele>1179.1</ele>
        <time>2023-05-19T09:08:09Z</time>
      </trkpt>
      <trkpt lat="47.95349" lon="7.01605">
        <ele>1178.8</ele>
        <time>2023-05-19T09:08:16Z</time>
      </trkpt>
      <trkpt lat="47.95351" lon="7.01597">
        <ele>1178.5</ele>
        <time>2023-05-19T09:08:20Z</time>
      </trkpt>
      <trkpt lat="47.95367" lon="7.01536">
        <ele>1176.4</ele>
        <time>2023-05-19T09:08:53Z</time>
      </trkpt>
      <trkpt lat="47.95368" lon="7.01528">
        <ele>1176.3</ele>
        <time>2023-05-19T09:08:57Z</time>
      </trkpt>
      <trkpt lat="47.9537" lon="7.01523">
        <ele>1176.2</ele>
        <time>2023-05-19T09:09:00Z</time>
      </trkpt>
      <trkpt lat="47.95373" lon="7.01514">
        <ele>1176.1</ele>
        <time>2023-05-19T09:09:08Z</time>
      </trkpt>
      <trkpt lat="47.95374" lon="7.01507">
        <ele>1176.1</ele>
        <time>2023-05-19T09:09:12Z</time>
      </trkpt>
      <trkpt lat="47.95375" lon="7.01492">
        <ele>1176</ele>
        <time>2023-05-19T09:09:20Z</time>
      </trkpt>
      <trkpt lat="47.95375" lon="7.01477">
        <ele>1176</ele>
        <time>2023-05-19T09:09:28Z</time>
      </trkpt>
      <trkpt lat="47.95377" lon="7.0147">
        <ele>1176.2</ele>
        <time>2023-05-19T09:09:33Z</time>
      </trkpt>
      <trkpt lat="47.95379" lon="7.01463">
        <ele>1176.3</ele>
        <time>2023-05-19T09:09:37Z</time>
      </trkpt>
      <trkpt lat="47.9538" lon="7.01457">
        <ele>1176.4</ele>
        <time>2023-05-19T09:09:40Z</time>
      </trkpt>
      <trkpt lat="47.95383" lon="7.01451">
        <ele>1176.8</ele>
        <time>2023-05-19T09:09:48Z</time>
      </trkpt>
      <trkpt lat="47.95384" lon="7.01443">
        <ele>1176.9</ele>
        <time>2023-05-19T09:09:52Z</time>
      </trkpt>
      <trkpt lat="47.95385" lon="7.01437">
        <ele>1177.1</ele>
        <time>2023-05-19T09:09:55Z</time>
      </trkpt>
      <trkpt lat="47.95387" lon="7.01422">
        <ele>1177.5</ele>
        <time>2023-05-19T09:10:03Z</time>
      </trkpt>
      <trkpt lat="47.95388" lon="7.01415">
        <ele>1177.7</ele>
        <time>2023-05-19T09:10:07Z</time>
      </trkpt>
      <trkpt lat="47.9539" lon="7.01408">
        <ele>1177.9</ele>
        <time>2023-05-19T09:10:12Z</time>
      </trkpt>
      <trkpt lat="47.95391" lon="7.01401">
        <ele>1177.8</ele>
        <time>2023-05-19T09:10:16Z</time>
      </trkpt>
      <trkpt lat="47.95403" lon="7.01346">
        <ele>1178.7</ele>
        <time>2023-05-19T09:10:46Z</time>
      </trkpt>
      <trkpt lat="47.95405" lon="7.01339">
        <ele>1178.9</ele>
        <time>2023-05-19T09:10:50Z</time>
      </trkpt>
      <trkpt lat="47.95414" lon="7.01311">
        <ele>1179.5</ele>
        <time>2023-05-19T09:11:07Z</time>
      </trkpt>
      <trkpt lat="47.95416" lon="7.01298">
        <ele>1179.2</ele>
        <time>2023-05-19T09:11:14Z</time>
      </trkpt>
      <trkpt lat="47.95428" lon="7.01264">
        <ele>1180.7</ele>
        <time>2023-05-19T09:11:35Z</time>
      </trkpt>
      <trkpt lat="47.95433" lon="7.01252">
        <ele>1181.9</ele>
        <time>2023-05-19T09:11:43Z</time>
      </trkpt>
      <trkpt lat="47.95438" lon="7.01233">
        <ele>1182.3</ele>
        <time>2023-05-19T09:11:55Z</time>
      </trkpt>
      <trkpt lat="47.95441" lon="7.0122">
        <ele>1182.5</ele>
        <time>2023-05-19T09:12:03Z</time>
      </trkpt>
      <trkpt lat="47.95455" lon="7.01163">
        <ele>1184.4</ele>
        <time>2023-05-19T09:12:35Z</time>
      </trkpt>
      <trkpt lat="47.95458" lon="7.01151">
        <ele>1185.3</ele>
        <time>2023-05-19T09:12:42Z</time>
      </trkpt>
      <trkpt lat="47.9546" lon="7.01144">
        <ele>1185.9</ele>
        <time>2023-05-19T09:12:45Z</time>
      </trkpt>
      <trkpt lat="47.95459" lon="7.01137">
        <ele>1185.2</ele>
        <time>2023-05-19T09:12:49Z</time>
      </trkpt>
      <trkpt lat="47.95467" lon="7.01103">
        <ele>1187</ele>
        <time>2023-05-19T09:13:08Z</time>
      </trkpt>
      <trkpt lat="47.95469" lon="7.01098">
        <ele>1187.5</ele>
        <time>2023-05-19T09:13:12Z</time>
      </trkpt>
      <trkpt lat="47.95474" lon="7.01079">
        <ele>1188.5</ele>
        <time>2023-05-19T09:13:23Z</time>
      </trkpt>
      <trkpt lat="47.95478" lon="7.01053">
        <ele>1189.2</ele>
        <time>2023-05-19T09:13:37Z</time>
      </trkpt>
      <trkpt lat="47.9548" lon="7.01033">
        <ele>1189.3</ele>
        <time>2023-05-19T09:13:48Z</time>
      </trkpt>
      <trkpt lat="47.95487" lon="7.00979">
        <ele>1191.9</ele>
        <time>2023-05-19T09:14:19Z</time>
      </trkpt>
      <trkpt lat="47.95491" lon="7.00943">
        <ele>1192.8</ele>
        <time>2023-05-19T09:14:37Z</time>
      </trkpt>
      <trkpt lat="47.95493" lon="7.00938">
        <ele>1193.7</ele>
        <time>2023-05-19T09:14:41Z</time>
      </trkpt>
      <trkpt lat="47.95498" lon="7.00884">
        <ele>1194.8</ele>
        <time>2023-05-19T09:15:09Z</time>
      </trkpt>
      <trkpt lat="47.95501" lon="7.00877">
        <ele>1196</ele>
        <time>2023-05-19T09:15:13Z</time>
      </trkpt>
      <trkpt lat="47.95507" lon="7.00852">
        <ele>1197.9</ele>
        <time>2023-05-19T09:15:28Z</time>
      </trkpt>
      <trkpt lat="47.95508" lon="7.00837">
        <ele>1197.9</ele>
        <time>2023-05-19T09:15:37Z</time>
      </trkpt>
      <trkpt lat="47.95509" lon="7.0083">
        <ele>1198</ele>
        <time>2023-05-19T09:15:40Z</time>
      </trkpt>
      <trkpt lat="47.95511" lon="7.00824">
        <ele>1198.6</ele>
        <time>2023-05-19T09:15:44Z</time>
      </trkpt>
      <trkpt lat="47.95511" lon="7.00815">
        <ele>1198.1</ele>
        <time>2023-05-19T09:15:48Z</time>
      </trkpt>
      <trkpt lat="47.95514" lon="7.00802">
        <ele>1198.7</ele>
        <time>2023-05-19T09:15:56Z</time>
      </trkpt>
      <trkpt lat="47.95514" lon="7.00794">
        <ele>1198</ele>
        <time>2023-05-19T09:16:00Z</time>
      </trkpt>
      <trkpt lat="47.95522" lon="7.00764">
        <ele>1199.2</ele>
        <time>2023-05-19T09:16:19Z</time>
      </trkpt>
      <trkpt lat="47.95525" lon="7.00757">
        <ele>1200.1</ele>
        <time>2023-05-19T09:16:23Z</time>
      </trkpt>
      <trkpt lat="47.95527" lon="7.00737">
        <ele>1199.2</ele>
        <time>2023-05-19T09:16:33Z</time>
      </trkpt>
      <trkpt lat="47.95546" lon="7.00679">
        <ele>1200.8</ele>
        <time>2023-05-19T09:17:05Z</time>
      </trkpt>
      <trkpt lat="47.95547" lon="7.00673">
        <ele>1200.5</ele>
        <time>2023-05-19T09:17:08Z</time>
      </trkpt>
      <trkpt lat="47.95551" lon="7.00666">
        <ele>1201.1</ele>
        <time>2023-05-19T09:17:12Z</time>
      </trkpt>
      <trkpt lat="47.95565" lon="7.00644">
        <ele>1200.7</ele>
        <time>2023-05-19T09:17:27Z</time>
      </trkpt>
      <trkpt lat="47.95567" lon="7.00637">
        <ele>1199.6</ele>
        <time>2023-05-19T09:17:31Z</time>
      </trkpt>
      <trkpt lat="47.95575" lon="7.00629">
        <ele>1199.1</ele>
        <time>2023-05-19T09:17:39Z</time>
      </trkpt>
      <trkpt lat="47.9558" lon="7.00627">
        <ele>1199.5</ele>
        <time>2023-05-19T09:17:44Z</time>
      </trkpt>
      <trkpt lat="47.95584" lon="7.00625">
        <ele>1199.6</ele>
        <time>2023-05-19T09:17:47Z</time>
      </trkpt>
      <trkpt lat="47.95596" lon="7.00621">
        <ele>1200</ele>
        <time>2023-05-19T09:17:55Z</time>
      </trkpt>
      <trkpt lat="47.95601" lon="7.0062">
        <ele>1200.4</ele>
        <time>2023-05-19T09:17:58Z</time>
      </trkpt>
      <trkpt lat="47.95607" lon="7.00622">
        <ele>1201.6</ele>
        <time>2023-05-19T09:18:01Z</time>
      </trkpt>
      <trkpt lat="47.95611" lon="7.00619">
        <ele>1201.3</ele>
        <time>2023-05-19T09:18:03Z</time>
      </trkpt>
      <trkpt lat="47.95613" lon="7.00615">
        <ele>1200.2</ele>
        <time>2023-05-19T09:18:08Z</time>
      </trkpt>
      <trkpt lat="47.9562" lon="7.00617">
        <ele>1201.3</ele>
        <time>2023-05-19T09:18:14Z</time>
      </trkpt>
      <trkpt lat="47.95626" lon="7.00617">
        <ele>1201.7</ele>
        <time>2023-05-19T09:18:19Z</time>
      </trkpt>
      <trkpt lat="47.95631" lon="7.00613">
        <ele>1200.9</ele>
        <time>2023-05-19T09:18:23Z</time>
      </trkpt>
      <trkpt lat="47.95635" lon="7.00612">
        <ele>1200.9</ele>
        <time>2023-05-19T09:18:26Z</time>
      </trkpt>
      <trkpt lat="47.95639" lon="7.00609">
        <ele>1200.5</ele>
        <time>2023-05-19T09:18:29Z</time>
      </trkpt>
      <trkpt lat="47.9565" lon="7.00603">
        <ele>1200.2</ele>
        <time>2023-05-19T09:18:37Z</time>
      </trkpt>
      <trkpt lat="47.95654" lon="7.00601">
        <ele>1200.1</ele>
        <time>2023-05-19T09:18:41Z</time>
      </trkpt>
      <trkpt lat="47.95659" lon="7.00601">
        <ele>1200.6</ele>
        <time>2023-05-19T09:18:45Z</time>
      </trkpt>
      <trkpt lat="47.95662" lon="7.00597">
        <ele>1199.9</ele>
        <time>2023-05-19T09:18:48Z</time>
      </trkpt>
      <trkpt lat="47.95677" lon="7.00591">
        <ele>1200.3</ele>
        <time>2023-05-19T09:19:00Z</time>
      </trkpt>
      <trkpt lat="47.95691" lon="7.00585">
        <ele>1200.9</ele>
        <time>2023-05-19T09:19:11Z</time>
      </trkpt>
      <trkpt lat="47.95713" lon="7.00569">
        <ele>1200.9</ele>
        <time>2023-05-19T09:19:31Z</time>
      </trkpt>
      <trkpt lat="47.95725" lon="7.00558">
        <ele>1200.8</ele>
        <time>2023-05-19T09:19:42Z</time>
      </trkpt>
      <trkpt lat="47.95737" lon="7.00548">
        <ele>1200.6</ele>
        <time>2023-05-19T09:19:51Z</time>
      </trkpt>
      <trkpt lat="47.95742" lon="7.00544">
        <ele>1200.6</ele>
        <time>2023-05-19T09:19:54Z</time>
      </trkpt>
      <trkpt lat="47.95748" lon="7.00539">
        <ele>1200.7</ele>
        <time>2023-05-19T09:20:00Z</time>
      </trkpt>
      <trkpt lat="47.95761" lon="7.00531">
        <ele>1200.7</ele>
        <time>2023-05-19T09:20:10Z</time>
      </trkpt>
      <trkpt lat="47.95769" lon="7.00524">
        <ele>1200.4</ele>
        <time>2023-05-19T09:20:18Z</time>
      </trkpt>
      <trkpt lat="47.95775" lon="7.00522">
        <ele>1200.8</ele>
        <time>2023-05-19T09:20:22Z</time>
      </trkpt>
      <trkpt lat="47.95783" lon="7.00516">
        <ele>1201.1</ele>
        <time>2023-05-19T09:20:30Z</time>
      </trkpt>
      <trkpt lat="47.95792" lon="7.0051">
        <ele>1201.8</ele>
        <time>2023-05-19T09:20:37Z</time>
      </trkpt>
      <trkpt lat="47.95821" lon="7.00494">
        <ele>1203.9</ele>
        <time>2023-05-19T09:21:02Z</time>
      </trkpt>
      <trkpt lat="47.95825" lon="7.00493">
        <ele>1204.3</ele>
        <time>2023-05-19T09:21:05Z</time>
      </trkpt>
      <trkpt lat="47.9583" lon="7.00491">
        <ele>1204.6</ele>
        <time>2023-05-19T09:21:08Z</time>
      </trkpt>
      <trkpt lat="47.95834" lon="7.00488">
        <ele>1204.7</ele>
        <time>2023-05-19T09:21:12Z</time>
      </trkpt>
      <trkpt lat="47.95839" lon="7.00489">
        <ele>1205.1</ele>
        <time>2023-05-19T09:21:16Z</time>
      </trkpt>
      <trkpt lat="47.95848" lon="7.00485">
        <ele>1205.2</ele>
        <time>2023-05-19T09:21:23Z</time>
      </trkpt>
      <trkpt lat="47.95852" lon="7.00484">
        <ele>1205.3</ele>
        <time>2023-05-19T09:21:27Z</time>
      </trkpt>
      <trkpt lat="47.95858" lon="7.00485">
        <ele>1205.7</ele>
        <time>2023-05-19T09:21:30Z</time>
      </trkpt>
      <trkpt lat="47.95867" lon="7.00485">
        <ele>1205.5</ele>
        <time>2023-05-19T09:21:38Z</time>
      </trkpt>
      <trkpt lat="47.95882" lon="7.00481">
        <ele>1204.1</ele>
        <time>2023-05-19T09:21:50Z</time>
      </trkpt>
      <trkpt lat="47.95889" lon="7.00481">
        <ele>1203.6</ele>
        <time>2023-05-19T09:21:55Z</time>
      </trkpt>
      <trkpt lat="47.95894" lon="7.00482">
        <ele>1203.2</ele>
        <time>2023-05-19T09:21:58Z</time>
      </trkpt>
      <trkpt lat="47.95899" lon="7.00481">
        <ele>1202.5</ele>
        <time>2023-05-19T09:22:03Z</time>
      </trkpt>
      <trkpt lat="47.95909" lon="7.00485">
        <ele>1201.7</ele>
        <time>2023-05-19T09:22:10Z</time>
      </trkpt>
      <trkpt lat="47.95915" lon="7.00486">
        <ele>1201.2</ele>
        <time>2023-05-19T09:22:14Z</time>
      </trkpt>
      <trkpt lat="47.9593" lon="7.00478">
        <ele>1200.3</ele>
        <time>2023-05-19T09:22:29Z</time>
      </trkpt>
      <trkpt lat="47.95929" lon="7.00486">
        <ele>1200.8</ele>
        <time>2023-05-19T09:23:06Z</time>
      </trkpt>
      <trkpt lat="47.95936" lon="7.00476">
        <ele>1200.2</ele>
        <time>2023-05-19T09:23:30Z</time>
      </trkpt>
      <trkpt lat="47.9594" lon="7.00474">
        <ele>1200.1</ele>
        <time>2023-05-19T09:23:33Z</time>
      </trkpt>
      <trkpt lat="47.95944" lon="7.0047">
        <ele>1199.9</ele>
        <time>2023-05-19T09:23:37Z</time>
      </trkpt>
      <trkpt lat="47.95948" lon="7.00463">
        <ele>1200</ele>
        <time>2023-05-19T09:23:44Z</time>
      </trkpt>
      <trkpt lat="47.95952" lon="7.0046">
        <ele>1200.2</ele>
        <time>2023-05-19T09:23:48Z</time>
      </trkpt>
      <trkpt lat="47.95958" lon="7.00455">
        <ele>1200.7</ele>
        <time>2023-05-19T09:23:53Z</time>
      </trkpt>
      <trkpt lat="47.95962" lon="7.00448">
        <ele>1200.9</ele>
        <time>2023-05-19T09:23:57Z</time>
      </trkpt>
      <trkpt lat="47.95967" lon="7.00445">
        <ele>1201.4</ele>
        <time>2023-05-19T09:24:01Z</time>
      </trkpt>
      <trkpt lat="47.95971" lon="7.00442">
        <ele>1201.8</ele>
        <time>2023-05-19T09:24:06Z</time>
      </trkpt>
      <trkpt lat="47.95974" lon="7.00436">
        <ele>1201.9</ele>
        <time>2023-05-19T09:24:11Z</time>
      </trkpt>
      <trkpt lat="47.95977" lon="7.00429">
        <ele>1202.1</ele>
        <time>2023-05-19T09:24:16Z</time>
      </trkpt>
      <trkpt lat="47.95981" lon="7.00425">
        <ele>1202.5</ele>
        <time>2023-05-19T09:24:20Z</time>
      </trkpt>
      <trkpt lat="47.95984" lon="7.00418">
        <ele>1202.7</ele>
        <time>2023-05-19T09:24:26Z</time>
      </trkpt>
      <trkpt lat="47.95989" lon="7.00413">
        <ele>1203.4</ele>
        <time>2023-05-19T09:24:29Z</time>
      </trkpt>
      <trkpt lat="47.95995" lon="7.00403">
        <ele>1204.2</ele>
        <time>2023-05-19T09:24:35Z</time>
      </trkpt>
      <trkpt lat="47.96002" lon="7.00386">
        <ele>1205.3</ele>
        <time>2023-05-19T09:24:46Z</time>
      </trkpt>
      <trkpt lat="47.96006" lon="7.00381">
        <ele>1205.9</ele>
        <time>2023-05-19T09:24:50Z</time>
      </trkpt>
      <trkpt lat="47.96007" lon="7.00374">
        <ele>1205.7</ele>
        <time>2023-05-19T09:24:54Z</time>
      </trkpt>
      <trkpt lat="47.9601" lon="7.00369">
        <ele>1206.1</ele>
        <time>2023-05-19T09:24:58Z</time>
      </trkpt>
      <trkpt lat="47.96014" lon="7.00367">
        <ele>1207</ele>
        <time>2023-05-19T09:25:02Z</time>
      </trkpt>
      <trkpt lat="47.96033" lon="7.00331">
        <ele>1209.2</ele>
        <time>2023-05-19T09:25:29Z</time>
      </trkpt>
      <trkpt lat="47.96038" lon="7.00323">
        <ele>1209.6</ele>
        <time>2023-05-19T09:25:37Z</time>
      </trkpt>
      <trkpt lat="47.96042" lon="7.00314">
        <ele>1209.7</ele>
        <time>2023-05-19T09:25:41Z</time>
      </trkpt>
      <trkpt lat="47.96046" lon="7.00309">
        <ele>1210.3</ele>
        <time>2023-05-19T09:25:48Z</time>
      </trkpt>
      <trkpt lat="47.9605" lon="7.00304">
        <ele>1210.9</ele>
        <time>2023-05-19T09:25:53Z</time>
      </trkpt>
      <trkpt lat="47.9606" lon="7.00293">
        <ele>1212</ele>
        <time>2023-05-19T09:26:06Z</time>
      </trkpt>
      <trkpt lat="47.96065" lon="7.0029">
        <ele>1212.9</ele>
        <time>2023-05-19T09:26:10Z</time>
      </trkpt>
      <trkpt lat="47.96072" lon="7.0028">
        <ele>1213.1</ele>
        <time>2023-05-19T09:26:19Z</time>
      </trkpt>
      <trkpt lat="47.96081" lon="7.00271">
        <ele>1214.4</ele>
        <time>2023-05-19T09:26:28Z</time>
      </trkpt>
      <trkpt lat="47.96085" lon="7.00268">
        <ele>1215.1</ele>
        <time>2023-05-19T09:26:33Z</time>
      </trkpt>
      <trkpt lat="47.96091" lon="7.00258">
        <ele>1215.2</ele>
        <time>2023-05-19T09:26:39Z</time>
      </trkpt>
      <trkpt lat="47.96094" lon="7.00253">
        <ele>1215.2</ele>
        <time>2023-05-19T09:26:43Z</time>
      </trkpt>
      <trkpt lat="47.96096" lon="7.00247">
        <ele>1214.6</ele>
        <time>2023-05-19T09:26:47Z</time>
      </trkpt>
      <trkpt lat="47.961" lon="7.00242">
        <ele>1214.6</ele>
        <time>2023-05-19T09:26:50Z</time>
      </trkpt>
      <trkpt lat="47.96104" lon="7.00238">
        <ele>1214.9</ele>
        <time>2023-05-19T09:26:54Z</time>
      </trkpt>
      <trkpt lat="47.96108" lon="7.00233">
        <ele>1215.1</ele>
        <time>2023-05-19T09:26:58Z</time>
      </trkpt>
      <trkpt lat="47.96116" lon="7.00223">
        <ele>1215.5</ele>
        <time>2023-05-19T09:27:08Z</time>
      </trkpt>
      <trkpt lat="47.96132" lon="7.00208">
        <ele>1217.8</ele>
        <time>2023-05-19T09:27:24Z</time>
      </trkpt>
      <trkpt lat="47.9614" lon="7.00197">
        <ele>1218.6</ele>
        <time>2023-05-19T09:27:32Z</time>
      </trkpt>
      <trkpt lat="47.96143" lon="7.00192">
        <ele>1218.7</ele>
        <time>2023-05-19T09:27:36Z</time>
      </trkpt>
      <trkpt lat="47.96146" lon="7.00186">
        <ele>1218.7</ele>
        <time>2023-05-19T09:27:40Z</time>
      </trkpt>
      <trkpt lat="47.9615" lon="7.00183">
        <ele>1219.3</ele>
        <time>2023-05-19T09:27:44Z</time>
      </trkpt>
      <trkpt lat="47.96155" lon="7.00178">
        <ele>1220</ele>
        <time>2023-05-19T09:27:49Z</time>
      </trkpt>
      <trkpt lat="47.96158" lon="7.00172">
        <ele>1220.1</ele>
        <time>2023-05-19T09:27:53Z</time>
      </trkpt>
      <trkpt lat="47.96159" lon="7.00167">
        <ele>1219.8</ele>
        <time>2023-05-19T09:27:56Z</time>
      </trkpt>
      <trkpt lat="47.96173" lon="7.0014">
        <ele>1220.3</ele>
        <time>2023-05-19T09:28:16Z</time>
      </trkpt>
      <trkpt lat="47.96176" lon="7.00135">
        <ele>1220.2</ele>
        <time>2023-05-19T09:28:19Z</time>
      </trkpt>
      <trkpt lat="47.96178" lon="7.0013">
        <ele>1220</ele>
        <time>2023-05-19T09:28:23Z</time>
      </trkpt>
      <trkpt lat="47.96184" lon="7.00117">
        <ele>1220</ele>
        <time>2023-05-19T09:28:30Z</time>
      </trkpt>
      <trkpt lat="47.96187" lon="7.00112">
        <ele>1220.2</ele>
        <time>2023-05-19T09:28:34Z</time>
      </trkpt>
      <trkpt lat="47.96189" lon="7.00106">
        <ele>1220.3</ele>
        <time>2023-05-19T09:28:39Z</time>
      </trkpt>
      <trkpt lat="47.96192" lon="7.00092">
        <ele>1220</ele>
        <time>2023-05-19T09:28:47Z</time>
      </trkpt>
      <trkpt lat="47.96194" lon="7.00085">
        <ele>1220</ele>
        <time>2023-05-19T09:28:52Z</time>
      </trkpt>
      <trkpt lat="47.96198" lon="7.00063">
        <ele>1220.1</ele>
        <time>2023-05-19T09:29:03Z</time>
      </trkpt>
      <trkpt lat="47.962" lon="7.00055">
        <ele>1220.4</ele>
        <time>2023-05-19T09:29:08Z</time>
      </trkpt>
      <trkpt lat="47.96202" lon="7.00046">
        <ele>1220.9</ele>
        <time>2023-05-19T09:29:14Z</time>
      </trkpt>
      <trkpt lat="47.96204" lon="7.00012">
        <ele>1221.2</ele>
        <time>2023-05-19T09:29:30Z</time>
      </trkpt>
      <trkpt lat="47.96204" lon="7.00004">
        <ele>1221.1</ele>
        <time>2023-05-19T09:29:33Z</time>
      </trkpt>
      <trkpt lat="47.96205" lon="6.99997">
        <ele>1221.3</ele>
        <time>2023-05-19T09:29:37Z</time>
      </trkpt>
      <trkpt lat="47.96209" lon="6.99972">
        <ele>1221.7</ele>
        <time>2023-05-19T09:29:53Z</time>
      </trkpt>
      <trkpt lat="47.9621" lon="6.99959">
        <ele>1221.4</ele>
        <time>2023-05-19T09:29:59Z</time>
      </trkpt>
      <trkpt lat="47.96211" lon="6.99952">
        <ele>1221.3</ele>
        <time>2023-05-19T09:30:02Z</time>
      </trkpt>
      <trkpt lat="47.96214" lon="6.99936">
        <ele>1221.5</ele>
        <time>2023-05-19T09:30:10Z</time>
      </trkpt>
      <trkpt lat="47.96216" lon="6.9993">
        <ele>1221.8</ele>
        <time>2023-05-19T09:30:14Z</time>
      </trkpt>
      <trkpt lat="47.96219" lon="6.99924">
        <ele>1222.5</ele>
        <time>2023-05-19T09:30:18Z</time>
      </trkpt>
      <trkpt lat="47.96222" lon="6.99917">
        <ele>1223</ele>
        <time>2023-05-19T09:30:22Z</time>
      </trkpt>
      <trkpt lat="47.96227" lon="6.99897">
        <ele>1222.8</ele>
        <time>2023-05-19T09:30:32Z</time>
      </trkpt>
      <trkpt lat="47.9623" lon="6.99889">
        <ele>1223</ele>
        <time>2023-05-19T09:30:40Z</time>
      </trkpt>
      <trkpt lat="47.96234" lon="6.99875">
        <ele>1222.7</ele>
        <time>2023-05-19T09:30:48Z</time>
      </trkpt>
      <trkpt lat="47.96236" lon="6.99869">
        <ele>1222.7</ele>
        <time>2023-05-19T09:30:52Z</time>
      </trkpt>
      <trkpt lat="47.96245" lon="6.99848">
        <ele>1222.8</ele>
        <time>2023-05-19T09:31:03Z</time>
      </trkpt>
      <trkpt lat="47.96246" lon="6.9984">
        <ele>1221.9</ele>
        <time>2023-05-19T09:31:07Z</time>
      </trkpt>
      <trkpt lat="47.96249" lon="6.99833">
        <ele>1221.7</ele>
        <time>2023-05-19T09:31:12Z</time>
      </trkpt>
      <trkpt lat="47.96263" lon="6.99814">
        <ele>1221.3</ele>
        <time>2023-05-19T09:31:25Z</time>
      </trkpt>
      <trkpt lat="47.96267" lon="6.99809">
        <ele>1221.3</ele>
        <time>2023-05-19T09:31:29Z</time>
      </trkpt>
      <trkpt lat="47.96278" lon="6.99794">
        <ele>1220.5</ele>
        <time>2023-05-19T09:31:40Z</time>
      </trkpt>
      <trkpt lat="47.96287" lon="6.99787">
        <ele>1220.2</ele>
        <time>2023-05-19T09:31:46Z</time>
      </trkpt>
      <trkpt lat="47.96296" lon="6.99783">
        <ele>1220.6</ele>
        <time>2023-05-19T09:31:53Z</time>
      </trkpt>
      <trkpt lat="47.963" lon="6.99779">
        <ele>1220.4</ele>
        <time>2023-05-19T09:31:56Z</time>
      </trkpt>
      <trkpt lat="47.96305" lon="6.99778">
        <ele>1221</ele>
        <time>2023-05-19T09:32:00Z</time>
      </trkpt>
      <trkpt lat="47.9631" lon="6.99776">
        <ele>1220.9</ele>
        <time>2023-05-19T09:32:04Z</time>
      </trkpt>
      <trkpt lat="47.96315" lon="6.99772">
        <ele>1220.5</ele>
        <time>2023-05-19T09:32:08Z</time>
      </trkpt>
      <trkpt lat="47.96319" lon="6.99772">
        <ele>1220.8</ele>
        <time>2023-05-19T09:32:11Z</time>
      </trkpt>
      <trkpt lat="47.96324" lon="6.9977">
        <ele>1220.8</ele>
        <time>2023-05-19T09:32:14Z</time>
      </trkpt>
      <trkpt lat="47.96328" lon="6.99768">
        <ele>1220.8</ele>
        <time>2023-05-19T09:32:18Z</time>
      </trkpt>
      <trkpt lat="47.96332" lon="6.99768">
        <ele>1221.1</ele>
        <time>2023-05-19T09:32:23Z</time>
      </trkpt>
      <trkpt lat="47.96338" lon="6.99769">
        <ele>1221.9</ele>
        <time>2023-05-19T09:32:27Z</time>
      </trkpt>
      <trkpt lat="47.96341" lon="6.99763">
        <ele>1221.2</ele>
        <time>2023-05-19T09:32:30Z</time>
      </trkpt>
      <trkpt lat="47.96346" lon="6.9976">
        <ele>1221.2</ele>
        <time>2023-05-19T09:32:35Z</time>
      </trkpt>
      <trkpt lat="47.96356" lon="6.99751">
        <ele>1220.6</ele>
        <time>2023-05-19T09:32:46Z</time>
      </trkpt>
      <trkpt lat="47.96364" lon="6.99745">
        <ele>1220.2</ele>
        <time>2023-05-19T09:32:54Z</time>
      </trkpt>
      <trkpt lat="47.96379" lon="6.9974">
        <ele>1220.1</ele>
        <time>2023-05-19T09:33:03Z</time>
      </trkpt>
      <trkpt lat="47.96383" lon="6.99741">
        <ele>1220.4</ele>
        <time>2023-05-19T09:33:06Z</time>
      </trkpt>
      <trkpt lat="47.96393" lon="6.99741">
        <ele>1220.8</ele>
        <time>2023-05-19T09:33:15Z</time>
      </trkpt>
      <trkpt lat="47.96398" lon="6.9974">
        <ele>1220.7</ele>
        <time>2023-05-19T09:33:18Z</time>
      </trkpt>
      <trkpt lat="47.96403" lon="6.99742">
        <ele>1221</ele>
        <time>2023-05-19T09:33:22Z</time>
      </trkpt>
      <trkpt lat="47.9641" lon="6.99737">
        <ele>1220.5</ele>
        <time>2023-05-19T09:33:28Z</time>
      </trkpt>
      <trkpt lat="47.96415" lon="6.99734">
        <ele>1220.2</ele>
        <time>2023-05-19T09:33:32Z</time>
      </trkpt>
      <trkpt lat="47.96424" lon="6.99732">
        <ele>1220.1</ele>
        <time>2023-05-19T09:33:39Z</time>
      </trkpt>
      <trkpt lat="47.96434" lon="6.99727">
        <ele>1219.9</ele>
        <time>2023-05-19T09:33:47Z</time>
      </trkpt>
      <trkpt lat="47.96438" lon="6.99725">
        <ele>1219.9</ele>
        <time>2023-05-19T09:33:50Z</time>
      </trkpt>
      <trkpt lat="47.96448" lon="6.9972">
        <ele>1219.8</ele>
        <time>2023-05-19T09:33:58Z</time>
      </trkpt>
      <trkpt lat="47.96458" lon="6.99717">
        <ele>1219.6</ele>
        <time>2023-05-19T09:34:05Z</time>
      </trkpt>
      <trkpt lat="47.96463" lon="6.99716">
        <ele>1219.6</ele>
        <time>2023-05-19T09:34:09Z</time>
      </trkpt>
      <trkpt lat="47.96468" lon="6.99715">
        <ele>1219.5</ele>
        <time>2023-05-19T09:34:13Z</time>
      </trkpt>
      <trkpt lat="47.96472" lon="6.99715">
        <ele>1219.5</ele>
        <time>2023-05-19T09:34:16Z</time>
      </trkpt>
      <trkpt lat="47.96487" lon="6.99707">
        <ele>1217.6</ele>
        <time>2023-05-19T09:34:28Z</time>
      </trkpt>
      <trkpt lat="47.96495" lon="6.99704">
        <ele>1216.8</ele>
        <time>2023-05-19T09:34:35Z</time>
      </trkpt>
      <trkpt lat="47.965" lon="6.99699">
        <ele>1216.2</ele>
        <time>2023-05-19T09:34:39Z</time>
      </trkpt>
      <trkpt lat="47.96504" lon="6.99695">
        <ele>1215.7</ele>
        <time>2023-05-19T09:34:43Z</time>
      </trkpt>
      <trkpt lat="47.96509" lon="6.99694">
        <ele>1215.3</ele>
        <time>2023-05-19T09:34:47Z</time>
      </trkpt>
      <trkpt lat="47.96514" lon="6.99691">
        <ele>1214.7</ele>
        <time>2023-05-19T09:34:51Z</time>
      </trkpt>
      <trkpt lat="47.96519" lon="6.99687">
        <ele>1213.9</ele>
        <time>2023-05-19T09:34:56Z</time>
      </trkpt>
      <trkpt lat="47.96524" lon="6.99685">
        <ele>1213.3</ele>
        <time>2023-05-19T09:35:00Z</time>
      </trkpt>
      <trkpt lat="47.96527" lon="6.99681">
        <ele>1212.6</ele>
        <time>2023-05-19T09:35:03Z</time>
      </trkpt>
      <trkpt lat="47.96532" lon="6.99679">
        <ele>1212</ele>
        <time>2023-05-19T09:35:07Z</time>
      </trkpt>
      <trkpt lat="47.96541" lon="6.99671">
        <ele>1210.4</ele>
        <time>2023-05-19T09:35:15Z</time>
      </trkpt>
      <trkpt lat="47.96545" lon="6.99668">
        <ele>1209.9</ele>
        <time>2023-05-19T09:35:19Z</time>
      </trkpt>
      <trkpt lat="47.96549" lon="6.99663">
        <ele>1209.1</ele>
        <time>2023-05-19T09:35:23Z</time>
      </trkpt>
      <trkpt lat="47.96553" lon="6.99661">
        <ele>1208.6</ele>
        <time>2023-05-19T09:35:27Z</time>
      </trkpt>
      <trkpt lat="47.96557" lon="6.99658">
        <ele>1208</ele>
        <time>2023-05-19T09:35:30Z</time>
      </trkpt>
      <trkpt lat="47.96561" lon="6.99653">
        <ele>1207.2</ele>
        <time>2023-05-19T09:35:34Z</time>
      </trkpt>
      <trkpt lat="47.96566" lon="6.99649">
        <ele>1206.6</ele>
        <time>2023-05-19T09:35:38Z</time>
      </trkpt>
      <trkpt lat="47.96573" lon="6.99638">
        <ele>1205.3</ele>
        <time>2023-05-19T09:35:46Z</time>
      </trkpt>
      <trkpt lat="47.96577" lon="6.99635">
        <ele>1204.9</ele>
        <time>2023-05-19T09:35:49Z</time>
      </trkpt>
      <trkpt lat="47.96586" lon="6.99626">
        <ele>1204</ele>
        <time>2023-05-19T09:35:56Z</time>
      </trkpt>
      <trkpt lat="47.96591" lon="6.99625">
        <ele>1203.7</ele>
        <time>2023-05-19T09:36:00Z</time>
      </trkpt>
      <trkpt lat="47.96596" lon="6.99621">
        <ele>1203.3</ele>
        <time>2023-05-19T09:36:04Z</time>
      </trkpt>
      <trkpt lat="47.96609" lon="6.99612">
        <ele>1202.1</ele>
        <time>2023-05-19T09:36:14Z</time>
      </trkpt>
      <trkpt lat="47.96613" lon="6.99611">
        <ele>1201.9</ele>
        <time>2023-05-19T09:36:18Z</time>
      </trkpt>
      <trkpt lat="47.96617" lon="6.99606">
        <ele>1201.5</ele>
        <time>2023-05-19T09:36:22Z</time>
      </trkpt>
      <trkpt lat="47.96621" lon="6.99601">
        <ele>1201</ele>
        <time>2023-05-19T09:36:25Z</time>
      </trkpt>
      <trkpt lat="47.96626" lon="6.99598">
        <ele>1200.8</ele>
        <time>2023-05-19T09:36:29Z</time>
      </trkpt>
      <trkpt lat="47.9663" lon="6.99596">
        <ele>1200.6</ele>
        <time>2023-05-19T09:36:32Z</time>
      </trkpt>
      <trkpt lat="47.96634" lon="6.99592">
        <ele>1200.4</ele>
        <time>2023-05-19T09:36:35Z</time>
      </trkpt>
      <trkpt lat="47.96636" lon="6.99586">
        <ele>1200.1</ele>
        <time>2023-05-19T09:36:38Z</time>
      </trkpt>
      <trkpt lat="47.96641" lon="6.99582">
        <ele>1199.9</ele>
        <time>2023-05-19T09:36:42Z</time>
      </trkpt>
      <trkpt lat="47.96648" lon="6.99574">
        <ele>1199.6</ele>
        <time>2023-05-19T09:36:49Z</time>
      </trkpt>
      <trkpt lat="47.96652" lon="6.99568">
        <ele>1199.5</ele>
        <time>2023-05-19T09:36:53Z</time>
      </trkpt>
      <trkpt lat="47.96657" lon="6.99563">
        <ele>1199.6</ele>
        <time>2023-05-19T09:36:57Z</time>
      </trkpt>
      <trkpt lat="47.96664" lon="6.99551">
        <ele>1199.7</ele>
        <time>2023-05-19T09:37:06Z</time>
      </trkpt>
      <trkpt lat="47.96667" lon="6.99546">
        <ele>1199.7</ele>
        <time>2023-05-19T09:37:09Z</time>
      </trkpt>
      <trkpt lat="47.9667" lon="6.9954">
        <ele>1199.5</ele>
        <time>2023-05-19T09:37:13Z</time>
      </trkpt>
      <trkpt lat="47.96675" lon="6.99535">
        <ele>1199.4</ele>
        <time>2023-05-19T09:37:17Z</time>
      </trkpt>
      <trkpt lat="47.96678" lon="6.9953">
        <ele>1199.4</ele>
        <time>2023-05-19T09:37:21Z</time>
      </trkpt>
      <trkpt lat="47.9669" lon="6.99515">
        <ele>1199.2</ele>
        <time>2023-05-19T09:37:33Z</time>
      </trkpt>
      <trkpt lat="47.96693" lon="6.99512">
        <ele>1199.3</ele>
        <time>2023-05-19T09:37:36Z</time>
      </trkpt>
      <trkpt lat="47.96698" lon="6.99509">
        <ele>1199.4</ele>
        <time>2023-05-19T09:37:40Z</time>
      </trkpt>
      <trkpt lat="47.96707" lon="6.99504">
        <ele>1199.5</ele>
        <time>2023-05-19T09:37:48Z</time>
      </trkpt>
      <trkpt lat="47.96711" lon="6.99501">
        <ele>1199.6</ele>
        <time>2023-05-19T09:37:51Z</time>
      </trkpt>
      <trkpt lat="47.96726" lon="6.99492">
        <ele>1199.5</ele>
        <time>2023-05-19T09:38:02Z</time>
      </trkpt>
      <trkpt lat="47.96731" lon="6.99488">
        <ele>1199.5</ele>
        <time>2023-05-19T09:38:06Z</time>
      </trkpt>
      <trkpt lat="47.96739" lon="6.99481">
        <ele>1199.9</ele>
        <time>2023-05-19T09:38:13Z</time>
      </trkpt>
      <trkpt lat="47.96743" lon="6.99476">
        <ele>1200.2</ele>
        <time>2023-05-19T09:38:17Z</time>
      </trkpt>
      <trkpt lat="47.96748" lon="6.99472">
        <ele>1200.8</ele>
        <time>2023-05-19T09:38:21Z</time>
      </trkpt>
      <trkpt lat="47.96753" lon="6.99468">
        <ele>1200.7</ele>
        <time>2023-05-19T09:38:25Z</time>
      </trkpt>
      <trkpt lat="47.96758" lon="6.99467">
        <ele>1200.8</ele>
        <time>2023-05-19T09:38:29Z</time>
      </trkpt>
      <trkpt lat="47.96762" lon="6.99464">
        <ele>1200.8</ele>
        <time>2023-05-19T09:38:33Z</time>
      </trkpt>
      <trkpt lat="47.96766" lon="6.99459">
        <ele>1200.9</ele>
        <time>2023-05-19T09:38:37Z</time>
      </trkpt>
      <trkpt lat="47.96771" lon="6.99455">
        <ele>1201.2</ele>
        <time>2023-05-19T09:38:41Z</time>
      </trkpt>
      <trkpt lat="47.96775" lon="6.99451">
        <ele>1201.5</ele>
        <time>2023-05-19T09:38:45Z</time>
      </trkpt>
      <trkpt lat="47.96779" lon="6.99446">
        <ele>1202</ele>
        <time>2023-05-19T09:38:49Z</time>
      </trkpt>
      <trkpt lat="47.96784" lon="6.99442">
        <ele>1202.4</ele>
        <time>2023-05-19T09:38:53Z</time>
      </trkpt>
      <trkpt lat="47.96788" lon="6.99438">
        <ele>1202.7</ele>
        <time>2023-05-19T09:38:57Z</time>
      </trkpt>
      <trkpt lat="47.96812" lon="6.99407">
        <ele>1206.2</ele>
        <time>2023-05-19T09:39:26Z</time>
      </trkpt>
      <trkpt lat="47.96816" lon="6.99402">
        <ele>1207.1</ele>
        <time>2023-05-19T09:39:31Z</time>
      </trkpt>
      <trkpt lat="47.96822" lon="6.99395">
        <ele>1208.5</ele>
        <time>2023-05-19T09:39:39Z</time>
      </trkpt>
      <trkpt lat="47.96827" lon="6.99388">
        <ele>1209.9</ele>
        <time>2023-05-19T09:39:47Z</time>
      </trkpt>
      <trkpt lat="47.96832" lon="6.99385">
        <ele>1211.2</ele>
        <time>2023-05-19T09:39:52Z</time>
      </trkpt>
      <trkpt lat="47.96845" lon="6.99347">
        <ele>1216.9</ele>
        <time>2023-05-19T09:42:11Z</time>
      </trkpt>
      <trkpt lat="47.96846" lon="6.99347">
        <ele>1217.1</ele>
        <time>2023-05-19T09:42:12Z</time>
      </trkpt>
      <trkpt lat="47.96849" lon="6.99333">
        <ele>1218.9</ele>
        <time>2023-05-19T09:42:20Z</time>
      </trkpt>
      <trkpt lat="47.96871" lon="6.99312">
        <ele>1226.5</ele>
        <time>2023-05-19T09:42:52Z</time>
      </trkpt>
      <trkpt lat="47.96878" lon="6.99312">
        <ele>1228.2</ele>
        <time>2023-05-19T09:42:59Z</time>
      </trkpt>
      <trkpt lat="47.96884" lon="6.99312">
        <ele>1229.6</ele>
        <time>2023-05-19T09:43:08Z</time>
      </trkpt>
      <trkpt lat="47.96888" lon="6.99301">
        <ele>1232.4</ele>
        <time>2023-05-19T09:43:21Z</time>
      </trkpt>
      <trkpt lat="47.96893" lon="6.99294">
        <ele>1234.2</ele>
        <time>2023-05-19T09:43:33Z</time>
      </trkpt>
      <trkpt lat="47.96899" lon="6.99284">
        <ele>1236.3</ele>
        <time>2023-05-19T09:43:45Z</time>
      </trkpt>
      <trkpt lat="47.96903" lon="6.99278">
        <ele>1237.5</ele>
        <time>2023-05-19T09:43:53Z</time>
      </trkpt>
      <trkpt lat="47.96904" lon="6.99272">
        <ele>1238.2</ele>
        <time>2023-05-19T09:43:58Z</time>
      </trkpt>
      <trkpt lat="47.96908" lon="6.99267">
        <ele>1239.1</ele>
        <time>2023-05-19T09:44:02Z</time>
      </trkpt>
      <trkpt lat="47.96912" lon="6.9926">
        <ele>1240.3</ele>
        <time>2023-05-19T09:44:09Z</time>
      </trkpt>
      <trkpt lat="47.96921" lon="6.99241">
        <ele>1242.5</ele>
        <time>2023-05-19T09:44:23Z</time>
      </trkpt>
      <trkpt lat="47.96924" lon="6.99237">
        <ele>1242.7</ele>
        <time>2023-05-19T09:44:28Z</time>
      </trkpt>
      <trkpt lat="47.96928" lon="6.99234">
        <ele>1243</ele>
        <time>2023-05-19T09:44:32Z</time>
      </trkpt>
      <trkpt lat="47.96941" lon="6.99223">
        <ele>1243.8</ele>
        <time>2023-05-19T09:44:44Z</time>
      </trkpt>
      <trkpt lat="47.96945" lon="6.99221">
        <ele>1244</ele>
        <time>2023-05-19T09:44:49Z</time>
      </trkpt>
      <trkpt lat="47.9695" lon="6.99221">
        <ele>1244.2</ele>
        <time>2023-05-19T09:44:53Z</time>
      </trkpt>
      <trkpt lat="47.96955" lon="6.9922">
        <ele>1244.4</ele>
        <time>2023-05-19T09:44:57Z</time>
      </trkpt>
      <trkpt lat="47.96961" lon="6.99218">
        <ele>1244.6</ele>
        <time>2023-05-19T09:45:01Z</time>
      </trkpt>
      <trkpt lat="47.96965" lon="6.99217">
        <ele>1244.7</ele>
        <time>2023-05-19T09:45:05Z</time>
      </trkpt>
      <trkpt lat="47.9697" lon="6.99216">
        <ele>1244.9</ele>
        <time>2023-05-19T09:45:09Z</time>
      </trkpt>
      <trkpt lat="47.96979" lon="6.99214">
        <ele>1245</ele>
        <time>2023-05-19T09:45:15Z</time>
      </trkpt>
      <trkpt lat="47.96984" lon="6.99214">
        <ele>1245</ele>
        <time>2023-05-19T09:45:19Z</time>
      </trkpt>
      <trkpt lat="47.96993" lon="6.99213">
        <ele>1245</ele>
        <time>2023-05-19T09:45:28Z</time>
      </trkpt>
      <trkpt lat="47.96998" lon="6.99213">
        <ele>1245</ele>
        <time>2023-05-19T09:45:32Z</time>
      </trkpt>
      <trkpt lat="47.97007" lon="6.9921">
        <ele>1245</ele>
        <time>2023-05-19T09:45:40Z</time>
      </trkpt>
      <trkpt lat="47.97012" lon="6.9921">
        <ele>1245</ele>
        <time>2023-05-19T09:45:44Z</time>
      </trkpt>
      <trkpt lat="47.97017" lon="6.99209">
        <ele>1245</ele>
        <time>2023-05-19T09:45:48Z</time>
      </trkpt>
      <trkpt lat="47.97027" lon="6.99208">
        <ele>1245</ele>
        <time>2023-05-19T09:45:56Z</time>
      </trkpt>
      <trkpt lat="47.97036" lon="6.99207">
        <ele>1244.9</ele>
        <time>2023-05-19T09:46:04Z</time>
      </trkpt>
      <trkpt lat="47.97047" lon="6.99205">
        <ele>1244.7</ele>
        <time>2023-05-19T09:46:12Z</time>
      </trkpt>
      <trkpt lat="47.97051" lon="6.99205">
        <ele>1244.7</ele>
        <time>2023-05-19T09:46:15Z</time>
      </trkpt>
      <trkpt lat="47.97056" lon="6.99204">
        <ele>1244.7</ele>
        <time>2023-05-19T09:46:19Z</time>
      </trkpt>
      <trkpt lat="47.97063" lon="6.99199">
        <ele>1244.8</ele>
        <time>2023-05-19T09:46:27Z</time>
      </trkpt>
      <trkpt lat="47.97068" lon="6.99197">
        <ele>1244.9</ele>
        <time>2023-05-19T09:46:31Z</time>
      </trkpt>
      <trkpt lat="47.97072" lon="6.99194">
        <ele>1245</ele>
        <time>2023-05-19T09:46:35Z</time>
      </trkpt>
      <trkpt lat="47.97082" lon="6.99188">
        <ele>1245</ele>
        <time>2023-05-19T09:46:43Z</time>
      </trkpt>
      <trkpt lat="47.97086" lon="6.99184">
        <ele>1245.1</ele>
        <time>2023-05-19T09:46:47Z</time>
      </trkpt>
      <trkpt lat="47.9709" lon="6.99182">
        <ele>1245.3</ele>
        <time>2023-05-19T09:46:51Z</time>
      </trkpt>
      <trkpt lat="47.97095" lon="6.9918">
        <ele>1245.6</ele>
        <time>2023-05-19T09:46:55Z</time>
      </trkpt>
      <trkpt lat="47.97101" lon="6.99177">
        <ele>1246</ele>
        <time>2023-05-19T09:47:01Z</time>
      </trkpt>
      <trkpt lat="47.97105" lon="6.99172">
        <ele>1246.4</ele>
        <time>2023-05-19T09:47:06Z</time>
      </trkpt>
      <trkpt lat="47.9711" lon="6.99168">
        <ele>1246.9</ele>
        <time>2023-05-19T09:47:10Z</time>
      </trkpt>
      <trkpt lat="47.97115" lon="6.99167">
        <ele>1247.4</ele>
        <time>2023-05-19T09:47:14Z</time>
      </trkpt>
      <trkpt lat="47.97118" lon="6.99163">
        <ele>1248.1</ele>
        <time>2023-05-19T09:47:17Z</time>
      </trkpt>
      <trkpt lat="47.97122" lon="6.99162">
        <ele>1248.6</ele>
        <time>2023-05-19T09:47:22Z</time>
      </trkpt>
      <trkpt lat="47.97127" lon="6.9916">
        <ele>1249.3</ele>
        <time>2023-05-19T09:47:27Z</time>
      </trkpt>
      <trkpt lat="47.97132" lon="6.99157">
        <ele>1250</ele>
        <time>2023-05-19T09:47:30Z</time>
      </trkpt>
      <trkpt lat="47.97142" lon="6.99151">
        <ele>1251.2</ele>
        <time>2023-05-19T09:47:40Z</time>
      </trkpt>
      <trkpt lat="47.97146" lon="6.99149">
        <ele>1251.5</ele>
        <time>2023-05-19T09:47:44Z</time>
      </trkpt>
      <trkpt lat="47.97151" lon="6.99146">
        <ele>1251.9</ele>
        <time>2023-05-19T09:47:48Z</time>
      </trkpt>
      <trkpt lat="47.9716" lon="6.99141">
        <ele>1252.6</ele>
        <time>2023-05-19T09:47:56Z</time>
      </trkpt>
      <trkpt lat="47.97164" lon="6.9914">
        <ele>1252.8</ele>
        <time>2023-05-19T09:48:00Z</time>
      </trkpt>
      <trkpt lat="47.97169" lon="6.99138">
        <ele>1253.1</ele>
        <time>2023-05-19T09:48:04Z</time>
      </trkpt>
      <trkpt lat="47.97183" lon="6.99137">
        <ele>1253.6</ele>
        <time>2023-05-19T09:48:16Z</time>
      </trkpt>
      <trkpt lat="47.97194" lon="6.99139">
        <ele>1254</ele>
        <time>2023-05-19T09:48:25Z</time>
      </trkpt>
      <trkpt lat="47.97213" lon="6.99137">
        <ele>1255.3</ele>
        <time>2023-05-19T09:48:40Z</time>
      </trkpt>
      <trkpt lat="47.97218" lon="6.99136">
        <ele>1255.7</ele>
        <time>2023-05-19T09:48:44Z</time>
      </trkpt>
      <trkpt lat="47.97223" lon="6.99136">
        <ele>1256.1</ele>
        <time>2023-05-19T09:48:48Z</time>
      </trkpt>
      <trkpt lat="47.97232" lon="6.99137">
        <ele>1256.7</ele>
        <time>2023-05-19T09:48:55Z</time>
      </trkpt>
      <trkpt lat="47.97243" lon="6.99136">
        <ele>1257.6</ele>
        <time>2023-05-19T09:49:04Z</time>
      </trkpt>
      <trkpt lat="47.97248" lon="6.99135">
        <ele>1258</ele>
        <time>2023-05-19T09:49:08Z</time>
      </trkpt>
      <trkpt lat="47.97253" lon="6.99134">
        <ele>1258.5</ele>
        <time>2023-05-19T09:49:12Z</time>
      </trkpt>
      <trkpt lat="47.97258" lon="6.99133">
        <ele>1259</ele>
        <time>2023-05-19T09:49:16Z</time>
      </trkpt>
      <trkpt lat="47.97267" lon="6.99132">
        <ele>1259.9</ele>
        <time>2023-05-19T09:49:23Z</time>
      </trkpt>
      <trkpt lat="47.97282" lon="6.99131">
        <ele>1261.2</ele>
        <time>2023-05-19T09:49:36Z</time>
      </trkpt>
      <trkpt lat="47.97287" lon="6.9913">
        <ele>1261.4</ele>
        <time>2023-05-19T09:49:40Z</time>
      </trkpt>
      <trkpt lat="47.97291" lon="6.99131">
        <ele>1261.6</ele>
        <time>2023-05-19T09:49:44Z</time>
      </trkpt>
      <trkpt lat="47.97317" lon="6.99126">
        <ele>1263.1</ele>
        <time>2023-05-19T09:50:04Z</time>
      </trkpt>
      <trkpt lat="47.97321" lon="6.99125">
        <ele>1263.3</ele>
        <time>2023-05-19T09:50:08Z</time>
      </trkpt>
      <trkpt lat="47.97327" lon="6.99124">
        <ele>1263.7</ele>
        <time>2023-05-19T09:50:13Z</time>
      </trkpt>
      <trkpt lat="47.97332" lon="6.99123">
        <ele>1263.9</ele>
        <time>2023-05-19T09:50:17Z</time>
      </trkpt>
      <trkpt lat="47.9734" lon="6.99117">
        <ele>1264.1</ele>
        <time>2023-05-19T09:50:24Z</time>
      </trkpt>
      <trkpt lat="47.97346" lon="6.99115">
        <ele>1264.3</ele>
        <time>2023-05-19T09:50:28Z</time>
      </trkpt>
      <trkpt lat="47.97355" lon="6.9911">
        <ele>1264.8</ele>
        <time>2023-05-19T09:50:35Z</time>
      </trkpt>
      <trkpt lat="47.9736" lon="6.99108">
        <ele>1265.1</ele>
        <time>2023-05-19T09:50:39Z</time>
      </trkpt>
      <trkpt lat="47.974" lon="6.99088">
        <ele>1266.2</ele>
        <time>2023-05-19T09:51:11Z</time>
      </trkpt>
      <trkpt lat="47.9741" lon="6.99083">
        <ele>1266.8</ele>
        <time>2023-05-19T09:51:19Z</time>
      </trkpt>
      <trkpt lat="47.97424" lon="6.99077">
        <ele>1267.4</ele>
        <time>2023-05-19T09:51:31Z</time>
      </trkpt>
      <trkpt lat="47.97439" lon="6.99069">
        <ele>1269</ele>
        <time>2023-05-19T09:51:45Z</time>
      </trkpt>
      <trkpt lat="47.97451" lon="6.99061">
        <ele>1269.6</ele>
        <time>2023-05-19T09:52:00Z</time>
      </trkpt>
      <trkpt lat="47.97469" lon="6.99046">
        <ele>1267.3</ele>
        <time>2023-05-19T09:52:18Z</time>
      </trkpt>
      <trkpt lat="47.97473" lon="6.99042">
        <ele>1267</ele>
        <time>2023-05-19T09:52:22Z</time>
      </trkpt>
      <trkpt lat="47.97476" lon="6.99036">
        <ele>1267.1</ele>
        <time>2023-05-19T09:52:26Z</time>
      </trkpt>
      <trkpt lat="47.97484" lon="6.99025">
        <ele>1267.4</ele>
        <time>2023-05-19T09:52:34Z</time>
      </trkpt>
      <trkpt lat="47.97491" lon="6.99016">
        <ele>1267.8</ele>
        <time>2023-05-19T09:52:42Z</time>
      </trkpt>
      <trkpt lat="47.97494" lon="6.99011">
        <ele>1268.1</ele>
        <time>2023-05-19T09:52:45Z</time>
      </trkpt>
      <trkpt lat="47.97498" lon="6.99006">
        <ele>1268.6</ele>
        <time>2023-05-19T09:52:49Z</time>
      </trkpt>
      <trkpt lat="47.97501" lon="6.99002">
        <ele>1269</ele>
        <time>2023-05-19T09:52:53Z</time>
      </trkpt>
      <trkpt lat="47.97509" lon="6.98994">
        <ele>1269.3</ele>
        <time>2023-05-19T09:53:01Z</time>
      </trkpt>
      <trkpt lat="47.97513" lon="6.9899">
        <ele>1269.5</ele>
        <time>2023-05-19T09:53:05Z</time>
      </trkpt>
      <trkpt lat="47.97522" lon="6.98981">
        <ele>1269.8</ele>
        <time>2023-05-19T09:53:13Z</time>
      </trkpt>
      <trkpt lat="47.97526" lon="6.98973">
        <ele>1269.9</ele>
        <time>2023-05-19T09:53:23Z</time>
      </trkpt>
      <trkpt lat="47.9753" lon="6.98969">
        <ele>1269.4</ele>
        <time>2023-05-19T09:53:27Z</time>
      </trkpt>
      <trkpt lat="47.97536" lon="6.9896">
        <ele>1267.8</ele>
        <time>2023-05-19T09:53:35Z</time>
      </trkpt>
      <trkpt lat="47.97541" lon="6.98956">
        <ele>1266.7</ele>
        <time>2023-05-19T09:53:40Z</time>
      </trkpt>
      <trkpt lat="47.97548" lon="6.98941">
        <ele>1264</ele>
        <time>2023-05-19T09:53:52Z</time>
      </trkpt>
      <trkpt lat="47.97556" lon="6.98934">
        <ele>1262.2</ele>
        <time>2023-05-19T09:54:02Z</time>
      </trkpt>
      <trkpt lat="47.97567" lon="6.9892">
        <ele>1259.6</ele>
        <time>2023-05-19T09:54:15Z</time>
      </trkpt>
      <trkpt lat="47.97569" lon="6.98913">
        <ele>1258.5</ele>
        <time>2023-05-19T09:54:20Z</time>
      </trkpt>
      <trkpt lat="47.97565" lon="6.98892">
        <ele>1256.1</ele>
        <time>2023-05-19T09:54:33Z</time>
      </trkpt>
      <trkpt lat="47.9755" lon="6.98847">
        <ele>1249.3</ele>
        <time>2023-05-19T09:55:01Z</time>
      </trkpt>
      <trkpt lat="47.97552" lon="6.9884">
        <ele>1248.1</ele>
        <time>2023-05-19T09:55:05Z</time>
      </trkpt>
      <trkpt lat="47.97556" lon="6.98836">
        <ele>1247.4</ele>
        <time>2023-05-19T09:55:09Z</time>
      </trkpt>
      <trkpt lat="47.97559" lon="6.9883">
        <ele>1246.3</ele>
        <time>2023-05-19T09:55:13Z</time>
      </trkpt>
      <trkpt lat="47.97577" lon="6.98805">
        <ele>1242.2</ele>
        <time>2023-05-19T09:55:34Z</time>
      </trkpt>
      <trkpt lat="47.97582" lon="6.98802">
        <ele>1241.7</ele>
        <time>2023-05-19T09:55:38Z</time>
      </trkpt>
      <trkpt lat="47.9759" lon="6.98794">
        <ele>1240.7</ele>
        <time>2023-05-19T09:55:46Z</time>
      </trkpt>
      <trkpt lat="47.97593" lon="6.98789">
        <ele>1240</ele>
        <time>2023-05-19T09:55:50Z</time>
      </trkpt>
      <trkpt lat="47.976" lon="6.9878">
        <ele>1238.7</ele>
        <time>2023-05-19T09:55:59Z</time>
      </trkpt>
      <trkpt lat="47.97604" lon="6.98776">
        <ele>1238</ele>
        <time>2023-05-19T09:56:03Z</time>
      </trkpt>
      <trkpt lat="47.97607" lon="6.98772">
        <ele>1237.5</ele>
        <time>2023-05-19T09:56:07Z</time>
      </trkpt>
      <trkpt lat="47.97614" lon="6.98763">
        <ele>1236.3</ele>
        <time>2023-05-19T09:56:15Z</time>
      </trkpt>
      <trkpt lat="47.97618" lon="6.9876">
        <ele>1235.8</ele>
        <time>2023-05-19T09:56:19Z</time>
      </trkpt>
      <trkpt lat="47.97622" lon="6.98756">
        <ele>1235.3</ele>
        <time>2023-05-19T09:56:23Z</time>
      </trkpt>
      <trkpt lat="47.97631" lon="6.9875">
        <ele>1234.3</ele>
        <time>2023-05-19T09:56:31Z</time>
      </trkpt>
      <trkpt lat="47.9764" lon="6.98745">
        <ele>1233.2</ele>
        <time>2023-05-19T09:56:39Z</time>
      </trkpt>
      <trkpt lat="47.97649" lon="6.9874">
        <ele>1232</ele>
        <time>2023-05-19T09:56:47Z</time>
      </trkpt>
      <trkpt lat="47.97657" lon="6.98734">
        <ele>1230.8</ele>
        <time>2023-05-19T09:56:55Z</time>
      </trkpt>
      <trkpt lat="47.97662" lon="6.98734">
        <ele>1230.5</ele>
        <time>2023-05-19T09:56:58Z</time>
      </trkpt>
      <trkpt lat="47.97667" lon="6.98733">
        <ele>1230.1</ele>
        <time>2023-05-19T09:57:02Z</time>
      </trkpt>
      <trkpt lat="47.97672" lon="6.98732">
        <ele>1229.3</ele>
        <time>2023-05-19T09:57:06Z</time>
      </trkpt>
      <trkpt lat="47.97676" lon="6.98731">
        <ele>1228.6</ele>
        <time>2023-05-19T09:57:10Z</time>
      </trkpt>
      <trkpt lat="47.97686" lon="6.98732">
        <ele>1227.3</ele>
        <time>2023-05-19T09:57:18Z</time>
      </trkpt>
      <trkpt lat="47.9769" lon="6.98733">
        <ele>1226.8</ele>
        <time>2023-05-19T09:57:22Z</time>
      </trkpt>
      <trkpt lat="47.97695" lon="6.98733">
        <ele>1226.1</ele>
        <time>2023-05-19T09:57:26Z</time>
      </trkpt>
      <trkpt lat="47.977" lon="6.98734">
        <ele>1225.5</ele>
        <time>2023-05-19T09:57:30Z</time>
      </trkpt>
      <trkpt lat="47.97703" lon="6.98727">
        <ele>1224.5</ele>
        <time>2023-05-19T09:57:34Z</time>
      </trkpt>
      <trkpt lat="47.97705" lon="6.98721">
        <ele>1223.8</ele>
        <time>2023-05-19T09:57:38Z</time>
      </trkpt>
      <trkpt lat="47.97709" lon="6.98715">
        <ele>1222.9</ele>
        <time>2023-05-19T09:57:42Z</time>
      </trkpt>
      <trkpt lat="47.97713" lon="6.9871">
        <ele>1222.1</ele>
        <time>2023-05-19T09:57:47Z</time>
      </trkpt>
      <trkpt lat="47.97716" lon="6.98704">
        <ele>1221.4</ele>
        <time>2023-05-19T09:57:51Z</time>
      </trkpt>
      <trkpt lat="47.97728" lon="6.98691">
        <ele>1219.3</ele>
        <time>2023-05-19T09:58:05Z</time>
      </trkpt>
      <trkpt lat="47.97732" lon="6.98687">
        <ele>1218.7</ele>
        <time>2023-05-19T09:58:09Z</time>
      </trkpt>
      <trkpt lat="47.97736" lon="6.98683">
        <ele>1218.1</ele>
        <time>2023-05-19T09:58:13Z</time>
      </trkpt>
      <trkpt lat="47.9774" lon="6.98678">
        <ele>1217.5</ele>
        <time>2023-05-19T09:58:17Z</time>
      </trkpt>
      <trkpt lat="47.97744" lon="6.98675">
        <ele>1216.9</ele>
        <time>2023-05-19T09:58:21Z</time>
      </trkpt>
      <trkpt lat="47.97748" lon="6.98671">
        <ele>1216.4</ele>
        <time>2023-05-19T09:58:25Z</time>
      </trkpt>
      <trkpt lat="47.97781" lon="6.98641">
        <ele>1210.7</ele>
        <time>2023-05-19T09:58:56Z</time>
      </trkpt>
      <trkpt lat="47.97794" lon="6.98629">
        <ele>1209.1</ele>
        <time>2023-05-19T09:59:08Z</time>
      </trkpt>
      <trkpt lat="47.97803" lon="6.98622">
        <ele>1208.2</ele>
        <time>2023-05-19T09:59:16Z</time>
      </trkpt>
      <trkpt lat="47.97808" lon="6.98618">
        <ele>1207.7</ele>
        <time>2023-05-19T09:59:20Z</time>
      </trkpt>
      <trkpt lat="47.97826" lon="6.98602">
        <ele>1204.9</ele>
        <time>2023-05-19T09:59:36Z</time>
      </trkpt>
      <trkpt lat="47.9783" lon="6.98598">
        <ele>1204.4</ele>
        <time>2023-05-19T09:59:40Z</time>
      </trkpt>
      <trkpt lat="47.97834" lon="6.98594">
        <ele>1204</ele>
        <time>2023-05-19T09:59:44Z</time>
      </trkpt>
      <trkpt lat="47.97838" lon="6.9859">
        <ele>1203.7</ele>
        <time>2023-05-19T09:59:48Z</time>
      </trkpt>
      <trkpt lat="47.97846" lon="6.98582">
        <ele>1203</ele>
        <time>2023-05-19T09:59:56Z</time>
      </trkpt>
      <trkpt lat="47.9785" lon="6.9858">
        <ele>1202.7</ele>
        <time>2023-05-19T10:00:00Z</time>
      </trkpt>
      <trkpt lat="47.97854" lon="6.98576">
        <ele>1202.2</ele>
        <time>2023-05-19T10:00:04Z</time>
      </trkpt>
      <trkpt lat="47.97863" lon="6.9857">
        <ele>1201.3</ele>
        <time>2023-05-19T10:00:13Z</time>
      </trkpt>
      <trkpt lat="47.97867" lon="6.98565">
        <ele>1200.7</ele>
        <time>2023-05-19T10:00:17Z</time>
      </trkpt>
      <trkpt lat="47.97871" lon="6.9856">
        <ele>1200.1</ele>
        <time>2023-05-19T10:00:21Z</time>
      </trkpt>
      <trkpt lat="47.97875" lon="6.98556">
        <ele>1199.5</ele>
        <time>2023-05-19T10:00:25Z</time>
      </trkpt>
      <trkpt lat="47.97879" lon="6.98552">
        <ele>1198.8</ele>
        <time>2023-05-19T10:00:29Z</time>
      </trkpt>
      <trkpt lat="47.97884" lon="6.98552">
        <ele>1198.3</ele>
        <time>2023-05-19T10:00:33Z</time>
      </trkpt>
      <trkpt lat="47.97889" lon="6.98552">
        <ele>1197.7</ele>
        <time>2023-05-19T10:00:37Z</time>
      </trkpt>
      <trkpt lat="47.97893" lon="6.9855">
        <ele>1197.2</ele>
        <time>2023-05-19T10:00:41Z</time>
      </trkpt>
      <trkpt lat="47.97898" lon="6.98545">
        <ele>1196.5</ele>
        <time>2023-05-19T10:00:45Z</time>
      </trkpt>
      <trkpt lat="47.97902" lon="6.98543">
        <ele>1196.1</ele>
        <time>2023-05-19T10:00:49Z</time>
      </trkpt>
      <trkpt lat="47.97921" lon="6.9853">
        <ele>1194.7</ele>
        <time>2023-05-19T10:01:04Z</time>
      </trkpt>
      <trkpt lat="47.97925" lon="6.98526">
        <ele>1194.3</ele>
        <time>2023-05-19T10:01:08Z</time>
      </trkpt>
      <trkpt lat="47.9793" lon="6.98523">
        <ele>1193.8</ele>
        <time>2023-05-19T10:01:12Z</time>
      </trkpt>
      <trkpt lat="47.97935" lon="6.9852">
        <ele>1193.3</ele>
        <time>2023-05-19T10:01:16Z</time>
      </trkpt>
      <trkpt lat="47.97939" lon="6.98518">
        <ele>1193</ele>
        <time>2023-05-19T10:01:20Z</time>
      </trkpt>
      <trkpt lat="47.97948" lon="6.9851">
        <ele>1192.2</ele>
        <time>2023-05-19T10:01:28Z</time>
      </trkpt>
      <trkpt lat="47.97953" lon="6.98507">
        <ele>1191.9</ele>
        <time>2023-05-19T10:01:32Z</time>
      </trkpt>
      <trkpt lat="47.97958" lon="6.98505">
        <ele>1191.6</ele>
        <time>2023-05-19T10:01:36Z</time>
      </trkpt>
      <trkpt lat="47.97962" lon="6.98503">
        <ele>1191.4</ele>
        <time>2023-05-19T10:01:39Z</time>
      </trkpt>
      <trkpt lat="47.97968" lon="6.985">
        <ele>1191.2</ele>
        <time>2023-05-19T10:01:43Z</time>
      </trkpt>
      <trkpt lat="47.97977" lon="6.98495">
        <ele>1190.9</ele>
        <time>2023-05-19T10:01:50Z</time>
      </trkpt>
      <trkpt lat="47.97982" lon="6.98492">
        <ele>1190.8</ele>
        <time>2023-05-19T10:01:54Z</time>
      </trkpt>
      <trkpt lat="47.97986" lon="6.98488">
        <ele>1190.8</ele>
        <time>2023-05-19T10:01:57Z</time>
      </trkpt>
      <trkpt lat="47.9799" lon="6.98484">
        <ele>1190.8</ele>
        <time>2023-05-19T10:02:01Z</time>
      </trkpt>
      <trkpt lat="47.97994" lon="6.98483">
        <ele>1190.9</ele>
        <time>2023-05-19T10:02:04Z</time>
      </trkpt>
      <trkpt lat="47.97999" lon="6.9848">
        <ele>1191</ele>
        <time>2023-05-19T10:02:08Z</time>
      </trkpt>
      <trkpt lat="47.98007" lon="6.98475">
        <ele>1191.5</ele>
        <time>2023-05-19T10:02:16Z</time>
      </trkpt>
      <trkpt lat="47.98011" lon="6.9847">
        <ele>1191.8</ele>
        <time>2023-05-19T10:02:19Z</time>
      </trkpt>
      <trkpt lat="47.98015" lon="6.98467">
        <ele>1192.2</ele>
        <time>2023-05-19T10:02:23Z</time>
      </trkpt>
      <trkpt lat="47.9802" lon="6.98463">
        <ele>1192.7</ele>
        <time>2023-05-19T10:02:27Z</time>
      </trkpt>
      <trkpt lat="47.98024" lon="6.98461">
        <ele>1193.1</ele>
        <time>2023-05-19T10:02:31Z</time>
      </trkpt>
      <trkpt lat="47.9803" lon="6.98456">
        <ele>1193.8</ele>
        <time>2023-05-19T10:02:37Z</time>
      </trkpt>
      <trkpt lat="47.98039" lon="6.98451">
        <ele>1194.9</ele>
        <time>2023-05-19T10:02:45Z</time>
      </trkpt>
      <trkpt lat="47.98043" lon="6.98447">
        <ele>1195.5</ele>
        <time>2023-05-19T10:02:49Z</time>
      </trkpt>
      <trkpt lat="47.9805" lon="6.98442">
        <ele>1196.4</ele>
        <time>2023-05-19T10:02:56Z</time>
      </trkpt>
      <trkpt lat="47.98054" lon="6.98441">
        <ele>1196.8</ele>
        <time>2023-05-19T10:03:00Z</time>
      </trkpt>
      <trkpt lat="47.98058" lon="6.98438">
        <ele>1197.2</ele>
        <time>2023-05-19T10:03:03Z</time>
      </trkpt>
      <trkpt lat="47.98074" lon="6.98427">
        <ele>1198.7</ele>
        <time>2023-05-19T10:03:19Z</time>
      </trkpt>
      <trkpt lat="47.98083" lon="6.98421">
        <ele>1199.8</ele>
        <time>2023-05-19T10:03:27Z</time>
      </trkpt>
      <trkpt lat="47.98087" lon="6.98418">
        <ele>1200.3</ele>
        <time>2023-05-19T10:03:31Z</time>
      </trkpt>
      <trkpt lat="47.98091" lon="6.98416">
        <ele>1200.9</ele>
        <time>2023-05-19T10:03:35Z</time>
      </trkpt>
      <trkpt lat="47.98096" lon="6.98412">
        <ele>1201.6</ele>
        <time>2023-05-19T10:03:40Z</time>
      </trkpt>
      <trkpt lat="47.981" lon="6.98407">
        <ele>1202.4</ele>
        <time>2023-05-19T10:03:48Z</time>
      </trkpt>
      <trkpt lat="47.98104" lon="6.98405">
        <ele>1203</ele>
        <time>2023-05-19T10:03:52Z</time>
      </trkpt>
      <trkpt lat="47.9811" lon="6.98401">
        <ele>1204</ele>
        <time>2023-05-19T10:03:59Z</time>
      </trkpt>
      <trkpt lat="47.98117" lon="6.98398">
        <ele>1205</ele>
        <time>2023-05-19T10:04:05Z</time>
      </trkpt>
      <trkpt lat="47.98125" lon="6.98394">
        <ele>1206.2</ele>
        <time>2023-05-19T10:04:13Z</time>
      </trkpt>
      <trkpt lat="47.98132" lon="6.98393">
        <ele>1207.1</ele>
        <time>2023-05-19T10:04:45Z</time>
      </trkpt>
      <trkpt lat="47.98136" lon="6.98392">
        <ele>1207.6</ele>
        <time>2023-05-19T10:04:49Z</time>
      </trkpt>
      <trkpt lat="47.98142" lon="6.98391">
        <ele>1208.1</ele>
        <time>2023-05-19T10:04:55Z</time>
      </trkpt>
      <trkpt lat="47.98147" lon="6.98388">
        <ele>1208.6</ele>
        <time>2023-05-19T10:04:59Z</time>
      </trkpt>
      <trkpt lat="47.98153" lon="6.98388">
        <ele>1209</ele>
        <time>2023-05-19T10:05:03Z</time>
      </trkpt>
      <trkpt lat="47.98162" lon="6.98384">
        <ele>1209.8</ele>
        <time>2023-05-19T10:05:11Z</time>
      </trkpt>
      <trkpt lat="47.98173" lon="6.98379">
        <ele>1211</ele>
        <time>2023-05-19T10:05:21Z</time>
      </trkpt>
      <trkpt lat="47.98178" lon="6.98379">
        <ele>1211.6</ele>
        <time>2023-05-19T10:05:25Z</time>
      </trkpt>
      <trkpt lat="47.98187" lon="6.98377">
        <ele>1212.6</ele>
        <time>2023-05-19T10:05:33Z</time>
      </trkpt>
      <trkpt lat="47.98196" lon="6.98374">
        <ele>1213.7</ele>
        <time>2023-05-19T10:05:42Z</time>
      </trkpt>
      <trkpt lat="47.98205" lon="6.98371">
        <ele>1214.8</ele>
        <time>2023-05-19T10:05:50Z</time>
      </trkpt>
      <trkpt lat="47.98211" lon="6.9837">
        <ele>1215.5</ele>
        <time>2023-05-19T10:05:56Z</time>
      </trkpt>
      <trkpt lat="47.98216" lon="6.98368">
        <ele>1216.1</ele>
        <time>2023-05-19T10:06:00Z</time>
      </trkpt>
      <trkpt lat="47.98226" lon="6.98364">
        <ele>1217.2</ele>
        <time>2023-05-19T10:06:08Z</time>
      </trkpt>
      <trkpt lat="47.9823" lon="6.98363">
        <ele>1217.5</ele>
        <time>2023-05-19T10:06:12Z</time>
      </trkpt>
      <trkpt lat="47.98244" lon="6.98356">
        <ele>1218.4</ele>
        <time>2023-05-19T10:06:26Z</time>
      </trkpt>
      <trkpt lat="47.98254" lon="6.9835">
        <ele>1218.7</ele>
        <time>2023-05-19T10:06:34Z</time>
      </trkpt>
      <trkpt lat="47.98259" lon="6.98348">
        <ele>1218.8</ele>
        <time>2023-05-19T10:06:38Z</time>
      </trkpt>
      <trkpt lat="47.98263" lon="6.98344">
        <ele>1219</ele>
        <time>2023-05-19T10:06:42Z</time>
      </trkpt>
      <trkpt lat="47.98267" lon="6.98339">
        <ele>1219.2</ele>
        <time>2023-05-19T10:06:46Z</time>
      </trkpt>
      <trkpt lat="47.98273" lon="6.98338">
        <ele>1219.5</ele>
        <time>2023-05-19T10:06:51Z</time>
      </trkpt>
      <trkpt lat="47.98277" lon="6.98336">
        <ele>1219.9</ele>
        <time>2023-05-19T10:06:55Z</time>
      </trkpt>
      <trkpt lat="47.98289" lon="6.98335">
        <ele>1221.1</ele>
        <time>2023-05-19T10:07:07Z</time>
      </trkpt>
      <trkpt lat="47.98293" lon="6.98339">
        <ele>1221.2</ele>
        <time>2023-05-19T10:07:10Z</time>
      </trkpt>
      <trkpt lat="47.98299" lon="6.98338">
        <ele>1221.9</ele>
        <time>2023-05-19T10:07:15Z</time>
      </trkpt>
      <trkpt lat="47.98305" lon="6.98336">
        <ele>1222.7</ele>
        <time>2023-05-19T10:07:19Z</time>
      </trkpt>
      <trkpt lat="47.9831" lon="6.98332">
        <ele>1223.3</ele>
        <time>2023-05-19T10:07:23Z</time>
      </trkpt>
      <trkpt lat="47.98331" lon="6.98313">
        <ele>1226.1</ele>
        <time>2023-05-19T10:07:45Z</time>
      </trkpt>
      <trkpt lat="47.98333" lon="6.98305">
        <ele>1227</ele>
        <time>2023-05-19T10:07:50Z</time>
      </trkpt>
      <trkpt lat="47.98338" lon="6.98298">
        <ele>1227.4</ele>
        <time>2023-05-19T10:07:56Z</time>
      </trkpt>
      <trkpt lat="47.98342" lon="6.98295">
        <ele>1227.6</ele>
        <time>2023-05-19T10:08:00Z</time>
      </trkpt>
      <trkpt lat="47.98345" lon="6.9829">
        <ele>1227.9</ele>
        <time>2023-05-19T10:08:05Z</time>
      </trkpt>
      <trkpt lat="47.98349" lon="6.98284">
        <ele>1228.4</ele>
        <time>2023-05-19T10:08:09Z</time>
      </trkpt>
      <trkpt lat="47.98356" lon="6.98277">
        <ele>1229</ele>
        <time>2023-05-19T10:08:18Z</time>
      </trkpt>
      <trkpt lat="47.9836" lon="6.98272">
        <ele>1228.8</ele>
        <time>2023-05-19T10:08:22Z</time>
      </trkpt>
      <trkpt lat="47.98362" lon="6.98266">
        <ele>1228.5</ele>
        <time>2023-05-19T10:08:25Z</time>
      </trkpt>
      <trkpt lat="47.98366" lon="6.98261">
        <ele>1228</ele>
        <time>2023-05-19T10:08:35Z</time>
      </trkpt>
      <trkpt lat="47.98362" lon="6.98257">
        <ele>1228.2</ele>
        <time>2023-05-19T10:09:36Z</time>
      </trkpt>
      <trkpt lat="47.98363" lon="6.98257">
        <ele>1228.1</ele>
        <time>2023-05-19T10:13:59Z</time>
      </trkpt>
      <trkpt lat="47.98365" lon="6.98263">
        <ele>1228.1</ele>
        <time>2023-05-19T11:01:53Z</time>
      </trkpt>
      <trkpt lat="47.98366" lon="6.98263">
        <ele>1228</ele>
        <time>2023-05-19T11:01:54Z</time>
      </trkpt>
      <trkpt lat="47.98381" lon="6.98264">
        <ele>1226.7</ele>
        <time>2023-05-19T11:02:13Z</time>
      </trkpt>
      <trkpt lat="47.98386" lon="6.98263">
        <ele>1226.3</ele>
        <time>2023-05-19T11:02:18Z</time>
      </trkpt>
      <trkpt lat="47.9839" lon="6.98262">
        <ele>1225.8</ele>
        <time>2023-05-19T11:02:22Z</time>
      </trkpt>
      <trkpt lat="47.98399" lon="6.98256">
        <ele>1224.5</ele>
        <time>2023-05-19T11:02:30Z</time>
      </trkpt>
      <trkpt lat="47.98403" lon="6.98253">
        <ele>1224</ele>
        <time>2023-05-19T11:02:34Z</time>
      </trkpt>
      <trkpt lat="47.98407" lon="6.9825">
        <ele>1223.4</ele>
        <time>2023-05-19T11:02:38Z</time>
      </trkpt>
      <trkpt lat="47.9841" lon="6.98246">
        <ele>1222.9</ele>
        <time>2023-05-19T11:02:42Z</time>
      </trkpt>
      <trkpt lat="47.98414" lon="6.9824">
        <ele>1222.3</ele>
        <time>2023-05-19T11:02:46Z</time>
      </trkpt>
      <trkpt lat="47.98416" lon="6.98234">
        <ele>1222.1</ele>
        <time>2023-05-19T11:02:50Z</time>
      </trkpt>
      <trkpt lat="47.98417" lon="6.98226">
        <ele>1222</ele>
        <time>2023-05-19T11:02:54Z</time>
      </trkpt>
      <trkpt lat="47.98416" lon="6.98218">
        <ele>1222.2</ele>
        <time>2023-05-19T11:02:58Z</time>
      </trkpt>
      <trkpt lat="47.98414" lon="6.98211">
        <ele>1222.6</ele>
        <time>2023-05-19T11:03:02Z</time>
      </trkpt>
      <trkpt lat="47.98414" lon="6.98204">
        <ele>1222.8</ele>
        <time>2023-05-19T11:03:06Z</time>
      </trkpt>
      <trkpt lat="47.9842" lon="6.98191">
        <ele>1223.1</ele>
        <time>2023-05-19T11:03:14Z</time>
      </trkpt>
      <trkpt lat="47.98424" lon="6.98188">
        <ele>1223.3</ele>
        <time>2023-05-19T11:03:19Z</time>
      </trkpt>
      <trkpt lat="47.98429" lon="6.98184">
        <ele>1223.4</ele>
        <time>2023-05-19T11:03:23Z</time>
      </trkpt>
      <trkpt lat="47.98434" lon="6.98178">
        <ele>1223.6</ele>
        <time>2023-05-19T11:03:30Z</time>
      </trkpt>
      <trkpt lat="47.98438" lon="6.98174">
        <ele>1223.8</ele>
        <time>2023-05-19T11:03:34Z</time>
      </trkpt>
      <trkpt lat="47.98442" lon="6.98171">
        <ele>1223.9</ele>
        <time>2023-05-19T11:03:37Z</time>
      </trkpt>
      <trkpt lat="47.98453" lon="6.98158">
        <ele>1223.7</ele>
        <time>2023-05-19T11:03:47Z</time>
      </trkpt>
      <trkpt lat="47.98457" lon="6.98154">
        <ele>1223.5</ele>
        <time>2023-05-19T11:03:50Z</time>
      </trkpt>
      <trkpt lat="47.98461" lon="6.98149">
        <ele>1223.4</ele>
        <time>2023-05-19T11:03:54Z</time>
      </trkpt>
      <trkpt lat="47.98465" lon="6.98143">
        <ele>1223.1</ele>
        <time>2023-05-19T11:03:58Z</time>
      </trkpt>
      <trkpt lat="47.98478" lon="6.98122">
        <ele>1223</ele>
        <time>2023-05-19T11:04:13Z</time>
      </trkpt>
      <trkpt lat="47.98488" lon="6.98106">
        <ele>1223</ele>
        <time>2023-05-19T11:04:24Z</time>
      </trkpt>
      <trkpt lat="47.98493" lon="6.98101">
        <ele>1223.2</ele>
        <time>2023-05-19T11:04:29Z</time>
      </trkpt>
      <trkpt lat="47.98499" lon="6.98089">
        <ele>1223.7</ele>
        <time>2023-05-19T11:04:37Z</time>
      </trkpt>
      <trkpt lat="47.98506" lon="6.9808">
        <ele>1224.4</ele>
        <time>2023-05-19T11:04:45Z</time>
      </trkpt>
      <trkpt lat="47.98509" lon="6.98074">
        <ele>1224.8</ele>
        <time>2023-05-19T11:04:49Z</time>
      </trkpt>
      <trkpt lat="47.98514" lon="6.98062">
        <ele>1225.7</ele>
        <time>2023-05-19T11:04:57Z</time>
      </trkpt>
      <trkpt lat="47.98525" lon="6.98054">
        <ele>1226.9</ele>
        <time>2023-05-19T11:05:08Z</time>
      </trkpt>
      <trkpt lat="47.98527" lon="6.98048">
        <ele>1227.5</ele>
        <time>2023-05-19T11:05:12Z</time>
      </trkpt>
      <trkpt lat="47.9853" lon="6.98043">
        <ele>1228.1</ele>
        <time>2023-05-19T11:05:17Z</time>
      </trkpt>
      <trkpt lat="47.98539" lon="6.98032">
        <ele>1229.9</ele>
        <time>2023-05-19T11:05:30Z</time>
      </trkpt>
      <trkpt lat="47.98555" lon="6.98023">
        <ele>1231.6</ele>
        <time>2023-05-19T11:05:47Z</time>
      </trkpt>
      <trkpt lat="47.9856" lon="6.98024">
        <ele>1231.6</ele>
        <time>2023-05-19T11:05:51Z</time>
      </trkpt>
      <trkpt lat="47.98567" lon="6.98023">
        <ele>1231.3</ele>
        <time>2023-05-19T11:05:57Z</time>
      </trkpt>
      <trkpt lat="47.98597" lon="6.98019">
        <ele>1231.2</ele>
        <time>2023-05-19T11:06:21Z</time>
      </trkpt>
      <trkpt lat="47.98635" lon="6.98009">
        <ele>1233.6</ele>
        <time>2023-05-19T11:06:54Z</time>
      </trkpt>
      <trkpt lat="47.98642" lon="6.98009">
        <ele>1234.4</ele>
        <time>2023-05-19T11:07:02Z</time>
      </trkpt>
      <trkpt lat="47.98657" lon="6.98006">
        <ele>1236.5</ele>
        <time>2023-05-19T11:07:18Z</time>
      </trkpt>
      <trkpt lat="47.98663" lon="6.98004">
        <ele>1237.3</ele>
        <time>2023-05-19T11:07:23Z</time>
      </trkpt>
      <trkpt lat="47.9867" lon="6.97996">
        <ele>1237.2</ele>
        <time>2023-05-19T11:07:31Z</time>
      </trkpt>
      <trkpt lat="47.98674" lon="6.97994">
        <ele>1236.7</ele>
        <time>2023-05-19T11:07:35Z</time>
      </trkpt>
      <trkpt lat="47.9868" lon="6.97995">
        <ele>1236.7</ele>
        <time>2023-05-19T11:07:39Z</time>
      </trkpt>
      <trkpt lat="47.98683" lon="6.98">
        <ele>1237.4</ele>
        <time>2023-05-19T11:07:43Z</time>
      </trkpt>
      <trkpt lat="47.98688" lon="6.97998">
        <ele>1236.9</ele>
        <time>2023-05-19T11:07:48Z</time>
      </trkpt>
      <trkpt lat="47.98693" lon="6.98001">
        <ele>1237.1</ele>
        <time>2023-05-19T11:07:53Z</time>
      </trkpt>
      <trkpt lat="47.98697" lon="6.98">
        <ele>1237</ele>
        <time>2023-05-19T11:07:57Z</time>
      </trkpt>
      <trkpt lat="47.98702" lon="6.98004">
        <ele>1237</ele>
        <time>2023-05-19T11:08:01Z</time>
      </trkpt>
      <trkpt lat="47.98712" lon="6.98006">
        <ele>1237.1</ele>
        <time>2023-05-19T11:08:09Z</time>
      </trkpt>
      <trkpt lat="47.98722" lon="6.98008">
        <ele>1237.3</ele>
        <time>2023-05-19T11:08:17Z</time>
      </trkpt>
      <trkpt lat="47.98736" lon="6.9801">
        <ele>1238</ele>
        <time>2023-05-19T11:08:27Z</time>
      </trkpt>
      <trkpt lat="47.98746" lon="6.98009">
        <ele>1238.5</ele>
        <time>2023-05-19T11:08:35Z</time>
      </trkpt>
      <trkpt lat="47.98751" lon="6.9801">
        <ele>1238.8</ele>
        <time>2023-05-19T11:08:39Z</time>
      </trkpt>
      <trkpt lat="47.98759" lon="6.98016">
        <ele>1240.1</ele>
        <time>2023-05-19T11:08:47Z</time>
      </trkpt>
      <trkpt lat="47.98768" lon="6.98023">
        <ele>1241.2</ele>
        <time>2023-05-19T11:08:56Z</time>
      </trkpt>
      <trkpt lat="47.98777" lon="6.98025">
        <ele>1241.9</ele>
        <time>2023-05-19T11:09:04Z</time>
      </trkpt>
      <trkpt lat="47.98782" lon="6.98027">
        <ele>1242.5</ele>
        <time>2023-05-19T11:09:08Z</time>
      </trkpt>
      <trkpt lat="47.98802" lon="6.98035">
        <ele>1244.6</ele>
        <time>2023-05-19T11:09:29Z</time>
      </trkpt>
      <trkpt lat="47.98811" lon="6.98037">
        <ele>1245.5</ele>
        <time>2023-05-19T11:09:37Z</time>
      </trkpt>
      <trkpt lat="47.9882" lon="6.98041">
        <ele>1246.1</ele>
        <time>2023-05-19T11:09:45Z</time>
      </trkpt>
      <trkpt lat="47.98825" lon="6.98041">
        <ele>1246.4</ele>
        <time>2023-05-19T11:09:48Z</time>
      </trkpt>
      <trkpt lat="47.98833" lon="6.98043">
        <ele>1246.9</ele>
        <time>2023-05-19T11:09:56Z</time>
      </trkpt>
      <trkpt lat="47.98862" lon="6.98048">
        <ele>1245.7</ele>
        <time>2023-05-19T11:10:20Z</time>
      </trkpt>
      <trkpt lat="47.98872" lon="6.98048">
        <ele>1245.4</ele>
        <time>2023-05-19T11:10:27Z</time>
      </trkpt>
      <trkpt lat="47.98887" lon="6.98049">
        <ele>1245.1</ele>
        <time>2023-05-19T11:10:39Z</time>
      </trkpt>
      <trkpt lat="47.98918" lon="6.98053">
        <ele>1248</ele>
        <time>2023-05-19T11:11:09Z</time>
      </trkpt>
      <trkpt lat="47.98923" lon="6.98055">
        <ele>1247.8</ele>
        <time>2023-05-19T11:11:13Z</time>
      </trkpt>
      <trkpt lat="47.98928" lon="6.98055">
        <ele>1247.6</ele>
        <time>2023-05-19T11:11:17Z</time>
      </trkpt>
      <trkpt lat="47.98933" lon="6.98057">
        <ele>1247.4</ele>
        <time>2023-05-19T11:11:21Z</time>
      </trkpt>
      <trkpt lat="47.98938" lon="6.98057">
        <ele>1247.2</ele>
        <time>2023-05-19T11:11:25Z</time>
      </trkpt>
      <trkpt lat="47.98943" lon="6.98057">
        <ele>1247</ele>
        <time>2023-05-19T11:11:28Z</time>
      </trkpt>
      <trkpt lat="47.98953" lon="6.98058">
        <ele>1247.2</ele>
        <time>2023-05-19T11:11:37Z</time>
      </trkpt>
      <trkpt lat="47.98976" lon="6.9806">
        <ele>1248.5</ele>
        <time>2023-05-19T11:11:56Z</time>
      </trkpt>
      <trkpt lat="47.99014" lon="6.98064">
        <ele>1251.8</ele>
        <time>2023-05-19T11:12:29Z</time>
      </trkpt>
      <trkpt lat="47.99028" lon="6.98067">
        <ele>1252</ele>
        <time>2023-05-19T11:12:40Z</time>
      </trkpt>
      <trkpt lat="47.99033" lon="6.98068">
        <ele>1252.5</ele>
        <time>2023-05-19T11:12:44Z</time>
      </trkpt>
      <trkpt lat="47.99038" lon="6.98069">
        <ele>1252.9</ele>
        <time>2023-05-19T11:12:47Z</time>
      </trkpt>
      <trkpt lat="47.99063" lon="6.98074">
        <ele>1255.5</ele>
        <time>2023-05-19T11:13:12Z</time>
      </trkpt>
      <trkpt lat="47.99068" lon="6.98075">
        <ele>1256</ele>
        <time>2023-05-19T11:13:17Z</time>
      </trkpt>
      <trkpt lat="47.99087" lon="6.9808">
        <ele>1258.3</ele>
        <time>2023-05-19T11:13:32Z</time>
      </trkpt>
      <trkpt lat="47.99092" lon="6.98081">
        <ele>1258.9</ele>
        <time>2023-05-19T11:13:36Z</time>
      </trkpt>
      <trkpt lat="47.99098" lon="6.98084">
        <ele>1259.6</ele>
        <time>2023-05-19T11:13:44Z</time>
      </trkpt>
      <trkpt lat="47.99102" lon="6.98085">
        <ele>1260</ele>
        <time>2023-05-19T11:13:48Z</time>
      </trkpt>
      <trkpt lat="47.99112" lon="6.98087">
        <ele>1261</ele>
        <time>2023-05-19T11:13:57Z</time>
      </trkpt>
      <trkpt lat="47.99117" lon="6.98087">
        <ele>1261.5</ele>
        <time>2023-05-19T11:14:02Z</time>
      </trkpt>
      <trkpt lat="47.99123" lon="6.98086">
        <ele>1262.2</ele>
        <time>2023-05-19T11:14:06Z</time>
      </trkpt>
      <trkpt lat="47.9913" lon="6.98087">
        <ele>1262.9</ele>
        <time>2023-05-19T11:14:13Z</time>
      </trkpt>
      <trkpt lat="47.99144" lon="6.9809">
        <ele>1264.7</ele>
        <time>2023-05-19T11:14:26Z</time>
      </trkpt>
      <trkpt lat="47.99153" lon="6.9809">
        <ele>1266.3</ele>
        <time>2023-05-19T11:14:33Z</time>
      </trkpt>
      <trkpt lat="47.99184" lon="6.98084">
        <ele>1272.7</ele>
        <time>2023-05-19T11:15:05Z</time>
      </trkpt>
      <trkpt lat="47.99192" lon="6.98083">
        <ele>1274.5</ele>
        <time>2023-05-19T11:15:14Z</time>
      </trkpt>
      <trkpt lat="47.99198" lon="6.98082">
        <ele>1275.8</ele>
        <time>2023-05-19T11:15:22Z</time>
      </trkpt>
      <trkpt lat="47.99203" lon="6.98081">
        <ele>1277.1</ele>
        <time>2023-05-19T11:15:28Z</time>
      </trkpt>
      <trkpt lat="47.99207" lon="6.98081">
        <ele>1278.1</ele>
        <time>2023-05-19T11:15:34Z</time>
      </trkpt>
      <trkpt lat="47.99218" lon="6.98079">
        <ele>1280.8</ele>
        <time>2023-05-19T11:15:51Z</time>
      </trkpt>
      <trkpt lat="47.99227" lon="6.98081">
        <ele>1282.6</ele>
        <time>2023-05-19T11:16:04Z</time>
      </trkpt>
      <trkpt lat="47.99235" lon="6.98079">
        <ele>1283.8</ele>
        <time>2023-05-19T11:16:14Z</time>
      </trkpt>
      <trkpt lat="47.99245" lon="6.98075">
        <ele>1285.2</ele>
        <time>2023-05-19T11:16:24Z</time>
      </trkpt>
      <trkpt lat="47.99256" lon="6.98073">
        <ele>1287</ele>
        <time>2023-05-19T11:16:36Z</time>
      </trkpt>
      <trkpt lat="47.99261" lon="6.98075">
        <ele>1287.9</ele>
        <time>2023-05-19T11:16:40Z</time>
      </trkpt>
      <trkpt lat="47.99265" lon="6.98076">
        <ele>1288.6</ele>
        <time>2023-05-19T11:16:45Z</time>
      </trkpt>
      <trkpt lat="47.99282" lon="6.98072">
        <ele>1291</ele>
        <time>2023-05-19T11:17:05Z</time>
      </trkpt>
      <trkpt lat="47.99287" lon="6.98072">
        <ele>1291.6</ele>
        <time>2023-05-19T11:17:09Z</time>
      </trkpt>
      <trkpt lat="47.99293" lon="6.98072">
        <ele>1292.2</ele>
        <time>2023-05-19T11:17:14Z</time>
      </trkpt>
      <trkpt lat="47.99297" lon="6.98069">
        <ele>1292.6</ele>
        <time>2023-05-19T11:17:19Z</time>
      </trkpt>
      <trkpt lat="47.99301" lon="6.9807">
        <ele>1293</ele>
        <time>2023-05-19T11:17:23Z</time>
      </trkpt>
      <trkpt lat="47.99306" lon="6.98072">
        <ele>1293.7</ele>
        <time>2023-05-19T11:17:28Z</time>
      </trkpt>
      <trkpt lat="47.99316" lon="6.98069">
        <ele>1295.2</ele>
        <time>2023-05-19T11:17:38Z</time>
      </trkpt>
      <trkpt lat="47.99335" lon="6.98068">
        <ele>1298.3</ele>
        <time>2023-05-19T11:18:01Z</time>
      </trkpt>
      <trkpt lat="47.99349" lon="6.98063">
        <ele>1301.5</ele>
        <time>2023-05-19T11:18:17Z</time>
      </trkpt>
      <trkpt lat="47.99354" lon="6.98059">
        <ele>1302.9</ele>
        <time>2023-05-19T11:18:24Z</time>
      </trkpt>
      <trkpt lat="47.99363" lon="6.98058">
        <ele>1305.1</ele>
        <time>2023-05-19T11:18:38Z</time>
      </trkpt>
      <trkpt lat="47.99368" lon="6.98053">
        <ele>1306.3</ele>
        <time>2023-05-19T11:18:49Z</time>
      </trkpt>
      <trkpt lat="47.99374" lon="6.98052">
        <ele>1307.5</ele>
        <time>2023-05-19T11:19:02Z</time>
      </trkpt>
      <trkpt lat="47.99379" lon="6.98049">
        <ele>1308.4</ele>
        <time>2023-05-19T11:19:20Z</time>
      </trkpt>
      <trkpt lat="47.99409" lon="6.98056">
        <ele>1309.5</ele>
        <time>2023-05-19T11:21:53Z</time>
      </trkpt>
      <trkpt lat="47.99417" lon="6.98062">
        <ele>1308.7</ele>
        <time>2023-05-19T11:22:04Z</time>
      </trkpt>
      <trkpt lat="47.99422" lon="6.9806">
        <ele>1307.3</ele>
        <time>2023-05-19T11:22:09Z</time>
      </trkpt>
      <trkpt lat="47.99428" lon="6.98059">
        <ele>1305.6</ele>
        <time>2023-05-19T11:22:18Z</time>
      </trkpt>
      <trkpt lat="47.99432" lon="6.98063">
        <ele>1304.3</ele>
        <time>2023-05-19T11:22:23Z</time>
      </trkpt>
      <trkpt lat="47.99442" lon="6.98066">
        <ele>1301.3</ele>
        <time>2023-05-19T11:22:37Z</time>
      </trkpt>
      <trkpt lat="47.99452" lon="6.98067">
        <ele>1298.7</ele>
        <time>2023-05-19T11:22:49Z</time>
      </trkpt>
      <trkpt lat="47.99456" lon="6.98066">
        <ele>1297.7</ele>
        <time>2023-05-19T11:22:54Z</time>
      </trkpt>
      <trkpt lat="47.99461" lon="6.98066">
        <ele>1296.5</ele>
        <time>2023-05-19T11:22:59Z</time>
      </trkpt>
      <trkpt lat="47.99488" lon="6.98074">
        <ele>1291.8</ele>
        <time>2023-05-19T11:23:21Z</time>
      </trkpt>
      <trkpt lat="47.99492" lon="6.98075">
        <ele>1291.4</ele>
        <time>2023-05-19T11:23:24Z</time>
      </trkpt>
      <trkpt lat="47.99513" lon="6.9808">
        <ele>1289.5</ele>
        <time>2023-05-19T11:23:39Z</time>
      </trkpt>
      <trkpt lat="47.99518" lon="6.98081">
        <ele>1289</ele>
        <time>2023-05-19T11:23:43Z</time>
      </trkpt>
      <trkpt lat="47.99528" lon="6.98082">
        <ele>1287.9</ele>
        <time>2023-05-19T11:23:50Z</time>
      </trkpt>
      <trkpt lat="47.9954" lon="6.98086">
        <ele>1287.1</ele>
        <time>2023-05-19T11:24:00Z</time>
      </trkpt>
      <trkpt lat="47.99555" lon="6.98087">
        <ele>1286</ele>
        <time>2023-05-19T11:24:13Z</time>
      </trkpt>
      <trkpt lat="47.9956" lon="6.98087">
        <ele>1285.4</ele>
        <time>2023-05-19T11:24:17Z</time>
      </trkpt>
      <trkpt lat="47.99565" lon="6.98088">
        <ele>1284.6</ele>
        <time>2023-05-19T11:24:21Z</time>
      </trkpt>
      <trkpt lat="47.99589" lon="6.98081">
        <ele>1281.6</ele>
        <time>2023-05-19T11:24:40Z</time>
      </trkpt>
      <trkpt lat="47.99593" lon="6.98078">
        <ele>1281.3</ele>
        <time>2023-05-19T11:24:44Z</time>
      </trkpt>
      <trkpt lat="47.99598" lon="6.98078">
        <ele>1280.9</ele>
        <time>2023-05-19T11:24:48Z</time>
      </trkpt>
      <trkpt lat="47.99603" lon="6.98077">
        <ele>1280.6</ele>
        <time>2023-05-19T11:24:51Z</time>
      </trkpt>
      <trkpt lat="47.99607" lon="6.98074">
        <ele>1280.3</ele>
        <time>2023-05-19T11:24:55Z</time>
      </trkpt>
      <trkpt lat="47.99628" lon="6.98065">
        <ele>1280</ele>
        <time>2023-05-19T11:25:10Z</time>
      </trkpt>
      <trkpt lat="47.99633" lon="6.98061">
        <ele>1280</ele>
        <time>2023-05-19T11:25:14Z</time>
      </trkpt>
      <trkpt lat="47.99637" lon="6.98061">
        <ele>1280</ele>
        <time>2023-05-19T11:25:17Z</time>
      </trkpt>
      <trkpt lat="47.99642" lon="6.98059">
        <ele>1280</ele>
        <time>2023-05-19T11:25:21Z</time>
      </trkpt>
      <trkpt lat="47.99647" lon="6.98058">
        <ele>1280</ele>
        <time>2023-05-19T11:25:25Z</time>
      </trkpt>
      <trkpt lat="47.99657" lon="6.98057">
        <ele>1280</ele>
        <time>2023-05-19T11:25:32Z</time>
      </trkpt>
      <trkpt lat="47.99661" lon="6.98054">
        <ele>1280</ele>
        <time>2023-05-19T11:25:35Z</time>
      </trkpt>
      <trkpt lat="47.99666" lon="6.98051">
        <ele>1280</ele>
        <time>2023-05-19T11:25:40Z</time>
      </trkpt>
      <trkpt lat="47.99681" lon="6.98048">
        <ele>1281</ele>
        <time>2023-05-19T11:25:51Z</time>
      </trkpt>
      <trkpt lat="47.99686" lon="6.98047">
        <ele>1281.4</ele>
        <time>2023-05-19T11:25:55Z</time>
      </trkpt>
      <trkpt lat="47.99709" lon="6.98036">
        <ele>1283.6</ele>
        <time>2023-05-19T11:26:12Z</time>
      </trkpt>
      <trkpt lat="47.99723" lon="6.98034">
        <ele>1285.1</ele>
        <time>2023-05-19T11:26:25Z</time>
      </trkpt>
      <trkpt lat="47.99727" lon="6.9803">
        <ele>1285.3</ele>
        <time>2023-05-19T11:26:29Z</time>
      </trkpt>
      <trkpt lat="47.99738" lon="6.98026">
        <ele>1286.1</ele>
        <time>2023-05-19T11:26:37Z</time>
      </trkpt>
      <trkpt lat="47.99743" lon="6.98026">
        <ele>1286.5</ele>
        <time>2023-05-19T11:26:41Z</time>
      </trkpt>
      <trkpt lat="47.99752" lon="6.98022">
        <ele>1287.2</ele>
        <time>2023-05-19T11:26:49Z</time>
      </trkpt>
      <trkpt lat="47.99777" lon="6.98017">
        <ele>1289.9</ele>
        <time>2023-05-19T11:27:10Z</time>
      </trkpt>
      <trkpt lat="47.99787" lon="6.98011">
        <ele>1290.8</ele>
        <time>2023-05-19T11:27:18Z</time>
      </trkpt>
      <trkpt lat="47.99792" lon="6.98012">
        <ele>1291.2</ele>
        <time>2023-05-19T11:27:22Z</time>
      </trkpt>
      <trkpt lat="47.99797" lon="6.98009">
        <ele>1291.6</ele>
        <time>2023-05-19T11:27:26Z</time>
      </trkpt>
      <trkpt lat="47.99802" lon="6.9801">
        <ele>1292.1</ele>
        <time>2023-05-19T11:27:30Z</time>
      </trkpt>
      <trkpt lat="47.99806" lon="6.98012">
        <ele>1292.4</ele>
        <time>2023-05-19T11:27:34Z</time>
      </trkpt>
      <trkpt lat="47.99817" lon="6.98012">
        <ele>1292.8</ele>
        <time>2023-05-19T11:27:42Z</time>
      </trkpt>
      <trkpt lat="47.99821" lon="6.98013">
        <ele>1293</ele>
        <time>2023-05-19T11:27:46Z</time>
      </trkpt>
      <trkpt lat="47.99829" lon="6.98016">
        <ele>1293.4</ele>
        <time>2023-05-19T11:27:53Z</time>
      </trkpt>
      <trkpt lat="47.99834" lon="6.98016">
        <ele>1293.6</ele>
        <time>2023-05-19T11:27:56Z</time>
      </trkpt>
      <trkpt lat="47.99839" lon="6.98017">
        <ele>1293.9</ele>
        <time>2023-05-19T11:28:00Z</time>
      </trkpt>
      <trkpt lat="47.99849" lon="6.98019">
        <ele>1294.4</ele>
        <time>2023-05-19T11:28:07Z</time>
      </trkpt>
      <trkpt lat="47.99854" lon="6.98019">
        <ele>1294.7</ele>
        <time>2023-05-19T11:28:11Z</time>
      </trkpt>
      <trkpt lat="47.99864" lon="6.98021">
        <ele>1295.4</ele>
        <time>2023-05-19T11:28:21Z</time>
      </trkpt>
      <trkpt lat="47.99869" lon="6.98022">
        <ele>1296.2</ele>
        <time>2023-05-19T11:28:25Z</time>
      </trkpt>
      <trkpt lat="47.99873" lon="6.98021">
        <ele>1296.8</ele>
        <time>2023-05-19T11:28:29Z</time>
      </trkpt>
      <trkpt lat="47.9988" lon="6.98025">
        <ele>1297.8</ele>
        <time>2023-05-19T11:28:35Z</time>
      </trkpt>
      <trkpt lat="47.99885" lon="6.98027">
        <ele>1298.5</ele>
        <time>2023-05-19T11:28:41Z</time>
      </trkpt>
      <trkpt lat="47.99896" lon="6.98024">
        <ele>1300.4</ele>
        <time>2023-05-19T11:28:52Z</time>
      </trkpt>
      <trkpt lat="47.99919" lon="6.98029">
        <ele>1303.8</ele>
        <time>2023-05-19T11:29:14Z</time>
      </trkpt>
      <trkpt lat="47.99929" lon="6.98029">
        <ele>1303.9</ele>
        <time>2023-05-19T11:29:22Z</time>
      </trkpt>
      <trkpt lat="47.99941" lon="6.9803">
        <ele>1303.9</ele>
        <time>2023-05-19T11:29:32Z</time>
      </trkpt>
      <trkpt lat="47.99946" lon="6.9803">
        <ele>1303.9</ele>
        <time>2023-05-19T11:29:36Z</time>
      </trkpt>
      <trkpt lat="47.99951" lon="6.98029">
        <ele>1304</ele>
        <time>2023-05-19T11:29:40Z</time>
      </trkpt>
      <trkpt lat="47.99956" lon="6.98029">
        <ele>1304</ele>
        <time>2023-05-19T11:29:44Z</time>
      </trkpt>
      <trkpt lat="47.99959" lon="6.98034">
        <ele>1303.8</ele>
        <time>2023-05-19T11:29:48Z</time>
      </trkpt>
      <trkpt lat="47.99969" lon="6.98039">
        <ele>1303.6</ele>
        <time>2023-05-19T11:29:56Z</time>
      </trkpt>
      <trkpt lat="47.99974" lon="6.98043">
        <ele>1303.4</ele>
        <time>2023-05-19T11:30:00Z</time>
      </trkpt>
      <trkpt lat="47.99979" lon="6.98043">
        <ele>1303.3</ele>
        <time>2023-05-19T11:30:04Z</time>
      </trkpt>
      <trkpt lat="47.99989" lon="6.98051">
        <ele>1303.1</ele>
        <time>2023-05-19T11:30:12Z</time>
      </trkpt>
      <trkpt lat="47.99998" lon="6.98056">
        <ele>1303</ele>
        <time>2023-05-19T11:30:19Z</time>
      </trkpt>
      <trkpt lat="48.00003" lon="6.98059">
        <ele>1303</ele>
        <time>2023-05-19T11:30:23Z</time>
      </trkpt>
      <trkpt lat="48.00008" lon="6.9806">
        <ele>1303.3</ele>
        <time>2023-05-19T11:30:28Z</time>
      </trkpt>
      <trkpt lat="48.00012" lon="6.98062">
        <ele>1303.5</ele>
        <time>2023-05-19T11:30:31Z</time>
      </trkpt>
      <trkpt lat="48.00017" lon="6.98064">
        <ele>1303.8</ele>
        <time>2023-05-19T11:30:35Z</time>
      </trkpt>
      <trkpt lat="48.00021" lon="6.98068">
        <ele>1304</ele>
        <time>2023-05-19T11:30:39Z</time>
      </trkpt>
      <trkpt lat="48.00026" lon="6.9807">
        <ele>1304.3</ele>
        <time>2023-05-19T11:30:43Z</time>
      </trkpt>
      <trkpt lat="48.0003" lon="6.98074">
        <ele>1304.6</ele>
        <time>2023-05-19T11:30:47Z</time>
      </trkpt>
      <trkpt lat="48.00042" lon="6.98079">
        <ele>1306</ele>
        <time>2023-05-19T11:30:58Z</time>
      </trkpt>
      <trkpt lat="48.00046" lon="6.98081">
        <ele>1306.5</ele>
        <time>2023-05-19T11:31:02Z</time>
      </trkpt>
      <trkpt lat="48.00051" lon="6.98082">
        <ele>1307.3</ele>
        <time>2023-05-19T11:31:06Z</time>
      </trkpt>
      <trkpt lat="48.00055" lon="6.98086">
        <ele>1307.9</ele>
        <time>2023-05-19T11:31:14Z</time>
      </trkpt>
      <trkpt lat="48.00061" lon="6.98086">
        <ele>1308.6</ele>
        <time>2023-05-19T11:31:19Z</time>
      </trkpt>
      <trkpt lat="48.00065" lon="6.98086">
        <ele>1309.1</ele>
        <time>2023-05-19T11:31:23Z</time>
      </trkpt>
      <trkpt lat="48.00071" lon="6.98092">
        <ele>1310</ele>
        <time>2023-05-19T11:31:32Z</time>
      </trkpt>
      <trkpt lat="48.00075" lon="6.98093">
        <ele>1310.6</ele>
        <time>2023-05-19T11:31:37Z</time>
      </trkpt>
      <trkpt lat="48.001" lon="6.98062">
        <ele>1302.3</ele>
        <time>2023-05-19T11:34:10Z</time>
      </trkpt>
      <trkpt lat="48.001" lon="6.98061">
        <ele>1302.1</ele>
        <time>2023-05-19T11:34:11Z</time>
      </trkpt>
      <trkpt lat="48.00099" lon="6.98048">
        <ele>1299.8</ele>
        <time>2023-05-19T11:34:24Z</time>
      </trkpt>
      <trkpt lat="48.00103" lon="6.98038">
        <ele>1297.3</ele>
        <time>2023-05-19T11:34:38Z</time>
      </trkpt>
      <trkpt lat="48.00111" lon="6.98035">
        <ele>1295.3</ele>
        <time>2023-05-19T11:34:48Z</time>
      </trkpt>
      <trkpt lat="48.00115" lon="6.98035">
        <ele>1294</ele>
        <time>2023-05-19T11:34:53Z</time>
      </trkpt>
      <trkpt lat="48.00118" lon="6.98028">
        <ele>1292</ele>
        <time>2023-05-19T11:34:59Z</time>
      </trkpt>
      <trkpt lat="48.00121" lon="6.98013">
        <ele>1289.8</ele>
        <time>2023-05-19T11:35:11Z</time>
      </trkpt>
      <trkpt lat="48.00133" lon="6.97983">
        <ele>1286.2</ele>
        <time>2023-05-19T11:35:32Z</time>
      </trkpt>
      <trkpt lat="48.00135" lon="6.97972">
        <ele>1285.5</ele>
        <time>2023-05-19T11:35:40Z</time>
      </trkpt>
      <trkpt lat="48.0014" lon="6.97972">
        <ele>1284.8</ele>
        <time>2023-05-19T11:35:44Z</time>
      </trkpt>
      <trkpt lat="48.00152" lon="6.97971">
        <ele>1282.6</ele>
        <time>2023-05-19T11:35:56Z</time>
      </trkpt>
      <trkpt lat="48.00157" lon="6.97969">
        <ele>1281.6</ele>
        <time>2023-05-19T11:36:03Z</time>
      </trkpt>
      <trkpt lat="48.00163" lon="6.97966">
        <ele>1280.4</ele>
        <time>2023-05-19T11:36:10Z</time>
      </trkpt>
      <trkpt lat="48.00168" lon="6.97967">
        <ele>1279.5</ele>
        <time>2023-05-19T11:36:15Z</time>
      </trkpt>
      <trkpt lat="48.00178" lon="6.97967">
        <ele>1277.4</ele>
        <time>2023-05-19T11:36:23Z</time>
      </trkpt>
      <trkpt lat="48.00195" lon="6.97967">
        <ele>1273.9</ele>
        <time>2023-05-19T11:36:41Z</time>
      </trkpt>
      <trkpt lat="48.00206" lon="6.97969">
        <ele>1271.5</ele>
        <time>2023-05-19T11:36:52Z</time>
      </trkpt>
      <trkpt lat="48.0021" lon="6.97969">
        <ele>1270.6</ele>
        <time>2023-05-19T11:36:56Z</time>
      </trkpt>
      <trkpt lat="48.00224" lon="6.97974">
        <ele>1267.5</ele>
        <time>2023-05-19T11:37:09Z</time>
      </trkpt>
      <trkpt lat="48.00233" lon="6.97974">
        <ele>1265.5</ele>
        <time>2023-05-19T11:37:18Z</time>
      </trkpt>
      <trkpt lat="48.00238" lon="6.97975">
        <ele>1264.4</ele>
        <time>2023-05-19T11:37:22Z</time>
      </trkpt>
      <trkpt lat="48.00257" lon="6.97975">
        <ele>1260.3</ele>
        <time>2023-05-19T11:37:37Z</time>
      </trkpt>
      <trkpt lat="48.00276" lon="6.97982">
        <ele>1255.7</ele>
        <time>2023-05-19T11:37:57Z</time>
      </trkpt>
      <trkpt lat="48.00281" lon="6.97982">
        <ele>1254.6</ele>
        <time>2023-05-19T11:38:01Z</time>
      </trkpt>
      <trkpt lat="48.00292" lon="6.97988">
        <ele>1251.9</ele>
        <time>2023-05-19T11:38:14Z</time>
      </trkpt>
      <trkpt lat="48.00297" lon="6.97987">
        <ele>1250.8</ele>
        <time>2023-05-19T11:38:18Z</time>
      </trkpt>
      <trkpt lat="48.00302" lon="6.97989">
        <ele>1249.7</ele>
        <time>2023-05-19T11:38:23Z</time>
      </trkpt>
      <trkpt lat="48.00325" lon="6.97988">
        <ele>1243.8</ele>
        <time>2023-05-19T11:38:48Z</time>
      </trkpt>
      <trkpt lat="48.00329" lon="6.97989">
        <ele>1242.8</ele>
        <time>2023-05-19T11:38:54Z</time>
      </trkpt>
      <trkpt lat="48.00333" lon="6.97993">
        <ele>1241.8</ele>
        <time>2023-05-19T11:39:00Z</time>
      </trkpt>
      <trkpt lat="48.0034" lon="6.97995">
        <ele>1239.9</ele>
        <time>2023-05-19T11:39:07Z</time>
      </trkpt>
      <trkpt lat="48.00344" lon="6.97991">
        <ele>1238.6</ele>
        <time>2023-05-19T11:39:11Z</time>
      </trkpt>
      <trkpt lat="48.00362" lon="6.97994">
        <ele>1233.6</ele>
        <time>2023-05-19T11:39:30Z</time>
      </trkpt>
      <trkpt lat="48.00367" lon="6.97994">
        <ele>1232.3</ele>
        <time>2023-05-19T11:39:34Z</time>
      </trkpt>
      <trkpt lat="48.00372" lon="6.97992">
        <ele>1231</ele>
        <time>2023-05-19T11:39:41Z</time>
      </trkpt>
      <trkpt lat="48.00384" lon="6.97999">
        <ele>1228.2</ele>
        <time>2023-05-19T11:39:52Z</time>
      </trkpt>
      <trkpt lat="48.00423" lon="6.98">
        <ele>1219.9</ele>
        <time>2023-05-19T11:40:24Z</time>
      </trkpt>
      <trkpt lat="48.00458" lon="6.98002">
        <ele>1213.5</ele>
        <time>2023-05-19T11:40:57Z</time>
      </trkpt>
      <trkpt lat="48.00469" lon="6.98003">
        <ele>1211.6</ele>
        <time>2023-05-19T11:41:06Z</time>
      </trkpt>
      <trkpt lat="48.00479" lon="6.98005">
        <ele>1210</ele>
        <time>2023-05-19T11:41:14Z</time>
      </trkpt>
      <trkpt lat="48.00494" lon="6.98006">
        <ele>1207.9</ele>
        <time>2023-05-19T11:41:26Z</time>
      </trkpt>
      <trkpt lat="48.00504" lon="6.98003">
        <ele>1206.6</ele>
        <time>2023-05-19T11:41:34Z</time>
      </trkpt>
      <trkpt lat="48.00509" lon="6.98003">
        <ele>1206</ele>
        <time>2023-05-19T11:41:38Z</time>
      </trkpt>
      <trkpt lat="48.00515" lon="6.98004">
        <ele>1205.3</ele>
        <time>2023-05-19T11:41:42Z</time>
      </trkpt>
      <trkpt lat="48.0052" lon="6.98002">
        <ele>1204.8</ele>
        <time>2023-05-19T11:41:46Z</time>
      </trkpt>
      <trkpt lat="48.00525" lon="6.98002">
        <ele>1204.2</ele>
        <time>2023-05-19T11:41:48Z</time>
      </trkpt>
      <trkpt lat="48.00534" lon="6.98001">
        <ele>1204</ele>
        <time>2023-05-19T11:41:56Z</time>
      </trkpt>
      <trkpt lat="48.00539" lon="6.98002">
        <ele>1204</ele>
        <time>2023-05-19T11:42:00Z</time>
      </trkpt>
      <trkpt lat="48.00543" lon="6.98002">
        <ele>1204</ele>
        <time>2023-05-19T11:42:04Z</time>
      </trkpt>
      <trkpt lat="48.00548" lon="6.98004">
        <ele>1204.1</ele>
        <time>2023-05-19T11:42:09Z</time>
      </trkpt>
      <trkpt lat="48.00552" lon="6.98006">
        <ele>1204.2</ele>
        <time>2023-05-19T11:42:13Z</time>
      </trkpt>
      <trkpt lat="48.00578" lon="6.9802">
        <ele>1206.9</ele>
        <time>2023-05-19T11:42:37Z</time>
      </trkpt>
      <trkpt lat="48.00582" lon="6.98022">
        <ele>1207.4</ele>
        <time>2023-05-19T11:42:41Z</time>
      </trkpt>
      <trkpt lat="48.00586" lon="6.98025">
        <ele>1208.3</ele>
        <time>2023-05-19T11:42:45Z</time>
      </trkpt>
      <trkpt lat="48.00591" lon="6.98026">
        <ele>1209.3</ele>
        <time>2023-05-19T11:42:50Z</time>
      </trkpt>
      <trkpt lat="48.00625" lon="6.98039">
        <ele>1216.6</ele>
        <time>2023-05-19T11:43:27Z</time>
      </trkpt>
      <trkpt lat="48.0063" lon="6.9804">
        <ele>1217.8</ele>
        <time>2023-05-19T11:43:35Z</time>
      </trkpt>
      <trkpt lat="48.00639" lon="6.98037">
        <ele>1219.7</ele>
        <time>2023-05-19T11:43:47Z</time>
      </trkpt>
      <trkpt lat="48.00655" lon="6.98042">
        <ele>1224.1</ele>
        <time>2023-05-19T11:44:07Z</time>
      </trkpt>
      <trkpt lat="48.00675" lon="6.98057">
        <ele>1230.4</ele>
        <time>2023-05-19T11:44:40Z</time>
      </trkpt>
      <trkpt lat="48.0069" lon="6.98062">
        <ele>1234.7</ele>
        <time>2023-05-19T11:45:00Z</time>
      </trkpt>
      <trkpt lat="48.00705" lon="6.98061">
        <ele>1239.1</ele>
        <time>2023-05-19T11:45:23Z</time>
      </trkpt>
      <trkpt lat="48.00729" lon="6.98067">
        <ele>1246.4</ele>
        <time>2023-05-19T11:45:59Z</time>
      </trkpt>
      <trkpt lat="48.00754" lon="6.98074">
        <ele>1253.9</ele>
        <time>2023-05-19T11:46:34Z</time>
      </trkpt>
      <trkpt lat="48.00766" lon="6.98079">
        <ele>1257.9</ele>
        <time>2023-05-19T11:46:52Z</time>
      </trkpt>
      <trkpt lat="48.00777" lon="6.98082">
        <ele>1261.7</ele>
        <time>2023-05-19T11:47:10Z</time>
      </trkpt>
      <trkpt lat="48.00784" lon="6.98084">
        <ele>1263.6</ele>
        <time>2023-05-19T11:47:24Z</time>
      </trkpt>
      <trkpt lat="48.00788" lon="6.98084">
        <ele>1264.6</ele>
        <time>2023-05-19T11:47:30Z</time>
      </trkpt>
      <trkpt lat="48.00802" lon="6.98094">
        <ele>1268.5</ele>
        <time>2023-05-19T11:47:52Z</time>
      </trkpt>
      <trkpt lat="48.00829" lon="6.98101">
        <ele>1275.5</ele>
        <time>2023-05-19T11:48:30Z</time>
      </trkpt>
      <trkpt lat="48.00835" lon="6.98103">
        <ele>1277.1</ele>
        <time>2023-05-19T11:48:39Z</time>
      </trkpt>
      <trkpt lat="48.00839" lon="6.98105">
        <ele>1278</ele>
        <time>2023-05-19T11:48:45Z</time>
      </trkpt>
      <trkpt lat="48.00851" lon="6.98109">
        <ele>1280.7</ele>
        <time>2023-05-19T11:48:58Z</time>
      </trkpt>
      <trkpt lat="48.00874" lon="6.98124">
        <ele>1285.8</ele>
        <time>2023-05-19T11:49:30Z</time>
      </trkpt>
      <trkpt lat="48.009" lon="6.9814">
        <ele>1291.1</ele>
        <time>2023-05-19T11:50:02Z</time>
      </trkpt>
      <trkpt lat="48.00923" lon="6.98157">
        <ele>1296</ele>
        <time>2023-05-19T11:50:33Z</time>
      </trkpt>
      <trkpt lat="48.00938" lon="6.98163">
        <ele>1298</ele>
        <time>2023-05-19T11:50:48Z</time>
      </trkpt>
      <trkpt lat="48.00947" lon="6.98165">
        <ele>1299</ele>
        <time>2023-05-19T11:50:57Z</time>
      </trkpt>
      <trkpt lat="48.00954" lon="6.9817">
        <ele>1299.5</ele>
        <time>2023-05-19T11:51:05Z</time>
      </trkpt>
      <trkpt lat="48.00969" lon="6.98218">
        <ele>1303.3</ele>
        <time>2023-05-19T11:51:39Z</time>
      </trkpt>
      <trkpt lat="48.0098" lon="6.98256">
        <ele>1304.2</ele>
        <time>2023-05-19T11:52:05Z</time>
      </trkpt>
      <trkpt lat="48.00983" lon="6.98263">
        <ele>1303.8</ele>
        <time>2023-05-19T11:52:10Z</time>
      </trkpt>
      <trkpt lat="48.00982" lon="6.98279">
        <ele>1303.8</ele>
        <time>2023-05-19T11:52:22Z</time>
      </trkpt>
      <trkpt lat="48.00982" lon="6.98287">
        <ele>1303.2</ele>
        <time>2023-05-19T11:52:30Z</time>
      </trkpt>
      <trkpt lat="48.00984" lon="6.98293">
        <ele>1302.4</ele>
        <time>2023-05-19T11:52:36Z</time>
      </trkpt>
      <trkpt lat="48.00987" lon="6.98305">
        <ele>1300.9</ele>
        <time>2023-05-19T11:52:48Z</time>
      </trkpt>
      <trkpt lat="48.00993" lon="6.98303">
        <ele>1300.3</ele>
        <time>2023-05-19T11:53:42Z</time>
      </trkpt>
      <trkpt lat="48.00998" lon="6.98302">
        <ele>1299.7</ele>
        <time>2023-05-19T11:53:48Z</time>
      </trkpt>
      <trkpt lat="48.01002" lon="6.98298">
        <ele>1299.1</ele>
        <time>2023-05-19T11:54:03Z</time>
      </trkpt>
      <trkpt lat="48.01006" lon="6.98294">
        <ele>1298.3</ele>
        <time>2023-05-19T11:54:09Z</time>
      </trkpt>
      <trkpt lat="48.0101" lon="6.98294">
        <ele>1297</ele>
        <time>2023-05-19T11:54:14Z</time>
      </trkpt>
      <trkpt lat="48.01029" lon="6.98291">
        <ele>1291.9</ele>
        <time>2023-05-19T11:54:34Z</time>
      </trkpt>
      <trkpt lat="48.01035" lon="6.98288">
        <ele>1291.4</ele>
        <time>2023-05-19T11:54:41Z</time>
      </trkpt>
      <trkpt lat="48.01041" lon="6.9829">
        <ele>1289.1</ele>
        <time>2023-05-19T11:54:49Z</time>
      </trkpt>
      <trkpt lat="48.01052" lon="6.98288">
        <ele>1286.9</ele>
        <time>2023-05-19T11:55:04Z</time>
      </trkpt>
      <trkpt lat="48.01067" lon="6.98291">
        <ele>1283</ele>
        <time>2023-05-19T11:55:23Z</time>
      </trkpt>
      <trkpt lat="48.01077" lon="6.98286">
        <ele>1282.4</ele>
        <time>2023-05-19T11:55:41Z</time>
      </trkpt>
      <trkpt lat="48.01081" lon="6.98282">
        <ele>1282.1</ele>
        <time>2023-05-19T11:55:45Z</time>
      </trkpt>
      <trkpt lat="48.01088" lon="6.98284">
        <ele>1279.7</ele>
        <time>2023-05-19T11:55:54Z</time>
      </trkpt>
      <trkpt lat="48.01094" lon="6.98294">
        <ele>1276.9</ele>
        <time>2023-05-19T11:56:03Z</time>
      </trkpt>
      <trkpt lat="48.01095" lon="6.98304">
        <ele>1275.8</ele>
        <time>2023-05-19T11:56:10Z</time>
      </trkpt>
      <trkpt lat="48.01098" lon="6.9831">
        <ele>1272.5</ele>
        <time>2023-05-19T11:56:15Z</time>
      </trkpt>
      <trkpt lat="48.01114" lon="6.98296">
        <ele>1270.1</ele>
        <time>2023-05-19T11:56:39Z</time>
      </trkpt>
      <trkpt lat="48.0112" lon="6.98308">
        <ele>1266.7</ele>
        <time>2023-05-19T11:56:52Z</time>
      </trkpt>
      <trkpt lat="48.01121" lon="6.98329">
        <ele>1262.1</ele>
        <time>2023-05-19T11:57:09Z</time>
      </trkpt>
      <trkpt lat="48.01126" lon="6.98329">
        <ele>1261</ele>
        <time>2023-05-19T11:57:20Z</time>
      </trkpt>
      <trkpt lat="48.0114" lon="6.9832">
        <ele>1258</ele>
        <time>2023-05-19T11:57:44Z</time>
      </trkpt>
      <trkpt lat="48.01144" lon="6.98328">
        <ele>1256.2</ele>
        <time>2023-05-19T11:57:55Z</time>
      </trkpt>
      <trkpt lat="48.01148" lon="6.98342">
        <ele>1252.8</ele>
        <time>2023-05-19T11:58:04Z</time>
      </trkpt>
      <trkpt lat="48.0115" lon="6.98349">
        <ele>1251</ele>
        <time>2023-05-19T11:58:08Z</time>
      </trkpt>
      <trkpt lat="48.01151" lon="6.98364">
        <ele>1247.8</ele>
        <time>2023-05-19T11:58:21Z</time>
      </trkpt>
      <trkpt lat="48.01154" lon="6.98359">
        <ele>1248.6</ele>
        <time>2023-05-19T11:58:26Z</time>
      </trkpt>
      <trkpt lat="48.01156" lon="6.98353">
        <ele>1248.9</ele>
        <time>2023-05-19T11:58:30Z</time>
      </trkpt>
      <trkpt lat="48.01166" lon="6.9834">
        <ele>1247</ele>
        <time>2023-05-19T11:58:41Z</time>
      </trkpt>
      <trkpt lat="48.01173" lon="6.98334">
        <ele>1244.5</ele>
        <time>2023-05-19T11:58:51Z</time>
      </trkpt>
      <trkpt lat="48.01176" lon="6.98341">
        <ele>1243.1</ele>
        <time>2023-05-19T11:58:55Z</time>
      </trkpt>
      <trkpt lat="48.01182" lon="6.98361">
        <ele>1240.5</ele>
        <time>2023-05-19T11:59:07Z</time>
      </trkpt>
      <trkpt lat="48.01186" lon="6.98367">
        <ele>1239.1</ele>
        <time>2023-05-19T11:59:14Z</time>
      </trkpt>
      <trkpt lat="48.01202" lon="6.98381">
        <ele>1234.8</ele>
        <time>2023-05-19T11:59:32Z</time>
      </trkpt>
      <trkpt lat="48.01214" lon="6.98393">
        <ele>1232.1</ele>
        <time>2023-05-19T11:59:43Z</time>
      </trkpt>
      <trkpt lat="48.01227" lon="6.98403">
        <ele>1229.8</ele>
        <time>2023-05-19T11:59:56Z</time>
      </trkpt>
      <trkpt lat="48.01229" lon="6.98408">
        <ele>1229.7</ele>
        <time>2023-05-19T12:00:00Z</time>
      </trkpt>
      <trkpt lat="48.01233" lon="6.98411">
        <ele>1229.2</ele>
        <time>2023-05-19T12:00:04Z</time>
      </trkpt>
      <trkpt lat="48.0124" lon="6.9842">
        <ele>1228.1</ele>
        <time>2023-05-19T12:00:10Z</time>
      </trkpt>
      <trkpt lat="48.01251" lon="6.98427">
        <ele>1226.5</ele>
        <time>2023-05-19T12:00:19Z</time>
      </trkpt>
      <trkpt lat="48.01287" lon="6.98463">
        <ele>1224.1</ele>
        <time>2023-05-19T12:00:52Z</time>
      </trkpt>
      <trkpt lat="48.01303" lon="6.98481">
        <ele>1222.8</ele>
        <time>2023-05-19T12:01:07Z</time>
      </trkpt>
      <trkpt lat="48.01306" lon="6.98484">
        <ele>1222.5</ele>
        <time>2023-05-19T12:01:11Z</time>
      </trkpt>
      <trkpt lat="48.01312" lon="6.9849">
        <ele>1220.9</ele>
        <time>2023-05-19T12:01:19Z</time>
      </trkpt>
      <trkpt lat="48.01315" lon="6.98496">
        <ele>1220.3</ele>
        <time>2023-05-19T12:01:26Z</time>
      </trkpt>
      <trkpt lat="48.01318" lon="6.98504">
        <ele>1218.9</ele>
        <time>2023-05-19T12:01:42Z</time>
      </trkpt>
      <trkpt lat="48.01325" lon="6.98506">
        <ele>1217.7</ele>
        <time>2023-05-19T12:01:49Z</time>
      </trkpt>
      <trkpt lat="48.01338" lon="6.9851">
        <ele>1215.5</ele>
        <time>2023-05-19T12:02:03Z</time>
      </trkpt>
      <trkpt lat="48.0134" lon="6.98516">
        <ele>1214.9</ele>
        <time>2023-05-19T12:02:07Z</time>
      </trkpt>
      <trkpt lat="48.01345" lon="6.98517">
        <ele>1213.8</ele>
        <time>2023-05-19T12:02:16Z</time>
      </trkpt>
      <trkpt lat="48.01353" lon="6.98517">
        <ele>1212</ele>
        <time>2023-05-19T12:02:26Z</time>
      </trkpt>
      <trkpt lat="48.01359" lon="6.98521">
        <ele>1210.9</ele>
        <time>2023-05-19T12:02:35Z</time>
      </trkpt>
      <trkpt lat="48.01365" lon="6.98522">
        <ele>1209.9</ele>
        <time>2023-05-19T12:02:38Z</time>
      </trkpt>
      <trkpt lat="48.01369" lon="6.98525">
        <ele>1209.4</ele>
        <time>2023-05-19T12:02:42Z</time>
      </trkpt>
      <trkpt lat="48.01373" lon="6.98524">
        <ele>1208.6</ele>
        <time>2023-05-19T12:02:46Z</time>
      </trkpt>
      <trkpt lat="48.01382" lon="6.98531">
        <ele>1207.3</ele>
        <time>2023-05-19T12:02:53Z</time>
      </trkpt>
      <trkpt lat="48.01391" lon="6.98539">
        <ele>1206.1</ele>
        <time>2023-05-19T12:03:03Z</time>
      </trkpt>
      <trkpt lat="48.01397" lon="6.98543">
        <ele>1205.5</ele>
        <time>2023-05-19T12:03:11Z</time>
      </trkpt>
      <trkpt lat="48.014" lon="6.98548">
        <ele>1205.4</ele>
        <time>2023-05-19T12:03:15Z</time>
      </trkpt>
      <trkpt lat="48.01404" lon="6.98552">
        <ele>1205.2</ele>
        <time>2023-05-19T12:03:22Z</time>
      </trkpt>
      <trkpt lat="48.01415" lon="6.98551">
        <ele>1203.9</ele>
        <time>2023-05-19T12:03:34Z</time>
      </trkpt>
      <trkpt lat="48.0143" lon="6.98558">
        <ele>1200.7</ele>
        <time>2023-05-19T12:03:48Z</time>
      </trkpt>
      <trkpt lat="48.01438" lon="6.98553">
        <ele>1199.2</ele>
        <time>2023-05-19T12:03:56Z</time>
      </trkpt>
      <trkpt lat="48.01448" lon="6.9856">
        <ele>1196.9</ele>
        <time>2023-05-19T12:04:09Z</time>
      </trkpt>
      <trkpt lat="48.01457" lon="6.98561">
        <ele>1195.3</ele>
        <time>2023-05-19T12:04:17Z</time>
      </trkpt>
      <trkpt lat="48.0146" lon="6.98565">
        <ele>1194.6</ele>
        <time>2023-05-19T12:04:21Z</time>
      </trkpt>
      <trkpt lat="48.01485" lon="6.9856">
        <ele>1192.1</ele>
        <time>2023-05-19T12:04:40Z</time>
      </trkpt>
      <trkpt lat="48.01489" lon="6.98561">
        <ele>1192</ele>
        <time>2023-05-19T12:04:44Z</time>
      </trkpt>
      <trkpt lat="48.01498" lon="6.98563">
        <ele>1191.6</ele>
        <time>2023-05-19T12:04:52Z</time>
      </trkpt>
      <trkpt lat="48.01504" lon="6.9856">
        <ele>1191.2</ele>
        <time>2023-05-19T12:04:58Z</time>
      </trkpt>
      <trkpt lat="48.01508" lon="6.98557">
        <ele>1190.8</ele>
        <time>2023-05-19T12:05:02Z</time>
      </trkpt>
      <trkpt lat="48.01523" lon="6.9856">
        <ele>1190.8</ele>
        <time>2023-05-19T12:05:14Z</time>
      </trkpt>
      <trkpt lat="48.01532" lon="6.98564">
        <ele>1191</ele>
        <time>2023-05-19T12:05:22Z</time>
      </trkpt>
      <trkpt lat="48.01536" lon="6.98567">
        <ele>1191.3</ele>
        <time>2023-05-19T12:05:26Z</time>
      </trkpt>
      <trkpt lat="48.01549" lon="6.98575">
        <ele>1192.3</ele>
        <time>2023-05-19T12:05:38Z</time>
      </trkpt>
      <trkpt lat="48.01573" lon="6.98586">
        <ele>1194.5</ele>
        <time>2023-05-19T12:06:03Z</time>
      </trkpt>
      <trkpt lat="48.01577" lon="6.9859">
        <ele>1195.2</ele>
        <time>2023-05-19T12:06:09Z</time>
      </trkpt>
      <trkpt lat="48.0158" lon="6.98595">
        <ele>1196.1</ele>
        <time>2023-05-19T12:06:14Z</time>
      </trkpt>
      <trkpt lat="48.01585" lon="6.98601">
        <ele>1197</ele>
        <time>2023-05-19T12:06:20Z</time>
      </trkpt>
      <trkpt lat="48.01595" lon="6.98616">
        <ele>1199.1</ele>
        <time>2023-05-19T12:06:34Z</time>
      </trkpt>
      <trkpt lat="48.01601" lon="6.98623">
        <ele>1200.1</ele>
        <time>2023-05-19T12:06:43Z</time>
      </trkpt>
      <trkpt lat="48.01609" lon="6.98637">
        <ele>1202.7</ele>
        <time>2023-05-19T12:06:55Z</time>
      </trkpt>
      <trkpt lat="48.0161" lon="6.98643">
        <ele>1203.5</ele>
        <time>2023-05-19T12:07:00Z</time>
      </trkpt>
      <trkpt lat="48.01622" lon="6.98679">
        <ele>1205.7</ele>
        <time>2023-05-19T12:07:32Z</time>
      </trkpt>
      <trkpt lat="48.01612" lon="6.98701">
        <ele>1205.6</ele>
        <time>2023-05-19T12:07:49Z</time>
      </trkpt>
      <trkpt lat="48.01612" lon="6.9869">
        <ele>1206</ele>
        <time>2023-05-19T12:08:39Z</time>
      </trkpt>
      <trkpt lat="48.01615" lon="6.98685">
        <ele>1206</ele>
        <time>2023-05-19T12:08:44Z</time>
      </trkpt>
      <trkpt lat="48.01617" lon="6.98679">
        <ele>1205.9</ele>
        <time>2023-05-19T12:08:48Z</time>
      </trkpt>
      <trkpt lat="48.0162" lon="6.98674">
        <ele>1205.6</ele>
        <time>2023-05-19T12:08:59Z</time>
      </trkpt>
      <trkpt lat="48.01623" lon="6.98667">
        <ele>1205.2</ele>
        <time>2023-05-19T12:09:26Z</time>
      </trkpt>
      <trkpt lat="48.01619" lon="6.98666">
        <ele>1205.4</ele>
        <time>2023-05-19T12:09:31Z</time>
      </trkpt>
      <trkpt lat="48.01619" lon="6.98672">
        <ele>1205.6</ele>
        <time>2023-05-19T12:10:13Z</time>
      </trkpt>
      <trkpt lat="48.0164" lon="6.98703">
        <ele>1207.6</ele>
        <time>2023-05-19T12:13:09Z</time>
      </trkpt>
      <trkpt lat="48.01648" lon="6.98712">
        <ele>1208.5</ele>
        <time>2023-05-19T12:13:16Z</time>
      </trkpt>
      <trkpt lat="48.01669" lon="6.98752">
        <ele>1212.2</ele>
        <time>2023-05-19T12:13:51Z</time>
      </trkpt>
      <trkpt lat="48.01672" lon="6.98757">
        <ele>1212.7</ele>
        <time>2023-05-19T12:13:56Z</time>
      </trkpt>
      <trkpt lat="48.01686" lon="6.98778">
        <ele>1214.3</ele>
        <time>2023-05-19T12:14:17Z</time>
      </trkpt>
      <trkpt lat="48.01689" lon="6.98784">
        <ele>1214.5</ele>
        <time>2023-05-19T12:14:22Z</time>
      </trkpt>
      <trkpt lat="48.01695" lon="6.98788">
        <ele>1214.8</ele>
        <time>2023-05-19T12:14:28Z</time>
      </trkpt>
      <trkpt lat="48.01705" lon="6.98802">
        <ele>1216.1</ele>
        <time>2023-05-19T12:14:42Z</time>
      </trkpt>
      <trkpt lat="48.01714" lon="6.98817">
        <ele>1217.2</ele>
        <time>2023-05-19T12:14:56Z</time>
      </trkpt>
      <trkpt lat="48.01718" lon="6.98823">
        <ele>1217.6</ele>
        <time>2023-05-19T12:15:02Z</time>
      </trkpt>
      <trkpt lat="48.01733" lon="6.9884">
        <ele>1219.9</ele>
        <time>2023-05-19T12:15:33Z</time>
      </trkpt>
      <trkpt lat="48.01754" lon="6.98859">
        <ele>1224.3</ele>
        <time>2023-05-19T12:16:04Z</time>
      </trkpt>
      <trkpt lat="48.01765" lon="6.9887">
        <ele>1226.5</ele>
        <time>2023-05-19T12:16:19Z</time>
      </trkpt>
      <trkpt lat="48.01771" lon="6.98873">
        <ele>1227.5</ele>
        <time>2023-05-19T12:16:26Z</time>
      </trkpt>
      <trkpt lat="48.0178" lon="6.9888">
        <ele>1229</ele>
        <time>2023-05-19T12:16:35Z</time>
      </trkpt>
      <trkpt lat="48.01795" lon="6.98897">
        <ele>1232</ele>
        <time>2023-05-19T12:16:59Z</time>
      </trkpt>
      <trkpt lat="48.0181" lon="6.98907">
        <ele>1234.9</ele>
        <time>2023-05-19T12:17:16Z</time>
      </trkpt>
      <trkpt lat="48.01833" lon="6.98931">
        <ele>1239.5</ele>
        <time>2023-05-19T12:17:47Z</time>
      </trkpt>
      <trkpt lat="48.01841" lon="6.98941">
        <ele>1240.9</ele>
        <time>2023-05-19T12:18:01Z</time>
      </trkpt>
      <trkpt lat="48.01846" lon="6.98947">
        <ele>1241.9</ele>
        <time>2023-05-19T12:18:10Z</time>
      </trkpt>
      <trkpt lat="48.01853" lon="6.98953">
        <ele>1243.1</ele>
        <time>2023-05-19T12:18:21Z</time>
      </trkpt>
      <trkpt lat="48.01857" lon="6.98957">
        <ele>1243.9</ele>
        <time>2023-05-19T12:18:25Z</time>
      </trkpt>
      <trkpt lat="48.01864" lon="6.9896">
        <ele>1244.9</ele>
        <time>2023-05-19T12:18:32Z</time>
      </trkpt>
      <trkpt lat="48.01873" lon="6.98968">
        <ele>1246.5</ele>
        <time>2023-05-19T12:18:45Z</time>
      </trkpt>
      <trkpt lat="48.01882" lon="6.9897">
        <ele>1247.9</ele>
        <time>2023-05-19T12:18:55Z</time>
      </trkpt>
      <trkpt lat="48.0189" lon="6.98978">
        <ele>1249.3</ele>
        <time>2023-05-19T12:19:04Z</time>
      </trkpt>
      <trkpt lat="48.01901" lon="6.98978">
        <ele>1250.6</ele>
        <time>2023-05-19T12:19:17Z</time>
      </trkpt>
      <trkpt lat="48.01904" lon="6.98982">
        <ele>1251.2</ele>
        <time>2023-05-19T12:19:21Z</time>
      </trkpt>
      <trkpt lat="48.01921" lon="6.98989">
        <ele>1253.8</ele>
        <time>2023-05-19T12:19:39Z</time>
      </trkpt>
      <trkpt lat="48.01925" lon="6.98993">
        <ele>1254.8</ele>
        <time>2023-05-19T12:19:42Z</time>
      </trkpt>
      <trkpt lat="48.01927" lon="6.98999">
        <ele>1255.7</ele>
        <time>2023-05-19T12:19:47Z</time>
      </trkpt>
      <trkpt lat="48.01936" lon="6.99008">
        <ele>1258.5</ele>
        <time>2023-05-19T12:20:01Z</time>
      </trkpt>
      <trkpt lat="48.01939" lon="6.99016">
        <ele>1260.1</ele>
        <time>2023-05-19T12:20:13Z</time>
      </trkpt>
      <trkpt lat="48.0194" lon="6.99023">
        <ele>1261.2</ele>
        <time>2023-05-19T12:20:19Z</time>
      </trkpt>
      <trkpt lat="48.01944" lon="6.99025">
        <ele>1262.5</ele>
        <time>2023-05-19T12:20:24Z</time>
      </trkpt>
      <trkpt lat="48.01947" lon="6.99031">
        <ele>1263.8</ele>
        <time>2023-05-19T12:20:30Z</time>
      </trkpt>
      <trkpt lat="48.01952" lon="6.99033">
        <ele>1265</ele>
        <time>2023-05-19T12:20:35Z</time>
      </trkpt>
      <trkpt lat="48.01965" lon="6.99047">
        <ele>1269.3</ele>
        <time>2023-05-19T12:21:02Z</time>
      </trkpt>
      <trkpt lat="48.01967" lon="6.99057">
        <ele>1271</ele>
        <time>2023-05-19T12:21:13Z</time>
      </trkpt>
      <trkpt lat="48.0197" lon="6.99064">
        <ele>1272.4</ele>
        <time>2023-05-19T12:21:21Z</time>
      </trkpt>
      <trkpt lat="48.0197" lon="6.99071">
        <ele>1273.1</ele>
        <time>2023-05-19T12:21:27Z</time>
      </trkpt>
      <trkpt lat="48.01974" lon="6.99088">
        <ele>1275.7</ele>
        <time>2023-05-19T12:21:43Z</time>
      </trkpt>
      <trkpt lat="48.01974" lon="6.99094">
        <ele>1276.2</ele>
        <time>2023-05-19T12:21:48Z</time>
      </trkpt>
      <trkpt lat="48.01981" lon="6.99126">
        <ele>1279.7</ele>
        <time>2023-05-19T12:22:14Z</time>
      </trkpt>
      <trkpt lat="48.01982" lon="6.99133">
        <ele>1280.3</ele>
        <time>2023-05-19T12:22:19Z</time>
      </trkpt>
      <trkpt lat="48.01989" lon="6.99163">
        <ele>1281.4</ele>
        <time>2023-05-19T12:22:40Z</time>
      </trkpt>
      <trkpt lat="48.01996" lon="6.99176">
        <ele>1281.2</ele>
        <time>2023-05-19T12:22:51Z</time>
      </trkpt>
      <trkpt lat="48.02" lon="6.99181">
        <ele>1281.4</ele>
        <time>2023-05-19T12:22:57Z</time>
      </trkpt>
      <trkpt lat="48.02008" lon="6.99187">
        <ele>1282.2</ele>
        <time>2023-05-19T12:23:05Z</time>
      </trkpt>
      <trkpt lat="48.02023" lon="6.99211">
        <ele>1282.5</ele>
        <time>2023-05-19T12:23:21Z</time>
      </trkpt>
      <trkpt lat="48.02024" lon="6.99217">
        <ele>1282.1</ele>
        <time>2023-05-19T12:23:25Z</time>
      </trkpt>
      <trkpt lat="48.02037" lon="6.99242">
        <ele>1282.4</ele>
        <time>2023-05-19T12:23:42Z</time>
      </trkpt>
      <trkpt lat="48.02046" lon="6.9926">
        <ele>1282.4</ele>
        <time>2023-05-19T12:23:58Z</time>
      </trkpt>
      <trkpt lat="48.02051" lon="6.99275">
        <ele>1282.2</ele>
        <time>2023-05-19T12:24:06Z</time>
      </trkpt>
      <trkpt lat="48.02055" lon="6.9928">
        <ele>1282.7</ele>
        <time>2023-05-19T12:24:10Z</time>
      </trkpt>
      <trkpt lat="48.02059" lon="6.99285">
        <ele>1282.3</ele>
        <time>2023-05-19T12:24:14Z</time>
      </trkpt>
      <trkpt lat="48.0206" lon="6.99299">
        <ele>1281.3</ele>
        <time>2023-05-19T12:24:20Z</time>
      </trkpt>
      <trkpt lat="48.02063" lon="6.99306">
        <ele>1280.8</ele>
        <time>2023-05-19T12:24:24Z</time>
      </trkpt>
      <trkpt lat="48.02066" lon="6.99311">
        <ele>1281</ele>
        <time>2023-05-19T12:24:27Z</time>
      </trkpt>
      <trkpt lat="48.02071" lon="6.99324">
        <ele>1281.8</ele>
        <time>2023-05-19T12:24:35Z</time>
      </trkpt>
      <trkpt lat="48.02072" lon="6.99331">
        <ele>1282.4</ele>
        <time>2023-05-19T12:24:40Z</time>
      </trkpt>
      <trkpt lat="48.02075" lon="6.99336">
        <ele>1282.8</ele>
        <time>2023-05-19T12:24:44Z</time>
      </trkpt>
      <trkpt lat="48.0208" lon="6.99339">
        <ele>1283.1</ele>
        <time>2023-05-19T12:24:49Z</time>
      </trkpt>
      <trkpt lat="48.02084" lon="6.99339">
        <ele>1283.2</ele>
        <time>2023-05-19T12:24:53Z</time>
      </trkpt>
      <trkpt lat="48.0209" lon="6.99339">
        <ele>1283.1</ele>
        <time>2023-05-19T12:24:58Z</time>
      </trkpt>
      <trkpt lat="48.02098" lon="6.99344">
        <ele>1283.3</ele>
        <time>2023-05-19T12:25:07Z</time>
      </trkpt>
      <trkpt lat="48.02103" lon="6.99346">
        <ele>1283.4</ele>
        <time>2023-05-19T12:25:11Z</time>
      </trkpt>
      <trkpt lat="48.02112" lon="6.9935">
        <ele>1283.8</ele>
        <time>2023-05-19T12:25:19Z</time>
      </trkpt>
      <trkpt lat="48.02117" lon="6.99352">
        <ele>1283.8</ele>
        <time>2023-05-19T12:25:24Z</time>
      </trkpt>
      <trkpt lat="48.02119" lon="6.99358">
        <ele>1284.4</ele>
        <time>2023-05-19T12:25:28Z</time>
      </trkpt>
      <trkpt lat="48.02148" lon="6.99392">
        <ele>1286.8</ele>
        <time>2023-05-19T12:25:59Z</time>
      </trkpt>
      <trkpt lat="48.02171" lon="6.99422">
        <ele>1289.5</ele>
        <time>2023-05-19T12:26:25Z</time>
      </trkpt>
      <trkpt lat="48.02176" lon="6.99425">
        <ele>1289.5</ele>
        <time>2023-05-19T12:26:30Z</time>
      </trkpt>
      <trkpt lat="48.02181" lon="6.99426">
        <ele>1289.3</ele>
        <time>2023-05-19T12:26:34Z</time>
      </trkpt>
      <trkpt lat="48.02185" lon="6.99431">
        <ele>1289.7</ele>
        <time>2023-05-19T12:26:39Z</time>
      </trkpt>
      <trkpt lat="48.02192" lon="6.99441">
        <ele>1290.7</ele>
        <time>2023-05-19T12:26:48Z</time>
      </trkpt>
      <trkpt lat="48.02196" lon="6.99447">
        <ele>1291.2</ele>
        <time>2023-05-19T12:26:53Z</time>
      </trkpt>
      <trkpt lat="48.02201" lon="6.9945">
        <ele>1291.1</ele>
        <time>2023-05-19T12:26:56Z</time>
      </trkpt>
      <trkpt lat="48.02209" lon="6.99459">
        <ele>1291.5</ele>
        <time>2023-05-19T12:27:04Z</time>
      </trkpt>
      <trkpt lat="48.02213" lon="6.99462">
        <ele>1291.6</ele>
        <time>2023-05-19T12:27:09Z</time>
      </trkpt>
      <trkpt lat="48.02223" lon="6.99471">
        <ele>1291.8</ele>
        <time>2023-05-19T12:27:20Z</time>
      </trkpt>
      <trkpt lat="48.02233" lon="6.9948">
        <ele>1292</ele>
        <time>2023-05-19T12:27:30Z</time>
      </trkpt>
      <trkpt lat="48.02257" lon="6.99515">
        <ele>1293.7</ele>
        <time>2023-05-19T12:27:57Z</time>
      </trkpt>
      <trkpt lat="48.02262" lon="6.9952">
        <ele>1293.7</ele>
        <time>2023-05-19T12:28:01Z</time>
      </trkpt>
      <trkpt lat="48.02289" lon="6.99558">
        <ele>1295.6</ele>
        <time>2023-05-19T12:28:33Z</time>
      </trkpt>
      <trkpt lat="48.02295" lon="6.9957">
        <ele>1296.1</ele>
        <time>2023-05-19T12:28:41Z</time>
      </trkpt>
      <trkpt lat="48.02303" lon="6.99578">
        <ele>1295.8</ele>
        <time>2023-05-19T12:28:49Z</time>
      </trkpt>
      <trkpt lat="48.02318" lon="6.99607">
        <ele>1297.2</ele>
        <time>2023-05-19T12:29:09Z</time>
      </trkpt>
      <trkpt lat="48.02333" lon="6.99636">
        <ele>1297.7</ele>
        <time>2023-05-19T12:29:30Z</time>
      </trkpt>
      <trkpt lat="48.02358" lon="6.99685">
        <ele>1299.2</ele>
        <time>2023-05-19T12:30:03Z</time>
      </trkpt>
      <trkpt lat="48.02369" lon="6.99707">
        <ele>1299.5</ele>
        <time>2023-05-19T12:30:17Z</time>
      </trkpt>
      <trkpt lat="48.02374" lon="6.99719">
        <ele>1299.8</ele>
        <time>2023-05-19T12:30:25Z</time>
      </trkpt>
      <trkpt lat="48.02376" lon="6.99726">
        <ele>1300.1</ele>
        <time>2023-05-19T12:30:29Z</time>
      </trkpt>
      <trkpt lat="48.02378" lon="6.99732">
        <ele>1300.3</ele>
        <time>2023-05-19T12:30:33Z</time>
      </trkpt>
      <trkpt lat="48.0238" lon="6.99738">
        <ele>1300.4</ele>
        <time>2023-05-19T12:30:37Z</time>
      </trkpt>
      <trkpt lat="48.02382" lon="6.99744">
        <ele>1300.6</ele>
        <time>2023-05-19T12:30:41Z</time>
      </trkpt>
      <trkpt lat="48.02384" lon="6.99752">
        <ele>1301</ele>
        <time>2023-05-19T12:30:46Z</time>
      </trkpt>
      <trkpt lat="48.02388" lon="6.99765">
        <ele>1301.3</ele>
        <time>2023-05-19T12:30:54Z</time>
      </trkpt>
      <trkpt lat="48.02393" lon="6.99778">
        <ele>1301.1</ele>
        <time>2023-05-19T12:31:02Z</time>
      </trkpt>
      <trkpt lat="48.02394" lon="6.99785">
        <ele>1301.7</ele>
        <time>2023-05-19T12:31:06Z</time>
      </trkpt>
      <trkpt lat="48.02402" lon="6.99805">
        <ele>1302.1</ele>
        <time>2023-05-19T12:31:18Z</time>
      </trkpt>
      <trkpt lat="48.02427" lon="6.99852">
        <ele>1300.2</ele>
        <time>2023-05-19T12:31:51Z</time>
      </trkpt>
      <trkpt lat="48.02456" lon="6.99895">
        <ele>1299.6</ele>
        <time>2023-05-19T12:32:22Z</time>
      </trkpt>
      <trkpt lat="48.02459" lon="6.999">
        <ele>1299.6</ele>
        <time>2023-05-19T12:32:26Z</time>
      </trkpt>
      <trkpt lat="48.02465" lon="6.99912">
        <ele>1299.8</ele>
        <time>2023-05-19T12:32:34Z</time>
      </trkpt>
      <trkpt lat="48.02469" lon="6.99924">
        <ele>1300.4</ele>
        <time>2023-05-19T12:32:42Z</time>
      </trkpt>
      <trkpt lat="48.02474" lon="6.99928">
        <ele>1300</ele>
        <time>2023-05-19T12:32:46Z</time>
      </trkpt>
      <trkpt lat="48.02504" lon="6.99965">
        <ele>1300.9</ele>
        <time>2023-05-19T12:33:18Z</time>
      </trkpt>
      <trkpt lat="48.02516" lon="6.99973">
        <ele>1300.9</ele>
        <time>2023-05-19T12:33:30Z</time>
      </trkpt>
      <trkpt lat="48.02526" lon="6.99977">
        <ele>1300.6</ele>
        <time>2023-05-19T12:33:37Z</time>
      </trkpt>
      <trkpt lat="48.02538" lon="6.99989">
        <ele>1300.7</ele>
        <time>2023-05-19T12:33:49Z</time>
      </trkpt>
      <trkpt lat="48.02553" lon="6.99999">
        <ele>1300.2</ele>
        <time>2023-05-19T12:34:01Z</time>
      </trkpt>
      <trkpt lat="48.02562" lon="7.00007">
        <ele>1300.3</ele>
        <time>2023-05-19T12:34:09Z</time>
      </trkpt>
      <trkpt lat="48.02575" lon="7.00019">
        <ele>1300.2</ele>
        <time>2023-05-19T12:34:20Z</time>
      </trkpt>
      <trkpt lat="48.02578" lon="7.00025">
        <ele>1300.4</ele>
        <time>2023-05-19T12:34:24Z</time>
      </trkpt>
      <trkpt lat="48.02583" lon="7.0003">
        <ele>1300.4</ele>
        <time>2023-05-19T12:34:28Z</time>
      </trkpt>
      <trkpt lat="48.02587" lon="7.00034">
        <ele>1300.4</ele>
        <time>2023-05-19T12:34:32Z</time>
      </trkpt>
      <trkpt lat="48.02595" lon="7.00044">
        <ele>1300.7</ele>
        <time>2023-05-19T12:34:40Z</time>
      </trkpt>
      <trkpt lat="48.02607" lon="7.0006">
        <ele>1300.9</ele>
        <time>2023-05-19T12:34:52Z</time>
      </trkpt>
      <trkpt lat="48.02615" lon="7.0007">
        <ele>1300.3</ele>
        <time>2023-05-19T12:35:00Z</time>
      </trkpt>
      <trkpt lat="48.02618" lon="7.00076">
        <ele>1300.2</ele>
        <time>2023-05-19T12:35:04Z</time>
      </trkpt>
      <trkpt lat="48.02621" lon="7.00082">
        <ele>1300.1</ele>
        <time>2023-05-19T12:35:08Z</time>
      </trkpt>
      <trkpt lat="48.02644" lon="7.00131">
        <ele>1300.1</ele>
        <time>2023-05-19T12:35:39Z</time>
      </trkpt>
      <trkpt lat="48.02646" lon="7.00137">
        <ele>1300.3</ele>
        <time>2023-05-19T12:35:43Z</time>
      </trkpt>
      <trkpt lat="48.02649" lon="7.00143">
        <ele>1300.1</ele>
        <time>2023-05-19T12:35:47Z</time>
      </trkpt>
      <trkpt lat="48.0265" lon="7.00151">
        <ele>1300.3</ele>
        <time>2023-05-19T12:35:51Z</time>
      </trkpt>
      <trkpt lat="48.02656" lon="7.00171">
        <ele>1299.9</ele>
        <time>2023-05-19T12:36:03Z</time>
      </trkpt>
      <trkpt lat="48.02658" lon="7.00178">
        <ele>1299.9</ele>
        <time>2023-05-19T12:36:07Z</time>
      </trkpt>
      <trkpt lat="48.02667" lon="7.00213">
        <ele>1299.6</ele>
        <time>2023-05-19T12:36:25Z</time>
      </trkpt>
      <trkpt lat="48.02668" lon="7.00221">
        <ele>1299.6</ele>
        <time>2023-05-19T12:36:29Z</time>
      </trkpt>
      <trkpt lat="48.02672" lon="7.00234">
        <ele>1299.2</ele>
        <time>2023-05-19T12:36:35Z</time>
      </trkpt>
      <trkpt lat="48.02675" lon="7.00249">
        <ele>1299.2</ele>
        <time>2023-05-19T12:36:43Z</time>
      </trkpt>
      <trkpt lat="48.02677" lon="7.00256">
        <ele>1299</ele>
        <time>2023-05-19T12:36:47Z</time>
      </trkpt>
      <trkpt lat="48.02679" lon="7.00263">
        <ele>1298.8</ele>
        <time>2023-05-19T12:36:51Z</time>
      </trkpt>
      <trkpt lat="48.0268" lon="7.00271">
        <ele>1298.9</ele>
        <time>2023-05-19T12:36:55Z</time>
      </trkpt>
      <trkpt lat="48.02682" lon="7.00287">
        <ele>1299</ele>
        <time>2023-05-19T12:37:03Z</time>
      </trkpt>
      <trkpt lat="48.02683" lon="7.00293">
        <ele>1299</ele>
        <time>2023-05-19T12:37:06Z</time>
      </trkpt>
      <trkpt lat="48.02687" lon="7.00316">
        <ele>1298.6</ele>
        <time>2023-05-19T12:37:18Z</time>
      </trkpt>
      <trkpt lat="48.02692" lon="7.00348">
        <ele>1298.1</ele>
        <time>2023-05-19T12:37:34Z</time>
      </trkpt>
      <trkpt lat="48.02703" lon="7.00407">
        <ele>1296.8</ele>
        <time>2023-05-19T12:38:07Z</time>
      </trkpt>
      <trkpt lat="48.02704" lon="7.00414">
        <ele>1296.8</ele>
        <time>2023-05-19T12:38:11Z</time>
      </trkpt>
      <trkpt lat="48.02708" lon="7.00426">
        <ele>1296.4</ele>
        <time>2023-05-19T12:38:18Z</time>
      </trkpt>
      <trkpt lat="48.02718" lon="7.0046">
        <ele>1295.4</ele>
        <time>2023-05-19T12:38:37Z</time>
      </trkpt>
      <trkpt lat="48.02724" lon="7.00474">
        <ele>1294.7</ele>
        <time>2023-05-19T12:38:45Z</time>
      </trkpt>
      <trkpt lat="48.02744" lon="7.0053">
        <ele>1292.2</ele>
        <time>2023-05-19T12:39:17Z</time>
      </trkpt>
      <trkpt lat="48.02753" lon="7.00549">
        <ele>1291.2</ele>
        <time>2023-05-19T12:39:29Z</time>
      </trkpt>
      <trkpt lat="48.02756" lon="7.00555">
        <ele>1290.9</ele>
        <time>2023-05-19T12:39:33Z</time>
      </trkpt>
      <trkpt lat="48.02765" lon="7.00574">
        <ele>1290.3</ele>
        <time>2023-05-19T12:39:46Z</time>
      </trkpt>
      <trkpt lat="48.02772" lon="7.00585">
        <ele>1289.9</ele>
        <time>2023-05-19T12:39:54Z</time>
      </trkpt>
      <trkpt lat="48.02779" lon="7.00596">
        <ele>1289.3</ele>
        <time>2023-05-19T12:40:02Z</time>
      </trkpt>
      <trkpt lat="48.02789" lon="7.0061">
        <ele>1288.7</ele>
        <time>2023-05-19T12:40:14Z</time>
      </trkpt>
      <trkpt lat="48.02793" lon="7.00615">
        <ele>1288.5</ele>
        <time>2023-05-19T12:40:18Z</time>
      </trkpt>
      <trkpt lat="48.02828" lon="7.00648">
        <ele>1286.8</ele>
        <time>2023-05-19T12:40:49Z</time>
      </trkpt>
      <trkpt lat="48.02863" lon="7.00681">
        <ele>1285.3</ele>
        <time>2023-05-19T12:41:20Z</time>
      </trkpt>
      <trkpt lat="48.02897" lon="7.00713">
        <ele>1284.3</ele>
        <time>2023-05-19T12:41:52Z</time>
      </trkpt>
      <trkpt lat="48.02901" lon="7.00717">
        <ele>1284.3</ele>
        <time>2023-05-19T12:41:56Z</time>
      </trkpt>
      <trkpt lat="48.02906" lon="7.0072">
        <ele>1284.3</ele>
        <time>2023-05-19T12:42:00Z</time>
      </trkpt>
      <trkpt lat="48.02941" lon="7.00752">
        <ele>1284.3</ele>
        <time>2023-05-19T12:42:32Z</time>
      </trkpt>
      <trkpt lat="48.02949" lon="7.0076">
        <ele>1284.6</ele>
        <time>2023-05-19T12:42:40Z</time>
      </trkpt>
      <trkpt lat="48.02954" lon="7.00764">
        <ele>1284.7</ele>
        <time>2023-05-19T12:42:43Z</time>
      </trkpt>
      <trkpt lat="48.02989" lon="7.00792">
        <ele>1286.5</ele>
        <time>2023-05-19T12:43:15Z</time>
      </trkpt>
      <trkpt lat="48.03003" lon="7.00798">
        <ele>1287.1</ele>
        <time>2023-05-19T12:43:27Z</time>
      </trkpt>
      <trkpt lat="48.03014" lon="7.00801">
        <ele>1287</ele>
        <time>2023-05-19T12:43:35Z</time>
      </trkpt>
      <trkpt lat="48.03051" lon="7.0082">
        <ele>1288.6</ele>
        <time>2023-05-19T12:44:08Z</time>
      </trkpt>
      <trkpt lat="48.03089" lon="7.00838">
        <ele>1288.6</ele>
        <time>2023-05-19T12:44:40Z</time>
      </trkpt>
      <trkpt lat="48.03093" lon="7.0084">
        <ele>1288.9</ele>
        <time>2023-05-19T12:44:43Z</time>
      </trkpt>
      <trkpt lat="48.03097" lon="7.00843">
        <ele>1289.2</ele>
        <time>2023-05-19T12:44:47Z</time>
      </trkpt>
      <trkpt lat="48.03103" lon="7.00845">
        <ele>1289.4</ele>
        <time>2023-05-19T12:44:51Z</time>
      </trkpt>
      <trkpt lat="48.03142" lon="7.00858">
        <ele>1292.2</ele>
        <time>2023-05-19T12:45:24Z</time>
      </trkpt>
      <trkpt lat="48.03177" lon="7.00871">
        <ele>1296.5</ele>
        <time>2023-05-19T12:45:57Z</time>
      </trkpt>
      <trkpt lat="48.03212" lon="7.00885">
        <ele>1300.2</ele>
        <time>2023-05-19T12:46:31Z</time>
      </trkpt>
      <trkpt lat="48.03245" lon="7.00897">
        <ele>1303.5</ele>
        <time>2023-05-19T12:47:02Z</time>
      </trkpt>
      <trkpt lat="48.03264" lon="7.00904">
        <ele>1304.5</ele>
        <time>2023-05-19T12:47:20Z</time>
      </trkpt>
      <trkpt lat="48.03269" lon="7.00905">
        <ele>1304.7</ele>
        <time>2023-05-19T12:47:24Z</time>
      </trkpt>
      <trkpt lat="48.03292" lon="7.00919">
        <ele>1305</ele>
        <time>2023-05-19T12:47:44Z</time>
      </trkpt>
      <trkpt lat="48.03296" lon="7.00924">
        <ele>1304.9</ele>
        <time>2023-05-19T12:47:49Z</time>
      </trkpt>
      <trkpt lat="48.03304" lon="7.00931">
        <ele>1305</ele>
        <time>2023-05-19T12:47:57Z</time>
      </trkpt>
      <trkpt lat="48.03309" lon="7.00936">
        <ele>1304.7</ele>
        <time>2023-05-19T12:48:02Z</time>
      </trkpt>
      <trkpt lat="48.03317" lon="7.00944">
        <ele>1303.8</ele>
        <time>2023-05-19T12:48:12Z</time>
      </trkpt>
      <trkpt lat="48.03337" lon="7.00956">
        <ele>1301.6</ele>
        <time>2023-05-19T12:48:31Z</time>
      </trkpt>
      <trkpt lat="48.03341" lon="7.0096">
        <ele>1301.2</ele>
        <time>2023-05-19T12:48:35Z</time>
      </trkpt>
      <trkpt lat="48.03346" lon="7.00962">
        <ele>1300.6</ele>
        <time>2023-05-19T12:48:40Z</time>
      </trkpt>
      <trkpt lat="48.03377" lon="7.00988">
        <ele>1296.5</ele>
        <time>2023-05-19T12:49:10Z</time>
      </trkpt>
      <trkpt lat="48.03408" lon="7.01018">
        <ele>1290.5</ele>
        <time>2023-05-19T12:49:44Z</time>
      </trkpt>
      <trkpt lat="48.03425" lon="7.0104">
        <ele>1285.4</ele>
        <time>2023-05-19T12:50:19Z</time>
      </trkpt>
      <trkpt lat="48.03444" lon="7.01063">
        <ele>1280.2</ele>
        <time>2023-05-19T12:50:41Z</time>
      </trkpt>
      <trkpt lat="48.03449" lon="7.01078">
        <ele>1278.5</ele>
        <time>2023-05-19T12:50:51Z</time>
      </trkpt>
      <trkpt lat="48.03453" lon="7.01084">
        <ele>1277.9</ele>
        <time>2023-05-19T12:50:55Z</time>
      </trkpt>
      <trkpt lat="48.03462" lon="7.0109">
        <ele>1277.1</ele>
        <time>2023-05-19T12:51:09Z</time>
      </trkpt>
      <trkpt lat="48.03465" lon="7.01094">
        <ele>1276.7</ele>
        <time>2023-05-19T12:51:13Z</time>
      </trkpt>
      <trkpt lat="48.03469" lon="7.011">
        <ele>1276.5</ele>
        <time>2023-05-19T12:51:58Z</time>
      </trkpt>
      <trkpt lat="48.03477" lon="7.01107">
        <ele>1276.6</ele>
        <time>2023-05-19T12:52:09Z</time>
      </trkpt>
      <trkpt lat="48.03481" lon="7.0111">
        <ele>1276.7</ele>
        <time>2023-05-19T12:52:14Z</time>
      </trkpt>
      <trkpt lat="48.03484" lon="7.01114">
        <ele>1276.5</ele>
        <time>2023-05-19T12:52:31Z</time>
      </trkpt>
      <trkpt lat="48.03488" lon="7.01116">
        <ele>1276.7</ele>
        <time>2023-05-19T12:52:55Z</time>
      </trkpt>
      <trkpt lat="48.03515" lon="7.01134">
        <ele>1280.1</ele>
        <time>2023-05-19T12:54:24Z</time>
      </trkpt>
      <trkpt lat="48.03516" lon="7.01134">
        <ele>1280.2</ele>
        <time>2023-05-19T12:54:26Z</time>
      </trkpt>
      <trkpt lat="48.03522" lon="7.01142">
        <ele>1281.2</ele>
        <time>2023-05-19T12:54:34Z</time>
      </trkpt>
      <trkpt lat="48.03529" lon="7.01143">
        <ele>1282.3</ele>
        <time>2023-05-19T12:54:43Z</time>
      </trkpt>
      <trkpt lat="48.03535" lon="7.01142">
        <ele>1283.2</ele>
        <time>2023-05-19T12:54:47Z</time>
      </trkpt>
      <trkpt lat="48.03559" lon="7.01133">
        <ele>1285.8</ele>
        <time>2023-05-19T12:55:09Z</time>
      </trkpt>
      <trkpt lat="48.03563" lon="7.01133">
        <ele>1286.4</ele>
        <time>2023-05-19T12:55:14Z</time>
      </trkpt>
      <trkpt lat="48.03557" lon="7.01164">
        <ele>1289.9</ele>
        <time>2023-05-19T12:55:40Z</time>
      </trkpt>
      <trkpt lat="48.03556" lon="7.01172">
        <ele>1290.7</ele>
        <time>2023-05-19T12:55:52Z</time>
      </trkpt>
      <trkpt lat="48.03554" lon="7.01179">
        <ele>1290.9</ele>
        <time>2023-05-19T12:55:57Z</time>
      </trkpt>
      <trkpt lat="48.03552" lon="7.01187">
        <ele>1291.1</ele>
        <time>2023-05-19T12:56:16Z</time>
      </trkpt>
      <trkpt lat="48.03553" lon="7.01193">
        <ele>1292</ele>
        <time>2023-05-19T12:56:20Z</time>
      </trkpt>
      <trkpt lat="48.03555" lon="7.01221">
        <ele>1294.7</ele>
        <time>2023-05-19T12:56:37Z</time>
      </trkpt>
      <trkpt lat="48.03556" lon="7.01228">
        <ele>1294.9</ele>
        <time>2023-05-19T12:56:41Z</time>
      </trkpt>
      <trkpt lat="48.03557" lon="7.01234">
        <ele>1294.9</ele>
        <time>2023-05-19T12:56:44Z</time>
      </trkpt>
      <trkpt lat="48.03558" lon="7.0124">
        <ele>1295</ele>
        <time>2023-05-19T12:56:48Z</time>
      </trkpt>
      <trkpt lat="48.03562" lon="7.01245">
        <ele>1296</ele>
        <time>2023-05-19T12:56:53Z</time>
      </trkpt>
      <trkpt lat="48.03567" lon="7.0125">
        <ele>1297.3</ele>
        <time>2023-05-19T12:56:59Z</time>
      </trkpt>
      <trkpt lat="48.03583" lon="7.01264">
        <ele>1299.8</ele>
        <time>2023-05-19T12:57:16Z</time>
      </trkpt>
      <trkpt lat="48.03589" lon="7.01267">
        <ele>1301.1</ele>
        <time>2023-05-19T12:57:23Z</time>
      </trkpt>
      <trkpt lat="48.03592" lon="7.01251">
        <ele>1303.2</ele>
        <time>2023-05-19T12:57:33Z</time>
      </trkpt>
      <trkpt lat="48.03602" lon="7.01249">
        <ele>1304.6</ele>
        <time>2023-05-19T12:57:44Z</time>
      </trkpt>
      <trkpt lat="48.03606" lon="7.01248">
        <ele>1305.1</ele>
        <time>2023-05-19T12:57:48Z</time>
      </trkpt>
      <trkpt lat="48.03628" lon="7.01243">
        <ele>1307.8</ele>
        <time>2023-05-19T12:58:08Z</time>
      </trkpt>
      <trkpt lat="48.03636" lon="7.0124">
        <ele>1308.5</ele>
        <time>2023-05-19T12:58:16Z</time>
      </trkpt>
      <trkpt lat="48.03641" lon="7.01238">
        <ele>1309</ele>
        <time>2023-05-19T12:58:20Z</time>
      </trkpt>
      <trkpt lat="48.03641" lon="7.01248">
        <ele>1310.1</ele>
        <time>2023-05-19T12:58:29Z</time>
      </trkpt>
      <trkpt lat="48.03641" lon="7.01255">
        <ele>1310.9</ele>
        <time>2023-05-19T12:58:34Z</time>
      </trkpt>
      <trkpt lat="48.03644" lon="7.01264">
        <ele>1312.3</ele>
        <time>2023-05-19T12:58:44Z</time>
      </trkpt>
      <trkpt lat="48.03649" lon="7.01261">
        <ele>1312.8</ele>
        <time>2023-05-19T12:59:08Z</time>
      </trkpt>
      <trkpt lat="48.03654" lon="7.01258">
        <ele>1313.2</ele>
        <time>2023-05-19T12:59:14Z</time>
      </trkpt>
      <trkpt lat="48.03687" lon="7.01242">
        <ele>1314.3</ele>
        <time>2023-05-19T12:59:44Z</time>
      </trkpt>
      <trkpt lat="48.03725" lon="7.01237">
        <ele>1316.1</ele>
        <time>2023-05-19T13:00:16Z</time>
      </trkpt>
      <trkpt lat="48.0373" lon="7.01236">
        <ele>1316</ele>
        <time>2023-05-19T13:00:20Z</time>
      </trkpt>
      <trkpt lat="48.03734" lon="7.01233">
        <ele>1315.6</ele>
        <time>2023-05-19T13:00:24Z</time>
      </trkpt>
      <trkpt lat="48.03739" lon="7.01232">
        <ele>1315.4</ele>
        <time>2023-05-19T13:00:28Z</time>
      </trkpt>
      <trkpt lat="48.03773" lon="7.01218">
        <ele>1313.2</ele>
        <time>2023-05-19T13:01:00Z</time>
      </trkpt>
      <trkpt lat="48.03779" lon="7.01215">
        <ele>1312.7</ele>
        <time>2023-05-19T13:01:04Z</time>
      </trkpt>
      <trkpt lat="48.03807" lon="7.01202">
        <ele>1311.4</ele>
        <time>2023-05-19T13:01:28Z</time>
      </trkpt>
      <trkpt lat="48.03812" lon="7.01199">
        <ele>1311</ele>
        <time>2023-05-19T13:01:32Z</time>
      </trkpt>
      <trkpt lat="48.03821" lon="7.01194">
        <ele>1310.5</ele>
        <time>2023-05-19T13:01:39Z</time>
      </trkpt>
      <trkpt lat="48.03856" lon="7.01169">
        <ele>1307.2</ele>
        <time>2023-05-19T13:02:11Z</time>
      </trkpt>
      <trkpt lat="48.0387" lon="7.01162">
        <ele>1306.1</ele>
        <time>2023-05-19T13:02:24Z</time>
      </trkpt>
      <trkpt lat="48.0391" lon="7.0115">
        <ele>1303.9</ele>
        <time>2023-05-19T13:02:56Z</time>
      </trkpt>
      <trkpt lat="48.03947" lon="7.01136">
        <ele>1300.5</ele>
        <time>2023-05-19T13:03:27Z</time>
      </trkpt>
      <trkpt lat="48.03982" lon="7.01127">
        <ele>1298.9</ele>
        <time>2023-05-19T13:03:54Z</time>
      </trkpt>
      <trkpt lat="48.04" lon="7.01114">
        <ele>1296.5</ele>
        <time>2023-05-19T13:04:10Z</time>
      </trkpt>
      <trkpt lat="48.0402" lon="7.01106">
        <ele>1295.8</ele>
        <time>2023-05-19T13:04:26Z</time>
      </trkpt>
      <trkpt lat="48.04059" lon="7.01086">
        <ele>1292.5</ele>
        <time>2023-05-19T13:05:00Z</time>
      </trkpt>
      <trkpt lat="48.04069" lon="7.01081">
        <ele>1291.7</ele>
        <time>2023-05-19T13:05:08Z</time>
      </trkpt>
      <trkpt lat="48.04073" lon="7.01081">
        <ele>1291.7</ele>
        <time>2023-05-19T13:05:12Z</time>
      </trkpt>
      <trkpt lat="48.04079" lon="7.01081">
        <ele>1291.7</ele>
        <time>2023-05-19T13:05:19Z</time>
      </trkpt>
      <trkpt lat="48.04103" lon="7.01076">
        <ele>1292.4</ele>
        <time>2023-05-19T13:05:39Z</time>
      </trkpt>
      <trkpt lat="48.04108" lon="7.01075">
        <ele>1292.6</ele>
        <time>2023-05-19T13:05:43Z</time>
      </trkpt>
      <trkpt lat="48.04113" lon="7.01076">
        <ele>1293</ele>
        <time>2023-05-19T13:05:47Z</time>
      </trkpt>
      <trkpt lat="48.04122" lon="7.01077">
        <ele>1293.3</ele>
        <time>2023-05-19T13:05:54Z</time>
      </trkpt>
      <trkpt lat="48.04127" lon="7.01079">
        <ele>1293.6</ele>
        <time>2023-05-19T13:05:58Z</time>
      </trkpt>
      <trkpt lat="48.04132" lon="7.01082">
        <ele>1293.9</ele>
        <time>2023-05-19T13:06:02Z</time>
      </trkpt>
      <trkpt lat="48.04141" lon="7.01087">
        <ele>1294.3</ele>
        <time>2023-05-19T13:06:09Z</time>
      </trkpt>
      <trkpt lat="48.04145" lon="7.01091">
        <ele>1294.4</ele>
        <time>2023-05-19T13:06:13Z</time>
      </trkpt>
      <trkpt lat="48.04149" lon="7.01094">
        <ele>1294.2</ele>
        <time>2023-05-19T13:06:17Z</time>
      </trkpt>
      <trkpt lat="48.04159" lon="7.01099">
        <ele>1293.3</ele>
        <time>2023-05-19T13:06:26Z</time>
      </trkpt>
      <trkpt lat="48.04163" lon="7.01104">
        <ele>1292.8</ele>
        <time>2023-05-19T13:06:31Z</time>
      </trkpt>
      <trkpt lat="48.04169" lon="7.01108">
        <ele>1292.1</ele>
        <time>2023-05-19T13:06:36Z</time>
      </trkpt>
      <trkpt lat="48.04183" lon="7.01111">
        <ele>1292</ele>
        <time>2023-05-19T13:06:48Z</time>
      </trkpt>
      <trkpt lat="48.04188" lon="7.01113">
        <ele>1291.8</ele>
        <time>2023-05-19T13:06:52Z</time>
      </trkpt>
      <trkpt lat="48.04203" lon="7.01119">
        <ele>1291.9</ele>
        <time>2023-05-19T13:07:05Z</time>
      </trkpt>
      <trkpt lat="48.04208" lon="7.01121">
        <ele>1292.2</ele>
        <time>2023-05-19T13:07:09Z</time>
      </trkpt>
      <trkpt lat="48.04214" lon="7.01125">
        <ele>1292.5</ele>
        <time>2023-05-19T13:07:15Z</time>
      </trkpt>
      <trkpt lat="48.04236" lon="7.01138">
        <ele>1295</ele>
        <time>2023-05-19T13:07:36Z</time>
      </trkpt>
      <trkpt lat="48.04243" lon="7.01145">
        <ele>1294.7</ele>
        <time>2023-05-19T13:07:46Z</time>
      </trkpt>
      <trkpt lat="48.04248" lon="7.01145">
        <ele>1295.7</ele>
        <time>2023-05-19T13:08:03Z</time>
      </trkpt>
      <trkpt lat="48.04254" lon="7.01148">
        <ele>1295.8</ele>
        <time>2023-05-19T13:08:39Z</time>
      </trkpt>
      <trkpt lat="48.04259" lon="7.0115">
        <ele>1296.3</ele>
        <time>2023-05-19T13:08:45Z</time>
      </trkpt>
      <trkpt lat="48.04265" lon="7.01152">
        <ele>1297.2</ele>
        <time>2023-05-19T13:08:54Z</time>
      </trkpt>
      <trkpt lat="48.04279" lon="7.01164">
        <ele>1299.2</ele>
        <time>2023-05-19T13:09:16Z</time>
      </trkpt>
      <trkpt lat="48.04283" lon="7.01166">
        <ele>1299</ele>
        <time>2023-05-19T13:09:20Z</time>
      </trkpt>
      <trkpt lat="48.04293" lon="7.01171">
        <ele>1297.2</ele>
        <time>2023-05-19T13:09:29Z</time>
      </trkpt>
      <trkpt lat="48.04298" lon="7.01174">
        <ele>1296.3</ele>
        <time>2023-05-19T13:09:33Z</time>
      </trkpt>
      <trkpt lat="48.04303" lon="7.01178">
        <ele>1295.4</ele>
        <time>2023-05-19T13:09:39Z</time>
      </trkpt>
      <trkpt lat="48.04309" lon="7.01182">
        <ele>1294.8</ele>
        <time>2023-05-19T13:09:45Z</time>
      </trkpt>
      <trkpt lat="48.0433" lon="7.01193">
        <ele>1294.7</ele>
        <time>2023-05-19T13:10:02Z</time>
      </trkpt>
      <trkpt lat="48.04345" lon="7.01197">
        <ele>1294.5</ele>
        <time>2023-05-19T13:10:16Z</time>
      </trkpt>
      <trkpt lat="48.04356" lon="7.01197">
        <ele>1294.7</ele>
        <time>2023-05-19T13:10:24Z</time>
      </trkpt>
      <trkpt lat="48.04366" lon="7.01201">
        <ele>1294.7</ele>
        <time>2023-05-19T13:10:32Z</time>
      </trkpt>
      <trkpt lat="48.04371" lon="7.01203">
        <ele>1294.6</ele>
        <time>2023-05-19T13:10:36Z</time>
      </trkpt>
      <trkpt lat="48.04376" lon="7.01203">
        <ele>1294.8</ele>
        <time>2023-05-19T13:10:40Z</time>
      </trkpt>
      <trkpt lat="48.0438" lon="7.01205">
        <ele>1294.7</ele>
        <time>2023-05-19T13:10:43Z</time>
      </trkpt>
      <trkpt lat="48.04389" lon="7.01211">
        <ele>1294.2</ele>
        <time>2023-05-19T13:10:51Z</time>
      </trkpt>
      <trkpt lat="48.04394" lon="7.01211">
        <ele>1293.4</ele>
        <time>2023-05-19T13:10:55Z</time>
      </trkpt>
      <trkpt lat="48.04398" lon="7.01212">
        <ele>1292.7</ele>
        <time>2023-05-19T13:10:59Z</time>
      </trkpt>
      <trkpt lat="48.04404" lon="7.01212">
        <ele>1291.7</ele>
        <time>2023-05-19T13:11:04Z</time>
      </trkpt>
      <trkpt lat="48.04408" lon="7.01208">
        <ele>1292.2</ele>
        <time>2023-05-19T13:11:08Z</time>
      </trkpt>
      <trkpt lat="48.04413" lon="7.01206">
        <ele>1292.2</ele>
        <time>2023-05-19T13:11:13Z</time>
      </trkpt>
      <trkpt lat="48.04417" lon="7.01206">
        <ele>1291.9</ele>
        <time>2023-05-19T13:11:17Z</time>
      </trkpt>
      <trkpt lat="48.04422" lon="7.01207">
        <ele>1292.2</ele>
        <time>2023-05-19T13:11:21Z</time>
      </trkpt>
      <trkpt lat="48.04427" lon="7.0121">
        <ele>1292.1</ele>
        <time>2023-05-19T13:11:25Z</time>
      </trkpt>
      <trkpt lat="48.0443" lon="7.01214">
        <ele>1291.7</ele>
        <time>2023-05-19T13:11:29Z</time>
      </trkpt>
      <trkpt lat="48.04438" lon="7.01226">
        <ele>1290.7</ele>
        <time>2023-05-19T13:11:40Z</time>
      </trkpt>
      <trkpt lat="48.04445" lon="7.01234">
        <ele>1291.9</ele>
        <time>2023-05-19T13:11:48Z</time>
      </trkpt>
      <trkpt lat="48.04451" lon="7.01236">
        <ele>1291.6</ele>
        <time>2023-05-19T13:11:52Z</time>
      </trkpt>
      <trkpt lat="48.04455" lon="7.0124">
        <ele>1291.1</ele>
        <time>2023-05-19T13:11:56Z</time>
      </trkpt>
      <trkpt lat="48.04491" lon="7.01264">
        <ele>1286.8</ele>
        <time>2023-05-19T13:12:28Z</time>
      </trkpt>
      <trkpt lat="48.04504" lon="7.01273">
        <ele>1287.2</ele>
        <time>2023-05-19T13:12:39Z</time>
      </trkpt>
      <trkpt lat="48.04508" lon="7.01277">
        <ele>1286.8</ele>
        <time>2023-05-19T13:12:43Z</time>
      </trkpt>
      <trkpt lat="48.04512" lon="7.0128">
        <ele>1285.5</ele>
        <time>2023-05-19T13:12:46Z</time>
      </trkpt>
      <trkpt lat="48.04521" lon="7.01287">
        <ele>1284</ele>
        <time>2023-05-19T13:12:54Z</time>
      </trkpt>
      <trkpt lat="48.04542" lon="7.01304">
        <ele>1283.6</ele>
        <time>2023-05-19T13:13:14Z</time>
      </trkpt>
      <trkpt lat="48.04551" lon="7.01308">
        <ele>1282.7</ele>
        <time>2023-05-19T13:13:21Z</time>
      </trkpt>
      <trkpt lat="48.04559" lon="7.01316">
        <ele>1281.7</ele>
        <time>2023-05-19T13:13:29Z</time>
      </trkpt>
      <trkpt lat="48.04569" lon="7.0132">
        <ele>1281</ele>
        <time>2023-05-19T13:13:37Z</time>
      </trkpt>
      <trkpt lat="48.04576" lon="7.0132">
        <ele>1280.7</ele>
        <time>2023-05-19T13:13:43Z</time>
      </trkpt>
      <trkpt lat="48.04592" lon="7.01338">
        <ele>1278.5</ele>
        <time>2023-05-19T13:13:59Z</time>
      </trkpt>
      <trkpt lat="48.04594" lon="7.01345">
        <ele>1277.7</ele>
        <time>2023-05-19T13:14:03Z</time>
      </trkpt>
      <trkpt lat="48.04603" lon="7.01351">
        <ele>1277.1</ele>
        <time>2023-05-19T13:14:09Z</time>
      </trkpt>
      <trkpt lat="48.04607" lon="7.01355">
        <ele>1276.7</ele>
        <time>2023-05-19T13:14:13Z</time>
      </trkpt>
      <trkpt lat="48.04611" lon="7.01359">
        <ele>1276.2</ele>
        <time>2023-05-19T13:14:17Z</time>
      </trkpt>
      <trkpt lat="48.04616" lon="7.0136">
        <ele>1276.1</ele>
        <time>2023-05-19T13:14:21Z</time>
      </trkpt>
      <trkpt lat="48.04621" lon="7.01363">
        <ele>1275.8</ele>
        <time>2023-05-19T13:14:25Z</time>
      </trkpt>
      <trkpt lat="48.04626" lon="7.01365">
        <ele>1275.7</ele>
        <time>2023-05-19T13:14:29Z</time>
      </trkpt>
      <trkpt lat="48.0464" lon="7.01371">
        <ele>1275.3</ele>
        <time>2023-05-19T13:14:40Z</time>
      </trkpt>
      <trkpt lat="48.04644" lon="7.01374">
        <ele>1275.2</ele>
        <time>2023-05-19T13:14:44Z</time>
      </trkpt>
      <trkpt lat="48.04649" lon="7.01375">
        <ele>1275.2</ele>
        <time>2023-05-19T13:14:47Z</time>
      </trkpt>
      <trkpt lat="48.04668" lon="7.0139">
        <ele>1274.9</ele>
        <time>2023-05-19T13:15:03Z</time>
      </trkpt>
      <trkpt lat="48.04676" lon="7.014">
        <ele>1274.3</ele>
        <time>2023-05-19T13:15:11Z</time>
      </trkpt>
      <trkpt lat="48.04679" lon="7.01405">
        <ele>1274.1</ele>
        <time>2023-05-19T13:15:15Z</time>
      </trkpt>
      <trkpt lat="48.04687" lon="7.01415">
        <ele>1273.8</ele>
        <time>2023-05-19T13:15:23Z</time>
      </trkpt>
      <trkpt lat="48.04694" lon="7.01425">
        <ele>1274</ele>
        <time>2023-05-19T13:15:32Z</time>
      </trkpt>
      <trkpt lat="48.04697" lon="7.01431">
        <ele>1273.9</ele>
        <time>2023-05-19T13:15:36Z</time>
      </trkpt>
      <trkpt lat="48.04704" lon="7.01443">
        <ele>1273.7</ele>
        <time>2023-05-19T13:15:44Z</time>
      </trkpt>
      <trkpt lat="48.04704" lon="7.0145">
        <ele>1273.4</ele>
        <time>2023-05-19T13:15:48Z</time>
      </trkpt>
      <trkpt lat="48.04706" lon="7.01456">
        <ele>1273.1</ele>
        <time>2023-05-19T13:15:52Z</time>
      </trkpt>
      <trkpt lat="48.0471" lon="7.01462">
        <ele>1272.9</ele>
        <time>2023-05-19T13:15:56Z</time>
      </trkpt>
      <trkpt lat="48.04714" lon="7.01467">
        <ele>1272.8</ele>
        <time>2023-05-19T13:16:00Z</time>
      </trkpt>
      <trkpt lat="48.04716" lon="7.01472">
        <ele>1272.8</ele>
        <time>2023-05-19T13:16:04Z</time>
      </trkpt>
      <trkpt lat="48.0472" lon="7.01477">
        <ele>1272.9</ele>
        <time>2023-05-19T13:16:08Z</time>
      </trkpt>
      <trkpt lat="48.04728" lon="7.01486">
        <ele>1272.6</ele>
        <time>2023-05-19T13:16:16Z</time>
      </trkpt>
      <trkpt lat="48.04733" lon="7.01489">
        <ele>1272.2</ele>
        <time>2023-05-19T13:16:19Z</time>
      </trkpt>
      <trkpt lat="48.04748" lon="7.01492">
        <ele>1271.1</ele>
        <time>2023-05-19T13:16:31Z</time>
      </trkpt>
      <trkpt lat="48.04752" lon="7.01491">
        <ele>1270.9</ele>
        <time>2023-05-19T13:16:34Z</time>
      </trkpt>
      <trkpt lat="48.0476" lon="7.0148">
        <ele>1270.3</ele>
        <time>2023-05-19T13:16:42Z</time>
      </trkpt>
      <trkpt lat="48.04768" lon="7.01471">
        <ele>1269.7</ele>
        <time>2023-05-19T13:16:50Z</time>
      </trkpt>
      <trkpt lat="48.04773" lon="7.0147">
        <ele>1269.4</ele>
        <time>2023-05-19T13:16:54Z</time>
      </trkpt>
      <trkpt lat="48.04784" lon="7.01458">
        <ele>1268.7</ele>
        <time>2023-05-19T13:17:06Z</time>
      </trkpt>
      <trkpt lat="48.04787" lon="7.01452">
        <ele>1268.5</ele>
        <time>2023-05-19T13:17:11Z</time>
      </trkpt>
      <trkpt lat="48.04792" lon="7.01449">
        <ele>1267.9</ele>
        <time>2023-05-19T13:17:15Z</time>
      </trkpt>
      <trkpt lat="48.04796" lon="7.01447">
        <ele>1267.3</ele>
        <time>2023-05-19T13:17:19Z</time>
      </trkpt>
      <trkpt lat="48.04801" lon="7.01447">
        <ele>1266.6</ele>
        <time>2023-05-19T13:17:23Z</time>
      </trkpt>
      <trkpt lat="48.04832" lon="7.01456">
        <ele>1263.1</ele>
        <time>2023-05-19T13:17:51Z</time>
      </trkpt>
      <trkpt lat="48.04837" lon="7.0146">
        <ele>1262.5</ele>
        <time>2023-05-19T13:17:55Z</time>
      </trkpt>
      <trkpt lat="48.04842" lon="7.01462">
        <ele>1261.8</ele>
        <time>2023-05-19T13:18:00Z</time>
      </trkpt>
      <trkpt lat="48.04847" lon="7.01462">
        <ele>1261</ele>
        <time>2023-05-19T13:18:04Z</time>
      </trkpt>
      <trkpt lat="48.04881" lon="7.0148">
        <ele>1255.6</ele>
        <time>2023-05-19T13:18:29Z</time>
      </trkpt>
      <trkpt lat="48.04892" lon="7.01491">
        <ele>1254.2</ele>
        <time>2023-05-19T13:18:41Z</time>
      </trkpt>
      <trkpt lat="48.04897" lon="7.01492">
        <ele>1253.4</ele>
        <time>2023-05-19T13:18:44Z</time>
      </trkpt>
      <trkpt lat="48.0494" lon="7.01518">
        <ele>1247.8</ele>
        <time>2023-05-19T13:19:18Z</time>
      </trkpt>
      <trkpt lat="48.04951" lon="7.01523">
        <ele>1246.7</ele>
        <time>2023-05-19T13:19:29Z</time>
      </trkpt>
      <trkpt lat="48.04956" lon="7.01527">
        <ele>1246.2</ele>
        <time>2023-05-19T13:19:33Z</time>
      </trkpt>
      <trkpt lat="48.04986" lon="7.01541">
        <ele>1244</ele>
        <time>2023-05-19T13:19:57Z</time>
      </trkpt>
      <trkpt lat="48.0499" lon="7.01545">
        <ele>1243.7</ele>
        <time>2023-05-19T13:20:02Z</time>
      </trkpt>
      <trkpt lat="48.04995" lon="7.01548">
        <ele>1243.4</ele>
        <time>2023-05-19T13:20:09Z</time>
      </trkpt>
      <trkpt lat="48.05" lon="7.01546">
        <ele>1243</ele>
        <time>2023-05-19T13:20:17Z</time>
      </trkpt>
      <trkpt lat="48.05041" lon="7.01564">
        <ele>1239.5</ele>
        <time>2023-05-19T13:20:50Z</time>
      </trkpt>
      <trkpt lat="48.05074" lon="7.01572">
        <ele>1237.5</ele>
        <time>2023-05-19T13:21:18Z</time>
      </trkpt>
      <trkpt lat="48.05093" lon="7.0158">
        <ele>1236.7</ele>
        <time>2023-05-19T13:21:32Z</time>
      </trkpt>
      <trkpt lat="48.05104" lon="7.01578">
        <ele>1236.3</ele>
        <time>2023-05-19T13:21:45Z</time>
      </trkpt>
      <trkpt lat="48.05143" lon="7.01587">
        <ele>1234.7</ele>
        <time>2023-05-19T13:22:16Z</time>
      </trkpt>
      <trkpt lat="48.05162" lon="7.01598">
        <ele>1233.8</ele>
        <time>2023-05-19T13:22:32Z</time>
      </trkpt>
      <trkpt lat="48.05166" lon="7.01601">
        <ele>1233.7</ele>
        <time>2023-05-19T13:22:35Z</time>
      </trkpt>
      <trkpt lat="48.05184" lon="7.01613">
        <ele>1232.8</ele>
        <time>2023-05-19T13:22:49Z</time>
      </trkpt>
      <trkpt lat="48.05186" lon="7.01619">
        <ele>1232.7</ele>
        <time>2023-05-19T13:22:53Z</time>
      </trkpt>
      <trkpt lat="48.05188" lon="7.01634">
        <ele>1232.9</ele>
        <time>2023-05-19T13:23:01Z</time>
      </trkpt>
      <trkpt lat="48.05185" lon="7.0165">
        <ele>1232.7</ele>
        <time>2023-05-19T13:23:09Z</time>
      </trkpt>
      <trkpt lat="48.05184" lon="7.01658">
        <ele>1232.5</ele>
        <time>2023-05-19T13:23:13Z</time>
      </trkpt>
      <trkpt lat="48.05184" lon="7.01665">
        <ele>1232.3</ele>
        <time>2023-05-19T13:23:17Z</time>
      </trkpt>
      <trkpt lat="48.05183" lon="7.01672">
        <ele>1232.1</ele>
        <time>2023-05-19T13:23:21Z</time>
      </trkpt>
      <trkpt lat="48.05182" lon="7.01695">
        <ele>1231.7</ele>
        <time>2023-05-19T13:23:33Z</time>
      </trkpt>
      <trkpt lat="48.05181" lon="7.01711">
        <ele>1231.5</ele>
        <time>2023-05-19T13:23:41Z</time>
      </trkpt>
      <trkpt lat="48.0518" lon="7.01725">
        <ele>1231.4</ele>
        <time>2023-05-19T13:23:49Z</time>
      </trkpt>
      <trkpt lat="48.0518" lon="7.01748">
        <ele>1231.4</ele>
        <time>2023-05-19T13:24:01Z</time>
      </trkpt>
      <trkpt lat="48.05179" lon="7.01762">
        <ele>1231.1</ele>
        <time>2023-05-19T13:24:08Z</time>
      </trkpt>
      <trkpt lat="48.05176" lon="7.01787">
        <ele>1230.3</ele>
        <time>2023-05-19T13:24:22Z</time>
      </trkpt>
      <trkpt lat="48.05176" lon="7.01802">
        <ele>1230.3</ele>
        <time>2023-05-19T13:24:31Z</time>
      </trkpt>
      <trkpt lat="48.05174" lon="7.01815">
        <ele>1230.1</ele>
        <time>2023-05-19T13:24:38Z</time>
      </trkpt>
      <trkpt lat="48.05174" lon="7.01821">
        <ele>1230.1</ele>
        <time>2023-05-19T13:24:41Z</time>
      </trkpt>
      <trkpt lat="48.05173" lon="7.01829">
        <ele>1229.9</ele>
        <time>2023-05-19T13:24:45Z</time>
      </trkpt>
      <trkpt lat="48.05174" lon="7.01843">
        <ele>1230.1</ele>
        <time>2023-05-19T13:24:53Z</time>
      </trkpt>
      <trkpt lat="48.05172" lon="7.0185">
        <ele>1229.8</ele>
        <time>2023-05-19T13:24:57Z</time>
      </trkpt>
      <trkpt lat="48.05172" lon="7.01858">
        <ele>1229.8</ele>
        <time>2023-05-19T13:25:01Z</time>
      </trkpt>
      <trkpt lat="48.05171" lon="7.01873">
        <ele>1229.2</ele>
        <time>2023-05-19T13:25:09Z</time>
      </trkpt>
      <trkpt lat="48.05171" lon="7.0188">
        <ele>1228.9</ele>
        <time>2023-05-19T13:25:13Z</time>
      </trkpt>
      <trkpt lat="48.0517" lon="7.01895">
        <ele>1228.5</ele>
        <time>2023-05-19T13:25:21Z</time>
      </trkpt>
      <trkpt lat="48.05168" lon="7.0191">
        <ele>1228.2</ele>
        <time>2023-05-19T13:25:29Z</time>
      </trkpt>
      <trkpt lat="48.05171" lon="7.01924">
        <ele>1228.2</ele>
        <time>2023-05-19T13:25:36Z</time>
      </trkpt>
      <trkpt lat="48.05176" lon="7.01935">
        <ele>1228.3</ele>
        <time>2023-05-19T13:25:44Z</time>
      </trkpt>
      <trkpt lat="48.05189" lon="7.0195">
        <ele>1229.3</ele>
        <time>2023-05-19T13:26:06Z</time>
      </trkpt>
      <trkpt lat="48.05186" lon="7.01956">
        <ele>1228.8</ele>
        <time>2023-05-19T13:26:20Z</time>
      </trkpt>
      <trkpt lat="48.0519" lon="7.01963">
        <ele>1229</ele>
        <time>2023-05-19T13:26:31Z</time>
      </trkpt>
      <trkpt lat="48.05193" lon="7.01968">
        <ele>1229</ele>
        <time>2023-05-19T13:26:36Z</time>
      </trkpt>
      <trkpt lat="48.05196" lon="7.01973">
        <ele>1229.1</ele>
        <time>2023-05-19T13:26:40Z</time>
      </trkpt>
      <trkpt lat="48.05198" lon="7.01979">
        <ele>1229.1</ele>
        <time>2023-05-19T13:26:44Z</time>
      </trkpt>
      <trkpt lat="48.05196" lon="7.01984">
        <ele>1228.7</ele>
        <time>2023-05-19T13:27:03Z</time>
      </trkpt>
      <trkpt lat="48.05198" lon="7.0199">
        <ele>1228.7</ele>
        <time>2023-05-19T13:27:37Z</time>
      </trkpt>
      <trkpt lat="48.05204" lon="7.02002">
        <ele>1228.5</ele>
        <time>2023-05-19T13:27:47Z</time>
      </trkpt>
      <trkpt lat="48.05207" lon="7.02009">
        <ele>1228.3</ele>
        <time>2023-05-19T13:27:51Z</time>
      </trkpt>
      <trkpt lat="48.05222" lon="7.02065">
        <ele>1226.3</ele>
        <time>2023-05-19T13:28:24Z</time>
      </trkpt>
      <trkpt lat="48.05241" lon="7.02127">
        <ele>1223.8</ele>
        <time>2023-05-19T13:28:57Z</time>
      </trkpt>
      <trkpt lat="48.05259" lon="7.02186">
        <ele>1222.1</ele>
        <time>2023-05-19T13:29:31Z</time>
      </trkpt>
      <trkpt lat="48.05261" lon="7.02192">
        <ele>1221.9</ele>
        <time>2023-05-19T13:29:35Z</time>
      </trkpt>
      <trkpt lat="48.05263" lon="7.02198">
        <ele>1221.7</ele>
        <time>2023-05-19T13:29:38Z</time>
      </trkpt>
      <trkpt lat="48.0527" lon="7.02223">
        <ele>1220.4</ele>
        <time>2023-05-19T13:29:51Z</time>
      </trkpt>
      <trkpt lat="48.05273" lon="7.02237">
        <ele>1220.1</ele>
        <time>2023-05-19T13:29:58Z</time>
      </trkpt>
      <trkpt lat="48.05282" lon="7.02276">
        <ele>1218.4</ele>
        <time>2023-05-19T13:30:19Z</time>
      </trkpt>
      <trkpt lat="48.05293" lon="7.02302">
        <ele>1218.2</ele>
        <time>2023-05-19T13:30:34Z</time>
      </trkpt>
      <trkpt lat="48.05309" lon="7.02364">
        <ele>1216.1</ele>
        <time>2023-05-19T13:31:07Z</time>
      </trkpt>
      <trkpt lat="48.0531" lon="7.0237">
        <ele>1216</ele>
        <time>2023-05-19T13:31:11Z</time>
      </trkpt>
      <trkpt lat="48.05323" lon="7.02417">
        <ele>1216.5</ele>
        <time>2023-05-19T13:31:36Z</time>
      </trkpt>
      <trkpt lat="48.05323" lon="7.02425">
        <ele>1216.3</ele>
        <time>2023-05-19T13:31:40Z</time>
      </trkpt>
      <trkpt lat="48.05334" lon="7.02466">
        <ele>1216.3</ele>
        <time>2023-05-19T13:32:05Z</time>
      </trkpt>
      <trkpt lat="48.05334" lon="7.02479">
        <ele>1216.1</ele>
        <time>2023-05-19T14:18:19Z</time>
      </trkpt>
      <trkpt lat="48.05334" lon="7.02479">
        <ele>1216.1</ele>
        <time>2023-05-19T14:18:20Z</time>
      </trkpt>
      <trkpt lat="48.05334" lon="7.02485">
        <ele>1216.1</ele>
        <time>2023-05-19T14:18:24Z</time>
      </trkpt>
      <trkpt lat="48.05336" lon="7.02491">
        <ele>1216.4</ele>
        <time>2023-05-19T14:18:28Z</time>
      </trkpt>
      <trkpt lat="48.05338" lon="7.02497">
        <ele>1216.7</ele>
        <time>2023-05-19T14:18:32Z</time>
      </trkpt>
      <trkpt lat="48.0534" lon="7.02506">
        <ele>1216.6</ele>
        <time>2023-05-19T14:18:42Z</time>
      </trkpt>
      <trkpt lat="48.05354" lon="7.02524">
        <ele>1217.9</ele>
        <time>2023-05-19T14:19:10Z</time>
      </trkpt>
      <trkpt lat="48.05357" lon="7.02529">
        <ele>1218.2</ele>
        <time>2023-05-19T14:19:22Z</time>
      </trkpt>
      <trkpt lat="48.05361" lon="7.02533">
        <ele>1218.6</ele>
        <time>2023-05-19T14:19:26Z</time>
      </trkpt>
      <trkpt lat="48.05364" lon="7.02539">
        <ele>1218.6</ele>
        <time>2023-05-19T14:19:31Z</time>
      </trkpt>
      <trkpt lat="48.05385" lon="7.02561">
        <ele>1219.9</ele>
        <time>2023-05-19T14:19:54Z</time>
      </trkpt>
      <trkpt lat="48.05395" lon="7.02563">
        <ele>1221.2</ele>
        <time>2023-05-19T14:20:06Z</time>
      </trkpt>
      <trkpt lat="48.05399" lon="7.02557">
        <ele>1222.6</ele>
        <time>2023-05-19T14:20:13Z</time>
      </trkpt>
      <trkpt lat="48.05402" lon="7.02541">
        <ele>1224.4</ele>
        <time>2023-05-19T14:20:25Z</time>
      </trkpt>
      <trkpt lat="48.05405" lon="7.02536">
        <ele>1225.3</ele>
        <time>2023-05-19T14:20:29Z</time>
      </trkpt>
      <trkpt lat="48.05411" lon="7.02534">
        <ele>1226.5</ele>
        <time>2023-05-19T14:20:36Z</time>
      </trkpt>
      <trkpt lat="48.0542" lon="7.02527">
        <ele>1228.4</ele>
        <time>2023-05-19T14:20:45Z</time>
      </trkpt>
      <trkpt lat="48.05442" lon="7.02516">
        <ele>1231.5</ele>
        <time>2023-05-19T14:21:09Z</time>
      </trkpt>
      <trkpt lat="48.05446" lon="7.02513">
        <ele>1232.3</ele>
        <time>2023-05-19T14:21:14Z</time>
      </trkpt>
      <trkpt lat="48.05451" lon="7.02511">
        <ele>1233</ele>
        <time>2023-05-19T14:21:22Z</time>
      </trkpt>
      <trkpt lat="48.05456" lon="7.02511">
        <ele>1233.6</ele>
        <time>2023-05-19T14:21:28Z</time>
      </trkpt>
      <trkpt lat="48.05469" lon="7.02504">
        <ele>1235.5</ele>
        <time>2023-05-19T14:21:43Z</time>
      </trkpt>
      <trkpt lat="48.0548" lon="7.02506">
        <ele>1236.3</ele>
        <time>2023-05-19T14:21:55Z</time>
      </trkpt>
      <trkpt lat="48.05484" lon="7.025">
        <ele>1236.8</ele>
        <time>2023-05-19T14:22:00Z</time>
      </trkpt>
      <trkpt lat="48.05489" lon="7.02499">
        <ele>1237.2</ele>
        <time>2023-05-19T14:22:04Z</time>
      </trkpt>
      <trkpt lat="48.05498" lon="7.02491">
        <ele>1238.2</ele>
        <time>2023-05-19T14:22:14Z</time>
      </trkpt>
      <trkpt lat="48.05513" lon="7.02488">
        <ele>1239.4</ele>
        <time>2023-05-19T14:22:34Z</time>
      </trkpt>
      <trkpt lat="48.05519" lon="7.02489">
        <ele>1239.8</ele>
        <time>2023-05-19T14:22:38Z</time>
      </trkpt>
      <trkpt lat="48.05538" lon="7.02484">
        <ele>1240.9</ele>
        <time>2023-05-19T14:22:55Z</time>
      </trkpt>
      <trkpt lat="48.05559" lon="7.02474">
        <ele>1242.1</ele>
        <time>2023-05-19T14:23:16Z</time>
      </trkpt>
      <trkpt lat="48.05566" lon="7.02476">
        <ele>1242.2</ele>
        <time>2023-05-19T14:23:22Z</time>
      </trkpt>
      <trkpt lat="48.0557" lon="7.02481">
        <ele>1242.2</ele>
        <time>2023-05-19T14:23:26Z</time>
      </trkpt>
      <trkpt lat="48.05575" lon="7.02485">
        <ele>1242.2</ele>
        <time>2023-05-19T14:23:30Z</time>
      </trkpt>
      <trkpt lat="48.05583" lon="7.02495">
        <ele>1242.2</ele>
        <time>2023-05-19T14:23:40Z</time>
      </trkpt>
      <trkpt lat="48.05593" lon="7.02495">
        <ele>1241.8</ele>
        <time>2023-05-19T14:23:49Z</time>
      </trkpt>
      <trkpt lat="48.05602" lon="7.02487">
        <ele>1241.8</ele>
        <time>2023-05-19T14:23:58Z</time>
      </trkpt>
      <trkpt lat="48.05606" lon="7.02479">
        <ele>1241.9</ele>
        <time>2023-05-19T14:24:04Z</time>
      </trkpt>
      <trkpt lat="48.05604" lon="7.02462">
        <ele>1242.3</ele>
        <time>2023-05-19T14:24:13Z</time>
      </trkpt>
      <trkpt lat="48.05607" lon="7.02452">
        <ele>1242.1</ele>
        <time>2023-05-19T14:24:22Z</time>
      </trkpt>
      <trkpt lat="48.05608" lon="7.02431">
        <ele>1242.1</ele>
        <time>2023-05-19T14:24:35Z</time>
      </trkpt>
      <trkpt lat="48.05607" lon="7.02424">
        <ele>1242.1</ele>
        <time>2023-05-19T14:24:40Z</time>
      </trkpt>
      <trkpt lat="48.05607" lon="7.02408">
        <ele>1242.1</ele>
        <time>2023-05-19T14:24:50Z</time>
      </trkpt>
      <trkpt lat="48.05607" lon="7.02401">
        <ele>1242.1</ele>
        <time>2023-05-19T14:24:55Z</time>
      </trkpt>
      <trkpt lat="48.05613" lon="7.02402">
        <ele>1241.9</ele>
        <time>2023-05-19T14:25:03Z</time>
      </trkpt>
      <trkpt lat="48.05618" lon="7.02403">
        <ele>1241.5</ele>
        <time>2023-05-19T14:25:07Z</time>
      </trkpt>
      <trkpt lat="48.05622" lon="7.02406">
        <ele>1241.2</ele>
        <time>2023-05-19T14:25:12Z</time>
      </trkpt>
      <trkpt lat="48.0563" lon="7.02413">
        <ele>1240.6</ele>
        <time>2023-05-19T14:25:21Z</time>
      </trkpt>
      <trkpt lat="48.05636" lon="7.02415">
        <ele>1240.2</ele>
        <time>2023-05-19T14:25:24Z</time>
      </trkpt>
      <trkpt lat="48.05652" lon="7.02423">
        <ele>1237.8</ele>
        <time>2023-05-19T14:25:40Z</time>
      </trkpt>
      <trkpt lat="48.05657" lon="7.02423">
        <ele>1237.1</ele>
        <time>2023-05-19T14:25:44Z</time>
      </trkpt>
      <trkpt lat="48.05672" lon="7.0242">
        <ele>1233.8</ele>
        <time>2023-05-19T14:26:01Z</time>
      </trkpt>
      <trkpt lat="48.05676" lon="7.02414">
        <ele>1233.3</ele>
        <time>2023-05-19T14:26:09Z</time>
      </trkpt>
      <trkpt lat="48.05687" lon="7.02401">
        <ele>1232.1</ele>
        <time>2023-05-19T14:26:24Z</time>
      </trkpt>
      <trkpt lat="48.05698" lon="7.02401">
        <ele>1229.2</ele>
        <time>2023-05-19T14:26:31Z</time>
      </trkpt>
      <trkpt lat="48.05717" lon="7.0239">
        <ele>1229.5</ele>
        <time>2023-05-19T14:26:53Z</time>
      </trkpt>
      <trkpt lat="48.05722" lon="7.02388">
        <ele>1229.1</ele>
        <time>2023-05-19T14:26:58Z</time>
      </trkpt>
      <trkpt lat="48.05736" lon="7.02379">
        <ele>1226.2</ele>
        <time>2023-05-19T14:27:15Z</time>
      </trkpt>
      <trkpt lat="48.05745" lon="7.02359">
        <ele>1225.3</ele>
        <time>2023-05-19T14:27:32Z</time>
      </trkpt>
      <trkpt lat="48.05755" lon="7.02353">
        <ele>1222.6</ele>
        <time>2023-05-19T14:27:39Z</time>
      </trkpt>
      <trkpt lat="48.05756" lon="7.02345">
        <ele>1222.8</ele>
        <time>2023-05-19T14:27:45Z</time>
      </trkpt>
      <trkpt lat="48.0576" lon="7.02341">
        <ele>1221.9</ele>
        <time>2023-05-19T14:27:50Z</time>
      </trkpt>
      <trkpt lat="48.05762" lon="7.02334">
        <ele>1221.9</ele>
        <time>2023-05-19T14:27:54Z</time>
      </trkpt>
      <trkpt lat="48.05766" lon="7.0233">
        <ele>1221</ele>
        <time>2023-05-19T14:27:57Z</time>
      </trkpt>
      <trkpt lat="48.05767" lon="7.02324">
        <ele>1220.8</ele>
        <time>2023-05-19T14:28:01Z</time>
      </trkpt>
      <trkpt lat="48.05772" lon="7.02312">
        <ele>1219.9</ele>
        <time>2023-05-19T14:28:09Z</time>
      </trkpt>
      <trkpt lat="48.05776" lon="7.02308">
        <ele>1219.2</ele>
        <time>2023-05-19T14:28:14Z</time>
      </trkpt>
      <trkpt lat="48.05785" lon="7.02305">
        <ele>1217.7</ele>
        <time>2023-05-19T14:28:21Z</time>
      </trkpt>
      <trkpt lat="48.05794" lon="7.02298">
        <ele>1216.2</ele>
        <time>2023-05-19T14:28:29Z</time>
      </trkpt>
      <trkpt lat="48.05806" lon="7.02297">
        <ele>1214.3</ele>
        <time>2023-05-19T14:28:40Z</time>
      </trkpt>
      <trkpt lat="48.05828" lon="7.02299">
        <ele>1211.8</ele>
        <time>2023-05-19T14:28:56Z</time>
      </trkpt>
      <trkpt lat="48.05831" lon="7.02292">
        <ele>1211.7</ele>
        <time>2023-05-19T14:29:03Z</time>
      </trkpt>
      <trkpt lat="48.05846" lon="7.02295">
        <ele>1209.6</ele>
        <time>2023-05-19T14:29:15Z</time>
      </trkpt>
      <trkpt lat="48.0585" lon="7.02298">
        <ele>1208.9</ele>
        <time>2023-05-19T14:29:18Z</time>
      </trkpt>
      <trkpt lat="48.05859" lon="7.02301">
        <ele>1207.5</ele>
        <time>2023-05-19T14:29:25Z</time>
      </trkpt>
      <trkpt lat="48.05864" lon="7.02298">
        <ele>1207.1</ele>
        <time>2023-05-19T14:29:31Z</time>
      </trkpt>
      <trkpt lat="48.05869" lon="7.02295">
        <ele>1207</ele>
        <time>2023-05-19T14:29:35Z</time>
      </trkpt>
      <trkpt lat="48.05878" lon="7.023">
        <ele>1206.5</ele>
        <time>2023-05-19T14:29:41Z</time>
      </trkpt>
      <trkpt lat="48.05887" lon="7.02308">
        <ele>1205.6</ele>
        <time>2023-05-19T14:29:49Z</time>
      </trkpt>
      <trkpt lat="48.05895" lon="7.02316">
        <ele>1204.2</ele>
        <time>2023-05-19T14:29:56Z</time>
      </trkpt>
      <trkpt lat="48.05897" lon="7.02325">
        <ele>1203.1</ele>
        <time>2023-05-19T14:30:03Z</time>
      </trkpt>
      <trkpt lat="48.05903" lon="7.02327">
        <ele>1203.5</ele>
        <time>2023-05-19T14:30:10Z</time>
      </trkpt>
      <trkpt lat="48.05906" lon="7.02332">
        <ele>1203.5</ele>
        <time>2023-05-19T14:30:14Z</time>
      </trkpt>
      <trkpt lat="48.0592" lon="7.02339">
        <ele>1204.2</ele>
        <time>2023-05-19T14:30:25Z</time>
      </trkpt>
      <trkpt lat="48.05929" lon="7.02348">
        <ele>1203.5</ele>
        <time>2023-05-19T14:30:34Z</time>
      </trkpt>
      <trkpt lat="48.05937" lon="7.02354">
        <ele>1203.5</ele>
        <time>2023-05-19T14:30:40Z</time>
      </trkpt>
      <trkpt lat="48.05941" lon="7.02358">
        <ele>1203.7</ele>
        <time>2023-05-19T14:30:45Z</time>
      </trkpt>
      <trkpt lat="48.05951" lon="7.02367">
        <ele>1202.5</ele>
        <time>2023-05-19T14:30:55Z</time>
      </trkpt>
      <trkpt lat="48.05957" lon="7.0238">
        <ele>1200.6</ele>
        <time>2023-05-19T14:31:07Z</time>
      </trkpt>
      <trkpt lat="48.05961" lon="7.02383">
        <ele>1200.4</ele>
        <time>2023-05-19T14:31:12Z</time>
      </trkpt>
      <trkpt lat="48.05978" lon="7.02395">
        <ele>1198.4</ele>
        <time>2023-05-19T14:31:31Z</time>
      </trkpt>
      <trkpt lat="48.05984" lon="7.02395">
        <ele>1197.9</ele>
        <time>2023-05-19T14:31:35Z</time>
      </trkpt>
      <trkpt lat="48.05989" lon="7.02398">
        <ele>1196.7</ele>
        <time>2023-05-19T14:31:39Z</time>
      </trkpt>
      <trkpt lat="48.05993" lon="7.02398">
        <ele>1196.5</ele>
        <time>2023-05-19T14:31:43Z</time>
      </trkpt>
      <trkpt lat="48.06025" lon="7.02411">
        <ele>1193.4</ele>
        <time>2023-05-19T14:32:11Z</time>
      </trkpt>
      <trkpt lat="48.06039" lon="7.02429">
        <ele>1190.3</ele>
        <time>2023-05-19T14:32:26Z</time>
      </trkpt>
      <trkpt lat="48.06052" lon="7.0245">
        <ele>1188.7</ele>
        <time>2023-05-19T14:32:43Z</time>
      </trkpt>
      <trkpt lat="48.0606" lon="7.02459">
        <ele>1187.4</ele>
        <time>2023-05-19T14:32:51Z</time>
      </trkpt>
      <trkpt lat="48.06075" lon="7.02483">
        <ele>1183.3</ele>
        <time>2023-05-19T14:33:14Z</time>
      </trkpt>
      <trkpt lat="48.06086" lon="7.02493">
        <ele>1183.1</ele>
        <time>2023-05-19T14:33:27Z</time>
      </trkpt>
      <trkpt lat="48.06091" lon="7.02495">
        <ele>1181.9</ele>
        <time>2023-05-19T14:33:31Z</time>
      </trkpt>
      <trkpt lat="48.06105" lon="7.0249">
        <ele>1180.8</ele>
        <time>2023-05-19T14:33:47Z</time>
      </trkpt>
      <trkpt lat="48.06117" lon="7.0249">
        <ele>1178.3</ele>
        <time>2023-05-19T14:33:57Z</time>
      </trkpt>
      <trkpt lat="48.06126" lon="7.02486">
        <ele>1176.8</ele>
        <time>2023-05-19T14:34:04Z</time>
      </trkpt>
      <trkpt lat="48.0613" lon="7.02481">
        <ele>1176.7</ele>
        <time>2023-05-19T14:34:11Z</time>
      </trkpt>
      <trkpt lat="48.0614" lon="7.02452">
        <ele>1177</ele>
        <time>2023-05-19T14:34:36Z</time>
      </trkpt>
      <trkpt lat="48.06142" lon="7.02445">
        <ele>1176.8</ele>
        <time>2023-05-19T14:34:40Z</time>
      </trkpt>
      <trkpt lat="48.06145" lon="7.0244">
        <ele>1175.9</ele>
        <time>2023-05-19T14:34:44Z</time>
      </trkpt>
      <trkpt lat="48.0615" lon="7.02435">
        <ele>1174.3</ele>
        <time>2023-05-19T14:34:49Z</time>
      </trkpt>
      <trkpt lat="48.06153" lon="7.02422">
        <ele>1173.7</ele>
        <time>2023-05-19T14:34:58Z</time>
      </trkpt>
      <trkpt lat="48.06156" lon="7.02417">
        <ele>1173.1</ele>
        <time>2023-05-19T14:35:02Z</time>
      </trkpt>
      <trkpt lat="48.06161" lon="7.02404">
        <ele>1172.5</ele>
        <time>2023-05-19T14:35:11Z</time>
      </trkpt>
      <trkpt lat="48.0617" lon="7.02397">
        <ele>1170.8</ele>
        <time>2023-05-19T14:35:19Z</time>
      </trkpt>
      <trkpt lat="48.06173" lon="7.02391">
        <ele>1170.7</ele>
        <time>2023-05-19T14:35:24Z</time>
      </trkpt>
      <trkpt lat="48.06177" lon="7.02387">
        <ele>1170.2</ele>
        <time>2023-05-19T14:35:28Z</time>
      </trkpt>
      <trkpt lat="48.06181" lon="7.02386">
        <ele>1169.5</ele>
        <time>2023-05-19T14:35:32Z</time>
      </trkpt>
      <trkpt lat="48.06185" lon="7.02386">
        <ele>1168.8</ele>
        <time>2023-05-19T14:35:35Z</time>
      </trkpt>
      <trkpt lat="48.0619" lon="7.02388">
        <ele>1167.8</ele>
        <time>2023-05-19T14:35:38Z</time>
      </trkpt>
      <trkpt lat="48.06203" lon="7.024">
        <ele>1164.6</ele>
        <time>2023-05-19T14:35:48Z</time>
      </trkpt>
      <trkpt lat="48.06206" lon="7.02405">
        <ele>1163.9</ele>
        <time>2023-05-19T14:35:52Z</time>
      </trkpt>
      <trkpt lat="48.06215" lon="7.02412">
        <ele>1162.7</ele>
        <time>2023-05-19T14:36:01Z</time>
      </trkpt>
      <trkpt lat="48.06217" lon="7.02405">
        <ele>1162.6</ele>
        <time>2023-05-19T14:36:07Z</time>
      </trkpt>
      <trkpt lat="48.06215" lon="7.02398">
        <ele>1163</ele>
        <time>2023-05-19T14:36:11Z</time>
      </trkpt>
      <trkpt lat="48.06214" lon="7.02391">
        <ele>1163.4</ele>
        <time>2023-05-19T14:36:15Z</time>
      </trkpt>
      <trkpt lat="48.06215" lon="7.02377">
        <ele>1163.4</ele>
        <time>2023-05-19T14:36:24Z</time>
      </trkpt>
      <trkpt lat="48.06222" lon="7.02359">
        <ele>1162.1</ele>
        <time>2023-05-19T14:36:36Z</time>
      </trkpt>
      <trkpt lat="48.06226" lon="7.02355">
        <ele>1161.7</ele>
        <time>2023-05-19T14:36:39Z</time>
      </trkpt>
      <trkpt lat="48.0624" lon="7.02346">
        <ele>1160.3</ele>
        <time>2023-05-19T14:36:50Z</time>
      </trkpt>
      <trkpt lat="48.06245" lon="7.02345">
        <ele>1159.8</ele>
        <time>2023-05-19T14:36:53Z</time>
      </trkpt>
      <trkpt lat="48.06265" lon="7.02334">
        <ele>1158.9</ele>
        <time>2023-05-19T14:37:11Z</time>
      </trkpt>
      <trkpt lat="48.06269" lon="7.02333">
        <ele>1158.6</ele>
        <time>2023-05-19T14:37:16Z</time>
      </trkpt>
      <trkpt lat="48.06278" lon="7.02328">
        <ele>1157.8</ele>
        <time>2023-05-19T14:37:24Z</time>
      </trkpt>
      <trkpt lat="48.06283" lon="7.02321">
        <ele>1156.9</ele>
        <time>2023-05-19T14:37:31Z</time>
      </trkpt>
      <trkpt lat="48.06299" lon="7.0232">
        <ele>1154.9</ele>
        <time>2023-05-19T14:37:47Z</time>
      </trkpt>
      <trkpt lat="48.06306" lon="7.02327">
        <ele>1154.5</ele>
        <time>2023-05-19T14:37:55Z</time>
      </trkpt>
      <trkpt lat="48.06315" lon="7.02344">
        <ele>1151.8</ele>
        <time>2023-05-19T14:38:06Z</time>
      </trkpt>
      <trkpt lat="48.06317" lon="7.02352">
        <ele>1150.2</ele>
        <time>2023-05-19T14:38:10Z</time>
      </trkpt>
      <trkpt lat="48.0632" lon="7.02356">
        <ele>1148.5</ele>
        <time>2023-05-19T14:38:14Z</time>
      </trkpt>
      <trkpt lat="48.06323" lon="7.02344">
        <ele>1149.4</ele>
        <time>2023-05-19T14:38:27Z</time>
      </trkpt>
      <trkpt lat="48.06326" lon="7.02337">
        <ele>1149.9</ele>
        <time>2023-05-19T14:38:32Z</time>
      </trkpt>
      <trkpt lat="48.06349" lon="7.02297">
        <ele>1143.9</ele>
        <time>2023-05-19T14:39:06Z</time>
      </trkpt>
      <trkpt lat="48.0635" lon="7.02288">
        <ele>1143.1</ele>
        <time>2023-05-19T14:39:14Z</time>
      </trkpt>
      <trkpt lat="48.06357" lon="7.02295">
        <ele>1141.7</ele>
        <time>2023-05-19T14:39:27Z</time>
      </trkpt>
      <trkpt lat="48.06367" lon="7.02312">
        <ele>1140.6</ele>
        <time>2023-05-19T14:39:39Z</time>
      </trkpt>
      <trkpt lat="48.06372" lon="7.02317">
        <ele>1140.4</ele>
        <time>2023-05-19T14:39:47Z</time>
      </trkpt>
      <trkpt lat="48.06374" lon="7.02324">
        <ele>1140.2</ele>
        <time>2023-05-19T14:39:52Z</time>
      </trkpt>
      <trkpt lat="48.06367" lon="7.02361">
        <ele>1139</ele>
        <time>2023-05-19T14:40:13Z</time>
      </trkpt>
      <trkpt lat="48.06365" lon="7.02366">
        <ele>1138.9</ele>
        <time>2023-05-19T14:40:16Z</time>
      </trkpt>
      <trkpt lat="48.06361" lon="7.02371">
        <ele>1138.7</ele>
        <time>2023-05-19T14:40:21Z</time>
      </trkpt>
      <trkpt lat="48.06358" lon="7.02386">
        <ele>1138.2</ele>
        <time>2023-05-19T14:40:33Z</time>
      </trkpt>
      <trkpt lat="48.06355" lon="7.02391">
        <ele>1138.1</ele>
        <time>2023-05-19T14:40:37Z</time>
      </trkpt>
      <trkpt lat="48.06346" lon="7.02397">
        <ele>1138.1</ele>
        <time>2023-05-19T14:41:08Z</time>
      </trkpt>
      <trkpt lat="48.06341" lon="7.024">
        <ele>1138</ele>
        <time>2023-05-19T14:41:12Z</time>
      </trkpt>
      <trkpt lat="48.0633" lon="7.0242">
        <ele>1136</ele>
        <time>2023-05-19T14:41:30Z</time>
      </trkpt>
      <trkpt lat="48.06327" lon="7.02425">
        <ele>1134.2</ele>
        <time>2023-05-19T14:41:38Z</time>
      </trkpt>
      <trkpt lat="48.0632" lon="7.0243">
        <ele>1132.9</ele>
        <time>2023-05-19T14:41:50Z</time>
      </trkpt>
      <trkpt lat="48.06311" lon="7.0244">
        <ele>1129.4</ele>
        <time>2023-05-19T14:42:00Z</time>
      </trkpt>
      <trkpt lat="48.06308" lon="7.02445">
        <ele>1127.4</ele>
        <time>2023-05-19T14:42:04Z</time>
      </trkpt>
      <trkpt lat="48.06299" lon="7.02453">
        <ele>1125.1</ele>
        <time>2023-05-19T14:42:13Z</time>
      </trkpt>
      <trkpt lat="48.06295" lon="7.02453">
        <ele>1125.7</ele>
        <time>2023-05-19T14:42:17Z</time>
      </trkpt>
      <trkpt lat="48.06286" lon="7.02459">
        <ele>1125.1</ele>
        <time>2023-05-19T14:42:24Z</time>
      </trkpt>
      <trkpt lat="48.06284" lon="7.02464">
        <ele>1123.9</ele>
        <time>2023-05-19T14:42:26Z</time>
      </trkpt>
      <trkpt lat="48.0628" lon="7.02468">
        <ele>1123.6</ele>
        <time>2023-05-19T14:42:32Z</time>
      </trkpt>
      <trkpt lat="48.06277" lon="7.02473">
        <ele>1122.9</ele>
        <time>2023-05-19T14:42:37Z</time>
      </trkpt>
      <trkpt lat="48.06268" lon="7.02481">
        <ele>1121.1</ele>
        <time>2023-05-19T14:42:45Z</time>
      </trkpt>
      <trkpt lat="48.06249" lon="7.02489">
        <ele>1119.6</ele>
        <time>2023-05-19T14:43:00Z</time>
      </trkpt>
      <trkpt lat="48.06244" lon="7.02493">
        <ele>1119.8</ele>
        <time>2023-05-19T14:43:04Z</time>
      </trkpt>
      <trkpt lat="48.06242" lon="7.02499">
        <ele>1117.7</ele>
        <time>2023-05-19T14:43:07Z</time>
      </trkpt>
      <trkpt lat="48.06237" lon="7.02504">
        <ele>1117.1</ele>
        <time>2023-05-19T14:43:14Z</time>
      </trkpt>
      <trkpt lat="48.06232" lon="7.02515">
        <ele>1113.4</ele>
        <time>2023-05-19T14:43:22Z</time>
      </trkpt>
      <trkpt lat="48.06229" lon="7.02519">
        <ele>1112.6</ele>
        <time>2023-05-19T14:43:25Z</time>
      </trkpt>
      <trkpt lat="48.06227" lon="7.02524">
        <ele>1110.9</ele>
        <time>2023-05-19T14:43:29Z</time>
      </trkpt>
      <trkpt lat="48.06204" lon="7.02536">
        <ele>1115.1</ele>
        <time>2023-05-19T14:43:48Z</time>
      </trkpt>
      <trkpt lat="48.062" lon="7.02545">
        <ele>1113.2</ele>
        <time>2023-05-19T14:43:56Z</time>
      </trkpt>
      <trkpt lat="48.06197" lon="7.02549">
        <ele>1113.1</ele>
        <time>2023-05-19T14:44:01Z</time>
      </trkpt>
      <trkpt lat="48.06192" lon="7.02554">
        <ele>1114.7</ele>
        <time>2023-05-19T14:44:08Z</time>
      </trkpt>
      <trkpt lat="48.06189" lon="7.02562">
        <ele>1114.4</ele>
        <time>2023-05-19T14:44:15Z</time>
      </trkpt>
      <trkpt lat="48.06188" lon="7.02569">
        <ele>1112.6</ele>
        <time>2023-05-19T14:44:19Z</time>
      </trkpt>
      <trkpt lat="48.06186" lon="7.02583">
        <ele>1108.4</ele>
        <time>2023-05-19T14:44:27Z</time>
      </trkpt>
      <trkpt lat="48.06182" lon="7.02584">
        <ele>1109.8</ele>
        <time>2023-05-19T14:44:31Z</time>
      </trkpt>
      <trkpt lat="48.06178" lon="7.02585">
        <ele>1110.9</ele>
        <time>2023-05-19T14:44:34Z</time>
      </trkpt>
      <trkpt lat="48.06174" lon="7.02588">
        <ele>1110.4</ele>
        <time>2023-05-19T14:44:38Z</time>
      </trkpt>
      <trkpt lat="48.06155" lon="7.02587">
        <ele>1120.6</ele>
        <time>2023-05-19T14:44:54Z</time>
      </trkpt>
      <trkpt lat="48.06149" lon="7.02589">
        <ele>1121.9</ele>
        <time>2023-05-19T14:44:58Z</time>
      </trkpt>
      <trkpt lat="48.06146" lon="7.02594">
        <ele>1119.1</ele>
        <time>2023-05-19T14:45:01Z</time>
      </trkpt>
      <trkpt lat="48.06145" lon="7.026">
        <ele>1114.4</ele>
        <time>2023-05-19T14:45:05Z</time>
      </trkpt>
      <trkpt lat="48.0614" lon="7.02599">
        <ele>1117.9</ele>
        <time>2023-05-19T14:45:11Z</time>
      </trkpt>
      <trkpt lat="48.06135" lon="7.02597">
        <ele>1119.3</ele>
        <time>2023-05-19T14:45:16Z</time>
      </trkpt>
      <trkpt lat="48.06131" lon="7.02599">
        <ele>1116.8</ele>
        <time>2023-05-19T14:45:21Z</time>
      </trkpt>
      <trkpt lat="48.06124" lon="7.02609">
        <ele>1108.8</ele>
        <time>2023-05-19T14:45:30Z</time>
      </trkpt>
      <trkpt lat="48.0612" lon="7.02601">
        <ele>1113.3</ele>
        <time>2023-05-19T14:45:44Z</time>
      </trkpt>
      <trkpt lat="48.06117" lon="7.02593">
        <ele>1117.2</ele>
        <time>2023-05-19T14:45:48Z</time>
      </trkpt>
      <trkpt lat="48.06106" lon="7.02586">
        <ele>1120.4</ele>
        <time>2023-05-19T14:45:59Z</time>
      </trkpt>
      <trkpt lat="48.061" lon="7.02591">
        <ele>1120</ele>
        <time>2023-05-19T14:46:10Z</time>
      </trkpt>
      <trkpt lat="48.06096" lon="7.02593">
        <ele>1120.4</ele>
        <time>2023-05-19T14:46:16Z</time>
      </trkpt>
      <trkpt lat="48.06091" lon="7.02594">
        <ele>1121.5</ele>
        <time>2023-05-19T14:46:21Z</time>
      </trkpt>
      <trkpt lat="48.06089" lon="7.02604">
        <ele>1117.5</ele>
        <time>2023-05-19T14:46:28Z</time>
      </trkpt>
      <trkpt lat="48.06089" lon="7.02614">
        <ele>1111.6</ele>
        <time>2023-05-19T14:46:34Z</time>
      </trkpt>
      <trkpt lat="48.06085" lon="7.02618">
        <ele>1108</ele>
        <time>2023-05-19T14:46:44Z</time>
      </trkpt>
      <trkpt lat="48.06078" lon="7.02615">
        <ele>1110.5</ele>
        <time>2023-05-19T14:46:56Z</time>
      </trkpt>
      <trkpt lat="48.06074" lon="7.02611">
        <ele>1113.7</ele>
        <time>2023-05-19T14:47:03Z</time>
      </trkpt>
      <trkpt lat="48.06067" lon="7.0261">
        <ele>1112.7</ele>
        <time>2023-05-19T14:47:15Z</time>
      </trkpt>
      <trkpt lat="48.06063" lon="7.02607">
        <ele>1114.3</ele>
        <time>2023-05-19T14:47:19Z</time>
      </trkpt>
      <trkpt lat="48.06058" lon="7.02605">
        <ele>1115.3</ele>
        <time>2023-05-19T14:47:27Z</time>
      </trkpt>
      <trkpt lat="48.06054" lon="7.02609">
        <ele>1109.3</ele>
        <time>2023-05-19T14:47:33Z</time>
      </trkpt>
      <trkpt lat="48.06046" lon="7.02605">
        <ele>1103.9</ele>
        <time>2023-05-19T14:47:57Z</time>
      </trkpt>
      <trkpt lat="48.06042" lon="7.026">
        <ele>1104</ele>
        <time>2023-05-19T14:48:05Z</time>
      </trkpt>
      <trkpt lat="48.06032" lon="7.02597">
        <ele>1095.1</ele>
        <time>2023-05-19T14:48:22Z</time>
      </trkpt>
      <trkpt lat="48.06031" lon="7.02585">
        <ele>1105.3</ele>
        <time>2023-05-19T14:48:31Z</time>
      </trkpt>
      <trkpt lat="48.06027" lon="7.0258">
        <ele>1103.1</ele>
        <time>2023-05-19T14:48:39Z</time>
      </trkpt>
      <trkpt lat="48.06026" lon="7.02572">
        <ele>1104.5</ele>
        <time>2023-05-19T14:48:50Z</time>
      </trkpt>
      <trkpt lat="48.06021" lon="7.02572">
        <ele>1099.4</ele>
        <time>2023-05-19T14:48:56Z</time>
      </trkpt>
      <trkpt lat="48.06016" lon="7.02565">
        <ele>1097.1</ele>
        <time>2023-05-19T14:49:04Z</time>
      </trkpt>
      <trkpt lat="48.06011" lon="7.02557">
        <ele>1095.9</ele>
        <time>2023-05-19T14:49:13Z</time>
      </trkpt>
      <trkpt lat="48.06009" lon="7.02551">
        <ele>1097.1</ele>
        <time>2023-05-19T14:49:18Z</time>
      </trkpt>
      <trkpt lat="48.06008" lon="7.02543">
        <ele>1100.1</ele>
        <time>2023-05-19T14:49:28Z</time>
      </trkpt>
      <trkpt lat="48.06014" lon="7.02531">
        <ele>1112.4</ele>
        <time>2023-05-19T14:49:54Z</time>
      </trkpt>
      <trkpt lat="48.06006" lon="7.02525">
        <ele>1107.7</ele>
        <time>2023-05-19T14:50:14Z</time>
      </trkpt>
      <trkpt lat="48.06001" lon="7.02526">
        <ele>1101.5</ele>
        <time>2023-05-19T14:50:19Z</time>
      </trkpt>
      <trkpt lat="48.05991" lon="7.02533">
        <ele>1092.8</ele>
        <time>2023-05-19T14:50:30Z</time>
      </trkpt>
      <trkpt lat="48.05987" lon="7.02531">
        <ele>1091.9</ele>
        <time>2023-05-19T14:50:34Z</time>
      </trkpt>
      <trkpt lat="48.05982" lon="7.02525">
        <ele>1094.1</ele>
        <time>2023-05-19T14:50:41Z</time>
      </trkpt>
      <trkpt lat="48.05977" lon="7.02527">
        <ele>1089.9</ele>
        <time>2023-05-19T14:50:47Z</time>
      </trkpt>
      <trkpt lat="48.05971" lon="7.02522">
        <ele>1093.6</ele>
        <time>2023-05-19T14:50:56Z</time>
      </trkpt>
      <trkpt lat="48.05968" lon="7.02518">
        <ele>1097.3</ele>
        <time>2023-05-19T14:51:01Z</time>
      </trkpt>
      <trkpt lat="48.05962" lon="7.02511">
        <ele>1102.2</ele>
        <time>2023-05-19T14:51:15Z</time>
      </trkpt>
      <trkpt lat="48.05952" lon="7.02517">
        <ele>1093.3</ele>
        <time>2023-05-19T14:51:28Z</time>
      </trkpt>
      <trkpt lat="48.05948" lon="7.02517">
        <ele>1092</ele>
        <time>2023-05-19T14:51:32Z</time>
      </trkpt>
      <trkpt lat="48.0594" lon="7.02514">
        <ele>1092</ele>
        <time>2023-05-19T14:51:42Z</time>
      </trkpt>
      <trkpt lat="48.05935" lon="7.0251">
        <ele>1093.8</ele>
        <time>2023-05-19T14:51:54Z</time>
      </trkpt>
      <trkpt lat="48.05921" lon="7.02499">
        <ele>1099</ele>
        <time>2023-05-19T14:52:23Z</time>
      </trkpt>
      <trkpt lat="48.05925" lon="7.02493">
        <ele>1103.4</ele>
        <time>2023-05-19T14:52:35Z</time>
      </trkpt>
      <trkpt lat="48.0594" lon="7.02494">
        <ele>1103.5</ele>
        <time>2023-05-19T14:52:44Z</time>
      </trkpt>
      <trkpt lat="48.05948" lon="7.02488">
        <ele>1110.9</ele>
        <time>2023-05-19T14:52:55Z</time>
      </trkpt>
      <trkpt lat="48.05941" lon="7.02487">
        <ele>1107.9</ele>
        <time>2023-05-19T14:53:09Z</time>
      </trkpt>
      <trkpt lat="48.05936" lon="7.02482">
        <ele>1111</ele>
        <time>2023-05-19T14:53:35Z</time>
      </trkpt>
      <trkpt lat="48.0593" lon="7.02482">
        <ele>1111</ele>
        <time>2023-05-19T14:53:40Z</time>
      </trkpt>
      <trkpt lat="48.05923" lon="7.02478">
        <ele>1113.8</ele>
        <time>2023-05-19T14:53:46Z</time>
      </trkpt>
      <trkpt lat="48.05917" lon="7.0248">
        <ele>1112.4</ele>
        <time>2023-05-19T14:53:55Z</time>
      </trkpt>
      <trkpt lat="48.05923" lon="7.02487">
        <ele>1107.5</ele>
        <time>2023-05-19T14:54:00Z</time>
      </trkpt>
      <trkpt lat="48.05922" lon="7.02491">
        <ele>1104.7</ele>
        <time>2023-05-19T14:54:08Z</time>
      </trkpt>
      <trkpt lat="48.05914" lon="7.02497">
        <ele>1099.8</ele>
        <time>2023-05-19T14:54:16Z</time>
      </trkpt>
      <trkpt lat="48.05909" lon="7.02496">
        <ele>1099.9</ele>
        <time>2023-05-19T14:54:20Z</time>
      </trkpt>
      <trkpt lat="48.05899" lon="7.0249">
        <ele>1103.6</ele>
        <time>2023-05-19T14:54:32Z</time>
      </trkpt>
      <trkpt lat="48.05893" lon="7.0249">
        <ele>1103</ele>
        <time>2023-05-19T14:54:38Z</time>
      </trkpt>
      <trkpt lat="48.05889" lon="7.02484">
        <ele>1107.8</ele>
        <time>2023-05-19T14:54:52Z</time>
      </trkpt>
      <trkpt lat="48.0588" lon="7.02476">
        <ele>1115</ele>
        <time>2023-05-19T14:55:03Z</time>
      </trkpt>
      <trkpt lat="48.05873" lon="7.02477">
        <ele>1114.7</ele>
        <time>2023-05-19T14:55:10Z</time>
      </trkpt>
      <trkpt lat="48.05869" lon="7.02477">
        <ele>1114.9</ele>
        <time>2023-05-19T14:55:20Z</time>
      </trkpt>
      <trkpt lat="48.05863" lon="7.02479">
        <ele>1114.4</ele>
        <time>2023-05-19T14:55:36Z</time>
      </trkpt>
      <trkpt lat="48.05858" lon="7.02481">
        <ele>1115.6</ele>
        <time>2023-05-19T14:55:40Z</time>
      </trkpt>
      <trkpt lat="48.05854" lon="7.02501">
        <ele>1111.2</ele>
        <time>2023-05-19T14:56:02Z</time>
      </trkpt>
      <trkpt lat="48.05859" lon="7.02503">
        <ele>1108.3</ele>
        <time>2023-05-19T14:56:08Z</time>
      </trkpt>
      <trkpt lat="48.05861" lon="7.02518">
        <ele>1108.3</ele>
        <time>2023-05-19T14:56:22Z</time>
      </trkpt>
      <trkpt lat="48.05877" lon="7.02519">
        <ele>1093.9</ele>
        <time>2023-05-19T14:56:32Z</time>
      </trkpt>
      <trkpt lat="48.05872" lon="7.02524">
        <ele>1097.5</ele>
        <time>2023-05-19T14:56:35Z</time>
      </trkpt>
      <trkpt lat="48.05868" lon="7.02527">
        <ele>1101.4</ele>
        <time>2023-05-19T14:56:37Z</time>
      </trkpt>
      <trkpt lat="48.05862" lon="7.02528">
        <ele>1107.8</ele>
        <time>2023-05-19T14:56:40Z</time>
      </trkpt>
      <trkpt lat="48.05849" lon="7.02527">
        <ele>1105.8</ele>
        <time>2023-05-19T14:56:51Z</time>
      </trkpt>
      <trkpt lat="48.05845" lon="7.02522">
        <ele>1107</ele>
        <time>2023-05-19T14:56:56Z</time>
      </trkpt>
      <trkpt lat="48.05832" lon="7.02525">
        <ele>1104</ele>
        <time>2023-05-19T14:57:08Z</time>
      </trkpt>
      <trkpt lat="48.05828" lon="7.02525">
        <ele>1106</ele>
        <time>2023-05-19T14:57:18Z</time>
      </trkpt>
      <trkpt lat="48.05829" lon="7.02533">
        <ele>1100.4</ele>
        <time>2023-05-19T14:57:25Z</time>
      </trkpt>
      <trkpt lat="48.05823" lon="7.02541">
        <ele>1099.9</ele>
        <time>2023-05-19T14:57:34Z</time>
      </trkpt>
      <trkpt lat="48.0582" lon="7.02543">
        <ele>1101</ele>
        <time>2023-05-19T14:57:38Z</time>
      </trkpt>
      <trkpt lat="48.05815" lon="7.02544">
        <ele>1104.1</ele>
        <time>2023-05-19T14:57:41Z</time>
      </trkpt>
      <trkpt lat="48.0581" lon="7.02545">
        <ele>1107.2</ele>
        <time>2023-05-19T14:57:49Z</time>
      </trkpt>
      <trkpt lat="48.05807" lon="7.02551">
        <ele>1107.3</ele>
        <time>2023-05-19T14:58:01Z</time>
      </trkpt>
      <trkpt lat="48.05805" lon="7.02561">
        <ele>1106.1</ele>
        <time>2023-05-19T14:58:13Z</time>
      </trkpt>
      <trkpt lat="48.05799" lon="7.02571">
        <ele>1105.9</ele>
        <time>2023-05-19T14:58:26Z</time>
      </trkpt>
      <trkpt lat="48.05794" lon="7.02572">
        <ele>1107.4</ele>
        <time>2023-05-19T14:58:30Z</time>
      </trkpt>
      <trkpt lat="48.05781" lon="7.02587">
        <ele>1105.6</ele>
        <time>2023-05-19T14:58:51Z</time>
      </trkpt>
      <trkpt lat="48.05775" lon="7.02589">
        <ele>1106.8</ele>
        <time>2023-05-19T14:58:59Z</time>
      </trkpt>
      <trkpt lat="48.0577" lon="7.02592">
        <ele>1107.5</ele>
        <time>2023-05-19T14:59:02Z</time>
      </trkpt>
      <trkpt lat="48.05764" lon="7.02601">
        <ele>1106.3</ele>
        <time>2023-05-19T14:59:13Z</time>
      </trkpt>
      <trkpt lat="48.05759" lon="7.02603">
        <ele>1107.5</ele>
        <time>2023-05-19T14:59:17Z</time>
      </trkpt>
      <trkpt lat="48.05756" lon="7.02607">
        <ele>1107.1</ele>
        <time>2023-05-19T14:59:21Z</time>
      </trkpt>
      <trkpt lat="48.05753" lon="7.02614">
        <ele>1105.7</ele>
        <time>2023-05-19T14:59:29Z</time>
      </trkpt>
      <trkpt lat="48.0575" lon="7.02622">
        <ele>1104.5</ele>
        <time>2023-05-19T14:59:35Z</time>
      </trkpt>
      <trkpt lat="48.05744" lon="7.0263">
        <ele>1105.7</ele>
        <time>2023-05-19T14:59:48Z</time>
      </trkpt>
      <trkpt lat="48.05741" lon="7.02637">
        <ele>1105.4</ele>
        <time>2023-05-19T14:59:56Z</time>
      </trkpt>
      <trkpt lat="48.05743" lon="7.02646">
        <ele>1102.4</ele>
        <time>2023-05-19T15:00:07Z</time>
      </trkpt>
      <trkpt lat="48.05739" lon="7.02651">
        <ele>1103.8</ele>
        <time>2023-05-19T15:00:11Z</time>
      </trkpt>
      <trkpt lat="48.0573" lon="7.02662">
        <ele>1105.9</ele>
        <time>2023-05-19T15:00:26Z</time>
      </trkpt>
      <trkpt lat="48.05727" lon="7.02667">
        <ele>1105.8</ele>
        <time>2023-05-19T15:00:30Z</time>
      </trkpt>
      <trkpt lat="48.0572" lon="7.02673">
        <ele>1106.9</ele>
        <time>2023-05-19T15:00:38Z</time>
      </trkpt>
      <trkpt lat="48.05719" lon="7.02679">
        <ele>1105.4</ele>
        <time>2023-05-19T15:00:43Z</time>
      </trkpt>
      <trkpt lat="48.05715" lon="7.02684">
        <ele>1106.1</ele>
        <time>2023-05-19T15:00:48Z</time>
      </trkpt>
      <trkpt lat="48.05713" lon="7.02697">
        <ele>1103.6</ele>
        <time>2023-05-19T15:00:57Z</time>
      </trkpt>
      <trkpt lat="48.0571" lon="7.02703">
        <ele>1103.9</ele>
        <time>2023-05-19T15:01:01Z</time>
      </trkpt>
      <trkpt lat="48.05711" lon="7.0271">
        <ele>1101.2</ele>
        <time>2023-05-19T15:01:05Z</time>
      </trkpt>
      <trkpt lat="48.05699" lon="7.02742">
        <ele>1099.9</ele>
        <time>2023-05-19T15:01:44Z</time>
      </trkpt>
      <trkpt lat="48.05691" lon="7.02759">
        <ele>1096.5</ele>
        <time>2023-05-19T15:02:02Z</time>
      </trkpt>
      <trkpt lat="48.05686" lon="7.02762">
        <ele>1096</ele>
        <time>2023-05-19T15:02:06Z</time>
      </trkpt>
      <trkpt lat="48.05675" lon="7.02757">
        <ele>1100.9</ele>
        <time>2023-05-19T15:02:17Z</time>
      </trkpt>
      <trkpt lat="48.05669" lon="7.02766">
        <ele>1096.8</ele>
        <time>2023-05-19T15:02:26Z</time>
      </trkpt>
      <trkpt lat="48.05666" lon="7.02769">
        <ele>1095.6</ele>
        <time>2023-05-19T15:02:30Z</time>
      </trkpt>
      <trkpt lat="48.05662" lon="7.02769">
        <ele>1096.9</ele>
        <time>2023-05-19T15:02:34Z</time>
      </trkpt>
      <trkpt lat="48.05653" lon="7.02771">
        <ele>1098.7</ele>
        <time>2023-05-19T15:02:42Z</time>
      </trkpt>
      <trkpt lat="48.05646" lon="7.02775">
        <ele>1098.9</ele>
        <time>2023-05-19T15:02:56Z</time>
      </trkpt>
      <trkpt lat="48.05642" lon="7.02781">
        <ele>1097.3</ele>
        <time>2023-05-19T15:03:06Z</time>
      </trkpt>
      <trkpt lat="48.05638" lon="7.02776">
        <ele>1101.2</ele>
        <time>2023-05-19T15:03:13Z</time>
      </trkpt>
      <trkpt lat="48.05624" lon="7.02783">
        <ele>1101.8</ele>
        <time>2023-05-19T15:03:25Z</time>
      </trkpt>
      <trkpt lat="48.0562" lon="7.02782">
        <ele>1103.4</ele>
        <time>2023-05-19T15:03:29Z</time>
      </trkpt>
      <trkpt lat="48.05613" lon="7.02784">
        <ele>1104.5</ele>
        <time>2023-05-19T15:03:39Z</time>
      </trkpt>
      <trkpt lat="48.05611" lon="7.0279">
        <ele>1102.3</ele>
        <time>2023-05-19T15:03:44Z</time>
      </trkpt>
      <trkpt lat="48.05603" lon="7.02798">
        <ele>1101.7</ele>
        <time>2023-05-19T15:03:51Z</time>
      </trkpt>
      <trkpt lat="48.05594" lon="7.02802">
        <ele>1103.4</ele>
        <time>2023-05-19T15:03:58Z</time>
      </trkpt>
      <trkpt lat="48.05588" lon="7.02806">
        <ele>1104</ele>
        <time>2023-05-19T15:04:06Z</time>
      </trkpt>
      <trkpt lat="48.05582" lon="7.02805">
        <ele>1106.4</ele>
        <time>2023-05-19T15:04:14Z</time>
      </trkpt>
      <trkpt lat="48.05577" lon="7.02805">
        <ele>1106.7</ele>
        <time>2023-05-19T15:04:17Z</time>
      </trkpt>
      <trkpt lat="48.05572" lon="7.02808">
        <ele>1105.9</ele>
        <time>2023-05-19T15:04:24Z</time>
      </trkpt>
      <trkpt lat="48.05569" lon="7.0281">
        <ele>1105.3</ele>
        <time>2023-05-19T15:04:29Z</time>
      </trkpt>
      <trkpt lat="48.05561" lon="7.02808">
        <ele>1106.6</ele>
        <time>2023-05-19T15:04:41Z</time>
      </trkpt>
      <trkpt lat="48.05555" lon="7.02813">
        <ele>1105.5</ele>
        <time>2023-05-19T15:04:49Z</time>
      </trkpt>
      <trkpt lat="48.05552" lon="7.0282">
        <ele>1106.5</ele>
        <time>2023-05-19T15:04:57Z</time>
      </trkpt>
      <trkpt lat="48.05548" lon="7.02824">
        <ele>1110.6</ele>
        <time>2023-05-19T15:05:04Z</time>
      </trkpt>
      <trkpt lat="48.05545" lon="7.02833">
        <ele>1112.4</ele>
        <time>2023-05-19T15:05:33Z</time>
      </trkpt>
      <trkpt lat="48.05544" lon="7.02852">
        <ele>1103.5</ele>
        <time>2023-05-19T15:05:48Z</time>
      </trkpt>
      <trkpt lat="48.05548" lon="7.0286">
        <ele>1095.3</ele>
        <time>2023-05-19T15:05:55Z</time>
      </trkpt>
      <trkpt lat="48.05537" lon="7.02857">
        <ele>1107.7</ele>
        <time>2023-05-19T15:06:46Z</time>
      </trkpt>
      <trkpt lat="48.05537" lon="7.0286">
        <ele>1105.5</ele>
        <time>2023-05-19T15:07:06Z</time>
      </trkpt>
      <trkpt lat="48.05533" lon="7.02861">
        <ele>1108.4</ele>
        <time>2023-05-19T15:07:13Z</time>
      </trkpt>
      <trkpt lat="48.05533" lon="7.0287">
        <ele>1105</ele>
        <time>2023-05-19T15:07:36Z</time>
      </trkpt>
      <trkpt lat="48.05532" lon="7.02876">
        <ele>1103.3</ele>
        <time>2023-05-19T15:07:42Z</time>
      </trkpt>
      <trkpt lat="48.0553" lon="7.02882">
        <ele>1101.7</ele>
        <time>2023-05-19T15:07:47Z</time>
      </trkpt>
      <trkpt lat="48.05526" lon="7.02876">
        <ele>1103.7</ele>
        <time>2023-05-19T15:08:12Z</time>
      </trkpt>
      <trkpt lat="48.05526" lon="7.02871">
        <ele>1106.2</ele>
        <time>2023-05-19T15:08:23Z</time>
      </trkpt>
      <trkpt lat="48.05522" lon="7.02863">
        <ele>1106.2</ele>
        <time>2023-05-19T15:08:32Z</time>
      </trkpt>
      <trkpt lat="48.05514" lon="7.02866">
        <ele>1096.6</ele>
        <time>2023-05-19T15:08:44Z</time>
      </trkpt>
      <trkpt lat="48.0552" lon="7.02873">
        <ele>1099</ele>
        <time>2023-05-19T15:09:19Z</time>
      </trkpt>
      <trkpt lat="48.05517" lon="7.02878">
        <ele>1093.4</ele>
        <time>2023-05-19T15:09:31Z</time>
      </trkpt>
      <trkpt lat="48.05513" lon="7.02878">
        <ele>1089.3</ele>
        <time>2023-05-19T15:09:37Z</time>
      </trkpt>
      <trkpt lat="48.05508" lon="7.02879">
        <ele>1083.6</ele>
        <time>2023-05-19T15:09:48Z</time>
      </trkpt>
      <trkpt lat="48.0551" lon="7.02873">
        <ele>1088.8</ele>
        <time>2023-05-19T15:10:36Z</time>
      </trkpt>
      <trkpt lat="48.05514" lon="7.02881">
        <ele>1088.7</ele>
        <time>2023-05-19T15:10:44Z</time>
      </trkpt>
      <trkpt lat="48.05519" lon="7.02887">
        <ele>1090.8</ele>
        <time>2023-05-19T15:10:54Z</time>
      </trkpt>
      <trkpt lat="48.05505" lon="7.02883">
        <ele>1078.4</ele>
        <time>2023-05-19T15:11:15Z</time>
      </trkpt>
      <trkpt lat="48.055" lon="7.0288">
        <ele>1074.8</ele>
        <time>2023-05-19T15:11:21Z</time>
      </trkpt>
      <trkpt lat="48.05493" lon="7.02873">
        <ele>1074.6</ele>
        <time>2023-05-19T15:11:35Z</time>
      </trkpt>
      <trkpt lat="48.05493" lon="7.02868">
        <ele>1077.4</ele>
        <time>2023-05-19T15:12:04Z</time>
      </trkpt>
      <trkpt lat="48.05485" lon="7.02864">
        <ele>1075.2</ele>
        <time>2023-05-19T15:12:28Z</time>
      </trkpt>
      <trkpt lat="48.05478" lon="7.02865">
        <ele>1070.8</ele>
        <time>2023-05-19T15:12:35Z</time>
      </trkpt>
      <trkpt lat="48.05472" lon="7.02862">
        <ele>1069.4</ele>
        <time>2023-05-19T15:12:42Z</time>
      </trkpt>
      <trkpt lat="48.05468" lon="7.02863">
        <ele>1067.5</ele>
        <time>2023-05-19T15:12:45Z</time>
      </trkpt>
      <trkpt lat="48.05462" lon="7.02861">
        <ele>1066.8</ele>
        <time>2023-05-19T15:12:51Z</time>
      </trkpt>
      <trkpt lat="48.05458" lon="7.02863">
        <ele>1064.3</ele>
        <time>2023-05-19T15:12:55Z</time>
      </trkpt>
      <trkpt lat="48.05453" lon="7.02861">
        <ele>1063.8</ele>
        <time>2023-05-19T15:13:01Z</time>
      </trkpt>
      <trkpt lat="48.0544" lon="7.02865">
        <ele>1061.1</ele>
        <time>2023-05-19T15:13:14Z</time>
      </trkpt>
      <trkpt lat="48.05435" lon="7.02867">
        <ele>1062.5</ele>
        <time>2023-05-19T15:13:16Z</time>
      </trkpt>
      <trkpt lat="48.05429" lon="7.02867">
        <ele>1065.4</ele>
        <time>2023-05-19T15:13:22Z</time>
      </trkpt>
      <trkpt lat="48.05436" lon="7.02856">
        <ele>1067.1</ele>
        <time>2023-05-19T15:13:34Z</time>
      </trkpt>
      <trkpt lat="48.05428" lon="7.02857">
        <ele>1069.7</ele>
        <time>2023-05-19T15:13:41Z</time>
      </trkpt>
      <trkpt lat="48.05424" lon="7.02856">
        <ele>1071.6</ele>
        <time>2023-05-19T15:13:50Z</time>
      </trkpt>
      <trkpt lat="48.05433" lon="7.02864">
        <ele>1064.7</ele>
        <time>2023-05-19T15:14:11Z</time>
      </trkpt>
      <trkpt lat="48.05443" lon="7.02868">
        <ele>1058.2</ele>
        <time>2023-05-19T15:14:13Z</time>
      </trkpt>
      <trkpt lat="48.05437" lon="7.02869">
        <ele>1060.7</ele>
        <time>2023-05-19T15:14:16Z</time>
      </trkpt>
      <trkpt lat="48.05433" lon="7.02874">
        <ele>1060.6</ele>
        <time>2023-05-19T15:14:20Z</time>
      </trkpt>
      <trkpt lat="48.0543" lon="7.02878">
        <ele>1060.6</ele>
        <time>2023-05-19T15:14:33Z</time>
      </trkpt>
      <trkpt lat="48.05424" lon="7.02889">
        <ele>1060.2</ele>
        <time>2023-05-19T15:14:51Z</time>
      </trkpt>
      <trkpt lat="48.05422" lon="7.02902">
        <ele>1058.5</ele>
        <time>2023-05-19T15:15:03Z</time>
      </trkpt>
      <trkpt lat="48.0542" lon="7.02908">
        <ele>1058.5</ele>
        <time>2023-05-19T15:15:09Z</time>
      </trkpt>
      <trkpt lat="48.05423" lon="7.02912">
        <ele>1055.5</ele>
        <time>2023-05-19T15:15:23Z</time>
      </trkpt>
      <trkpt lat="48.05427" lon="7.0292">
        <ele>1052</ele>
        <time>2023-05-19T15:15:31Z</time>
      </trkpt>
      <trkpt lat="48.05431" lon="7.02925">
        <ele>1049</ele>
        <time>2023-05-19T15:15:36Z</time>
      </trkpt>
      <trkpt lat="48.05435" lon="7.02918">
        <ele>1045.7</ele>
        <time>2023-05-19T15:15:39Z</time>
      </trkpt>
      <trkpt lat="48.05438" lon="7.02912">
        <ele>1044.9</ele>
        <time>2023-05-19T15:15:42Z</time>
      </trkpt>
      <trkpt lat="48.05432" lon="7.02908">
        <ele>1050.2</ele>
        <time>2023-05-19T15:15:46Z</time>
      </trkpt>
      <trkpt lat="48.05434" lon="7.02901">
        <ele>1050.6</ele>
        <time>2023-05-19T15:15:55Z</time>
      </trkpt>
      <trkpt lat="48.05446" lon="7.02897">
        <ele>1044.9</ele>
        <time>2023-05-19T15:16:01Z</time>
      </trkpt>
      <trkpt lat="48.0544" lon="7.02895">
        <ele>1048.2</ele>
        <time>2023-05-19T15:16:04Z</time>
      </trkpt>
      <trkpt lat="48.05442" lon="7.02887">
        <ele>1049.5</ele>
        <time>2023-05-19T15:16:12Z</time>
      </trkpt>
      <trkpt lat="48.05447" lon="7.02882">
        <ele>1051.1</ele>
        <time>2023-05-19T15:16:16Z</time>
      </trkpt>
      <trkpt lat="48.05441" lon="7.02877">
        <ele>1054.9</ele>
        <time>2023-05-19T15:16:20Z</time>
      </trkpt>
      <trkpt lat="48.05445" lon="7.02872">
        <ele>1055.7</ele>
        <time>2023-05-19T15:16:28Z</time>
      </trkpt>
      <trkpt lat="48.0545" lon="7.0288">
        <ele>1052.9</ele>
        <time>2023-05-19T15:16:38Z</time>
      </trkpt>
      <trkpt lat="48.05455" lon="7.02884">
        <ele>1051.9</ele>
        <time>2023-05-19T15:16:43Z</time>
      </trkpt>
      <trkpt lat="48.05457" lon="7.02894">
        <ele>1047.7</ele>
        <time>2023-05-19T15:16:53Z</time>
      </trkpt>
      <trkpt lat="48.05476" lon="7.02904">
        <ele>1047.4</ele>
        <time>2023-05-19T15:17:39Z</time>
      </trkpt>
      <trkpt lat="48.05477" lon="7.0291">
        <ele>1044.8</ele>
        <time>2023-05-19T15:17:57Z</time>
      </trkpt>
      <trkpt lat="48.05481" lon="7.02913">
        <ele>1045.1</ele>
        <time>2023-05-19T15:18:02Z</time>
      </trkpt>
      <trkpt lat="48.05489" lon="7.0292">
        <ele>1045</ele>
        <time>2023-05-19T15:18:13Z</time>
      </trkpt>
      <trkpt lat="48.05493" lon="7.02922">
        <ele>1045.7</ele>
        <time>2023-05-19T15:18:18Z</time>
      </trkpt>
      <trkpt lat="48.05498" lon="7.02925">
        <ele>1046.3</ele>
        <time>2023-05-19T15:18:22Z</time>
      </trkpt>
      <trkpt lat="48.05501" lon="7.02931">
        <ele>1044.6</ele>
        <time>2023-05-19T15:18:26Z</time>
      </trkpt>
      <trkpt lat="48.05508" lon="7.02933">
        <ele>1049</ele>
        <time>2023-05-19T15:18:36Z</time>
      </trkpt>
      <trkpt lat="48.05507" lon="7.02943">
        <ele>1041.1</ele>
        <time>2023-05-19T15:18:55Z</time>
      </trkpt>
      <trkpt lat="48.055" lon="7.02956">
        <ele>1028.5</ele>
        <time>2023-05-19T15:19:02Z</time>
      </trkpt>
      <trkpt lat="48.0547" lon="7.02955">
        <ele>1020.3</ele>
        <time>2023-05-19T15:19:33Z</time>
      </trkpt>
      <trkpt lat="48.05451" lon="7.02962">
        <ele>1022.7</ele>
        <time>2023-05-19T15:19:45Z</time>
      </trkpt>
      <trkpt lat="48.05445" lon="7.02965">
        <ele>1023.4</ele>
        <time>2023-05-19T15:19:47Z</time>
      </trkpt>
      <trkpt lat="48.05443" lon="7.02973">
        <ele>1023.8</ele>
        <time>2023-05-19T15:20:19Z</time>
      </trkpt>
      <trkpt lat="48.0544" lon="7.02984">
        <ele>1026.6</ele>
        <time>2023-05-19T15:20:31Z</time>
      </trkpt>
      <trkpt lat="48.05439" lon="7.02993">
        <ele>1025.9</ele>
        <time>2023-05-19T15:20:42Z</time>
      </trkpt>
      <trkpt lat="48.05436" lon="7.03">
        <ele>1030.2</ele>
        <time>2023-05-19T15:20:48Z</time>
      </trkpt>
      <trkpt lat="48.05435" lon="7.03009">
        <ele>1027.5</ele>
        <time>2023-05-19T15:20:58Z</time>
      </trkpt>
      <trkpt lat="48.05436" lon="7.03017">
        <ele>1021.2</ele>
        <time>2023-05-19T15:21:05Z</time>
      </trkpt>
      <trkpt lat="48.05434" lon="7.03027">
        <ele>1019.6</ele>
        <time>2023-05-19T15:21:20Z</time>
      </trkpt>
      <trkpt lat="48.05428" lon="7.03032">
        <ele>1027.1</ele>
        <time>2023-05-19T15:21:38Z</time>
      </trkpt>
      <trkpt lat="48.05427" lon="7.03051">
        <ele>1014.9</ele>
        <time>2023-05-19T15:22:08Z</time>
      </trkpt>
      <trkpt lat="48.0542" lon="7.03067">
        <ele>1009.5</ele>
        <time>2023-05-19T15:22:25Z</time>
      </trkpt>
      <trkpt lat="48.05415" lon="7.03067">
        <ele>1013.9</ele>
        <time>2023-05-19T15:22:29Z</time>
      </trkpt>
      <trkpt lat="48.0541" lon="7.03067">
        <ele>1015.7</ele>
        <time>2023-05-19T15:22:32Z</time>
      </trkpt>
      <trkpt lat="48.05406" lon="7.03069">
        <ele>1015</ele>
        <time>2023-05-19T15:22:37Z</time>
      </trkpt>
      <trkpt lat="48.05402" lon="7.03071">
        <ele>1014.3</ele>
        <time>2023-05-19T15:22:43Z</time>
      </trkpt>
      <trkpt lat="48.05399" lon="7.03076">
        <ele>1010</ele>
        <time>2023-05-19T15:22:49Z</time>
      </trkpt>
      <trkpt lat="48.0539" lon="7.03081">
        <ele>1008.1</ele>
        <time>2023-05-19T15:23:01Z</time>
      </trkpt>
      <trkpt lat="48.05386" lon="7.03086">
        <ele>1007.7</ele>
        <time>2023-05-19T15:23:04Z</time>
      </trkpt>
      <trkpt lat="48.05381" lon="7.03084">
        <ele>1012.7</ele>
        <time>2023-05-19T15:23:18Z</time>
      </trkpt>
      <trkpt lat="48.05374" lon="7.0308">
        <ele>1021</ele>
        <time>2023-05-19T15:23:30Z</time>
      </trkpt>
      <trkpt lat="48.05372" lon="7.03089">
        <ele>1020.1</ele>
        <time>2023-05-19T15:23:42Z</time>
      </trkpt>
      <trkpt lat="48.05371" lon="7.03097">
        <ele>1020.5</ele>
        <time>2023-05-19T15:23:54Z</time>
      </trkpt>
      <trkpt lat="48.05373" lon="7.03104">
        <ele>1017.7</ele>
        <time>2023-05-19T15:23:58Z</time>
      </trkpt>
      <trkpt lat="48.05371" lon="7.03111">
        <ele>1019.5</ele>
        <time>2023-05-19T15:24:12Z</time>
      </trkpt>
      <trkpt lat="48.05371" lon="7.0311">
        <ele>1019.6</ele>
        <time>2023-05-19T15:24:35Z</time>
      </trkpt>
      <trkpt lat="48.05367" lon="7.03105">
        <ele>1024.7</ele>
        <time>2023-05-19T15:24:41Z</time>
      </trkpt>
      <trkpt lat="48.05361" lon="7.03098">
        <ele>1031.1</ele>
        <time>2023-05-19T15:24:45Z</time>
      </trkpt>
      <trkpt lat="48.05359" lon="7.03107">
        <ele>1032.2</ele>
        <time>2023-05-19T15:24:54Z</time>
      </trkpt>
      <trkpt lat="48.05362" lon="7.03113">
        <ele>1030.8</ele>
        <time>2023-05-19T15:24:58Z</time>
      </trkpt>
      <trkpt lat="48.05363" lon="7.0312">
        <ele>1029.1</ele>
        <time>2023-05-19T15:25:06Z</time>
      </trkpt>
      <trkpt lat="48.05365" lon="7.03126">
        <ele>1025.7</ele>
        <time>2023-05-19T15:25:11Z</time>
      </trkpt>
      <trkpt lat="48.05364" lon="7.03138">
        <ele>1026.3</ele>
        <time>2023-05-19T15:25:25Z</time>
      </trkpt>
      <trkpt lat="48.0536" lon="7.03143">
        <ele>1028.4</ele>
        <time>2023-05-19T15:25:37Z</time>
      </trkpt>
      <trkpt lat="48.05354" lon="7.03146">
        <ele>1025.2</ele>
        <time>2023-05-19T15:25:49Z</time>
      </trkpt>
      <trkpt lat="48.0535" lon="7.03141">
        <ele>1027</ele>
        <time>2023-05-19T15:26:01Z</time>
      </trkpt>
      <trkpt lat="48.0534" lon="7.03127">
        <ele>1029.7</ele>
        <time>2023-05-19T15:26:30Z</time>
      </trkpt>
      <trkpt lat="48.05335" lon="7.03123">
        <ele>1030.9</ele>
        <time>2023-05-19T15:26:42Z</time>
      </trkpt>
      <trkpt lat="48.0533" lon="7.03128">
        <ele>1026.5</ele>
        <time>2023-05-19T15:27:06Z</time>
      </trkpt>
      <trkpt lat="48.05323" lon="7.03121">
        <ele>1025.6</ele>
        <time>2023-05-19T15:27:16Z</time>
      </trkpt>
      <trkpt lat="48.05321" lon="7.03115">
        <ele>1027.7</ele>
        <time>2023-05-19T15:27:20Z</time>
      </trkpt>
      <trkpt lat="48.05318" lon="7.03109">
        <ele>1029.5</ele>
        <time>2023-05-19T15:27:23Z</time>
      </trkpt>
      <trkpt lat="48.05314" lon="7.03106">
        <ele>1029.5</ele>
        <time>2023-05-19T15:27:41Z</time>
      </trkpt>
      <trkpt lat="48.0531" lon="7.03102">
        <ele>1030.2</ele>
        <time>2023-05-19T15:27:46Z</time>
      </trkpt>
      <trkpt lat="48.05304" lon="7.03097">
        <ele>1030.3</ele>
        <time>2023-05-19T15:27:55Z</time>
      </trkpt>
      <trkpt lat="48.05298" lon="7.03097">
        <ele>1024.9</ele>
        <time>2023-05-19T15:28:02Z</time>
      </trkpt>
      <trkpt lat="48.05294" lon="7.03091">
        <ele>1025.5</ele>
        <time>2023-05-19T15:28:09Z</time>
      </trkpt>
      <trkpt lat="48.05293" lon="7.03083">
        <ele>1030.4</ele>
        <time>2023-05-19T15:28:17Z</time>
      </trkpt>
      <trkpt lat="48.05289" lon="7.03081">
        <ele>1028.3</ele>
        <time>2023-05-19T15:28:23Z</time>
      </trkpt>
      <trkpt lat="48.05284" lon="7.03082">
        <ele>1023.3</ele>
        <time>2023-05-19T15:28:47Z</time>
      </trkpt>
      <trkpt lat="48.05273" lon="7.03072">
        <ele>1021.5</ele>
        <time>2023-05-19T15:29:04Z</time>
      </trkpt>
      <trkpt lat="48.05265" lon="7.03065">
        <ele>1019.9</ele>
        <time>2023-05-19T15:29:13Z</time>
      </trkpt>
      <trkpt lat="48.05262" lon="7.0306">
        <ele>1020.6</ele>
        <time>2023-05-19T15:29:21Z</time>
      </trkpt>
      <trkpt lat="48.05257" lon="7.03061">
        <ele>1015.9</ele>
        <time>2023-05-19T15:29:26Z</time>
      </trkpt>
      <trkpt lat="48.05248" lon="7.03057">
        <ele>1012.6</ele>
        <time>2023-05-19T15:29:57Z</time>
      </trkpt>
      <trkpt lat="48.05246" lon="7.03065">
        <ele>1008.7</ele>
        <time>2023-05-19T15:30:03Z</time>
      </trkpt>
      <trkpt lat="48.05244" lon="7.03072">
        <ele>1005.3</ele>
        <time>2023-05-19T15:30:23Z</time>
      </trkpt>
      <trkpt lat="48.05237" lon="7.03073">
        <ele>1006.1</ele>
        <time>2023-05-19T15:30:46Z</time>
      </trkpt>
      <trkpt lat="48.05227" lon="7.0308">
        <ele>1004</ele>
        <time>2023-05-19T15:31:04Z</time>
      </trkpt>
      <trkpt lat="48.05214" lon="7.0308">
        <ele>1007.5</ele>
        <time>2023-05-19T15:31:20Z</time>
      </trkpt>
      <trkpt lat="48.0521" lon="7.03085">
        <ele>1005.2</ele>
        <time>2023-05-19T15:31:27Z</time>
      </trkpt>
      <trkpt lat="48.05204" lon="7.03085">
        <ele>1006.9</ele>
        <time>2023-05-19T15:31:39Z</time>
      </trkpt>
      <trkpt lat="48.05199" lon="7.03091">
        <ele>1002.9</ele>
        <time>2023-05-19T15:31:51Z</time>
      </trkpt>
      <trkpt lat="48.05196" lon="7.03097">
        <ele>998</ele>
        <time>2023-05-19T15:32:02Z</time>
      </trkpt>
      <trkpt lat="48.05192" lon="7.03101">
        <ele>995.3</ele>
        <time>2023-05-19T15:32:06Z</time>
      </trkpt>
      <trkpt lat="48.05182" lon="7.03095">
        <ele>1004.7</ele>
        <time>2023-05-19T15:32:19Z</time>
      </trkpt>
      <trkpt lat="48.05176" lon="7.03093">
        <ele>1009</ele>
        <time>2023-05-19T15:32:27Z</time>
      </trkpt>
      <trkpt lat="48.05171" lon="7.03094">
        <ele>1009.8</ele>
        <time>2023-05-19T15:32:32Z</time>
      </trkpt>
      <trkpt lat="48.05166" lon="7.03095">
        <ele>1010.3</ele>
        <time>2023-05-19T15:32:40Z</time>
      </trkpt>
      <trkpt lat="48.05155" lon="7.03095">
        <ele>1009.3</ele>
        <time>2023-05-19T15:32:58Z</time>
      </trkpt>
      <trkpt lat="48.05148" lon="7.03095">
        <ele>1008.6</ele>
        <time>2023-05-19T15:33:09Z</time>
      </trkpt>
      <trkpt lat="48.05143" lon="7.03092">
        <ele>1010</ele>
        <time>2023-05-19T15:33:17Z</time>
      </trkpt>
      <trkpt lat="48.05141" lon="7.03085">
        <ele>1013.7</ele>
        <time>2023-05-19T15:34:24Z</time>
      </trkpt>
      <trkpt lat="48.05135" lon="7.03085">
        <ele>1011.1</ele>
        <time>2023-05-19T15:34:34Z</time>
      </trkpt>
      <trkpt lat="48.05131" lon="7.03083">
        <ele>1010.2</ele>
        <time>2023-05-19T15:34:39Z</time>
      </trkpt>
      <trkpt lat="48.05126" lon="7.0308">
        <ele>1009.3</ele>
        <time>2023-05-19T15:34:47Z</time>
      </trkpt>
      <trkpt lat="48.05118" lon="7.03074">
        <ele>1007.9</ele>
        <time>2023-05-19T15:34:57Z</time>
      </trkpt>
      <trkpt lat="48.05111" lon="7.03067">
        <ele>1007</ele>
        <time>2023-05-19T15:35:08Z</time>
      </trkpt>
      <trkpt lat="48.05103" lon="7.03063">
        <ele>1004.6</ele>
        <time>2023-05-19T15:35:22Z</time>
      </trkpt>
      <trkpt lat="48.05099" lon="7.03065">
        <ele>1001.5</ele>
        <time>2023-05-19T15:35:27Z</time>
      </trkpt>
      <trkpt lat="48.05095" lon="7.03066">
        <ele>998.9</ele>
        <time>2023-05-19T15:35:59Z</time>
      </trkpt>
      <trkpt lat="48.0509" lon="7.03064">
        <ele>997.3</ele>
        <time>2023-05-19T15:36:10Z</time>
      </trkpt>
      <trkpt lat="48.05082" lon="7.03064">
        <ele>993.4</ele>
        <time>2023-05-19T15:36:21Z</time>
      </trkpt>
      <trkpt lat="48.05071" lon="7.03059">
        <ele>993</ele>
        <time>2023-05-19T15:36:41Z</time>
      </trkpt>
      <trkpt lat="48.05067" lon="7.03059">
        <ele>991.7</ele>
        <time>2023-05-19T15:36:44Z</time>
      </trkpt>
      <trkpt lat="48.05063" lon="7.03057">
        <ele>991.6</ele>
        <time>2023-05-19T15:36:47Z</time>
      </trkpt>
      <trkpt lat="48.05058" lon="7.03054">
        <ele>992</ele>
        <time>2023-05-19T15:36:53Z</time>
      </trkpt>
      <trkpt lat="48.05054" lon="7.03048">
        <ele>996.1</ele>
        <time>2023-05-19T15:37:01Z</time>
      </trkpt>
      <trkpt lat="48.0505" lon="7.03045">
        <ele>998.6</ele>
        <time>2023-05-19T15:37:06Z</time>
      </trkpt>
      <trkpt lat="48.05046" lon="7.03047">
        <ele>997.4</ele>
        <time>2023-05-19T15:37:18Z</time>
      </trkpt>
      <trkpt lat="48.05041" lon="7.0305">
        <ele>995.8</ele>
        <time>2023-05-19T15:37:26Z</time>
      </trkpt>
      <trkpt lat="48.05036" lon="7.03047">
        <ele>998.1</ele>
        <time>2023-05-19T15:37:43Z</time>
      </trkpt>
      <trkpt lat="48.05028" lon="7.03049">
        <ele>997.5</ele>
        <time>2023-05-19T15:37:54Z</time>
      </trkpt>
      <trkpt lat="48.05024" lon="7.03051">
        <ele>997.8</ele>
        <time>2023-05-19T15:37:58Z</time>
      </trkpt>
      <trkpt lat="48.05014" lon="7.03053">
        <ele>1000.2</ele>
        <time>2023-05-19T15:38:12Z</time>
      </trkpt>
      <trkpt lat="48.05008" lon="7.03055">
        <ele>1001.4</ele>
        <time>2023-05-19T15:38:20Z</time>
      </trkpt>
      <trkpt lat="48.05003" lon="7.03058">
        <ele>1002</ele>
        <time>2023-05-19T15:38:34Z</time>
      </trkpt>
      <trkpt lat="48.0498" lon="7.0309">
        <ele>1005.5</ele>
        <time>2023-05-19T15:39:05Z</time>
      </trkpt>
      <trkpt lat="48.04972" lon="7.03092">
        <ele>1010.5</ele>
        <time>2023-05-19T15:39:16Z</time>
      </trkpt>
      <trkpt lat="48.04968" lon="7.03102">
        <ele>1010.4</ele>
        <time>2023-05-19T15:39:28Z</time>
      </trkpt>
      <trkpt lat="48.04964" lon="7.03098">
        <ele>1012.6</ele>
        <time>2023-05-19T15:39:45Z</time>
      </trkpt>
      <trkpt lat="48.04963" lon="7.03091">
        <ele>1014.1</ele>
        <time>2023-05-19T15:39:48Z</time>
      </trkpt>
      <trkpt lat="48.04959" lon="7.0309">
        <ele>1015.8</ele>
        <time>2023-05-19T15:40:07Z</time>
      </trkpt>
      <trkpt lat="48.04955" lon="7.03096">
        <ele>1016.5</ele>
        <time>2023-05-19T15:40:15Z</time>
      </trkpt>
      <trkpt lat="48.0495" lon="7.03099">
        <ele>1018.1</ele>
        <time>2023-05-19T15:40:26Z</time>
      </trkpt>
      <trkpt lat="48.04946" lon="7.03097">
        <ele>1019.9</ele>
        <time>2023-05-19T15:40:30Z</time>
      </trkpt>
      <trkpt lat="48.04941" lon="7.03093">
        <ele>1019.5</ele>
        <time>2023-05-19T15:40:34Z</time>
      </trkpt>
      <trkpt lat="48.04936" lon="7.03089">
        <ele>1018</ele>
        <time>2023-05-19T15:40:42Z</time>
      </trkpt>
      <trkpt lat="48.04925" lon="7.03076">
        <ele>1017.5</ele>
        <time>2023-05-19T15:40:54Z</time>
      </trkpt>
      <trkpt lat="48.04923" lon="7.0307">
        <ele>1018.8</ele>
        <time>2023-05-19T15:40:58Z</time>
      </trkpt>
      <trkpt lat="48.04918" lon="7.03067">
        <ele>1017.8</ele>
        <time>2023-05-19T15:41:01Z</time>
      </trkpt>
      <trkpt lat="48.04914" lon="7.03065">
        <ele>1016.4</ele>
        <time>2023-05-19T15:41:05Z</time>
      </trkpt>
      <trkpt lat="48.04911" lon="7.0306">
        <ele>1016.3</ele>
        <time>2023-05-19T15:41:14Z</time>
      </trkpt>
      <trkpt lat="48.04912" lon="7.03053">
        <ele>1019.1</ele>
        <time>2023-05-19T15:41:18Z</time>
      </trkpt>
      <trkpt lat="48.04907" lon="7.03054">
        <ele>1015.9</ele>
        <time>2023-05-19T15:41:43Z</time>
      </trkpt>
      <trkpt lat="48.04908" lon="7.03056">
        <ele>1015.9</ele>
        <time>2023-05-19T15:42:24Z</time>
      </trkpt>
      <trkpt lat="48.04907" lon="7.0306">
        <ele>1014</ele>
        <time>2023-05-19T15:44:18Z</time>
      </trkpt>
      <trkpt lat="48.04906" lon="7.03044">
        <ele>1018.3</ele>
        <time>2023-05-19T15:44:39Z</time>
      </trkpt>
      <trkpt lat="48.04902" lon="7.03051">
        <ele>1014</ele>
        <time>2023-05-19T15:44:48Z</time>
      </trkpt>
      <trkpt lat="48.04905" lon="7.03059">
        <ele>1013.2</ele>
        <time>2023-05-19T15:44:52Z</time>
      </trkpt>
      <trkpt lat="48.0491" lon="7.03064">
        <ele>1014.4</ele>
        <time>2023-05-19T15:44:59Z</time>
      </trkpt>
      <trkpt lat="48.04906" lon="7.0307">
        <ele>1010.2</ele>
        <time>2023-05-19T15:45:05Z</time>
      </trkpt>
      <trkpt lat="48.04902" lon="7.03069">
        <ele>1008.2</ele>
        <time>2023-05-19T15:45:09Z</time>
      </trkpt>
      <trkpt lat="48.04898" lon="7.03066">
        <ele>1006.9</ele>
        <time>2023-05-19T15:45:14Z</time>
      </trkpt>
      <trkpt lat="48.04893" lon="7.03055">
        <ele>1007.5</ele>
        <time>2023-05-19T15:45:21Z</time>
      </trkpt>
      <trkpt lat="48.0489" lon="7.03059">
        <ele>1004.5</ele>
        <time>2023-05-19T15:45:26Z</time>
      </trkpt>
      <trkpt lat="48.04886" lon="7.03055">
        <ele>1003.4</ele>
        <time>2023-05-19T15:45:32Z</time>
      </trkpt>
      <trkpt lat="48.04882" lon="7.03051">
        <ele>1002.3</ele>
        <time>2023-05-19T15:45:35Z</time>
      </trkpt>
      <trkpt lat="48.0488" lon="7.03042">
        <ele>1004</ele>
        <time>2023-05-19T15:45:39Z</time>
      </trkpt>
      <trkpt lat="48.04877" lon="7.03036">
        <ele>1004.1</ele>
        <time>2023-05-19T15:45:43Z</time>
      </trkpt>
      <trkpt lat="48.04872" lon="7.03033">
        <ele>1002</ele>
        <time>2023-05-19T15:45:46Z</time>
      </trkpt>
      <trkpt lat="48.04868" lon="7.03031">
        <ele>1000.2</ele>
        <time>2023-05-19T15:45:49Z</time>
      </trkpt>
      <trkpt lat="48.04865" lon="7.03026">
        <ele>999.8</ele>
        <time>2023-05-19T15:45:54Z</time>
      </trkpt>
      <trkpt lat="48.0486" lon="7.03022">
        <ele>997.8</ele>
        <time>2023-05-19T15:45:59Z</time>
      </trkpt>
      <trkpt lat="48.0486" lon="7.03014">
        <ele>999.9</ele>
        <time>2023-05-19T15:46:03Z</time>
      </trkpt>
      <trkpt lat="48.04855" lon="7.03011">
        <ele>997.8</ele>
        <time>2023-05-19T15:46:07Z</time>
      </trkpt>
      <trkpt lat="48.04852" lon="7.03006">
        <ele>997.5</ele>
        <time>2023-05-19T15:46:11Z</time>
      </trkpt>
      <trkpt lat="48.04849" lon="7.02999">
        <ele>997.8</ele>
        <time>2023-05-19T15:46:17Z</time>
      </trkpt>
      <trkpt lat="48.04844" lon="7.02995">
        <ele>996.3</ele>
        <time>2023-05-19T15:46:21Z</time>
      </trkpt>
      <trkpt lat="48.04843" lon="7.02989">
        <ele>997.5</ele>
        <time>2023-05-19T15:46:25Z</time>
      </trkpt>
      <trkpt lat="48.04839" lon="7.02985">
        <ele>996.5</ele>
        <time>2023-05-19T15:46:29Z</time>
      </trkpt>
      <trkpt lat="48.04835" lon="7.02983">
        <ele>994.8</ele>
        <time>2023-05-19T15:46:32Z</time>
      </trkpt>
      <trkpt lat="48.0483" lon="7.0298">
        <ele>992.8</ele>
        <time>2023-05-19T15:46:41Z</time>
      </trkpt>
      <trkpt lat="48.04828" lon="7.02974">
        <ele>993.2</ele>
        <time>2023-05-19T15:46:46Z</time>
      </trkpt>
      <trkpt lat="48.04823" lon="7.02973">
        <ele>990.5</ele>
        <time>2023-05-19T15:46:50Z</time>
      </trkpt>
      <trkpt lat="48.04819" lon="7.02963">
        <ele>990.7</ele>
        <time>2023-05-19T15:46:58Z</time>
      </trkpt>
      <trkpt lat="48.04815" lon="7.02959">
        <ele>989.3</ele>
        <time>2023-05-19T15:47:01Z</time>
      </trkpt>
      <trkpt lat="48.04812" lon="7.02953">
        <ele>988.9</ele>
        <time>2023-05-19T15:47:05Z</time>
      </trkpt>
      <trkpt lat="48.04811" lon="7.02943">
        <ele>990.9</ele>
        <time>2023-05-19T15:47:12Z</time>
      </trkpt>
      <trkpt lat="48.04801" lon="7.02935">
        <ele>986.7</ele>
        <time>2023-05-19T15:47:20Z</time>
      </trkpt>
      <trkpt lat="48.04797" lon="7.02933">
        <ele>984.8</ele>
        <time>2023-05-19T15:47:23Z</time>
      </trkpt>
      <trkpt lat="48.04795" lon="7.02925">
        <ele>985.6</ele>
        <time>2023-05-19T15:47:31Z</time>
      </trkpt>
      <trkpt lat="48.04794" lon="7.02919">
        <ele>986.4</ele>
        <time>2023-05-19T15:47:34Z</time>
      </trkpt>
      <trkpt lat="48.0478" lon="7.029">
        <ele>982</ele>
        <time>2023-05-19T15:47:52Z</time>
      </trkpt>
      <trkpt lat="48.04775" lon="7.02897">
        <ele>979.7</ele>
        <time>2023-05-19T15:47:59Z</time>
      </trkpt>
      <trkpt lat="48.04774" lon="7.02889">
        <ele>980.9</ele>
        <time>2023-05-19T15:48:03Z</time>
      </trkpt>
      <trkpt lat="48.0477" lon="7.02884">
        <ele>980</ele>
        <time>2023-05-19T15:48:08Z</time>
      </trkpt>
      <trkpt lat="48.04768" lon="7.02875">
        <ele>981</ele>
        <time>2023-05-19T15:48:15Z</time>
      </trkpt>
      <trkpt lat="48.04764" lon="7.02874">
        <ele>979</ele>
        <time>2023-05-19T15:48:22Z</time>
      </trkpt>
      <trkpt lat="48.04765" lon="7.02881">
        <ele>978</ele>
        <time>2023-05-19T15:48:28Z</time>
      </trkpt>
      <trkpt lat="48.04758" lon="7.02874">
        <ele>975.7</ele>
        <time>2023-05-19T15:48:39Z</time>
      </trkpt>
      <trkpt lat="48.0475" lon="7.0287">
        <ele>972.1</ele>
        <time>2023-05-19T15:48:49Z</time>
      </trkpt>
      <trkpt lat="48.04747" lon="7.02862">
        <ele>972.1</ele>
        <time>2023-05-19T15:48:52Z</time>
      </trkpt>
      <trkpt lat="48.04741" lon="7.02851">
        <ele>970.5</ele>
        <time>2023-05-19T15:48:59Z</time>
      </trkpt>
      <trkpt lat="48.04741" lon="7.02843">
        <ele>971.8</ele>
        <time>2023-05-19T15:49:04Z</time>
      </trkpt>
      <trkpt lat="48.04736" lon="7.02843">
        <ele>969.2</ele>
        <time>2023-05-19T15:49:07Z</time>
      </trkpt>
      <trkpt lat="48.0473" lon="7.02837">
        <ele>967.2</ele>
        <time>2023-05-19T15:49:13Z</time>
      </trkpt>
      <trkpt lat="48.04729" lon="7.02827">
        <ele>968.3</ele>
        <time>2023-05-19T15:49:22Z</time>
      </trkpt>
      <trkpt lat="48.04722" lon="7.02816">
        <ele>965.8</ele>
        <time>2023-05-19T15:49:33Z</time>
      </trkpt>
      <trkpt lat="48.04723" lon="7.02808">
        <ele>967.2</ele>
        <time>2023-05-19T15:49:38Z</time>
      </trkpt>
      <trkpt lat="48.04716" lon="7.02795">
        <ele>965.6</ele>
        <time>2023-05-19T15:49:45Z</time>
      </trkpt>
      <trkpt lat="48.04713" lon="7.02791">
        <ele>964.8</ele>
        <time>2023-05-19T15:49:49Z</time>
      </trkpt>
      <trkpt lat="48.04709" lon="7.02786">
        <ele>963.6</ele>
        <time>2023-05-19T15:49:57Z</time>
      </trkpt>
      <trkpt lat="48.04704" lon="7.02782">
        <ele>961.9</ele>
        <time>2023-05-19T15:50:01Z</time>
      </trkpt>
      <trkpt lat="48.047" lon="7.02774">
        <ele>961.3</ele>
        <time>2023-05-19T15:50:09Z</time>
      </trkpt>
      <trkpt lat="48.04696" lon="7.02769">
        <ele>960.3</ele>
        <time>2023-05-19T15:50:17Z</time>
      </trkpt>
      <trkpt lat="48.04691" lon="7.02751">
        <ele>961.6</ele>
        <time>2023-05-19T15:50:25Z</time>
      </trkpt>
      <trkpt lat="48.04689" lon="7.02745">
        <ele>962</ele>
        <time>2023-05-19T15:50:29Z</time>
      </trkpt>
      <trkpt lat="48.04685" lon="7.02737">
        <ele>962.1</ele>
        <time>2023-05-19T15:50:35Z</time>
      </trkpt>
      <trkpt lat="48.04675" lon="7.02735">
        <ele>959.1</ele>
        <time>2023-05-19T15:50:48Z</time>
      </trkpt>
      <trkpt lat="48.04671" lon="7.0273">
        <ele>958.8</ele>
        <time>2023-05-19T15:50:51Z</time>
      </trkpt>
      <trkpt lat="48.04667" lon="7.02718">
        <ele>959.7</ele>
        <time>2023-05-19T15:51:00Z</time>
      </trkpt>
      <trkpt lat="48.04668" lon="7.02711">
        <ele>961</ele>
        <time>2023-05-19T15:51:04Z</time>
      </trkpt>
      <trkpt lat="48.04662" lon="7.02704">
        <ele>960.4</ele>
        <time>2023-05-19T15:51:10Z</time>
      </trkpt>
      <trkpt lat="48.04659" lon="7.027">
        <ele>960.3</ele>
        <time>2023-05-19T15:51:16Z</time>
      </trkpt>
      <trkpt lat="48.04656" lon="7.02693">
        <ele>961</ele>
        <time>2023-05-19T15:51:36Z</time>
      </trkpt>
      <trkpt lat="48.04658" lon="7.02685">
        <ele>963.3</ele>
        <time>2023-05-19T15:51:44Z</time>
      </trkpt>
      <trkpt lat="48.04661" lon="7.02679">
        <ele>965.2</ele>
        <time>2023-05-19T15:51:46Z</time>
      </trkpt>
      <trkpt lat="48.04657" lon="7.02675">
        <ele>965.4</ele>
        <time>2023-05-19T15:51:52Z</time>
      </trkpt>
      <trkpt lat="48.04646" lon="7.02671">
        <ele>964.2</ele>
        <time>2023-05-19T15:51:57Z</time>
      </trkpt>
      <trkpt lat="48.04643" lon="7.02666">
        <ele>964.9</ele>
        <time>2023-05-19T15:52:00Z</time>
      </trkpt>
      <trkpt lat="48.04632" lon="7.02661">
        <ele>964.5</ele>
        <time>2023-05-19T15:52:07Z</time>
      </trkpt>
      <trkpt lat="48.04631" lon="7.02654">
        <ele>965.9</ele>
        <time>2023-05-19T15:52:09Z</time>
      </trkpt>
      <trkpt lat="48.04616" lon="7.02641">
        <ele>967.1</ele>
        <time>2023-05-19T15:52:22Z</time>
      </trkpt>
      <trkpt lat="48.04612" lon="7.02634">
        <ele>967.3</ele>
        <time>2023-05-19T15:52:28Z</time>
      </trkpt>
      <trkpt lat="48.0461" lon="7.02628">
        <ele>967.2</ele>
        <time>2023-05-19T15:52:31Z</time>
      </trkpt>
      <trkpt lat="48.04609" lon="7.0262">
        <ele>967.3</ele>
        <time>2023-05-19T15:52:33Z</time>
      </trkpt>
      <trkpt lat="48.0461" lon="7.02612">
        <ele>967.8</ele>
        <time>2023-05-19T15:52:37Z</time>
      </trkpt>
      <trkpt lat="48.04612" lon="7.02606">
        <ele>968.1</ele>
        <time>2023-05-19T15:52:41Z</time>
      </trkpt>
      <trkpt lat="48.04615" lon="7.026">
        <ele>968.4</ele>
        <time>2023-05-19T15:52:45Z</time>
      </trkpt>
      <trkpt lat="48.0462" lon="7.02595">
        <ele>968.9</ele>
        <time>2023-05-19T15:52:49Z</time>
      </trkpt>
      <trkpt lat="48.04625" lon="7.02593">
        <ele>969.3</ele>
        <time>2023-05-19T15:52:54Z</time>
      </trkpt>
      <trkpt lat="48.04647" lon="7.02562">
        <ele>970.2</ele>
        <time>2023-05-19T15:53:25Z</time>
      </trkpt>
      <trkpt lat="48.04652" lon="7.02562">
        <ele>970.8</ele>
        <time>2023-05-19T15:53:28Z</time>
      </trkpt>
      <trkpt lat="48.04654" lon="7.02554">
        <ele>971.2</ele>
        <time>2023-05-19T15:53:31Z</time>
      </trkpt>
      <trkpt lat="48.04658" lon="7.02549">
        <ele>971.7</ele>
        <time>2023-05-19T15:53:36Z</time>
      </trkpt>
      <trkpt lat="48.04663" lon="7.02545">
        <ele>972.4</ele>
        <time>2023-05-19T15:53:38Z</time>
      </trkpt>
      <trkpt lat="48.04668" lon="7.02524">
        <ele>973.4</ele>
        <time>2023-05-19T15:53:48Z</time>
      </trkpt>
      <trkpt lat="48.04672" lon="7.0252">
        <ele>974.7</ele>
        <time>2023-05-19T15:53:52Z</time>
      </trkpt>
      <trkpt lat="48.04675" lon="7.02511">
        <ele>975.6</ele>
        <time>2023-05-19T15:54:01Z</time>
      </trkpt>
      <trkpt lat="48.04673" lon="7.02504">
        <ele>974.6</ele>
        <time>2023-05-19T15:54:04Z</time>
      </trkpt>
      <trkpt lat="48.04675" lon="7.02491">
        <ele>975.1</ele>
        <time>2023-05-19T15:54:12Z</time>
      </trkpt>
      <trkpt lat="48.04679" lon="7.02482">
        <ele>976.5</ele>
        <time>2023-05-19T15:54:19Z</time>
      </trkpt>
      <trkpt lat="48.0468" lon="7.02462">
        <ele>977.7</ele>
        <time>2023-05-19T15:54:35Z</time>
      </trkpt>
      <trkpt lat="48.04676" lon="7.02449">
        <ele>977.3</ele>
        <time>2023-05-19T15:54:43Z</time>
      </trkpt>
      <trkpt lat="48.04673" lon="7.02442">
        <ele>976.8</ele>
        <time>2023-05-19T15:54:46Z</time>
      </trkpt>
      <trkpt lat="48.04662" lon="7.02439">
        <ele>973.2</ele>
        <time>2023-05-19T15:54:51Z</time>
      </trkpt>
      <trkpt lat="48.04669" lon="7.02432">
        <ele>976.3</ele>
        <time>2023-05-19T15:54:54Z</time>
      </trkpt>
      <trkpt lat="48.04669" lon="7.0241">
        <ele>978.1</ele>
        <time>2023-05-19T15:55:08Z</time>
      </trkpt>
      <trkpt lat="48.04672" lon="7.02403">
        <ele>979.6</ele>
        <time>2023-05-19T15:55:12Z</time>
      </trkpt>
      <trkpt lat="48.04669" lon="7.0239">
        <ele>978.2</ele>
        <time>2023-05-19T15:55:19Z</time>
      </trkpt>
      <trkpt lat="48.04672" lon="7.02369">
        <ele>980.2</ele>
        <time>2023-05-19T15:55:31Z</time>
      </trkpt>
      <trkpt lat="48.04679" lon="7.02341">
        <ele>984.2</ele>
        <time>2023-05-19T15:55:46Z</time>
      </trkpt>
      <trkpt lat="48.04682" lon="7.02333">
        <ele>985.9</ele>
        <time>2023-05-19T15:55:54Z</time>
      </trkpt>
      <trkpt lat="48.04679" lon="7.02308">
        <ele>985.4</ele>
        <time>2023-05-19T15:56:12Z</time>
      </trkpt>
      <trkpt lat="48.04684" lon="7.02291">
        <ele>990.4</ele>
        <time>2023-05-19T15:56:19Z</time>
      </trkpt>
      <trkpt lat="48.04683" lon="7.02284">
        <ele>990.6</ele>
        <time>2023-05-19T15:56:24Z</time>
      </trkpt>
      <trkpt lat="48.04684" lon="7.02277">
        <ele>992.1</ele>
        <time>2023-05-19T15:56:30Z</time>
      </trkpt>
      <trkpt lat="48.04679" lon="7.02269">
        <ele>990.8</ele>
        <time>2023-05-19T15:56:37Z</time>
      </trkpt>
      <trkpt lat="48.04678" lon="7.02262">
        <ele>991.6</ele>
        <time>2023-05-19T15:56:40Z</time>
      </trkpt>
      <trkpt lat="48.04669" lon="7.02266">
        <ele>985.5</ele>
        <time>2023-05-19T15:56:45Z</time>
      </trkpt>
      <trkpt lat="48.04669" lon="7.02255">
        <ele>987.5</ele>
        <time>2023-05-19T15:56:47Z</time>
      </trkpt>
      <trkpt lat="48.04669" lon="7.02247">
        <ele>989.3</ele>
        <time>2023-05-19T15:56:51Z</time>
      </trkpt>
      <trkpt lat="48.04671" lon="7.02231">
        <ele>994.9</ele>
        <time>2023-05-19T15:57:01Z</time>
      </trkpt>
      <trkpt lat="48.04665" lon="7.02226">
        <ele>993.1</ele>
        <time>2023-05-19T15:57:08Z</time>
      </trkpt>
      <trkpt lat="48.04663" lon="7.02219">
        <ele>993.7</ele>
        <time>2023-05-19T15:57:13Z</time>
      </trkpt>
      <trkpt lat="48.04659" lon="7.02209">
        <ele>993.6</ele>
        <time>2023-05-19T15:57:22Z</time>
      </trkpt>
      <trkpt lat="48.04661" lon="7.02168">
        <ele>998.1</ele>
        <time>2023-05-19T15:57:39Z</time>
      </trkpt>
      <trkpt lat="48.0466" lon="7.02153">
        <ele>999.4</ele>
        <time>2023-05-19T15:57:50Z</time>
      </trkpt>
      <trkpt lat="48.04662" lon="7.02146">
        <ele>1000.8</ele>
        <time>2023-05-19T15:57:54Z</time>
      </trkpt>
      <trkpt lat="48.04661" lon="7.02138">
        <ele>1001.6</ele>
        <time>2023-05-19T15:57:57Z</time>
      </trkpt>
      <trkpt lat="48.04662" lon="7.02131">
        <ele>1003.7</ele>
        <time>2023-05-19T15:57:59Z</time>
      </trkpt>
      <trkpt lat="48.0466" lon="7.02125">
        <ele>1004.8</ele>
        <time>2023-05-19T15:58:03Z</time>
      </trkpt>
      <trkpt lat="48.04657" lon="7.02116">
        <ele>1006.6</ele>
        <time>2023-05-19T15:58:11Z</time>
      </trkpt>
      <trkpt lat="48.04648" lon="7.02109">
        <ele>1006.8</ele>
        <time>2023-05-19T15:58:19Z</time>
      </trkpt>
      <trkpt lat="48.04635" lon="7.02107">
        <ele>1005.4</ele>
        <time>2023-05-19T15:58:33Z</time>
      </trkpt>
      <trkpt lat="48.04625" lon="7.02098">
        <ele>1008.7</ele>
        <time>2023-05-19T15:58:47Z</time>
      </trkpt>
      <trkpt lat="48.04613" lon="7.02094">
        <ele>1010.1</ele>
        <time>2023-05-19T15:59:01Z</time>
      </trkpt>
      <trkpt lat="48.04609" lon="7.0209">
        <ele>1011.9</ele>
        <time>2023-05-19T15:59:05Z</time>
      </trkpt>
      <trkpt lat="48.04604" lon="7.02089">
        <ele>1012.3</ele>
        <time>2023-05-19T15:59:08Z</time>
      </trkpt>
      <trkpt lat="48.04592" lon="7.02087">
        <ele>1013</ele>
        <time>2023-05-19T15:59:23Z</time>
      </trkpt>
      <trkpt lat="48.04582" lon="7.02082">
        <ele>1014.3</ele>
        <time>2023-05-19T15:59:33Z</time>
      </trkpt>
      <trkpt lat="48.04576" lon="7.02082">
        <ele>1013.4</ele>
        <time>2023-05-19T15:59:37Z</time>
      </trkpt>
      <trkpt lat="48.04573" lon="7.02077">
        <ele>1014.8</ele>
        <time>2023-05-19T15:59:40Z</time>
      </trkpt>
      <trkpt lat="48.04568" lon="7.02075">
        <ele>1014.8</ele>
        <time>2023-05-19T15:59:44Z</time>
      </trkpt>
      <trkpt lat="48.04563" lon="7.0207">
        <ele>1015.9</ele>
        <time>2023-05-19T15:59:52Z</time>
      </trkpt>
      <trkpt lat="48.04558" lon="7.02065">
        <ele>1017</ele>
        <time>2023-05-19T15:59:58Z</time>
      </trkpt>
      <trkpt lat="48.04554" lon="7.02063">
        <ele>1017.6</ele>
        <time>2023-05-19T16:00:02Z</time>
      </trkpt>
      <trkpt lat="48.04543" lon="7.02049">
        <ele>1023.6</ele>
        <time>2023-05-19T16:00:14Z</time>
      </trkpt>
      <trkpt lat="48.04537" lon="7.02034">
        <ele>1027.1</ele>
        <time>2023-05-19T16:00:24Z</time>
      </trkpt>
      <trkpt lat="48.04538" lon="7.02023">
        <ele>1029.3</ele>
        <time>2023-05-19T16:00:31Z</time>
      </trkpt>
      <trkpt lat="48.04531" lon="7.0202">
        <ele>1029</ele>
        <time>2023-05-19T16:00:41Z</time>
      </trkpt>
      <trkpt lat="48.04526" lon="7.02028">
        <ele>1027.6</ele>
        <time>2023-05-19T16:00:47Z</time>
      </trkpt>
      <trkpt lat="48.04523" lon="7.02045">
        <ele>1026.6</ele>
        <time>2023-05-19T16:00:59Z</time>
      </trkpt>
      <trkpt lat="48.04519" lon="7.02055">
        <ele>1026.6</ele>
        <time>2023-05-19T16:01:09Z</time>
      </trkpt>
      <trkpt lat="48.04516" lon="7.02062">
        <ele>1026.2</ele>
        <time>2023-05-19T16:01:13Z</time>
      </trkpt>
      <trkpt lat="48.04512" lon="7.02065">
        <ele>1026.8</ele>
        <time>2023-05-19T16:01:19Z</time>
      </trkpt>
      <trkpt lat="48.04507" lon="7.02068">
        <ele>1027.7</ele>
        <time>2023-05-19T16:01:24Z</time>
      </trkpt>
      <trkpt lat="48.04502" lon="7.02072">
        <ele>1028.5</ele>
        <time>2023-05-19T16:01:28Z</time>
      </trkpt>
      <trkpt lat="48.04472" lon="7.0209">
        <ele>1028.8</ele>
        <time>2023-05-19T16:01:58Z</time>
      </trkpt>
      <trkpt lat="48.04468" lon="7.02095">
        <ele>1027.1</ele>
        <time>2023-05-19T16:02:02Z</time>
      </trkpt>
      <trkpt lat="48.0446" lon="7.021">
        <ele>1026</ele>
        <time>2023-05-19T16:02:11Z</time>
      </trkpt>
      <trkpt lat="48.04451" lon="7.02104">
        <ele>1025.8</ele>
        <time>2023-05-19T16:02:18Z</time>
      </trkpt>
      <trkpt lat="48.04446" lon="7.02107">
        <ele>1026</ele>
        <time>2023-05-19T16:02:21Z</time>
      </trkpt>
      <trkpt lat="48.04443" lon="7.02108">
        <ele>1026.1</ele>
        <time>2023-05-19T16:02:25Z</time>
      </trkpt>
      <trkpt lat="48.04436" lon="7.02109">
        <ele>1026.2</ele>
        <time>2023-05-19T16:02:34Z</time>
      </trkpt>
      <trkpt lat="48.0443" lon="7.02111">
        <ele>1026.5</ele>
        <time>2023-05-19T16:02:38Z</time>
      </trkpt>
      <trkpt lat="48.04426" lon="7.0211">
        <ele>1026.5</ele>
        <time>2023-05-19T16:02:42Z</time>
      </trkpt>
      <trkpt lat="48.04421" lon="7.02112">
        <ele>1026.6</ele>
        <time>2023-05-19T16:02:44Z</time>
      </trkpt>
      <trkpt lat="48.04417" lon="7.0211">
        <ele>1026.8</ele>
        <time>2023-05-19T16:03:00Z</time>
      </trkpt>
      <trkpt lat="48.04404" lon="7.02118">
        <ele>1026.4</ele>
        <time>2023-05-19T16:03:17Z</time>
      </trkpt>
      <trkpt lat="48.044" lon="7.0212">
        <ele>1026.4</ele>
        <time>2023-05-19T16:03:21Z</time>
      </trkpt>
      <trkpt lat="48.04396" lon="7.02119">
        <ele>1026.9</ele>
        <time>2023-05-19T16:03:26Z</time>
      </trkpt>
      <trkpt lat="48.04392" lon="7.02122">
        <ele>1026.9</ele>
        <time>2023-05-19T16:03:30Z</time>
      </trkpt>
      <trkpt lat="48.04387" lon="7.02129">
        <ele>1027</ele>
        <time>2023-05-19T16:03:36Z</time>
      </trkpt>
      <trkpt lat="48.04382" lon="7.02131">
        <ele>1027.5</ele>
        <time>2023-05-19T16:03:42Z</time>
      </trkpt>
      <trkpt lat="48.04377" lon="7.02131">
        <ele>1028.1</ele>
        <time>2023-05-19T16:03:46Z</time>
      </trkpt>
      <trkpt lat="48.04369" lon="7.02136">
        <ele>1028.5</ele>
        <time>2023-05-19T16:03:52Z</time>
      </trkpt>
      <trkpt lat="48.0435" lon="7.02136">
        <ele>1030.2</ele>
        <time>2023-05-19T16:04:12Z</time>
      </trkpt>
      <trkpt lat="48.04343" lon="7.02136">
        <ele>1030.7</ele>
        <time>2023-05-19T16:04:18Z</time>
      </trkpt>
      <trkpt lat="48.04338" lon="7.02138">
        <ele>1030.8</ele>
        <time>2023-05-19T16:04:25Z</time>
      </trkpt>
      <trkpt lat="48.04332" lon="7.02141">
        <ele>1031</ele>
        <time>2023-05-19T16:04:31Z</time>
      </trkpt>
      <trkpt lat="48.04328" lon="7.02145">
        <ele>1031</ele>
        <time>2023-05-19T16:04:35Z</time>
      </trkpt>
      <trkpt lat="48.04323" lon="7.02145">
        <ele>1031.3</ele>
        <time>2023-05-19T16:04:39Z</time>
      </trkpt>
      <trkpt lat="48.04319" lon="7.02142">
        <ele>1031.7</ele>
        <time>2023-05-19T16:04:43Z</time>
      </trkpt>
      <trkpt lat="48.04292" lon="7.02177">
        <ele>1026.5</ele>
        <time>2023-05-19T16:09:57Z</time>
      </trkpt>
      <trkpt lat="48.04281" lon="7.02181">
        <ele>1025.4</ele>
        <time>2023-05-19T16:10:05Z</time>
      </trkpt>
      <trkpt lat="48.04276" lon="7.02183">
        <ele>1024.8</ele>
        <time>2023-05-19T16:10:09Z</time>
      </trkpt>
      <trkpt lat="48.04273" lon="7.02187">
        <ele>1023.6</ele>
        <time>2023-05-19T16:10:13Z</time>
      </trkpt>
      <trkpt lat="48.04264" lon="7.02202">
        <ele>1021.3</ele>
        <time>2023-05-19T16:10:25Z</time>
      </trkpt>
      <trkpt lat="48.04262" lon="7.02208">
        <ele>1020.9</ele>
        <time>2023-05-19T16:10:29Z</time>
      </trkpt>
      <trkpt lat="48.04253" lon="7.02238">
        <ele>1018.8</ele>
        <time>2023-05-19T16:10:47Z</time>
      </trkpt>
      <trkpt lat="48.04247" lon="7.0225">
        <ele>1018.2</ele>
        <time>2023-05-19T16:10:58Z</time>
      </trkpt>
      <trkpt lat="48.04245" lon="7.02256">
        <ele>1019.5</ele>
        <time>2023-05-19T16:11:02Z</time>
      </trkpt>
      <trkpt lat="48.04243" lon="7.02266">
        <ele>1021.5</ele>
        <time>2023-05-19T16:11:09Z</time>
      </trkpt>
      <trkpt lat="48.04247" lon="7.02271">
        <ele>1022.1</ele>
        <time>2023-05-19T16:11:17Z</time>
      </trkpt>
      <trkpt lat="48.04246" lon="7.0228">
        <ele>1023.7</ele>
        <time>2023-05-19T16:11:25Z</time>
      </trkpt>
      <trkpt lat="48.04247" lon="7.02289">
        <ele>1024.8</ele>
        <time>2023-05-19T16:11:37Z</time>
      </trkpt>
      <trkpt lat="48.04245" lon="7.023">
        <ele>1026.7</ele>
        <time>2023-05-19T16:11:47Z</time>
      </trkpt>
      <trkpt lat="48.04243" lon="7.0231">
        <ele>1028.3</ele>
        <time>2023-05-19T16:11:59Z</time>
      </trkpt>
      <trkpt lat="48.04239" lon="7.02316">
        <ele>1030</ele>
        <time>2023-05-19T16:12:11Z</time>
      </trkpt>
      <trkpt lat="48.04241" lon="7.02322">
        <ele>1029.8</ele>
        <time>2023-05-19T16:12:17Z</time>
      </trkpt>
      <trkpt lat="48.04242" lon="7.02332">
        <ele>1030.1</ele>
        <time>2023-05-19T16:12:29Z</time>
      </trkpt>
      <trkpt lat="48.04238" lon="7.0234">
        <ele>1030.5</ele>
        <time>2023-05-19T16:12:40Z</time>
      </trkpt>
      <trkpt lat="48.04232" lon="7.02339">
        <ele>1033.5</ele>
        <time>2023-05-19T16:12:45Z</time>
      </trkpt>
      <trkpt lat="48.0423" lon="7.02348">
        <ele>1033.6</ele>
        <time>2023-05-19T16:12:51Z</time>
      </trkpt>
      <trkpt lat="48.04228" lon="7.02355">
        <ele>1034.3</ele>
        <time>2023-05-19T16:13:00Z</time>
      </trkpt>
      <trkpt lat="48.04222" lon="7.02363">
        <ele>1037.5</ele>
        <time>2023-05-19T16:13:11Z</time>
      </trkpt>
      <trkpt lat="48.0422" lon="7.02353">
        <ele>1038.8</ele>
        <time>2023-05-19T16:13:17Z</time>
      </trkpt>
      <trkpt lat="48.04212" lon="7.02345">
        <ele>1042</ele>
        <time>2023-05-19T16:13:26Z</time>
      </trkpt>
      <trkpt lat="48.04209" lon="7.0234">
        <ele>1043.4</ele>
        <time>2023-05-19T16:13:30Z</time>
      </trkpt>
      <trkpt lat="48.04209" lon="7.0235">
        <ele>1042.9</ele>
        <time>2023-05-19T16:13:43Z</time>
      </trkpt>
      <trkpt lat="48.04206" lon="7.02355">
        <ele>1043.6</ele>
        <time>2023-05-19T16:13:47Z</time>
      </trkpt>
      <trkpt lat="48.04198" lon="7.02352">
        <ele>1046.7</ele>
        <time>2023-05-19T16:13:58Z</time>
      </trkpt>
      <trkpt lat="48.04195" lon="7.02343">
        <ele>1048.7</ele>
        <time>2023-05-19T16:14:09Z</time>
      </trkpt>
      <trkpt lat="48.04189" lon="7.0234">
        <ele>1051.6</ele>
        <time>2023-05-19T16:14:14Z</time>
      </trkpt>
      <trkpt lat="48.04187" lon="7.02334">
        <ele>1052.7</ele>
        <time>2023-05-19T16:14:18Z</time>
      </trkpt>
      <trkpt lat="48.04182" lon="7.02329">
        <ele>1053.1</ele>
        <time>2023-05-19T16:14:24Z</time>
      </trkpt>
      <trkpt lat="48.04182" lon="7.02337">
        <ele>1054.5</ele>
        <time>2023-05-19T16:14:30Z</time>
      </trkpt>
      <trkpt lat="48.04188" lon="7.02342">
        <ele>1051.9</ele>
        <time>2023-05-19T16:14:37Z</time>
      </trkpt>
      <trkpt lat="48.04189" lon="7.02352">
        <ele>1050.9</ele>
        <time>2023-05-19T16:14:45Z</time>
      </trkpt>
      <trkpt lat="48.04186" lon="7.02359">
        <ele>1052.2</ele>
        <time>2023-05-19T16:14:57Z</time>
      </trkpt>
      <trkpt lat="48.04181" lon="7.02364">
        <ele>1054.2</ele>
        <time>2023-05-19T16:15:02Z</time>
      </trkpt>
      <trkpt lat="48.04178" lon="7.02374">
        <ele>1052.6</ele>
        <time>2023-05-19T16:15:12Z</time>
      </trkpt>
      <trkpt lat="48.04173" lon="7.02378">
        <ele>1054.2</ele>
        <time>2023-05-19T16:15:18Z</time>
      </trkpt>
      <trkpt lat="48.04168" lon="7.02375">
        <ele>1058.2</ele>
        <time>2023-05-19T16:15:27Z</time>
      </trkpt>
      <trkpt lat="48.04164" lon="7.02371">
        <ele>1062</ele>
        <time>2023-05-19T16:15:32Z</time>
      </trkpt>
      <trkpt lat="48.04159" lon="7.02369">
        <ele>1065.5</ele>
        <time>2023-05-19T16:15:36Z</time>
      </trkpt>
      <trkpt lat="48.04157" lon="7.0236">
        <ele>1069.1</ele>
        <time>2023-05-19T16:15:50Z</time>
      </trkpt>
      <trkpt lat="48.04155" lon="7.02354">
        <ele>1069.4</ele>
        <time>2023-05-19T16:15:54Z</time>
      </trkpt>
      <trkpt lat="48.04152" lon="7.0236">
        <ele>1071.8</ele>
        <time>2023-05-19T16:15:57Z</time>
      </trkpt>
      <trkpt lat="48.04151" lon="7.02351">
        <ele>1071.2</ele>
        <time>2023-05-19T16:16:24Z</time>
      </trkpt>
      <trkpt lat="48.04151" lon="7.02344">
        <ele>1070.3</ele>
        <time>2023-05-19T16:16:29Z</time>
      </trkpt>
      <trkpt lat="48.04148" lon="7.0234">
        <ele>1071.6</ele>
        <time>2023-05-19T16:16:35Z</time>
      </trkpt>
      <trkpt lat="48.04142" lon="7.02342">
        <ele>1075.2</ele>
        <time>2023-05-19T16:16:53Z</time>
      </trkpt>
      <trkpt lat="48.04139" lon="7.02341">
        <ele>1076.8</ele>
        <time>2023-05-19T16:17:14Z</time>
      </trkpt>
      <trkpt lat="48.04126" lon="7.0233">
        <ele>1089.4</ele>
        <time>2023-05-19T16:17:36Z</time>
      </trkpt>
      <trkpt lat="48.04122" lon="7.02325">
        <ele>1090.2</ele>
        <time>2023-05-19T16:17:39Z</time>
      </trkpt>
      <trkpt lat="48.04121" lon="7.02317">
        <ele>1085</ele>
        <time>2023-05-19T16:17:43Z</time>
      </trkpt>
      <trkpt lat="48.04116" lon="7.0231">
        <ele>1083.4</ele>
        <time>2023-05-19T16:17:52Z</time>
      </trkpt>
      <trkpt lat="48.04116" lon="7.02302">
        <ele>1078.3</ele>
        <time>2023-05-19T16:17:58Z</time>
      </trkpt>
      <trkpt lat="48.04112" lon="7.02298">
        <ele>1079.9</ele>
        <time>2023-05-19T16:18:02Z</time>
      </trkpt>
      <trkpt lat="48.04099" lon="7.02285">
        <ele>1086.1</ele>
        <time>2023-05-19T16:18:18Z</time>
      </trkpt>
      <trkpt lat="48.04097" lon="7.02276">
        <ele>1084.8</ele>
        <time>2023-05-19T16:18:28Z</time>
      </trkpt>
      <trkpt lat="48.04094" lon="7.02269">
        <ele>1087.5</ele>
        <time>2023-05-19T16:18:36Z</time>
      </trkpt>
      <trkpt lat="48.04085" lon="7.02264">
        <ele>1094.3</ele>
        <time>2023-05-19T16:18:48Z</time>
      </trkpt>
      <trkpt lat="48.0408" lon="7.02253">
        <ele>1097.5</ele>
        <time>2023-05-19T16:19:02Z</time>
      </trkpt>
      <trkpt lat="48.04082" lon="7.02247">
        <ele>1097.1</ele>
        <time>2023-05-19T16:19:11Z</time>
      </trkpt>
      <trkpt lat="48.04081" lon="7.02239">
        <ele>1098.9</ele>
        <time>2023-05-19T16:19:23Z</time>
      </trkpt>
      <trkpt lat="48.04077" lon="7.0223">
        <ele>1101.9</ele>
        <time>2023-05-19T16:19:41Z</time>
      </trkpt>
      <trkpt lat="48.0408" lon="7.02224">
        <ele>1101.8</ele>
        <time>2023-05-19T16:19:46Z</time>
      </trkpt>
      <trkpt lat="48.04083" lon="7.02215">
        <ele>1102.7</ele>
        <time>2023-05-19T16:19:55Z</time>
      </trkpt>
      <trkpt lat="48.04078" lon="7.02211">
        <ele>1104.8</ele>
        <time>2023-05-19T16:20:07Z</time>
      </trkpt>
      <trkpt lat="48.0408" lon="7.02203">
        <ele>1105.9</ele>
        <time>2023-05-19T16:20:12Z</time>
      </trkpt>
      <trkpt lat="48.04078" lon="7.02197">
        <ele>1107.5</ele>
        <time>2023-05-19T16:20:21Z</time>
      </trkpt>
      <trkpt lat="48.04073" lon="7.02192">
        <ele>1109.2</ele>
        <time>2023-05-19T16:20:39Z</time>
      </trkpt>
      <trkpt lat="48.04066" lon="7.02201">
        <ele>1109.3</ele>
        <time>2023-05-19T16:21:25Z</time>
      </trkpt>
      <trkpt lat="48.04055" lon="7.02205">
        <ele>1111.4</ele>
        <time>2023-05-19T16:21:37Z</time>
      </trkpt>
      <trkpt lat="48.0405" lon="7.02211">
        <ele>1112.5</ele>
        <time>2023-05-19T16:21:42Z</time>
      </trkpt>
      <trkpt lat="48.04051" lon="7.02218">
        <ele>1111.8</ele>
        <time>2023-05-19T16:21:47Z</time>
      </trkpt>
      <trkpt lat="48.04048" lon="7.02224">
        <ele>1112.7</ele>
        <time>2023-05-19T16:21:51Z</time>
      </trkpt>
      <trkpt lat="48.04048" lon="7.02231">
        <ele>1112.7</ele>
        <time>2023-05-19T16:21:58Z</time>
      </trkpt>
      <trkpt lat="48.04043" lon="7.02232">
        <ele>1114.8</ele>
        <time>2023-05-19T16:22:02Z</time>
      </trkpt>
      <trkpt lat="48.04034" lon="7.02219">
        <ele>1117.6</ele>
        <time>2023-05-19T16:22:11Z</time>
      </trkpt>
      <trkpt lat="48.04033" lon="7.02224">
        <ele>1118.3</ele>
        <time>2023-05-19T16:22:23Z</time>
      </trkpt>
      <trkpt lat="48.04028" lon="7.02246">
        <ele>1122.5</ele>
        <time>2023-05-19T16:22:47Z</time>
      </trkpt>
      <trkpt lat="48.04022" lon="7.0224">
        <ele>1124.8</ele>
        <time>2023-05-19T16:22:51Z</time>
      </trkpt>
      <trkpt lat="48.04014" lon="7.02229">
        <ele>1127</ele>
        <time>2023-05-19T16:22:59Z</time>
      </trkpt>
      <trkpt lat="48.04012" lon="7.02221">
        <ele>1126.7</ele>
        <time>2023-05-19T16:23:02Z</time>
      </trkpt>
      <trkpt lat="48.04012" lon="7.02225">
        <ele>1127.3</ele>
        <time>2023-05-19T16:23:23Z</time>
      </trkpt>
      <trkpt lat="48.04004" lon="7.02228">
        <ele>1131.4</ele>
        <time>2023-05-19T16:23:34Z</time>
      </trkpt>
      <trkpt lat="48.04006" lon="7.02238">
        <ele>1132.4</ele>
        <time>2023-05-19T16:23:42Z</time>
      </trkpt>
      <trkpt lat="48.04011" lon="7.02241">
        <ele>1130.5</ele>
        <time>2023-05-19T16:23:46Z</time>
      </trkpt>
      <trkpt lat="48.04015" lon="7.02248">
        <ele>1129.6</ele>
        <time>2023-05-19T16:23:54Z</time>
      </trkpt>
      <trkpt lat="48.04018" lon="7.02256">
        <ele>1130</ele>
        <time>2023-05-19T16:24:02Z</time>
      </trkpt>
      <trkpt lat="48.04022" lon="7.02266">
        <ele>1130.5</ele>
        <time>2023-05-19T16:24:13Z</time>
      </trkpt>
      <trkpt lat="48.04021" lon="7.02273">
        <ele>1133.1</ele>
        <time>2023-05-19T16:24:25Z</time>
      </trkpt>
      <trkpt lat="48.04016" lon="7.02274">
        <ele>1136.5</ele>
        <time>2023-05-19T16:24:33Z</time>
      </trkpt>
      <trkpt lat="48.0401" lon="7.02268">
        <ele>1138.4</ele>
        <time>2023-05-19T16:24:37Z</time>
      </trkpt>
      <trkpt lat="48.04008" lon="7.02262">
        <ele>1137.6</ele>
        <time>2023-05-19T16:24:40Z</time>
      </trkpt>
      <trkpt lat="48.0401" lon="7.02268">
        <ele>1138.4</ele>
        <time>2023-05-19T16:24:58Z</time>
      </trkpt>
      <trkpt lat="48.04014" lon="7.02273">
        <ele>1137.5</ele>
        <time>2023-05-19T16:25:06Z</time>
      </trkpt>
      <trkpt lat="48.04008" lon="7.02277">
        <ele>1142.6</ele>
        <time>2023-05-19T16:25:11Z</time>
      </trkpt>
      <trkpt lat="48.04003" lon="7.02274">
        <ele>1144.7</ele>
        <time>2023-05-19T16:25:19Z</time>
      </trkpt>
      <trkpt lat="48.04003" lon="7.02286">
        <ele>1149.1</ele>
        <time>2023-05-19T16:25:49Z</time>
      </trkpt>
      <trkpt lat="48.03998" lon="7.02285">
        <ele>1151.9</ele>
        <time>2023-05-19T16:25:55Z</time>
      </trkpt>
      <trkpt lat="48.03994" lon="7.02286">
        <ele>1155</ele>
        <time>2023-05-19T16:26:16Z</time>
      </trkpt>
      <trkpt lat="48.0399" lon="7.02281">
        <ele>1156</ele>
        <time>2023-05-19T16:26:20Z</time>
      </trkpt>
      <trkpt lat="48.03989" lon="7.02271">
        <ele>1153.2</ele>
        <time>2023-05-19T16:26:27Z</time>
      </trkpt>
      <trkpt lat="48.03981" lon="7.02258">
        <ele>1154.4</ele>
        <time>2023-05-19T16:26:40Z</time>
      </trkpt>
      <trkpt lat="48.03975" lon="7.02257">
        <ele>1158.3</ele>
        <time>2023-05-19T16:26:45Z</time>
      </trkpt>
      <trkpt lat="48.03975" lon="7.02265">
        <ele>1160.9</ele>
        <time>2023-05-19T16:26:49Z</time>
      </trkpt>
      <trkpt lat="48.03971" lon="7.02264">
        <ele>1163.2</ele>
        <time>2023-05-19T16:26:57Z</time>
      </trkpt>
      <trkpt lat="48.0396" lon="7.02275">
        <ele>1171.7</ele>
        <time>2023-05-19T16:27:39Z</time>
      </trkpt>
      <trkpt lat="48.03955" lon="7.02278">
        <ele>1174.5</ele>
        <time>2023-05-19T16:27:47Z</time>
      </trkpt>
      <trkpt lat="48.0394" lon="7.02266">
        <ele>1181.4</ele>
        <time>2023-05-19T16:28:07Z</time>
      </trkpt>
      <trkpt lat="48.03937" lon="7.02262">
        <ele>1183.4</ele>
        <time>2023-05-19T16:28:12Z</time>
      </trkpt>
      <trkpt lat="48.03939" lon="7.02273">
        <ele>1182.5</ele>
        <time>2023-05-19T16:28:27Z</time>
      </trkpt>
      <trkpt lat="48.03948" lon="7.02278">
        <ele>1177.5</ele>
        <time>2023-05-19T16:28:37Z</time>
      </trkpt>
      <trkpt lat="48.03947" lon="7.02299">
        <ele>1183.4</ele>
        <time>2023-05-19T16:28:59Z</time>
      </trkpt>
      <trkpt lat="48.03949" lon="7.02306">
        <ele>1184.5</ele>
        <time>2023-05-19T16:29:05Z</time>
      </trkpt>
      <trkpt lat="48.03947" lon="7.02316">
        <ele>1188.2</ele>
        <time>2023-05-19T16:29:15Z</time>
      </trkpt>
      <trkpt lat="48.03951" lon="7.0232">
        <ele>1188.2</ele>
        <time>2023-05-19T16:29:21Z</time>
      </trkpt>
      <trkpt lat="48.03954" lon="7.0233">
        <ele>1190.5</ele>
        <time>2023-05-19T16:29:31Z</time>
      </trkpt>
      <trkpt lat="48.03957" lon="7.02338">
        <ele>1192.2</ele>
        <time>2023-05-19T16:29:40Z</time>
      </trkpt>
      <trkpt lat="48.03952" lon="7.02347">
        <ele>1195.5</ele>
        <time>2023-05-19T16:29:52Z</time>
      </trkpt>
      <trkpt lat="48.03949" lon="7.02351">
        <ele>1196.8</ele>
        <time>2023-05-19T16:29:57Z</time>
      </trkpt>
      <trkpt lat="48.03946" lon="7.02358">
        <ele>1198.4</ele>
        <time>2023-05-19T16:30:05Z</time>
      </trkpt>
      <trkpt lat="48.03944" lon="7.02364">
        <ele>1198.2</ele>
        <time>2023-05-19T16:30:11Z</time>
      </trkpt>
      <trkpt lat="48.0394" lon="7.02366">
        <ele>1198.4</ele>
        <time>2023-05-19T16:30:39Z</time>
      </trkpt>
      <trkpt lat="48.03913" lon="7.02378">
        <ele>1201.2</ele>
        <time>2023-05-19T16:32:17Z</time>
      </trkpt>
      <trkpt lat="48.03913" lon="7.02378">
        <ele>1201.2</ele>
        <time>2023-05-19T16:32:18Z</time>
      </trkpt>
      <trkpt lat="48.03909" lon="7.02384">
        <ele>1201.4</ele>
        <time>2023-05-19T16:32:24Z</time>
      </trkpt>
      <trkpt lat="48.03907" lon="7.0239">
        <ele>1200.8</ele>
        <time>2023-05-19T16:32:28Z</time>
      </trkpt>
      <trkpt lat="48.03903" lon="7.02395">
        <ele>1200.8</ele>
        <time>2023-05-19T16:32:33Z</time>
      </trkpt>
      <trkpt lat="48.03896" lon="7.02399">
        <ele>1202.7</ele>
        <time>2023-05-19T16:32:41Z</time>
      </trkpt>
      <trkpt lat="48.03886" lon="7.02404">
        <ele>1205.3</ele>
        <time>2023-05-19T16:32:51Z</time>
      </trkpt>
      <trkpt lat="48.03882" lon="7.02406">
        <ele>1205.6</ele>
        <time>2023-05-19T16:32:56Z</time>
      </trkpt>
      <trkpt lat="48.03878" lon="7.0241">
        <ele>1205.3</ele>
        <time>2023-05-19T16:33:01Z</time>
      </trkpt>
      <trkpt lat="48.03874" lon="7.02412">
        <ele>1205.6</ele>
        <time>2023-05-19T16:33:04Z</time>
      </trkpt>
      <trkpt lat="48.03869" lon="7.02414">
        <ele>1206.1</ele>
        <time>2023-05-19T16:33:08Z</time>
      </trkpt>
      <trkpt lat="48.03861" lon="7.02421">
        <ele>1205.3</ele>
        <time>2023-05-19T16:33:17Z</time>
      </trkpt>
      <trkpt lat="48.0385" lon="7.02427">
        <ele>1206</ele>
        <time>2023-05-19T16:33:26Z</time>
      </trkpt>
      <trkpt lat="48.03846" lon="7.02431">
        <ele>1205.7</ele>
        <time>2023-05-19T16:33:30Z</time>
      </trkpt>
      <trkpt lat="48.03842" lon="7.02434">
        <ele>1205.8</ele>
        <time>2023-05-19T16:33:34Z</time>
      </trkpt>
      <trkpt lat="48.03833" lon="7.02446">
        <ele>1204.6</ele>
        <time>2023-05-19T16:33:46Z</time>
      </trkpt>
      <trkpt lat="48.03828" lon="7.02457">
        <ele>1203.7</ele>
        <time>2023-05-19T16:33:52Z</time>
      </trkpt>
      <trkpt lat="48.03824" lon="7.02471">
        <ele>1202</ele>
        <time>2023-05-19T16:33:59Z</time>
      </trkpt>
      <trkpt lat="48.03825" lon="7.02478">
        <ele>1201.4</ele>
        <time>2023-05-19T16:34:03Z</time>
      </trkpt>
      <trkpt lat="48.03827" lon="7.02484">
        <ele>1200.7</ele>
        <time>2023-05-19T16:34:08Z</time>
      </trkpt>
      <trkpt lat="48.03827" lon="7.02492">
        <ele>1201.2</ele>
        <time>2023-05-19T16:34:13Z</time>
      </trkpt>
      <trkpt lat="48.03826" lon="7.02498">
        <ele>1202</ele>
        <time>2023-05-19T16:34:17Z</time>
      </trkpt>
      <trkpt lat="48.03822" lon="7.0251">
        <ele>1202.7</ele>
        <time>2023-05-19T16:34:25Z</time>
      </trkpt>
      <trkpt lat="48.03817" lon="7.02514">
        <ele>1204.2</ele>
        <time>2023-05-19T16:34:29Z</time>
      </trkpt>
      <trkpt lat="48.0381" lon="7.02525">
        <ele>1205.6</ele>
        <time>2023-05-19T16:34:37Z</time>
      </trkpt>
      <trkpt lat="48.03806" lon="7.02539">
        <ele>1206.4</ele>
        <time>2023-05-19T16:34:45Z</time>
      </trkpt>
      <trkpt lat="48.03805" lon="7.02546">
        <ele>1206.5</ele>
        <time>2023-05-19T16:34:49Z</time>
      </trkpt>
      <trkpt lat="48.03806" lon="7.02553">
        <ele>1205.9</ele>
        <time>2023-05-19T16:34:53Z</time>
      </trkpt>
      <trkpt lat="48.03804" lon="7.02574">
        <ele>1206.4</ele>
        <time>2023-05-19T16:35:04Z</time>
      </trkpt>
      <trkpt lat="48.03795" lon="7.02597">
        <ele>1207.1</ele>
        <time>2023-05-19T16:35:20Z</time>
      </trkpt>
      <trkpt lat="48.03786" lon="7.02607">
        <ele>1207.9</ele>
        <time>2023-05-19T16:35:30Z</time>
      </trkpt>
      <trkpt lat="48.03781" lon="7.0261">
        <ele>1208.5</ele>
        <time>2023-05-19T16:35:35Z</time>
      </trkpt>
      <trkpt lat="48.03775" lon="7.02617">
        <ele>1209.1</ele>
        <time>2023-05-19T16:35:42Z</time>
      </trkpt>
      <trkpt lat="48.03773" lon="7.02631">
        <ele>1208.6</ele>
        <time>2023-05-19T16:35:48Z</time>
      </trkpt>
      <trkpt lat="48.03769" lon="7.02639">
        <ele>1208.9</ele>
        <time>2023-05-19T16:35:56Z</time>
      </trkpt>
      <trkpt lat="48.03766" lon="7.02644">
        <ele>1209.1</ele>
        <time>2023-05-19T16:36:01Z</time>
      </trkpt>
      <trkpt lat="48.03761" lon="7.02656">
        <ele>1209.1</ele>
        <time>2023-05-19T16:36:09Z</time>
      </trkpt>
      <trkpt lat="48.0376" lon="7.02669">
        <ele>1208.1</ele>
        <time>2023-05-19T16:36:23Z</time>
      </trkpt>
      <trkpt lat="48.03758" lon="7.02662">
        <ele>1209.4</ele>
        <time>2023-05-19T16:36:31Z</time>
      </trkpt>
      <trkpt lat="48.03756" lon="7.02655">
        <ele>1210.4</ele>
        <time>2023-05-19T16:36:43Z</time>
      </trkpt>
      <trkpt lat="48.03762" lon="7.02653">
        <ele>1209.2</ele>
        <time>2023-05-19T16:37:23Z</time>
      </trkpt>
      <trkpt lat="48.03758" lon="7.02663">
        <ele>1209.3</ele>
        <time>2023-05-19T16:39:08Z</time>
      </trkpt>
      <trkpt lat="48.03755" lon="7.02671">
        <ele>1208.9</ele>
        <time>2023-05-19T16:39:16Z</time>
      </trkpt>
      <trkpt lat="48.03749" lon="7.02668">
        <ele>1210.8</ele>
        <time>2023-05-19T16:39:30Z</time>
      </trkpt>
      <trkpt lat="48.03753" lon="7.02663">
        <ele>1210.5</ele>
        <time>2023-05-19T16:39:36Z</time>
      </trkpt>
      <trkpt lat="48.03756" lon="7.02651">
        <ele>1210.7</ele>
        <time>2023-05-19T16:40:11Z</time>
      </trkpt>
      <trkpt lat="48.03761" lon="7.02651">
        <ele>1209.6</ele>
        <time>2023-05-19T16:40:23Z</time>
      </trkpt>
      <trkpt lat="48.03765" lon="7.02643">
        <ele>1209.4</ele>
        <time>2023-05-19T16:41:21Z</time>
      </trkpt>
      <trkpt lat="48.0376" lon="7.02643">
        <ele>1210.5</ele>
        <time>2023-05-19T16:42:14Z</time>
      </trkpt>
      <trkpt lat="48.03762" lon="7.02651">
        <ele>1209.3</ele>
        <time>2023-05-19T16:42:31Z</time>
      </trkpt>
    </trkseg>
  </trk>
  <trk>
    <name><![CDATA[18 mai 2023 à 08:21:17]]></name>
    <extensions>
      <line xmlns="http://www.topografix.com/GPX/gpx_style/0/2">
        <color>00ff00</color>
        <width>9</width>
      </line>
    </extensions>
    <trkseg>
      <trkpt lat="47.80263" lon="7.08114">
        <ele>645.7</ele>
        <time>2023-05-18T06:21:17Z</time>
      </trkpt>
      <trkpt lat="47.80263" lon="7.08114">
        <ele>645.7</ele>
        <time>2023-05-18T06:21:18Z</time>
      </trkpt>
      <trkpt lat="47.80266" lon="7.08109">
        <ele>645.9</ele>
        <time>2023-05-18T06:21:39Z</time>
      </trkpt>
      <trkpt lat="47.80261" lon="7.08098">
        <ele>643.7</ele>
        <time>2023-05-18T06:21:48Z</time>
      </trkpt>
      <trkpt lat="47.80261" lon="7.08079">
        <ele>641.5</ele>
        <time>2023-05-18T06:22:02Z</time>
      </trkpt>
      <trkpt lat="47.80258" lon="7.08074">
        <ele>642.1</ele>
        <time>2023-05-18T06:22:06Z</time>
      </trkpt>
      <trkpt lat="47.80258" lon="7.08057">
        <ele>641.9</ele>
        <time>2023-05-18T06:22:17Z</time>
      </trkpt>
      <trkpt lat="47.80261" lon="7.08051">
        <ele>640.7</ele>
        <time>2023-05-18T06:22:21Z</time>
      </trkpt>
      <trkpt lat="47.80264" lon="7.08047">
        <ele>639.6</ele>
        <time>2023-05-18T06:22:31Z</time>
      </trkpt>
      <trkpt lat="47.80275" lon="7.08004">
        <ele>635.5</ele>
        <time>2023-05-18T06:26:08Z</time>
      </trkpt>
      <trkpt lat="47.80275" lon="7.08003">
        <ele>635.5</ele>
        <time>2023-05-18T06:26:09Z</time>
      </trkpt>
      <trkpt lat="47.80275" lon="7.0799">
        <ele>634.5</ele>
        <time>2023-05-18T06:26:16Z</time>
      </trkpt>
      <trkpt lat="47.80274" lon="7.07981">
        <ele>634.2</ele>
        <time>2023-05-18T06:26:20Z</time>
      </trkpt>
      <trkpt lat="47.80272" lon="7.07974">
        <ele>634.7</ele>
        <time>2023-05-18T06:26:25Z</time>
      </trkpt>
      <trkpt lat="47.80271" lon="7.07964">
        <ele>634.8</ele>
        <time>2023-05-18T06:26:31Z</time>
      </trkpt>
      <trkpt lat="47.80276" lon="7.07943">
        <ele>631</ele>
        <time>2023-05-18T06:26:43Z</time>
      </trkpt>
      <trkpt lat="47.80274" lon="7.07937">
        <ele>632.1</ele>
        <time>2023-05-18T06:26:47Z</time>
      </trkpt>
      <trkpt lat="47.80275" lon="7.0793">
        <ele>631.5</ele>
        <time>2023-05-18T06:26:51Z</time>
      </trkpt>
      <trkpt lat="47.80275" lon="7.07923">
        <ele>631.5</ele>
        <time>2023-05-18T06:26:55Z</time>
      </trkpt>
      <trkpt lat="47.80274" lon="7.07915">
        <ele>632</ele>
        <time>2023-05-18T06:27:00Z</time>
      </trkpt>
      <trkpt lat="47.80275" lon="7.07907">
        <ele>631.2</ele>
        <time>2023-05-18T06:27:04Z</time>
      </trkpt>
      <trkpt lat="47.8028" lon="7.07891">
        <ele>627.5</ele>
        <time>2023-05-18T06:27:15Z</time>
      </trkpt>
      <trkpt lat="47.80281" lon="7.07882">
        <ele>626.5</ele>
        <time>2023-05-18T06:27:19Z</time>
      </trkpt>
      <trkpt lat="47.80284" lon="7.07875">
        <ele>624.2</ele>
        <time>2023-05-18T06:27:22Z</time>
      </trkpt>
      <trkpt lat="47.80284" lon="7.07868">
        <ele>624</ele>
        <time>2023-05-18T06:27:26Z</time>
      </trkpt>
      <trkpt lat="47.80286" lon="7.07862">
        <ele>622.4</ele>
        <time>2023-05-18T06:27:30Z</time>
      </trkpt>
      <trkpt lat="47.80285" lon="7.07845">
        <ele>621.9</ele>
        <time>2023-05-18T06:27:42Z</time>
      </trkpt>
      <trkpt lat="47.80285" lon="7.07838">
        <ele>621.4</ele>
        <time>2023-05-18T06:27:46Z</time>
      </trkpt>
      <trkpt lat="47.80284" lon="7.07818">
        <ele>619.5</ele>
        <time>2023-05-18T06:28:00Z</time>
      </trkpt>
      <trkpt lat="47.80282" lon="7.0781">
        <ele>619.4</ele>
        <time>2023-05-18T06:28:04Z</time>
      </trkpt>
      <trkpt lat="47.80281" lon="7.078">
        <ele>618.5</ele>
        <time>2023-05-18T06:28:10Z</time>
      </trkpt>
      <trkpt lat="47.80283" lon="7.07794">
        <ele>616.8</ele>
        <time>2023-05-18T06:28:14Z</time>
      </trkpt>
      <trkpt lat="47.80281" lon="7.07773">
        <ele>615.1</ele>
        <time>2023-05-18T06:28:25Z</time>
      </trkpt>
      <trkpt lat="47.80279" lon="7.07765">
        <ele>615.1</ele>
        <time>2023-05-18T06:28:29Z</time>
      </trkpt>
      <trkpt lat="47.8028" lon="7.07759">
        <ele>614.1</ele>
        <time>2023-05-18T06:28:32Z</time>
      </trkpt>
      <trkpt lat="47.80281" lon="7.07738">
        <ele>612.1</ele>
        <time>2023-05-18T06:28:46Z</time>
      </trkpt>
      <trkpt lat="47.80284" lon="7.07731">
        <ele>610.8</ele>
        <time>2023-05-18T06:28:50Z</time>
      </trkpt>
      <trkpt lat="47.80295" lon="7.07713">
        <ele>608.2</ele>
        <time>2023-05-18T06:29:01Z</time>
      </trkpt>
      <trkpt lat="47.80301" lon="7.07715">
        <ele>606.8</ele>
        <time>2023-05-18T06:29:05Z</time>
      </trkpt>
      <trkpt lat="47.80306" lon="7.0772">
        <ele>605.2</ele>
        <time>2023-05-18T06:29:07Z</time>
      </trkpt>
      <trkpt lat="47.80308" lon="7.07727">
        <ele>604.2</ele>
        <time>2023-05-18T06:29:10Z</time>
      </trkpt>
      <trkpt lat="47.80309" lon="7.07734">
        <ele>603.4</ele>
        <time>2023-05-18T06:29:13Z</time>
      </trkpt>
      <trkpt lat="47.80308" lon="7.07742">
        <ele>603</ele>
        <time>2023-05-18T06:29:16Z</time>
      </trkpt>
      <trkpt lat="47.80311" lon="7.07748">
        <ele>601.6</ele>
        <time>2023-05-18T06:29:20Z</time>
      </trkpt>
      <trkpt lat="47.80322" lon="7.07766">
        <ele>597.7</ele>
        <time>2023-05-18T06:29:32Z</time>
      </trkpt>
      <trkpt lat="47.80324" lon="7.07771">
        <ele>596.7</ele>
        <time>2023-05-18T06:29:36Z</time>
      </trkpt>
      <trkpt lat="47.80324" lon="7.07796">
        <ele>596.2</ele>
        <time>2023-05-18T06:29:52Z</time>
      </trkpt>
      <trkpt lat="47.80328" lon="7.07805">
        <ele>593.9</ele>
        <time>2023-05-18T06:29:57Z</time>
      </trkpt>
      <trkpt lat="47.8033" lon="7.07819">
        <ele>592</ele>
        <time>2023-05-18T06:30:05Z</time>
      </trkpt>
      <trkpt lat="47.8033" lon="7.07835">
        <ele>591.1</ele>
        <time>2023-05-18T06:30:13Z</time>
      </trkpt>
      <trkpt lat="47.80333" lon="7.0784">
        <ele>589</ele>
        <time>2023-05-18T06:30:17Z</time>
      </trkpt>
      <trkpt lat="47.80334" lon="7.07848">
        <ele>588</ele>
        <time>2023-05-18T06:30:20Z</time>
      </trkpt>
      <trkpt lat="47.80334" lon="7.07857">
        <ele>587.7</ele>
        <time>2023-05-18T06:30:24Z</time>
      </trkpt>
      <trkpt lat="47.80335" lon="7.07863">
        <ele>586.8</ele>
        <time>2023-05-18T06:30:28Z</time>
      </trkpt>
      <trkpt lat="47.80334" lon="7.07873">
        <ele>587.5</ele>
        <time>2023-05-18T06:30:34Z</time>
      </trkpt>
      <trkpt lat="47.80337" lon="7.07887">
        <ele>585.2</ele>
        <time>2023-05-18T06:30:40Z</time>
      </trkpt>
      <trkpt lat="47.80339" lon="7.07895">
        <ele>583.8</ele>
        <time>2023-05-18T06:30:46Z</time>
      </trkpt>
      <trkpt lat="47.80339" lon="7.07904">
        <ele>583.9</ele>
        <time>2023-05-18T06:30:54Z</time>
      </trkpt>
      <trkpt lat="47.8034" lon="7.07913">
        <ele>583.4</ele>
        <time>2023-05-18T06:30:59Z</time>
      </trkpt>
      <trkpt lat="47.80341" lon="7.0792">
        <ele>582.7</ele>
        <time>2023-05-18T06:31:04Z</time>
      </trkpt>
      <trkpt lat="47.80344" lon="7.07935">
        <ele>580.8</ele>
        <time>2023-05-18T06:31:11Z</time>
      </trkpt>
      <trkpt lat="47.80343" lon="7.07942">
        <ele>581.4</ele>
        <time>2023-05-18T06:31:13Z</time>
      </trkpt>
      <trkpt lat="47.80343" lon="7.07948">
        <ele>581.7</ele>
        <time>2023-05-18T06:31:17Z</time>
      </trkpt>
      <trkpt lat="47.80345" lon="7.07955">
        <ele>580.9</ele>
        <time>2023-05-18T06:31:20Z</time>
      </trkpt>
      <trkpt lat="47.80348" lon="7.0796">
        <ele>579.3</ele>
        <time>2023-05-18T06:31:23Z</time>
      </trkpt>
      <trkpt lat="47.8035" lon="7.07968">
        <ele>578.4</ele>
        <time>2023-05-18T06:31:29Z</time>
      </trkpt>
      <trkpt lat="47.80351" lon="7.07976">
        <ele>578.2</ele>
        <time>2023-05-18T06:31:34Z</time>
      </trkpt>
      <trkpt lat="47.80353" lon="7.07989">
        <ele>577.5</ele>
        <time>2023-05-18T06:31:42Z</time>
      </trkpt>
      <trkpt lat="47.80356" lon="7.08005">
        <ele>576.2</ele>
        <time>2023-05-18T06:31:50Z</time>
      </trkpt>
      <trkpt lat="47.80365" lon="7.08032">
        <ele>571.6</ele>
        <time>2023-05-18T06:32:07Z</time>
      </trkpt>
      <trkpt lat="47.80364" lon="7.0804">
        <ele>572.9</ele>
        <time>2023-05-18T06:32:11Z</time>
      </trkpt>
      <trkpt lat="47.80368" lon="7.08054">
        <ele>571.2</ele>
        <time>2023-05-18T06:32:19Z</time>
      </trkpt>
      <trkpt lat="47.80371" lon="7.08059">
        <ele>569.6</ele>
        <time>2023-05-18T06:32:24Z</time>
      </trkpt>
      <trkpt lat="47.80374" lon="7.0807">
        <ele>568.5</ele>
        <time>2023-05-18T06:32:31Z</time>
      </trkpt>
      <trkpt lat="47.80377" lon="7.08078">
        <ele>567.1</ele>
        <time>2023-05-18T06:32:36Z</time>
      </trkpt>
      <trkpt lat="47.80382" lon="7.08108">
        <ele>566.8</ele>
        <time>2023-05-18T06:32:53Z</time>
      </trkpt>
      <trkpt lat="47.80387" lon="7.08118">
        <ele>564.4</ele>
        <time>2023-05-18T06:32:59Z</time>
      </trkpt>
      <trkpt lat="47.80391" lon="7.08121">
        <ele>562.2</ele>
        <time>2023-05-18T06:33:02Z</time>
      </trkpt>
      <trkpt lat="47.80399" lon="7.0814">
        <ele>559.9</ele>
        <time>2023-05-18T06:33:17Z</time>
      </trkpt>
      <trkpt lat="47.80408" lon="7.08179">
        <ele>557.6</ele>
        <time>2023-05-18T06:33:40Z</time>
      </trkpt>
      <trkpt lat="47.80417" lon="7.08199">
        <ele>553.1</ele>
        <time>2023-05-18T06:33:53Z</time>
      </trkpt>
      <trkpt lat="47.80426" lon="7.08242">
        <ele>549.1</ele>
        <time>2023-05-18T06:34:20Z</time>
      </trkpt>
      <trkpt lat="47.80428" lon="7.08232">
        <ele>548.2</ele>
        <time>2023-05-18T06:34:26Z</time>
      </trkpt>
      <trkpt lat="47.8043" lon="7.08236">
        <ele>546.8</ele>
        <time>2023-05-18T06:34:40Z</time>
      </trkpt>
      <trkpt lat="47.80433" lon="7.0825">
        <ele>544.4</ele>
        <time>2023-05-18T06:34:46Z</time>
      </trkpt>
      <trkpt lat="47.80432" lon="7.08257">
        <ele>544.4</ele>
        <time>2023-05-18T06:34:50Z</time>
      </trkpt>
      <trkpt lat="47.80436" lon="7.08265">
        <ele>541</ele>
        <time>2023-05-18T06:34:54Z</time>
      </trkpt>
      <trkpt lat="47.80436" lon="7.08285">
        <ele>539.1</ele>
        <time>2023-05-18T06:35:07Z</time>
      </trkpt>
      <trkpt lat="47.80438" lon="7.08303">
        <ele>536.2</ele>
        <time>2023-05-18T06:35:19Z</time>
      </trkpt>
      <trkpt lat="47.80437" lon="7.08311">
        <ele>536.2</ele>
        <time>2023-05-18T06:35:22Z</time>
      </trkpt>
      <trkpt lat="47.80438" lon="7.08318">
        <ele>535</ele>
        <time>2023-05-18T06:35:25Z</time>
      </trkpt>
      <trkpt lat="47.80437" lon="7.08325">
        <ele>535.2</ele>
        <time>2023-05-18T06:35:31Z</time>
      </trkpt>
      <trkpt lat="47.80437" lon="7.08357">
        <ele>532</ele>
        <time>2023-05-18T06:35:48Z</time>
      </trkpt>
      <trkpt lat="47.80435" lon="7.08364">
        <ele>532.4</ele>
        <time>2023-05-18T06:35:51Z</time>
      </trkpt>
      <trkpt lat="47.80435" lon="7.08385">
        <ele>529.3</ele>
        <time>2023-05-18T06:36:10Z</time>
      </trkpt>
      <trkpt lat="47.80438" lon="7.0841">
        <ele>524.5</ele>
        <time>2023-05-18T06:36:24Z</time>
      </trkpt>
      <trkpt lat="47.80436" lon="7.08423">
        <ele>524.4</ele>
        <time>2023-05-18T06:36:32Z</time>
      </trkpt>
      <trkpt lat="47.80437" lon="7.08429">
        <ele>523.4</ele>
        <time>2023-05-18T06:36:36Z</time>
      </trkpt>
      <trkpt lat="47.80438" lon="7.08466">
        <ele>519.2</ele>
        <time>2023-05-18T06:36:56Z</time>
      </trkpt>
      <trkpt lat="47.80434" lon="7.0849">
        <ele>517</ele>
        <time>2023-05-18T06:37:07Z</time>
      </trkpt>
      <trkpt lat="47.80434" lon="7.08499">
        <ele>515.1</ele>
        <time>2023-05-18T06:37:15Z</time>
      </trkpt>
      <trkpt lat="47.80432" lon="7.08507">
        <ele>513.6</ele>
        <time>2023-05-18T06:37:19Z</time>
      </trkpt>
      <trkpt lat="47.8043" lon="7.08512">
        <ele>512.8</ele>
        <time>2023-05-18T06:37:23Z</time>
      </trkpt>
      <trkpt lat="47.80407" lon="7.08533">
        <ele>511.8</ele>
        <time>2023-05-18T06:37:45Z</time>
      </trkpt>
      <trkpt lat="47.80391" lon="7.08562">
        <ele>506.2</ele>
        <time>2023-05-18T06:38:08Z</time>
      </trkpt>
      <trkpt lat="47.80388" lon="7.0857">
        <ele>504.7</ele>
        <time>2023-05-18T06:38:14Z</time>
      </trkpt>
      <trkpt lat="47.80383" lon="7.08575">
        <ele>505.3</ele>
        <time>2023-05-18T06:38:17Z</time>
      </trkpt>
      <trkpt lat="47.80382" lon="7.08582">
        <ele>503.6</ele>
        <time>2023-05-18T06:38:21Z</time>
      </trkpt>
      <trkpt lat="47.80383" lon="7.08605">
        <ele>501.1</ele>
        <time>2023-05-18T06:38:31Z</time>
      </trkpt>
      <trkpt lat="47.80388" lon="7.08615">
        <ele>497.8</ele>
        <time>2023-05-18T06:38:40Z</time>
      </trkpt>
      <trkpt lat="47.8039" lon="7.08621">
        <ele>497.1</ele>
        <time>2023-05-18T06:38:45Z</time>
      </trkpt>
      <trkpt lat="47.80394" lon="7.08634">
        <ele>495.8</ele>
        <time>2023-05-18T06:38:57Z</time>
      </trkpt>
      <trkpt lat="47.80402" lon="7.08647">
        <ele>492.3</ele>
        <time>2023-05-18T06:39:06Z</time>
      </trkpt>
      <trkpt lat="47.80406" lon="7.08651">
        <ele>490.5</ele>
        <time>2023-05-18T06:39:09Z</time>
      </trkpt>
      <trkpt lat="47.80408" lon="7.08658">
        <ele>490.1</ele>
        <time>2023-05-18T06:39:13Z</time>
      </trkpt>
      <trkpt lat="47.80407" lon="7.08666">
        <ele>491.5</ele>
        <time>2023-05-18T06:39:17Z</time>
      </trkpt>
      <trkpt lat="47.80414" lon="7.08682">
        <ele>489.1</ele>
        <time>2023-05-18T06:39:28Z</time>
      </trkpt>
      <trkpt lat="47.80416" lon="7.08689">
        <ele>488.8</ele>
        <time>2023-05-18T06:39:33Z</time>
      </trkpt>
      <trkpt lat="47.80422" lon="7.08702">
        <ele>486.8</ele>
        <time>2023-05-18T06:39:41Z</time>
      </trkpt>
      <trkpt lat="47.80421" lon="7.08709">
        <ele>487.8</ele>
        <time>2023-05-18T06:39:46Z</time>
      </trkpt>
      <trkpt lat="47.80426" lon="7.08714">
        <ele>485.5</ele>
        <time>2023-05-18T06:39:50Z</time>
      </trkpt>
      <trkpt lat="47.80426" lon="7.08725">
        <ele>486</ele>
        <time>2023-05-18T06:39:56Z</time>
      </trkpt>
      <trkpt lat="47.80432" lon="7.08737">
        <ele>482.7</ele>
        <time>2023-05-18T06:40:02Z</time>
      </trkpt>
      <trkpt lat="47.80439" lon="7.08788">
        <ele>477.2</ele>
        <time>2023-05-18T06:40:33Z</time>
      </trkpt>
      <trkpt lat="47.8044" lon="7.08797">
        <ele>476</ele>
        <time>2023-05-18T06:40:37Z</time>
      </trkpt>
      <trkpt lat="47.8044" lon="7.08805">
        <ele>475.4</ele>
        <time>2023-05-18T06:40:42Z</time>
      </trkpt>
      <trkpt lat="47.80438" lon="7.08813">
        <ele>475.4</ele>
        <time>2023-05-18T06:40:46Z</time>
      </trkpt>
      <trkpt lat="47.80438" lon="7.0882">
        <ele>474.4</ele>
        <time>2023-05-18T06:40:49Z</time>
      </trkpt>
      <trkpt lat="47.80436" lon="7.08838">
        <ele>472.8</ele>
        <time>2023-05-18T06:40:59Z</time>
      </trkpt>
      <trkpt lat="47.80437" lon="7.08845">
        <ele>471.2</ele>
        <time>2023-05-18T06:41:03Z</time>
      </trkpt>
      <trkpt lat="47.80435" lon="7.08853">
        <ele>471</ele>
        <time>2023-05-18T06:41:08Z</time>
      </trkpt>
      <trkpt lat="47.80435" lon="7.0886">
        <ele>469.9</ele>
        <time>2023-05-18T06:41:12Z</time>
      </trkpt>
      <trkpt lat="47.80434" lon="7.08866">
        <ele>469</ele>
        <time>2023-05-18T06:41:15Z</time>
      </trkpt>
      <trkpt lat="47.80427" lon="7.0889">
        <ele>466.5</ele>
        <time>2023-05-18T06:41:31Z</time>
      </trkpt>
      <trkpt lat="47.80426" lon="7.08897">
        <ele>465.4</ele>
        <time>2023-05-18T06:41:35Z</time>
      </trkpt>
      <trkpt lat="47.80423" lon="7.08907">
        <ele>464.5</ele>
        <time>2023-05-18T06:41:41Z</time>
      </trkpt>
      <trkpt lat="47.8042" lon="7.08915">
        <ele>464</ele>
        <time>2023-05-18T06:41:47Z</time>
      </trkpt>
      <trkpt lat="47.80418" lon="7.0893">
        <ele>461.1</ele>
        <time>2023-05-18T06:41:55Z</time>
      </trkpt>
      <trkpt lat="47.80413" lon="7.0894">
        <ele>460.9</ele>
        <time>2023-05-18T06:42:02Z</time>
      </trkpt>
      <trkpt lat="47.8041" lon="7.08966">
        <ele>458.7</ele>
        <time>2023-05-18T06:42:19Z</time>
      </trkpt>
      <trkpt lat="47.80411" lon="7.08972">
        <ele>457.5</ele>
        <time>2023-05-18T06:42:24Z</time>
      </trkpt>
      <trkpt lat="47.80412" lon="7.08988">
        <ele>455.3</ele>
        <time>2023-05-18T06:42:32Z</time>
      </trkpt>
      <trkpt lat="47.8041" lon="7.09">
        <ele>454.9</ele>
        <time>2023-05-18T06:42:42Z</time>
      </trkpt>
      <trkpt lat="47.80407" lon="7.09006">
        <ele>455.3</ele>
        <time>2023-05-18T06:42:46Z</time>
      </trkpt>
      <trkpt lat="47.80405" lon="7.09013">
        <ele>455.2</ele>
        <time>2023-05-18T06:42:49Z</time>
      </trkpt>
      <trkpt lat="47.80401" lon="7.09027">
        <ele>454.9</ele>
        <time>2023-05-18T06:42:56Z</time>
      </trkpt>
      <trkpt lat="47.80398" lon="7.09032">
        <ele>455.3</ele>
        <time>2023-05-18T06:43:00Z</time>
      </trkpt>
      <trkpt lat="47.80395" lon="7.09048">
        <ele>453.7</ele>
        <time>2023-05-18T06:43:08Z</time>
      </trkpt>
      <trkpt lat="47.80392" lon="7.09056">
        <ele>453.6</ele>
        <time>2023-05-18T06:43:13Z</time>
      </trkpt>
      <trkpt lat="47.8039" lon="7.09062">
        <ele>453.6</ele>
        <time>2023-05-18T06:43:16Z</time>
      </trkpt>
      <trkpt lat="47.80387" lon="7.09068">
        <ele>454</ele>
        <time>2023-05-18T06:43:20Z</time>
      </trkpt>
      <trkpt lat="47.80386" lon="7.09074">
        <ele>453.5</ele>
        <time>2023-05-18T06:43:25Z</time>
      </trkpt>
      <trkpt lat="47.80383" lon="7.09081">
        <ele>453.7</ele>
        <time>2023-05-18T06:43:29Z</time>
      </trkpt>
      <trkpt lat="47.80379" lon="7.09084">
        <ele>454.8</ele>
        <time>2023-05-18T06:43:33Z</time>
      </trkpt>
      <trkpt lat="47.80376" lon="7.0909">
        <ele>454.9</ele>
        <time>2023-05-18T06:43:36Z</time>
      </trkpt>
      <trkpt lat="47.8037" lon="7.09103">
        <ele>454.9</ele>
        <time>2023-05-18T06:43:45Z</time>
      </trkpt>
      <trkpt lat="47.80365" lon="7.0911">
        <ele>455.7</ele>
        <time>2023-05-18T06:43:51Z</time>
      </trkpt>
      <trkpt lat="47.80356" lon="7.09114">
        <ele>456</ele>
        <time>2023-05-18T06:43:58Z</time>
      </trkpt>
      <trkpt lat="47.80352" lon="7.09119">
        <ele>454.6</ele>
        <time>2023-05-18T06:44:02Z</time>
      </trkpt>
      <trkpt lat="47.80349" lon="7.09125">
        <ele>453.1</ele>
        <time>2023-05-18T06:44:05Z</time>
      </trkpt>
      <trkpt lat="47.80343" lon="7.09126">
        <ele>452.5</ele>
        <time>2023-05-18T06:44:12Z</time>
      </trkpt>
      <trkpt lat="47.80339" lon="7.09123">
        <ele>452.8</ele>
        <time>2023-05-18T06:44:15Z</time>
      </trkpt>
      <trkpt lat="47.80331" lon="7.09114">
        <ele>453.4</ele>
        <time>2023-05-18T06:44:24Z</time>
      </trkpt>
      <trkpt lat="47.80326" lon="7.09109">
        <ele>452.2</ele>
        <time>2023-05-18T06:44:30Z</time>
      </trkpt>
      <trkpt lat="47.80319" lon="7.09097">
        <ele>451.1</ele>
        <time>2023-05-18T06:44:38Z</time>
      </trkpt>
      <trkpt lat="47.80318" lon="7.0909">
        <ele>451.8</ele>
        <time>2023-05-18T06:44:42Z</time>
      </trkpt>
      <trkpt lat="47.80313" lon="7.09086">
        <ele>450.1</ele>
        <time>2023-05-18T06:44:48Z</time>
      </trkpt>
      <trkpt lat="47.80306" lon="7.0906">
        <ele>448.9</ele>
        <time>2023-05-18T06:45:01Z</time>
      </trkpt>
      <trkpt lat="47.80305" lon="7.09054">
        <ele>449.1</ele>
        <time>2023-05-18T06:45:05Z</time>
      </trkpt>
      <trkpt lat="47.80299" lon="7.09048">
        <ele>448.7</ele>
        <time>2023-05-18T06:45:10Z</time>
      </trkpt>
      <trkpt lat="47.80294" lon="7.09048">
        <ele>447.2</ele>
        <time>2023-05-18T06:45:13Z</time>
      </trkpt>
      <trkpt lat="47.80289" lon="7.09044">
        <ele>447</ele>
        <time>2023-05-18T06:45:15Z</time>
      </trkpt>
      <trkpt lat="47.80284" lon="7.09042">
        <ele>446.4</ele>
        <time>2023-05-18T06:45:23Z</time>
      </trkpt>
      <trkpt lat="47.80292" lon="7.09021">
        <ele>455.5</ele>
        <time>2023-05-18T06:45:36Z</time>
      </trkpt>
      <trkpt lat="47.80284" lon="7.09035">
        <ele>449.1</ele>
        <time>2023-05-18T06:45:45Z</time>
      </trkpt>
      <trkpt lat="47.8028" lon="7.09041">
        <ele>445.8</ele>
        <time>2023-05-18T06:45:49Z</time>
      </trkpt>
      <trkpt lat="47.80276" lon="7.0904">
        <ele>445.4</ele>
        <time>2023-05-18T06:45:53Z</time>
      </trkpt>
      <trkpt lat="47.8027" lon="7.09042">
        <ele>443.3</ele>
        <time>2023-05-18T06:45:59Z</time>
      </trkpt>
      <trkpt lat="47.80265" lon="7.09045">
        <ele>441.2</ele>
        <time>2023-05-18T06:46:02Z</time>
      </trkpt>
      <trkpt lat="47.8026" lon="7.09046">
        <ele>439.9</ele>
        <time>2023-05-18T06:46:05Z</time>
      </trkpt>
      <trkpt lat="47.80253" lon="7.09043">
        <ele>439.6</ele>
        <time>2023-05-18T06:46:11Z</time>
      </trkpt>
      <trkpt lat="47.80249" lon="7.09046">
        <ele>438.3</ele>
        <time>2023-05-18T06:46:14Z</time>
      </trkpt>
      <trkpt lat="47.80244" lon="7.09046">
        <ele>439.2</ele>
        <time>2023-05-18T06:46:18Z</time>
      </trkpt>
      <trkpt lat="47.80241" lon="7.09056">
        <ele>436.8</ele>
        <time>2023-05-18T06:46:24Z</time>
      </trkpt>
      <trkpt lat="47.80239" lon="7.09074">
        <ele>432.7</ele>
        <time>2023-05-18T06:46:36Z</time>
      </trkpt>
      <trkpt lat="47.80236" lon="7.0908">
        <ele>431.9</ele>
        <time>2023-05-18T06:46:39Z</time>
      </trkpt>
      <trkpt lat="47.80229" lon="7.09088">
        <ele>431.1</ele>
        <time>2023-05-18T06:46:46Z</time>
      </trkpt>
      <trkpt lat="47.80219" lon="7.09091">
        <ele>431.3</ele>
        <time>2023-05-18T06:46:53Z</time>
      </trkpt>
      <trkpt lat="47.80208" lon="7.09092">
        <ele>430.1</ele>
        <time>2023-05-18T06:47:00Z</time>
      </trkpt>
      <trkpt lat="47.80203" lon="7.09088">
        <ele>430.8</ele>
        <time>2023-05-18T06:47:03Z</time>
      </trkpt>
      <trkpt lat="47.80198" lon="7.09089">
        <ele>430.1</ele>
        <time>2023-05-18T06:47:07Z</time>
      </trkpt>
      <trkpt lat="47.80184" lon="7.09092">
        <ele>430.5</ele>
        <time>2023-05-18T06:47:17Z</time>
      </trkpt>
      <trkpt lat="47.80174" lon="7.09103">
        <ele>430</ele>
        <time>2023-05-18T06:47:28Z</time>
      </trkpt>
      <trkpt lat="47.80174" lon="7.09113">
        <ele>428.5</ele>
        <time>2023-05-18T06:47:34Z</time>
      </trkpt>
      <trkpt lat="47.80176" lon="7.09122">
        <ele>427.3</ele>
        <time>2023-05-18T06:47:42Z</time>
      </trkpt>
      <trkpt lat="47.80179" lon="7.09135">
        <ele>425.3</ele>
        <time>2023-05-18T06:47:49Z</time>
      </trkpt>
      <trkpt lat="47.80176" lon="7.09195">
        <ele>421.2</ele>
        <time>2023-05-18T06:48:22Z</time>
      </trkpt>
      <trkpt lat="47.80175" lon="7.09202">
        <ele>420.7</ele>
        <time>2023-05-18T06:48:26Z</time>
      </trkpt>
      <trkpt lat="47.80176" lon="7.09199">
        <ele>420.8</ele>
        <time>2023-05-18T06:48:49Z</time>
      </trkpt>
      <trkpt lat="47.80176" lon="7.09192">
        <ele>421.5</ele>
        <time>2023-05-18T06:48:53Z</time>
      </trkpt>
      <trkpt lat="47.80177" lon="7.09185">
        <ele>421.6</ele>
        <time>2023-05-18T06:48:57Z</time>
      </trkpt>
      <trkpt lat="47.80183" lon="7.09173">
        <ele>420.4</ele>
        <time>2023-05-18T06:49:04Z</time>
      </trkpt>
      <trkpt lat="47.80187" lon="7.09166">
        <ele>419.5</ele>
        <time>2023-05-18T06:49:09Z</time>
      </trkpt>
      <trkpt lat="47.80192" lon="7.09164">
        <ele>418.2</ele>
        <time>2023-05-18T06:49:12Z</time>
      </trkpt>
      <trkpt lat="47.80198" lon="7.09167">
        <ele>416.5</ele>
        <time>2023-05-18T06:49:14Z</time>
      </trkpt>
      <trkpt lat="47.80206" lon="7.09174">
        <ele>414.9</ele>
        <time>2023-05-18T06:49:18Z</time>
      </trkpt>
      <trkpt lat="47.80205" lon="7.09189">
        <ele>414.1</ele>
        <time>2023-05-18T06:49:25Z</time>
      </trkpt>
      <trkpt lat="47.80195" lon="7.09203">
        <ele>414.7</ele>
        <time>2023-05-18T06:49:34Z</time>
      </trkpt>
      <trkpt lat="47.80192" lon="7.0921">
        <ele>414.5</ele>
        <time>2023-05-18T06:49:38Z</time>
      </trkpt>
      <trkpt lat="47.8019" lon="7.09223">
        <ele>413.4</ele>
        <time>2023-05-18T06:49:44Z</time>
      </trkpt>
      <trkpt lat="47.80188" lon="7.09252">
        <ele>413.2</ele>
        <time>2023-05-18T06:49:59Z</time>
      </trkpt>
      <trkpt lat="47.8019" lon="7.09259">
        <ele>412.1</ele>
        <time>2023-05-18T06:50:03Z</time>
      </trkpt>
      <trkpt lat="47.80188" lon="7.09266">
        <ele>412.1</ele>
        <time>2023-05-18T06:50:16Z</time>
      </trkpt>
      <trkpt lat="47.80187" lon="7.09275">
        <ele>411.6</ele>
        <time>2023-05-18T06:50:22Z</time>
      </trkpt>
      <trkpt lat="47.80183" lon="7.09296">
        <ele>411.3</ele>
        <time>2023-05-18T06:50:34Z</time>
      </trkpt>
      <trkpt lat="47.80176" lon="7.09341">
        <ele>409</ele>
        <time>2023-05-18T06:51:00Z</time>
      </trkpt>
      <trkpt lat="47.80176" lon="7.09349">
        <ele>408.7</ele>
        <time>2023-05-18T06:51:04Z</time>
      </trkpt>
      <trkpt lat="47.80175" lon="7.09363">
        <ele>408.5</ele>
        <time>2023-05-18T06:51:11Z</time>
      </trkpt>
      <trkpt lat="47.80176" lon="7.0937">
        <ele>407.6</ele>
        <time>2023-05-18T06:51:15Z</time>
      </trkpt>
      <trkpt lat="47.80174" lon="7.09378">
        <ele>407.6</ele>
        <time>2023-05-18T06:51:19Z</time>
      </trkpt>
      <trkpt lat="47.80175" lon="7.09386">
        <ele>406.5</ele>
        <time>2023-05-18T06:51:24Z</time>
      </trkpt>
      <trkpt lat="47.80175" lon="7.09395">
        <ele>405.8</ele>
        <time>2023-05-18T06:51:29Z</time>
      </trkpt>
      <trkpt lat="47.80176" lon="7.09416">
        <ele>403.7</ele>
        <time>2023-05-18T06:51:40Z</time>
      </trkpt>
      <trkpt lat="47.80187" lon="7.09474">
        <ele>400.3</ele>
        <time>2023-05-18T06:52:13Z</time>
      </trkpt>
      <trkpt lat="47.80189" lon="7.09481">
        <ele>399.7</ele>
        <time>2023-05-18T06:52:17Z</time>
      </trkpt>
      <trkpt lat="47.80191" lon="7.09487">
        <ele>399.2</ele>
        <time>2023-05-18T06:52:20Z</time>
      </trkpt>
      <trkpt lat="47.80191" lon="7.09495">
        <ele>398.9</ele>
        <time>2023-05-18T06:52:24Z</time>
      </trkpt>
      <trkpt lat="47.80193" lon="7.09512">
        <ele>397.5</ele>
        <time>2023-05-18T06:52:32Z</time>
      </trkpt>
      <trkpt lat="47.80192" lon="7.09533">
        <ele>396.7</ele>
        <time>2023-05-18T06:52:44Z</time>
      </trkpt>
      <trkpt lat="47.80193" lon="7.0954">
        <ele>396.4</ele>
        <time>2023-05-18T06:52:48Z</time>
      </trkpt>
      <trkpt lat="47.80197" lon="7.09545">
        <ele>395.6</ele>
        <time>2023-05-18T06:52:53Z</time>
      </trkpt>
      <trkpt lat="47.80202" lon="7.09541">
        <ele>394.8</ele>
        <time>2023-05-18T06:53:03Z</time>
      </trkpt>
      <trkpt lat="47.80204" lon="7.09534">
        <ele>394.5</ele>
        <time>2023-05-18T06:53:07Z</time>
      </trkpt>
      <trkpt lat="47.80205" lon="7.09528">
        <ele>394.5</ele>
        <time>2023-05-18T06:53:11Z</time>
      </trkpt>
      <trkpt lat="47.80211" lon="7.09509">
        <ele>394.6</ele>
        <time>2023-05-18T06:53:23Z</time>
      </trkpt>
      <trkpt lat="47.80215" lon="7.09504">
        <ele>394.1</ele>
        <time>2023-05-18T06:53:27Z</time>
      </trkpt>
      <trkpt lat="47.8022" lon="7.095">
        <ele>393.4</ele>
        <time>2023-05-18T06:53:31Z</time>
      </trkpt>
      <trkpt lat="47.80224" lon="7.09503">
        <ele>392.6</ele>
        <time>2023-05-18T06:53:34Z</time>
      </trkpt>
      <trkpt lat="47.8026" lon="7.09534">
        <ele>385.8</ele>
        <time>2023-05-18T06:54:08Z</time>
      </trkpt>
      <trkpt lat="47.80275" lon="7.09543">
        <ele>383.8</ele>
        <time>2023-05-18T06:54:20Z</time>
      </trkpt>
      <trkpt lat="47.80283" lon="7.09545">
        <ele>382.6</ele>
        <time>2023-05-18T06:54:28Z</time>
      </trkpt>
      <trkpt lat="47.80304" lon="7.09542">
        <ele>379.7</ele>
        <time>2023-05-18T06:54:44Z</time>
      </trkpt>
      <trkpt lat="47.80337" lon="7.09549">
        <ele>374.7</ele>
        <time>2023-05-18T06:55:15Z</time>
      </trkpt>
      <trkpt lat="47.8038" lon="7.09575">
        <ele>368.9</ele>
        <time>2023-05-18T06:55:48Z</time>
      </trkpt>
      <trkpt lat="47.80389" lon="7.09583">
        <ele>367</ele>
        <time>2023-05-18T06:55:56Z</time>
      </trkpt>
      <trkpt lat="47.80404" lon="7.09586">
        <ele>366</ele>
        <time>2023-05-18T06:56:09Z</time>
      </trkpt>
      <trkpt lat="47.80439" lon="7.09608">
        <ele>362.7</ele>
        <time>2023-05-18T06:56:42Z</time>
      </trkpt>
      <trkpt lat="47.80446" lon="7.09608">
        <ele>362</ele>
        <time>2023-05-18T06:56:49Z</time>
      </trkpt>
      <trkpt lat="47.80452" lon="7.0961">
        <ele>361.5</ele>
        <time>2023-05-18T06:56:52Z</time>
      </trkpt>
      <trkpt lat="47.80492" lon="7.09631">
        <ele>357.9</ele>
        <time>2023-05-18T06:57:26Z</time>
      </trkpt>
      <trkpt lat="47.80505" lon="7.09636">
        <ele>356.9</ele>
        <time>2023-05-18T06:57:35Z</time>
      </trkpt>
      <trkpt lat="47.80513" lon="7.09644">
        <ele>356.5</ele>
        <time>2023-05-18T06:57:42Z</time>
      </trkpt>
      <trkpt lat="47.8052" lon="7.09644">
        <ele>356.3</ele>
        <time>2023-05-18T06:57:49Z</time>
      </trkpt>
      <trkpt lat="47.80528" lon="7.09637">
        <ele>356.1</ele>
        <time>2023-05-18T06:57:56Z</time>
      </trkpt>
      <trkpt lat="47.80533" lon="7.09635">
        <ele>355.9</ele>
        <time>2023-05-18T06:58:01Z</time>
      </trkpt>
      <trkpt lat="47.80544" lon="7.09635">
        <ele>355.5</ele>
        <time>2023-05-18T06:58:10Z</time>
      </trkpt>
      <trkpt lat="47.80551" lon="7.09637">
        <ele>355.2</ele>
        <time>2023-05-18T06:58:18Z</time>
      </trkpt>
      <trkpt lat="47.80563" lon="7.09634">
        <ele>355.9</ele>
        <time>2023-05-18T06:58:25Z</time>
      </trkpt>
      <trkpt lat="47.8057" lon="7.09635">
        <ele>356.6</ele>
        <time>2023-05-18T06:58:34Z</time>
      </trkpt>
      <trkpt lat="47.80579" lon="7.09662">
        <ele>356.8</ele>
        <time>2023-05-18T06:58:46Z</time>
      </trkpt>
      <trkpt lat="47.80579" lon="7.09669">
        <ele>356.5</ele>
        <time>2023-05-18T06:58:50Z</time>
      </trkpt>
      <trkpt lat="47.80588" lon="7.09728">
        <ele>354.6</ele>
        <time>2023-05-18T06:59:22Z</time>
      </trkpt>
      <trkpt lat="47.80589" lon="7.09744">
        <ele>353.9</ele>
        <time>2023-05-18T06:59:30Z</time>
      </trkpt>
      <trkpt lat="47.80592" lon="7.0975">
        <ele>353.9</ele>
        <time>2023-05-18T06:59:34Z</time>
      </trkpt>
      <trkpt lat="47.80594" lon="7.09757">
        <ele>354</ele>
        <time>2023-05-18T06:59:39Z</time>
      </trkpt>
      <trkpt lat="47.80594" lon="7.09765">
        <ele>353.7</ele>
        <time>2023-05-18T06:59:44Z</time>
      </trkpt>
      <trkpt lat="47.80597" lon="7.09777">
        <ele>353.5</ele>
        <time>2023-05-18T06:59:51Z</time>
      </trkpt>
      <trkpt lat="47.80597" lon="7.09812">
        <ele>352.4</ele>
        <time>2023-05-18T07:00:08Z</time>
      </trkpt>
      <trkpt lat="47.80599" lon="7.09825">
        <ele>352.2</ele>
        <time>2023-05-18T07:00:15Z</time>
      </trkpt>
      <trkpt lat="47.80602" lon="7.09862">
        <ele>351.3</ele>
        <time>2023-05-18T07:00:32Z</time>
      </trkpt>
      <trkpt lat="47.80606" lon="7.09876">
        <ele>350.6</ele>
        <time>2023-05-18T07:00:41Z</time>
      </trkpt>
      <trkpt lat="47.8061" lon="7.09881">
        <ele>350.3</ele>
        <time>2023-05-18T07:00:44Z</time>
      </trkpt>
      <trkpt lat="47.80612" lon="7.09886">
        <ele>350.1</ele>
        <time>2023-05-18T07:00:48Z</time>
      </trkpt>
      <trkpt lat="47.80612" lon="7.09893">
        <ele>349.9</ele>
        <time>2023-05-18T07:00:52Z</time>
      </trkpt>
      <trkpt lat="47.80616" lon="7.09906">
        <ele>349.6</ele>
        <time>2023-05-18T07:01:00Z</time>
      </trkpt>
      <trkpt lat="47.80634" lon="7.09951">
        <ele>348.8</ele>
        <time>2023-05-18T07:01:29Z</time>
      </trkpt>
      <trkpt lat="47.80637" lon="7.09956">
        <ele>348.6</ele>
        <time>2023-05-18T07:01:32Z</time>
      </trkpt>
      <trkpt lat="47.80659" lon="7.10007">
        <ele>347.8</ele>
        <time>2023-05-18T07:02:04Z</time>
      </trkpt>
      <trkpt lat="47.80663" lon="7.10013">
        <ele>347.6</ele>
        <time>2023-05-18T07:02:07Z</time>
      </trkpt>
      <trkpt lat="47.80667" lon="7.10027">
        <ele>347</ele>
        <time>2023-05-18T07:02:15Z</time>
      </trkpt>
      <trkpt lat="47.8067" lon="7.1004">
        <ele>346.6</ele>
        <time>2023-05-18T07:02:22Z</time>
      </trkpt>
      <trkpt lat="47.80672" lon="7.10047">
        <ele>346.4</ele>
        <time>2023-05-18T07:02:26Z</time>
      </trkpt>
      <trkpt lat="47.80674" lon="7.10062">
        <ele>346.2</ele>
        <time>2023-05-18T07:02:34Z</time>
      </trkpt>
      <trkpt lat="47.80682" lon="7.10092">
        <ele>346</ele>
        <time>2023-05-18T07:02:50Z</time>
      </trkpt>
      <trkpt lat="47.80682" lon="7.101">
        <ele>346</ele>
        <time>2023-05-18T07:02:54Z</time>
      </trkpt>
      <trkpt lat="47.80685" lon="7.10107">
        <ele>346</ele>
        <time>2023-05-18T07:02:58Z</time>
      </trkpt>
      <trkpt lat="47.80685" lon="7.10121">
        <ele>345.6</ele>
        <time>2023-05-18T07:03:06Z</time>
      </trkpt>
      <trkpt lat="47.80686" lon="7.10128">
        <ele>345.4</ele>
        <time>2023-05-18T07:03:10Z</time>
      </trkpt>
      <trkpt lat="47.80691" lon="7.10133">
        <ele>345.2</ele>
        <time>2023-05-18T07:03:15Z</time>
      </trkpt>
      <trkpt lat="47.80728" lon="7.10148">
        <ele>343.9</ele>
        <time>2023-05-18T07:03:47Z</time>
      </trkpt>
      <trkpt lat="47.80744" lon="7.10149">
        <ele>343.7</ele>
        <time>2023-05-18T07:03:58Z</time>
      </trkpt>
      <trkpt lat="47.80749" lon="7.10149">
        <ele>343.6</ele>
        <time>2023-05-18T07:04:05Z</time>
      </trkpt>
      <trkpt lat="47.80763" lon="7.10152">
        <ele>343.3</ele>
        <time>2023-05-18T07:04:14Z</time>
      </trkpt>
      <trkpt lat="47.80773" lon="7.10151">
        <ele>343.1</ele>
        <time>2023-05-18T07:04:20Z</time>
      </trkpt>
      <trkpt lat="47.80787" lon="7.1016">
        <ele>343</ele>
        <time>2023-05-18T07:04:31Z</time>
      </trkpt>
      <trkpt lat="47.80792" lon="7.10161">
        <ele>343</ele>
        <time>2023-05-18T07:04:35Z</time>
      </trkpt>
      <trkpt lat="47.80797" lon="7.10163">
        <ele>343</ele>
        <time>2023-05-18T07:04:38Z</time>
      </trkpt>
      <trkpt lat="47.80816" lon="7.10165">
        <ele>343</ele>
        <time>2023-05-18T07:04:54Z</time>
      </trkpt>
      <trkpt lat="47.8082" lon="7.10167">
        <ele>343</ele>
        <time>2023-05-18T07:04:57Z</time>
      </trkpt>
      <trkpt lat="47.80841" lon="7.10171">
        <ele>342.6</ele>
        <time>2023-05-18T07:05:15Z</time>
      </trkpt>
      <trkpt lat="47.80846" lon="7.10173">
        <ele>342.4</ele>
        <time>2023-05-18T07:05:20Z</time>
      </trkpt>
      <trkpt lat="47.80863" lon="7.10177">
        <ele>342</ele>
        <time>2023-05-18T07:05:34Z</time>
      </trkpt>
      <trkpt lat="47.80868" lon="7.10176">
        <ele>342</ele>
        <time>2023-05-18T07:05:38Z</time>
      </trkpt>
      <trkpt lat="47.80873" lon="7.10178">
        <ele>342</ele>
        <time>2023-05-18T07:05:42Z</time>
      </trkpt>
      <trkpt lat="47.80888" lon="7.10182">
        <ele>342</ele>
        <time>2023-05-18T07:05:55Z</time>
      </trkpt>
      <trkpt lat="47.80893" lon="7.10184">
        <ele>341.9</ele>
        <time>2023-05-18T07:06:00Z</time>
      </trkpt>
      <trkpt lat="47.80904" lon="7.10188">
        <ele>341.6</ele>
        <time>2023-05-18T07:06:10Z</time>
      </trkpt>
      <trkpt lat="47.80928" lon="7.10191">
        <ele>341.1</ele>
        <time>2023-05-18T07:06:30Z</time>
      </trkpt>
      <trkpt lat="47.80933" lon="7.10192">
        <ele>341</ele>
        <time>2023-05-18T07:06:35Z</time>
      </trkpt>
      <trkpt lat="47.80949" lon="7.10197">
        <ele>340.8</ele>
        <time>2023-05-18T07:06:48Z</time>
      </trkpt>
      <trkpt lat="47.80955" lon="7.10194">
        <ele>340.6</ele>
        <time>2023-05-18T07:06:56Z</time>
      </trkpt>
      <trkpt lat="47.80959" lon="7.10199">
        <ele>340.5</ele>
        <time>2023-05-18T07:06:59Z</time>
      </trkpt>
      <trkpt lat="47.80965" lon="7.102">
        <ele>340.3</ele>
        <time>2023-05-18T07:07:03Z</time>
      </trkpt>
      <trkpt lat="47.80969" lon="7.10199">
        <ele>340.1</ele>
        <time>2023-05-18T07:07:07Z</time>
      </trkpt>
      <trkpt lat="47.80973" lon="7.10194">
        <ele>340</ele>
        <time>2023-05-18T07:07:11Z</time>
      </trkpt>
      <trkpt lat="47.80981" lon="7.10195">
        <ele>340</ele>
        <time>2023-05-18T07:07:21Z</time>
      </trkpt>
      <trkpt lat="47.80984" lon="7.102">
        <ele>340</ele>
        <time>2023-05-18T07:07:27Z</time>
      </trkpt>
      <trkpt lat="47.80987" lon="7.10208">
        <ele>340</ele>
        <time>2023-05-18T07:07:31Z</time>
      </trkpt>
      <trkpt lat="47.80989" lon="7.10213">
        <ele>340</ele>
        <time>2023-05-18T07:07:34Z</time>
      </trkpt>
      <trkpt lat="47.81015" lon="7.10235">
        <ele>339.8</ele>
        <time>2023-05-18T07:07:58Z</time>
      </trkpt>
      <trkpt lat="47.81019" lon="7.10241">
        <ele>339.5</ele>
        <time>2023-05-18T07:08:04Z</time>
      </trkpt>
      <trkpt lat="47.81024" lon="7.10245">
        <ele>339.3</ele>
        <time>2023-05-18T07:08:08Z</time>
      </trkpt>
      <trkpt lat="47.81043" lon="7.10255">
        <ele>339.1</ele>
        <time>2023-05-18T07:08:22Z</time>
      </trkpt>
      <trkpt lat="47.81053" lon="7.10261">
        <ele>339</ele>
        <time>2023-05-18T07:08:32Z</time>
      </trkpt>
      <trkpt lat="47.81062" lon="7.10266">
        <ele>338.9</ele>
        <time>2023-05-18T07:08:38Z</time>
      </trkpt>
      <trkpt lat="47.81066" lon="7.10269">
        <ele>338.7</ele>
        <time>2023-05-18T07:08:41Z</time>
      </trkpt>
      <trkpt lat="47.81063" lon="7.10277">
        <ele>338.7</ele>
        <time>2023-05-18T07:08:52Z</time>
      </trkpt>
      <trkpt lat="47.81062" lon="7.1028">
        <ele>338.8</ele>
        <time>2023-05-18T07:10:02Z</time>
      </trkpt>
      <trkpt lat="47.8106" lon="7.10293">
        <ele>338.8</ele>
        <time>2023-05-18T07:10:06Z</time>
      </trkpt>
      <trkpt lat="47.81058" lon="7.10298">
        <ele>338.9</ele>
        <time>2023-05-18T07:10:09Z</time>
      </trkpt>
      <trkpt lat="47.81056" lon="7.10305">
        <ele>339</ele>
        <time>2023-05-18T07:10:13Z</time>
      </trkpt>
      <trkpt lat="47.81052" lon="7.10312">
        <ele>338.8</ele>
        <time>2023-05-18T07:10:20Z</time>
      </trkpt>
      <trkpt lat="47.81046" lon="7.10318">
        <ele>338.7</ele>
        <time>2023-05-18T07:10:27Z</time>
      </trkpt>
      <trkpt lat="47.81062" lon="7.10299">
        <ele>338.8</ele>
        <time>2023-05-18T08:01:06Z</time>
      </trkpt>
      <trkpt lat="47.81068" lon="7.10297">
        <ele>338.6</ele>
        <time>2023-05-18T08:01:15Z</time>
      </trkpt>
      <trkpt lat="47.81073" lon="7.10301">
        <ele>338.4</ele>
        <time>2023-05-18T08:01:18Z</time>
      </trkpt>
      <trkpt lat="47.81077" lon="7.10305">
        <ele>338.2</ele>
        <time>2023-05-18T08:01:24Z</time>
      </trkpt>
      <trkpt lat="47.81081" lon="7.10308">
        <ele>338.1</ele>
        <time>2023-05-18T08:01:29Z</time>
      </trkpt>
      <trkpt lat="47.81087" lon="7.10311">
        <ele>337.9</ele>
        <time>2023-05-18T08:01:32Z</time>
      </trkpt>
      <trkpt lat="47.81092" lon="7.10315">
        <ele>337.7</ele>
        <time>2023-05-18T08:01:37Z</time>
      </trkpt>
      <trkpt lat="47.811" lon="7.10325">
        <ele>337.4</ele>
        <time>2023-05-18T08:01:48Z</time>
      </trkpt>
      <trkpt lat="47.8111" lon="7.10333">
        <ele>337</ele>
        <time>2023-05-18T08:02:00Z</time>
      </trkpt>
      <trkpt lat="47.81116" lon="7.10331">
        <ele>337</ele>
        <time>2023-05-18T08:02:09Z</time>
      </trkpt>
      <trkpt lat="47.81121" lon="7.10334">
        <ele>337</ele>
        <time>2023-05-18T08:02:12Z</time>
      </trkpt>
      <trkpt lat="47.81125" lon="7.10336">
        <ele>337</ele>
        <time>2023-05-18T08:02:15Z</time>
      </trkpt>
      <trkpt lat="47.81131" lon="7.10339">
        <ele>337.1</ele>
        <time>2023-05-18T08:02:19Z</time>
      </trkpt>
      <trkpt lat="47.81135" lon="7.10342">
        <ele>337</ele>
        <time>2023-05-18T08:02:21Z</time>
      </trkpt>
      <trkpt lat="47.8114" lon="7.10347">
        <ele>337</ele>
        <time>2023-05-18T08:02:23Z</time>
      </trkpt>
      <trkpt lat="47.8114" lon="7.10355">
        <ele>337</ele>
        <time>2023-05-18T08:02:26Z</time>
      </trkpt>
      <trkpt lat="47.81139" lon="7.10362">
        <ele>337</ele>
        <time>2023-05-18T08:02:29Z</time>
      </trkpt>
      <trkpt lat="47.81138" lon="7.10369">
        <ele>337</ele>
        <time>2023-05-18T08:02:32Z</time>
      </trkpt>
      <trkpt lat="47.81138" lon="7.10376">
        <ele>337</ele>
        <time>2023-05-18T08:02:36Z</time>
      </trkpt>
      <trkpt lat="47.81138" lon="7.10384">
        <ele>337</ele>
        <time>2023-05-18T08:02:40Z</time>
      </trkpt>
      <trkpt lat="47.8114" lon="7.10392">
        <ele>337</ele>
        <time>2023-05-18T08:02:44Z</time>
      </trkpt>
      <trkpt lat="47.81141" lon="7.104">
        <ele>337.1</ele>
        <time>2023-05-18T08:02:48Z</time>
      </trkpt>
      <trkpt lat="47.81147" lon="7.10406">
        <ele>337.3</ele>
        <time>2023-05-18T08:02:56Z</time>
      </trkpt>
      <trkpt lat="47.81152" lon="7.10411">
        <ele>337.5</ele>
        <time>2023-05-18T08:03:00Z</time>
      </trkpt>
      <trkpt lat="47.81155" lon="7.10415">
        <ele>337.6</ele>
        <time>2023-05-18T08:03:03Z</time>
      </trkpt>
      <trkpt lat="47.81159" lon="7.10434">
        <ele>337.1</ele>
        <time>2023-05-18T08:03:19Z</time>
      </trkpt>
      <trkpt lat="47.81162" lon="7.1044">
        <ele>337</ele>
        <time>2023-05-18T08:03:23Z</time>
      </trkpt>
      <trkpt lat="47.81166" lon="7.10452">
        <ele>337</ele>
        <time>2023-05-18T08:03:30Z</time>
      </trkpt>
      <trkpt lat="47.8117" lon="7.10459">
        <ele>336.6</ele>
        <time>2023-05-18T08:03:35Z</time>
      </trkpt>
      <trkpt lat="47.81175" lon="7.10462">
        <ele>336.1</ele>
        <time>2023-05-18T08:03:38Z</time>
      </trkpt>
      <trkpt lat="47.81179" lon="7.10464">
        <ele>335.7</ele>
        <time>2023-05-18T08:03:43Z</time>
      </trkpt>
      <trkpt lat="47.81186" lon="7.10463">
        <ele>334.9</ele>
        <time>2023-05-18T08:03:51Z</time>
      </trkpt>
      <trkpt lat="47.81197" lon="7.10465">
        <ele>334.3</ele>
        <time>2023-05-18T08:04:00Z</time>
      </trkpt>
      <trkpt lat="47.81235" lon="7.10474">
        <ele>337.5</ele>
        <time>2023-05-18T08:04:28Z</time>
      </trkpt>
      <trkpt lat="47.81259" lon="7.10488">
        <ele>337.2</ele>
        <time>2023-05-18T08:04:47Z</time>
      </trkpt>
      <trkpt lat="47.81278" lon="7.1049">
        <ele>337.7</ele>
        <time>2023-05-18T08:05:04Z</time>
      </trkpt>
      <trkpt lat="47.81283" lon="7.1049">
        <ele>337.9</ele>
        <time>2023-05-18T08:05:09Z</time>
      </trkpt>
      <trkpt lat="47.8129" lon="7.10486">
        <ele>338.2</ele>
        <time>2023-05-18T08:05:17Z</time>
      </trkpt>
      <trkpt lat="47.81301" lon="7.10486">
        <ele>338.8</ele>
        <time>2023-05-18T08:05:25Z</time>
      </trkpt>
      <trkpt lat="47.81305" lon="7.10483">
        <ele>339</ele>
        <time>2023-05-18T08:05:29Z</time>
      </trkpt>
      <trkpt lat="47.81312" lon="7.10473">
        <ele>339</ele>
        <time>2023-05-18T08:05:38Z</time>
      </trkpt>
      <trkpt lat="47.81317" lon="7.10471">
        <ele>339.1</ele>
        <time>2023-05-18T08:05:42Z</time>
      </trkpt>
      <trkpt lat="47.81333" lon="7.10455">
        <ele>340.9</ele>
        <time>2023-05-18T08:05:56Z</time>
      </trkpt>
      <trkpt lat="47.81337" lon="7.1045">
        <ele>341.6</ele>
        <time>2023-05-18T08:06:00Z</time>
      </trkpt>
      <trkpt lat="47.81339" lon="7.10444">
        <ele>342.2</ele>
        <time>2023-05-18T08:06:04Z</time>
      </trkpt>
      <trkpt lat="47.81342" lon="7.10438">
        <ele>342.5</ele>
        <time>2023-05-18T08:06:08Z</time>
      </trkpt>
      <trkpt lat="47.81355" lon="7.10427">
        <ele>343.4</ele>
        <time>2023-05-18T08:06:19Z</time>
      </trkpt>
      <trkpt lat="47.81358" lon="7.10421">
        <ele>343.7</ele>
        <time>2023-05-18T08:06:23Z</time>
      </trkpt>
      <trkpt lat="47.8136" lon="7.10415">
        <ele>344</ele>
        <time>2023-05-18T08:06:27Z</time>
      </trkpt>
      <trkpt lat="47.81367" lon="7.10404">
        <ele>345</ele>
        <time>2023-05-18T08:06:35Z</time>
      </trkpt>
      <trkpt lat="47.8137" lon="7.10396">
        <ele>345.6</ele>
        <time>2023-05-18T08:06:41Z</time>
      </trkpt>
      <trkpt lat="47.81374" lon="7.10383">
        <ele>346.8</ele>
        <time>2023-05-18T08:06:50Z</time>
      </trkpt>
      <trkpt lat="47.81375" lon="7.10376">
        <ele>347.4</ele>
        <time>2023-05-18T08:06:54Z</time>
      </trkpt>
      <trkpt lat="47.81382" lon="7.10374">
        <ele>348.3</ele>
        <time>2023-05-18T08:07:00Z</time>
      </trkpt>
      <trkpt lat="47.81391" lon="7.10376">
        <ele>349.1</ele>
        <time>2023-05-18T08:07:08Z</time>
      </trkpt>
      <trkpt lat="47.81398" lon="7.10379">
        <ele>349.5</ele>
        <time>2023-05-18T08:07:15Z</time>
      </trkpt>
      <trkpt lat="47.81404" lon="7.10376">
        <ele>350.3</ele>
        <time>2023-05-18T08:07:19Z</time>
      </trkpt>
      <trkpt lat="47.81407" lon="7.10372">
        <ele>350.9</ele>
        <time>2023-05-18T08:07:23Z</time>
      </trkpt>
      <trkpt lat="47.81412" lon="7.10361">
        <ele>352.5</ele>
        <time>2023-05-18T08:07:32Z</time>
      </trkpt>
      <trkpt lat="47.8142" lon="7.10353">
        <ele>354.7</ele>
        <time>2023-05-18T08:07:42Z</time>
      </trkpt>
      <trkpt lat="47.81426" lon="7.10351">
        <ele>355.4</ele>
        <time>2023-05-18T08:07:47Z</time>
      </trkpt>
      <trkpt lat="47.81429" lon="7.10344">
        <ele>357.1</ele>
        <time>2023-05-18T08:07:56Z</time>
      </trkpt>
      <trkpt lat="47.81434" lon="7.1034">
        <ele>358.4</ele>
        <time>2023-05-18T08:08:01Z</time>
      </trkpt>
      <trkpt lat="47.81442" lon="7.10336">
        <ele>360.1</ele>
        <time>2023-05-18T08:08:10Z</time>
      </trkpt>
      <trkpt lat="47.81448" lon="7.10331">
        <ele>362.1</ele>
        <time>2023-05-18T08:08:18Z</time>
      </trkpt>
      <trkpt lat="47.81458" lon="7.10329">
        <ele>363.8</ele>
        <time>2023-05-18T08:08:26Z</time>
      </trkpt>
      <trkpt lat="47.81479" lon="7.10326">
        <ele>367.3</ele>
        <time>2023-05-18T08:08:48Z</time>
      </trkpt>
      <trkpt lat="47.81484" lon="7.10322">
        <ele>369.2</ele>
        <time>2023-05-18T08:08:58Z</time>
      </trkpt>
      <trkpt lat="47.81496" lon="7.10321">
        <ele>371</ele>
        <time>2023-05-18T08:09:08Z</time>
      </trkpt>
      <trkpt lat="47.81506" lon="7.1032">
        <ele>372.8</ele>
        <time>2023-05-18T08:09:24Z</time>
      </trkpt>
      <trkpt lat="47.81518" lon="7.1032">
        <ele>374.8</ele>
        <time>2023-05-18T08:09:36Z</time>
      </trkpt>
      <trkpt lat="47.81523" lon="7.10316">
        <ele>376.6</ele>
        <time>2023-05-18T08:09:41Z</time>
      </trkpt>
      <trkpt lat="47.81527" lon="7.10315">
        <ele>377.5</ele>
        <time>2023-05-18T08:09:44Z</time>
      </trkpt>
      <trkpt lat="47.81532" lon="7.10316">
        <ele>378.3</ele>
        <time>2023-05-18T08:09:47Z</time>
      </trkpt>
      <trkpt lat="47.8154" lon="7.10321">
        <ele>378.7</ele>
        <time>2023-05-18T08:10:00Z</time>
      </trkpt>
      <trkpt lat="47.81547" lon="7.10317">
        <ele>381.3</ele>
        <time>2023-05-18T08:10:08Z</time>
      </trkpt>
      <trkpt lat="47.81553" lon="7.10317">
        <ele>382.6</ele>
        <time>2023-05-18T08:10:16Z</time>
      </trkpt>
      <trkpt lat="47.81559" lon="7.10319">
        <ele>383.4</ele>
        <time>2023-05-18T08:10:21Z</time>
      </trkpt>
      <trkpt lat="47.81568" lon="7.10327">
        <ele>383.4</ele>
        <time>2023-05-18T08:10:35Z</time>
      </trkpt>
      <trkpt lat="47.81584" lon="7.10325">
        <ele>387.6</ele>
        <time>2023-05-18T08:10:54Z</time>
      </trkpt>
      <trkpt lat="47.81589" lon="7.10331">
        <ele>387.2</ele>
        <time>2023-05-18T08:10:59Z</time>
      </trkpt>
      <trkpt lat="47.816" lon="7.1034">
        <ele>389.1</ele>
        <time>2023-05-18T08:11:11Z</time>
      </trkpt>
      <trkpt lat="47.81611" lon="7.10342">
        <ele>392</ele>
        <time>2023-05-18T08:11:24Z</time>
      </trkpt>
      <trkpt lat="47.81615" lon="7.10346">
        <ele>393.1</ele>
        <time>2023-05-18T08:11:32Z</time>
      </trkpt>
      <trkpt lat="47.81612" lon="7.10317">
        <ele>395.7</ele>
        <time>2023-05-18T08:12:01Z</time>
      </trkpt>
      <trkpt lat="47.81608" lon="7.10309">
        <ele>396</ele>
        <time>2023-05-18T08:12:08Z</time>
      </trkpt>
      <trkpt lat="47.81601" lon="7.10283">
        <ele>402.3</ele>
        <time>2023-05-18T08:12:26Z</time>
      </trkpt>
      <trkpt lat="47.81583" lon="7.10267">
        <ele>403.4</ele>
        <time>2023-05-18T08:12:47Z</time>
      </trkpt>
      <trkpt lat="47.8158" lon="7.10259">
        <ele>405.1</ele>
        <time>2023-05-18T08:12:54Z</time>
      </trkpt>
      <trkpt lat="47.81572" lon="7.1025">
        <ele>405.3</ele>
        <time>2023-05-18T08:13:05Z</time>
      </trkpt>
      <trkpt lat="47.81567" lon="7.10234">
        <ele>408.3</ele>
        <time>2023-05-18T08:13:16Z</time>
      </trkpt>
      <trkpt lat="47.81562" lon="7.10237">
        <ele>405.8</ele>
        <time>2023-05-18T08:13:20Z</time>
      </trkpt>
      <trkpt lat="47.81556" lon="7.1023">
        <ele>405.9</ele>
        <time>2023-05-18T08:13:28Z</time>
      </trkpt>
      <trkpt lat="47.81545" lon="7.10209">
        <ele>410.3</ele>
        <time>2023-05-18T08:13:46Z</time>
      </trkpt>
      <trkpt lat="47.81541" lon="7.10206">
        <ele>410.4</ele>
        <time>2023-05-18T08:13:50Z</time>
      </trkpt>
      <trkpt lat="47.81533" lon="7.10192">
        <ele>412.8</ele>
        <time>2023-05-18T08:14:01Z</time>
      </trkpt>
      <trkpt lat="47.81528" lon="7.10188">
        <ele>412.4</ele>
        <time>2023-05-18T08:14:08Z</time>
      </trkpt>
      <trkpt lat="47.81524" lon="7.10183">
        <ele>414.3</ele>
        <time>2023-05-18T08:14:14Z</time>
      </trkpt>
      <trkpt lat="47.8152" lon="7.10181">
        <ele>415.6</ele>
        <time>2023-05-18T08:14:18Z</time>
      </trkpt>
      <trkpt lat="47.8151" lon="7.10185">
        <ele>416.7</ele>
        <time>2023-05-18T08:14:30Z</time>
      </trkpt>
      <trkpt lat="47.81512" lon="7.10173">
        <ele>419.3</ele>
        <time>2023-05-18T08:14:39Z</time>
      </trkpt>
      <trkpt lat="47.81521" lon="7.10163">
        <ele>419.6</ele>
        <time>2023-05-18T08:14:46Z</time>
      </trkpt>
      <trkpt lat="47.81526" lon="7.10151">
        <ele>420.9</ele>
        <time>2023-05-18T08:14:54Z</time>
      </trkpt>
      <trkpt lat="47.81531" lon="7.10143">
        <ele>422.5</ele>
        <time>2023-05-18T08:15:01Z</time>
      </trkpt>
      <trkpt lat="47.81523" lon="7.10145">
        <ele>423.3</ele>
        <time>2023-05-18T08:15:23Z</time>
      </trkpt>
      <trkpt lat="47.81519" lon="7.10138">
        <ele>426.3</ele>
        <time>2023-05-18T08:15:28Z</time>
      </trkpt>
      <trkpt lat="47.81518" lon="7.10128">
        <ele>428.2</ele>
        <time>2023-05-18T08:15:35Z</time>
      </trkpt>
      <trkpt lat="47.81519" lon="7.10121">
        <ele>428.9</ele>
        <time>2023-05-18T08:15:38Z</time>
      </trkpt>
      <trkpt lat="47.81521" lon="7.10114">
        <ele>429</ele>
        <time>2023-05-18T08:15:41Z</time>
      </trkpt>
      <trkpt lat="47.81514" lon="7.10111">
        <ele>432.9</ele>
        <time>2023-05-18T08:15:54Z</time>
      </trkpt>
      <trkpt lat="47.8151" lon="7.101">
        <ele>433.6</ele>
        <time>2023-05-18T08:16:05Z</time>
      </trkpt>
      <trkpt lat="47.81506" lon="7.1009">
        <ele>434.3</ele>
        <time>2023-05-18T08:16:19Z</time>
      </trkpt>
      <trkpt lat="47.81501" lon="7.10086">
        <ele>435.9</ele>
        <time>2023-05-18T08:16:24Z</time>
      </trkpt>
      <trkpt lat="47.81494" lon="7.10088">
        <ele>436</ele>
        <time>2023-05-18T08:16:32Z</time>
      </trkpt>
      <trkpt lat="47.81489" lon="7.10088">
        <ele>435.5</ele>
        <time>2023-05-18T08:16:35Z</time>
      </trkpt>
      <trkpt lat="47.81483" lon="7.10092">
        <ele>435.4</ele>
        <time>2023-05-18T08:16:45Z</time>
      </trkpt>
      <trkpt lat="47.81479" lon="7.10094">
        <ele>435.3</ele>
        <time>2023-05-18T08:16:56Z</time>
      </trkpt>
      <trkpt lat="47.81481" lon="7.10104">
        <ele>436.9</ele>
        <time>2023-05-18T08:17:14Z</time>
      </trkpt>
      <trkpt lat="47.81487" lon="7.10107">
        <ele>438</ele>
        <time>2023-05-18T08:17:26Z</time>
      </trkpt>
      <trkpt lat="47.81488" lon="7.10117">
        <ele>437.9</ele>
        <time>2023-05-18T08:17:41Z</time>
      </trkpt>
      <trkpt lat="47.81492" lon="7.10118">
        <ele>437.9</ele>
        <time>2023-05-18T08:18:30Z</time>
      </trkpt>
      <trkpt lat="47.81482" lon="7.10127">
        <ele>436.6</ele>
        <time>2023-05-18T08:18:48Z</time>
      </trkpt>
      <trkpt lat="47.81478" lon="7.10133">
        <ele>436.5</ele>
        <time>2023-05-18T08:18:54Z</time>
      </trkpt>
      <trkpt lat="47.81478" lon="7.10125">
        <ele>436.9</ele>
        <time>2023-05-18T08:20:42Z</time>
      </trkpt>
      <trkpt lat="47.8148" lon="7.10119">
        <ele>437.3</ele>
        <time>2023-05-18T08:20:48Z</time>
      </trkpt>
      <trkpt lat="47.81484" lon="7.10117">
        <ele>437.6</ele>
        <time>2023-05-18T08:20:53Z</time>
      </trkpt>
      <trkpt lat="47.81487" lon="7.10113">
        <ele>438.3</ele>
        <time>2023-05-18T08:20:58Z</time>
      </trkpt>
      <trkpt lat="47.81483" lon="7.10104">
        <ele>437.1</ele>
        <time>2023-05-18T08:21:10Z</time>
      </trkpt>
      <trkpt lat="47.81483" lon="7.10091">
        <ele>435.3</ele>
        <time>2023-05-18T08:21:22Z</time>
      </trkpt>
      <trkpt lat="47.81487" lon="7.10087">
        <ele>435.1</ele>
        <time>2023-05-18T08:21:27Z</time>
      </trkpt>
      <trkpt lat="47.81491" lon="7.10086">
        <ele>435.4</ele>
        <time>2023-05-18T08:21:31Z</time>
      </trkpt>
      <trkpt lat="47.81495" lon="7.10088">
        <ele>436.1</ele>
        <time>2023-05-18T08:21:36Z</time>
      </trkpt>
      <trkpt lat="47.815" lon="7.10085">
        <ele>436.2</ele>
        <time>2023-05-18T08:21:41Z</time>
      </trkpt>
      <trkpt lat="47.81505" lon="7.10081">
        <ele>433.4</ele>
        <time>2023-05-18T08:21:48Z</time>
      </trkpt>
      <trkpt lat="47.8151" lon="7.10091">
        <ele>432.6</ele>
        <time>2023-05-18T08:21:57Z</time>
      </trkpt>
      <trkpt lat="47.81514" lon="7.10096">
        <ele>431.3</ele>
        <time>2023-05-18T08:22:00Z</time>
      </trkpt>
      <trkpt lat="47.81515" lon="7.10102">
        <ele>431.5</ele>
        <time>2023-05-18T08:22:05Z</time>
      </trkpt>
      <trkpt lat="47.81518" lon="7.10107">
        <ele>430.5</ele>
        <time>2023-05-18T08:22:09Z</time>
      </trkpt>
      <trkpt lat="47.81525" lon="7.10113">
        <ele>427.2</ele>
        <time>2023-05-18T08:22:17Z</time>
      </trkpt>
      <trkpt lat="47.81527" lon="7.10106">
        <ele>426</ele>
        <time>2023-05-18T08:22:22Z</time>
      </trkpt>
      <trkpt lat="47.81526" lon="7.10078">
        <ele>423.8</ele>
        <time>2023-05-18T08:22:39Z</time>
      </trkpt>
      <trkpt lat="47.81533" lon="7.10085">
        <ele>423</ele>
        <time>2023-05-18T08:22:45Z</time>
      </trkpt>
      <trkpt lat="47.81538" lon="7.10081">
        <ele>421.4</ele>
        <time>2023-05-18T08:22:55Z</time>
      </trkpt>
      <trkpt lat="47.81542" lon="7.10076">
        <ele>419.6</ele>
        <time>2023-05-18T08:22:59Z</time>
      </trkpt>
      <trkpt lat="47.81547" lon="7.10077">
        <ele>418.7</ele>
        <time>2023-05-18T08:23:03Z</time>
      </trkpt>
      <trkpt lat="47.81562" lon="7.10085">
        <ele>417.2</ele>
        <time>2023-05-18T08:23:11Z</time>
      </trkpt>
      <trkpt lat="47.81572" lon="7.10093">
        <ele>417.3</ele>
        <time>2023-05-18T08:23:17Z</time>
      </trkpt>
      <trkpt lat="47.81579" lon="7.10096">
        <ele>416.9</ele>
        <time>2023-05-18T08:23:24Z</time>
      </trkpt>
      <trkpt lat="47.81584" lon="7.101">
        <ele>417</ele>
        <time>2023-05-18T08:23:27Z</time>
      </trkpt>
      <trkpt lat="47.81589" lon="7.10106">
        <ele>417.3</ele>
        <time>2023-05-18T08:23:34Z</time>
      </trkpt>
      <trkpt lat="47.81595" lon="7.10114">
        <ele>417.6</ele>
        <time>2023-05-18T08:23:40Z</time>
      </trkpt>
      <trkpt lat="47.81604" lon="7.1012">
        <ele>416.6</ele>
        <time>2023-05-18T08:23:47Z</time>
      </trkpt>
      <trkpt lat="47.81604" lon="7.10128">
        <ele>418.3</ele>
        <time>2023-05-18T08:23:51Z</time>
      </trkpt>
      <trkpt lat="47.81603" lon="7.10135">
        <ele>420</ele>
        <time>2023-05-18T08:23:56Z</time>
      </trkpt>
      <trkpt lat="47.81601" lon="7.10145">
        <ele>421.7</ele>
        <time>2023-05-18T08:24:01Z</time>
      </trkpt>
      <trkpt lat="47.81602" lon="7.10151">
        <ele>422</ele>
        <time>2023-05-18T08:24:04Z</time>
      </trkpt>
      <trkpt lat="47.81608" lon="7.10169">
        <ele>422.6</ele>
        <time>2023-05-18T08:24:18Z</time>
      </trkpt>
      <trkpt lat="47.81615" lon="7.10179">
        <ele>423.2</ele>
        <time>2023-05-18T08:24:27Z</time>
      </trkpt>
      <trkpt lat="47.81617" lon="7.10185">
        <ele>423.9</ele>
        <time>2023-05-18T08:24:32Z</time>
      </trkpt>
      <trkpt lat="47.81629" lon="7.10205">
        <ele>425.4</ele>
        <time>2023-05-18T08:24:47Z</time>
      </trkpt>
      <trkpt lat="47.81633" lon="7.1021">
        <ele>425.7</ele>
        <time>2023-05-18T08:24:55Z</time>
      </trkpt>
      <trkpt lat="47.81643" lon="7.10212">
        <ele>427.5</ele>
        <time>2023-05-18T08:25:03Z</time>
      </trkpt>
      <trkpt lat="47.81648" lon="7.10206">
        <ele>429</ele>
        <time>2023-05-18T08:25:09Z</time>
      </trkpt>
      <trkpt lat="47.81653" lon="7.10198">
        <ele>430.5</ele>
        <time>2023-05-18T08:25:19Z</time>
      </trkpt>
      <trkpt lat="47.81659" lon="7.10198">
        <ele>432</ele>
        <time>2023-05-18T08:25:24Z</time>
      </trkpt>
      <trkpt lat="47.81663" lon="7.10192">
        <ele>432.8</ele>
        <time>2023-05-18T08:25:32Z</time>
      </trkpt>
      <trkpt lat="47.81669" lon="7.10189">
        <ele>434.1</ele>
        <time>2023-05-18T08:25:38Z</time>
      </trkpt>
      <trkpt lat="47.81674" lon="7.10177">
        <ele>434.6</ele>
        <time>2023-05-18T08:25:50Z</time>
      </trkpt>
      <trkpt lat="47.81681" lon="7.1017">
        <ele>436.4</ele>
        <time>2023-05-18T08:25:56Z</time>
      </trkpt>
      <trkpt lat="47.81687" lon="7.10172">
        <ele>438.6</ele>
        <time>2023-05-18T08:26:03Z</time>
      </trkpt>
      <trkpt lat="47.81694" lon="7.10178">
        <ele>441.3</ele>
        <time>2023-05-18T08:26:13Z</time>
      </trkpt>
      <trkpt lat="47.81699" lon="7.1018">
        <ele>442.8</ele>
        <time>2023-05-18T08:26:21Z</time>
      </trkpt>
      <trkpt lat="47.81701" lon="7.10188">
        <ele>443.5</ele>
        <time>2023-05-18T08:26:27Z</time>
      </trkpt>
      <trkpt lat="47.81707" lon="7.10184">
        <ele>445.1</ele>
        <time>2023-05-18T08:26:32Z</time>
      </trkpt>
      <trkpt lat="47.8171" lon="7.10186">
        <ele>446</ele>
        <time>2023-05-18T08:26:40Z</time>
      </trkpt>
      <trkpt lat="47.81717" lon="7.10183">
        <ele>447.9</ele>
        <time>2023-05-18T08:26:47Z</time>
      </trkpt>
      <trkpt lat="47.81721" lon="7.10189">
        <ele>448.9</ele>
        <time>2023-05-18T08:26:51Z</time>
      </trkpt>
      <trkpt lat="47.81735" lon="7.10182">
        <ele>453.6</ele>
        <time>2023-05-18T08:27:17Z</time>
      </trkpt>
      <trkpt lat="47.81738" lon="7.10172">
        <ele>454.9</ele>
        <time>2023-05-18T08:27:26Z</time>
      </trkpt>
      <trkpt lat="47.81741" lon="7.10181">
        <ele>455.6</ele>
        <time>2023-05-18T08:27:31Z</time>
      </trkpt>
      <trkpt lat="47.81743" lon="7.10188">
        <ele>456</ele>
        <time>2023-05-18T08:27:33Z</time>
      </trkpt>
      <trkpt lat="47.81749" lon="7.10184">
        <ele>458.1</ele>
        <time>2023-05-18T08:27:43Z</time>
      </trkpt>
      <trkpt lat="47.81748" lon="7.10176">
        <ele>458</ele>
        <time>2023-05-18T08:27:47Z</time>
      </trkpt>
      <trkpt lat="47.81752" lon="7.10172">
        <ele>459.4</ele>
        <time>2023-05-18T08:27:52Z</time>
      </trkpt>
      <trkpt lat="47.81756" lon="7.10161">
        <ele>460.8</ele>
        <time>2023-05-18T08:28:06Z</time>
      </trkpt>
      <trkpt lat="47.81761" lon="7.10168">
        <ele>462.4</ele>
        <time>2023-05-18T08:28:09Z</time>
      </trkpt>
      <trkpt lat="47.81763" lon="7.10175">
        <ele>462.4</ele>
        <time>2023-05-18T08:28:12Z</time>
      </trkpt>
      <trkpt lat="47.81763" lon="7.10181">
        <ele>461.7</ele>
        <time>2023-05-18T08:28:16Z</time>
      </trkpt>
      <trkpt lat="47.81767" lon="7.1017">
        <ele>464.1</ele>
        <time>2023-05-18T08:28:28Z</time>
      </trkpt>
      <trkpt lat="47.81773" lon="7.10135">
        <ele>466.8</ele>
        <time>2023-05-18T08:28:54Z</time>
      </trkpt>
      <trkpt lat="47.81782" lon="7.10104">
        <ele>468.5</ele>
        <time>2023-05-18T08:29:16Z</time>
      </trkpt>
      <trkpt lat="47.8179" lon="7.10086">
        <ele>471.7</ele>
        <time>2023-05-18T08:29:31Z</time>
      </trkpt>
      <trkpt lat="47.81792" lon="7.10079">
        <ele>472.4</ele>
        <time>2023-05-18T08:29:35Z</time>
      </trkpt>
      <trkpt lat="47.81794" lon="7.1006">
        <ele>472.1</ele>
        <time>2023-05-18T08:29:46Z</time>
      </trkpt>
      <trkpt lat="47.81804" lon="7.10034">
        <ele>475.6</ele>
        <time>2023-05-18T08:30:05Z</time>
      </trkpt>
      <trkpt lat="47.8181" lon="7.10029">
        <ele>478.5</ele>
        <time>2023-05-18T08:30:11Z</time>
      </trkpt>
      <trkpt lat="47.81814" lon="7.10022">
        <ele>480.1</ele>
        <time>2023-05-18T08:30:19Z</time>
      </trkpt>
      <trkpt lat="47.81818" lon="7.1002">
        <ele>482.2</ele>
        <time>2023-05-18T08:30:23Z</time>
      </trkpt>
      <trkpt lat="47.81817" lon="7.10009">
        <ele>480.8</ele>
        <time>2023-05-18T08:30:32Z</time>
      </trkpt>
      <trkpt lat="47.81828" lon="7.09973">
        <ele>484</ele>
        <time>2023-05-18T08:30:58Z</time>
      </trkpt>
      <trkpt lat="47.81833" lon="7.09977">
        <ele>487.2</ele>
        <time>2023-05-18T08:31:07Z</time>
      </trkpt>
      <trkpt lat="47.81836" lon="7.09991">
        <ele>489.9</ele>
        <time>2023-05-18T08:31:14Z</time>
      </trkpt>
      <trkpt lat="47.81836" lon="7.10024">
        <ele>492.2</ele>
        <time>2023-05-18T08:31:35Z</time>
      </trkpt>
      <trkpt lat="47.81834" lon="7.10039">
        <ele>492.2</ele>
        <time>2023-05-18T08:31:43Z</time>
      </trkpt>
      <trkpt lat="47.81839" lon="7.10054">
        <ele>495.8</ele>
        <time>2023-05-18T08:31:53Z</time>
      </trkpt>
      <trkpt lat="47.81839" lon="7.10067">
        <ele>496.2</ele>
        <time>2023-05-18T08:32:03Z</time>
      </trkpt>
      <trkpt lat="47.81841" lon="7.10074">
        <ele>497.3</ele>
        <time>2023-05-18T08:32:06Z</time>
      </trkpt>
      <trkpt lat="47.81839" lon="7.10096">
        <ele>496.6</ele>
        <time>2023-05-18T08:32:18Z</time>
      </trkpt>
      <trkpt lat="47.81841" lon="7.10106">
        <ele>497.4</ele>
        <time>2023-05-18T08:32:27Z</time>
      </trkpt>
      <trkpt lat="47.81849" lon="7.10115">
        <ele>500.3</ele>
        <time>2023-05-18T08:32:36Z</time>
      </trkpt>
      <trkpt lat="47.8185" lon="7.10114">
        <ele>500.8</ele>
        <time>2023-05-18T08:32:55Z</time>
      </trkpt>
      <trkpt lat="47.81849" lon="7.10107">
        <ele>500.9</ele>
        <time>2023-05-18T08:32:58Z</time>
      </trkpt>
      <trkpt lat="47.81851" lon="7.10098">
        <ele>501.9</ele>
        <time>2023-05-18T08:33:06Z</time>
      </trkpt>
      <trkpt lat="47.81852" lon="7.10087">
        <ele>502.6</ele>
        <time>2023-05-18T08:33:14Z</time>
      </trkpt>
      <trkpt lat="47.81854" lon="7.10066">
        <ele>503.5</ele>
        <time>2023-05-18T08:33:31Z</time>
      </trkpt>
      <trkpt lat="47.81859" lon="7.10051">
        <ele>505.8</ele>
        <time>2023-05-18T08:33:42Z</time>
      </trkpt>
      <trkpt lat="47.81861" lon="7.10034">
        <ele>506.2</ele>
        <time>2023-05-18T08:33:53Z</time>
      </trkpt>
      <trkpt lat="47.81862" lon="7.10028">
        <ele>506.5</ele>
        <time>2023-05-18T08:33:58Z</time>
      </trkpt>
      <trkpt lat="47.81863" lon="7.1002">
        <ele>506.7</ele>
        <time>2023-05-18T08:34:02Z</time>
      </trkpt>
      <trkpt lat="47.81866" lon="7.10014">
        <ele>508.1</ele>
        <time>2023-05-18T08:34:09Z</time>
      </trkpt>
      <trkpt lat="47.81873" lon="7.09985">
        <ele>509.9</ele>
        <time>2023-05-18T08:34:26Z</time>
      </trkpt>
      <trkpt lat="47.81876" lon="7.0998">
        <ele>511.1</ele>
        <time>2023-05-18T08:34:31Z</time>
      </trkpt>
      <trkpt lat="47.81879" lon="7.09965">
        <ele>511.3</ele>
        <time>2023-05-18T08:34:43Z</time>
      </trkpt>
      <trkpt lat="47.81895" lon="7.09942">
        <ele>518.4</ele>
        <time>2023-05-18T08:35:08Z</time>
      </trkpt>
      <trkpt lat="47.81899" lon="7.09915">
        <ele>519.4</ele>
        <time>2023-05-18T08:35:28Z</time>
      </trkpt>
      <trkpt lat="47.81899" lon="7.09908">
        <ele>518.9</ele>
        <time>2023-05-18T08:35:33Z</time>
      </trkpt>
      <trkpt lat="47.81903" lon="7.09901">
        <ele>520.8</ele>
        <time>2023-05-18T08:35:41Z</time>
      </trkpt>
      <trkpt lat="47.81905" lon="7.09887">
        <ele>521.2</ele>
        <time>2023-05-18T08:35:48Z</time>
      </trkpt>
      <trkpt lat="47.81905" lon="7.09881">
        <ele>521.1</ele>
        <time>2023-05-18T08:35:52Z</time>
      </trkpt>
      <trkpt lat="47.81915" lon="7.09849">
        <ele>525.7</ele>
        <time>2023-05-18T08:36:16Z</time>
      </trkpt>
      <trkpt lat="47.81915" lon="7.09842">
        <ele>525.4</ele>
        <time>2023-05-18T08:36:20Z</time>
      </trkpt>
      <trkpt lat="47.81915" lon="7.09835">
        <ele>525.2</ele>
        <time>2023-05-18T08:36:26Z</time>
      </trkpt>
      <trkpt lat="47.81915" lon="7.09828">
        <ele>525.3</ele>
        <time>2023-05-18T08:36:30Z</time>
      </trkpt>
      <trkpt lat="47.81919" lon="7.09804">
        <ele>528.1</ele>
        <time>2023-05-18T08:36:46Z</time>
      </trkpt>
      <trkpt lat="47.81919" lon="7.09797">
        <ele>528.3</ele>
        <time>2023-05-18T08:36:50Z</time>
      </trkpt>
      <trkpt lat="47.81918" lon="7.09788">
        <ele>528.1</ele>
        <time>2023-05-18T08:36:55Z</time>
      </trkpt>
      <trkpt lat="47.81919" lon="7.09782">
        <ele>528.6</ele>
        <time>2023-05-18T08:37:00Z</time>
      </trkpt>
      <trkpt lat="47.8192" lon="7.09774">
        <ele>529.1</ele>
        <time>2023-05-18T08:37:04Z</time>
      </trkpt>
      <trkpt lat="47.8192" lon="7.09767">
        <ele>529.4</ele>
        <time>2023-05-18T08:37:08Z</time>
      </trkpt>
      <trkpt lat="47.81923" lon="7.09761">
        <ele>530.1</ele>
        <time>2023-05-18T08:37:12Z</time>
      </trkpt>
      <trkpt lat="47.81924" lon="7.09755">
        <ele>530.2</ele>
        <time>2023-05-18T08:37:16Z</time>
      </trkpt>
      <trkpt lat="47.8193" lon="7.09745">
        <ele>530.1</ele>
        <time>2023-05-18T08:37:23Z</time>
      </trkpt>
      <trkpt lat="47.81934" lon="7.09744">
        <ele>530</ele>
        <time>2023-05-18T08:37:27Z</time>
      </trkpt>
      <trkpt lat="47.81942" lon="7.09753">
        <ele>531.4</ele>
        <time>2023-05-18T08:37:34Z</time>
      </trkpt>
      <trkpt lat="47.81945" lon="7.09759">
        <ele>532.5</ele>
        <time>2023-05-18T08:37:38Z</time>
      </trkpt>
      <trkpt lat="47.81953" lon="7.09767">
        <ele>532.5</ele>
        <time>2023-05-18T08:37:45Z</time>
      </trkpt>
      <trkpt lat="47.81988" lon="7.09792">
        <ele>534.5</ele>
        <time>2023-05-18T08:38:17Z</time>
      </trkpt>
      <trkpt lat="47.81996" lon="7.09796">
        <ele>534.5</ele>
        <time>2023-05-18T08:38:24Z</time>
      </trkpt>
      <trkpt lat="47.82007" lon="7.09813">
        <ele>535.7</ele>
        <time>2023-05-18T08:38:36Z</time>
      </trkpt>
      <trkpt lat="47.82009" lon="7.0982">
        <ele>536.4</ele>
        <time>2023-05-18T08:38:41Z</time>
      </trkpt>
      <trkpt lat="47.82019" lon="7.09835">
        <ele>535.9</ele>
        <time>2023-05-18T08:38:53Z</time>
      </trkpt>
      <trkpt lat="47.8202" lon="7.09842">
        <ele>537.2</ele>
        <time>2023-05-18T08:38:57Z</time>
      </trkpt>
      <trkpt lat="47.82024" lon="7.09846">
        <ele>536.6</ele>
        <time>2023-05-18T08:39:00Z</time>
      </trkpt>
      <trkpt lat="47.82025" lon="7.09853">
        <ele>538</ele>
        <time>2023-05-18T08:39:04Z</time>
      </trkpt>
      <trkpt lat="47.82033" lon="7.09861">
        <ele>536.3</ele>
        <time>2023-05-18T08:39:12Z</time>
      </trkpt>
      <trkpt lat="47.82035" lon="7.09868">
        <ele>537</ele>
        <time>2023-05-18T08:39:16Z</time>
      </trkpt>
      <trkpt lat="47.82043" lon="7.09884">
        <ele>537.2</ele>
        <time>2023-05-18T08:39:28Z</time>
      </trkpt>
      <trkpt lat="47.8205" lon="7.09906">
        <ele>540.1</ele>
        <time>2023-05-18T08:39:43Z</time>
      </trkpt>
      <trkpt lat="47.82063" lon="7.09932">
        <ele>542.8</ele>
        <time>2023-05-18T08:40:00Z</time>
      </trkpt>
      <trkpt lat="47.82076" lon="7.09945">
        <ele>542.6</ele>
        <time>2023-05-18T08:40:12Z</time>
      </trkpt>
      <trkpt lat="47.82088" lon="7.09951">
        <ele>541.9</ele>
        <time>2023-05-18T08:40:21Z</time>
      </trkpt>
      <trkpt lat="47.82095" lon="7.09958">
        <ele>543.8</ele>
        <time>2023-05-18T08:40:25Z</time>
      </trkpt>
      <trkpt lat="47.8211" lon="7.09961">
        <ele>543.7</ele>
        <time>2023-05-18T08:40:39Z</time>
      </trkpt>
      <trkpt lat="47.82121" lon="7.09966">
        <ele>547</ele>
        <time>2023-05-18T08:40:49Z</time>
      </trkpt>
      <trkpt lat="47.82129" lon="7.0996">
        <ele>545.7</ele>
        <time>2023-05-18T08:41:03Z</time>
      </trkpt>
      <trkpt lat="47.82134" lon="7.0996">
        <ele>546.5</ele>
        <time>2023-05-18T08:41:07Z</time>
      </trkpt>
      <trkpt lat="47.8214" lon="7.09959">
        <ele>547.1</ele>
        <time>2023-05-18T08:41:10Z</time>
      </trkpt>
      <trkpt lat="47.82144" lon="7.09954">
        <ele>546.4</ele>
        <time>2023-05-18T08:41:15Z</time>
      </trkpt>
      <trkpt lat="47.82149" lon="7.09947">
        <ele>545.3</ele>
        <time>2023-05-18T08:41:22Z</time>
      </trkpt>
      <trkpt lat="47.82172" lon="7.0994">
        <ele>549.8</ele>
        <time>2023-05-18T08:41:41Z</time>
      </trkpt>
      <trkpt lat="47.82182" lon="7.09932">
        <ele>549.7</ele>
        <time>2023-05-18T08:41:51Z</time>
      </trkpt>
      <trkpt lat="47.82189" lon="7.09928">
        <ele>550.4</ele>
        <time>2023-05-18T08:41:57Z</time>
      </trkpt>
      <trkpt lat="47.82192" lon="7.09923">
        <ele>549.5</ele>
        <time>2023-05-18T08:42:01Z</time>
      </trkpt>
      <trkpt lat="47.82202" lon="7.09915">
        <ele>549</ele>
        <time>2023-05-18T08:42:11Z</time>
      </trkpt>
      <trkpt lat="47.82208" lon="7.09914">
        <ele>550</ele>
        <time>2023-05-18T08:42:15Z</time>
      </trkpt>
      <trkpt lat="47.82212" lon="7.09911">
        <ele>549.8</ele>
        <time>2023-05-18T08:42:20Z</time>
      </trkpt>
      <trkpt lat="47.82219" lon="7.09913">
        <ele>552</ele>
        <time>2023-05-18T08:42:25Z</time>
      </trkpt>
      <trkpt lat="47.82223" lon="7.09912">
        <ele>552.1</ele>
        <time>2023-05-18T08:42:30Z</time>
      </trkpt>
      <trkpt lat="47.82236" lon="7.0992">
        <ele>551.4</ele>
        <time>2023-05-18T08:42:40Z</time>
      </trkpt>
      <trkpt lat="47.8225" lon="7.09932">
        <ele>551.4</ele>
        <time>2023-05-18T08:42:50Z</time>
      </trkpt>
      <trkpt lat="47.82259" lon="7.09945">
        <ele>553.9</ele>
        <time>2023-05-18T08:43:04Z</time>
      </trkpt>
      <trkpt lat="47.82263" lon="7.09948">
        <ele>554.3</ele>
        <time>2023-05-18T08:43:08Z</time>
      </trkpt>
      <trkpt lat="47.82268" lon="7.09951">
        <ele>554.5</ele>
        <time>2023-05-18T08:43:11Z</time>
      </trkpt>
      <trkpt lat="47.82274" lon="7.09952">
        <ele>554</ele>
        <time>2023-05-18T08:43:18Z</time>
      </trkpt>
      <trkpt lat="47.82284" lon="7.09959">
        <ele>554.2</ele>
        <time>2023-05-18T08:43:27Z</time>
      </trkpt>
      <trkpt lat="47.8229" lon="7.09961">
        <ele>553.4</ele>
        <time>2023-05-18T08:43:36Z</time>
      </trkpt>
      <trkpt lat="47.82296" lon="7.09965">
        <ele>552.9</ele>
        <time>2023-05-18T08:43:43Z</time>
      </trkpt>
      <trkpt lat="47.82297" lon="7.09974">
        <ele>554.8</ele>
        <time>2023-05-18T08:43:48Z</time>
      </trkpt>
      <trkpt lat="47.82302" lon="7.09988">
        <ele>555.5</ele>
        <time>2023-05-18T08:43:55Z</time>
      </trkpt>
      <trkpt lat="47.82302" lon="7.09998">
        <ele>557.1</ele>
        <time>2023-05-18T08:43:59Z</time>
      </trkpt>
      <trkpt lat="47.82304" lon="7.10004">
        <ele>556.6</ele>
        <time>2023-05-18T08:44:02Z</time>
      </trkpt>
      <trkpt lat="47.82303" lon="7.1002">
        <ele>557.1</ele>
        <time>2023-05-18T08:44:10Z</time>
      </trkpt>
      <trkpt lat="47.82298" lon="7.10039">
        <ele>558.6</ele>
        <time>2023-05-18T08:44:20Z</time>
      </trkpt>
      <trkpt lat="47.8229" lon="7.10048">
        <ele>561.4</ele>
        <time>2023-05-18T08:44:26Z</time>
      </trkpt>
      <trkpt lat="47.82288" lon="7.10056">
        <ele>561.6</ele>
        <time>2023-05-18T08:44:29Z</time>
      </trkpt>
      <trkpt lat="47.82288" lon="7.10062">
        <ele>561.8</ele>
        <time>2023-05-18T08:44:33Z</time>
      </trkpt>
      <trkpt lat="47.82283" lon="7.10079">
        <ele>564.1</ele>
        <time>2023-05-18T08:44:46Z</time>
      </trkpt>
      <trkpt lat="47.82285" lon="7.10099">
        <ele>565.1</ele>
        <time>2023-05-18T08:45:02Z</time>
      </trkpt>
      <trkpt lat="47.82289" lon="7.10109">
        <ele>564.7</ele>
        <time>2023-05-18T08:45:10Z</time>
      </trkpt>
      <trkpt lat="47.82288" lon="7.10117">
        <ele>566.2</ele>
        <time>2023-05-18T08:45:13Z</time>
      </trkpt>
      <trkpt lat="47.8229" lon="7.10124">
        <ele>566.5</ele>
        <time>2023-05-18T08:45:16Z</time>
      </trkpt>
      <trkpt lat="47.82293" lon="7.10131">
        <ele>566.3</ele>
        <time>2023-05-18T08:45:20Z</time>
      </trkpt>
      <trkpt lat="47.82297" lon="7.10151">
        <ele>566.7</ele>
        <time>2023-05-18T08:45:36Z</time>
      </trkpt>
      <trkpt lat="47.82294" lon="7.10181">
        <ele>569.8</ele>
        <time>2023-05-18T08:45:57Z</time>
      </trkpt>
      <trkpt lat="47.82296" lon="7.10188">
        <ele>569</ele>
        <time>2023-05-18T08:46:02Z</time>
      </trkpt>
      <trkpt lat="47.82296" lon="7.10195">
        <ele>569.2</ele>
        <time>2023-05-18T08:46:06Z</time>
      </trkpt>
      <trkpt lat="47.82293" lon="7.10201">
        <ele>570.9</ele>
        <time>2023-05-18T08:46:10Z</time>
      </trkpt>
      <trkpt lat="47.82293" lon="7.10209">
        <ele>571</ele>
        <time>2023-05-18T08:46:13Z</time>
      </trkpt>
      <trkpt lat="47.82289" lon="7.10222">
        <ele>573.5</ele>
        <time>2023-05-18T08:46:20Z</time>
      </trkpt>
      <trkpt lat="47.82291" lon="7.10229">
        <ele>572.5</ele>
        <time>2023-05-18T08:46:24Z</time>
      </trkpt>
      <trkpt lat="47.82288" lon="7.10237">
        <ele>574.3</ele>
        <time>2023-05-18T08:46:29Z</time>
      </trkpt>
      <trkpt lat="47.82288" lon="7.10244">
        <ele>574.4</ele>
        <time>2023-05-18T08:46:33Z</time>
      </trkpt>
      <trkpt lat="47.82285" lon="7.10252">
        <ele>576.1</ele>
        <time>2023-05-18T08:46:36Z</time>
      </trkpt>
      <trkpt lat="47.82282" lon="7.10274">
        <ele>577.5</ele>
        <time>2023-05-18T08:46:49Z</time>
      </trkpt>
      <trkpt lat="47.82279" lon="7.1028">
        <ele>578.7</ele>
        <time>2023-05-18T08:46:53Z</time>
      </trkpt>
      <trkpt lat="47.82277" lon="7.10288">
        <ele>580</ele>
        <time>2023-05-18T08:46:57Z</time>
      </trkpt>
      <trkpt lat="47.82276" lon="7.10297">
        <ele>580.9</ele>
        <time>2023-05-18T08:47:04Z</time>
      </trkpt>
      <trkpt lat="47.82275" lon="7.10312">
        <ele>582.2</ele>
        <time>2023-05-18T08:47:14Z</time>
      </trkpt>
      <trkpt lat="47.82271" lon="7.10319">
        <ele>583.3</ele>
        <time>2023-05-18T08:47:19Z</time>
      </trkpt>
      <trkpt lat="47.82269" lon="7.10329">
        <ele>584.1</ele>
        <time>2023-05-18T08:47:26Z</time>
      </trkpt>
      <trkpt lat="47.82274" lon="7.10339">
        <ele>584.8</ele>
        <time>2023-05-18T08:47:35Z</time>
      </trkpt>
      <trkpt lat="47.8228" lon="7.10338">
        <ele>584.8</ele>
        <time>2023-05-18T08:47:40Z</time>
      </trkpt>
      <trkpt lat="47.82291" lon="7.10325">
        <ele>582.9</ele>
        <time>2023-05-18T08:47:52Z</time>
      </trkpt>
      <trkpt lat="47.82298" lon="7.10325">
        <ele>582.7</ele>
        <time>2023-05-18T08:48:00Z</time>
      </trkpt>
      <trkpt lat="47.82304" lon="7.10322">
        <ele>581.8</ele>
        <time>2023-05-18T08:48:05Z</time>
      </trkpt>
      <trkpt lat="47.8231" lon="7.10322">
        <ele>582</ele>
        <time>2023-05-18T08:48:09Z</time>
      </trkpt>
      <trkpt lat="47.82313" lon="7.10317">
        <ele>580.7</ele>
        <time>2023-05-18T08:48:12Z</time>
      </trkpt>
      <trkpt lat="47.8232" lon="7.10316">
        <ele>580.7</ele>
        <time>2023-05-18T08:48:17Z</time>
      </trkpt>
      <trkpt lat="47.82325" lon="7.10321">
        <ele>582.5</ele>
        <time>2023-05-18T08:48:20Z</time>
      </trkpt>
      <trkpt lat="47.82343" lon="7.10321">
        <ele>583.7</ele>
        <time>2023-05-18T08:48:37Z</time>
      </trkpt>
      <trkpt lat="47.82354" lon="7.10314">
        <ele>582.2</ele>
        <time>2023-05-18T08:48:49Z</time>
      </trkpt>
      <trkpt lat="47.8239" lon="7.10313">
        <ele>582.9</ele>
        <time>2023-05-18T08:49:19Z</time>
      </trkpt>
      <trkpt lat="47.82394" lon="7.10311">
        <ele>582.1</ele>
        <time>2023-05-18T08:49:25Z</time>
      </trkpt>
      <trkpt lat="47.82408" lon="7.10312">
        <ele>582.4</ele>
        <time>2023-05-18T08:49:38Z</time>
      </trkpt>
      <trkpt lat="47.82414" lon="7.10315">
        <ele>583.4</ele>
        <time>2023-05-18T08:49:42Z</time>
      </trkpt>
      <trkpt lat="47.82419" lon="7.10314">
        <ele>582.7</ele>
        <time>2023-05-18T08:49:46Z</time>
      </trkpt>
      <trkpt lat="47.82423" lon="7.10315">
        <ele>582.4</ele>
        <time>2023-05-18T08:49:50Z</time>
      </trkpt>
      <trkpt lat="47.82428" lon="7.1032">
        <ele>583.4</ele>
        <time>2023-05-18T08:49:53Z</time>
      </trkpt>
      <trkpt lat="47.8244" lon="7.10322">
        <ele>582.1</ele>
        <time>2023-05-18T08:50:03Z</time>
      </trkpt>
      <trkpt lat="47.82447" lon="7.10325">
        <ele>581.7</ele>
        <time>2023-05-18T08:50:10Z</time>
      </trkpt>
      <trkpt lat="47.8245" lon="7.10331">
        <ele>582.8</ele>
        <time>2023-05-18T08:50:15Z</time>
      </trkpt>
      <trkpt lat="47.82459" lon="7.10334">
        <ele>581.5</ele>
        <time>2023-05-18T08:50:25Z</time>
      </trkpt>
      <trkpt lat="47.82463" lon="7.10338">
        <ele>581.5</ele>
        <time>2023-05-18T08:50:28Z</time>
      </trkpt>
      <trkpt lat="47.82482" lon="7.10345">
        <ele>579.3</ele>
        <time>2023-05-18T08:50:48Z</time>
      </trkpt>
      <trkpt lat="47.82487" lon="7.10346">
        <ele>578.7</ele>
        <time>2023-05-18T08:50:52Z</time>
      </trkpt>
      <trkpt lat="47.82503" lon="7.10352">
        <ele>578.1</ele>
        <time>2023-05-18T08:51:04Z</time>
      </trkpt>
      <trkpt lat="47.82507" lon="7.10357">
        <ele>579</ele>
        <time>2023-05-18T08:51:07Z</time>
      </trkpt>
      <trkpt lat="47.82513" lon="7.10359">
        <ele>578.5</ele>
        <time>2023-05-18T08:51:15Z</time>
      </trkpt>
      <trkpt lat="47.82516" lon="7.10364">
        <ele>579.2</ele>
        <time>2023-05-18T08:51:19Z</time>
      </trkpt>
      <trkpt lat="47.82532" lon="7.10372">
        <ele>578.6</ele>
        <time>2023-05-18T08:51:31Z</time>
      </trkpt>
      <trkpt lat="47.82538" lon="7.10371">
        <ele>578.1</ele>
        <time>2023-05-18T08:51:39Z</time>
      </trkpt>
      <trkpt lat="47.82543" lon="7.10374">
        <ele>578.7</ele>
        <time>2023-05-18T08:51:44Z</time>
      </trkpt>
      <trkpt lat="47.82559" lon="7.10374">
        <ele>578.3</ele>
        <time>2023-05-18T08:51:56Z</time>
      </trkpt>
      <trkpt lat="47.82577" lon="7.10381">
        <ele>579.7</ele>
        <time>2023-05-18T08:52:12Z</time>
      </trkpt>
      <trkpt lat="47.82583" lon="7.10379">
        <ele>579.2</ele>
        <time>2023-05-18T08:52:19Z</time>
      </trkpt>
      <trkpt lat="47.82588" lon="7.10377">
        <ele>579.5</ele>
        <time>2023-05-18T08:52:26Z</time>
      </trkpt>
      <trkpt lat="47.82592" lon="7.10371">
        <ele>579.2</ele>
        <time>2023-05-18T08:52:30Z</time>
      </trkpt>
      <trkpt lat="47.82596" lon="7.10372">
        <ele>580</ele>
        <time>2023-05-18T08:52:32Z</time>
      </trkpt>
      <trkpt lat="47.82601" lon="7.10368">
        <ele>580.4</ele>
        <time>2023-05-18T08:52:36Z</time>
      </trkpt>
      <trkpt lat="47.82604" lon="7.10363">
        <ele>580.6</ele>
        <time>2023-05-18T08:52:40Z</time>
      </trkpt>
      <trkpt lat="47.82609" lon="7.10361">
        <ele>581.5</ele>
        <time>2023-05-18T08:52:44Z</time>
      </trkpt>
      <trkpt lat="47.82615" lon="7.10363">
        <ele>583.4</ele>
        <time>2023-05-18T08:52:47Z</time>
      </trkpt>
      <trkpt lat="47.82617" lon="7.10357">
        <ele>583.7</ele>
        <time>2023-05-18T08:52:52Z</time>
      </trkpt>
      <trkpt lat="47.82618" lon="7.1035">
        <ele>583.4</ele>
        <time>2023-05-18T08:53:00Z</time>
      </trkpt>
      <trkpt lat="47.82623" lon="7.10361">
        <ele>586.3</ele>
        <time>2023-05-18T08:53:03Z</time>
      </trkpt>
      <trkpt lat="47.82623" lon="7.10367">
        <ele>585.8</ele>
        <time>2023-05-18T08:53:08Z</time>
      </trkpt>
      <trkpt lat="47.82628" lon="7.1036">
        <ele>588</ele>
        <time>2023-05-18T08:53:18Z</time>
      </trkpt>
      <trkpt lat="47.82633" lon="7.10355">
        <ele>589.4</ele>
        <time>2023-05-18T08:53:24Z</time>
      </trkpt>
      <trkpt lat="47.82632" lon="7.10344">
        <ele>588.1</ele>
        <time>2023-05-18T08:53:38Z</time>
      </trkpt>
      <trkpt lat="47.82636" lon="7.10335">
        <ele>589</ele>
        <time>2023-05-18T08:53:42Z</time>
      </trkpt>
      <trkpt lat="47.82641" lon="7.10332">
        <ele>590.6</ele>
        <time>2023-05-18T08:53:52Z</time>
      </trkpt>
      <trkpt lat="47.82643" lon="7.10355">
        <ele>593</ele>
        <time>2023-05-18T08:54:02Z</time>
      </trkpt>
      <trkpt lat="47.82647" lon="7.10356">
        <ele>594.4</ele>
        <time>2023-05-18T08:54:06Z</time>
      </trkpt>
      <trkpt lat="47.82651" lon="7.10364">
        <ele>595</ele>
        <time>2023-05-18T08:54:15Z</time>
      </trkpt>
      <trkpt lat="47.82658" lon="7.10364">
        <ele>597.2</ele>
        <time>2023-05-18T08:54:26Z</time>
      </trkpt>
      <trkpt lat="47.8266" lon="7.10359">
        <ele>598.8</ele>
        <time>2023-05-18T08:54:29Z</time>
      </trkpt>
      <trkpt lat="47.82659" lon="7.1035">
        <ele>598.3</ele>
        <time>2023-05-18T08:54:35Z</time>
      </trkpt>
      <trkpt lat="47.82667" lon="7.10324">
        <ele>600.1</ele>
        <time>2023-05-18T08:54:59Z</time>
      </trkpt>
      <trkpt lat="47.82672" lon="7.10325">
        <ele>601.5</ele>
        <time>2023-05-18T08:55:04Z</time>
      </trkpt>
      <trkpt lat="47.82676" lon="7.1032">
        <ele>602.4</ele>
        <time>2023-05-18T08:55:09Z</time>
      </trkpt>
      <trkpt lat="47.82683" lon="7.10324">
        <ele>604.5</ele>
        <time>2023-05-18T08:55:17Z</time>
      </trkpt>
      <trkpt lat="47.82688" lon="7.10318">
        <ele>606.1</ele>
        <time>2023-05-18T08:55:28Z</time>
      </trkpt>
      <trkpt lat="47.82703" lon="7.10299">
        <ele>609.2</ele>
        <time>2023-05-18T08:55:49Z</time>
      </trkpt>
      <trkpt lat="47.82708" lon="7.10291">
        <ele>610.5</ele>
        <time>2023-05-18T08:56:02Z</time>
      </trkpt>
      <trkpt lat="47.82714" lon="7.1029">
        <ele>612.1</ele>
        <time>2023-05-18T08:56:07Z</time>
      </trkpt>
      <trkpt lat="47.82724" lon="7.10283">
        <ele>616.1</ele>
        <time>2023-05-18T08:56:18Z</time>
      </trkpt>
      <trkpt lat="47.82729" lon="7.10284">
        <ele>615.2</ele>
        <time>2023-05-18T08:56:23Z</time>
      </trkpt>
      <trkpt lat="47.82742" lon="7.10278">
        <ele>616.5</ele>
        <time>2023-05-18T08:56:37Z</time>
      </trkpt>
      <trkpt lat="47.82746" lon="7.10273">
        <ele>618.2</ele>
        <time>2023-05-18T08:56:42Z</time>
      </trkpt>
      <trkpt lat="47.82751" lon="7.10266">
        <ele>621.3</ele>
        <time>2023-05-18T08:56:55Z</time>
      </trkpt>
      <trkpt lat="47.82759" lon="7.10263">
        <ele>620.6</ele>
        <time>2023-05-18T08:57:00Z</time>
      </trkpt>
      <trkpt lat="47.82768" lon="7.10255">
        <ele>622.1</ele>
        <time>2023-05-18T08:57:09Z</time>
      </trkpt>
      <trkpt lat="47.82773" lon="7.10248">
        <ele>624.1</ele>
        <time>2023-05-18T08:57:20Z</time>
      </trkpt>
      <trkpt lat="47.82789" lon="7.10239">
        <ele>626</ele>
        <time>2023-05-18T08:57:29Z</time>
      </trkpt>
      <trkpt lat="47.82797" lon="7.10235">
        <ele>626.7</ele>
        <time>2023-05-18T08:57:44Z</time>
      </trkpt>
      <trkpt lat="47.82803" lon="7.10226">
        <ele>629.8</ele>
        <time>2023-05-18T08:57:55Z</time>
      </trkpt>
      <trkpt lat="47.82807" lon="7.10222">
        <ele>630.9</ele>
        <time>2023-05-18T08:58:00Z</time>
      </trkpt>
      <trkpt lat="47.82813" lon="7.1022">
        <ele>630.9</ele>
        <time>2023-05-18T08:58:09Z</time>
      </trkpt>
      <trkpt lat="47.82823" lon="7.10207">
        <ele>635.3</ele>
        <time>2023-05-18T08:58:35Z</time>
      </trkpt>
      <trkpt lat="47.82833" lon="7.10206">
        <ele>634.1</ele>
        <time>2023-05-18T08:58:40Z</time>
      </trkpt>
      <trkpt lat="47.82841" lon="7.10198">
        <ele>635.6</ele>
        <time>2023-05-18T08:58:44Z</time>
      </trkpt>
      <trkpt lat="47.82846" lon="7.10186">
        <ele>639.1</ele>
        <time>2023-05-18T08:59:03Z</time>
      </trkpt>
      <trkpt lat="47.82855" lon="7.10178">
        <ele>640.4</ele>
        <time>2023-05-18T08:59:09Z</time>
      </trkpt>
      <trkpt lat="47.82861" lon="7.10171">
        <ele>642.1</ele>
        <time>2023-05-18T08:59:18Z</time>
      </trkpt>
      <trkpt lat="47.82868" lon="7.10165">
        <ele>643.7</ele>
        <time>2023-05-18T08:59:24Z</time>
      </trkpt>
      <trkpt lat="47.82882" lon="7.10161">
        <ele>643.2</ele>
        <time>2023-05-18T08:59:37Z</time>
      </trkpt>
      <trkpt lat="47.82893" lon="7.10162">
        <ele>642.9</ele>
        <time>2023-05-18T08:59:42Z</time>
      </trkpt>
      <trkpt lat="47.82903" lon="7.1015">
        <ele>648.1</ele>
        <time>2023-05-18T09:00:04Z</time>
      </trkpt>
      <trkpt lat="47.82914" lon="7.10153">
        <ele>649.1</ele>
        <time>2023-05-18T09:00:17Z</time>
      </trkpt>
      <trkpt lat="47.82923" lon="7.10148">
        <ele>649.6</ele>
        <time>2023-05-18T09:00:32Z</time>
      </trkpt>
      <trkpt lat="47.82942" lon="7.10142">
        <ele>649.8</ele>
        <time>2023-05-18T09:00:44Z</time>
      </trkpt>
      <trkpt lat="47.8295" lon="7.10136">
        <ele>651.2</ele>
        <time>2023-05-18T09:00:56Z</time>
      </trkpt>
      <trkpt lat="47.82968" lon="7.10132">
        <ele>655</ele>
        <time>2023-05-18T09:01:12Z</time>
      </trkpt>
      <trkpt lat="47.82969" lon="7.1012">
        <ele>653.6</ele>
        <time>2023-05-18T09:01:17Z</time>
      </trkpt>
      <trkpt lat="47.82974" lon="7.10123">
        <ele>655.2</ele>
        <time>2023-05-18T09:01:20Z</time>
      </trkpt>
      <trkpt lat="47.83005" lon="7.10105">
        <ele>659.7</ele>
        <time>2023-05-18T09:01:53Z</time>
      </trkpt>
      <trkpt lat="47.8301" lon="7.101">
        <ele>659.6</ele>
        <time>2023-05-18T09:02:01Z</time>
      </trkpt>
      <trkpt lat="47.8302" lon="7.10104">
        <ele>663.1</ele>
        <time>2023-05-18T09:02:08Z</time>
      </trkpt>
      <trkpt lat="47.83026" lon="7.10101">
        <ele>663.7</ele>
        <time>2023-05-18T09:02:17Z</time>
      </trkpt>
      <trkpt lat="47.83034" lon="7.10104">
        <ele>666.5</ele>
        <time>2023-05-18T09:02:24Z</time>
      </trkpt>
      <trkpt lat="47.83038" lon="7.10096">
        <ele>665.2</ele>
        <time>2023-05-18T09:02:30Z</time>
      </trkpt>
      <trkpt lat="47.83049" lon="7.10091">
        <ele>666.6</ele>
        <time>2023-05-18T09:02:41Z</time>
      </trkpt>
      <trkpt lat="47.83055" lon="7.10084">
        <ele>666.1</ele>
        <time>2023-05-18T09:02:51Z</time>
      </trkpt>
      <trkpt lat="47.83064" lon="7.10084">
        <ele>669.9</ele>
        <time>2023-05-18T09:02:54Z</time>
      </trkpt>
      <trkpt lat="47.83066" lon="7.10077">
        <ele>668.7</ele>
        <time>2023-05-18T09:02:59Z</time>
      </trkpt>
      <trkpt lat="47.8307" lon="7.10072">
        <ele>669</ele>
        <time>2023-05-18T09:03:04Z</time>
      </trkpt>
      <trkpt lat="47.83074" lon="7.1007">
        <ele>670.1</ele>
        <time>2023-05-18T09:03:09Z</time>
      </trkpt>
      <trkpt lat="47.83077" lon="7.10061">
        <ele>668.8</ele>
        <time>2023-05-18T09:03:16Z</time>
      </trkpt>
      <trkpt lat="47.83082" lon="7.10057">
        <ele>669.8</ele>
        <time>2023-05-18T09:03:22Z</time>
      </trkpt>
      <trkpt lat="47.83092" lon="7.10056">
        <ele>673.3</ele>
        <time>2023-05-18T09:03:33Z</time>
      </trkpt>
      <trkpt lat="47.83096" lon="7.10051">
        <ele>673.1</ele>
        <time>2023-05-18T09:03:36Z</time>
      </trkpt>
      <trkpt lat="47.83098" lon="7.10044">
        <ele>671.8</ele>
        <time>2023-05-18T09:03:42Z</time>
      </trkpt>
      <trkpt lat="47.83102" lon="7.10041">
        <ele>672.5</ele>
        <time>2023-05-18T09:03:47Z</time>
      </trkpt>
      <trkpt lat="47.83106" lon="7.10037">
        <ele>673.1</ele>
        <time>2023-05-18T09:03:52Z</time>
      </trkpt>
      <trkpt lat="47.83112" lon="7.1003">
        <ele>673.5</ele>
        <time>2023-05-18T09:04:01Z</time>
      </trkpt>
      <trkpt lat="47.83118" lon="7.10029">
        <ele>672.6</ele>
        <time>2023-05-18T09:04:09Z</time>
      </trkpt>
      <trkpt lat="47.83123" lon="7.1003">
        <ele>672.4</ele>
        <time>2023-05-18T09:04:12Z</time>
      </trkpt>
      <trkpt lat="47.83133" lon="7.10032">
        <ele>672.2</ele>
        <time>2023-05-18T09:04:19Z</time>
      </trkpt>
      <trkpt lat="47.83138" lon="7.10038">
        <ele>674.1</ele>
        <time>2023-05-18T09:04:22Z</time>
      </trkpt>
      <trkpt lat="47.83142" lon="7.10038">
        <ele>673.3</ele>
        <time>2023-05-18T09:04:26Z</time>
      </trkpt>
      <trkpt lat="47.83147" lon="7.10036">
        <ele>671.2</ele>
        <time>2023-05-18T09:04:29Z</time>
      </trkpt>
      <trkpt lat="47.83152" lon="7.10041">
        <ele>671.9</ele>
        <time>2023-05-18T09:04:36Z</time>
      </trkpt>
      <trkpt lat="47.83158" lon="7.10047">
        <ele>672.8</ele>
        <time>2023-05-18T09:04:43Z</time>
      </trkpt>
      <trkpt lat="47.83161" lon="7.10054">
        <ele>674.8</ele>
        <time>2023-05-18T09:04:48Z</time>
      </trkpt>
      <trkpt lat="47.83166" lon="7.10058">
        <ele>675.1</ele>
        <time>2023-05-18T09:04:51Z</time>
      </trkpt>
      <trkpt lat="47.83169" lon="7.10062">
        <ele>675.5</ele>
        <time>2023-05-18T09:04:55Z</time>
      </trkpt>
      <trkpt lat="47.83179" lon="7.10078">
        <ele>677.6</ele>
        <time>2023-05-18T09:05:13Z</time>
      </trkpt>
      <trkpt lat="47.83183" lon="7.10082">
        <ele>677.6</ele>
        <time>2023-05-18T09:05:17Z</time>
      </trkpt>
      <trkpt lat="47.83185" lon="7.10088">
        <ele>679.1</ele>
        <time>2023-05-18T09:05:21Z</time>
      </trkpt>
      <trkpt lat="47.83189" lon="7.10094">
        <ele>679.8</ele>
        <time>2023-05-18T09:05:26Z</time>
      </trkpt>
      <trkpt lat="47.83202" lon="7.10113">
        <ele>681.7</ele>
        <time>2023-05-18T09:05:45Z</time>
      </trkpt>
      <trkpt lat="47.83215" lon="7.10128">
        <ele>682.4</ele>
        <time>2023-05-18T09:06:05Z</time>
      </trkpt>
      <trkpt lat="47.8322" lon="7.10135">
        <ele>683.3</ele>
        <time>2023-05-18T09:06:11Z</time>
      </trkpt>
      <trkpt lat="47.83222" lon="7.10144">
        <ele>686.1</ele>
        <time>2023-05-18T09:06:17Z</time>
      </trkpt>
      <trkpt lat="47.83232" lon="7.10158">
        <ele>693</ele>
        <time>2023-05-18T09:06:31Z</time>
      </trkpt>
      <trkpt lat="47.83239" lon="7.10158">
        <ele>694</ele>
        <time>2023-05-18T09:06:42Z</time>
      </trkpt>
      <trkpt lat="47.83245" lon="7.10149">
        <ele>691.3</ele>
        <time>2023-05-18T09:06:53Z</time>
      </trkpt>
      <trkpt lat="47.83251" lon="7.10152">
        <ele>693.2</ele>
        <time>2023-05-18T09:06:58Z</time>
      </trkpt>
      <trkpt lat="47.83259" lon="7.10147">
        <ele>691.2</ele>
        <time>2023-05-18T09:07:08Z</time>
      </trkpt>
      <trkpt lat="47.83264" lon="7.10146">
        <ele>690.7</ele>
        <time>2023-05-18T09:07:12Z</time>
      </trkpt>
      <trkpt lat="47.83276" lon="7.10152">
        <ele>693.6</ele>
        <time>2023-05-18T09:07:21Z</time>
      </trkpt>
      <trkpt lat="47.83286" lon="7.10162">
        <ele>699.6</ele>
        <time>2023-05-18T09:07:27Z</time>
      </trkpt>
      <trkpt lat="47.83293" lon="7.10163">
        <ele>700.9</ele>
        <time>2023-05-18T09:07:32Z</time>
      </trkpt>
      <trkpt lat="47.83298" lon="7.10159">
        <ele>699.7</ele>
        <time>2023-05-18T09:07:42Z</time>
      </trkpt>
      <trkpt lat="47.83305" lon="7.1016">
        <ele>701.1</ele>
        <time>2023-05-18T09:07:47Z</time>
      </trkpt>
      <trkpt lat="47.83322" lon="7.10156">
        <ele>704.8</ele>
        <time>2023-05-18T09:08:05Z</time>
      </trkpt>
      <trkpt lat="47.83329" lon="7.10154">
        <ele>706.4</ele>
        <time>2023-05-18T09:08:20Z</time>
      </trkpt>
      <trkpt lat="47.83337" lon="7.10148">
        <ele>707.4</ele>
        <time>2023-05-18T09:08:33Z</time>
      </trkpt>
      <trkpt lat="47.8334" lon="7.10138">
        <ele>705.3</ele>
        <time>2023-05-18T09:08:37Z</time>
      </trkpt>
      <trkpt lat="47.83343" lon="7.10134">
        <ele>705.2</ele>
        <time>2023-05-18T09:08:42Z</time>
      </trkpt>
      <trkpt lat="47.83357" lon="7.10136">
        <ele>711.5</ele>
        <time>2023-05-18T09:08:58Z</time>
      </trkpt>
      <trkpt lat="47.83362" lon="7.10135">
        <ele>713.3</ele>
        <time>2023-05-18T09:09:01Z</time>
      </trkpt>
      <trkpt lat="47.83365" lon="7.10124">
        <ele>711.6</ele>
        <time>2023-05-18T09:09:10Z</time>
      </trkpt>
      <trkpt lat="47.83371" lon="7.10125">
        <ele>714.8</ele>
        <time>2023-05-18T09:09:13Z</time>
      </trkpt>
      <trkpt lat="47.83375" lon="7.10119">
        <ele>714.9</ele>
        <time>2023-05-18T09:09:23Z</time>
      </trkpt>
      <trkpt lat="47.83378" lon="7.10112">
        <ele>714.2</ele>
        <time>2023-05-18T09:09:26Z</time>
      </trkpt>
      <trkpt lat="47.83382" lon="7.10108">
        <ele>714.7</ele>
        <time>2023-05-18T09:09:34Z</time>
      </trkpt>
      <trkpt lat="47.83391" lon="7.10099">
        <ele>715.7</ele>
        <time>2023-05-18T09:09:44Z</time>
      </trkpt>
      <trkpt lat="47.83395" lon="7.10096">
        <ele>716.8</ele>
        <time>2023-05-18T09:09:48Z</time>
      </trkpt>
      <trkpt lat="47.83401" lon="7.10092">
        <ele>718.7</ele>
        <time>2023-05-18T09:09:58Z</time>
      </trkpt>
      <trkpt lat="47.83411" lon="7.10088">
        <ele>723</ele>
        <time>2023-05-18T09:10:08Z</time>
      </trkpt>
      <trkpt lat="47.83415" lon="7.10077">
        <ele>721.8</ele>
        <time>2023-05-18T09:10:19Z</time>
      </trkpt>
      <trkpt lat="47.83419" lon="7.10071">
        <ele>721.4</ele>
        <time>2023-05-18T09:10:24Z</time>
      </trkpt>
      <trkpt lat="47.83424" lon="7.10062">
        <ele>719.9</ele>
        <time>2023-05-18T09:10:37Z</time>
      </trkpt>
      <trkpt lat="47.83429" lon="7.10065">
        <ele>722.7</ele>
        <time>2023-05-18T09:10:44Z</time>
      </trkpt>
      <trkpt lat="47.83444" lon="7.10061">
        <ele>726.6</ele>
        <time>2023-05-18T09:10:58Z</time>
      </trkpt>
      <trkpt lat="47.83451" lon="7.10062">
        <ele>728.4</ele>
        <time>2023-05-18T09:11:05Z</time>
      </trkpt>
      <trkpt lat="47.83458" lon="7.10059">
        <ele>728.9</ele>
        <time>2023-05-18T09:11:15Z</time>
      </trkpt>
      <trkpt lat="47.83463" lon="7.10061">
        <ele>730.5</ele>
        <time>2023-05-18T09:11:20Z</time>
      </trkpt>
      <trkpt lat="47.83465" lon="7.10053">
        <ele>728.7</ele>
        <time>2023-05-18T09:11:27Z</time>
      </trkpt>
      <trkpt lat="47.83473" lon="7.10056">
        <ele>730.8</ele>
        <time>2023-05-18T09:11:37Z</time>
      </trkpt>
      <trkpt lat="47.83475" lon="7.10064">
        <ele>732.1</ele>
        <time>2023-05-18T09:11:40Z</time>
      </trkpt>
      <trkpt lat="47.83476" lon="7.1007">
        <ele>733.2</ele>
        <time>2023-05-18T09:11:44Z</time>
      </trkpt>
      <trkpt lat="47.83481" lon="7.10076">
        <ele>732.9</ele>
        <time>2023-05-18T09:11:51Z</time>
      </trkpt>
      <trkpt lat="47.83486" lon="7.10079">
        <ele>731.9</ele>
        <time>2023-05-18T09:11:55Z</time>
      </trkpt>
      <trkpt lat="47.83488" lon="7.10086">
        <ele>733.1</ele>
        <time>2023-05-18T09:11:59Z</time>
      </trkpt>
      <trkpt lat="47.83492" lon="7.10098">
        <ele>735.1</ele>
        <time>2023-05-18T09:12:09Z</time>
      </trkpt>
      <trkpt lat="47.83496" lon="7.10103">
        <ele>735.1</ele>
        <time>2023-05-18T09:12:13Z</time>
      </trkpt>
      <trkpt lat="47.83503" lon="7.10126">
        <ele>738.6</ele>
        <time>2023-05-18T09:12:41Z</time>
      </trkpt>
      <trkpt lat="47.83508" lon="7.10131">
        <ele>738.1</ele>
        <time>2023-05-18T09:12:44Z</time>
      </trkpt>
      <trkpt lat="47.83514" lon="7.10152">
        <ele>742</ele>
        <time>2023-05-18T09:12:59Z</time>
      </trkpt>
      <trkpt lat="47.83521" lon="7.10163">
        <ele>743</ele>
        <time>2023-05-18T09:13:09Z</time>
      </trkpt>
      <trkpt lat="47.83525" lon="7.10171">
        <ele>744.1</ele>
        <time>2023-05-18T09:13:16Z</time>
      </trkpt>
      <trkpt lat="47.83529" lon="7.10175">
        <ele>744.1</ele>
        <time>2023-05-18T09:13:23Z</time>
      </trkpt>
      <trkpt lat="47.8353" lon="7.10183">
        <ele>746.2</ele>
        <time>2023-05-18T09:13:29Z</time>
      </trkpt>
      <trkpt lat="47.83536" lon="7.1019">
        <ele>746.9</ele>
        <time>2023-05-18T09:13:40Z</time>
      </trkpt>
      <trkpt lat="47.83551" lon="7.10209">
        <ele>748.8</ele>
        <time>2023-05-18T09:13:57Z</time>
      </trkpt>
      <trkpt lat="47.83553" lon="7.10215">
        <ele>749.9</ele>
        <time>2023-05-18T09:14:01Z</time>
      </trkpt>
      <trkpt lat="47.83556" lon="7.1022">
        <ele>750.3</ele>
        <time>2023-05-18T09:14:06Z</time>
      </trkpt>
      <trkpt lat="47.83559" lon="7.10229">
        <ele>750.6</ele>
        <time>2023-05-18T09:14:16Z</time>
      </trkpt>
      <trkpt lat="47.83558" lon="7.10248">
        <ele>754.3</ele>
        <time>2023-05-18T09:14:29Z</time>
      </trkpt>
      <trkpt lat="47.83556" lon="7.10254">
        <ele>756</ele>
        <time>2023-05-18T09:14:34Z</time>
      </trkpt>
      <trkpt lat="47.83558" lon="7.10263">
        <ele>755.4</ele>
        <time>2023-05-18T09:14:42Z</time>
      </trkpt>
      <trkpt lat="47.83559" lon="7.103">
        <ele>757.2</ele>
        <time>2023-05-18T09:15:03Z</time>
      </trkpt>
      <trkpt lat="47.83561" lon="7.10308">
        <ele>756.6</ele>
        <time>2023-05-18T09:15:11Z</time>
      </trkpt>
      <trkpt lat="47.8356" lon="7.10315">
        <ele>758.2</ele>
        <time>2023-05-18T09:15:15Z</time>
      </trkpt>
      <trkpt lat="47.83561" lon="7.10324">
        <ele>758.8</ele>
        <time>2023-05-18T09:15:21Z</time>
      </trkpt>
      <trkpt lat="47.83555" lon="7.10339">
        <ele>764</ele>
        <time>2023-05-18T09:15:34Z</time>
      </trkpt>
      <trkpt lat="47.83557" lon="7.10345">
        <ele>764.1</ele>
        <time>2023-05-18T09:15:38Z</time>
      </trkpt>
      <trkpt lat="47.83558" lon="7.10355">
        <ele>765.3</ele>
        <time>2023-05-18T09:15:43Z</time>
      </trkpt>
      <trkpt lat="47.8356" lon="7.10363">
        <ele>765.6</ele>
        <time>2023-05-18T09:15:54Z</time>
      </trkpt>
      <trkpt lat="47.83562" lon="7.10371">
        <ele>764.9</ele>
        <time>2023-05-18T09:15:59Z</time>
      </trkpt>
      <trkpt lat="47.83569" lon="7.1037">
        <ele>763.7</ele>
        <time>2023-05-18T09:16:06Z</time>
      </trkpt>
      <trkpt lat="47.83578" lon="7.10379">
        <ele>763.8</ele>
        <time>2023-05-18T09:16:18Z</time>
      </trkpt>
      <trkpt lat="47.83581" lon="7.10385">
        <ele>765</ele>
        <time>2023-05-18T09:16:23Z</time>
      </trkpt>
      <trkpt lat="47.83585" lon="7.10392">
        <ele>765.8</ele>
        <time>2023-05-18T09:16:27Z</time>
      </trkpt>
      <trkpt lat="47.8359" lon="7.10395">
        <ele>764.9</ele>
        <time>2023-05-18T09:16:31Z</time>
      </trkpt>
      <trkpt lat="47.83593" lon="7.10401">
        <ele>765.4</ele>
        <time>2023-05-18T09:16:36Z</time>
      </trkpt>
      <trkpt lat="47.83597" lon="7.10407">
        <ele>766.1</ele>
        <time>2023-05-18T09:16:41Z</time>
      </trkpt>
      <trkpt lat="47.83604" lon="7.10413">
        <ele>767.1</ele>
        <time>2023-05-18T09:16:48Z</time>
      </trkpt>
      <trkpt lat="47.83616" lon="7.10415">
        <ele>766.8</ele>
        <time>2023-05-18T09:16:58Z</time>
      </trkpt>
      <trkpt lat="47.83621" lon="7.10414">
        <ele>765.8</ele>
        <time>2023-05-18T09:17:02Z</time>
      </trkpt>
      <trkpt lat="47.83638" lon="7.1042">
        <ele>766.5</ele>
        <time>2023-05-18T09:17:20Z</time>
      </trkpt>
      <trkpt lat="47.83646" lon="7.1042">
        <ele>765.4</ele>
        <time>2023-05-18T09:17:28Z</time>
      </trkpt>
      <trkpt lat="47.83661" lon="7.10426">
        <ele>765.6</ele>
        <time>2023-05-18T09:17:38Z</time>
      </trkpt>
      <trkpt lat="47.83667" lon="7.10431">
        <ele>766.6</ele>
        <time>2023-05-18T09:17:45Z</time>
      </trkpt>
      <trkpt lat="47.83671" lon="7.10439">
        <ele>768.4</ele>
        <time>2023-05-18T09:17:52Z</time>
      </trkpt>
      <trkpt lat="47.83674" lon="7.10442">
        <ele>768.6</ele>
        <time>2023-05-18T09:17:56Z</time>
      </trkpt>
      <trkpt lat="47.83682" lon="7.10444">
        <ele>766.8</ele>
        <time>2023-05-18T09:18:02Z</time>
      </trkpt>
      <trkpt lat="47.83687" lon="7.10451">
        <ele>768</ele>
        <time>2023-05-18T09:18:12Z</time>
      </trkpt>
      <trkpt lat="47.8369" lon="7.10457">
        <ele>769.4</ele>
        <time>2023-05-18T09:18:15Z</time>
      </trkpt>
      <trkpt lat="47.83695" lon="7.10464">
        <ele>770.5</ele>
        <time>2023-05-18T09:18:23Z</time>
      </trkpt>
      <trkpt lat="47.837" lon="7.10469">
        <ele>770.5</ele>
        <time>2023-05-18T09:18:27Z</time>
      </trkpt>
      <trkpt lat="47.83703" lon="7.10475">
        <ele>771.4</ele>
        <time>2023-05-18T09:18:30Z</time>
      </trkpt>
      <trkpt lat="47.83708" lon="7.10477">
        <ele>770.1</ele>
        <time>2023-05-18T09:18:35Z</time>
      </trkpt>
      <trkpt lat="47.83713" lon="7.10484">
        <ele>770.3</ele>
        <time>2023-05-18T09:18:41Z</time>
      </trkpt>
      <trkpt lat="47.83715" lon="7.1049">
        <ele>771.5</ele>
        <time>2023-05-18T09:18:46Z</time>
      </trkpt>
      <trkpt lat="47.83718" lon="7.10495">
        <ele>771.9</ele>
        <time>2023-05-18T09:18:51Z</time>
      </trkpt>
      <trkpt lat="47.83723" lon="7.10509">
        <ele>772.5</ele>
        <time>2023-05-18T09:18:59Z</time>
      </trkpt>
      <trkpt lat="47.83725" lon="7.10516">
        <ele>771.9</ele>
        <time>2023-05-18T09:19:04Z</time>
      </trkpt>
      <trkpt lat="47.83727" lon="7.10522">
        <ele>771.1</ele>
        <time>2023-05-18T09:19:08Z</time>
      </trkpt>
      <trkpt lat="47.8373" lon="7.10538">
        <ele>770.1</ele>
        <time>2023-05-18T09:19:16Z</time>
      </trkpt>
      <trkpt lat="47.83733" lon="7.10545">
        <ele>768.5</ele>
        <time>2023-05-18T09:19:20Z</time>
      </trkpt>
      <trkpt lat="47.83734" lon="7.10554">
        <ele>768.4</ele>
        <time>2023-05-18T09:19:27Z</time>
      </trkpt>
      <trkpt lat="47.83734" lon="7.10562">
        <ele>768.9</ele>
        <time>2023-05-18T09:19:31Z</time>
      </trkpt>
      <trkpt lat="47.83735" lon="7.10569">
        <ele>768.5</ele>
        <time>2023-05-18T09:19:36Z</time>
      </trkpt>
      <trkpt lat="47.83735" lon="7.10576">
        <ele>768.9</ele>
        <time>2023-05-18T09:19:39Z</time>
      </trkpt>
      <trkpt lat="47.83733" lon="7.10584">
        <ele>770.6</ele>
        <time>2023-05-18T09:19:43Z</time>
      </trkpt>
      <trkpt lat="47.83736" lon="7.10593">
        <ele>768.8</ele>
        <time>2023-05-18T09:19:49Z</time>
      </trkpt>
      <trkpt lat="47.83737" lon="7.10602">
        <ele>768.2</ele>
        <time>2023-05-18T09:19:52Z</time>
      </trkpt>
      <trkpt lat="47.83734" lon="7.10617">
        <ele>770.9</ele>
        <time>2023-05-18T09:20:01Z</time>
      </trkpt>
      <trkpt lat="47.83734" lon="7.10628">
        <ele>771.6</ele>
        <time>2023-05-18T09:20:09Z</time>
      </trkpt>
      <trkpt lat="47.83735" lon="7.10637">
        <ele>771.6</ele>
        <time>2023-05-18T09:20:13Z</time>
      </trkpt>
      <trkpt lat="47.83736" lon="7.10653">
        <ele>771.8</ele>
        <time>2023-05-18T09:20:23Z</time>
      </trkpt>
      <trkpt lat="47.83737" lon="7.10667">
        <ele>771.9</ele>
        <time>2023-05-18T09:20:30Z</time>
      </trkpt>
      <trkpt lat="47.83735" lon="7.10674">
        <ele>773.3</ele>
        <time>2023-05-18T09:20:33Z</time>
      </trkpt>
      <trkpt lat="47.83733" lon="7.10687">
        <ele>774.6</ele>
        <time>2023-05-18T09:20:43Z</time>
      </trkpt>
      <trkpt lat="47.83733" lon="7.10694">
        <ele>774.6</ele>
        <time>2023-05-18T09:20:47Z</time>
      </trkpt>
      <trkpt lat="47.83735" lon="7.107">
        <ele>773.6</ele>
        <time>2023-05-18T09:20:50Z</time>
      </trkpt>
      <trkpt lat="47.83734" lon="7.10708">
        <ele>774.6</ele>
        <time>2023-05-18T09:20:55Z</time>
      </trkpt>
      <trkpt lat="47.83736" lon="7.10714">
        <ele>773.6</ele>
        <time>2023-05-18T09:20:59Z</time>
      </trkpt>
      <trkpt lat="47.83735" lon="7.10721">
        <ele>774.7</ele>
        <time>2023-05-18T09:21:04Z</time>
      </trkpt>
      <trkpt lat="47.83739" lon="7.10731">
        <ele>773</ele>
        <time>2023-05-18T09:21:17Z</time>
      </trkpt>
      <trkpt lat="47.83741" lon="7.10739">
        <ele>772.7</ele>
        <time>2023-05-18T09:21:22Z</time>
      </trkpt>
      <trkpt lat="47.83743" lon="7.10747">
        <ele>772.4</ele>
        <time>2023-05-18T09:21:25Z</time>
      </trkpt>
      <trkpt lat="47.83742" lon="7.10753">
        <ele>773.4</ele>
        <time>2023-05-18T09:21:29Z</time>
      </trkpt>
      <trkpt lat="47.8374" lon="7.10785">
        <ele>775.4</ele>
        <time>2023-05-18T09:21:49Z</time>
      </trkpt>
      <trkpt lat="47.83739" lon="7.10794">
        <ele>776.2</ele>
        <time>2023-05-18T09:21:51Z</time>
      </trkpt>
      <trkpt lat="47.83741" lon="7.10801">
        <ele>776</ele>
        <time>2023-05-18T09:21:57Z</time>
      </trkpt>
      <trkpt lat="47.83746" lon="7.10811">
        <ele>776.6</ele>
        <time>2023-05-18T09:22:05Z</time>
      </trkpt>
      <trkpt lat="47.8375" lon="7.10815">
        <ele>777.4</ele>
        <time>2023-05-18T09:22:08Z</time>
      </trkpt>
      <trkpt lat="47.83752" lon="7.10821">
        <ele>778.6</ele>
        <time>2023-05-18T09:22:12Z</time>
      </trkpt>
      <trkpt lat="47.83754" lon="7.10831">
        <ele>781.1</ele>
        <time>2023-05-18T09:22:21Z</time>
      </trkpt>
      <trkpt lat="47.83762" lon="7.10845">
        <ele>782.7</ele>
        <time>2023-05-18T09:22:33Z</time>
      </trkpt>
      <trkpt lat="47.83763" lon="7.10853">
        <ele>784</ele>
        <time>2023-05-18T09:22:38Z</time>
      </trkpt>
      <trkpt lat="47.83772" lon="7.10854">
        <ele>786.2</ele>
        <time>2023-05-18T09:22:52Z</time>
      </trkpt>
      <trkpt lat="47.83779" lon="7.10849">
        <ele>785.4</ele>
        <time>2023-05-18T09:23:05Z</time>
      </trkpt>
      <trkpt lat="47.83784" lon="7.10849">
        <ele>784.2</ele>
        <time>2023-05-18T09:23:11Z</time>
      </trkpt>
      <trkpt lat="47.83788" lon="7.10854">
        <ele>785</ele>
        <time>2023-05-18T09:23:14Z</time>
      </trkpt>
      <trkpt lat="47.8379" lon="7.10861">
        <ele>786.9</ele>
        <time>2023-05-18T09:23:18Z</time>
      </trkpt>
      <trkpt lat="47.83794" lon="7.10865">
        <ele>787</ele>
        <time>2023-05-18T09:23:21Z</time>
      </trkpt>
      <trkpt lat="47.838" lon="7.10875">
        <ele>789.1</ele>
        <time>2023-05-18T09:23:30Z</time>
      </trkpt>
      <trkpt lat="47.83807" lon="7.10885">
        <ele>792</ele>
        <time>2023-05-18T09:23:40Z</time>
      </trkpt>
      <trkpt lat="47.8381" lon="7.10891">
        <ele>793.1</ele>
        <time>2023-05-18T09:23:44Z</time>
      </trkpt>
      <trkpt lat="47.83815" lon="7.10897">
        <ele>793.1</ele>
        <time>2023-05-18T09:23:49Z</time>
      </trkpt>
      <trkpt lat="47.83822" lon="7.10915">
        <ele>796.5</ele>
        <time>2023-05-18T09:24:06Z</time>
      </trkpt>
      <trkpt lat="47.83838" lon="7.10929">
        <ele>798.7</ele>
        <time>2023-05-18T09:24:28Z</time>
      </trkpt>
      <trkpt lat="47.83841" lon="7.10935">
        <ele>800.3</ele>
        <time>2023-05-18T09:24:35Z</time>
      </trkpt>
      <trkpt lat="47.83846" lon="7.10938">
        <ele>800.3</ele>
        <time>2023-05-18T09:24:40Z</time>
      </trkpt>
      <trkpt lat="47.83862" lon="7.10968">
        <ele>805.5</ele>
        <time>2023-05-18T09:25:13Z</time>
      </trkpt>
      <trkpt lat="47.83866" lon="7.10974">
        <ele>806.4</ele>
        <time>2023-05-18T09:25:18Z</time>
      </trkpt>
      <trkpt lat="47.83868" lon="7.1098">
        <ele>808.2</ele>
        <time>2023-05-18T09:25:28Z</time>
      </trkpt>
      <trkpt lat="47.83879" lon="7.10988">
        <ele>808.9</ele>
        <time>2023-05-18T09:25:36Z</time>
      </trkpt>
      <trkpt lat="47.83887" lon="7.10996">
        <ele>810.6</ele>
        <time>2023-05-18T09:25:52Z</time>
      </trkpt>
      <trkpt lat="47.83896" lon="7.10997">
        <ele>809.5</ele>
        <time>2023-05-18T09:25:59Z</time>
      </trkpt>
      <trkpt lat="47.83902" lon="7.11001">
        <ele>810</ele>
        <time>2023-05-18T09:26:06Z</time>
      </trkpt>
      <trkpt lat="47.83906" lon="7.11005">
        <ele>810.6</ele>
        <time>2023-05-18T09:26:11Z</time>
      </trkpt>
      <trkpt lat="47.83917" lon="7.11023">
        <ele>813.5</ele>
        <time>2023-05-18T09:26:27Z</time>
      </trkpt>
      <trkpt lat="47.83927" lon="7.1105">
        <ele>815.3</ele>
        <time>2023-05-18T09:26:49Z</time>
      </trkpt>
      <trkpt lat="47.83928" lon="7.1106">
        <ele>817.6</ele>
        <time>2023-05-18T09:26:56Z</time>
      </trkpt>
      <trkpt lat="47.83932" lon="7.11068">
        <ele>817.8</ele>
        <time>2023-05-18T09:27:02Z</time>
      </trkpt>
      <trkpt lat="47.83931" lon="7.11078">
        <ele>821.2</ele>
        <time>2023-05-18T09:27:10Z</time>
      </trkpt>
      <trkpt lat="47.83932" lon="7.11086">
        <ele>822.9</ele>
        <time>2023-05-18T09:27:14Z</time>
      </trkpt>
      <trkpt lat="47.83945" lon="7.11101">
        <ele>819.3</ele>
        <time>2023-05-18T09:27:30Z</time>
      </trkpt>
      <trkpt lat="47.83948" lon="7.11111">
        <ele>820.4</ele>
        <time>2023-05-18T09:27:38Z</time>
      </trkpt>
      <trkpt lat="47.83954" lon="7.11138">
        <ele>823.3</ele>
        <time>2023-05-18T09:27:59Z</time>
      </trkpt>
      <trkpt lat="47.83965" lon="7.11147">
        <ele>820.5</ele>
        <time>2023-05-18T09:28:10Z</time>
      </trkpt>
      <trkpt lat="47.83968" lon="7.11152">
        <ele>821</ele>
        <time>2023-05-18T09:28:17Z</time>
      </trkpt>
      <trkpt lat="47.83972" lon="7.11158">
        <ele>821.4</ele>
        <time>2023-05-18T09:28:22Z</time>
      </trkpt>
      <trkpt lat="47.83975" lon="7.11164">
        <ele>822</ele>
        <time>2023-05-18T09:28:27Z</time>
      </trkpt>
      <trkpt lat="47.8398" lon="7.11216">
        <ele>828.9</ele>
        <time>2023-05-18T09:29:02Z</time>
      </trkpt>
      <trkpt lat="47.83983" lon="7.1123">
        <ele>829.2</ele>
        <time>2023-05-18T09:29:11Z</time>
      </trkpt>
      <trkpt lat="47.83983" lon="7.11237">
        <ele>831.4</ele>
        <time>2023-05-18T09:29:14Z</time>
      </trkpt>
      <trkpt lat="47.83986" lon="7.11243">
        <ele>831.3</ele>
        <time>2023-05-18T09:29:20Z</time>
      </trkpt>
      <trkpt lat="47.83986" lon="7.11252">
        <ele>834.4</ele>
        <time>2023-05-18T09:29:27Z</time>
      </trkpt>
      <trkpt lat="47.83991" lon="7.11261">
        <ele>834.9</ele>
        <time>2023-05-18T09:29:35Z</time>
      </trkpt>
      <trkpt lat="47.84001" lon="7.1127">
        <ele>832.3</ele>
        <time>2023-05-18T09:29:48Z</time>
      </trkpt>
      <trkpt lat="47.84008" lon="7.11283">
        <ele>833.5</ele>
        <time>2023-05-18T09:29:59Z</time>
      </trkpt>
      <trkpt lat="47.84009" lon="7.11292">
        <ele>837</ele>
        <time>2023-05-18T09:30:06Z</time>
      </trkpt>
      <trkpt lat="47.84013" lon="7.11297">
        <ele>836.4</ele>
        <time>2023-05-18T09:30:09Z</time>
      </trkpt>
      <trkpt lat="47.8402" lon="7.11325">
        <ele>836.9</ele>
        <time>2023-05-18T09:30:28Z</time>
      </trkpt>
      <trkpt lat="47.84022" lon="7.11347">
        <ele>838.9</ele>
        <time>2023-05-18T09:30:46Z</time>
      </trkpt>
      <trkpt lat="47.8403" lon="7.11377">
        <ele>842.9</ele>
        <time>2023-05-18T09:31:07Z</time>
      </trkpt>
      <trkpt lat="47.84054" lon="7.11395">
        <ele>842.1</ele>
        <time>2023-05-18T09:31:34Z</time>
      </trkpt>
      <trkpt lat="47.84055" lon="7.11401">
        <ele>844.4</ele>
        <time>2023-05-18T09:31:38Z</time>
      </trkpt>
      <trkpt lat="47.84062" lon="7.11406">
        <ele>845.6</ele>
        <time>2023-05-18T09:31:45Z</time>
      </trkpt>
      <trkpt lat="47.84066" lon="7.11409">
        <ele>846.3</ele>
        <time>2023-05-18T09:31:49Z</time>
      </trkpt>
      <trkpt lat="47.84072" lon="7.11414">
        <ele>847.5</ele>
        <time>2023-05-18T09:31:57Z</time>
      </trkpt>
      <trkpt lat="47.84078" lon="7.11416">
        <ele>847.5</ele>
        <time>2023-05-18T09:32:05Z</time>
      </trkpt>
      <trkpt lat="47.84083" lon="7.11416">
        <ele>846.8</ele>
        <time>2023-05-18T09:32:11Z</time>
      </trkpt>
      <trkpt lat="47.84105" lon="7.11403">
        <ele>845.9</ele>
        <time>2023-05-18T09:32:33Z</time>
      </trkpt>
      <trkpt lat="47.84121" lon="7.11399">
        <ele>847.9</ele>
        <time>2023-05-18T09:32:45Z</time>
      </trkpt>
      <trkpt lat="47.84127" lon="7.11394">
        <ele>847.6</ele>
        <time>2023-05-18T09:32:52Z</time>
      </trkpt>
      <trkpt lat="47.84132" lon="7.11395">
        <ele>849.1</ele>
        <time>2023-05-18T09:32:56Z</time>
      </trkpt>
      <trkpt lat="47.84153" lon="7.1138">
        <ele>846.9</ele>
        <time>2023-05-18T09:33:19Z</time>
      </trkpt>
      <trkpt lat="47.84158" lon="7.11379">
        <ele>847.2</ele>
        <time>2023-05-18T09:33:24Z</time>
      </trkpt>
      <trkpt lat="47.84166" lon="7.11378">
        <ele>848</ele>
        <time>2023-05-18T09:33:33Z</time>
      </trkpt>
      <trkpt lat="47.84171" lon="7.11377">
        <ele>848.9</ele>
        <time>2023-05-18T09:33:37Z</time>
      </trkpt>
      <trkpt lat="47.84175" lon="7.11374">
        <ele>848.9</ele>
        <time>2023-05-18T09:33:41Z</time>
      </trkpt>
      <trkpt lat="47.84179" lon="7.11372">
        <ele>849.3</ele>
        <time>2023-05-18T09:33:45Z</time>
      </trkpt>
      <trkpt lat="47.84184" lon="7.11367">
        <ele>849</ele>
        <time>2023-05-18T09:33:49Z</time>
      </trkpt>
      <trkpt lat="47.84202" lon="7.11356">
        <ele>851.3</ele>
        <time>2023-05-18T09:34:04Z</time>
      </trkpt>
      <trkpt lat="47.84214" lon="7.11342">
        <ele>851.3</ele>
        <time>2023-05-18T09:34:18Z</time>
      </trkpt>
      <trkpt lat="47.84226" lon="7.11334">
        <ele>852.7</ele>
        <time>2023-05-18T09:34:28Z</time>
      </trkpt>
      <trkpt lat="47.8423" lon="7.11329">
        <ele>852.2</ele>
        <time>2023-05-18T09:34:33Z</time>
      </trkpt>
      <trkpt lat="47.8424" lon="7.11324">
        <ele>854</ele>
        <time>2023-05-18T09:34:39Z</time>
      </trkpt>
      <trkpt lat="47.84245" lon="7.11316">
        <ele>852.5</ele>
        <time>2023-05-18T09:34:45Z</time>
      </trkpt>
      <trkpt lat="47.8425" lon="7.11313">
        <ele>853.2</ele>
        <time>2023-05-18T09:34:51Z</time>
      </trkpt>
      <trkpt lat="47.84256" lon="7.11307">
        <ele>852.8</ele>
        <time>2023-05-18T09:34:57Z</time>
      </trkpt>
      <trkpt lat="47.84261" lon="7.11307">
        <ele>854.7</ele>
        <time>2023-05-18T09:35:00Z</time>
      </trkpt>
      <trkpt lat="47.84281" lon="7.11293">
        <ele>855.8</ele>
        <time>2023-05-18T09:35:20Z</time>
      </trkpt>
      <trkpt lat="47.84289" lon="7.11285">
        <ele>855.8</ele>
        <time>2023-05-18T09:35:30Z</time>
      </trkpt>
      <trkpt lat="47.84295" lon="7.11282">
        <ele>857.1</ele>
        <time>2023-05-18T09:35:39Z</time>
      </trkpt>
      <trkpt lat="47.84301" lon="7.1127">
        <ele>855.4</ele>
        <time>2023-05-18T09:35:53Z</time>
      </trkpt>
      <trkpt lat="47.84301" lon="7.11263">
        <ele>853.1</ele>
        <time>2023-05-18T09:36:05Z</time>
      </trkpt>
      <trkpt lat="47.84298" lon="7.11259">
        <ele>850.3</ele>
        <time>2023-05-18T09:36:34Z</time>
      </trkpt>
      <trkpt lat="47.84295" lon="7.11254">
        <ele>847.1</ele>
        <time>2023-05-18T09:37:22Z</time>
      </trkpt>
      <trkpt lat="47.84297" lon="7.11248">
        <ele>845.5</ele>
        <time>2023-05-18T09:37:34Z</time>
      </trkpt>
      <trkpt lat="47.84291" lon="7.11246">
        <ele>841.4</ele>
        <time>2023-05-18T09:37:46Z</time>
      </trkpt>
      <trkpt lat="47.84293" lon="7.11244">
        <ele>841.3</ele>
        <time>2023-05-18T09:38:13Z</time>
      </trkpt>
      <trkpt lat="47.84296" lon="7.11251">
        <ele>846.5</ele>
        <time>2023-05-18T09:38:26Z</time>
      </trkpt>
      <trkpt lat="47.8432" lon="7.1127">
        <ele>859</ele>
        <time>2023-05-18T09:41:54Z</time>
      </trkpt>
      <trkpt lat="47.84329" lon="7.11268">
        <ele>859</ele>
        <time>2023-05-18T09:42:02Z</time>
      </trkpt>
      <trkpt lat="47.84335" lon="7.11267">
        <ele>858.9</ele>
        <time>2023-05-18T09:42:06Z</time>
      </trkpt>
      <trkpt lat="47.84341" lon="7.11263">
        <ele>856.8</ele>
        <time>2023-05-18T09:42:12Z</time>
      </trkpt>
      <trkpt lat="47.84351" lon="7.11263">
        <ele>856.5</ele>
        <time>2023-05-18T09:42:20Z</time>
      </trkpt>
      <trkpt lat="47.84356" lon="7.11266">
        <ele>857.5</ele>
        <time>2023-05-18T09:42:24Z</time>
      </trkpt>
      <trkpt lat="47.84367" lon="7.11273">
        <ele>856.9</ele>
        <time>2023-05-18T09:42:36Z</time>
      </trkpt>
      <trkpt lat="47.8437" lon="7.1128">
        <ele>857.6</ele>
        <time>2023-05-18T09:42:40Z</time>
      </trkpt>
      <trkpt lat="47.84375" lon="7.11292">
        <ele>858.4</ele>
        <time>2023-05-18T09:42:47Z</time>
      </trkpt>
      <trkpt lat="47.8438" lon="7.11294">
        <ele>856</ele>
        <time>2023-05-18T09:42:50Z</time>
      </trkpt>
      <trkpt lat="47.84385" lon="7.11311">
        <ele>857.9</ele>
        <time>2023-05-18T09:43:01Z</time>
      </trkpt>
      <trkpt lat="47.84385" lon="7.11326">
        <ele>861.9</ele>
        <time>2023-05-18T09:43:08Z</time>
      </trkpt>
      <trkpt lat="47.84384" lon="7.11334">
        <ele>864.7</ele>
        <time>2023-05-18T09:43:12Z</time>
      </trkpt>
      <trkpt lat="47.84387" lon="7.11363">
        <ele>863.8</ele>
        <time>2023-05-18T09:43:28Z</time>
      </trkpt>
      <trkpt lat="47.84389" lon="7.11371">
        <ele>864.4</ele>
        <time>2023-05-18T09:43:31Z</time>
      </trkpt>
      <trkpt lat="47.84394" lon="7.11379">
        <ele>862.8</ele>
        <time>2023-05-18T09:43:35Z</time>
      </trkpt>
      <trkpt lat="47.84398" lon="7.11383">
        <ele>861</ele>
        <time>2023-05-18T09:43:39Z</time>
      </trkpt>
      <trkpt lat="47.84403" lon="7.11419">
        <ele>866.3</ele>
        <time>2023-05-18T09:44:02Z</time>
      </trkpt>
      <trkpt lat="47.84415" lon="7.1146">
        <ele>864.6</ele>
        <time>2023-05-18T09:44:27Z</time>
      </trkpt>
      <trkpt lat="47.84417" lon="7.11477">
        <ele>865</ele>
        <time>2023-05-18T09:44:36Z</time>
      </trkpt>
      <trkpt lat="47.8442" lon="7.11489">
        <ele>866.6</ele>
        <time>2023-05-18T09:44:42Z</time>
      </trkpt>
      <trkpt lat="47.84429" lon="7.1151">
        <ele>868.9</ele>
        <time>2023-05-18T09:44:56Z</time>
      </trkpt>
      <trkpt lat="47.84433" lon="7.11513">
        <ele>868.2</ele>
        <time>2023-05-18T09:45:00Z</time>
      </trkpt>
      <trkpt lat="47.84438" lon="7.11514">
        <ele>866.3</ele>
        <time>2023-05-18T09:45:03Z</time>
      </trkpt>
      <trkpt lat="47.84442" lon="7.11518">
        <ele>865.9</ele>
        <time>2023-05-18T09:45:06Z</time>
      </trkpt>
      <trkpt lat="47.84446" lon="7.11523">
        <ele>865.8</ele>
        <time>2023-05-18T09:45:10Z</time>
      </trkpt>
      <trkpt lat="47.84452" lon="7.11528">
        <ele>864.8</ele>
        <time>2023-05-18T09:45:16Z</time>
      </trkpt>
      <trkpt lat="47.84457" lon="7.11542">
        <ele>868.2</ele>
        <time>2023-05-18T09:45:25Z</time>
      </trkpt>
      <trkpt lat="47.84471" lon="7.11554">
        <ele>866.9</ele>
        <time>2023-05-18T09:45:36Z</time>
      </trkpt>
      <trkpt lat="47.84474" lon="7.11559">
        <ele>867.7</ele>
        <time>2023-05-18T09:45:41Z</time>
      </trkpt>
      <trkpt lat="47.8449" lon="7.1157">
        <ele>866.8</ele>
        <time>2023-05-18T09:45:54Z</time>
      </trkpt>
      <trkpt lat="47.84493" lon="7.11575">
        <ele>867.8</ele>
        <time>2023-05-18T09:45:58Z</time>
      </trkpt>
      <trkpt lat="47.84512" lon="7.11585">
        <ele>868.7</ele>
        <time>2023-05-18T09:46:19Z</time>
      </trkpt>
      <trkpt lat="47.84522" lon="7.11588">
        <ele>868.9</ele>
        <time>2023-05-18T09:46:27Z</time>
      </trkpt>
      <trkpt lat="47.84526" lon="7.11591">
        <ele>869.6</ele>
        <time>2023-05-18T09:46:30Z</time>
      </trkpt>
      <trkpt lat="47.84538" lon="7.11592">
        <ele>869.3</ele>
        <time>2023-05-18T09:46:38Z</time>
      </trkpt>
      <trkpt lat="47.84543" lon="7.11596">
        <ele>870.3</ele>
        <time>2023-05-18T09:46:41Z</time>
      </trkpt>
      <trkpt lat="47.84563" lon="7.11599">
        <ele>869.1</ele>
        <time>2023-05-18T09:46:59Z</time>
      </trkpt>
      <trkpt lat="47.84567" lon="7.11602">
        <ele>869.2</ele>
        <time>2023-05-18T09:47:02Z</time>
      </trkpt>
      <trkpt lat="47.84574" lon="7.11602">
        <ele>867.8</ele>
        <time>2023-05-18T09:47:06Z</time>
      </trkpt>
      <trkpt lat="47.84578" lon="7.11605">
        <ele>868</ele>
        <time>2023-05-18T09:47:11Z</time>
      </trkpt>
      <trkpt lat="47.84581" lon="7.11611">
        <ele>869.4</ele>
        <time>2023-05-18T09:47:14Z</time>
      </trkpt>
      <trkpt lat="47.84599" lon="7.11624">
        <ele>871.6</ele>
        <time>2023-05-18T09:47:27Z</time>
      </trkpt>
      <trkpt lat="47.84628" lon="7.11628">
        <ele>873.1</ele>
        <time>2023-05-18T09:47:55Z</time>
      </trkpt>
      <trkpt lat="47.84636" lon="7.11631">
        <ele>874.5</ele>
        <time>2023-05-18T09:48:03Z</time>
      </trkpt>
      <trkpt lat="47.8464" lon="7.1163">
        <ele>874.6</ele>
        <time>2023-05-18T09:48:07Z</time>
      </trkpt>
      <trkpt lat="47.84646" lon="7.11632">
        <ele>876.2</ele>
        <time>2023-05-18T09:48:11Z</time>
      </trkpt>
      <trkpt lat="47.84651" lon="7.11631">
        <ele>876.8</ele>
        <time>2023-05-18T09:48:16Z</time>
      </trkpt>
      <trkpt lat="47.84663" lon="7.11635">
        <ele>880.1</ele>
        <time>2023-05-18T09:48:28Z</time>
      </trkpt>
      <trkpt lat="47.84669" lon="7.11632">
        <ele>880.3</ele>
        <time>2023-05-18T09:48:33Z</time>
      </trkpt>
      <trkpt lat="47.84698" lon="7.11627">
        <ele>886.2</ele>
        <time>2023-05-18T09:48:58Z</time>
      </trkpt>
      <trkpt lat="47.84702" lon="7.11611">
        <ele>883.4</ele>
        <time>2023-05-18T09:49:05Z</time>
      </trkpt>
      <trkpt lat="47.84711" lon="7.11602">
        <ele>883.9</ele>
        <time>2023-05-18T09:49:15Z</time>
      </trkpt>
      <trkpt lat="47.84716" lon="7.11595">
        <ele>883.8</ele>
        <time>2023-05-18T09:49:23Z</time>
      </trkpt>
      <trkpt lat="47.84723" lon="7.1159">
        <ele>884.9</ele>
        <time>2023-05-18T09:49:27Z</time>
      </trkpt>
      <trkpt lat="47.84727" lon="7.11592">
        <ele>886.4</ele>
        <time>2023-05-18T09:49:30Z</time>
      </trkpt>
      <trkpt lat="47.84739" lon="7.11591">
        <ele>889.3</ele>
        <time>2023-05-18T09:49:41Z</time>
      </trkpt>
      <trkpt lat="47.84743" lon="7.11586">
        <ele>889</ele>
        <time>2023-05-18T09:49:50Z</time>
      </trkpt>
      <trkpt lat="47.84749" lon="7.11586">
        <ele>890.5</ele>
        <time>2023-05-18T09:49:53Z</time>
      </trkpt>
      <trkpt lat="47.84759" lon="7.11582">
        <ele>892.2</ele>
        <time>2023-05-18T09:50:00Z</time>
      </trkpt>
      <trkpt lat="47.84763" lon="7.11578">
        <ele>892.1</ele>
        <time>2023-05-18T09:50:05Z</time>
      </trkpt>
      <trkpt lat="47.84767" lon="7.11577">
        <ele>893</ele>
        <time>2023-05-18T09:50:09Z</time>
      </trkpt>
      <trkpt lat="47.84776" lon="7.11571">
        <ele>893.9</ele>
        <time>2023-05-18T09:50:19Z</time>
      </trkpt>
      <trkpt lat="47.84786" lon="7.11558">
        <ele>893.9</ele>
        <time>2023-05-18T09:50:31Z</time>
      </trkpt>
      <trkpt lat="47.84791" lon="7.11546">
        <ele>892.8</ele>
        <time>2023-05-18T09:50:39Z</time>
      </trkpt>
      <trkpt lat="47.84805" lon="7.11535">
        <ele>896.3</ele>
        <time>2023-05-18T09:50:56Z</time>
      </trkpt>
      <trkpt lat="47.84819" lon="7.11516">
        <ele>896.8</ele>
        <time>2023-05-18T09:51:10Z</time>
      </trkpt>
      <trkpt lat="47.84831" lon="7.11509">
        <ele>898.6</ele>
        <time>2023-05-18T09:51:22Z</time>
      </trkpt>
      <trkpt lat="47.84839" lon="7.11506">
        <ele>898.1</ele>
        <time>2023-05-18T09:51:31Z</time>
      </trkpt>
      <trkpt lat="47.84844" lon="7.11504">
        <ele>897.2</ele>
        <time>2023-05-18T09:51:39Z</time>
      </trkpt>
      <trkpt lat="47.84849" lon="7.11507">
        <ele>897.6</ele>
        <time>2023-05-18T09:51:42Z</time>
      </trkpt>
      <trkpt lat="47.84857" lon="7.11519">
        <ele>900.1</ele>
        <time>2023-05-18T09:51:50Z</time>
      </trkpt>
      <trkpt lat="47.84859" lon="7.11533">
        <ele>902</ele>
        <time>2023-05-18T09:51:58Z</time>
      </trkpt>
      <trkpt lat="47.84859" lon="7.11549">
        <ele>901.7</ele>
        <time>2023-05-18T09:52:07Z</time>
      </trkpt>
      <trkpt lat="47.84856" lon="7.11564">
        <ele>901.9</ele>
        <time>2023-05-18T09:52:15Z</time>
      </trkpt>
      <trkpt lat="47.84855" lon="7.11585">
        <ele>901.5</ele>
        <time>2023-05-18T09:52:27Z</time>
      </trkpt>
      <trkpt lat="47.84854" lon="7.11591">
        <ele>902.2</ele>
        <time>2023-05-18T09:52:31Z</time>
      </trkpt>
      <trkpt lat="47.84856" lon="7.11598">
        <ele>901.6</ele>
        <time>2023-05-18T09:52:35Z</time>
      </trkpt>
      <trkpt lat="47.84857" lon="7.11612">
        <ele>901.9</ele>
        <time>2023-05-18T09:52:42Z</time>
      </trkpt>
      <trkpt lat="47.84861" lon="7.11621">
        <ele>901.1</ele>
        <time>2023-05-18T09:52:51Z</time>
      </trkpt>
      <trkpt lat="47.8486" lon="7.11634">
        <ele>902.9</ele>
        <time>2023-05-18T09:52:59Z</time>
      </trkpt>
      <trkpt lat="47.84866" lon="7.11646">
        <ele>901.6</ele>
        <time>2023-05-18T09:53:07Z</time>
      </trkpt>
      <trkpt lat="47.84865" lon="7.11653">
        <ele>902.8</ele>
        <time>2023-05-18T09:53:11Z</time>
      </trkpt>
      <trkpt lat="47.84867" lon="7.11663">
        <ele>903.2</ele>
        <time>2023-05-18T09:53:16Z</time>
      </trkpt>
      <trkpt lat="47.84866" lon="7.1167">
        <ele>904.3</ele>
        <time>2023-05-18T09:53:20Z</time>
      </trkpt>
      <trkpt lat="47.84873" lon="7.11683">
        <ele>903</ele>
        <time>2023-05-18T09:53:26Z</time>
      </trkpt>
      <trkpt lat="47.84878" lon="7.11702">
        <ele>903.1</ele>
        <time>2023-05-18T09:53:38Z</time>
      </trkpt>
      <trkpt lat="47.84883" lon="7.11755">
        <ele>906.8</ele>
        <time>2023-05-18T09:54:09Z</time>
      </trkpt>
      <trkpt lat="47.84882" lon="7.11763">
        <ele>908.1</ele>
        <time>2023-05-18T09:54:13Z</time>
      </trkpt>
      <trkpt lat="47.84879" lon="7.1177">
        <ele>909</ele>
        <time>2023-05-18T09:54:16Z</time>
      </trkpt>
      <trkpt lat="47.84881" lon="7.11792">
        <ele>911.1</ele>
        <time>2023-05-18T09:54:31Z</time>
      </trkpt>
      <trkpt lat="47.84878" lon="7.11798">
        <ele>910.9</ele>
        <time>2023-05-18T09:54:39Z</time>
      </trkpt>
      <trkpt lat="47.84881" lon="7.11805">
        <ele>912</ele>
        <time>2023-05-18T09:54:51Z</time>
      </trkpt>
      <trkpt lat="47.84884" lon="7.11812">
        <ele>912.8</ele>
        <time>2023-05-18T09:54:57Z</time>
      </trkpt>
      <trkpt lat="47.84889" lon="7.11822">
        <ele>914.6</ele>
        <time>2023-05-18T09:55:03Z</time>
      </trkpt>
      <trkpt lat="47.84899" lon="7.11824">
        <ele>915.3</ele>
        <time>2023-05-18T09:55:11Z</time>
      </trkpt>
      <trkpt lat="47.84906" lon="7.11837">
        <ele>917.6</ele>
        <time>2023-05-18T09:55:24Z</time>
      </trkpt>
      <trkpt lat="47.84905" lon="7.11844">
        <ele>917.7</ele>
        <time>2023-05-18T09:55:28Z</time>
      </trkpt>
      <trkpt lat="47.84906" lon="7.11854">
        <ele>918.3</ele>
        <time>2023-05-18T09:55:35Z</time>
      </trkpt>
      <trkpt lat="47.84911" lon="7.11858">
        <ele>919.9</ele>
        <time>2023-05-18T09:55:39Z</time>
      </trkpt>
      <trkpt lat="47.84915" lon="7.11873">
        <ele>921.9</ele>
        <time>2023-05-18T09:55:48Z</time>
      </trkpt>
      <trkpt lat="47.84916" lon="7.11883">
        <ele>922.6</ele>
        <time>2023-05-18T09:55:56Z</time>
      </trkpt>
      <trkpt lat="47.84925" lon="7.11899">
        <ele>925.1</ele>
        <time>2023-05-18T09:56:07Z</time>
      </trkpt>
      <trkpt lat="47.84927" lon="7.1191">
        <ele>926.2</ele>
        <time>2023-05-18T09:56:15Z</time>
      </trkpt>
      <trkpt lat="47.84924" lon="7.11927">
        <ele>926.5</ele>
        <time>2023-05-18T09:56:23Z</time>
      </trkpt>
      <trkpt lat="47.84928" lon="7.11933">
        <ele>928.2</ele>
        <time>2023-05-18T09:56:31Z</time>
      </trkpt>
      <trkpt lat="47.84928" lon="7.1194">
        <ele>928.7</ele>
        <time>2023-05-18T09:56:38Z</time>
      </trkpt>
      <trkpt lat="47.84932" lon="7.11946">
        <ele>930.6</ele>
        <time>2023-05-18T09:56:43Z</time>
      </trkpt>
      <trkpt lat="47.84932" lon="7.11954">
        <ele>931.2</ele>
        <time>2023-05-18T09:56:47Z</time>
      </trkpt>
      <trkpt lat="47.84934" lon="7.11962">
        <ele>932.7</ele>
        <time>2023-05-18T09:56:52Z</time>
      </trkpt>
      <trkpt lat="47.84932" lon="7.1197">
        <ele>932.5</ele>
        <time>2023-05-18T09:57:00Z</time>
      </trkpt>
      <trkpt lat="47.84929" lon="7.11989">
        <ele>932.1</ele>
        <time>2023-05-18T09:57:10Z</time>
      </trkpt>
      <trkpt lat="47.84934" lon="7.11992">
        <ele>934.8</ele>
        <time>2023-05-18T09:57:13Z</time>
      </trkpt>
      <trkpt lat="47.84935" lon="7.12002">
        <ele>935.9</ele>
        <time>2023-05-18T09:57:19Z</time>
      </trkpt>
      <trkpt lat="47.8494" lon="7.12002">
        <ele>938.6</ele>
        <time>2023-05-18T09:57:26Z</time>
      </trkpt>
      <trkpt lat="47.84948" lon="7.1202">
        <ele>941.8</ele>
        <time>2023-05-18T09:57:45Z</time>
      </trkpt>
      <trkpt lat="47.84949" lon="7.12036">
        <ele>942.7</ele>
        <time>2023-05-18T09:57:52Z</time>
      </trkpt>
      <trkpt lat="47.84948" lon="7.12045">
        <ele>942.9</ele>
        <time>2023-05-18T09:57:55Z</time>
      </trkpt>
      <trkpt lat="47.84947" lon="7.12058">
        <ele>943.5</ele>
        <time>2023-05-18T09:58:04Z</time>
      </trkpt>
      <trkpt lat="47.84946" lon="7.12073">
        <ele>945.2</ele>
        <time>2023-05-18T09:58:16Z</time>
      </trkpt>
      <trkpt lat="47.84944" lon="7.12079">
        <ele>945.2</ele>
        <time>2023-05-18T09:58:20Z</time>
      </trkpt>
      <trkpt lat="47.84945" lon="7.12088">
        <ele>946.7</ele>
        <time>2023-05-18T09:58:25Z</time>
      </trkpt>
      <trkpt lat="47.84947" lon="7.12134">
        <ele>950.9</ele>
        <time>2023-05-18T09:59:05Z</time>
      </trkpt>
      <trkpt lat="47.84949" lon="7.12141">
        <ele>951.7</ele>
        <time>2023-05-18T09:59:10Z</time>
      </trkpt>
      <trkpt lat="47.84953" lon="7.1215">
        <ele>951.9</ele>
        <time>2023-05-18T09:59:17Z</time>
      </trkpt>
      <trkpt lat="47.84961" lon="7.12115">
        <ele>956.3</ele>
        <time>2023-05-18T09:59:44Z</time>
      </trkpt>
      <trkpt lat="47.84968" lon="7.12118">
        <ele>959.4</ele>
        <time>2023-05-18T09:59:51Z</time>
      </trkpt>
      <trkpt lat="47.84972" lon="7.12124">
        <ele>961.4</ele>
        <time>2023-05-18T09:59:53Z</time>
      </trkpt>
      <trkpt lat="47.84973" lon="7.1213">
        <ele>962</ele>
        <time>2023-05-18T09:59:57Z</time>
      </trkpt>
      <trkpt lat="47.84981" lon="7.12138">
        <ele>965.7</ele>
        <time>2023-05-18T10:00:05Z</time>
      </trkpt>
      <trkpt lat="47.84986" lon="7.12139">
        <ele>967.9</ele>
        <time>2023-05-18T10:00:11Z</time>
      </trkpt>
      <trkpt lat="47.8499" lon="7.1214">
        <ele>969.4</ele>
        <time>2023-05-18T10:00:17Z</time>
      </trkpt>
      <trkpt lat="47.84993" lon="7.12144">
        <ele>969.5</ele>
        <time>2023-05-18T10:00:21Z</time>
      </trkpt>
      <trkpt lat="47.84999" lon="7.12146">
        <ele>971.5</ele>
        <time>2023-05-18T10:00:29Z</time>
      </trkpt>
      <trkpt lat="47.85003" lon="7.12151">
        <ele>971.5</ele>
        <time>2023-05-18T10:00:35Z</time>
      </trkpt>
      <trkpt lat="47.85008" lon="7.12161">
        <ele>971.2</ele>
        <time>2023-05-18T10:00:42Z</time>
      </trkpt>
      <trkpt lat="47.85016" lon="7.1217">
        <ele>973.8</ele>
        <time>2023-05-18T10:00:57Z</time>
      </trkpt>
      <trkpt lat="47.85017" lon="7.12177">
        <ele>973.8</ele>
        <time>2023-05-18T10:01:00Z</time>
      </trkpt>
      <trkpt lat="47.85023" lon="7.1219">
        <ele>976.3</ele>
        <time>2023-05-18T10:01:11Z</time>
      </trkpt>
      <trkpt lat="47.85022" lon="7.12199">
        <ele>975.3</ele>
        <time>2023-05-18T10:01:14Z</time>
      </trkpt>
      <trkpt lat="47.85022" lon="7.12213">
        <ele>974.9</ele>
        <time>2023-05-18T10:01:28Z</time>
      </trkpt>
      <trkpt lat="47.85026" lon="7.12225">
        <ele>977.4</ele>
        <time>2023-05-18T10:01:37Z</time>
      </trkpt>
      <trkpt lat="47.85039" lon="7.1224">
        <ele>982.3</ele>
        <time>2023-05-18T10:02:07Z</time>
      </trkpt>
      <trkpt lat="47.85045" lon="7.12249">
        <ele>984.2</ele>
        <time>2023-05-18T10:02:16Z</time>
      </trkpt>
      <trkpt lat="47.85055" lon="7.12273">
        <ele>985.4</ele>
        <time>2023-05-18T10:02:35Z</time>
      </trkpt>
      <trkpt lat="47.85061" lon="7.12278">
        <ele>987.7</ele>
        <time>2023-05-18T10:02:37Z</time>
      </trkpt>
      <trkpt lat="47.85064" lon="7.12285">
        <ele>989.3</ele>
        <time>2023-05-18T10:02:43Z</time>
      </trkpt>
      <trkpt lat="47.85065" lon="7.12292">
        <ele>989.8</ele>
        <time>2023-05-18T10:02:48Z</time>
      </trkpt>
      <trkpt lat="47.85066" lon="7.12301">
        <ele>990.3</ele>
        <time>2023-05-18T10:02:57Z</time>
      </trkpt>
      <trkpt lat="47.85062" lon="7.12308">
        <ele>988.6</ele>
        <time>2023-05-18T10:03:00Z</time>
      </trkpt>
      <trkpt lat="47.85062" lon="7.12315">
        <ele>989.5</ele>
        <time>2023-05-18T10:03:05Z</time>
      </trkpt>
      <trkpt lat="47.85061" lon="7.12323">
        <ele>990</ele>
        <time>2023-05-18T10:03:09Z</time>
      </trkpt>
      <trkpt lat="47.85062" lon="7.12331">
        <ele>991.5</ele>
        <time>2023-05-18T10:03:13Z</time>
      </trkpt>
      <trkpt lat="47.85059" lon="7.12335">
        <ele>990.7</ele>
        <time>2023-05-18T10:03:17Z</time>
      </trkpt>
      <trkpt lat="47.85052" lon="7.12342">
        <ele>988.2</ele>
        <time>2023-05-18T10:03:22Z</time>
      </trkpt>
      <trkpt lat="47.85046" lon="7.12349">
        <ele>986</ele>
        <time>2023-05-18T10:03:32Z</time>
      </trkpt>
      <trkpt lat="47.85044" lon="7.12356">
        <ele>985.7</ele>
        <time>2023-05-18T10:03:36Z</time>
      </trkpt>
      <trkpt lat="47.85042" lon="7.12363">
        <ele>985.4</ele>
        <time>2023-05-18T10:03:43Z</time>
      </trkpt>
      <trkpt lat="47.85034" lon="7.12363">
        <ele>981.3</ele>
        <time>2023-05-18T10:04:20Z</time>
      </trkpt>
      <trkpt lat="47.85039" lon="7.12371">
        <ele>984.7</ele>
        <time>2023-05-18T10:05:06Z</time>
      </trkpt>
      <trkpt lat="47.85045" lon="7.12356">
        <ele>986.2</ele>
        <time>2023-05-18T10:05:23Z</time>
      </trkpt>
      <trkpt lat="47.85042" lon="7.12353">
        <ele>984.4</ele>
        <time>2023-05-18T10:06:16Z</time>
      </trkpt>
      <trkpt lat="47.85042" lon="7.12358">
        <ele>984.9</ele>
        <time>2023-05-18T10:50:43Z</time>
      </trkpt>
      <trkpt lat="47.85042" lon="7.12358">
        <ele>984.9</ele>
        <time>2023-05-18T10:50:44Z</time>
      </trkpt>
      <trkpt lat="47.85047" lon="7.12358">
        <ele>987.4</ele>
        <time>2023-05-18T10:50:53Z</time>
      </trkpt>
      <trkpt lat="47.85052" lon="7.12363">
        <ele>990.5</ele>
        <time>2023-05-18T10:51:03Z</time>
      </trkpt>
      <trkpt lat="47.85057" lon="7.12364">
        <ele>993</ele>
        <time>2023-05-18T10:51:07Z</time>
      </trkpt>
      <trkpt lat="47.85061" lon="7.12363">
        <ele>994.4</ele>
        <time>2023-05-18T10:51:09Z</time>
      </trkpt>
      <trkpt lat="47.85065" lon="7.12372">
        <ele>997.2</ele>
        <time>2023-05-18T10:51:16Z</time>
      </trkpt>
      <trkpt lat="47.85067" lon="7.12384">
        <ele>999.5</ele>
        <time>2023-05-18T10:51:28Z</time>
      </trkpt>
      <trkpt lat="47.85068" lon="7.12394">
        <ele>1000.9</ele>
        <time>2023-05-18T10:51:37Z</time>
      </trkpt>
      <trkpt lat="47.85066" lon="7.12404">
        <ele>1001.1</ele>
        <time>2023-05-18T10:51:47Z</time>
      </trkpt>
      <trkpt lat="47.85067" lon="7.12413">
        <ele>1002.2</ele>
        <time>2023-05-18T10:51:53Z</time>
      </trkpt>
      <trkpt lat="47.85067" lon="7.1242">
        <ele>1002.7</ele>
        <time>2023-05-18T10:51:58Z</time>
      </trkpt>
      <trkpt lat="47.85069" lon="7.12436">
        <ele>1004.4</ele>
        <time>2023-05-18T10:52:07Z</time>
      </trkpt>
      <trkpt lat="47.85074" lon="7.12445">
        <ele>1007</ele>
        <time>2023-05-18T10:52:19Z</time>
      </trkpt>
      <trkpt lat="47.85075" lon="7.12451">
        <ele>1007.8</ele>
        <time>2023-05-18T10:52:24Z</time>
      </trkpt>
      <trkpt lat="47.85075" lon="7.12458">
        <ele>1008.2</ele>
        <time>2023-05-18T10:52:32Z</time>
      </trkpt>
      <trkpt lat="47.85076" lon="7.12465">
        <ele>1009.1</ele>
        <time>2023-05-18T10:52:37Z</time>
      </trkpt>
      <trkpt lat="47.85078" lon="7.12488">
        <ele>1011</ele>
        <time>2023-05-18T10:52:50Z</time>
      </trkpt>
      <trkpt lat="47.85079" lon="7.125">
        <ele>1011.8</ele>
        <time>2023-05-18T10:52:59Z</time>
      </trkpt>
      <trkpt lat="47.85078" lon="7.12515">
        <ele>1011.7</ele>
        <time>2023-05-18T10:53:07Z</time>
      </trkpt>
      <trkpt lat="47.85078" lon="7.12522">
        <ele>1012</ele>
        <time>2023-05-18T10:53:11Z</time>
      </trkpt>
      <trkpt lat="47.85085" lon="7.12535">
        <ele>1016.1</ele>
        <time>2023-05-18T10:53:21Z</time>
      </trkpt>
      <trkpt lat="47.85089" lon="7.12547">
        <ele>1018.5</ele>
        <time>2023-05-18T10:53:30Z</time>
      </trkpt>
      <trkpt lat="47.85091" lon="7.12557">
        <ele>1019.9</ele>
        <time>2023-05-18T10:53:34Z</time>
      </trkpt>
      <trkpt lat="47.85088" lon="7.12567">
        <ele>1018.8</ele>
        <time>2023-05-18T10:53:38Z</time>
      </trkpt>
      <trkpt lat="47.85096" lon="7.12593">
        <ele>1023.9</ele>
        <time>2023-05-18T10:54:02Z</time>
      </trkpt>
      <trkpt lat="47.85091" lon="7.12608">
        <ele>1022.4</ele>
        <time>2023-05-18T10:54:12Z</time>
      </trkpt>
      <trkpt lat="47.85102" lon="7.1262">
        <ele>1028.1</ele>
        <time>2023-05-18T10:54:23Z</time>
      </trkpt>
      <trkpt lat="47.85099" lon="7.12628">
        <ele>1026.9</ele>
        <time>2023-05-18T10:54:28Z</time>
      </trkpt>
      <trkpt lat="47.85107" lon="7.12694">
        <ele>1032.8</ele>
        <time>2023-05-18T10:55:10Z</time>
      </trkpt>
      <trkpt lat="47.8511" lon="7.12699">
        <ele>1034.4</ele>
        <time>2023-05-18T10:55:15Z</time>
      </trkpt>
      <trkpt lat="47.85115" lon="7.12705">
        <ele>1037.1</ele>
        <time>2023-05-18T10:55:20Z</time>
      </trkpt>
      <trkpt lat="47.85112" lon="7.12715">
        <ele>1035.5</ele>
        <time>2023-05-18T10:55:27Z</time>
      </trkpt>
      <trkpt lat="47.85118" lon="7.12728">
        <ele>1038.7</ele>
        <time>2023-05-18T10:55:37Z</time>
      </trkpt>
      <trkpt lat="47.85123" lon="7.12735">
        <ele>1041.4</ele>
        <time>2023-05-18T10:55:48Z</time>
      </trkpt>
      <trkpt lat="47.85121" lon="7.12746">
        <ele>1040.3</ele>
        <time>2023-05-18T10:55:53Z</time>
      </trkpt>
      <trkpt lat="47.85128" lon="7.12778">
        <ele>1044.5</ele>
        <time>2023-05-18T10:56:10Z</time>
      </trkpt>
      <trkpt lat="47.85132" lon="7.12777">
        <ele>1046.5</ele>
        <time>2023-05-18T10:56:18Z</time>
      </trkpt>
      <trkpt lat="47.85134" lon="7.12789">
        <ele>1047.6</ele>
        <time>2023-05-18T10:56:23Z</time>
      </trkpt>
      <trkpt lat="47.85138" lon="7.12822">
        <ele>1049.6</ele>
        <time>2023-05-18T10:56:42Z</time>
      </trkpt>
      <trkpt lat="47.85138" lon="7.12845">
        <ele>1050.5</ele>
        <time>2023-05-18T10:56:58Z</time>
      </trkpt>
      <trkpt lat="47.8514" lon="7.12851">
        <ele>1051.8</ele>
        <time>2023-05-18T10:57:03Z</time>
      </trkpt>
      <trkpt lat="47.85138" lon="7.12858">
        <ele>1051.5</ele>
        <time>2023-05-18T10:57:06Z</time>
      </trkpt>
      <trkpt lat="47.85139" lon="7.12865">
        <ele>1052.5</ele>
        <time>2023-05-18T10:57:10Z</time>
      </trkpt>
      <trkpt lat="47.85137" lon="7.12872">
        <ele>1052.5</ele>
        <time>2023-05-18T10:57:18Z</time>
      </trkpt>
      <trkpt lat="47.85137" lon="7.1288">
        <ele>1053.4</ele>
        <time>2023-05-18T10:57:24Z</time>
      </trkpt>
      <trkpt lat="47.85136" lon="7.1289">
        <ele>1054</ele>
        <time>2023-05-18T10:57:29Z</time>
      </trkpt>
      <trkpt lat="47.85136" lon="7.12897">
        <ele>1054.5</ele>
        <time>2023-05-18T10:57:32Z</time>
      </trkpt>
      <trkpt lat="47.8514" lon="7.12903">
        <ele>1056.5</ele>
        <time>2023-05-18T10:57:40Z</time>
      </trkpt>
      <trkpt lat="47.85139" lon="7.12912">
        <ele>1056.7</ele>
        <time>2023-05-18T10:57:44Z</time>
      </trkpt>
      <trkpt lat="47.85142" lon="7.1292">
        <ele>1058.6</ele>
        <time>2023-05-18T10:57:53Z</time>
      </trkpt>
      <trkpt lat="47.85147" lon="7.12926">
        <ele>1061.2</ele>
        <time>2023-05-18T10:57:57Z</time>
      </trkpt>
      <trkpt lat="47.85149" lon="7.12933">
        <ele>1062.5</ele>
        <time>2023-05-18T10:58:01Z</time>
      </trkpt>
      <trkpt lat="47.85151" lon="7.12945">
        <ele>1064.3</ele>
        <time>2023-05-18T10:58:09Z</time>
      </trkpt>
      <trkpt lat="47.85148" lon="7.12955">
        <ele>1064</ele>
        <time>2023-05-18T10:58:14Z</time>
      </trkpt>
      <trkpt lat="47.85145" lon="7.12961">
        <ele>1063.3</ele>
        <time>2023-05-18T10:58:17Z</time>
      </trkpt>
      <trkpt lat="47.85141" lon="7.12986">
        <ele>1063.8</ele>
        <time>2023-05-18T10:58:35Z</time>
      </trkpt>
      <trkpt lat="47.85142" lon="7.12994">
        <ele>1064.8</ele>
        <time>2023-05-18T10:58:40Z</time>
      </trkpt>
      <trkpt lat="47.85148" lon="7.13004">
        <ele>1067.8</ele>
        <time>2023-05-18T10:58:51Z</time>
      </trkpt>
      <trkpt lat="47.85147" lon="7.13012">
        <ele>1067.9</ele>
        <time>2023-05-18T10:58:58Z</time>
      </trkpt>
      <trkpt lat="47.85149" lon="7.1302">
        <ele>1069.2</ele>
        <time>2023-05-18T10:59:01Z</time>
      </trkpt>
      <trkpt lat="47.85159" lon="7.13065">
        <ele>1074.6</ele>
        <time>2023-05-18T10:59:34Z</time>
      </trkpt>
      <trkpt lat="47.85161" lon="7.13074">
        <ele>1075.6</ele>
        <time>2023-05-18T10:59:42Z</time>
      </trkpt>
      <trkpt lat="47.85161" lon="7.13081">
        <ele>1075.9</ele>
        <time>2023-05-18T10:59:45Z</time>
      </trkpt>
      <trkpt lat="47.85163" lon="7.13087">
        <ele>1076.9</ele>
        <time>2023-05-18T10:59:50Z</time>
      </trkpt>
      <trkpt lat="47.85163" lon="7.13095">
        <ele>1077.5</ele>
        <time>2023-05-18T10:59:58Z</time>
      </trkpt>
      <trkpt lat="47.85162" lon="7.13107">
        <ele>1078</ele>
        <time>2023-05-18T11:00:08Z</time>
      </trkpt>
      <trkpt lat="47.85165" lon="7.13116">
        <ele>1079.6</ele>
        <time>2023-05-18T11:00:14Z</time>
      </trkpt>
      <trkpt lat="47.85164" lon="7.13131">
        <ele>1079.8</ele>
        <time>2023-05-18T11:00:20Z</time>
      </trkpt>
      <trkpt lat="47.85166" lon="7.13138">
        <ele>1080.8</ele>
        <time>2023-05-18T11:00:24Z</time>
      </trkpt>
      <trkpt lat="47.85165" lon="7.13153">
        <ele>1081</ele>
        <time>2023-05-18T11:00:32Z</time>
      </trkpt>
      <trkpt lat="47.85165" lon="7.13161">
        <ele>1081.4</ele>
        <time>2023-05-18T11:00:35Z</time>
      </trkpt>
      <trkpt lat="47.85172" lon="7.13184">
        <ele>1084.2</ele>
        <time>2023-05-18T11:00:55Z</time>
      </trkpt>
      <trkpt lat="47.8517" lon="7.13199">
        <ele>1084.2</ele>
        <time>2023-05-18T11:01:03Z</time>
      </trkpt>
      <trkpt lat="47.85172" lon="7.13206">
        <ele>1085.2</ele>
        <time>2023-05-18T11:01:07Z</time>
      </trkpt>
      <trkpt lat="47.8517" lon="7.13216">
        <ele>1085.3</ele>
        <time>2023-05-18T11:01:15Z</time>
      </trkpt>
      <trkpt lat="47.85165" lon="7.13222">
        <ele>1084.6</ele>
        <time>2023-05-18T11:01:20Z</time>
      </trkpt>
      <trkpt lat="47.85166" lon="7.13232">
        <ele>1085.6</ele>
        <time>2023-05-18T11:01:26Z</time>
      </trkpt>
      <trkpt lat="47.85165" lon="7.1325">
        <ele>1086.7</ele>
        <time>2023-05-18T11:01:39Z</time>
      </trkpt>
      <trkpt lat="47.85168" lon="7.13251">
        <ele>1087.3</ele>
        <time>2023-05-18T11:04:24Z</time>
      </trkpt>
      <trkpt lat="47.85169" lon="7.13256">
        <ele>1087.8</ele>
        <time>2023-05-18T11:04:29Z</time>
      </trkpt>
      <trkpt lat="47.85175" lon="7.13257">
        <ele>1088.9</ele>
        <time>2023-05-18T11:04:36Z</time>
      </trkpt>
      <trkpt lat="47.85182" lon="7.13261">
        <ele>1090.3</ele>
        <time>2023-05-18T11:04:45Z</time>
      </trkpt>
      <trkpt lat="47.85185" lon="7.13274">
        <ele>1091.5</ele>
        <time>2023-05-18T11:04:55Z</time>
      </trkpt>
      <trkpt lat="47.85188" lon="7.1328">
        <ele>1092.2</ele>
        <time>2023-05-18T11:04:59Z</time>
      </trkpt>
      <trkpt lat="47.85189" lon="7.13287">
        <ele>1092.7</ele>
        <time>2023-05-18T11:05:04Z</time>
      </trkpt>
      <trkpt lat="47.85195" lon="7.13302">
        <ele>1093.9</ele>
        <time>2023-05-18T11:05:15Z</time>
      </trkpt>
      <trkpt lat="47.85197" lon="7.13308">
        <ele>1094.1</ele>
        <time>2023-05-18T11:05:19Z</time>
      </trkpt>
      <trkpt lat="47.85201" lon="7.13313">
        <ele>1094.1</ele>
        <time>2023-05-18T11:05:24Z</time>
      </trkpt>
      <trkpt lat="47.85207" lon="7.13315">
        <ele>1094.1</ele>
        <time>2023-05-18T11:05:29Z</time>
      </trkpt>
      <trkpt lat="47.85209" lon="7.13321">
        <ele>1093.9</ele>
        <time>2023-05-18T11:05:37Z</time>
      </trkpt>
      <trkpt lat="47.85224" lon="7.13336">
        <ele>1092.7</ele>
        <time>2023-05-18T11:05:59Z</time>
      </trkpt>
      <trkpt lat="47.85241" lon="7.13365">
        <ele>1088.5</ele>
        <time>2023-05-18T11:06:25Z</time>
      </trkpt>
      <trkpt lat="47.85245" lon="7.13369">
        <ele>1087.6</ele>
        <time>2023-05-18T11:06:29Z</time>
      </trkpt>
      <trkpt lat="47.85248" lon="7.13375">
        <ele>1086.3</ele>
        <time>2023-05-18T11:06:37Z</time>
      </trkpt>
      <trkpt lat="47.85262" lon="7.13384">
        <ele>1083</ele>
        <time>2023-05-18T11:06:52Z</time>
      </trkpt>
      <trkpt lat="47.85266" lon="7.13387">
        <ele>1082</ele>
        <time>2023-05-18T11:07:06Z</time>
      </trkpt>
      <trkpt lat="47.85278" lon="7.13423">
        <ele>1074.8</ele>
        <time>2023-05-18T11:08:59Z</time>
      </trkpt>
      <trkpt lat="47.85279" lon="7.13425">
        <ele>1074.3</ele>
        <time>2023-05-18T11:09:00Z</time>
      </trkpt>
      <trkpt lat="47.85284" lon="7.13433">
        <ele>1072.1</ele>
        <time>2023-05-18T11:09:07Z</time>
      </trkpt>
      <trkpt lat="47.85285" lon="7.13439">
        <ele>1070.9</ele>
        <time>2023-05-18T11:09:11Z</time>
      </trkpt>
      <trkpt lat="47.85289" lon="7.13445">
        <ele>1069.3</ele>
        <time>2023-05-18T11:09:17Z</time>
      </trkpt>
      <trkpt lat="47.85293" lon="7.13457">
        <ele>1066.1</ele>
        <time>2023-05-18T11:09:26Z</time>
      </trkpt>
      <trkpt lat="47.85311" lon="7.13495">
        <ele>1056.1</ele>
        <time>2023-05-18T11:10:00Z</time>
      </trkpt>
      <trkpt lat="47.85318" lon="7.13513">
        <ele>1052.1</ele>
        <time>2023-05-18T11:10:16Z</time>
      </trkpt>
      <trkpt lat="47.85321" lon="7.13526">
        <ele>1049.5</ele>
        <time>2023-05-18T11:10:24Z</time>
      </trkpt>
      <trkpt lat="47.85325" lon="7.13531">
        <ele>1047.9</ele>
        <time>2023-05-18T11:10:29Z</time>
      </trkpt>
      <trkpt lat="47.85326" lon="7.13539">
        <ele>1046.1</ele>
        <time>2023-05-18T11:10:36Z</time>
      </trkpt>
      <trkpt lat="47.85326" lon="7.13547">
        <ele>1044.5</ele>
        <time>2023-05-18T11:10:40Z</time>
      </trkpt>
      <trkpt lat="47.8532" lon="7.13566">
        <ele>1043.2</ele>
        <time>2023-05-18T11:10:52Z</time>
      </trkpt>
      <trkpt lat="47.85323" lon="7.13575">
        <ele>1041.7</ele>
        <time>2023-05-18T11:11:00Z</time>
      </trkpt>
      <trkpt lat="47.85321" lon="7.13584">
        <ele>1041.1</ele>
        <time>2023-05-18T11:11:07Z</time>
      </trkpt>
      <trkpt lat="47.85327" lon="7.13585">
        <ele>1039.9</ele>
        <time>2023-05-18T11:11:14Z</time>
      </trkpt>
      <trkpt lat="47.85332" lon="7.13581">
        <ele>1039.4</ele>
        <time>2023-05-18T11:11:20Z</time>
      </trkpt>
      <trkpt lat="47.85344" lon="7.13568">
        <ele>1038.6</ele>
        <time>2023-05-18T11:11:32Z</time>
      </trkpt>
      <trkpt lat="47.85349" lon="7.13565">
        <ele>1038.4</ele>
        <time>2023-05-18T11:11:37Z</time>
      </trkpt>
      <trkpt lat="47.85357" lon="7.13556">
        <ele>1039.2</ele>
        <time>2023-05-18T11:11:46Z</time>
      </trkpt>
      <trkpt lat="47.85364" lon="7.1355">
        <ele>1039</ele>
        <time>2023-05-18T11:11:54Z</time>
      </trkpt>
      <trkpt lat="47.85369" lon="7.13548">
        <ele>1038.5</ele>
        <time>2023-05-18T11:11:58Z</time>
      </trkpt>
      <trkpt lat="47.85373" lon="7.13546">
        <ele>1038.1</ele>
        <time>2023-05-18T11:12:02Z</time>
      </trkpt>
      <trkpt lat="47.85386" lon="7.13539">
        <ele>1037.1</ele>
        <time>2023-05-18T11:12:15Z</time>
      </trkpt>
      <trkpt lat="47.85409" lon="7.13532">
        <ele>1033.7</ele>
        <time>2023-05-18T11:12:35Z</time>
      </trkpt>
      <trkpt lat="47.85413" lon="7.13528">
        <ele>1033.6</ele>
        <time>2023-05-18T11:12:39Z</time>
      </trkpt>
      <trkpt lat="47.85419" lon="7.1353">
        <ele>1032.2</ele>
        <time>2023-05-18T11:12:44Z</time>
      </trkpt>
      <trkpt lat="47.85423" lon="7.13528">
        <ele>1031.8</ele>
        <time>2023-05-18T11:12:49Z</time>
      </trkpt>
      <trkpt lat="47.85428" lon="7.13526">
        <ele>1031.3</ele>
        <time>2023-05-18T11:12:54Z</time>
      </trkpt>
      <trkpt lat="47.85442" lon="7.13523">
        <ele>1029.3</ele>
        <time>2023-05-18T11:13:06Z</time>
      </trkpt>
      <trkpt lat="47.85461" lon="7.13515">
        <ele>1027.3</ele>
        <time>2023-05-18T11:13:21Z</time>
      </trkpt>
      <trkpt lat="47.85471" lon="7.13516">
        <ele>1025.3</ele>
        <time>2023-05-18T11:13:28Z</time>
      </trkpt>
      <trkpt lat="47.85503" lon="7.13533">
        <ele>1021.1</ele>
        <time>2023-05-18T11:13:55Z</time>
      </trkpt>
      <trkpt lat="47.85537" lon="7.13565">
        <ele>1015.6</ele>
        <time>2023-05-18T11:14:28Z</time>
      </trkpt>
      <trkpt lat="47.85541" lon="7.13569">
        <ele>1015.1</ele>
        <time>2023-05-18T11:14:32Z</time>
      </trkpt>
      <trkpt lat="47.85545" lon="7.13574">
        <ele>1014.3</ele>
        <time>2023-05-18T11:14:36Z</time>
      </trkpt>
      <trkpt lat="47.85573" lon="7.13596">
        <ele>1010.7</ele>
        <time>2023-05-18T11:15:00Z</time>
      </trkpt>
      <trkpt lat="47.85578" lon="7.13598">
        <ele>1010.4</ele>
        <time>2023-05-18T11:15:03Z</time>
      </trkpt>
      <trkpt lat="47.85596" lon="7.1361">
        <ele>1008.2</ele>
        <time>2023-05-18T11:15:19Z</time>
      </trkpt>
      <trkpt lat="47.85611" lon="7.13616">
        <ele>1007.5</ele>
        <time>2023-05-18T11:15:29Z</time>
      </trkpt>
      <trkpt lat="47.85616" lon="7.13618">
        <ele>1007.4</ele>
        <time>2023-05-18T11:15:33Z</time>
      </trkpt>
      <trkpt lat="47.8562" lon="7.13622">
        <ele>1007.1</ele>
        <time>2023-05-18T11:15:38Z</time>
      </trkpt>
      <trkpt lat="47.85627" lon="7.13624">
        <ele>1007.2</ele>
        <time>2023-05-18T11:15:43Z</time>
      </trkpt>
      <trkpt lat="47.85631" lon="7.13627">
        <ele>1007</ele>
        <time>2023-05-18T11:15:46Z</time>
      </trkpt>
      <trkpt lat="47.85635" lon="7.13633">
        <ele>1006.5</ele>
        <time>2023-05-18T11:15:50Z</time>
      </trkpt>
      <trkpt lat="47.85637" lon="7.13639">
        <ele>1005.9</ele>
        <time>2023-05-18T11:15:54Z</time>
      </trkpt>
      <trkpt lat="47.85648" lon="7.13655">
        <ele>1004.7</ele>
        <time>2023-05-18T11:16:06Z</time>
      </trkpt>
      <trkpt lat="47.85651" lon="7.13662">
        <ele>1004</ele>
        <time>2023-05-18T11:16:10Z</time>
      </trkpt>
      <trkpt lat="47.85671" lon="7.13694">
        <ele>1001.4</ele>
        <time>2023-05-18T11:16:33Z</time>
      </trkpt>
      <trkpt lat="47.85674" lon="7.13699">
        <ele>1000.8</ele>
        <time>2023-05-18T11:16:38Z</time>
      </trkpt>
      <trkpt lat="47.85681" lon="7.1371">
        <ele>999.5</ele>
        <time>2023-05-18T11:16:50Z</time>
      </trkpt>
      <trkpt lat="47.85682" lon="7.13717">
        <ele>998.5</ele>
        <time>2023-05-18T11:16:55Z</time>
      </trkpt>
      <trkpt lat="47.85686" lon="7.13723">
        <ele>998</ele>
        <time>2023-05-18T11:16:59Z</time>
      </trkpt>
      <trkpt lat="47.85687" lon="7.13749">
        <ele>995</ele>
        <time>2023-05-18T11:17:10Z</time>
      </trkpt>
      <trkpt lat="47.85695" lon="7.13752">
        <ele>995.9</ele>
        <time>2023-05-18T11:17:14Z</time>
      </trkpt>
      <trkpt lat="47.85702" lon="7.13761">
        <ele>996.4</ele>
        <time>2023-05-18T11:17:22Z</time>
      </trkpt>
      <trkpt lat="47.85704" lon="7.13768">
        <ele>996.1</ele>
        <time>2023-05-18T11:17:24Z</time>
      </trkpt>
      <trkpt lat="47.85708" lon="7.13773">
        <ele>996.4</ele>
        <time>2023-05-18T11:17:28Z</time>
      </trkpt>
      <trkpt lat="47.85712" lon="7.13776">
        <ele>997</ele>
        <time>2023-05-18T11:17:31Z</time>
      </trkpt>
      <trkpt lat="47.85717" lon="7.1378">
        <ele>997.8</ele>
        <time>2023-05-18T11:17:35Z</time>
      </trkpt>
      <trkpt lat="47.85719" lon="7.13786">
        <ele>997.9</ele>
        <time>2023-05-18T11:17:38Z</time>
      </trkpt>
      <trkpt lat="47.85718" lon="7.13793">
        <ele>997.4</ele>
        <time>2023-05-18T11:17:41Z</time>
      </trkpt>
      <trkpt lat="47.85728" lon="7.13812">
        <ele>999.1</ele>
        <time>2023-05-18T11:17:57Z</time>
      </trkpt>
      <trkpt lat="47.85737" lon="7.1382">
        <ele>1000.9</ele>
        <time>2023-05-18T11:18:05Z</time>
      </trkpt>
      <trkpt lat="47.85741" lon="7.1382">
        <ele>1001.9</ele>
        <time>2023-05-18T11:18:08Z</time>
      </trkpt>
      <trkpt lat="47.85746" lon="7.13822">
        <ele>1003.1</ele>
        <time>2023-05-18T11:18:10Z</time>
      </trkpt>
      <trkpt lat="47.85751" lon="7.13822">
        <ele>1004</ele>
        <time>2023-05-18T11:18:13Z</time>
      </trkpt>
      <trkpt lat="47.85755" lon="7.13829">
        <ele>1003.7</ele>
        <time>2023-05-18T11:18:20Z</time>
      </trkpt>
      <trkpt lat="47.85757" lon="7.13834">
        <ele>1003.4</ele>
        <time>2023-05-18T11:18:23Z</time>
      </trkpt>
      <trkpt lat="47.85767" lon="7.13852">
        <ele>1001.2</ele>
        <time>2023-05-18T11:18:39Z</time>
      </trkpt>
      <trkpt lat="47.85771" lon="7.13866">
        <ele>999.9</ele>
        <time>2023-05-18T11:18:48Z</time>
      </trkpt>
      <trkpt lat="47.8577" lon="7.13875">
        <ele>999.3</ele>
        <time>2023-05-18T11:18:52Z</time>
      </trkpt>
      <trkpt lat="47.85763" lon="7.13887">
        <ele>998.7</ele>
        <time>2023-05-18T11:18:57Z</time>
      </trkpt>
      <trkpt lat="47.85758" lon="7.13899">
        <ele>998</ele>
        <time>2023-05-18T11:19:03Z</time>
      </trkpt>
      <trkpt lat="47.85755" lon="7.13905">
        <ele>997.7</ele>
        <time>2023-05-18T11:19:06Z</time>
      </trkpt>
      <trkpt lat="47.85748" lon="7.13926">
        <ele>996.1</ele>
        <time>2023-05-18T11:19:20Z</time>
      </trkpt>
      <trkpt lat="47.85748" lon="7.13949">
        <ele>994.9</ele>
        <time>2023-05-18T11:19:32Z</time>
      </trkpt>
      <trkpt lat="47.8575" lon="7.13957">
        <ele>994.6</ele>
        <time>2023-05-18T11:19:36Z</time>
      </trkpt>
      <trkpt lat="47.85751" lon="7.1397">
        <ele>993.4</ele>
        <time>2023-05-18T11:19:45Z</time>
      </trkpt>
      <trkpt lat="47.85748" lon="7.13976">
        <ele>992</ele>
        <time>2023-05-18T11:19:48Z</time>
      </trkpt>
      <trkpt lat="47.85749" lon="7.13984">
        <ele>991.5</ele>
        <time>2023-05-18T11:19:52Z</time>
      </trkpt>
      <trkpt lat="47.85753" lon="7.13994">
        <ele>991.3</ele>
        <time>2023-05-18T11:19:58Z</time>
      </trkpt>
      <trkpt lat="47.85755" lon="7.13999">
        <ele>991.3</ele>
        <time>2023-05-18T11:20:01Z</time>
      </trkpt>
      <trkpt lat="47.85757" lon="7.14007">
        <ele>991.3</ele>
        <time>2023-05-18T11:20:08Z</time>
      </trkpt>
      <trkpt lat="47.85748" lon="7.14052">
        <ele>987.5</ele>
        <time>2023-05-18T11:20:28Z</time>
      </trkpt>
      <trkpt lat="47.85744" lon="7.14058">
        <ele>986.4</ele>
        <time>2023-05-18T11:20:34Z</time>
      </trkpt>
      <trkpt lat="47.85739" lon="7.14071">
        <ele>984.5</ele>
        <time>2023-05-18T11:20:42Z</time>
      </trkpt>
      <trkpt lat="47.8574" lon="7.14078">
        <ele>984.4</ele>
        <time>2023-05-18T11:20:46Z</time>
      </trkpt>
      <trkpt lat="47.85735" lon="7.14112">
        <ele>983.2</ele>
        <time>2023-05-18T11:21:04Z</time>
      </trkpt>
      <trkpt lat="47.85733" lon="7.14119">
        <ele>982.7</ele>
        <time>2023-05-18T11:21:07Z</time>
      </trkpt>
      <trkpt lat="47.85713" lon="7.14152">
        <ele>977</ele>
        <time>2023-05-18T11:21:29Z</time>
      </trkpt>
      <trkpt lat="47.8571" lon="7.14172">
        <ele>975.7</ele>
        <time>2023-05-18T11:21:42Z</time>
      </trkpt>
      <trkpt lat="47.85711" lon="7.14178">
        <ele>975.5</ele>
        <time>2023-05-18T11:21:46Z</time>
      </trkpt>
      <trkpt lat="47.85709" lon="7.14185">
        <ele>974.4</ele>
        <time>2023-05-18T11:21:49Z</time>
      </trkpt>
      <trkpt lat="47.85709" lon="7.14208">
        <ele>972</ele>
        <time>2023-05-18T11:22:04Z</time>
      </trkpt>
      <trkpt lat="47.85708" lon="7.14214">
        <ele>970.9</ele>
        <time>2023-05-18T11:22:08Z</time>
      </trkpt>
      <trkpt lat="47.85712" lon="7.14257">
        <ele>966.3</ele>
        <time>2023-05-18T11:22:32Z</time>
      </trkpt>
      <trkpt lat="47.85711" lon="7.14265">
        <ele>964.8</ele>
        <time>2023-05-18T11:22:37Z</time>
      </trkpt>
      <trkpt lat="47.85717" lon="7.14305">
        <ele>961.2</ele>
        <time>2023-05-18T11:23:03Z</time>
      </trkpt>
      <trkpt lat="47.8572" lon="7.14323">
        <ele>960.3</ele>
        <time>2023-05-18T11:23:15Z</time>
      </trkpt>
      <trkpt lat="47.85718" lon="7.14332">
        <ele>958.6</ele>
        <time>2023-05-18T11:23:20Z</time>
      </trkpt>
      <trkpt lat="47.8572" lon="7.14338">
        <ele>958.7</ele>
        <time>2023-05-18T11:23:23Z</time>
      </trkpt>
      <trkpt lat="47.85725" lon="7.1439">
        <ele>956</ele>
        <time>2023-05-18T11:23:48Z</time>
      </trkpt>
      <trkpt lat="47.85724" lon="7.14396">
        <ele>955.4</ele>
        <time>2023-05-18T11:23:52Z</time>
      </trkpt>
      <trkpt lat="47.85725" lon="7.14403">
        <ele>955.5</ele>
        <time>2023-05-18T11:23:56Z</time>
      </trkpt>
      <trkpt lat="47.85725" lon="7.14409">
        <ele>955.3</ele>
        <time>2023-05-18T11:23:59Z</time>
      </trkpt>
      <trkpt lat="47.8572" lon="7.14424">
        <ele>951.7</ele>
        <time>2023-05-18T11:24:05Z</time>
      </trkpt>
      <trkpt lat="47.85725" lon="7.14442">
        <ele>950.6</ele>
        <time>2023-05-18T11:24:19Z</time>
      </trkpt>
      <trkpt lat="47.85726" lon="7.14455">
        <ele>949.8</ele>
        <time>2023-05-18T11:24:29Z</time>
      </trkpt>
      <trkpt lat="47.85723" lon="7.14461">
        <ele>948.1</ele>
        <time>2023-05-18T11:24:32Z</time>
      </trkpt>
      <trkpt lat="47.8572" lon="7.14474">
        <ele>946</ele>
        <time>2023-05-18T11:24:41Z</time>
      </trkpt>
      <trkpt lat="47.85723" lon="7.14489">
        <ele>945.5</ele>
        <time>2023-05-18T11:24:51Z</time>
      </trkpt>
      <trkpt lat="47.85723" lon="7.14498">
        <ele>944.5</ele>
        <time>2023-05-18T11:24:54Z</time>
      </trkpt>
      <trkpt lat="47.85729" lon="7.14523">
        <ele>942.7</ele>
        <time>2023-05-18T11:25:12Z</time>
      </trkpt>
      <trkpt lat="47.85732" lon="7.14537">
        <ele>941.6</ele>
        <time>2023-05-18T11:25:21Z</time>
      </trkpt>
      <trkpt lat="47.85732" lon="7.14544">
        <ele>940.7</ele>
        <time>2023-05-18T11:25:24Z</time>
      </trkpt>
      <trkpt lat="47.85732" lon="7.14551">
        <ele>939.8</ele>
        <time>2023-05-18T11:25:28Z</time>
      </trkpt>
      <trkpt lat="47.85734" lon="7.14557">
        <ele>939.5</ele>
        <time>2023-05-18T11:25:31Z</time>
      </trkpt>
      <trkpt lat="47.85738" lon="7.14566">
        <ele>938.8</ele>
        <time>2023-05-18T11:25:39Z</time>
      </trkpt>
      <trkpt lat="47.85737" lon="7.14573">
        <ele>937</ele>
        <time>2023-05-18T11:25:43Z</time>
      </trkpt>
      <trkpt lat="47.8574" lon="7.1458">
        <ele>936.2</ele>
        <time>2023-05-18T11:25:48Z</time>
      </trkpt>
      <trkpt lat="47.85743" lon="7.14585">
        <ele>935.8</ele>
        <time>2023-05-18T11:25:52Z</time>
      </trkpt>
      <trkpt lat="47.85747" lon="7.14597">
        <ele>933.9</ele>
        <time>2023-05-18T11:26:00Z</time>
      </trkpt>
      <trkpt lat="47.85755" lon="7.14605">
        <ele>933.5</ele>
        <time>2023-05-18T11:26:06Z</time>
      </trkpt>
      <trkpt lat="47.85763" lon="7.14622">
        <ele>931.6</ele>
        <time>2023-05-18T11:26:18Z</time>
      </trkpt>
      <trkpt lat="47.85766" lon="7.14635">
        <ele>929.9</ele>
        <time>2023-05-18T11:26:25Z</time>
      </trkpt>
      <trkpt lat="47.85775" lon="7.14649">
        <ele>928.8</ele>
        <time>2023-05-18T11:26:40Z</time>
      </trkpt>
      <trkpt lat="47.85778" lon="7.14656">
        <ele>927.9</ele>
        <time>2023-05-18T11:26:46Z</time>
      </trkpt>
      <trkpt lat="47.85782" lon="7.14661">
        <ele>927.3</ele>
        <time>2023-05-18T11:26:50Z</time>
      </trkpt>
      <trkpt lat="47.85787" lon="7.14663">
        <ele>927.3</ele>
        <time>2023-05-18T11:26:55Z</time>
      </trkpt>
      <trkpt lat="47.85788" lon="7.14669">
        <ele>926.3</ele>
        <time>2023-05-18T11:26:59Z</time>
      </trkpt>
      <trkpt lat="47.85789" lon="7.14685">
        <ele>923.8</ele>
        <time>2023-05-18T11:27:06Z</time>
      </trkpt>
      <trkpt lat="47.85787" lon="7.1469">
        <ele>922.7</ele>
        <time>2023-05-18T11:27:09Z</time>
      </trkpt>
      <trkpt lat="47.85782" lon="7.14694">
        <ele>921.5</ele>
        <time>2023-05-18T11:27:11Z</time>
      </trkpt>
      <trkpt lat="47.85772" lon="7.14694">
        <ele>920.2</ele>
        <time>2023-05-18T11:27:18Z</time>
      </trkpt>
      <trkpt lat="47.85768" lon="7.14696">
        <ele>919.4</ele>
        <time>2023-05-18T11:27:21Z</time>
      </trkpt>
      <trkpt lat="47.85764" lon="7.14696">
        <ele>918.8</ele>
        <time>2023-05-18T11:27:24Z</time>
      </trkpt>
      <trkpt lat="47.85745" lon="7.14702">
        <ele>915.3</ele>
        <time>2023-05-18T11:27:40Z</time>
      </trkpt>
      <trkpt lat="47.85736" lon="7.14709">
        <ele>913.1</ele>
        <time>2023-05-18T11:27:47Z</time>
      </trkpt>
      <trkpt lat="47.85726" lon="7.14711">
        <ele>911.5</ele>
        <time>2023-05-18T11:27:54Z</time>
      </trkpt>
      <trkpt lat="47.85721" lon="7.14714">
        <ele>910.3</ele>
        <time>2023-05-18T11:27:59Z</time>
      </trkpt>
      <trkpt lat="47.85722" lon="7.14722">
        <ele>909</ele>
        <time>2023-05-18T11:28:09Z</time>
      </trkpt>
      <trkpt lat="47.85731" lon="7.14729">
        <ele>909.3</ele>
        <time>2023-05-18T11:28:18Z</time>
      </trkpt>
      <trkpt lat="47.85742" lon="7.14744">
        <ele>908.7</ele>
        <time>2023-05-18T11:28:30Z</time>
      </trkpt>
      <trkpt lat="47.85746" lon="7.14749">
        <ele>908.6</ele>
        <time>2023-05-18T11:28:33Z</time>
      </trkpt>
      <trkpt lat="47.85749" lon="7.14754">
        <ele>908.3</ele>
        <time>2023-05-18T11:28:37Z</time>
      </trkpt>
      <trkpt lat="47.85755" lon="7.14774">
        <ele>906.4</ele>
        <time>2023-05-18T11:28:49Z</time>
      </trkpt>
      <trkpt lat="47.85782" lon="7.1481">
        <ele>905.3</ele>
        <time>2023-05-18T11:29:20Z</time>
      </trkpt>
      <trkpt lat="47.85789" lon="7.14821">
        <ele>905.4</ele>
        <time>2023-05-18T11:29:27Z</time>
      </trkpt>
      <trkpt lat="47.85791" lon="7.14827">
        <ele>905.1</ele>
        <time>2023-05-18T11:29:30Z</time>
      </trkpt>
      <trkpt lat="47.85791" lon="7.14834">
        <ele>904.3</ele>
        <time>2023-05-18T11:29:33Z</time>
      </trkpt>
      <trkpt lat="47.8579" lon="7.14841">
        <ele>903.6</ele>
        <time>2023-05-18T11:29:36Z</time>
      </trkpt>
      <trkpt lat="47.85782" lon="7.14857">
        <ele>901.5</ele>
        <time>2023-05-18T11:29:54Z</time>
      </trkpt>
      <trkpt lat="47.85777" lon="7.14858">
        <ele>900.9</ele>
        <time>2023-05-18T11:29:57Z</time>
      </trkpt>
      <trkpt lat="47.85772" lon="7.14857">
        <ele>900</ele>
        <time>2023-05-18T11:30:00Z</time>
      </trkpt>
      <trkpt lat="47.85772" lon="7.14865">
        <ele>899.8</ele>
        <time>2023-05-18T11:30:11Z</time>
      </trkpt>
      <trkpt lat="47.85782" lon="7.14873">
        <ele>901.1</ele>
        <time>2023-05-18T11:30:22Z</time>
      </trkpt>
      <trkpt lat="47.8579" lon="7.1489">
        <ele>901.7</ele>
        <time>2023-05-18T11:30:32Z</time>
      </trkpt>
      <trkpt lat="47.85798" lon="7.14905">
        <ele>901.8</ele>
        <time>2023-05-18T11:30:43Z</time>
      </trkpt>
      <trkpt lat="47.85801" lon="7.14908">
        <ele>902</ele>
        <time>2023-05-18T11:30:46Z</time>
      </trkpt>
      <trkpt lat="47.85804" lon="7.14932">
        <ele>901.1</ele>
        <time>2023-05-18T11:31:00Z</time>
      </trkpt>
      <trkpt lat="47.85805" lon="7.14939">
        <ele>901.1</ele>
        <time>2023-05-18T11:31:05Z</time>
      </trkpt>
      <trkpt lat="47.85808" lon="7.14943">
        <ele>901.5</ele>
        <time>2023-05-18T11:31:09Z</time>
      </trkpt>
      <trkpt lat="47.85813" lon="7.14957">
        <ele>901.9</ele>
        <time>2023-05-18T11:31:17Z</time>
      </trkpt>
      <trkpt lat="47.85813" lon="7.14964">
        <ele>901.6</ele>
        <time>2023-05-18T11:31:21Z</time>
      </trkpt>
      <trkpt lat="47.85815" lon="7.14971">
        <ele>901.7</ele>
        <time>2023-05-18T11:31:24Z</time>
      </trkpt>
      <trkpt lat="47.85815" lon="7.14978">
        <ele>901.4</ele>
        <time>2023-05-18T11:31:28Z</time>
      </trkpt>
      <trkpt lat="47.85817" lon="7.14988">
        <ele>901.2</ele>
        <time>2023-05-18T11:31:34Z</time>
      </trkpt>
      <trkpt lat="47.8582" lon="7.14995">
        <ele>901.4</ele>
        <time>2023-05-18T11:31:39Z</time>
      </trkpt>
      <trkpt lat="47.85821" lon="7.15001">
        <ele>901.2</ele>
        <time>2023-05-18T11:31:42Z</time>
      </trkpt>
      <trkpt lat="47.85822" lon="7.15007">
        <ele>900.9</ele>
        <time>2023-05-18T11:31:46Z</time>
      </trkpt>
      <trkpt lat="47.85825" lon="7.15015">
        <ele>901</ele>
        <time>2023-05-18T11:31:51Z</time>
      </trkpt>
      <trkpt lat="47.85829" lon="7.15021">
        <ele>901.4</ele>
        <time>2023-05-18T11:31:55Z</time>
      </trkpt>
      <trkpt lat="47.85833" lon="7.15026">
        <ele>902</ele>
        <time>2023-05-18T11:31:59Z</time>
      </trkpt>
      <trkpt lat="47.85837" lon="7.15039">
        <ele>902</ele>
        <time>2023-05-18T11:32:06Z</time>
      </trkpt>
      <trkpt lat="47.85839" lon="7.15045">
        <ele>902.1</ele>
        <time>2023-05-18T11:32:10Z</time>
      </trkpt>
      <trkpt lat="47.8584" lon="7.15054">
        <ele>901.8</ele>
        <time>2023-05-18T11:32:16Z</time>
      </trkpt>
      <trkpt lat="47.85843" lon="7.15061">
        <ele>902</ele>
        <time>2023-05-18T11:32:20Z</time>
      </trkpt>
      <trkpt lat="47.85847" lon="7.15064">
        <ele>902.8</ele>
        <time>2023-05-18T11:32:24Z</time>
      </trkpt>
      <trkpt lat="47.85856" lon="7.15071">
        <ele>904.6</ele>
        <time>2023-05-18T11:32:34Z</time>
      </trkpt>
      <trkpt lat="47.85861" lon="7.15073">
        <ele>905.7</ele>
        <time>2023-05-18T11:32:39Z</time>
      </trkpt>
      <trkpt lat="47.85868" lon="7.15071">
        <ele>906</ele>
        <time>2023-05-18T11:32:50Z</time>
      </trkpt>
      <trkpt lat="47.85873" lon="7.1507">
        <ele>906.2</ele>
        <time>2023-05-18T11:32:54Z</time>
      </trkpt>
      <trkpt lat="47.85876" lon="7.15067">
        <ele>906.5</ele>
        <time>2023-05-18T11:33:02Z</time>
      </trkpt>
      <trkpt lat="47.85894" lon="7.15105">
        <ele>901.7</ele>
        <time>2023-05-18T11:38:18Z</time>
      </trkpt>
      <trkpt lat="47.85893" lon="7.15107">
        <ele>901.4</ele>
        <time>2023-05-18T11:38:19Z</time>
      </trkpt>
      <trkpt lat="47.85899" lon="7.15125">
        <ele>899.1</ele>
        <time>2023-05-18T11:38:31Z</time>
      </trkpt>
      <trkpt lat="47.85901" lon="7.15131">
        <ele>898.4</ele>
        <time>2023-05-18T11:38:35Z</time>
      </trkpt>
      <trkpt lat="47.85907" lon="7.15153">
        <ele>895.6</ele>
        <time>2023-05-18T11:38:51Z</time>
      </trkpt>
      <trkpt lat="47.85908" lon="7.15171">
        <ele>893.5</ele>
        <time>2023-05-18T11:39:03Z</time>
      </trkpt>
      <trkpt lat="47.8591" lon="7.15177">
        <ele>892.9</ele>
        <time>2023-05-18T11:39:07Z</time>
      </trkpt>
      <trkpt lat="47.85914" lon="7.15213">
        <ele>888.3</ele>
        <time>2023-05-18T11:39:31Z</time>
      </trkpt>
      <trkpt lat="47.85917" lon="7.15219">
        <ele>887.5</ele>
        <time>2023-05-18T11:39:35Z</time>
      </trkpt>
      <trkpt lat="47.85919" lon="7.15235">
        <ele>885.1</ele>
        <time>2023-05-18T11:39:45Z</time>
      </trkpt>
      <trkpt lat="47.85921" lon="7.15242">
        <ele>884.1</ele>
        <time>2023-05-18T11:39:50Z</time>
      </trkpt>
      <trkpt lat="47.8592" lon="7.15248">
        <ele>883.3</ele>
        <time>2023-05-18T11:39:54Z</time>
      </trkpt>
      <trkpt lat="47.85923" lon="7.15255">
        <ele>882.3</ele>
        <time>2023-05-18T11:39:59Z</time>
      </trkpt>
      <trkpt lat="47.85928" lon="7.15254">
        <ele>882.5</ele>
        <time>2023-05-18T11:40:03Z</time>
      </trkpt>
      <trkpt lat="47.85931" lon="7.15261">
        <ele>881.6</ele>
        <time>2023-05-18T11:40:08Z</time>
      </trkpt>
      <trkpt lat="47.85941" lon="7.15263">
        <ele>881.5</ele>
        <time>2023-05-18T11:40:15Z</time>
      </trkpt>
      <trkpt lat="47.85945" lon="7.15267">
        <ele>881.2</ele>
        <time>2023-05-18T11:40:19Z</time>
      </trkpt>
      <trkpt lat="47.85958" lon="7.1528">
        <ele>881.4</ele>
        <time>2023-05-18T11:40:30Z</time>
      </trkpt>
      <trkpt lat="47.85963" lon="7.15282">
        <ele>881.9</ele>
        <time>2023-05-18T11:40:35Z</time>
      </trkpt>
      <trkpt lat="47.85972" lon="7.15274">
        <ele>883</ele>
        <time>2023-05-18T11:40:43Z</time>
      </trkpt>
      <trkpt lat="47.85976" lon="7.15271">
        <ele>883.2</ele>
        <time>2023-05-18T11:40:47Z</time>
      </trkpt>
      <trkpt lat="47.8598" lon="7.15268">
        <ele>883.5</ele>
        <time>2023-05-18T11:40:51Z</time>
      </trkpt>
      <trkpt lat="47.85988" lon="7.15265">
        <ele>883.9</ele>
        <time>2023-05-18T11:41:01Z</time>
      </trkpt>
      <trkpt lat="47.86004" lon="7.15295">
        <ele>886</ele>
        <time>2023-05-18T11:41:22Z</time>
      </trkpt>
      <trkpt lat="47.86005" lon="7.15302">
        <ele>886.4</ele>
        <time>2023-05-18T11:41:25Z</time>
      </trkpt>
      <trkpt lat="47.8601" lon="7.15307">
        <ele>887.2</ele>
        <time>2023-05-18T11:41:29Z</time>
      </trkpt>
      <trkpt lat="47.86023" lon="7.1534">
        <ele>890.5</ele>
        <time>2023-05-18T11:41:53Z</time>
      </trkpt>
      <trkpt lat="47.86027" lon="7.15349">
        <ele>891.4</ele>
        <time>2023-05-18T11:42:01Z</time>
      </trkpt>
      <trkpt lat="47.86032" lon="7.15355">
        <ele>892.4</ele>
        <time>2023-05-18T11:42:09Z</time>
      </trkpt>
      <trkpt lat="47.86036" lon="7.15351">
        <ele>892.8</ele>
        <time>2023-05-18T11:42:24Z</time>
      </trkpt>
      <trkpt lat="47.86039" lon="7.15357">
        <ele>893.7</ele>
        <time>2023-05-18T11:42:27Z</time>
      </trkpt>
      <trkpt lat="47.8604" lon="7.15365">
        <ele>894.3</ele>
        <time>2023-05-18T11:42:42Z</time>
      </trkpt>
      <trkpt lat="47.86031" lon="7.15367">
        <ele>892.8</ele>
        <time>2023-05-18T11:42:53Z</time>
      </trkpt>
      <trkpt lat="47.86032" lon="7.15372">
        <ele>893.2</ele>
        <time>2023-05-18T11:43:15Z</time>
      </trkpt>
      <trkpt lat="47.86038" lon="7.15374">
        <ele>894.3</ele>
        <time>2023-05-18T11:43:19Z</time>
      </trkpt>
      <trkpt lat="47.86042" lon="7.15383">
        <ele>895.3</ele>
        <time>2023-05-18T11:43:32Z</time>
      </trkpt>
      <trkpt lat="47.86043" lon="7.15389">
        <ele>895.7</ele>
        <time>2023-05-18T11:43:37Z</time>
      </trkpt>
      <trkpt lat="47.86048" lon="7.15398">
        <ele>896.6</ele>
        <time>2023-05-18T11:43:49Z</time>
      </trkpt>
      <trkpt lat="47.86046" lon="7.15406">
        <ele>896.3</ele>
        <time>2023-05-18T11:43:53Z</time>
      </trkpt>
      <trkpt lat="47.86045" lon="7.15413">
        <ele>896.1</ele>
        <time>2023-05-18T11:43:57Z</time>
      </trkpt>
      <trkpt lat="47.86045" lon="7.15421">
        <ele>896</ele>
        <time>2023-05-18T11:44:02Z</time>
      </trkpt>
      <trkpt lat="47.86049" lon="7.15425">
        <ele>896.6</ele>
        <time>2023-05-18T11:44:07Z</time>
      </trkpt>
      <trkpt lat="47.86056" lon="7.15439">
        <ele>897.2</ele>
        <time>2023-05-18T11:44:19Z</time>
      </trkpt>
      <trkpt lat="47.86061" lon="7.15446">
        <ele>897.5</ele>
        <time>2023-05-18T11:44:25Z</time>
      </trkpt>
      <trkpt lat="47.86061" lon="7.15454">
        <ele>897.8</ele>
        <time>2023-05-18T11:44:30Z</time>
      </trkpt>
      <trkpt lat="47.86067" lon="7.15465">
        <ele>898.9</ele>
        <time>2023-05-18T11:44:38Z</time>
      </trkpt>
      <trkpt lat="47.86068" lon="7.15471">
        <ele>899.3</ele>
        <time>2023-05-18T11:44:42Z</time>
      </trkpt>
      <trkpt lat="47.86069" lon="7.15478">
        <ele>899.5</ele>
        <time>2023-05-18T11:44:46Z</time>
      </trkpt>
      <trkpt lat="47.86065" lon="7.15498">
        <ele>899</ele>
        <time>2023-05-18T11:44:57Z</time>
      </trkpt>
      <trkpt lat="47.86066" lon="7.15504">
        <ele>899.1</ele>
        <time>2023-05-18T11:45:01Z</time>
      </trkpt>
      <trkpt lat="47.86066" lon="7.15515">
        <ele>899.1</ele>
        <time>2023-05-18T11:45:10Z</time>
      </trkpt>
      <trkpt lat="47.86067" lon="7.15522">
        <ele>899.2</ele>
        <time>2023-05-18T11:45:15Z</time>
      </trkpt>
      <trkpt lat="47.86069" lon="7.15531">
        <ele>899.5</ele>
        <time>2023-05-18T11:45:21Z</time>
      </trkpt>
      <trkpt lat="47.86068" lon="7.15538">
        <ele>899.3</ele>
        <time>2023-05-18T11:45:25Z</time>
      </trkpt>
      <trkpt lat="47.86065" lon="7.15545">
        <ele>899</ele>
        <time>2023-05-18T11:45:28Z</time>
      </trkpt>
      <trkpt lat="47.86066" lon="7.15551">
        <ele>899.1</ele>
        <time>2023-05-18T11:45:32Z</time>
      </trkpt>
      <trkpt lat="47.86064" lon="7.15557">
        <ele>899</ele>
        <time>2023-05-18T11:45:36Z</time>
      </trkpt>
      <trkpt lat="47.86078" lon="7.15577">
        <ele>901.3</ele>
        <time>2023-05-18T11:46:00Z</time>
      </trkpt>
      <trkpt lat="47.86081" lon="7.15583">
        <ele>901.8</ele>
        <time>2023-05-18T11:46:05Z</time>
      </trkpt>
      <trkpt lat="47.86087" lon="7.15604">
        <ele>902.3</ele>
        <time>2023-05-18T11:46:17Z</time>
      </trkpt>
      <trkpt lat="47.86088" lon="7.15612">
        <ele>902.6</ele>
        <time>2023-05-18T11:46:21Z</time>
      </trkpt>
      <trkpt lat="47.86086" lon="7.1562">
        <ele>903.4</ele>
        <time>2023-05-18T11:46:24Z</time>
      </trkpt>
      <trkpt lat="47.86086" lon="7.15627">
        <ele>903.9</ele>
        <time>2023-05-18T11:46:28Z</time>
      </trkpt>
      <trkpt lat="47.86089" lon="7.15632">
        <ele>904</ele>
        <time>2023-05-18T11:46:33Z</time>
      </trkpt>
      <trkpt lat="47.86098" lon="7.15634">
        <ele>903.5</ele>
        <time>2023-05-18T11:46:44Z</time>
      </trkpt>
      <trkpt lat="47.86103" lon="7.15638">
        <ele>903.5</ele>
        <time>2023-05-18T11:46:47Z</time>
      </trkpt>
      <trkpt lat="47.86109" lon="7.1565">
        <ele>904.7</ele>
        <time>2023-05-18T11:46:53Z</time>
      </trkpt>
      <trkpt lat="47.86107" lon="7.15658">
        <ele>905.9</ele>
        <time>2023-05-18T11:46:56Z</time>
      </trkpt>
      <trkpt lat="47.86125" lon="7.15675">
        <ele>906.3</ele>
        <time>2023-05-18T11:47:19Z</time>
      </trkpt>
      <trkpt lat="47.86131" lon="7.15679">
        <ele>906.1</ele>
        <time>2023-05-18T11:47:27Z</time>
      </trkpt>
      <trkpt lat="47.86132" lon="7.15686">
        <ele>907.4</ele>
        <time>2023-05-18T11:47:31Z</time>
      </trkpt>
      <trkpt lat="47.86146" lon="7.157">
        <ele>907.6</ele>
        <time>2023-05-18T11:47:52Z</time>
      </trkpt>
      <trkpt lat="47.86148" lon="7.15707">
        <ele>908</ele>
        <time>2023-05-18T11:48:11Z</time>
      </trkpt>
      <trkpt lat="47.86149" lon="7.15715">
        <ele>908.7</ele>
        <time>2023-05-18T11:48:29Z</time>
      </trkpt>
      <trkpt lat="47.8615" lon="7.15724">
        <ele>909.1</ele>
        <time>2023-05-18T11:48:41Z</time>
      </trkpt>
      <trkpt lat="47.86138" lon="7.15721">
        <ele>914.8</ele>
        <time>2023-05-18T11:48:54Z</time>
      </trkpt>
      <trkpt lat="47.86132" lon="7.15725">
        <ele>915.9</ele>
        <time>2023-05-18T11:49:01Z</time>
      </trkpt>
      <trkpt lat="47.86125" lon="7.15723">
        <ele>916.6</ele>
        <time>2023-05-18T11:49:11Z</time>
      </trkpt>
      <trkpt lat="47.86121" lon="7.1572">
        <ele>916.5</ele>
        <time>2023-05-18T11:49:16Z</time>
      </trkpt>
      <trkpt lat="47.86117" lon="7.15717">
        <ele>916.3</ele>
        <time>2023-05-18T11:49:20Z</time>
      </trkpt>
      <trkpt lat="47.86114" lon="7.15712">
        <ele>915.8</ele>
        <time>2023-05-18T11:49:25Z</time>
      </trkpt>
      <trkpt lat="47.86105" lon="7.15719">
        <ele>917</ele>
        <time>2023-05-18T11:49:37Z</time>
      </trkpt>
      <trkpt lat="47.86107" lon="7.15729">
        <ele>918.9</ele>
        <time>2023-05-18T11:49:48Z</time>
      </trkpt>
      <trkpt lat="47.86109" lon="7.15745">
        <ele>921.9</ele>
        <time>2023-05-18T11:50:02Z</time>
      </trkpt>
      <trkpt lat="47.86104" lon="7.15769">
        <ele>925.2</ele>
        <time>2023-05-18T11:50:25Z</time>
      </trkpt>
      <trkpt lat="47.86102" lon="7.1578">
        <ele>926.6</ele>
        <time>2023-05-18T11:50:33Z</time>
      </trkpt>
      <trkpt lat="47.86105" lon="7.15801">
        <ele>929.3</ele>
        <time>2023-05-18T11:50:55Z</time>
      </trkpt>
      <trkpt lat="47.86103" lon="7.15807">
        <ele>929.9</ele>
        <time>2023-05-18T11:51:00Z</time>
      </trkpt>
      <trkpt lat="47.86105" lon="7.15815">
        <ele>930.9</ele>
        <time>2023-05-18T11:51:07Z</time>
      </trkpt>
      <trkpt lat="47.86107" lon="7.15827">
        <ele>932.4</ele>
        <time>2023-05-18T11:51:19Z</time>
      </trkpt>
      <trkpt lat="47.86106" lon="7.15834">
        <ele>933.3</ele>
        <time>2023-05-18T11:51:25Z</time>
      </trkpt>
      <trkpt lat="47.86104" lon="7.15844">
        <ele>934.5</ele>
        <time>2023-05-18T11:51:35Z</time>
      </trkpt>
      <trkpt lat="47.86102" lon="7.15858">
        <ele>936.3</ele>
        <time>2023-05-18T11:51:45Z</time>
      </trkpt>
      <trkpt lat="47.86108" lon="7.15864">
        <ele>936.5</ele>
        <time>2023-05-18T11:51:52Z</time>
      </trkpt>
      <trkpt lat="47.86109" lon="7.1587">
        <ele>937.1</ele>
        <time>2023-05-18T11:51:56Z</time>
      </trkpt>
      <trkpt lat="47.86111" lon="7.15877">
        <ele>937.7</ele>
        <time>2023-05-18T11:52:04Z</time>
      </trkpt>
      <trkpt lat="47.86113" lon="7.15883">
        <ele>937.9</ele>
        <time>2023-05-18T11:52:09Z</time>
      </trkpt>
      <trkpt lat="47.86116" lon="7.159">
        <ele>939.1</ele>
        <time>2023-05-18T11:52:23Z</time>
      </trkpt>
      <trkpt lat="47.86119" lon="7.15912">
        <ele>939.8</ele>
        <time>2023-05-18T11:52:32Z</time>
      </trkpt>
      <trkpt lat="47.86124" lon="7.15912">
        <ele>938.7</ele>
        <time>2023-05-18T11:52:38Z</time>
      </trkpt>
      <trkpt lat="47.86129" lon="7.15896">
        <ele>935.9</ele>
        <time>2023-05-18T11:52:50Z</time>
      </trkpt>
      <trkpt lat="47.86133" lon="7.15893">
        <ele>934.7</ele>
        <time>2023-05-18T11:53:03Z</time>
      </trkpt>
      <trkpt lat="47.86138" lon="7.15901">
        <ele>934.5</ele>
        <time>2023-05-18T11:53:12Z</time>
      </trkpt>
      <trkpt lat="47.86144" lon="7.1591">
        <ele>933.6</ele>
        <time>2023-05-18T11:53:20Z</time>
      </trkpt>
      <trkpt lat="47.86142" lon="7.15916">
        <ele>934.9</ele>
        <time>2023-05-18T11:53:24Z</time>
      </trkpt>
      <trkpt lat="47.86144" lon="7.15924">
        <ele>935</ele>
        <time>2023-05-18T11:53:29Z</time>
      </trkpt>
      <trkpt lat="47.86148" lon="7.15927">
        <ele>934</ele>
        <time>2023-05-18T11:53:34Z</time>
      </trkpt>
      <trkpt lat="47.86148" lon="7.15935">
        <ele>934.8</ele>
        <time>2023-05-18T11:53:38Z</time>
      </trkpt>
      <trkpt lat="47.86149" lon="7.15944">
        <ele>935.4</ele>
        <time>2023-05-18T11:53:43Z</time>
      </trkpt>
      <trkpt lat="47.86155" lon="7.15957">
        <ele>935.3</ele>
        <time>2023-05-18T11:53:52Z</time>
      </trkpt>
      <trkpt lat="47.86156" lon="7.15963">
        <ele>935.7</ele>
        <time>2023-05-18T11:54:00Z</time>
      </trkpt>
      <trkpt lat="47.8616" lon="7.15969">
        <ele>935.3</ele>
        <time>2023-05-18T11:54:12Z</time>
      </trkpt>
      <trkpt lat="47.86164" lon="7.15973">
        <ele>934.8</ele>
        <time>2023-05-18T11:54:17Z</time>
      </trkpt>
      <trkpt lat="47.86166" lon="7.15981">
        <ele>935.1</ele>
        <time>2023-05-18T11:54:24Z</time>
      </trkpt>
      <trkpt lat="47.86165" lon="7.15994">
        <ele>936.8</ele>
        <time>2023-05-18T11:54:32Z</time>
      </trkpt>
      <trkpt lat="47.86167" lon="7.16001">
        <ele>937</ele>
        <time>2023-05-18T11:54:36Z</time>
      </trkpt>
      <trkpt lat="47.86167" lon="7.1601">
        <ele>937.9</ele>
        <time>2023-05-18T11:54:42Z</time>
      </trkpt>
      <trkpt lat="47.86172" lon="7.16013">
        <ele>936</ele>
        <time>2023-05-18T11:54:48Z</time>
      </trkpt>
      <trkpt lat="47.86172" lon="7.16019">
        <ele>936.6</ele>
        <time>2023-05-18T11:54:53Z</time>
      </trkpt>
      <trkpt lat="47.8617" lon="7.16027">
        <ele>938.4</ele>
        <time>2023-05-18T11:54:59Z</time>
      </trkpt>
      <trkpt lat="47.86171" lon="7.16035">
        <ele>938.5</ele>
        <time>2023-05-18T11:55:08Z</time>
      </trkpt>
      <trkpt lat="47.8617" lon="7.1605">
        <ele>940</ele>
        <time>2023-05-18T11:55:19Z</time>
      </trkpt>
      <trkpt lat="47.86175" lon="7.16055">
        <ele>938.1</ele>
        <time>2023-05-18T11:55:24Z</time>
      </trkpt>
      <trkpt lat="47.86177" lon="7.16059">
        <ele>937.5</ele>
        <time>2023-05-18T11:55:33Z</time>
      </trkpt>
      <trkpt lat="47.86176" lon="7.16066">
        <ele>938.6</ele>
        <time>2023-05-18T11:55:38Z</time>
      </trkpt>
      <trkpt lat="47.86179" lon="7.16077">
        <ele>938.5</ele>
        <time>2023-05-18T11:55:49Z</time>
      </trkpt>
      <trkpt lat="47.86172" lon="7.16086">
        <ele>942.1</ele>
        <time>2023-05-18T11:55:57Z</time>
      </trkpt>
      <trkpt lat="47.86172" lon="7.16096">
        <ele>943.1</ele>
        <time>2023-05-18T11:56:09Z</time>
      </trkpt>
      <trkpt lat="47.8617" lon="7.16103">
        <ele>944.6</ele>
        <time>2023-05-18T11:56:21Z</time>
      </trkpt>
      <trkpt lat="47.86169" lon="7.16113">
        <ele>946</ele>
        <time>2023-05-18T11:57:07Z</time>
      </trkpt>
      <trkpt lat="47.86166" lon="7.16119">
        <ele>947.4</ele>
        <time>2023-05-18T11:57:15Z</time>
      </trkpt>
      <trkpt lat="47.86157" lon="7.16123">
        <ele>948.8</ele>
        <time>2023-05-18T11:57:20Z</time>
      </trkpt>
      <trkpt lat="47.86155" lon="7.1613">
        <ele>949.4</ele>
        <time>2023-05-18T11:57:34Z</time>
      </trkpt>
      <trkpt lat="47.8615" lon="7.16132">
        <ele>950.2</ele>
        <time>2023-05-18T11:57:46Z</time>
      </trkpt>
      <trkpt lat="47.86146" lon="7.16139">
        <ele>951</ele>
        <time>2023-05-18T11:57:58Z</time>
      </trkpt>
      <trkpt lat="47.86144" lon="7.16146">
        <ele>950.8</ele>
        <time>2023-05-18T11:58:03Z</time>
      </trkpt>
      <trkpt lat="47.86138" lon="7.16144">
        <ele>951.6</ele>
        <time>2023-05-18T11:58:09Z</time>
      </trkpt>
      <trkpt lat="47.86135" lon="7.16133">
        <ele>951.9</ele>
        <time>2023-05-18T11:58:23Z</time>
      </trkpt>
      <trkpt lat="47.8613" lon="7.16138">
        <ele>952</ele>
        <time>2023-05-18T11:58:32Z</time>
      </trkpt>
      <trkpt lat="47.86131" lon="7.16146">
        <ele>951.5</ele>
        <time>2023-05-18T11:58:44Z</time>
      </trkpt>
      <trkpt lat="47.86128" lon="7.16152">
        <ele>951.1</ele>
        <time>2023-05-18T11:58:49Z</time>
      </trkpt>
      <trkpt lat="47.86126" lon="7.16158">
        <ele>950.6</ele>
        <time>2023-05-18T11:58:53Z</time>
      </trkpt>
      <trkpt lat="47.86122" lon="7.16167">
        <ele>950</ele>
        <time>2023-05-18T11:59:06Z</time>
      </trkpt>
      <trkpt lat="47.86124" lon="7.16174">
        <ele>949.1</ele>
        <time>2023-05-18T11:59:12Z</time>
      </trkpt>
      <trkpt lat="47.86128" lon="7.16183">
        <ele>947.9</ele>
        <time>2023-05-18T11:59:22Z</time>
      </trkpt>
      <trkpt lat="47.86127" lon="7.1619">
        <ele>947</ele>
        <time>2023-05-18T11:59:29Z</time>
      </trkpt>
      <trkpt lat="47.86122" lon="7.16192">
        <ele>946.9</ele>
        <time>2023-05-18T11:59:33Z</time>
      </trkpt>
      <trkpt lat="47.8612" lon="7.16198">
        <ele>946</ele>
        <time>2023-05-18T11:59:37Z</time>
      </trkpt>
      <trkpt lat="47.86112" lon="7.16201">
        <ele>945.8</ele>
        <time>2023-05-18T11:59:47Z</time>
      </trkpt>
      <trkpt lat="47.86108" lon="7.16205">
        <ele>945.3</ele>
        <time>2023-05-18T11:59:51Z</time>
      </trkpt>
      <trkpt lat="47.86103" lon="7.1621">
        <ele>944.8</ele>
        <time>2023-05-18T11:59:55Z</time>
      </trkpt>
      <trkpt lat="47.86096" lon="7.16211">
        <ele>945.2</ele>
        <time>2023-05-18T12:00:03Z</time>
      </trkpt>
      <trkpt lat="47.86091" lon="7.16216">
        <ele>945</ele>
        <time>2023-05-18T12:00:13Z</time>
      </trkpt>
      <trkpt lat="47.86087" lon="7.16214">
        <ele>945.6</ele>
        <time>2023-05-18T12:00:16Z</time>
      </trkpt>
      <trkpt lat="47.8608" lon="7.16208">
        <ele>946.5</ele>
        <time>2023-05-18T12:00:30Z</time>
      </trkpt>
      <trkpt lat="47.86077" lon="7.16203">
        <ele>947</ele>
        <time>2023-05-18T12:00:37Z</time>
      </trkpt>
      <trkpt lat="47.86078" lon="7.16196">
        <ele>947.7</ele>
        <time>2023-05-18T12:00:42Z</time>
      </trkpt>
      <trkpt lat="47.86073" lon="7.16192">
        <ele>947.9</ele>
        <time>2023-05-18T12:00:54Z</time>
      </trkpt>
      <trkpt lat="47.86071" lon="7.16198">
        <ele>947.3</ele>
        <time>2023-05-18T12:01:01Z</time>
      </trkpt>
      <trkpt lat="47.86064" lon="7.16205">
        <ele>946.7</ele>
        <time>2023-05-18T12:01:12Z</time>
      </trkpt>
      <trkpt lat="47.86066" lon="7.16214">
        <ele>946.1</ele>
        <time>2023-05-18T12:01:19Z</time>
      </trkpt>
      <trkpt lat="47.86069" lon="7.16221">
        <ele>945.6</ele>
        <time>2023-05-18T12:01:24Z</time>
      </trkpt>
      <trkpt lat="47.86069" lon="7.16229">
        <ele>944.7</ele>
        <time>2023-05-18T12:01:31Z</time>
      </trkpt>
      <trkpt lat="47.86064" lon="7.16234">
        <ele>944.5</ele>
        <time>2023-05-18T12:01:33Z</time>
      </trkpt>
      <trkpt lat="47.86061" lon="7.16239">
        <ele>944.2</ele>
        <time>2023-05-18T12:01:37Z</time>
      </trkpt>
      <trkpt lat="47.86056" lon="7.16244">
        <ele>944.4</ele>
        <time>2023-05-18T12:01:42Z</time>
      </trkpt>
      <trkpt lat="47.86052" lon="7.16243">
        <ele>944.3</ele>
        <time>2023-05-18T12:01:46Z</time>
      </trkpt>
      <trkpt lat="47.86045" lon="7.16245">
        <ele>943.9</ele>
        <time>2023-05-18T12:01:56Z</time>
      </trkpt>
      <trkpt lat="47.86041" lon="7.16245">
        <ele>943.7</ele>
        <time>2023-05-18T12:02:02Z</time>
      </trkpt>
      <trkpt lat="47.86033" lon="7.16247">
        <ele>943.3</ele>
        <time>2023-05-18T12:02:12Z</time>
      </trkpt>
      <trkpt lat="47.86029" lon="7.16249">
        <ele>943.1</ele>
        <time>2023-05-18T12:02:16Z</time>
      </trkpt>
      <trkpt lat="47.86027" lon="7.16255">
        <ele>942.4</ele>
        <time>2023-05-18T12:02:21Z</time>
      </trkpt>
      <trkpt lat="47.86017" lon="7.163">
        <ele>936.6</ele>
        <time>2023-05-18T12:02:57Z</time>
      </trkpt>
      <trkpt lat="47.86014" lon="7.16305">
        <ele>936.1</ele>
        <time>2023-05-18T12:03:01Z</time>
      </trkpt>
      <trkpt lat="47.86007" lon="7.16312">
        <ele>935.7</ele>
        <time>2023-05-18T12:03:11Z</time>
      </trkpt>
      <trkpt lat="47.86002" lon="7.16314">
        <ele>935.7</ele>
        <time>2023-05-18T12:03:16Z</time>
      </trkpt>
      <trkpt lat="47.85995" lon="7.16311">
        <ele>935.1</ele>
        <time>2023-05-18T12:03:23Z</time>
      </trkpt>
      <trkpt lat="47.8599" lon="7.16311">
        <ele>934.4</ele>
        <time>2023-05-18T12:03:28Z</time>
      </trkpt>
      <trkpt lat="47.85985" lon="7.16317">
        <ele>933.4</ele>
        <time>2023-05-18T12:03:35Z</time>
      </trkpt>
      <trkpt lat="47.85975" lon="7.16317">
        <ele>932</ele>
        <time>2023-05-18T12:03:45Z</time>
      </trkpt>
      <trkpt lat="47.8597" lon="7.16321">
        <ele>931</ele>
        <time>2023-05-18T12:03:53Z</time>
      </trkpt>
      <trkpt lat="47.85968" lon="7.16328">
        <ele>930.4</ele>
        <time>2023-05-18T12:04:02Z</time>
      </trkpt>
      <trkpt lat="47.85973" lon="7.16328">
        <ele>931.3</ele>
        <time>2023-05-18T12:04:08Z</time>
      </trkpt>
      <trkpt lat="47.85977" lon="7.16333">
        <ele>931.7</ele>
        <time>2023-05-18T12:04:32Z</time>
      </trkpt>
      <trkpt lat="47.85982" lon="7.16333">
        <ele>932.4</ele>
        <time>2023-05-18T12:04:38Z</time>
      </trkpt>
      <trkpt lat="47.85986" lon="7.16339">
        <ele>932.8</ele>
        <time>2023-05-18T12:04:44Z</time>
      </trkpt>
      <trkpt lat="47.85988" lon="7.16346">
        <ele>932.7</ele>
        <time>2023-05-18T12:04:49Z</time>
      </trkpt>
      <trkpt lat="47.85988" lon="7.16352">
        <ele>932.4</ele>
        <time>2023-05-18T12:04:53Z</time>
      </trkpt>
      <trkpt lat="47.8599" lon="7.16359">
        <ele>932.1</ele>
        <time>2023-05-18T12:04:58Z</time>
      </trkpt>
      <trkpt lat="47.85993" lon="7.16364">
        <ele>931.9</ele>
        <time>2023-05-18T12:05:02Z</time>
      </trkpt>
      <trkpt lat="47.85995" lon="7.16369">
        <ele>931.6</ele>
        <time>2023-05-18T12:05:06Z</time>
      </trkpt>
      <trkpt lat="47.85997" lon="7.1638">
        <ele>930.9</ele>
        <time>2023-05-18T12:05:16Z</time>
      </trkpt>
      <trkpt lat="47.85999" lon="7.16393">
        <ele>929.5</ele>
        <time>2023-05-18T12:05:30Z</time>
      </trkpt>
      <trkpt lat="47.86006" lon="7.16399">
        <ele>927.4</ele>
        <time>2023-05-18T12:05:40Z</time>
      </trkpt>
      <trkpt lat="47.86008" lon="7.16405">
        <ele>926.1</ele>
        <time>2023-05-18T12:05:45Z</time>
      </trkpt>
      <trkpt lat="47.86002" lon="7.16408">
        <ele>926.8</ele>
        <time>2023-05-18T12:05:48Z</time>
      </trkpt>
      <trkpt lat="47.85998" lon="7.16408">
        <ele>927.6</ele>
        <time>2023-05-18T12:05:52Z</time>
      </trkpt>
      <trkpt lat="47.85993" lon="7.1641">
        <ele>928.1</ele>
        <time>2023-05-18T12:06:00Z</time>
      </trkpt>
      <trkpt lat="47.85988" lon="7.16407">
        <ele>929.3</ele>
        <time>2023-05-18T12:06:06Z</time>
      </trkpt>
      <trkpt lat="47.85983" lon="7.16408">
        <ele>929.9</ele>
        <time>2023-05-18T12:06:14Z</time>
      </trkpt>
      <trkpt lat="47.85982" lon="7.16414">
        <ele>929.5</ele>
        <time>2023-05-18T12:06:20Z</time>
      </trkpt>
      <trkpt lat="47.85983" lon="7.16422">
        <ele>928.3</ele>
        <time>2023-05-18T12:06:38Z</time>
      </trkpt>
      <trkpt lat="47.85986" lon="7.16427">
        <ele>927</ele>
        <time>2023-05-18T12:06:43Z</time>
      </trkpt>
      <trkpt lat="47.85986" lon="7.16435">
        <ele>925.9</ele>
        <time>2023-05-18T12:06:51Z</time>
      </trkpt>
      <trkpt lat="47.85987" lon="7.16443">
        <ele>924.5</ele>
        <time>2023-05-18T12:06:55Z</time>
      </trkpt>
      <trkpt lat="47.85983" lon="7.16455">
        <ele>923.5</ele>
        <time>2023-05-18T12:07:03Z</time>
      </trkpt>
      <trkpt lat="47.85983" lon="7.16469">
        <ele>921.1</ele>
        <time>2023-05-18T12:07:17Z</time>
      </trkpt>
      <trkpt lat="47.85981" lon="7.16476">
        <ele>920.6</ele>
        <time>2023-05-18T12:07:20Z</time>
      </trkpt>
      <trkpt lat="47.85977" lon="7.16482">
        <ele>921.2</ele>
        <time>2023-05-18T12:07:26Z</time>
      </trkpt>
      <trkpt lat="47.85973" lon="7.16493">
        <ele>921.4</ele>
        <time>2023-05-18T12:07:37Z</time>
      </trkpt>
      <trkpt lat="47.8597" lon="7.16497">
        <ele>921.6</ele>
        <time>2023-05-18T12:07:43Z</time>
      </trkpt>
      <trkpt lat="47.85966" lon="7.165">
        <ele>921.9</ele>
        <time>2023-05-18T12:07:50Z</time>
      </trkpt>
      <trkpt lat="47.85963" lon="7.16506">
        <ele>922.1</ele>
        <time>2023-05-18T12:08:02Z</time>
      </trkpt>
      <trkpt lat="47.85964" lon="7.16521">
        <ele>921.4</ele>
        <time>2023-05-18T12:08:13Z</time>
      </trkpt>
      <trkpt lat="47.85963" lon="7.1653">
        <ele>921.3</ele>
        <time>2023-05-18T12:08:20Z</time>
      </trkpt>
      <trkpt lat="47.85962" lon="7.16536">
        <ele>921.3</ele>
        <time>2023-05-18T12:08:24Z</time>
      </trkpt>
      <trkpt lat="47.85964" lon="7.16542">
        <ele>921.1</ele>
        <time>2023-05-18T12:08:29Z</time>
      </trkpt>
      <trkpt lat="47.85959" lon="7.16547">
        <ele>921.3</ele>
        <time>2023-05-18T12:08:36Z</time>
      </trkpt>
      <trkpt lat="47.85965" lon="7.16553">
        <ele>921</ele>
        <time>2023-05-18T12:08:52Z</time>
      </trkpt>
      <trkpt lat="47.85968" lon="7.16557">
        <ele>920.5</ele>
        <time>2023-05-18T12:08:59Z</time>
      </trkpt>
      <trkpt lat="47.85957" lon="7.16516">
        <ele>922.6</ele>
        <time>2023-05-18T12:15:02Z</time>
      </trkpt>
      <trkpt lat="47.85957" lon="7.16514">
        <ele>922.7</ele>
        <time>2023-05-18T12:15:03Z</time>
      </trkpt>
      <trkpt lat="47.85959" lon="7.16503">
        <ele>922.8</ele>
        <time>2023-05-18T12:15:11Z</time>
      </trkpt>
      <trkpt lat="47.8596" lon="7.16492">
        <ele>923.4</ele>
        <time>2023-05-18T12:15:20Z</time>
      </trkpt>
      <trkpt lat="47.85963" lon="7.16481">
        <ele>923.9</ele>
        <time>2023-05-18T12:15:32Z</time>
      </trkpt>
      <trkpt lat="47.85965" lon="7.16474">
        <ele>924.4</ele>
        <time>2023-05-18T12:15:39Z</time>
      </trkpt>
      <trkpt lat="47.85963" lon="7.16468">
        <ele>924.9</ele>
        <time>2023-05-18T12:15:45Z</time>
      </trkpt>
      <trkpt lat="47.85962" lon="7.16459">
        <ele>925.4</ele>
        <time>2023-05-18T12:15:51Z</time>
      </trkpt>
      <trkpt lat="47.85965" lon="7.16451">
        <ele>926.2</ele>
        <time>2023-05-18T12:15:56Z</time>
      </trkpt>
      <trkpt lat="47.85963" lon="7.16443">
        <ele>926.5</ele>
        <time>2023-05-18T12:16:03Z</time>
      </trkpt>
      <trkpt lat="47.85966" lon="7.16438">
        <ele>927.5</ele>
        <time>2023-05-18T12:16:08Z</time>
      </trkpt>
      <trkpt lat="47.85969" lon="7.16426">
        <ele>929.3</ele>
        <time>2023-05-18T12:16:18Z</time>
      </trkpt>
      <trkpt lat="47.85968" lon="7.16418">
        <ele>929.8</ele>
        <time>2023-05-18T12:16:22Z</time>
      </trkpt>
      <trkpt lat="47.85973" lon="7.16403">
        <ele>931.9</ele>
        <time>2023-05-18T12:16:35Z</time>
      </trkpt>
      <trkpt lat="47.85976" lon="7.16396">
        <ele>932</ele>
        <time>2023-05-18T12:16:47Z</time>
      </trkpt>
      <trkpt lat="47.85982" lon="7.16394">
        <ele>931.4</ele>
        <time>2023-05-18T12:16:51Z</time>
      </trkpt>
      <trkpt lat="47.85985" lon="7.16387">
        <ele>931.6</ele>
        <time>2023-05-18T12:16:57Z</time>
      </trkpt>
      <trkpt lat="47.85985" lon="7.16373">
        <ele>931.8</ele>
        <time>2023-05-18T12:17:05Z</time>
      </trkpt>
      <trkpt lat="47.85983" lon="7.16363">
        <ele>932</ele>
        <time>2023-05-18T12:17:13Z</time>
      </trkpt>
      <trkpt lat="47.85983" lon="7.16355">
        <ele>932.1</ele>
        <time>2023-05-18T12:17:22Z</time>
      </trkpt>
      <trkpt lat="47.85972" lon="7.16351">
        <ele>931.6</ele>
        <time>2023-05-18T12:17:35Z</time>
      </trkpt>
      <trkpt lat="47.85965" lon="7.1633">
        <ele>929.8</ele>
        <time>2023-05-18T12:17:54Z</time>
      </trkpt>
      <trkpt lat="47.85965" lon="7.16323">
        <ele>930</ele>
        <time>2023-05-18T12:17:59Z</time>
      </trkpt>
      <trkpt lat="47.85965" lon="7.16317">
        <ele>930.1</ele>
        <time>2023-05-18T12:18:03Z</time>
      </trkpt>
      <trkpt lat="47.85968" lon="7.16312">
        <ele>930.9</ele>
        <time>2023-05-18T12:18:11Z</time>
      </trkpt>
      <trkpt lat="47.85973" lon="7.1631">
        <ele>932</ele>
        <time>2023-05-18T12:18:14Z</time>
      </trkpt>
      <trkpt lat="47.85974" lon="7.163">
        <ele>932.5</ele>
        <time>2023-05-18T12:18:23Z</time>
      </trkpt>
      <trkpt lat="47.85974" lon="7.1629">
        <ele>932.9</ele>
        <time>2023-05-18T12:18:30Z</time>
      </trkpt>
      <trkpt lat="47.85973" lon="7.16283">
        <ele>932.9</ele>
        <time>2023-05-18T12:18:35Z</time>
      </trkpt>
      <trkpt lat="47.85977" lon="7.16269">
        <ele>934.2</ele>
        <time>2023-05-18T12:18:47Z</time>
      </trkpt>
      <trkpt lat="47.85981" lon="7.16264">
        <ele>935.2</ele>
        <time>2023-05-18T12:18:52Z</time>
      </trkpt>
      <trkpt lat="47.85981" lon="7.16258">
        <ele>935.5</ele>
        <time>2023-05-18T12:18:57Z</time>
      </trkpt>
      <trkpt lat="47.85985" lon="7.16253">
        <ele>936.6</ele>
        <time>2023-05-18T12:19:01Z</time>
      </trkpt>
      <trkpt lat="47.85986" lon="7.16245">
        <ele>937.1</ele>
        <time>2023-05-18T12:19:09Z</time>
      </trkpt>
      <trkpt lat="47.85982" lon="7.16232">
        <ele>936.3</ele>
        <time>2023-05-18T12:19:20Z</time>
      </trkpt>
      <trkpt lat="47.85984" lon="7.16222">
        <ele>937</ele>
        <time>2023-05-18T12:19:29Z</time>
      </trkpt>
      <trkpt lat="47.85984" lon="7.1621">
        <ele>937</ele>
        <time>2023-05-18T12:19:38Z</time>
      </trkpt>
      <trkpt lat="47.85986" lon="7.16198">
        <ele>937.5</ele>
        <time>2023-05-18T12:19:46Z</time>
      </trkpt>
      <trkpt lat="47.85986" lon="7.1619">
        <ele>937.4</ele>
        <time>2023-05-18T12:19:55Z</time>
      </trkpt>
      <trkpt lat="47.8599" lon="7.16186">
        <ele>938.3</ele>
        <time>2023-05-18T12:20:01Z</time>
      </trkpt>
      <trkpt lat="47.85993" lon="7.1618">
        <ele>938.8</ele>
        <time>2023-05-18T12:20:04Z</time>
      </trkpt>
      <trkpt lat="47.85998" lon="7.16177">
        <ele>939.9</ele>
        <time>2023-05-18T12:20:09Z</time>
      </trkpt>
      <trkpt lat="47.86" lon="7.16171">
        <ele>940.2</ele>
        <time>2023-05-18T12:20:13Z</time>
      </trkpt>
      <trkpt lat="47.8601" lon="7.16165">
        <ele>942.1</ele>
        <time>2023-05-18T12:20:25Z</time>
      </trkpt>
      <trkpt lat="47.86028" lon="7.16171">
        <ele>945.9</ele>
        <time>2023-05-18T12:20:44Z</time>
      </trkpt>
      <trkpt lat="47.86031" lon="7.16164">
        <ele>946.4</ele>
        <time>2023-05-18T12:20:51Z</time>
      </trkpt>
      <trkpt lat="47.86032" lon="7.16156">
        <ele>946.3</ele>
        <time>2023-05-18T12:20:59Z</time>
      </trkpt>
      <trkpt lat="47.86042" lon="7.16148">
        <ele>947.7</ele>
        <time>2023-05-18T12:21:10Z</time>
      </trkpt>
      <trkpt lat="47.86061" lon="7.16122">
        <ele>950.8</ele>
        <time>2023-05-18T12:21:41Z</time>
      </trkpt>
      <trkpt lat="47.86072" lon="7.16108">
        <ele>953</ele>
        <time>2023-05-18T12:21:56Z</time>
      </trkpt>
      <trkpt lat="47.86073" lon="7.16102">
        <ele>953.3</ele>
        <time>2023-05-18T12:22:01Z</time>
      </trkpt>
      <trkpt lat="47.86074" lon="7.16091">
        <ele>953.8</ele>
        <time>2023-05-18T12:22:13Z</time>
      </trkpt>
      <trkpt lat="47.86075" lon="7.1608">
        <ele>954</ele>
        <time>2023-05-18T12:22:25Z</time>
      </trkpt>
      <trkpt lat="47.86076" lon="7.16066">
        <ele>953.2</ele>
        <time>2023-05-18T12:22:34Z</time>
      </trkpt>
      <trkpt lat="47.86075" lon="7.16059">
        <ele>952.4</ele>
        <time>2023-05-18T12:22:39Z</time>
      </trkpt>
      <trkpt lat="47.86072" lon="7.1605">
        <ele>951.1</ele>
        <time>2023-05-18T12:22:47Z</time>
      </trkpt>
      <trkpt lat="47.86062" lon="7.16022">
        <ele>947.3</ele>
        <time>2023-05-18T12:23:10Z</time>
      </trkpt>
      <trkpt lat="47.86042" lon="7.15991">
        <ele>940.9</ele>
        <time>2023-05-18T12:23:40Z</time>
      </trkpt>
      <trkpt lat="47.8604" lon="7.15984">
        <ele>940</ele>
        <time>2023-05-18T12:23:45Z</time>
      </trkpt>
      <trkpt lat="47.86033" lon="7.15964">
        <ele>937.3</ele>
        <time>2023-05-18T12:23:59Z</time>
      </trkpt>
      <trkpt lat="47.86033" lon="7.15944">
        <ele>935.9</ele>
        <time>2023-05-18T12:24:10Z</time>
      </trkpt>
      <trkpt lat="47.86033" lon="7.15934">
        <ele>935.3</ele>
        <time>2023-05-18T12:24:17Z</time>
      </trkpt>
      <trkpt lat="47.86034" lon="7.15914">
        <ele>934.1</ele>
        <time>2023-05-18T12:24:30Z</time>
      </trkpt>
      <trkpt lat="47.86037" lon="7.15891">
        <ele>932.2</ele>
        <time>2023-05-18T12:24:43Z</time>
      </trkpt>
      <trkpt lat="47.86037" lon="7.15883">
        <ele>931.3</ele>
        <time>2023-05-18T12:24:47Z</time>
      </trkpt>
      <trkpt lat="47.86038" lon="7.15877">
        <ele>930.8</ele>
        <time>2023-05-18T12:24:51Z</time>
      </trkpt>
      <trkpt lat="47.86041" lon="7.15863">
        <ele>930</ele>
        <time>2023-05-18T12:25:01Z</time>
      </trkpt>
      <trkpt lat="47.86041" lon="7.15855">
        <ele>928.8</ele>
        <time>2023-05-18T12:25:06Z</time>
      </trkpt>
      <trkpt lat="47.86045" lon="7.15847">
        <ele>928.6</ele>
        <time>2023-05-18T12:25:13Z</time>
      </trkpt>
      <trkpt lat="47.86052" lon="7.15817">
        <ele>925.8</ele>
        <time>2023-05-18T12:25:32Z</time>
      </trkpt>
      <trkpt lat="47.86059" lon="7.15804">
        <ele>925.2</ele>
        <time>2023-05-18T12:25:44Z</time>
      </trkpt>
      <trkpt lat="47.86059" lon="7.15785">
        <ele>921.9</ele>
        <time>2023-05-18T12:25:55Z</time>
      </trkpt>
      <trkpt lat="47.86052" lon="7.15782">
        <ele>920.1</ele>
        <time>2023-05-18T12:26:10Z</time>
      </trkpt>
      <trkpt lat="47.86034" lon="7.15784">
        <ele>916.9</ele>
        <time>2023-05-18T12:26:30Z</time>
      </trkpt>
      <trkpt lat="47.86019" lon="7.15771">
        <ele>912.6</ele>
        <time>2023-05-18T12:26:48Z</time>
      </trkpt>
      <trkpt lat="47.86017" lon="7.15763">
        <ele>911.6</ele>
        <time>2023-05-18T12:26:51Z</time>
      </trkpt>
      <trkpt lat="47.86014" lon="7.15739">
        <ele>908.8</ele>
        <time>2023-05-18T12:27:07Z</time>
      </trkpt>
      <trkpt lat="47.86016" lon="7.15724">
        <ele>907.6</ele>
        <time>2023-05-18T12:27:16Z</time>
      </trkpt>
      <trkpt lat="47.86018" lon="7.15718">
        <ele>907.3</ele>
        <time>2023-05-18T12:27:20Z</time>
      </trkpt>
      <trkpt lat="47.86018" lon="7.15694">
        <ele>903.8</ele>
        <time>2023-05-18T12:27:36Z</time>
      </trkpt>
      <trkpt lat="47.8602" lon="7.15687">
        <ele>903.5</ele>
        <time>2023-05-18T12:27:42Z</time>
      </trkpt>
      <trkpt lat="47.8602" lon="7.15679">
        <ele>902.7</ele>
        <time>2023-05-18T12:27:46Z</time>
      </trkpt>
      <trkpt lat="47.86021" lon="7.15658">
        <ele>900.6</ele>
        <time>2023-05-18T12:28:03Z</time>
      </trkpt>
      <trkpt lat="47.86019" lon="7.1565">
        <ele>899.3</ele>
        <time>2023-05-18T12:28:09Z</time>
      </trkpt>
      <trkpt lat="47.86018" lon="7.15643">
        <ele>898.3</ele>
        <time>2023-05-18T12:28:14Z</time>
      </trkpt>
      <trkpt lat="47.86015" lon="7.15636">
        <ele>897</ele>
        <time>2023-05-18T12:28:18Z</time>
      </trkpt>
      <trkpt lat="47.86015" lon="7.15629">
        <ele>896.3</ele>
        <time>2023-05-18T12:28:23Z</time>
      </trkpt>
      <trkpt lat="47.86015" lon="7.15622">
        <ele>895.7</ele>
        <time>2023-05-18T12:28:27Z</time>
      </trkpt>
      <trkpt lat="47.86012" lon="7.15593">
        <ele>892.9</ele>
        <time>2023-05-18T12:28:44Z</time>
      </trkpt>
      <trkpt lat="47.86014" lon="7.15587">
        <ele>892.8</ele>
        <time>2023-05-18T12:28:47Z</time>
      </trkpt>
      <trkpt lat="47.86015" lon="7.15565">
        <ele>891.7</ele>
        <time>2023-05-18T12:29:00Z</time>
      </trkpt>
      <trkpt lat="47.86012" lon="7.15544">
        <ele>890.2</ele>
        <time>2023-05-18T12:29:11Z</time>
      </trkpt>
      <trkpt lat="47.86013" lon="7.15525">
        <ele>889.8</ele>
        <time>2023-05-18T12:29:23Z</time>
      </trkpt>
      <trkpt lat="47.86009" lon="7.15505">
        <ele>888.9</ele>
        <time>2023-05-18T12:29:35Z</time>
      </trkpt>
      <trkpt lat="47.86006" lon="7.15498">
        <ele>888.3</ele>
        <time>2023-05-18T12:29:40Z</time>
      </trkpt>
      <trkpt lat="47.86001" lon="7.15472">
        <ele>887.2</ele>
        <time>2023-05-18T12:29:57Z</time>
      </trkpt>
      <trkpt lat="47.86002" lon="7.15466">
        <ele>887.4</ele>
        <time>2023-05-18T12:30:01Z</time>
      </trkpt>
      <trkpt lat="47.85998" lon="7.15461">
        <ele>886.5</ele>
        <time>2023-05-18T12:30:05Z</time>
      </trkpt>
      <trkpt lat="47.85999" lon="7.15446">
        <ele>886.8</ele>
        <time>2023-05-18T12:30:13Z</time>
      </trkpt>
      <trkpt lat="47.85993" lon="7.15413">
        <ele>885.5</ele>
        <time>2023-05-18T12:30:30Z</time>
      </trkpt>
      <trkpt lat="47.85993" lon="7.15405">
        <ele>885.5</ele>
        <time>2023-05-18T12:30:35Z</time>
      </trkpt>
      <trkpt lat="47.85988" lon="7.15382">
        <ele>884.5</ele>
        <time>2023-05-18T12:30:51Z</time>
      </trkpt>
      <trkpt lat="47.85982" lon="7.15367">
        <ele>883.6</ele>
        <time>2023-05-18T12:30:59Z</time>
      </trkpt>
      <trkpt lat="47.85981" lon="7.1536">
        <ele>883.6</ele>
        <time>2023-05-18T12:31:04Z</time>
      </trkpt>
      <trkpt lat="47.85975" lon="7.15339">
        <ele>882.5</ele>
        <time>2023-05-18T12:31:19Z</time>
      </trkpt>
      <trkpt lat="47.85975" lon="7.15332">
        <ele>882.5</ele>
        <time>2023-05-18T12:31:22Z</time>
      </trkpt>
      <trkpt lat="47.85971" lon="7.15328">
        <ele>882</ele>
        <time>2023-05-18T12:31:26Z</time>
      </trkpt>
      <trkpt lat="47.85966" lon="7.15317">
        <ele>881.5</ele>
        <time>2023-05-18T12:31:33Z</time>
      </trkpt>
      <trkpt lat="47.85961" lon="7.15311">
        <ele>880.8</ele>
        <time>2023-05-18T12:31:37Z</time>
      </trkpt>
      <trkpt lat="47.85954" lon="7.15295">
        <ele>880.2</ele>
        <time>2023-05-18T12:31:48Z</time>
      </trkpt>
      <trkpt lat="47.85953" lon="7.15289">
        <ele>880.4</ele>
        <time>2023-05-18T12:31:52Z</time>
      </trkpt>
      <trkpt lat="47.85944" lon="7.15284">
        <ele>879.5</ele>
        <time>2023-05-18T12:32:01Z</time>
      </trkpt>
      <trkpt lat="47.85938" lon="7.15285">
        <ele>879.1</ele>
        <time>2023-05-18T12:32:06Z</time>
      </trkpt>
      <trkpt lat="47.85918" lon="7.15285">
        <ele>877.8</ele>
        <time>2023-05-18T12:32:23Z</time>
      </trkpt>
      <trkpt lat="47.85897" lon="7.15278">
        <ele>878.2</ele>
        <time>2023-05-18T12:32:39Z</time>
      </trkpt>
      <trkpt lat="47.85887" lon="7.1528">
        <ele>877.4</ele>
        <time>2023-05-18T12:32:47Z</time>
      </trkpt>
      <trkpt lat="47.85883" lon="7.1528">
        <ele>877.1</ele>
        <time>2023-05-18T12:32:51Z</time>
      </trkpt>
      <trkpt lat="47.85872" lon="7.15268">
        <ele>878.5</ele>
        <time>2023-05-18T12:33:02Z</time>
      </trkpt>
      <trkpt lat="47.85862" lon="7.15251">
        <ele>880.9</ele>
        <time>2023-05-18T12:33:14Z</time>
      </trkpt>
      <trkpt lat="47.85856" lon="7.15229">
        <ele>883.5</ele>
        <time>2023-05-18T12:33:29Z</time>
      </trkpt>
      <trkpt lat="47.85855" lon="7.15219">
        <ele>884.8</ele>
        <time>2023-05-18T12:33:36Z</time>
      </trkpt>
      <trkpt lat="47.8585" lon="7.15208">
        <ele>885.8</ele>
        <time>2023-05-18T12:33:45Z</time>
      </trkpt>
      <trkpt lat="47.85851" lon="7.15201">
        <ele>887</ele>
        <time>2023-05-18T12:33:50Z</time>
      </trkpt>
      <trkpt lat="47.8584" lon="7.1517">
        <ele>890.5</ele>
        <time>2023-05-18T12:34:16Z</time>
      </trkpt>
      <trkpt lat="47.8584" lon="7.15158">
        <ele>892</ele>
        <time>2023-05-18T12:34:24Z</time>
      </trkpt>
      <trkpt lat="47.85837" lon="7.15153">
        <ele>892.1</ele>
        <time>2023-05-18T12:34:28Z</time>
      </trkpt>
      <trkpt lat="47.85834" lon="7.15128">
        <ele>893.9</ele>
        <time>2023-05-18T12:34:45Z</time>
      </trkpt>
      <trkpt lat="47.85833" lon="7.15119">
        <ele>894.4</ele>
        <time>2023-05-18T12:34:52Z</time>
      </trkpt>
      <trkpt lat="47.85829" lon="7.15112">
        <ele>894.2</ele>
        <time>2023-05-18T12:34:59Z</time>
      </trkpt>
      <trkpt lat="47.85828" lon="7.15105">
        <ele>894.7</ele>
        <time>2023-05-18T12:35:03Z</time>
      </trkpt>
      <trkpt lat="47.85825" lon="7.15081">
        <ele>896.3</ele>
        <time>2023-05-18T12:35:17Z</time>
      </trkpt>
      <trkpt lat="47.85826" lon="7.15068">
        <ele>897.4</ele>
        <time>2023-05-18T12:35:26Z</time>
      </trkpt>
      <trkpt lat="47.85828" lon="7.15053">
        <ele>898.8</ele>
        <time>2023-05-18T12:35:36Z</time>
      </trkpt>
      <trkpt lat="47.8583" lon="7.15045">
        <ele>899.9</ele>
        <time>2023-05-18T12:35:39Z</time>
      </trkpt>
      <trkpt lat="47.85828" lon="7.15037">
        <ele>900</ele>
        <time>2023-05-18T12:35:43Z</time>
      </trkpt>
      <trkpt lat="47.85828" lon="7.15029">
        <ele>900.6</ele>
        <time>2023-05-18T12:35:48Z</time>
      </trkpt>
      <trkpt lat="47.85825" lon="7.15021">
        <ele>900.5</ele>
        <time>2023-05-18T12:35:57Z</time>
      </trkpt>
      <trkpt lat="47.85824" lon="7.15014">
        <ele>900.8</ele>
        <time>2023-05-18T12:36:02Z</time>
      </trkpt>
      <trkpt lat="47.8582" lon="7.1501">
        <ele>900.2</ele>
        <time>2023-05-18T12:36:07Z</time>
      </trkpt>
      <trkpt lat="47.85817" lon="7.15004">
        <ele>900.1</ele>
        <time>2023-05-18T12:36:12Z</time>
      </trkpt>
      <trkpt lat="47.85807" lon="7.14966">
        <ele>900.5</ele>
        <time>2023-05-18T12:36:33Z</time>
      </trkpt>
      <trkpt lat="47.85805" lon="7.14955">
        <ele>900.4</ele>
        <time>2023-05-18T12:36:42Z</time>
      </trkpt>
      <trkpt lat="47.85802" lon="7.14936">
        <ele>900.4</ele>
        <time>2023-05-18T12:36:54Z</time>
      </trkpt>
      <trkpt lat="47.85799" lon="7.14929">
        <ele>900.2</ele>
        <time>2023-05-18T12:36:58Z</time>
      </trkpt>
      <trkpt lat="47.85795" lon="7.14916">
        <ele>900.5</ele>
        <time>2023-05-18T12:37:06Z</time>
      </trkpt>
      <trkpt lat="47.85787" lon="7.14897">
        <ele>900.7</ele>
        <time>2023-05-18T12:37:18Z</time>
      </trkpt>
      <trkpt lat="47.85786" lon="7.14888">
        <ele>901.2</ele>
        <time>2023-05-18T12:37:24Z</time>
      </trkpt>
      <trkpt lat="47.85783" lon="7.14882">
        <ele>901</ele>
        <time>2023-05-18T12:37:28Z</time>
      </trkpt>
      <trkpt lat="47.85782" lon="7.14875">
        <ele>901</ele>
        <time>2023-05-18T12:37:32Z</time>
      </trkpt>
      <trkpt lat="47.85778" lon="7.14871">
        <ele>900.7</ele>
        <time>2023-05-18T12:37:58Z</time>
      </trkpt>
      <trkpt lat="47.85773" lon="7.14873">
        <ele>899.6</ele>
        <time>2023-05-18T12:38:10Z</time>
      </trkpt>
      <trkpt lat="47.85769" lon="7.1487">
        <ele>899</ele>
        <time>2023-05-18T12:39:37Z</time>
      </trkpt>
      <trkpt lat="47.85772" lon="7.14865">
        <ele>899.8</ele>
        <time>2023-05-18T12:39:44Z</time>
      </trkpt>
      <trkpt lat="47.85771" lon="7.14859">
        <ele>899.8</ele>
        <time>2023-05-18T12:39:49Z</time>
      </trkpt>
      <trkpt lat="47.85768" lon="7.14852">
        <ele>899.5</ele>
        <time>2023-05-18T12:40:02Z</time>
      </trkpt>
      <trkpt lat="47.85767" lon="7.14851">
        <ele>899.3</ele>
      </trkpt>
      <trkpt lat="47.85766" lon="7.14842">
        <ele>899.5</ele>
      </trkpt>
      <trkpt lat="47.85801" lon="7.14873">
        <ele>903.4</ele>
      </trkpt>
      <trkpt lat="47.85825" lon="7.14878">
        <ele>905.8</ele>
      </trkpt>
      <trkpt lat="47.85852" lon="7.14866">
        <ele>906.1</ele>
      </trkpt>
      <trkpt lat="47.85862" lon="7.14855">
        <ele>905.7</ele>
      </trkpt>
      <trkpt lat="47.85877" lon="7.14826">
        <ele>904.7</ele>
      </trkpt>
      <trkpt lat="47.85886" lon="7.14792">
        <ele>904.9</ele>
      </trkpt>
      <trkpt lat="47.85892" lon="7.14751">
        <ele>903.3</ele>
      </trkpt>
      <trkpt lat="47.85895" lon="7.14726">
        <ele>901.5</ele>
      </trkpt>
      <trkpt lat="47.85899" lon="7.14726">
        <ele>899.2</ele>
      </trkpt>
      <trkpt lat="47.85901" lon="7.14732">
        <ele>898.2</ele>
      </trkpt>
      <trkpt lat="47.85903" lon="7.1472">
        <ele>896.9</ele>
      </trkpt>
      <trkpt lat="47.85908" lon="7.14675">
        <ele>895.2</ele>
      </trkpt>
      <trkpt lat="47.85917" lon="7.14632">
        <ele>896.3</ele>
      </trkpt>
      <trkpt lat="47.85921" lon="7.14618">
        <ele>897</ele>
      </trkpt>
      <trkpt lat="47.8595" lon="7.1457">
        <ele>891.4</ele>
      </trkpt>
      <trkpt lat="47.85969" lon="7.14518">
        <ele>888.5</ele>
      </trkpt>
      <trkpt lat="47.85989" lon="7.14481">
        <ele>883.2</ele>
      </trkpt>
      <trkpt lat="47.86001" lon="7.14442">
        <ele>879.4</ele>
      </trkpt>
      <trkpt lat="47.86007" lon="7.14416">
        <ele>876.2</ele>
      </trkpt>
      <trkpt lat="47.86014" lon="7.14373">
        <ele>869.5</ele>
      </trkpt>
      <trkpt lat="47.86015" lon="7.14352">
        <ele>866.4</ele>
      </trkpt>
      <trkpt lat="47.86013" lon="7.14279">
        <ele>858.2</ele>
      </trkpt>
      <trkpt lat="47.86013" lon="7.14194">
        <ele>848</ele>
      </trkpt>
      <trkpt lat="47.86015" lon="7.14126">
        <ele>844.5</ele>
      </trkpt>
      <trkpt lat="47.86006" lon="7.1407">
        <ele>843.5</ele>
      </trkpt>
      <trkpt lat="47.86004" lon="7.14042">
        <ele>843.8</ele>
      </trkpt>
      <trkpt lat="47.85999" lon="7.14013">
        <ele>844.4</ele>
      </trkpt>
      <trkpt lat="47.86" lon="7.13985">
        <ele>843</ele>
      </trkpt>
      <trkpt lat="47.86005" lon="7.13962">
        <ele>843.2</ele>
      </trkpt>
      <trkpt lat="47.86011" lon="7.13948">
        <ele>844</ele>
      </trkpt>
      <trkpt lat="47.86017" lon="7.13937">
        <ele>843.8</ele>
      </trkpt>
      <trkpt lat="47.86026" lon="7.13928">
        <ele>841.1</ele>
      </trkpt>
      <trkpt lat="47.8604" lon="7.13917">
        <ele>838.9</ele>
      </trkpt>
      <trkpt lat="47.86054" lon="7.13909">
        <ele>837.8</ele>
      </trkpt>
      <trkpt lat="47.86059" lon="7.1391">
        <ele>838.1</ele>
      </trkpt>
      <trkpt lat="47.8607" lon="7.13916">
        <ele>839.9</ele>
      </trkpt>
      <trkpt lat="47.86074" lon="7.13919">
        <ele>840.2</ele>
      </trkpt>
      <trkpt lat="47.86084" lon="7.1392">
        <ele>842.9</ele>
      </trkpt>
      <trkpt lat="47.86093" lon="7.13908">
        <ele>842.9</ele>
      </trkpt>
      <trkpt lat="47.86101" lon="7.13894">
        <ele>842.6</ele>
      </trkpt>
      <trkpt lat="47.86103" lon="7.13852">
        <ele>845.2</ele>
      </trkpt>
      <trkpt lat="47.86096" lon="7.13807">
        <ele>851.1</ele>
      </trkpt>
      <trkpt lat="47.86089" lon="7.13778">
        <ele>854.9</ele>
      </trkpt>
      <trkpt lat="47.8608" lon="7.13758">
        <ele>854.5</ele>
      </trkpt>
      <trkpt lat="47.86042" lon="7.13717">
        <ele>859.3</ele>
      </trkpt>
      <trkpt lat="47.86035" lon="7.13707">
        <ele>861</ele>
      </trkpt>
      <trkpt lat="47.86028" lon="7.13693">
        <ele>861.8</ele>
      </trkpt>
      <trkpt lat="47.86023" lon="7.13623">
        <ele>862</ele>
      </trkpt>
      <trkpt lat="47.86014" lon="7.13582">
        <ele>867.4</ele>
      </trkpt>
      <trkpt lat="47.8602" lon="7.13543">
        <ele>864.5</ele>
      </trkpt>
      <trkpt lat="47.86024" lon="7.13501">
        <ele>863.3</ele>
      </trkpt>
      <trkpt lat="47.86039" lon="7.13454">
        <ele>862.7</ele>
      </trkpt>
      <trkpt lat="47.86049" lon="7.13413">
        <ele>863</ele>
      </trkpt>
      <trkpt lat="47.86063" lon="7.13376">
        <ele>862.4</ele>
      </trkpt>
      <trkpt lat="47.86075" lon="7.13331">
        <ele>865.3</ele>
      </trkpt>
      <trkpt lat="47.86084" lon="7.13304">
        <ele>866.4</ele>
      </trkpt>
      <trkpt lat="47.86087" lon="7.13301">
        <ele>867.1</ele>
      </trkpt>
      <trkpt lat="47.8609" lon="7.13301">
        <ele>866.9</ele>
      </trkpt>
      <trkpt lat="47.86149" lon="7.1331">
        <ele>863.7</ele>
      </trkpt>
      <trkpt lat="47.86167" lon="7.13308">
        <ele>865.8</ele>
      </trkpt>
      <trkpt lat="47.86168" lon="7.13308">
        <ele>865.8</ele>
        <time>2023-05-18T13:14:53Z</time>
      </trkpt>
      <trkpt lat="47.86174" lon="7.13309">
        <ele>865.3</ele>
        <time>2023-05-18T13:14:59Z</time>
      </trkpt>
      <trkpt lat="47.86197" lon="7.13311">
        <ele>864.7</ele>
        <time>2023-05-18T13:15:15Z</time>
      </trkpt>
      <trkpt lat="47.86201" lon="7.13307">
        <ele>866.8</ele>
        <time>2023-05-18T13:15:29Z</time>
      </trkpt>
      <trkpt lat="47.86208" lon="7.13305">
        <ele>868.3</ele>
        <time>2023-05-18T13:15:33Z</time>
      </trkpt>
      <trkpt lat="47.86212" lon="7.13307">
        <ele>867.6</ele>
        <time>2023-05-18T13:15:36Z</time>
      </trkpt>
      <trkpt lat="47.86218" lon="7.13311">
        <ele>866.3</ele>
        <time>2023-05-18T13:15:45Z</time>
      </trkpt>
      <trkpt lat="47.86233" lon="7.13315">
        <ele>867.9</ele>
        <time>2023-05-18T13:16:03Z</time>
      </trkpt>
      <trkpt lat="47.86241" lon="7.13324">
        <ele>866</ele>
        <time>2023-05-18T13:16:11Z</time>
      </trkpt>
      <trkpt lat="47.86247" lon="7.13328">
        <ele>865.7</ele>
        <time>2023-05-18T13:16:17Z</time>
      </trkpt>
      <trkpt lat="47.86251" lon="7.13332">
        <ele>864.9</ele>
        <time>2023-05-18T13:16:22Z</time>
      </trkpt>
      <trkpt lat="47.86274" lon="7.13344">
        <ele>865.5</ele>
        <time>2023-05-18T13:16:43Z</time>
      </trkpt>
      <trkpt lat="47.86279" lon="7.13345">
        <ele>866.2</ele>
        <time>2023-05-18T13:16:48Z</time>
      </trkpt>
      <trkpt lat="47.86285" lon="7.13344">
        <ele>867.3</ele>
        <time>2023-05-18T13:16:58Z</time>
      </trkpt>
      <trkpt lat="47.86294" lon="7.13347">
        <ele>866.6</ele>
        <time>2023-05-18T13:17:10Z</time>
      </trkpt>
      <trkpt lat="47.86299" lon="7.13348">
        <ele>866.5</ele>
        <time>2023-05-18T13:17:15Z</time>
      </trkpt>
      <trkpt lat="47.86304" lon="7.13345">
        <ele>868.6</ele>
        <time>2023-05-18T13:17:20Z</time>
      </trkpt>
      <trkpt lat="47.86315" lon="7.1334">
        <ele>867.8</ele>
        <time>2023-05-18T13:17:29Z</time>
      </trkpt>
      <trkpt lat="47.86322" lon="7.13333">
        <ele>868</ele>
        <time>2023-05-18T13:17:35Z</time>
      </trkpt>
      <trkpt lat="47.86327" lon="7.13331">
        <ele>866.6</ele>
        <time>2023-05-18T13:17:40Z</time>
      </trkpt>
      <trkpt lat="47.8633" lon="7.13327">
        <ele>866.9</ele>
        <time>2023-05-18T13:17:45Z</time>
      </trkpt>
      <trkpt lat="47.86336" lon="7.13315">
        <ele>868.7</ele>
        <time>2023-05-18T13:17:54Z</time>
      </trkpt>
      <trkpt lat="47.8634" lon="7.1331">
        <ele>868.2</ele>
        <time>2023-05-18T13:17:57Z</time>
      </trkpt>
      <trkpt lat="47.86344" lon="7.13302">
        <ele>868.9</ele>
        <time>2023-05-18T13:18:04Z</time>
      </trkpt>
      <trkpt lat="47.86355" lon="7.13294">
        <ele>865.5</ele>
        <time>2023-05-18T13:18:13Z</time>
      </trkpt>
      <trkpt lat="47.86354" lon="7.13286">
        <ele>869.4</ele>
        <time>2023-05-18T13:18:16Z</time>
      </trkpt>
      <trkpt lat="47.86357" lon="7.13282">
        <ele>869.4</ele>
        <time>2023-05-18T13:18:20Z</time>
      </trkpt>
      <trkpt lat="47.86366" lon="7.13279">
        <ele>867.8</ele>
        <time>2023-05-18T13:18:26Z</time>
      </trkpt>
      <trkpt lat="47.86371" lon="7.13275">
        <ele>868.7</ele>
        <time>2023-05-18T13:18:31Z</time>
      </trkpt>
      <trkpt lat="47.86392" lon="7.13276">
        <ele>864.7</ele>
        <time>2023-05-18T13:18:46Z</time>
      </trkpt>
      <trkpt lat="47.86397" lon="7.13273">
        <ele>864.2</ele>
        <time>2023-05-18T13:18:53Z</time>
      </trkpt>
      <trkpt lat="47.86402" lon="7.13265">
        <ele>864.9</ele>
        <time>2023-05-18T13:19:02Z</time>
      </trkpt>
      <trkpt lat="47.86405" lon="7.13251">
        <ele>867.5</ele>
        <time>2023-05-18T13:19:11Z</time>
      </trkpt>
      <trkpt lat="47.86405" lon="7.13243">
        <ele>869</ele>
        <time>2023-05-18T13:19:15Z</time>
      </trkpt>
      <trkpt lat="47.86408" lon="7.13235">
        <ele>869.3</ele>
        <time>2023-05-18T13:19:19Z</time>
      </trkpt>
      <trkpt lat="47.86415" lon="7.13222">
        <ele>868.7</ele>
        <time>2023-05-18T13:19:30Z</time>
      </trkpt>
      <trkpt lat="47.86418" lon="7.13215">
        <ele>868.4</ele>
        <time>2023-05-18T13:19:34Z</time>
      </trkpt>
      <trkpt lat="47.86419" lon="7.13207">
        <ele>869.1</ele>
        <time>2023-05-18T13:19:39Z</time>
      </trkpt>
      <trkpt lat="47.8642" lon="7.13199">
        <ele>869.7</ele>
        <time>2023-05-18T13:19:43Z</time>
      </trkpt>
      <trkpt lat="47.86425" lon="7.13192">
        <ele>868.1</ele>
        <time>2023-05-18T13:19:50Z</time>
      </trkpt>
      <trkpt lat="47.86427" lon="7.13183">
        <ele>868</ele>
        <time>2023-05-18T13:19:59Z</time>
      </trkpt>
      <trkpt lat="47.86429" lon="7.13178">
        <ele>867.6</ele>
        <time>2023-05-18T13:20:02Z</time>
      </trkpt>
      <trkpt lat="47.86428" lon="7.13171">
        <ele>868.8</ele>
        <time>2023-05-18T13:20:06Z</time>
      </trkpt>
      <trkpt lat="47.8643" lon="7.13165">
        <ele>868.4</ele>
        <time>2023-05-18T13:20:10Z</time>
      </trkpt>
      <trkpt lat="47.86435" lon="7.13144">
        <ele>867.7</ele>
        <time>2023-05-18T13:20:21Z</time>
      </trkpt>
      <trkpt lat="47.86438" lon="7.13129">
        <ele>867.8</ele>
        <time>2023-05-18T13:20:28Z</time>
      </trkpt>
      <trkpt lat="47.86442" lon="7.13124">
        <ele>866.6</ele>
        <time>2023-05-18T13:20:30Z</time>
      </trkpt>
      <trkpt lat="47.86444" lon="7.13118">
        <ele>866.4</ele>
        <time>2023-05-18T13:20:33Z</time>
      </trkpt>
      <trkpt lat="47.86441" lon="7.13111">
        <ele>868.4</ele>
        <time>2023-05-18T13:20:37Z</time>
      </trkpt>
      <trkpt lat="47.86436" lon="7.13096">
        <ele>870.1</ele>
        <time>2023-05-18T13:20:47Z</time>
      </trkpt>
      <trkpt lat="47.86437" lon="7.13086">
        <ele>869.5</ele>
        <time>2023-05-18T13:20:55Z</time>
      </trkpt>
      <trkpt lat="47.86435" lon="7.13077">
        <ele>870.6</ele>
        <time>2023-05-18T13:21:07Z</time>
      </trkpt>
      <trkpt lat="47.86426" lon="7.13073">
        <ele>875</ele>
        <time>2023-05-18T13:21:15Z</time>
      </trkpt>
      <trkpt lat="47.86425" lon="7.13065">
        <ele>875.8</ele>
        <time>2023-05-18T13:21:19Z</time>
      </trkpt>
      <trkpt lat="47.86428" lon="7.1306">
        <ele>874.5</ele>
        <time>2023-05-18T13:21:21Z</time>
      </trkpt>
      <trkpt lat="47.86432" lon="7.13055">
        <ele>872.9</ele>
        <time>2023-05-18T13:21:23Z</time>
      </trkpt>
      <trkpt lat="47.86437" lon="7.13053">
        <ele>870.9</ele>
        <time>2023-05-18T13:21:25Z</time>
      </trkpt>
      <trkpt lat="47.86446" lon="7.13048">
        <ele>867.4</ele>
        <time>2023-05-18T13:21:33Z</time>
      </trkpt>
      <trkpt lat="47.86448" lon="7.13041">
        <ele>867.6</ele>
        <time>2023-05-18T13:21:38Z</time>
      </trkpt>
      <trkpt lat="47.8645" lon="7.1302">
        <ele>870.3</ele>
        <time>2023-05-18T13:21:50Z</time>
      </trkpt>
      <trkpt lat="47.8646" lon="7.13009">
        <ele>868.6</ele>
        <time>2023-05-18T13:21:56Z</time>
      </trkpt>
      <trkpt lat="47.86464" lon="7.13006">
        <ele>867.7</ele>
        <time>2023-05-18T13:21:59Z</time>
      </trkpt>
      <trkpt lat="47.86468" lon="7.13">
        <ele>867.5</ele>
        <time>2023-05-18T13:22:04Z</time>
      </trkpt>
      <trkpt lat="47.86474" lon="7.13003">
        <ele>864.9</ele>
        <time>2023-05-18T13:22:06Z</time>
      </trkpt>
      <trkpt lat="47.86478" lon="7.13004">
        <ele>863.6</ele>
        <time>2023-05-18T13:22:09Z</time>
      </trkpt>
      <trkpt lat="47.86485" lon="7.12999">
        <ele>863</ele>
        <time>2023-05-18T13:22:20Z</time>
      </trkpt>
      <trkpt lat="47.86488" lon="7.12992">
        <ele>864</ele>
        <time>2023-05-18T13:22:24Z</time>
      </trkpt>
      <trkpt lat="47.86487" lon="7.12984">
        <ele>866.3</ele>
        <time>2023-05-18T13:22:29Z</time>
      </trkpt>
      <trkpt lat="47.86493" lon="7.12983">
        <ele>865</ele>
        <time>2023-05-18T13:22:36Z</time>
      </trkpt>
      <trkpt lat="47.86498" lon="7.12982">
        <ele>864</ele>
        <time>2023-05-18T13:22:44Z</time>
      </trkpt>
      <trkpt lat="47.86498" lon="7.12974">
        <ele>866.1</ele>
        <time>2023-05-18T13:22:49Z</time>
      </trkpt>
      <trkpt lat="47.86497" lon="7.1296">
        <ele>869</ele>
        <time>2023-05-18T13:22:59Z</time>
      </trkpt>
      <trkpt lat="47.8651" lon="7.12948">
        <ele>867.1</ele>
        <time>2023-05-18T13:23:13Z</time>
      </trkpt>
      <trkpt lat="47.86513" lon="7.12946">
        <ele>866.5</ele>
        <time>2023-05-18T13:23:18Z</time>
      </trkpt>
      <trkpt lat="47.86519" lon="7.12947">
        <ele>864.4</ele>
        <time>2023-05-18T13:23:23Z</time>
      </trkpt>
      <trkpt lat="47.86521" lon="7.12935">
        <ele>865</ele>
        <time>2023-05-18T13:23:37Z</time>
      </trkpt>
      <trkpt lat="47.86526" lon="7.12929">
        <ele>863.7</ele>
        <time>2023-05-18T13:23:42Z</time>
      </trkpt>
      <trkpt lat="47.86525" lon="7.12921">
        <ele>864.7</ele>
        <time>2023-05-18T13:23:46Z</time>
      </trkpt>
      <trkpt lat="47.86523" lon="7.12915">
        <ele>865.5</ele>
        <time>2023-05-18T13:23:49Z</time>
      </trkpt>
      <trkpt lat="47.86522" lon="7.12908">
        <ele>865.1</ele>
        <time>2023-05-18T13:23:52Z</time>
      </trkpt>
      <trkpt lat="47.86518" lon="7.12902">
        <ele>865.9</ele>
        <time>2023-05-18T13:23:56Z</time>
      </trkpt>
      <trkpt lat="47.86517" lon="7.12895">
        <ele>865.5</ele>
        <time>2023-05-18T13:23:59Z</time>
      </trkpt>
      <trkpt lat="47.86513" lon="7.12889">
        <ele>866.3</ele>
        <time>2023-05-18T13:24:05Z</time>
      </trkpt>
      <trkpt lat="47.86508" lon="7.12886">
        <ele>867.8</ele>
        <time>2023-05-18T13:24:10Z</time>
      </trkpt>
      <trkpt lat="47.86507" lon="7.12879">
        <ele>867.5</ele>
        <time>2023-05-18T13:24:12Z</time>
      </trkpt>
      <trkpt lat="47.86505" lon="7.12873">
        <ele>867.9</ele>
        <time>2023-05-18T13:24:33Z</time>
      </trkpt>
      <trkpt lat="47.86502" lon="7.12878">
        <ele>869.7</ele>
        <time>2023-05-18T13:25:02Z</time>
      </trkpt>
      <trkpt lat="47.86496" lon="7.12861">
        <ele>872.3</ele>
        <time>2023-05-18T13:25:18Z</time>
      </trkpt>
      <trkpt lat="47.86499" lon="7.12858">
        <ele>870.6</ele>
        <time>2023-05-18T13:25:22Z</time>
      </trkpt>
      <trkpt lat="47.86502" lon="7.12852">
        <ele>868.7</ele>
        <time>2023-05-18T13:25:26Z</time>
      </trkpt>
      <trkpt lat="47.86504" lon="7.12845">
        <ele>867.4</ele>
        <time>2023-05-18T13:25:31Z</time>
      </trkpt>
      <trkpt lat="47.86503" lon="7.12836">
        <ele>868</ele>
        <time>2023-05-18T13:25:36Z</time>
      </trkpt>
      <trkpt lat="47.86503" lon="7.12822">
        <ele>866.4</ele>
        <time>2023-05-18T13:25:44Z</time>
      </trkpt>
      <trkpt lat="47.865" lon="7.12816">
        <ele>867.5</ele>
        <time>2023-05-18T13:25:48Z</time>
      </trkpt>
      <trkpt lat="47.865" lon="7.12805">
        <ele>866.1</ele>
        <time>2023-05-18T13:25:54Z</time>
      </trkpt>
      <trkpt lat="47.86502" lon="7.12796">
        <ele>866.1</ele>
        <time>2023-05-18T13:25:58Z</time>
      </trkpt>
      <trkpt lat="47.86501" lon="7.12787">
        <ele>867.6</ele>
        <time>2023-05-18T13:26:02Z</time>
      </trkpt>
      <trkpt lat="47.86504" lon="7.12779">
        <ele>867.8</ele>
        <time>2023-05-18T13:26:07Z</time>
      </trkpt>
      <trkpt lat="47.86507" lon="7.12774">
        <ele>868.6</ele>
        <time>2023-05-18T13:26:11Z</time>
      </trkpt>
      <trkpt lat="47.86512" lon="7.12776">
        <ele>866.6</ele>
        <time>2023-05-18T13:26:14Z</time>
      </trkpt>
      <trkpt lat="47.86517" lon="7.12774">
        <ele>866.2</ele>
        <time>2023-05-18T13:26:17Z</time>
      </trkpt>
      <trkpt lat="47.86527" lon="7.12775">
        <ele>863.3</ele>
        <time>2023-05-18T13:26:22Z</time>
      </trkpt>
      <trkpt lat="47.86516" lon="7.12789">
        <ele>861.7</ele>
        <time>2023-05-18T13:26:42Z</time>
      </trkpt>
      <trkpt lat="47.86526" lon="7.12786">
        <ele>859.1</ele>
        <time>2023-05-18T13:26:46Z</time>
      </trkpt>
      <trkpt lat="47.8653" lon="7.12782">
        <ele>859.2</ele>
        <time>2023-05-18T13:26:48Z</time>
      </trkpt>
      <trkpt lat="47.86532" lon="7.12776">
        <ele>860.9</ele>
        <time>2023-05-18T13:26:51Z</time>
      </trkpt>
      <trkpt lat="47.86536" lon="7.12771">
        <ele>861.6</ele>
        <time>2023-05-18T13:26:55Z</time>
      </trkpt>
      <trkpt lat="47.86541" lon="7.12764">
        <ele>863.2</ele>
        <time>2023-05-18T13:27:01Z</time>
      </trkpt>
      <trkpt lat="47.86551" lon="7.12754">
        <ele>865.7</ele>
        <time>2023-05-18T13:27:11Z</time>
      </trkpt>
      <trkpt lat="47.86563" lon="7.12753">
        <ele>862.2</ele>
        <time>2023-05-18T13:27:15Z</time>
      </trkpt>
      <trkpt lat="47.86566" lon="7.12748">
        <ele>864.2</ele>
        <time>2023-05-18T13:27:25Z</time>
      </trkpt>
      <trkpt lat="47.86575" lon="7.12746">
        <ele>862.1</ele>
        <time>2023-05-18T13:27:43Z</time>
      </trkpt>
      <trkpt lat="47.86584" lon="7.12742">
        <ele>861.7</ele>
        <time>2023-05-18T13:27:53Z</time>
      </trkpt>
      <trkpt lat="47.86588" lon="7.12741">
        <ele>860.6</ele>
        <time>2023-05-18T13:27:59Z</time>
      </trkpt>
      <trkpt lat="47.86598" lon="7.12735">
        <ele>859.8</ele>
        <time>2023-05-18T13:28:07Z</time>
      </trkpt>
      <trkpt lat="47.866" lon="7.12726">
        <ele>864.4</ele>
        <time>2023-05-18T13:28:20Z</time>
      </trkpt>
      <trkpt lat="47.86604" lon="7.12719">
        <ele>865.6</ele>
        <time>2023-05-18T13:28:25Z</time>
      </trkpt>
      <trkpt lat="47.86612" lon="7.12712">
        <ele>862.8</ele>
        <time>2023-05-18T13:28:30Z</time>
      </trkpt>
      <trkpt lat="47.86614" lon="7.12706">
        <ele>863.4</ele>
        <time>2023-05-18T13:28:34Z</time>
      </trkpt>
      <trkpt lat="47.86614" lon="7.12699">
        <ele>865.6</ele>
        <time>2023-05-18T13:28:39Z</time>
      </trkpt>
      <trkpt lat="47.86615" lon="7.1269">
        <ele>866.7</ele>
        <time>2023-05-18T13:28:42Z</time>
      </trkpt>
      <trkpt lat="47.86618" lon="7.12686">
        <ele>865.2</ele>
        <time>2023-05-18T13:28:47Z</time>
      </trkpt>
      <trkpt lat="47.86619" lon="7.12668">
        <ele>866.6</ele>
        <time>2023-05-18T13:28:56Z</time>
      </trkpt>
      <trkpt lat="47.86623" lon="7.1265">
        <ele>866</ele>
        <time>2023-05-18T13:29:05Z</time>
      </trkpt>
      <trkpt lat="47.86626" lon="7.12645">
        <ele>864.9</ele>
        <time>2023-05-18T13:29:07Z</time>
      </trkpt>
      <trkpt lat="47.86629" lon="7.1264">
        <ele>863.9</ele>
        <time>2023-05-18T13:29:11Z</time>
      </trkpt>
      <trkpt lat="47.86629" lon="7.12632">
        <ele>865.2</ele>
        <time>2023-05-18T13:29:14Z</time>
      </trkpt>
      <trkpt lat="47.86631" lon="7.12626">
        <ele>865.3</ele>
        <time>2023-05-18T13:29:21Z</time>
      </trkpt>
      <trkpt lat="47.86636" lon="7.12622">
        <ele>863.5</ele>
        <time>2023-05-18T13:29:24Z</time>
      </trkpt>
      <trkpt lat="47.8664" lon="7.12612">
        <ele>863.4</ele>
        <time>2023-05-18T13:29:33Z</time>
      </trkpt>
      <trkpt lat="47.86642" lon="7.12603">
        <ele>864.1</ele>
        <time>2023-05-18T13:29:38Z</time>
      </trkpt>
      <trkpt lat="47.86646" lon="7.12599">
        <ele>863.1</ele>
        <time>2023-05-18T13:29:41Z</time>
      </trkpt>
      <trkpt lat="47.86657" lon="7.1258">
        <ele>862</ele>
        <time>2023-05-18T13:29:52Z</time>
      </trkpt>
      <trkpt lat="47.86661" lon="7.12565">
        <ele>863.7</ele>
        <time>2023-05-18T13:29:59Z</time>
      </trkpt>
      <trkpt lat="47.86665" lon="7.12554">
        <ele>864.2</ele>
        <time>2023-05-18T13:30:08Z</time>
      </trkpt>
      <trkpt lat="47.86666" lon="7.12547">
        <ele>865.5</ele>
        <time>2023-05-18T13:30:13Z</time>
      </trkpt>
      <trkpt lat="47.8667" lon="7.12543">
        <ele>865.1</ele>
        <time>2023-05-18T13:30:17Z</time>
      </trkpt>
      <trkpt lat="47.86674" lon="7.12538">
        <ele>865</ele>
        <time>2023-05-18T13:30:21Z</time>
      </trkpt>
      <trkpt lat="47.86685" lon="7.1252">
        <ele>864.7</ele>
        <time>2023-05-18T13:30:32Z</time>
      </trkpt>
      <trkpt lat="47.8669" lon="7.12507">
        <ele>864.8</ele>
        <time>2023-05-18T13:30:41Z</time>
      </trkpt>
      <trkpt lat="47.86694" lon="7.12501">
        <ele>864</ele>
        <time>2023-05-18T13:30:45Z</time>
      </trkpt>
      <trkpt lat="47.86696" lon="7.12494">
        <ele>864.2</ele>
        <time>2023-05-18T13:30:49Z</time>
      </trkpt>
      <trkpt lat="47.867" lon="7.12487">
        <ele>863.8</ele>
        <time>2023-05-18T13:30:53Z</time>
      </trkpt>
      <trkpt lat="47.86707" lon="7.12478">
        <ele>862.8</ele>
        <time>2023-05-18T13:31:00Z</time>
      </trkpt>
      <trkpt lat="47.86713" lon="7.1245">
        <ele>864.9</ele>
        <time>2023-05-18T13:31:16Z</time>
      </trkpt>
      <trkpt lat="47.8672" lon="7.12445">
        <ele>864.3</ele>
        <time>2023-05-18T13:31:23Z</time>
      </trkpt>
      <trkpt lat="47.86725" lon="7.12448">
        <ele>862.8</ele>
        <time>2023-05-18T13:31:28Z</time>
      </trkpt>
      <trkpt lat="47.8673" lon="7.12447">
        <ele>862.1</ele>
        <time>2023-05-18T13:31:31Z</time>
      </trkpt>
      <trkpt lat="47.86736" lon="7.12443">
        <ele>861.8</ele>
        <time>2023-05-18T13:31:34Z</time>
      </trkpt>
      <trkpt lat="47.86739" lon="7.12439">
        <ele>862.2</ele>
        <time>2023-05-18T13:31:40Z</time>
      </trkpt>
      <trkpt lat="47.86748" lon="7.1243">
        <ele>862.5</ele>
        <time>2023-05-18T13:31:49Z</time>
      </trkpt>
      <trkpt lat="47.86759" lon="7.12425">
        <ele>860.6</ele>
        <time>2023-05-18T13:31:56Z</time>
      </trkpt>
      <trkpt lat="47.86765" lon="7.12415">
        <ele>860.3</ele>
        <time>2023-05-18T13:32:04Z</time>
      </trkpt>
      <trkpt lat="47.86768" lon="7.12402">
        <ele>860.9</ele>
        <time>2023-05-18T13:32:12Z</time>
      </trkpt>
      <trkpt lat="47.86771" lon="7.12396">
        <ele>860.8</ele>
        <time>2023-05-18T13:32:16Z</time>
      </trkpt>
      <trkpt lat="47.86774" lon="7.12391">
        <ele>860.7</ele>
        <time>2023-05-18T13:32:20Z</time>
      </trkpt>
      <trkpt lat="47.86778" lon="7.12382">
        <ele>860.9</ele>
        <time>2023-05-18T13:32:26Z</time>
      </trkpt>
      <trkpt lat="47.86781" lon="7.12377">
        <ele>861</ele>
        <time>2023-05-18T13:32:31Z</time>
      </trkpt>
      <trkpt lat="47.86785" lon="7.12372">
        <ele>860.9</ele>
        <time>2023-05-18T13:32:35Z</time>
      </trkpt>
      <trkpt lat="47.8679" lon="7.1235">
        <ele>862.4</ele>
        <time>2023-05-18T13:32:48Z</time>
      </trkpt>
      <trkpt lat="47.86794" lon="7.12345">
        <ele>861.8</ele>
        <time>2023-05-18T13:32:52Z</time>
      </trkpt>
      <trkpt lat="47.86797" lon="7.12339">
        <ele>861.4</ele>
        <time>2023-05-18T13:32:57Z</time>
      </trkpt>
      <trkpt lat="47.86802" lon="7.12337">
        <ele>860</ele>
        <time>2023-05-18T13:33:02Z</time>
      </trkpt>
      <trkpt lat="47.86804" lon="7.1233">
        <ele>859.6</ele>
        <time>2023-05-18T13:33:06Z</time>
      </trkpt>
      <trkpt lat="47.86809" lon="7.12329">
        <ele>859.2</ele>
        <time>2023-05-18T13:34:07Z</time>
      </trkpt>
      <trkpt lat="47.86826" lon="7.12297">
        <ele>859.8</ele>
        <time>2023-05-18T13:39:25Z</time>
      </trkpt>
      <trkpt lat="47.86827" lon="7.12296">
        <ele>859.7</ele>
        <time>2023-05-18T13:39:26Z</time>
      </trkpt>
      <trkpt lat="47.86833" lon="7.12285">
        <ele>859.3</ele>
        <time>2023-05-18T13:39:36Z</time>
      </trkpt>
      <trkpt lat="47.8684" lon="7.12285">
        <ele>860.6</ele>
        <time>2023-05-18T13:39:43Z</time>
      </trkpt>
      <trkpt lat="47.86851" lon="7.12284">
        <ele>862.7</ele>
        <time>2023-05-18T13:39:56Z</time>
      </trkpt>
      <trkpt lat="47.86879" lon="7.12268">
        <ele>867</ele>
        <time>2023-05-18T13:40:31Z</time>
      </trkpt>
      <trkpt lat="47.86884" lon="7.12266">
        <ele>868</ele>
        <time>2023-05-18T13:40:37Z</time>
      </trkpt>
      <trkpt lat="47.86893" lon="7.12267">
        <ele>870.5</ele>
        <time>2023-05-18T13:40:47Z</time>
      </trkpt>
      <trkpt lat="47.86899" lon="7.12266">
        <ele>871.5</ele>
        <time>2023-05-18T13:40:55Z</time>
      </trkpt>
      <trkpt lat="47.86921" lon="7.12273">
        <ele>877</ele>
        <time>2023-05-18T13:41:21Z</time>
      </trkpt>
      <trkpt lat="47.86926" lon="7.12276">
        <ele>877.9</ele>
        <time>2023-05-18T13:41:27Z</time>
      </trkpt>
      <trkpt lat="47.86939" lon="7.12291">
        <ele>882</ele>
        <time>2023-05-18T13:41:46Z</time>
      </trkpt>
      <trkpt lat="47.86944" lon="7.12295">
        <ele>883.3</ele>
        <time>2023-05-18T13:41:51Z</time>
      </trkpt>
      <trkpt lat="47.86948" lon="7.12301">
        <ele>884.7</ele>
        <time>2023-05-18T13:42:01Z</time>
      </trkpt>
      <trkpt lat="47.86959" lon="7.12311">
        <ele>887</ele>
        <time>2023-05-18T13:42:15Z</time>
      </trkpt>
      <trkpt lat="47.86962" lon="7.12316">
        <ele>888.2</ele>
        <time>2023-05-18T13:42:22Z</time>
      </trkpt>
      <trkpt lat="47.8697" lon="7.12322">
        <ele>889.8</ele>
        <time>2023-05-18T13:42:31Z</time>
      </trkpt>
      <trkpt lat="47.86971" lon="7.12328">
        <ele>891.5</ele>
        <time>2023-05-18T13:42:40Z</time>
      </trkpt>
      <trkpt lat="47.86975" lon="7.12333">
        <ele>892.7</ele>
        <time>2023-05-18T13:42:45Z</time>
      </trkpt>
      <trkpt lat="47.86986" lon="7.1234">
        <ele>893.8</ele>
        <time>2023-05-18T13:42:58Z</time>
      </trkpt>
      <trkpt lat="47.86993" lon="7.12344">
        <ele>894.5</ele>
        <time>2023-05-18T13:43:05Z</time>
      </trkpt>
      <trkpt lat="47.87013" lon="7.12376">
        <ele>899.9</ele>
        <time>2023-05-18T13:43:38Z</time>
      </trkpt>
      <trkpt lat="47.87017" lon="7.12383">
        <ele>900.7</ele>
        <time>2023-05-18T13:43:43Z</time>
      </trkpt>
      <trkpt lat="47.87024" lon="7.12393">
        <ele>901.2</ele>
        <time>2023-05-18T13:43:50Z</time>
      </trkpt>
      <trkpt lat="47.87028" lon="7.12404">
        <ele>901.5</ele>
        <time>2023-05-18T13:43:57Z</time>
      </trkpt>
      <trkpt lat="47.8703" lon="7.12416">
        <ele>901.6</ele>
        <time>2023-05-18T13:44:05Z</time>
      </trkpt>
      <trkpt lat="47.87029" lon="7.12423">
        <ele>903.2</ele>
        <time>2023-05-18T13:44:09Z</time>
      </trkpt>
      <trkpt lat="47.8703" lon="7.12433">
        <ele>904</ele>
        <time>2023-05-18T13:44:16Z</time>
      </trkpt>
      <trkpt lat="47.8703" lon="7.12448">
        <ele>906.5</ele>
        <time>2023-05-18T13:44:26Z</time>
      </trkpt>
      <trkpt lat="47.8703" lon="7.12456">
        <ele>908.2</ele>
        <time>2023-05-18T13:44:34Z</time>
      </trkpt>
      <trkpt lat="47.87017" lon="7.12485">
        <ele>914.6</ele>
        <time>2023-05-18T13:44:55Z</time>
      </trkpt>
      <trkpt lat="47.87017" lon="7.12491">
        <ele>915.2</ele>
        <time>2023-05-18T13:45:03Z</time>
      </trkpt>
      <trkpt lat="47.87017" lon="7.12505">
        <ele>914.4</ele>
        <time>2023-05-18T13:45:12Z</time>
      </trkpt>
      <trkpt lat="47.87022" lon="7.12508">
        <ele>915</ele>
        <time>2023-05-18T13:45:26Z</time>
      </trkpt>
      <trkpt lat="47.87027" lon="7.12507">
        <ele>917</ele>
        <time>2023-05-18T13:45:32Z</time>
      </trkpt>
      <trkpt lat="47.87032" lon="7.12508">
        <ele>915</ele>
        <time>2023-05-18T13:46:24Z</time>
      </trkpt>
      <trkpt lat="47.87031" lon="7.12502">
        <ele>917.5</ele>
        <time>2023-05-18T13:46:40Z</time>
      </trkpt>
      <trkpt lat="47.87034" lon="7.12495">
        <ele>915.1</ele>
        <time>2023-05-18T13:47:06Z</time>
      </trkpt>
      <trkpt lat="47.87038" lon="7.12497">
        <ele>913.3</ele>
        <time>2023-05-18T13:47:23Z</time>
      </trkpt>
      <trkpt lat="47.87042" lon="7.12495">
        <ele>910.5</ele>
        <time>2023-05-18T13:47:47Z</time>
      </trkpt>
      <trkpt lat="47.87017" lon="7.1247">
        <ele>913.2</ele>
        <time>2023-05-18T13:52:51Z</time>
      </trkpt>
      <trkpt lat="47.87021" lon="7.12457">
        <ele>911</ele>
        <time>2023-05-18T13:53:00Z</time>
      </trkpt>
      <trkpt lat="47.87026" lon="7.12456">
        <ele>909.9</ele>
        <time>2023-05-18T13:53:05Z</time>
      </trkpt>
      <trkpt lat="47.87028" lon="7.12464">
        <ele>911.1</ele>
        <time>2023-05-18T13:53:30Z</time>
      </trkpt>
      <trkpt lat="47.87036" lon="7.12461">
        <ele>905.7</ele>
        <time>2023-05-18T13:53:48Z</time>
      </trkpt>
      <trkpt lat="47.87048" lon="7.1248">
        <ele>902.8</ele>
        <time>2023-05-18T13:54:09Z</time>
      </trkpt>
      <trkpt lat="47.87054" lon="7.12497">
        <ele>904</ele>
        <time>2023-05-18T13:54:21Z</time>
      </trkpt>
      <trkpt lat="47.87072" lon="7.12515">
        <ele>893.6</ele>
        <time>2023-05-18T13:54:37Z</time>
      </trkpt>
      <trkpt lat="47.87077" lon="7.12521">
        <ele>890.7</ele>
        <time>2023-05-18T13:54:42Z</time>
      </trkpt>
      <trkpt lat="47.87082" lon="7.12539">
        <ele>888.5</ele>
        <time>2023-05-18T13:54:54Z</time>
      </trkpt>
      <trkpt lat="47.87087" lon="7.12544">
        <ele>886.3</ele>
        <time>2023-05-18T13:54:58Z</time>
      </trkpt>
      <trkpt lat="47.87091" lon="7.12545">
        <ele>884.4</ele>
        <time>2023-05-18T13:55:02Z</time>
      </trkpt>
      <trkpt lat="47.87094" lon="7.1255">
        <ele>883.5</ele>
        <time>2023-05-18T13:55:05Z</time>
      </trkpt>
      <trkpt lat="47.87106" lon="7.12566">
        <ele>880.1</ele>
        <time>2023-05-18T13:55:19Z</time>
      </trkpt>
      <trkpt lat="47.87115" lon="7.12574">
        <ele>878.1</ele>
        <time>2023-05-18T13:55:26Z</time>
      </trkpt>
      <trkpt lat="47.87121" lon="7.12587">
        <ele>877.8</ele>
        <time>2023-05-18T13:55:34Z</time>
      </trkpt>
      <trkpt lat="47.87128" lon="7.12593">
        <ele>875.6</ele>
        <time>2023-05-18T13:55:39Z</time>
      </trkpt>
      <trkpt lat="47.87131" lon="7.12597">
        <ele>875.1</ele>
        <time>2023-05-18T13:55:41Z</time>
      </trkpt>
      <trkpt lat="47.87143" lon="7.12622">
        <ele>875.4</ele>
        <time>2023-05-18T13:55:59Z</time>
      </trkpt>
      <trkpt lat="47.8715" lon="7.12633">
        <ele>874.5</ele>
        <time>2023-05-18T13:56:07Z</time>
      </trkpt>
      <trkpt lat="47.87156" lon="7.12649">
        <ele>873.3</ele>
        <time>2023-05-18T13:56:16Z</time>
      </trkpt>
      <trkpt lat="47.87156" lon="7.12656">
        <ele>873.6</ele>
        <time>2023-05-18T13:56:21Z</time>
      </trkpt>
      <trkpt lat="47.87161" lon="7.1266">
        <ele>872.5</ele>
        <time>2023-05-18T13:56:25Z</time>
      </trkpt>
      <trkpt lat="47.87164" lon="7.12665">
        <ele>872.3</ele>
        <time>2023-05-18T13:56:30Z</time>
      </trkpt>
      <trkpt lat="47.87164" lon="7.12672">
        <ele>872.3</ele>
        <time>2023-05-18T13:56:33Z</time>
      </trkpt>
      <trkpt lat="47.87176" lon="7.1269">
        <ele>869.4</ele>
        <time>2023-05-18T13:56:45Z</time>
      </trkpt>
      <trkpt lat="47.87181" lon="7.12696">
        <ele>868.6</ele>
        <time>2023-05-18T13:56:51Z</time>
      </trkpt>
      <trkpt lat="47.87184" lon="7.12701">
        <ele>868.7</ele>
        <time>2023-05-18T13:56:55Z</time>
      </trkpt>
      <trkpt lat="47.8719" lon="7.1271">
        <ele>868.8</ele>
        <time>2023-05-18T13:57:00Z</time>
      </trkpt>
      <trkpt lat="47.87195" lon="7.12713">
        <ele>868.1</ele>
        <time>2023-05-18T13:57:04Z</time>
      </trkpt>
      <trkpt lat="47.87199" lon="7.12716">
        <ele>867.2</ele>
        <time>2023-05-18T13:57:08Z</time>
      </trkpt>
      <trkpt lat="47.87224" lon="7.12737">
        <ele>863.4</ele>
        <time>2023-05-18T13:57:35Z</time>
      </trkpt>
      <trkpt lat="47.87238" lon="7.12741">
        <ele>861.9</ele>
        <time>2023-05-18T13:57:48Z</time>
      </trkpt>
      <trkpt lat="47.87256" lon="7.12734">
        <ele>857.2</ele>
        <time>2023-05-18T13:58:03Z</time>
      </trkpt>
      <trkpt lat="47.87261" lon="7.12733">
        <ele>856.4</ele>
        <time>2023-05-18T13:58:07Z</time>
      </trkpt>
      <trkpt lat="47.87266" lon="7.12734">
        <ele>856</ele>
        <time>2023-05-18T13:58:11Z</time>
      </trkpt>
      <trkpt lat="47.87274" lon="7.12741">
        <ele>856.6</ele>
        <time>2023-05-18T13:58:17Z</time>
      </trkpt>
      <trkpt lat="47.87278" lon="7.12745">
        <ele>856.9</ele>
        <time>2023-05-18T13:58:20Z</time>
      </trkpt>
      <trkpt lat="47.87304" lon="7.12771">
        <ele>856.8</ele>
        <time>2023-05-18T13:58:44Z</time>
      </trkpt>
      <trkpt lat="47.87308" lon="7.12772">
        <ele>856.8</ele>
        <time>2023-05-18T13:58:48Z</time>
      </trkpt>
      <trkpt lat="47.87312" lon="7.1277">
        <ele>857.2</ele>
        <time>2023-05-18T13:58:53Z</time>
      </trkpt>
      <trkpt lat="47.87316" lon="7.12764">
        <ele>857.5</ele>
        <time>2023-05-18T13:58:57Z</time>
      </trkpt>
      <trkpt lat="47.87316" lon="7.12741">
        <ele>856.4</ele>
        <time>2023-05-18T13:59:10Z</time>
      </trkpt>
      <trkpt lat="47.87315" lon="7.12734">
        <ele>855.5</ele>
        <time>2023-05-18T13:59:14Z</time>
      </trkpt>
      <trkpt lat="47.87314" lon="7.12719">
        <ele>853.7</ele>
        <time>2023-05-18T13:59:23Z</time>
      </trkpt>
      <trkpt lat="47.87315" lon="7.12697">
        <ele>852</ele>
        <time>2023-05-18T13:59:37Z</time>
      </trkpt>
      <trkpt lat="47.87316" lon="7.12683">
        <ele>850.3</ele>
        <time>2023-05-18T13:59:45Z</time>
      </trkpt>
      <trkpt lat="47.87317" lon="7.12676">
        <ele>849.6</ele>
        <time>2023-05-18T13:59:49Z</time>
      </trkpt>
      <trkpt lat="47.87319" lon="7.1267">
        <ele>849.4</ele>
        <time>2023-05-18T13:59:53Z</time>
      </trkpt>
      <trkpt lat="47.87321" lon="7.12663">
        <ele>848.3</ele>
        <time>2023-05-18T13:59:57Z</time>
      </trkpt>
      <trkpt lat="47.87325" lon="7.12658">
        <ele>847.8</ele>
        <time>2023-05-18T14:00:02Z</time>
      </trkpt>
      <trkpt lat="47.87328" lon="7.12653">
        <ele>847</ele>
        <time>2023-05-18T14:00:07Z</time>
      </trkpt>
      <trkpt lat="47.87333" lon="7.12649">
        <ele>846.9</ele>
        <time>2023-05-18T14:00:11Z</time>
      </trkpt>
      <trkpt lat="47.8735" lon="7.12638">
        <ele>842.8</ele>
        <time>2023-05-18T14:00:27Z</time>
      </trkpt>
      <trkpt lat="47.87361" lon="7.12638">
        <ele>842.8</ele>
        <time>2023-05-18T14:00:35Z</time>
      </trkpt>
      <trkpt lat="47.87365" lon="7.1264">
        <ele>842.8</ele>
        <time>2023-05-18T14:00:38Z</time>
      </trkpt>
      <trkpt lat="47.87371" lon="7.12642">
        <ele>842.6</ele>
        <time>2023-05-18T14:00:42Z</time>
      </trkpt>
      <trkpt lat="47.87375" lon="7.12645">
        <ele>842.6</ele>
        <time>2023-05-18T14:00:45Z</time>
      </trkpt>
      <trkpt lat="47.87388" lon="7.12654">
        <ele>841.8</ele>
        <time>2023-05-18T14:00:56Z</time>
      </trkpt>
      <trkpt lat="47.87393" lon="7.12658">
        <ele>841.4</ele>
        <time>2023-05-18T14:01:01Z</time>
      </trkpt>
      <trkpt lat="47.87397" lon="7.12661">
        <ele>841.2</ele>
        <time>2023-05-18T14:01:04Z</time>
      </trkpt>
      <trkpt lat="47.87407" lon="7.12667">
        <ele>840.4</ele>
        <time>2023-05-18T14:01:12Z</time>
      </trkpt>
      <trkpt lat="47.87445" lon="7.12681">
        <ele>835.4</ele>
        <time>2023-05-18T14:01:46Z</time>
      </trkpt>
      <trkpt lat="47.87486" lon="7.12699">
        <ele>829.4</ele>
        <time>2023-05-18T14:02:17Z</time>
      </trkpt>
      <trkpt lat="47.8752" lon="7.12718">
        <ele>826.4</ele>
        <time>2023-05-18T14:02:41Z</time>
      </trkpt>
      <trkpt lat="47.8753" lon="7.12719">
        <ele>826.1</ele>
        <time>2023-05-18T14:02:47Z</time>
      </trkpt>
      <trkpt lat="47.87534" lon="7.12724">
        <ele>826.8</ele>
        <time>2023-05-18T14:02:51Z</time>
      </trkpt>
      <trkpt lat="47.87538" lon="7.12734">
        <ele>827.5</ele>
        <time>2023-05-18T14:03:02Z</time>
      </trkpt>
      <trkpt lat="47.87543" lon="7.12739">
        <ele>827.9</ele>
        <time>2023-05-18T14:03:13Z</time>
      </trkpt>
      <trkpt lat="47.87549" lon="7.12741">
        <ele>828.1</ele>
        <time>2023-05-18T14:03:18Z</time>
      </trkpt>
      <trkpt lat="47.87554" lon="7.12741">
        <ele>828.3</ele>
        <time>2023-05-18T14:03:22Z</time>
      </trkpt>
      <trkpt lat="47.87563" lon="7.12734">
        <ele>829.6</ele>
        <time>2023-05-18T14:03:29Z</time>
      </trkpt>
      <trkpt lat="47.87567" lon="7.12728">
        <ele>830.4</ele>
        <time>2023-05-18T14:03:34Z</time>
      </trkpt>
      <trkpt lat="47.87569" lon="7.12721">
        <ele>830.9</ele>
        <time>2023-05-18T14:03:39Z</time>
      </trkpt>
      <trkpt lat="47.87566" lon="7.12716">
        <ele>830.3</ele>
        <time>2023-05-18T14:03:59Z</time>
      </trkpt>
      <trkpt lat="47.87569" lon="7.12711">
        <ele>830.5</ele>
        <time>2023-05-18T14:04:03Z</time>
      </trkpt>
      <trkpt lat="47.87582" lon="7.12708">
        <ele>832.3</ele>
        <time>2023-05-18T14:04:15Z</time>
      </trkpt>
      <trkpt lat="47.87611" lon="7.12711">
        <ele>838</ele>
        <time>2023-05-18T14:04:46Z</time>
      </trkpt>
      <trkpt lat="47.87617" lon="7.12713">
        <ele>839.2</ele>
        <time>2023-05-18T14:04:54Z</time>
      </trkpt>
      <trkpt lat="47.87618" lon="7.12719">
        <ele>839.5</ele>
        <time>2023-05-18T14:04:58Z</time>
      </trkpt>
      <trkpt lat="47.8762" lon="7.12727">
        <ele>839.3</ele>
        <time>2023-05-18T14:05:02Z</time>
      </trkpt>
      <trkpt lat="47.87622" lon="7.12732">
        <ele>839.2</ele>
        <time>2023-05-18T14:05:05Z</time>
      </trkpt>
      <trkpt lat="47.87625" lon="7.12736">
        <ele>839.3</ele>
        <time>2023-05-18T14:05:09Z</time>
      </trkpt>
      <trkpt lat="47.8763" lon="7.12737">
        <ele>840.1</ele>
        <time>2023-05-18T14:05:15Z</time>
      </trkpt>
      <trkpt lat="47.87635" lon="7.12737">
        <ele>841.1</ele>
        <time>2023-05-18T14:05:19Z</time>
      </trkpt>
      <trkpt lat="47.87662" lon="7.12749">
        <ele>845.9</ele>
        <time>2023-05-18T14:05:42Z</time>
      </trkpt>
      <trkpt lat="47.87668" lon="7.12755">
        <ele>846.2</ele>
        <time>2023-05-18T14:05:48Z</time>
      </trkpt>
      <trkpt lat="47.87675" lon="7.12757">
        <ele>847.1</ele>
        <time>2023-05-18T14:05:55Z</time>
      </trkpt>
      <trkpt lat="47.87678" lon="7.12754">
        <ele>848.4</ele>
        <time>2023-05-18T14:05:59Z</time>
      </trkpt>
      <trkpt lat="47.87683" lon="7.12755">
        <ele>849.1</ele>
        <time>2023-05-18T14:06:07Z</time>
      </trkpt>
      <trkpt lat="47.87695" lon="7.12752">
        <ele>852.2</ele>
        <time>2023-05-18T14:06:20Z</time>
      </trkpt>
      <trkpt lat="47.877" lon="7.12748">
        <ele>851.9</ele>
        <time>2023-05-18T14:06:28Z</time>
      </trkpt>
      <trkpt lat="47.87706" lon="7.12744">
        <ele>850.9</ele>
        <time>2023-05-18T14:06:35Z</time>
      </trkpt>
      <trkpt lat="47.87712" lon="7.12736">
        <ele>850.3</ele>
        <time>2023-05-18T14:06:44Z</time>
      </trkpt>
      <trkpt lat="47.87715" lon="7.1273">
        <ele>850.3</ele>
        <time>2023-05-18T14:06:48Z</time>
      </trkpt>
      <trkpt lat="47.8773" lon="7.12721">
        <ele>850.2</ele>
        <time>2023-05-18T14:06:59Z</time>
      </trkpt>
      <trkpt lat="47.8775" lon="7.12718">
        <ele>850.8</ele>
        <time>2023-05-18T14:07:12Z</time>
      </trkpt>
      <trkpt lat="47.87754" lon="7.12723">
        <ele>851.7</ele>
        <time>2023-05-18T14:07:21Z</time>
      </trkpt>
      <trkpt lat="47.87758" lon="7.12727">
        <ele>852</ele>
        <time>2023-05-18T14:07:24Z</time>
      </trkpt>
      <trkpt lat="47.87768" lon="7.12733">
        <ele>853.1</ele>
        <time>2023-05-18T14:07:31Z</time>
      </trkpt>
      <trkpt lat="47.87775" lon="7.12735">
        <ele>854.1</ele>
        <time>2023-05-18T14:07:34Z</time>
      </trkpt>
      <trkpt lat="47.8778" lon="7.12735">
        <ele>855.3</ele>
        <time>2023-05-18T14:07:37Z</time>
      </trkpt>
      <trkpt lat="47.87814" lon="7.12744">
        <ele>861.9</ele>
        <time>2023-05-18T14:08:10Z</time>
      </trkpt>
      <trkpt lat="47.87818" lon="7.12744">
        <ele>862.6</ele>
        <time>2023-05-18T14:08:14Z</time>
      </trkpt>
      <trkpt lat="47.87832" lon="7.12749">
        <ele>864.8</ele>
        <time>2023-05-18T14:08:29Z</time>
      </trkpt>
      <trkpt lat="47.87837" lon="7.12753">
        <ele>865.3</ele>
        <time>2023-05-18T14:08:33Z</time>
      </trkpt>
      <trkpt lat="47.87846" lon="7.12762">
        <ele>865.8</ele>
        <time>2023-05-18T14:08:38Z</time>
      </trkpt>
      <trkpt lat="47.8785" lon="7.12763">
        <ele>866.9</ele>
        <time>2023-05-18T14:08:43Z</time>
      </trkpt>
      <trkpt lat="47.87866" lon="7.12769">
        <ele>871.1</ele>
        <time>2023-05-18T14:09:06Z</time>
      </trkpt>
      <trkpt lat="47.8787" lon="7.12773">
        <ele>871.7</ele>
        <time>2023-05-18T14:09:16Z</time>
      </trkpt>
      <trkpt lat="47.87877" lon="7.12776">
        <ele>873.7</ele>
        <time>2023-05-18T14:09:21Z</time>
      </trkpt>
      <trkpt lat="47.87885" lon="7.12785">
        <ele>873.9</ele>
        <time>2023-05-18T14:09:27Z</time>
      </trkpt>
      <trkpt lat="47.8789" lon="7.12788">
        <ele>874.6</ele>
        <time>2023-05-18T14:09:32Z</time>
      </trkpt>
      <trkpt lat="47.87895" lon="7.12789">
        <ele>875.7</ele>
        <time>2023-05-18T14:09:38Z</time>
      </trkpt>
      <trkpt lat="47.87908" lon="7.12801">
        <ele>876.6</ele>
        <time>2023-05-18T14:09:56Z</time>
      </trkpt>
      <trkpt lat="47.87916" lon="7.12803">
        <ele>879.2</ele>
        <time>2023-05-18T14:10:09Z</time>
      </trkpt>
      <trkpt lat="47.87919" lon="7.12807">
        <ele>879.2</ele>
        <time>2023-05-18T14:10:17Z</time>
      </trkpt>
      <trkpt lat="47.8793" lon="7.12813">
        <ele>881.2</ele>
        <time>2023-05-18T14:10:23Z</time>
      </trkpt>
      <trkpt lat="47.8795" lon="7.12832">
        <ele>885.5</ele>
        <time>2023-05-18T14:10:46Z</time>
      </trkpt>
      <trkpt lat="47.87956" lon="7.12837">
        <ele>886.2</ele>
        <time>2023-05-18T14:10:54Z</time>
      </trkpt>
      <trkpt lat="47.8796" lon="7.12841">
        <ele>886.6</ele>
        <time>2023-05-18T14:10:58Z</time>
      </trkpt>
      <trkpt lat="47.87968" lon="7.12845">
        <ele>888.4</ele>
        <time>2023-05-18T14:11:08Z</time>
      </trkpt>
      <trkpt lat="47.8797" lon="7.12852">
        <ele>888.2</ele>
        <time>2023-05-18T14:11:13Z</time>
      </trkpt>
      <trkpt lat="47.87975" lon="7.12855">
        <ele>889.2</ele>
        <time>2023-05-18T14:11:17Z</time>
      </trkpt>
      <trkpt lat="47.87986" lon="7.12862">
        <ele>890.9</ele>
        <time>2023-05-18T14:11:29Z</time>
      </trkpt>
      <trkpt lat="47.8799" lon="7.12867">
        <ele>891.4</ele>
        <time>2023-05-18T14:11:32Z</time>
      </trkpt>
      <trkpt lat="47.87998" lon="7.12868">
        <ele>893.3</ele>
        <time>2023-05-18T14:11:42Z</time>
      </trkpt>
      <trkpt lat="47.88007" lon="7.12867">
        <ele>894</ele>
        <time>2023-05-18T14:11:55Z</time>
      </trkpt>
      <trkpt lat="47.88012" lon="7.12871">
        <ele>894.3</ele>
        <time>2023-05-18T14:11:58Z</time>
      </trkpt>
      <trkpt lat="47.88015" lon="7.12875">
        <ele>894.6</ele>
        <time>2023-05-18T14:12:02Z</time>
      </trkpt>
      <trkpt lat="47.8802" lon="7.12877">
        <ele>895.1</ele>
        <time>2023-05-18T14:12:06Z</time>
      </trkpt>
      <trkpt lat="47.88029" lon="7.12889">
        <ele>897</ele>
        <time>2023-05-18T14:12:18Z</time>
      </trkpt>
      <trkpt lat="47.88033" lon="7.12891">
        <ele>897</ele>
        <time>2023-05-18T14:12:21Z</time>
      </trkpt>
      <trkpt lat="47.8804" lon="7.12896">
        <ele>897.3</ele>
        <time>2023-05-18T14:12:30Z</time>
      </trkpt>
      <trkpt lat="47.88043" lon="7.12903">
        <ele>897.8</ele>
        <time>2023-05-18T14:12:37Z</time>
      </trkpt>
      <trkpt lat="47.88049" lon="7.12905">
        <ele>898.3</ele>
        <time>2023-05-18T14:12:44Z</time>
      </trkpt>
      <trkpt lat="47.88056" lon="7.12903">
        <ele>898.5</ele>
        <time>2023-05-18T14:12:51Z</time>
      </trkpt>
      <trkpt lat="47.88062" lon="7.12902">
        <ele>898.3</ele>
        <time>2023-05-18T14:12:55Z</time>
      </trkpt>
      <trkpt lat="47.88067" lon="7.12905">
        <ele>898.4</ele>
        <time>2023-05-18T14:12:58Z</time>
      </trkpt>
      <trkpt lat="47.88079" lon="7.12904">
        <ele>898.1</ele>
        <time>2023-05-18T14:13:08Z</time>
      </trkpt>
      <trkpt lat="47.88083" lon="7.12901">
        <ele>898</ele>
        <time>2023-05-18T14:13:12Z</time>
      </trkpt>
      <trkpt lat="47.88089" lon="7.12895">
        <ele>899.2</ele>
        <time>2023-05-18T14:13:19Z</time>
      </trkpt>
      <trkpt lat="47.88094" lon="7.12883">
        <ele>900.2</ele>
        <time>2023-05-18T14:13:28Z</time>
      </trkpt>
      <trkpt lat="47.88104" lon="7.12873">
        <ele>902</ele>
        <time>2023-05-18T14:13:40Z</time>
      </trkpt>
      <trkpt lat="47.88117" lon="7.12855">
        <ele>903.5</ele>
        <time>2023-05-18T14:14:03Z</time>
      </trkpt>
      <trkpt lat="47.88118" lon="7.12847">
        <ele>902.6</ele>
        <time>2023-05-18T14:14:07Z</time>
      </trkpt>
      <trkpt lat="47.88128" lon="7.1285">
        <ele>904.7</ele>
        <time>2023-05-18T14:14:15Z</time>
      </trkpt>
      <trkpt lat="47.88132" lon="7.12845">
        <ele>904.5</ele>
        <time>2023-05-18T14:14:21Z</time>
      </trkpt>
      <trkpt lat="47.88141" lon="7.12842">
        <ele>905</ele>
        <time>2023-05-18T14:14:29Z</time>
      </trkpt>
      <trkpt lat="47.88152" lon="7.12839">
        <ele>904.8</ele>
        <time>2023-05-18T14:14:44Z</time>
      </trkpt>
      <trkpt lat="47.88166" lon="7.12848">
        <ele>907.7</ele>
        <time>2023-05-18T14:14:55Z</time>
      </trkpt>
      <trkpt lat="47.88185" lon="7.12862">
        <ele>910.6</ele>
        <time>2023-05-18T14:15:17Z</time>
      </trkpt>
      <trkpt lat="47.88214" lon="7.12879">
        <ele>914.4</ele>
        <time>2023-05-18T14:15:50Z</time>
      </trkpt>
      <trkpt lat="47.88223" lon="7.12886">
        <ele>916.1</ele>
        <time>2023-05-18T14:15:57Z</time>
      </trkpt>
      <trkpt lat="47.88251" lon="7.12894">
        <ele>917.9</ele>
        <time>2023-05-18T14:16:23Z</time>
      </trkpt>
      <trkpt lat="47.88256" lon="7.129">
        <ele>920.2</ele>
        <time>2023-05-18T14:16:29Z</time>
      </trkpt>
      <trkpt lat="47.88262" lon="7.129">
        <ele>920.4</ele>
        <time>2023-05-18T14:16:37Z</time>
      </trkpt>
      <trkpt lat="47.88267" lon="7.12903">
        <ele>921.7</ele>
        <time>2023-05-18T14:16:41Z</time>
      </trkpt>
      <trkpt lat="47.88273" lon="7.12902">
        <ele>921.5</ele>
        <time>2023-05-18T14:16:49Z</time>
      </trkpt>
      <trkpt lat="47.88283" lon="7.12906">
        <ele>923.2</ele>
        <time>2023-05-18T14:17:00Z</time>
      </trkpt>
      <trkpt lat="47.88298" lon="7.12908">
        <ele>924.1</ele>
        <time>2023-05-18T14:17:13Z</time>
      </trkpt>
      <trkpt lat="47.88309" lon="7.12917">
        <ele>927</ele>
        <time>2023-05-18T14:17:24Z</time>
      </trkpt>
      <trkpt lat="47.88313" lon="7.12924">
        <ele>928.8</ele>
        <time>2023-05-18T14:17:32Z</time>
      </trkpt>
      <trkpt lat="47.88319" lon="7.12925">
        <ele>928.9</ele>
        <time>2023-05-18T14:17:38Z</time>
      </trkpt>
      <trkpt lat="47.88344" lon="7.12935">
        <ele>930.4</ele>
        <time>2023-05-18T14:18:02Z</time>
      </trkpt>
      <trkpt lat="47.8835" lon="7.12943">
        <ele>932.4</ele>
        <time>2023-05-18T14:18:12Z</time>
      </trkpt>
      <trkpt lat="47.88382" lon="7.12957">
        <ele>936.3</ele>
        <time>2023-05-18T14:18:39Z</time>
      </trkpt>
      <trkpt lat="47.88389" lon="7.12954">
        <ele>935.5</ele>
        <time>2023-05-18T14:18:49Z</time>
      </trkpt>
      <trkpt lat="47.88394" lon="7.12955">
        <ele>936.7</ele>
        <time>2023-05-18T14:18:55Z</time>
      </trkpt>
      <trkpt lat="47.88401" lon="7.1296">
        <ele>939.5</ele>
        <time>2023-05-18T14:19:05Z</time>
      </trkpt>
      <trkpt lat="47.88408" lon="7.12958">
        <ele>940</ele>
        <time>2023-05-18T14:19:09Z</time>
      </trkpt>
      <trkpt lat="47.88425" lon="7.12959">
        <ele>944</ele>
        <time>2023-05-18T14:19:25Z</time>
      </trkpt>
      <trkpt lat="47.88429" lon="7.12956">
        <ele>944.1</ele>
        <time>2023-05-18T14:19:29Z</time>
      </trkpt>
      <trkpt lat="47.88444" lon="7.12951">
        <ele>946.8</ele>
        <time>2023-05-18T14:19:44Z</time>
      </trkpt>
      <trkpt lat="47.8845" lon="7.12947">
        <ele>948.1</ele>
        <time>2023-05-18T14:19:50Z</time>
      </trkpt>
      <trkpt lat="47.88452" lon="7.1294">
        <ele>947.1</ele>
        <time>2023-05-18T14:19:56Z</time>
      </trkpt>
      <trkpt lat="47.88455" lon="7.12929">
        <ele>945.7</ele>
        <time>2023-05-18T14:20:04Z</time>
      </trkpt>
      <trkpt lat="47.88462" lon="7.12922">
        <ele>946.9</ele>
        <time>2023-05-18T14:20:14Z</time>
      </trkpt>
      <trkpt lat="47.88465" lon="7.12916">
        <ele>946.7</ele>
        <time>2023-05-18T14:20:19Z</time>
      </trkpt>
      <trkpt lat="47.88474" lon="7.12909">
        <ele>949.1</ele>
        <time>2023-05-18T14:20:28Z</time>
      </trkpt>
      <trkpt lat="47.88493" lon="7.12881">
        <ele>950.8</ele>
        <time>2023-05-18T14:20:56Z</time>
      </trkpt>
      <trkpt lat="47.88497" lon="7.12878">
        <ele>951.7</ele>
        <time>2023-05-18T14:21:00Z</time>
      </trkpt>
      <trkpt lat="47.88528" lon="7.12869">
        <ele>956.3</ele>
        <time>2023-05-18T14:21:31Z</time>
      </trkpt>
      <trkpt lat="47.88533" lon="7.1287">
        <ele>957.4</ele>
        <time>2023-05-18T14:21:34Z</time>
      </trkpt>
      <trkpt lat="47.88537" lon="7.12868">
        <ele>957.4</ele>
        <time>2023-05-18T14:21:38Z</time>
      </trkpt>
      <trkpt lat="47.88543" lon="7.12866">
        <ele>957.7</ele>
        <time>2023-05-18T14:21:44Z</time>
      </trkpt>
      <trkpt lat="47.88552" lon="7.12859">
        <ele>956.8</ele>
        <time>2023-05-18T14:21:52Z</time>
      </trkpt>
      <trkpt lat="47.88557" lon="7.12858">
        <ele>957</ele>
        <time>2023-05-18T14:21:57Z</time>
      </trkpt>
      <trkpt lat="47.88566" lon="7.12856">
        <ele>956.8</ele>
        <time>2023-05-18T14:22:07Z</time>
      </trkpt>
      <trkpt lat="47.8857" lon="7.12855">
        <ele>956.7</ele>
        <time>2023-05-18T14:22:12Z</time>
      </trkpt>
      <trkpt lat="47.88576" lon="7.12855">
        <ele>956.9</ele>
        <time>2023-05-18T14:22:16Z</time>
      </trkpt>
      <trkpt lat="47.88581" lon="7.12854">
        <ele>956.8</ele>
        <time>2023-05-18T14:22:20Z</time>
      </trkpt>
      <trkpt lat="47.88588" lon="7.12848">
        <ele>955.4</ele>
        <time>2023-05-18T14:22:29Z</time>
      </trkpt>
      <trkpt lat="47.88593" lon="7.12849">
        <ele>955.8</ele>
        <time>2023-05-18T14:22:32Z</time>
      </trkpt>
      <trkpt lat="47.88598" lon="7.1285">
        <ele>956.2</ele>
        <time>2023-05-18T14:22:36Z</time>
      </trkpt>
      <trkpt lat="47.88603" lon="7.12849">
        <ele>956.1</ele>
        <time>2023-05-18T14:22:41Z</time>
      </trkpt>
      <trkpt lat="47.88613" lon="7.1285">
        <ele>956.7</ele>
        <time>2023-05-18T14:22:49Z</time>
      </trkpt>
      <trkpt lat="47.88628" lon="7.12847">
        <ele>956.6</ele>
        <time>2023-05-18T14:23:01Z</time>
      </trkpt>
      <trkpt lat="47.88632" lon="7.12843">
        <ele>956.1</ele>
        <time>2023-05-18T14:23:06Z</time>
      </trkpt>
      <trkpt lat="47.8864" lon="7.12836">
        <ele>955.4</ele>
        <time>2023-05-18T14:23:14Z</time>
      </trkpt>
      <trkpt lat="47.88655" lon="7.12816">
        <ele>954.4</ele>
        <time>2023-05-18T14:23:31Z</time>
      </trkpt>
      <trkpt lat="47.8866" lon="7.12814">
        <ele>954.7</ele>
        <time>2023-05-18T14:23:36Z</time>
      </trkpt>
      <trkpt lat="47.88664" lon="7.12812">
        <ele>955</ele>
        <time>2023-05-18T14:23:41Z</time>
      </trkpt>
      <trkpt lat="47.88669" lon="7.12812">
        <ele>955.1</ele>
        <time>2023-05-18T14:23:46Z</time>
      </trkpt>
      <trkpt lat="47.88675" lon="7.1281">
        <ele>954.9</ele>
        <time>2023-05-18T14:23:54Z</time>
      </trkpt>
      <trkpt lat="47.88679" lon="7.12809">
        <ele>954.7</ele>
        <time>2023-05-18T14:23:59Z</time>
      </trkpt>
      <trkpt lat="47.88679" lon="7.12803">
        <ele>954.5</ele>
        <time>2023-05-18T14:25:18Z</time>
      </trkpt>
      <trkpt lat="47.88675" lon="7.12802">
        <ele>954.6</ele>
        <time>2023-05-18T14:25:48Z</time>
      </trkpt>
      <trkpt lat="47.88695" lon="7.12766">
        <ele>954.4</ele>
        <time>2023-05-18T14:39:28Z</time>
      </trkpt>
      <trkpt lat="47.88699" lon="7.12752">
        <ele>954.4</ele>
        <time>2023-05-18T14:39:37Z</time>
      </trkpt>
      <trkpt lat="47.88703" lon="7.12742">
        <ele>954.9</ele>
        <time>2023-05-18T14:39:44Z</time>
      </trkpt>
      <trkpt lat="47.88706" lon="7.12736">
        <ele>955.1</ele>
        <time>2023-05-18T14:39:48Z</time>
      </trkpt>
      <trkpt lat="47.88709" lon="7.12728">
        <ele>955.4</ele>
        <time>2023-05-18T14:39:55Z</time>
      </trkpt>
      <trkpt lat="47.88709" lon="7.12721">
        <ele>956.1</ele>
        <time>2023-05-18T14:39:59Z</time>
      </trkpt>
      <trkpt lat="47.8871" lon="7.12713">
        <ele>957.3</ele>
        <time>2023-05-18T14:40:03Z</time>
      </trkpt>
      <trkpt lat="47.88713" lon="7.12708">
        <ele>957.7</ele>
        <time>2023-05-18T14:40:14Z</time>
      </trkpt>
      <trkpt lat="47.88713" lon="7.12707">
        <ele>957.9</ele>
        <time>2023-05-18T14:41:15Z</time>
      </trkpt>
      <trkpt lat="47.88716" lon="7.12692">
        <ele>960.2</ele>
        <time>2023-05-18T14:41:29Z</time>
      </trkpt>
      <trkpt lat="47.88719" lon="7.12686">
        <ele>961.1</ele>
        <time>2023-05-18T14:41:35Z</time>
      </trkpt>
      <trkpt lat="47.88722" lon="7.1268">
        <ele>962.1</ele>
        <time>2023-05-18T14:41:39Z</time>
      </trkpt>
      <trkpt lat="47.88728" lon="7.12675">
        <ele>962.3</ele>
        <time>2023-05-18T14:41:43Z</time>
      </trkpt>
      <trkpt lat="47.88732" lon="7.12672">
        <ele>962.5</ele>
        <time>2023-05-18T14:41:46Z</time>
      </trkpt>
      <trkpt lat="47.88734" lon="7.12654">
        <ele>966.3</ele>
        <time>2023-05-18T14:41:55Z</time>
      </trkpt>
      <trkpt lat="47.88739" lon="7.1265">
        <ele>966.4</ele>
        <time>2023-05-18T14:41:58Z</time>
      </trkpt>
      <trkpt lat="47.88747" lon="7.12637">
        <ele>968</ele>
        <time>2023-05-18T14:42:06Z</time>
      </trkpt>
      <trkpt lat="47.88747" lon="7.12629">
        <ele>970.2</ele>
        <time>2023-05-18T14:42:10Z</time>
      </trkpt>
      <trkpt lat="47.8876" lon="7.12618">
        <ele>972.9</ele>
        <time>2023-05-18T14:42:23Z</time>
      </trkpt>
      <trkpt lat="47.88773" lon="7.12617">
        <ele>973.1</ele>
        <time>2023-05-18T14:42:32Z</time>
      </trkpt>
      <trkpt lat="47.88778" lon="7.12613">
        <ele>974.4</ele>
        <time>2023-05-18T14:42:36Z</time>
      </trkpt>
      <trkpt lat="47.88785" lon="7.12613">
        <ele>973.9</ele>
        <time>2023-05-18T14:42:40Z</time>
      </trkpt>
      <trkpt lat="47.88796" lon="7.12611">
        <ele>973.7</ele>
        <time>2023-05-18T14:42:52Z</time>
      </trkpt>
      <trkpt lat="47.88799" lon="7.12605">
        <ele>975.2</ele>
        <time>2023-05-18T14:42:55Z</time>
      </trkpt>
      <trkpt lat="47.88813" lon="7.12593">
        <ele>976.9</ele>
        <time>2023-05-18T14:43:09Z</time>
      </trkpt>
      <trkpt lat="47.8882" lon="7.12592">
        <ele>975.9</ele>
        <time>2023-05-18T14:43:14Z</time>
      </trkpt>
      <trkpt lat="47.88822" lon="7.12586">
        <ele>976.9</ele>
        <time>2023-05-18T14:43:18Z</time>
      </trkpt>
      <trkpt lat="47.88826" lon="7.1258">
        <ele>977.1</ele>
        <time>2023-05-18T14:43:22Z</time>
      </trkpt>
      <trkpt lat="47.88825" lon="7.12571">
        <ele>978.8</ele>
        <time>2023-05-18T14:43:27Z</time>
      </trkpt>
      <trkpt lat="47.88827" lon="7.12562">
        <ele>979.8</ele>
        <time>2023-05-18T14:43:32Z</time>
      </trkpt>
      <trkpt lat="47.88826" lon="7.12555">
        <ele>981.2</ele>
        <time>2023-05-18T14:43:36Z</time>
      </trkpt>
      <trkpt lat="47.88816" lon="7.12574">
        <ele>980.5</ele>
        <time>2023-05-18T14:43:54Z</time>
      </trkpt>
      <trkpt lat="47.8881" lon="7.12577">
        <ele>981.3</ele>
        <time>2023-05-18T14:43:59Z</time>
      </trkpt>
      <trkpt lat="47.888" lon="7.12578">
        <ele>982.6</ele>
        <time>2023-05-18T14:44:09Z</time>
      </trkpt>
      <trkpt lat="47.88796" lon="7.12575">
        <ele>983.5</ele>
        <time>2023-05-18T14:44:12Z</time>
      </trkpt>
      <trkpt lat="47.88792" lon="7.12574">
        <ele>984</ele>
        <time>2023-05-18T14:44:16Z</time>
      </trkpt>
      <trkpt lat="47.88789" lon="7.12569">
        <ele>985.3</ele>
        <time>2023-05-18T14:44:21Z</time>
      </trkpt>
      <trkpt lat="47.88772" lon="7.12549">
        <ele>990.2</ele>
        <time>2023-05-18T14:44:43Z</time>
      </trkpt>
      <trkpt lat="47.88769" lon="7.12543">
        <ele>991.3</ele>
        <time>2023-05-18T14:44:47Z</time>
      </trkpt>
      <trkpt lat="47.88763" lon="7.12532">
        <ele>993.1</ele>
        <time>2023-05-18T14:44:56Z</time>
      </trkpt>
      <trkpt lat="47.8876" lon="7.1252">
        <ele>995.3</ele>
        <time>2023-05-18T14:45:02Z</time>
      </trkpt>
      <trkpt lat="47.88755" lon="7.12511">
        <ele>996.9</ele>
        <time>2023-05-18T14:45:12Z</time>
      </trkpt>
      <trkpt lat="47.88753" lon="7.12501">
        <ele>998.9</ele>
        <time>2023-05-18T14:45:21Z</time>
      </trkpt>
      <trkpt lat="47.88748" lon="7.12494">
        <ele>999.9</ele>
        <time>2023-05-18T14:45:28Z</time>
      </trkpt>
      <trkpt lat="47.88751" lon="7.12486">
        <ele>1001.5</ele>
        <time>2023-05-18T14:45:33Z</time>
      </trkpt>
      <trkpt lat="47.88752" lon="7.12476">
        <ele>1003.3</ele>
        <time>2023-05-18T14:45:38Z</time>
      </trkpt>
      <trkpt lat="47.88757" lon="7.12467">
        <ele>1005.1</ele>
        <time>2023-05-18T14:45:46Z</time>
      </trkpt>
      <trkpt lat="47.88766" lon="7.1246">
        <ele>1006.4</ele>
        <time>2023-05-18T14:45:53Z</time>
      </trkpt>
      <trkpt lat="47.88771" lon="7.12457">
        <ele>1006.9</ele>
        <time>2023-05-18T14:45:58Z</time>
      </trkpt>
      <trkpt lat="47.88778" lon="7.12449">
        <ele>1008.1</ele>
        <time>2023-05-18T14:46:08Z</time>
      </trkpt>
      <trkpt lat="47.88782" lon="7.12433">
        <ele>1010.2</ele>
        <time>2023-05-18T14:46:17Z</time>
      </trkpt>
      <trkpt lat="47.88789" lon="7.12416">
        <ele>1011.7</ele>
        <time>2023-05-18T14:46:30Z</time>
      </trkpt>
      <trkpt lat="47.88793" lon="7.12412">
        <ele>1011.6</ele>
        <time>2023-05-18T14:46:34Z</time>
      </trkpt>
      <trkpt lat="47.88797" lon="7.12394">
        <ele>1013.9</ele>
        <time>2023-05-18T14:46:45Z</time>
      </trkpt>
      <trkpt lat="47.88797" lon="7.1238">
        <ele>1016.1</ele>
        <time>2023-05-18T14:46:52Z</time>
      </trkpt>
      <trkpt lat="47.88798" lon="7.12373">
        <ele>1016.9</ele>
        <time>2023-05-18T14:46:57Z</time>
      </trkpt>
      <trkpt lat="47.88802" lon="7.12367">
        <ele>1016.9</ele>
        <time>2023-05-18T14:47:02Z</time>
      </trkpt>
      <trkpt lat="47.88801" lon="7.1236">
        <ele>1018.2</ele>
        <time>2023-05-18T14:47:06Z</time>
      </trkpt>
      <trkpt lat="47.88807" lon="7.12349">
        <ele>1018.3</ele>
        <time>2023-05-18T14:47:16Z</time>
      </trkpt>
      <trkpt lat="47.88807" lon="7.12341">
        <ele>1019.5</ele>
        <time>2023-05-18T14:47:19Z</time>
      </trkpt>
      <trkpt lat="47.88815" lon="7.12314">
        <ele>1021.5</ele>
        <time>2023-05-18T14:47:37Z</time>
      </trkpt>
      <trkpt lat="47.88814" lon="7.12305">
        <ele>1023.4</ele>
        <time>2023-05-18T14:47:42Z</time>
      </trkpt>
      <trkpt lat="47.88818" lon="7.12283">
        <ele>1025.6</ele>
        <time>2023-05-18T14:47:56Z</time>
      </trkpt>
      <trkpt lat="47.88818" lon="7.12274">
        <ele>1027</ele>
        <time>2023-05-18T14:48:01Z</time>
      </trkpt>
      <trkpt lat="47.88822" lon="7.12259">
        <ele>1028.4</ele>
        <time>2023-05-18T14:48:07Z</time>
      </trkpt>
      <trkpt lat="47.88827" lon="7.12251">
        <ele>1028.4</ele>
        <time>2023-05-18T14:48:14Z</time>
      </trkpt>
      <trkpt lat="47.8884" lon="7.12207">
        <ele>1033.2</ele>
        <time>2023-05-18T14:48:45Z</time>
      </trkpt>
      <trkpt lat="47.88844" lon="7.12201">
        <ele>1033.3</ele>
        <time>2023-05-18T14:48:50Z</time>
      </trkpt>
      <trkpt lat="47.88853" lon="7.12181">
        <ele>1035.6</ele>
        <time>2023-05-18T14:49:05Z</time>
      </trkpt>
      <trkpt lat="47.88858" lon="7.12176">
        <ele>1035.9</ele>
        <time>2023-05-18T14:49:11Z</time>
      </trkpt>
      <trkpt lat="47.88862" lon="7.1217">
        <ele>1036.7</ele>
        <time>2023-05-18T14:49:15Z</time>
      </trkpt>
      <trkpt lat="47.88874" lon="7.12153">
        <ele>1037.7</ele>
        <time>2023-05-18T14:49:30Z</time>
      </trkpt>
      <trkpt lat="47.88877" lon="7.12142">
        <ele>1040.2</ele>
        <time>2023-05-18T14:49:41Z</time>
      </trkpt>
      <trkpt lat="47.88881" lon="7.12137">
        <ele>1040.9</ele>
        <time>2023-05-18T14:49:47Z</time>
      </trkpt>
      <trkpt lat="47.88889" lon="7.12123">
        <ele>1043</ele>
        <time>2023-05-18T14:49:57Z</time>
      </trkpt>
      <trkpt lat="47.88901" lon="7.12109">
        <ele>1044.3</ele>
        <time>2023-05-18T14:50:09Z</time>
      </trkpt>
      <trkpt lat="47.88905" lon="7.12106">
        <ele>1044.3</ele>
        <time>2023-05-18T14:50:12Z</time>
      </trkpt>
      <trkpt lat="47.88919" lon="7.1209">
        <ele>1046.7</ele>
        <time>2023-05-18T14:50:31Z</time>
      </trkpt>
      <trkpt lat="47.88929" lon="7.12084">
        <ele>1047</ele>
        <time>2023-05-18T14:50:39Z</time>
      </trkpt>
      <trkpt lat="47.88939" lon="7.12079">
        <ele>1047</ele>
        <time>2023-05-18T14:50:47Z</time>
      </trkpt>
      <trkpt lat="47.88943" lon="7.12074">
        <ele>1047.9</ele>
        <time>2023-05-18T14:50:52Z</time>
      </trkpt>
      <trkpt lat="47.88948" lon="7.1207">
        <ele>1048.6</ele>
        <time>2023-05-18T14:50:58Z</time>
      </trkpt>
      <trkpt lat="47.8897" lon="7.12041">
        <ele>1054.3</ele>
        <time>2023-05-18T14:51:37Z</time>
      </trkpt>
      <trkpt lat="47.88974" lon="7.12036">
        <ele>1055.1</ele>
        <time>2023-05-18T14:51:40Z</time>
      </trkpt>
      <trkpt lat="47.88984" lon="7.12028">
        <ele>1056.1</ele>
        <time>2023-05-18T14:51:52Z</time>
      </trkpt>
      <trkpt lat="47.88987" lon="7.12023">
        <ele>1057</ele>
        <time>2023-05-18T14:51:57Z</time>
      </trkpt>
      <trkpt lat="47.88991" lon="7.12012">
        <ele>1059.2</ele>
        <time>2023-05-18T14:52:07Z</time>
      </trkpt>
      <trkpt lat="47.88996" lon="7.12009">
        <ele>1059.4</ele>
        <time>2023-05-18T14:52:13Z</time>
      </trkpt>
      <trkpt lat="47.89" lon="7.12002">
        <ele>1060.6</ele>
        <time>2023-05-18T14:52:22Z</time>
      </trkpt>
      <trkpt lat="47.88999" lon="7.11993">
        <ele>1062.6</ele>
        <time>2023-05-18T14:52:34Z</time>
      </trkpt>
      <trkpt lat="47.89003" lon="7.11989">
        <ele>1063.2</ele>
        <time>2023-05-18T14:52:38Z</time>
      </trkpt>
      <trkpt lat="47.89013" lon="7.11973">
        <ele>1065.9</ele>
        <time>2023-05-18T14:52:53Z</time>
      </trkpt>
      <trkpt lat="47.89017" lon="7.1197">
        <ele>1066.3</ele>
        <time>2023-05-18T14:52:58Z</time>
      </trkpt>
      <trkpt lat="47.89026" lon="7.11968">
        <ele>1066</ele>
        <time>2023-05-18T14:53:06Z</time>
      </trkpt>
      <trkpt lat="47.89053" lon="7.11946">
        <ele>1069.7</ele>
        <time>2023-05-18T14:53:37Z</time>
      </trkpt>
      <trkpt lat="47.89057" lon="7.11946">
        <ele>1069.5</ele>
        <time>2023-05-18T14:53:41Z</time>
      </trkpt>
      <trkpt lat="47.89067" lon="7.11935">
        <ele>1070.6</ele>
        <time>2023-05-18T14:53:54Z</time>
      </trkpt>
      <trkpt lat="47.89073" lon="7.11924">
        <ele>1072.3</ele>
        <time>2023-05-18T14:54:05Z</time>
      </trkpt>
      <trkpt lat="47.89076" lon="7.1192">
        <ele>1072.8</ele>
        <time>2023-05-18T14:54:11Z</time>
      </trkpt>
      <trkpt lat="47.89078" lon="7.11913">
        <ele>1074.1</ele>
        <time>2023-05-18T14:54:16Z</time>
      </trkpt>
      <trkpt lat="47.89081" lon="7.11904">
        <ele>1075.5</ele>
        <time>2023-05-18T14:54:23Z</time>
      </trkpt>
      <trkpt lat="47.89089" lon="7.1189">
        <ele>1077.4</ele>
        <time>2023-05-18T14:54:38Z</time>
      </trkpt>
      <trkpt lat="47.89093" lon="7.11885">
        <ele>1078</ele>
        <time>2023-05-18T14:54:42Z</time>
      </trkpt>
      <trkpt lat="47.89103" lon="7.11871">
        <ele>1079.3</ele>
        <time>2023-05-18T14:54:55Z</time>
      </trkpt>
      <trkpt lat="47.89106" lon="7.11866">
        <ele>1079.8</ele>
        <time>2023-05-18T14:54:59Z</time>
      </trkpt>
      <trkpt lat="47.89109" lon="7.11861">
        <ele>1080.2</ele>
        <time>2023-05-18T14:55:03Z</time>
      </trkpt>
      <trkpt lat="47.8912" lon="7.11847">
        <ele>1081.1</ele>
        <time>2023-05-18T14:55:16Z</time>
      </trkpt>
      <trkpt lat="47.89124" lon="7.11841">
        <ele>1081.5</ele>
        <time>2023-05-18T14:55:21Z</time>
      </trkpt>
      <trkpt lat="47.89136" lon="7.11828">
        <ele>1082.1</ele>
        <time>2023-05-18T14:55:36Z</time>
      </trkpt>
      <trkpt lat="47.89139" lon="7.11822">
        <ele>1082.6</ele>
        <time>2023-05-18T14:55:40Z</time>
      </trkpt>
      <trkpt lat="47.89141" lon="7.11816">
        <ele>1083.4</ele>
        <time>2023-05-18T14:55:45Z</time>
      </trkpt>
      <trkpt lat="47.89142" lon="7.11809">
        <ele>1084.4</ele>
        <time>2023-05-18T14:55:49Z</time>
      </trkpt>
      <trkpt lat="47.89144" lon="7.11802">
        <ele>1085.1</ele>
        <time>2023-05-18T14:55:54Z</time>
      </trkpt>
      <trkpt lat="47.89144" lon="7.11795">
        <ele>1085.6</ele>
        <time>2023-05-18T14:55:58Z</time>
      </trkpt>
      <trkpt lat="47.89147" lon="7.11773">
        <ele>1087.6</ele>
        <time>2023-05-18T14:56:13Z</time>
      </trkpt>
      <trkpt lat="47.89162" lon="7.1173">
        <ele>1093.5</ele>
        <time>2023-05-18T14:56:46Z</time>
      </trkpt>
      <trkpt lat="47.89164" lon="7.11723">
        <ele>1094.8</ele>
        <time>2023-05-18T14:56:51Z</time>
      </trkpt>
      <trkpt lat="47.89178" lon="7.11702">
        <ele>1099.6</ele>
        <time>2023-05-18T14:57:16Z</time>
      </trkpt>
      <trkpt lat="47.89183" lon="7.11699">
        <ele>1100.8</ele>
        <time>2023-05-18T14:57:22Z</time>
      </trkpt>
      <trkpt lat="47.89188" lon="7.11685">
        <ele>1103.2</ele>
        <time>2023-05-18T14:57:36Z</time>
      </trkpt>
      <trkpt lat="47.8919" lon="7.11678">
        <ele>1104</ele>
        <time>2023-05-18T14:57:42Z</time>
      </trkpt>
      <trkpt lat="47.89192" lon="7.11668">
        <ele>1104.9</ele>
        <time>2023-05-18T14:57:49Z</time>
      </trkpt>
      <trkpt lat="47.89194" lon="7.11661">
        <ele>1106</ele>
        <time>2023-05-18T14:57:54Z</time>
      </trkpt>
      <trkpt lat="47.89199" lon="7.1165">
        <ele>1108.1</ele>
        <time>2023-05-18T14:58:05Z</time>
      </trkpt>
      <trkpt lat="47.89211" lon="7.11636">
        <ele>1110.3</ele>
        <time>2023-05-18T14:58:22Z</time>
      </trkpt>
      <trkpt lat="47.89214" lon="7.11632">
        <ele>1110.6</ele>
        <time>2023-05-18T14:58:26Z</time>
      </trkpt>
      <trkpt lat="47.89217" lon="7.11628">
        <ele>1110.9</ele>
        <time>2023-05-18T14:58:30Z</time>
      </trkpt>
      <trkpt lat="47.89222" lon="7.11624">
        <ele>1111.1</ele>
        <time>2023-05-18T14:58:43Z</time>
      </trkpt>
      <trkpt lat="47.89227" lon="7.11621">
        <ele>1111.2</ele>
        <time>2023-05-18T14:58:48Z</time>
      </trkpt>
      <trkpt lat="47.8923" lon="7.11618">
        <ele>1111.3</ele>
        <time>2023-05-18T14:58:52Z</time>
      </trkpt>
      <trkpt lat="47.89236" lon="7.11607">
        <ele>1112.1</ele>
        <time>2023-05-18T14:59:01Z</time>
      </trkpt>
      <trkpt lat="47.89259" lon="7.11576">
        <ele>1116.2</ele>
        <time>2023-05-18T15:03:43Z</time>
      </trkpt>
      <trkpt lat="47.89265" lon="7.11571">
        <ele>1117.2</ele>
        <time>2023-05-18T15:03:51Z</time>
      </trkpt>
      <trkpt lat="47.89275" lon="7.11563">
        <ele>1119.1</ele>
        <time>2023-05-18T15:04:06Z</time>
      </trkpt>
      <trkpt lat="47.89279" lon="7.11559">
        <ele>1120.1</ele>
        <time>2023-05-18T15:04:11Z</time>
      </trkpt>
      <trkpt lat="47.89284" lon="7.11553">
        <ele>1121.6</ele>
        <time>2023-05-18T15:04:18Z</time>
      </trkpt>
      <trkpt lat="47.89286" lon="7.11546">
        <ele>1123.1</ele>
        <time>2023-05-18T15:04:23Z</time>
      </trkpt>
      <trkpt lat="47.89292" lon="7.11539">
        <ele>1124.6</ele>
        <time>2023-05-18T15:04:32Z</time>
      </trkpt>
      <trkpt lat="47.89311" lon="7.11521">
        <ele>1129</ele>
        <time>2023-05-18T15:04:56Z</time>
      </trkpt>
      <trkpt lat="47.89318" lon="7.1151">
        <ele>1131.9</ele>
        <time>2023-05-18T15:05:09Z</time>
      </trkpt>
      <trkpt lat="47.89327" lon="7.11487">
        <ele>1137.4</ele>
        <time>2023-05-18T15:05:41Z</time>
      </trkpt>
      <trkpt lat="47.89331" lon="7.11478">
        <ele>1139.6</ele>
        <time>2023-05-18T15:05:53Z</time>
      </trkpt>
      <trkpt lat="47.89332" lon="7.11471">
        <ele>1141.1</ele>
        <time>2023-05-18T15:06:00Z</time>
      </trkpt>
      <trkpt lat="47.89336" lon="7.11459">
        <ele>1143.7</ele>
        <time>2023-05-18T15:06:12Z</time>
      </trkpt>
      <trkpt lat="47.89344" lon="7.11448">
        <ele>1146.6</ele>
        <time>2023-05-18T15:06:28Z</time>
      </trkpt>
      <trkpt lat="47.89345" lon="7.1144">
        <ele>1148</ele>
        <time>2023-05-18T15:06:34Z</time>
      </trkpt>
      <trkpt lat="47.89349" lon="7.11435">
        <ele>1149.2</ele>
        <time>2023-05-18T15:06:38Z</time>
      </trkpt>
      <trkpt lat="47.89362" lon="7.11423">
        <ele>1152.1</ele>
        <time>2023-05-18T15:06:55Z</time>
      </trkpt>
      <trkpt lat="47.89384" lon="7.11394">
        <ele>1156.3</ele>
        <time>2023-05-18T15:07:24Z</time>
      </trkpt>
      <trkpt lat="47.89386" lon="7.11388">
        <ele>1157.2</ele>
        <time>2023-05-18T15:07:29Z</time>
      </trkpt>
      <trkpt lat="47.8939" lon="7.11379">
        <ele>1158.7</ele>
        <time>2023-05-18T15:07:37Z</time>
      </trkpt>
      <trkpt lat="47.89409" lon="7.11368">
        <ele>1158.8</ele>
        <time>2023-05-18T15:07:55Z</time>
      </trkpt>
      <trkpt lat="47.89418" lon="7.11358">
        <ele>1159.3</ele>
        <time>2023-05-18T15:08:04Z</time>
      </trkpt>
      <trkpt lat="47.89422" lon="7.11353">
        <ele>1159.5</ele>
        <time>2023-05-18T15:08:08Z</time>
      </trkpt>
      <trkpt lat="47.89435" lon="7.11331">
        <ele>1161.4</ele>
        <time>2023-05-18T15:08:25Z</time>
      </trkpt>
      <trkpt lat="47.89438" lon="7.11327">
        <ele>1161.7</ele>
        <time>2023-05-18T15:08:30Z</time>
      </trkpt>
      <trkpt lat="47.89442" lon="7.11323">
        <ele>1161.8</ele>
        <time>2023-05-18T15:08:34Z</time>
      </trkpt>
      <trkpt lat="47.89444" lon="7.11317">
        <ele>1162.4</ele>
        <time>2023-05-18T15:08:38Z</time>
      </trkpt>
      <trkpt lat="47.89447" lon="7.1131">
        <ele>1162.9</ele>
        <time>2023-05-18T15:08:42Z</time>
      </trkpt>
      <trkpt lat="47.8945" lon="7.11306">
        <ele>1162.9</ele>
        <time>2023-05-18T15:08:46Z</time>
      </trkpt>
      <trkpt lat="47.89455" lon="7.11289">
        <ele>1165</ele>
        <time>2023-05-18T15:08:57Z</time>
      </trkpt>
      <trkpt lat="47.89458" lon="7.11284">
        <ele>1165.1</ele>
        <time>2023-05-18T15:09:01Z</time>
      </trkpt>
      <trkpt lat="47.8946" lon="7.11277">
        <ele>1165.7</ele>
        <time>2023-05-18T15:09:05Z</time>
      </trkpt>
      <trkpt lat="47.89464" lon="7.11265">
        <ele>1167</ele>
        <time>2023-05-18T15:09:13Z</time>
      </trkpt>
      <trkpt lat="47.89465" lon="7.11257">
        <ele>1168.4</ele>
        <time>2023-05-18T15:09:17Z</time>
      </trkpt>
      <trkpt lat="47.89467" lon="7.11252">
        <ele>1168.9</ele>
        <time>2023-05-18T15:09:21Z</time>
      </trkpt>
      <trkpt lat="47.8947" lon="7.11247">
        <ele>1169.1</ele>
        <time>2023-05-18T15:09:26Z</time>
      </trkpt>
      <trkpt lat="47.89474" lon="7.11226">
        <ele>1171.7</ele>
        <time>2023-05-18T15:09:40Z</time>
      </trkpt>
      <trkpt lat="47.89482" lon="7.11205">
        <ele>1172.9</ele>
        <time>2023-05-18T15:09:55Z</time>
      </trkpt>
      <trkpt lat="47.89484" lon="7.11199">
        <ele>1173.4</ele>
        <time>2023-05-18T15:09:58Z</time>
      </trkpt>
      <trkpt lat="47.89487" lon="7.11193">
        <ele>1173.5</ele>
        <time>2023-05-18T15:10:02Z</time>
      </trkpt>
      <trkpt lat="47.89489" lon="7.11185">
        <ele>1174.5</ele>
        <time>2023-05-18T15:10:08Z</time>
      </trkpt>
      <trkpt lat="47.8951" lon="7.1115">
        <ele>1176.7</ele>
        <time>2023-05-18T15:10:40Z</time>
      </trkpt>
      <trkpt lat="47.89513" lon="7.11146">
        <ele>1177</ele>
        <time>2023-05-18T15:10:44Z</time>
      </trkpt>
      <trkpt lat="47.89518" lon="7.11138">
        <ele>1178</ele>
        <time>2023-05-18T15:10:51Z</time>
      </trkpt>
      <trkpt lat="47.89529" lon="7.11122">
        <ele>1180</ele>
        <time>2023-05-18T15:11:06Z</time>
      </trkpt>
      <trkpt lat="47.89538" lon="7.11105">
        <ele>1182.1</ele>
        <time>2023-05-18T15:11:17Z</time>
      </trkpt>
      <trkpt lat="47.89542" lon="7.11101">
        <ele>1182.1</ele>
        <time>2023-05-18T15:11:22Z</time>
      </trkpt>
      <trkpt lat="47.89555" lon="7.11074">
        <ele>1184.8</ele>
        <time>2023-05-18T15:11:43Z</time>
      </trkpt>
      <trkpt lat="47.89556" lon="7.11066">
        <ele>1186</ele>
        <time>2023-05-18T15:11:47Z</time>
      </trkpt>
      <trkpt lat="47.89561" lon="7.11059">
        <ele>1186.4</ele>
        <time>2023-05-18T15:11:54Z</time>
      </trkpt>
      <trkpt lat="47.89564" lon="7.11043">
        <ele>1188.3</ele>
        <time>2023-05-18T15:12:03Z</time>
      </trkpt>
      <trkpt lat="47.89571" lon="7.1103">
        <ele>1188.9</ele>
        <time>2023-05-18T15:12:13Z</time>
      </trkpt>
      <trkpt lat="47.89572" lon="7.11023">
        <ele>1189.8</ele>
        <time>2023-05-18T15:12:17Z</time>
      </trkpt>
      <trkpt lat="47.89575" lon="7.11016">
        <ele>1190.5</ele>
        <time>2023-05-18T15:12:23Z</time>
      </trkpt>
      <trkpt lat="47.89579" lon="7.11012">
        <ele>1190.5</ele>
        <time>2023-05-18T15:12:27Z</time>
      </trkpt>
      <trkpt lat="47.89582" lon="7.11002">
        <ele>1191.8</ele>
        <time>2023-05-18T15:12:33Z</time>
      </trkpt>
      <trkpt lat="47.89589" lon="7.1099">
        <ele>1193.3</ele>
        <time>2023-05-18T15:12:44Z</time>
      </trkpt>
      <trkpt lat="47.89595" lon="7.10979">
        <ele>1194.8</ele>
        <time>2023-05-18T15:12:52Z</time>
      </trkpt>
      <trkpt lat="47.89599" lon="7.1098">
        <ele>1194.3</ele>
        <time>2023-05-18T15:12:58Z</time>
      </trkpt>
      <trkpt lat="47.89604" lon="7.10974">
        <ele>1195.1</ele>
        <time>2023-05-18T15:13:05Z</time>
      </trkpt>
      <trkpt lat="47.89608" lon="7.10971">
        <ele>1195.4</ele>
        <time>2023-05-18T15:13:10Z</time>
      </trkpt>
      <trkpt lat="47.89629" lon="7.10936">
        <ele>1199.1</ele>
        <time>2023-05-18T15:13:41Z</time>
      </trkpt>
      <trkpt lat="47.89636" lon="7.10927">
        <ele>1200.3</ele>
        <time>2023-05-18T15:13:49Z</time>
      </trkpt>
      <trkpt lat="47.89663" lon="7.10905">
        <ele>1203.1</ele>
        <time>2023-05-18T15:14:21Z</time>
      </trkpt>
      <trkpt lat="47.89666" lon="7.109">
        <ele>1204.2</ele>
        <time>2023-05-18T15:14:26Z</time>
      </trkpt>
      <trkpt lat="47.89674" lon="7.10895">
        <ele>1205.1</ele>
        <time>2023-05-18T15:14:37Z</time>
      </trkpt>
      <trkpt lat="47.89677" lon="7.10887">
        <ele>1207.1</ele>
        <time>2023-05-18T15:14:45Z</time>
      </trkpt>
      <trkpt lat="47.89679" lon="7.10873">
        <ele>1210.2</ele>
        <time>2023-05-18T15:14:55Z</time>
      </trkpt>
      <trkpt lat="47.89686" lon="7.10859">
        <ele>1213.4</ele>
        <time>2023-05-18T15:15:08Z</time>
      </trkpt>
      <trkpt lat="47.89692" lon="7.10854">
        <ele>1214.3</ele>
        <time>2023-05-18T15:15:17Z</time>
      </trkpt>
      <trkpt lat="47.89697" lon="7.10853">
        <ele>1214.3</ele>
        <time>2023-05-18T15:15:21Z</time>
      </trkpt>
      <trkpt lat="47.89704" lon="7.10842">
        <ele>1216</ele>
        <time>2023-05-18T15:15:35Z</time>
      </trkpt>
      <trkpt lat="47.89708" lon="7.10823">
        <ele>1219.6</ele>
        <time>2023-05-18T15:15:50Z</time>
      </trkpt>
      <trkpt lat="47.8973" lon="7.10791">
        <ele>1225.1</ele>
        <time>2023-05-18T15:16:27Z</time>
      </trkpt>
      <trkpt lat="47.89732" lon="7.10786">
        <ele>1226.2</ele>
        <time>2023-05-18T15:16:31Z</time>
      </trkpt>
      <trkpt lat="47.89734" lon="7.1078">
        <ele>1227.5</ele>
        <time>2023-05-18T15:16:36Z</time>
      </trkpt>
      <trkpt lat="47.89738" lon="7.10775">
        <ele>1228.6</ele>
        <time>2023-05-18T15:16:41Z</time>
      </trkpt>
      <trkpt lat="47.89742" lon="7.10762">
        <ele>1231.6</ele>
        <time>2023-05-18T15:16:50Z</time>
      </trkpt>
      <trkpt lat="47.89746" lon="7.10759">
        <ele>1232.2</ele>
        <time>2023-05-18T15:16:58Z</time>
      </trkpt>
      <trkpt lat="47.89754" lon="7.1076">
        <ele>1232</ele>
        <time>2023-05-18T15:17:08Z</time>
      </trkpt>
      <trkpt lat="47.89762" lon="7.10759">
        <ele>1232.5</ele>
        <time>2023-05-18T15:17:18Z</time>
      </trkpt>
      <trkpt lat="47.89769" lon="7.10753">
        <ele>1234</ele>
        <time>2023-05-18T15:17:28Z</time>
      </trkpt>
      <trkpt lat="47.89778" lon="7.10746">
        <ele>1235.6</ele>
        <time>2023-05-18T15:17:40Z</time>
      </trkpt>
      <trkpt lat="47.89799" lon="7.10716">
        <ele>1239.9</ele>
        <time>2023-05-18T15:18:14Z</time>
      </trkpt>
      <trkpt lat="47.89805" lon="7.107">
        <ele>1242.2</ele>
        <time>2023-05-18T15:18:26Z</time>
      </trkpt>
      <trkpt lat="47.89811" lon="7.10692">
        <ele>1243.4</ele>
        <time>2023-05-18T15:18:35Z</time>
      </trkpt>
      <trkpt lat="47.89824" lon="7.10668">
        <ele>1246.8</ele>
        <time>2023-05-18T15:18:57Z</time>
      </trkpt>
      <trkpt lat="47.8984" lon="7.10644">
        <ele>1250.8</ele>
        <time>2023-05-18T15:19:26Z</time>
      </trkpt>
      <trkpt lat="47.89842" lon="7.10637">
        <ele>1252</ele>
        <time>2023-05-18T15:19:31Z</time>
      </trkpt>
      <trkpt lat="47.89843" lon="7.10629">
        <ele>1253.4</ele>
        <time>2023-05-18T15:19:36Z</time>
      </trkpt>
      <trkpt lat="47.89845" lon="7.10623">
        <ele>1254.4</ele>
        <time>2023-05-18T15:19:40Z</time>
      </trkpt>
      <trkpt lat="47.89851" lon="7.1062">
        <ele>1254.8</ele>
        <time>2023-05-18T15:19:47Z</time>
      </trkpt>
      <trkpt lat="47.89855" lon="7.10612">
        <ele>1256.1</ele>
        <time>2023-05-18T15:19:55Z</time>
      </trkpt>
      <trkpt lat="47.89857" lon="7.10603">
        <ele>1257.1</ele>
        <time>2023-05-18T15:20:00Z</time>
      </trkpt>
      <trkpt lat="47.89856" lon="7.10582">
        <ele>1259.6</ele>
        <time>2023-05-18T15:20:16Z</time>
      </trkpt>
      <trkpt lat="47.8986" lon="7.10574">
        <ele>1260.4</ele>
        <time>2023-05-18T15:20:26Z</time>
      </trkpt>
      <trkpt lat="47.89859" lon="7.10554">
        <ele>1263.3</ele>
        <time>2023-05-18T15:20:45Z</time>
      </trkpt>
      <trkpt lat="47.89861" lon="7.10545">
        <ele>1264.5</ele>
        <time>2023-05-18T15:20:54Z</time>
      </trkpt>
      <trkpt lat="47.89863" lon="7.10539">
        <ele>1265.3</ele>
        <time>2023-05-18T15:20:59Z</time>
      </trkpt>
      <trkpt lat="47.89863" lon="7.10529">
        <ele>1266.8</ele>
        <time>2023-05-18T15:21:09Z</time>
      </trkpt>
      <trkpt lat="47.89868" lon="7.10515">
        <ele>1268.6</ele>
        <time>2023-05-18T15:21:21Z</time>
      </trkpt>
      <trkpt lat="47.8987" lon="7.10505">
        <ele>1270</ele>
        <time>2023-05-18T15:21:30Z</time>
      </trkpt>
      <trkpt lat="47.8987" lon="7.10498">
        <ele>1271</ele>
        <time>2023-05-18T15:21:36Z</time>
      </trkpt>
      <trkpt lat="47.89871" lon="7.10488">
        <ele>1272.4</ele>
        <time>2023-05-18T15:21:47Z</time>
      </trkpt>
      <trkpt lat="47.89864" lon="7.10471">
        <ele>1275</ele>
        <time>2023-05-18T15:22:05Z</time>
      </trkpt>
      <trkpt lat="47.89861" lon="7.10466">
        <ele>1275.7</ele>
        <time>2023-05-18T15:22:10Z</time>
      </trkpt>
      <trkpt lat="47.89853" lon="7.10459">
        <ele>1276.9</ele>
        <time>2023-05-18T15:22:19Z</time>
      </trkpt>
      <trkpt lat="47.89849" lon="7.10455">
        <ele>1277.5</ele>
        <time>2023-05-18T15:22:24Z</time>
      </trkpt>
      <trkpt lat="47.89845" lon="7.1045">
        <ele>1278.1</ele>
        <time>2023-05-18T15:22:29Z</time>
      </trkpt>
      <trkpt lat="47.89841" lon="7.10443">
        <ele>1278.9</ele>
        <time>2023-05-18T15:22:36Z</time>
      </trkpt>
      <trkpt lat="47.89815" lon="7.10413">
        <ele>1283.1</ele>
        <time>2023-05-18T15:23:10Z</time>
      </trkpt>
      <trkpt lat="47.89809" lon="7.10405">
        <ele>1284.2</ele>
        <time>2023-05-18T15:23:18Z</time>
      </trkpt>
      <trkpt lat="47.89806" lon="7.10395">
        <ele>1285.3</ele>
        <time>2023-05-18T15:23:27Z</time>
      </trkpt>
      <trkpt lat="47.89792" lon="7.10378">
        <ele>1286.8</ele>
        <time>2023-05-18T15:23:44Z</time>
      </trkpt>
      <trkpt lat="47.89788" lon="7.10375">
        <ele>1287</ele>
        <time>2023-05-18T15:23:47Z</time>
      </trkpt>
      <trkpt lat="47.89782" lon="7.10365">
        <ele>1287.7</ele>
        <time>2023-05-18T15:23:55Z</time>
      </trkpt>
      <trkpt lat="47.89776" lon="7.10354">
        <ele>1288.4</ele>
        <time>2023-05-18T15:24:05Z</time>
      </trkpt>
      <trkpt lat="47.89764" lon="7.10334">
        <ele>1289</ele>
        <time>2023-05-18T15:24:22Z</time>
      </trkpt>
      <trkpt lat="47.89759" lon="7.10326">
        <ele>1289.3</ele>
        <time>2023-05-18T15:24:28Z</time>
      </trkpt>
      <trkpt lat="47.89755" lon="7.10323">
        <ele>1289.2</ele>
        <time>2023-05-18T15:24:32Z</time>
      </trkpt>
      <trkpt lat="47.8975" lon="7.10317">
        <ele>1289.2</ele>
        <time>2023-05-18T15:24:39Z</time>
      </trkpt>
      <trkpt lat="47.89746" lon="7.10314">
        <ele>1288.9</ele>
        <time>2023-05-18T15:24:43Z</time>
      </trkpt>
      <trkpt lat="47.89742" lon="7.10309">
        <ele>1288.6</ele>
        <time>2023-05-18T15:24:47Z</time>
      </trkpt>
      <trkpt lat="47.89741" lon="7.10302">
        <ele>1288.7</ele>
        <time>2023-05-18T15:25:01Z</time>
      </trkpt>
      <trkpt lat="47.89745" lon="7.10288">
        <ele>1289.6</ele>
        <time>2023-05-18T15:25:11Z</time>
      </trkpt>
      <trkpt lat="47.89748" lon="7.10281">
        <ele>1290.4</ele>
        <time>2023-05-18T15:25:19Z</time>
      </trkpt>
      <trkpt lat="47.89751" lon="7.10275">
        <ele>1291.5</ele>
        <time>2023-05-18T15:25:24Z</time>
      </trkpt>
      <trkpt lat="47.89756" lon="7.10246">
        <ele>1295.9</ele>
        <time>2023-05-18T15:25:47Z</time>
      </trkpt>
      <trkpt lat="47.8976" lon="7.10215">
        <ele>1299</ele>
        <time>2023-05-18T15:26:12Z</time>
      </trkpt>
      <trkpt lat="47.89765" lon="7.10188">
        <ele>1301.9</ele>
        <time>2023-05-18T15:26:33Z</time>
      </trkpt>
      <trkpt lat="47.89767" lon="7.10181">
        <ele>1302.7</ele>
        <time>2023-05-18T15:26:38Z</time>
      </trkpt>
      <trkpt lat="47.89772" lon="7.10166">
        <ele>1304.7</ele>
        <time>2023-05-18T15:26:50Z</time>
      </trkpt>
      <trkpt lat="47.89776" lon="7.10172">
        <ele>1306.3</ele>
        <time>2023-05-18T15:26:57Z</time>
      </trkpt>
      <trkpt lat="47.89781" lon="7.10185">
        <ele>1308.1</ele>
        <time>2023-05-18T15:27:07Z</time>
      </trkpt>
      <trkpt lat="47.89783" lon="7.10193">
        <ele>1308.7</ele>
        <time>2023-05-18T15:27:14Z</time>
      </trkpt>
      <trkpt lat="47.89789" lon="7.10207">
        <ele>1309.7</ele>
        <time>2023-05-18T15:27:25Z</time>
      </trkpt>
      <trkpt lat="47.89809" lon="7.10218">
        <ele>1315.5</ele>
        <time>2023-05-18T15:27:58Z</time>
      </trkpt>
      <trkpt lat="47.89818" lon="7.10221">
        <ele>1318.6</ele>
        <time>2023-05-18T15:28:09Z</time>
      </trkpt>
      <trkpt lat="47.89821" lon="7.10227">
        <ele>1318.9</ele>
        <time>2023-05-18T15:28:14Z</time>
      </trkpt>
      <trkpt lat="47.89827" lon="7.10227">
        <ele>1321.1</ele>
        <time>2023-05-18T15:28:23Z</time>
      </trkpt>
      <trkpt lat="47.89831" lon="7.1023">
        <ele>1322.1</ele>
        <time>2023-05-18T15:28:30Z</time>
      </trkpt>
      <trkpt lat="47.89835" lon="7.10229">
        <ele>1323.4</ele>
        <time>2023-05-18T15:28:35Z</time>
      </trkpt>
      <trkpt lat="47.89844" lon="7.10204">
        <ele>1327.9</ele>
        <time>2023-05-18T15:29:02Z</time>
      </trkpt>
      <trkpt lat="47.89852" lon="7.102">
        <ele>1330.2</ele>
        <time>2023-05-18T15:29:14Z</time>
      </trkpt>
      <trkpt lat="47.89857" lon="7.10192">
        <ele>1332.4</ele>
        <time>2023-05-18T15:29:27Z</time>
      </trkpt>
      <trkpt lat="47.89859" lon="7.10174">
        <ele>1336</ele>
        <time>2023-05-18T15:29:45Z</time>
      </trkpt>
      <trkpt lat="47.89864" lon="7.10173">
        <ele>1337.6</ele>
        <time>2023-05-18T15:30:08Z</time>
      </trkpt>
      <trkpt lat="47.89869" lon="7.10178">
        <ele>1337.9</ele>
        <time>2023-05-18T15:30:13Z</time>
      </trkpt>
      <trkpt lat="47.89875" lon="7.10182">
        <ele>1338.7</ele>
        <time>2023-05-18T15:30:21Z</time>
      </trkpt>
      <trkpt lat="47.89888" lon="7.10183">
        <ele>1341.8</ele>
        <time>2023-05-18T15:30:39Z</time>
      </trkpt>
      <trkpt lat="47.89895" lon="7.10179">
        <ele>1343.9</ele>
        <time>2023-05-18T15:30:51Z</time>
      </trkpt>
      <trkpt lat="47.89902" lon="7.10189">
        <ele>1343.3</ele>
        <time>2023-05-18T15:31:00Z</time>
      </trkpt>
      <trkpt lat="47.89911" lon="7.10192">
        <ele>1344.4</ele>
        <time>2023-05-18T15:31:09Z</time>
      </trkpt>
      <trkpt lat="47.89917" lon="7.10195">
        <ele>1344.9</ele>
        <time>2023-05-18T15:31:17Z</time>
      </trkpt>
      <trkpt lat="47.89922" lon="7.10192">
        <ele>1345.6</ele>
        <time>2023-05-18T15:31:21Z</time>
      </trkpt>
      <trkpt lat="47.89927" lon="7.10188">
        <ele>1346.4</ele>
        <time>2023-05-18T15:31:26Z</time>
      </trkpt>
      <trkpt lat="47.89936" lon="7.10177">
        <ele>1348.4</ele>
        <time>2023-05-18T15:31:37Z</time>
      </trkpt>
      <trkpt lat="47.8994" lon="7.10176">
        <ele>1348.6</ele>
        <time>2023-05-18T15:31:42Z</time>
      </trkpt>
      <trkpt lat="47.89945" lon="7.10177">
        <ele>1348.5</ele>
        <time>2023-05-18T15:31:45Z</time>
      </trkpt>
      <trkpt lat="47.89949" lon="7.10175">
        <ele>1348.8</ele>
        <time>2023-05-18T15:31:49Z</time>
      </trkpt>
      <trkpt lat="47.89954" lon="7.10173">
        <ele>1349</ele>
        <time>2023-05-18T15:31:53Z</time>
      </trkpt>
      <trkpt lat="47.89959" lon="7.10169">
        <ele>1349.6</ele>
        <time>2023-05-18T15:31:57Z</time>
      </trkpt>
      <trkpt lat="47.89963" lon="7.10167">
        <ele>1349.9</ele>
        <time>2023-05-18T15:32:01Z</time>
      </trkpt>
      <trkpt lat="47.89967" lon="7.10164">
        <ele>1350.5</ele>
        <time>2023-05-18T15:32:05Z</time>
      </trkpt>
      <trkpt lat="47.89971" lon="7.10163">
        <ele>1350.7</ele>
        <time>2023-05-18T15:32:09Z</time>
      </trkpt>
      <trkpt lat="47.89985" lon="7.10164">
        <ele>1351.4</ele>
        <time>2023-05-18T15:32:22Z</time>
      </trkpt>
      <trkpt lat="47.89992" lon="7.10161">
        <ele>1352.6</ele>
        <time>2023-05-18T15:32:30Z</time>
      </trkpt>
      <trkpt lat="47.89996" lon="7.1016">
        <ele>1353.1</ele>
        <time>2023-05-18T15:32:33Z</time>
      </trkpt>
      <trkpt lat="47.90003" lon="7.10154">
        <ele>1354.8</ele>
        <time>2023-05-18T15:32:41Z</time>
      </trkpt>
      <trkpt lat="47.90012" lon="7.10142">
        <ele>1357.8</ele>
        <time>2023-05-18T15:32:55Z</time>
      </trkpt>
      <trkpt lat="47.90019" lon="7.10137">
        <ele>1359.1</ele>
        <time>2023-05-18T15:33:03Z</time>
      </trkpt>
      <trkpt lat="47.90024" lon="7.10133">
        <ele>1360.3</ele>
        <time>2023-05-18T15:33:10Z</time>
      </trkpt>
      <trkpt lat="47.90027" lon="7.10128">
        <ele>1361.7</ele>
        <time>2023-05-18T15:33:15Z</time>
      </trkpt>
      <trkpt lat="47.90031" lon="7.10124">
        <ele>1362.8</ele>
        <time>2023-05-18T15:33:20Z</time>
      </trkpt>
      <trkpt lat="47.90034" lon="7.10118">
        <ele>1364.4</ele>
        <time>2023-05-18T15:33:26Z</time>
      </trkpt>
      <trkpt lat="47.9004" lon="7.10118">
        <ele>1364.5</ele>
        <time>2023-05-18T15:33:33Z</time>
      </trkpt>
      <trkpt lat="47.90043" lon="7.10113">
        <ele>1366</ele>
        <time>2023-05-18T15:33:38Z</time>
      </trkpt>
      <trkpt lat="47.90064" lon="7.10103">
        <ele>1369.2</ele>
        <time>2023-05-18T15:34:01Z</time>
      </trkpt>
      <trkpt lat="47.90077" lon="7.10097">
        <ele>1371.3</ele>
        <time>2023-05-18T15:34:14Z</time>
      </trkpt>
      <trkpt lat="47.90083" lon="7.10094">
        <ele>1372.5</ele>
        <time>2023-05-18T15:34:22Z</time>
      </trkpt>
      <trkpt lat="47.90096" lon="7.10094">
        <ele>1373.5</ele>
        <time>2023-05-18T15:34:34Z</time>
      </trkpt>
      <trkpt lat="47.9011" lon="7.10093">
        <ele>1374.8</ele>
        <time>2023-05-18T15:34:47Z</time>
      </trkpt>
      <trkpt lat="47.90114" lon="7.10089">
        <ele>1375.9</ele>
        <time>2023-05-18T15:34:52Z</time>
      </trkpt>
      <trkpt lat="47.90118" lon="7.10087">
        <ele>1376.5</ele>
        <time>2023-05-18T15:34:56Z</time>
      </trkpt>
      <trkpt lat="47.90138" lon="7.10073">
        <ele>1380.6</ele>
        <time>2023-05-18T15:35:20Z</time>
      </trkpt>
      <trkpt lat="47.90158" lon="7.1007">
        <ele>1382.7</ele>
        <time>2023-05-18T15:35:40Z</time>
      </trkpt>
      <trkpt lat="47.90162" lon="7.10068">
        <ele>1383.5</ele>
        <time>2023-05-18T15:35:45Z</time>
      </trkpt>
      <trkpt lat="47.90189" lon="7.10065">
        <ele>1387</ele>
        <time>2023-05-18T15:36:09Z</time>
      </trkpt>
      <trkpt lat="47.90194" lon="7.10065">
        <ele>1387.6</ele>
        <time>2023-05-18T15:36:13Z</time>
      </trkpt>
      <trkpt lat="47.90201" lon="7.10065">
        <ele>1388.6</ele>
        <time>2023-05-18T15:36:21Z</time>
      </trkpt>
      <trkpt lat="47.90211" lon="7.10069">
        <ele>1389.3</ele>
        <time>2023-05-18T15:36:28Z</time>
      </trkpt>
      <trkpt lat="47.90215" lon="7.10066">
        <ele>1390.6</ele>
        <time>2023-05-18T15:36:33Z</time>
      </trkpt>
      <trkpt lat="47.90217" lon="7.1006">
        <ele>1392.3</ele>
        <time>2023-05-18T15:36:38Z</time>
      </trkpt>
      <trkpt lat="47.90201" lon="7.10044">
        <ele>1393.7</ele>
        <time>2023-05-18T15:36:57Z</time>
      </trkpt>
      <trkpt lat="47.90197" lon="7.1004">
        <ele>1394.2</ele>
        <time>2023-05-18T15:37:02Z</time>
      </trkpt>
      <trkpt lat="47.9019" lon="7.1003">
        <ele>1396</ele>
        <time>2023-05-18T15:37:12Z</time>
      </trkpt>
      <trkpt lat="47.90166" lon="7.10006">
        <ele>1399.4</ele>
        <time>2023-05-18T15:37:43Z</time>
      </trkpt>
      <trkpt lat="47.90146" lon="7.09992">
        <ele>1401.8</ele>
        <time>2023-05-18T15:38:04Z</time>
      </trkpt>
      <trkpt lat="47.90142" lon="7.09989">
        <ele>1402.4</ele>
        <time>2023-05-18T15:38:09Z</time>
      </trkpt>
      <trkpt lat="47.90137" lon="7.09986">
        <ele>1403</ele>
        <time>2023-05-18T15:38:14Z</time>
      </trkpt>
      <trkpt lat="47.90128" lon="7.0998">
        <ele>1404.4</ele>
        <time>2023-05-18T15:38:24Z</time>
      </trkpt>
      <trkpt lat="47.90122" lon="7.09976">
        <ele>1405.3</ele>
        <time>2023-05-18T15:38:29Z</time>
      </trkpt>
      <trkpt lat="47.90089" lon="7.09961">
        <ele>1408.8</ele>
        <time>2023-05-18T15:39:05Z</time>
      </trkpt>
      <trkpt lat="47.90063" lon="7.09941">
        <ele>1412</ele>
        <time>2023-05-18T15:39:36Z</time>
      </trkpt>
      <trkpt lat="47.90059" lon="7.09937">
        <ele>1412.1</ele>
        <time>2023-05-18T15:39:41Z</time>
      </trkpt>
      <trkpt lat="47.9005" lon="7.09931">
        <ele>1412.1</ele>
        <time>2023-05-18T15:39:49Z</time>
      </trkpt>
      <trkpt lat="47.90046" lon="7.09926">
        <ele>1412.3</ele>
        <time>2023-05-18T15:39:54Z</time>
      </trkpt>
      <trkpt lat="47.90043" lon="7.09922">
        <ele>1412.5</ele>
        <time>2023-05-18T15:39:58Z</time>
      </trkpt>
      <trkpt lat="47.90034" lon="7.09917">
        <ele>1412.4</ele>
        <time>2023-05-18T15:40:06Z</time>
      </trkpt>
      <trkpt lat="47.90031" lon="7.09912">
        <ele>1412.3</ele>
        <time>2023-05-18T15:40:11Z</time>
      </trkpt>
      <trkpt lat="47.90028" lon="7.09905">
        <ele>1412</ele>
        <time>2023-05-18T15:40:18Z</time>
      </trkpt>
      <trkpt lat="47.90024" lon="7.09902">
        <ele>1411.2</ele>
        <time>2023-05-18T15:40:23Z</time>
      </trkpt>
      <trkpt lat="47.9002" lon="7.09903">
        <ele>1410.5</ele>
        <time>2023-05-18T15:41:16Z</time>
      </trkpt>
      <trkpt lat="47.90049" lon="7.09893">
        <ele>1414.8</ele>
        <time>2023-05-18T15:42:25Z</time>
      </trkpt>
      <trkpt lat="47.9005" lon="7.09891">
        <ele>1415.1</ele>
        <time>2023-05-18T15:42:26Z</time>
      </trkpt>
      <trkpt lat="47.90057" lon="7.09883">
        <ele>1416.4</ele>
        <time>2023-05-18T15:42:35Z</time>
      </trkpt>
      <trkpt lat="47.90063" lon="7.09881">
        <ele>1417.4</ele>
        <time>2023-05-18T15:42:42Z</time>
      </trkpt>
      <trkpt lat="47.90067" lon="7.09876">
        <ele>1418.3</ele>
        <time>2023-05-18T15:42:47Z</time>
      </trkpt>
      <trkpt lat="47.9007" lon="7.09873">
        <ele>1418.9</ele>
        <time>2023-05-18T15:42:51Z</time>
      </trkpt>
      <trkpt lat="47.90077" lon="7.09871">
        <ele>1420.2</ele>
        <time>2023-05-18T15:42:58Z</time>
      </trkpt>
      <trkpt lat="47.90082" lon="7.09865">
        <ele>1421.5</ele>
        <time>2023-05-18T15:43:05Z</time>
      </trkpt>
      <trkpt lat="47.90088" lon="7.09853">
        <ele>1422</ele>
        <time>2023-05-18T15:43:14Z</time>
      </trkpt>
      <trkpt lat="47.90091" lon="7.09848">
        <ele>1422.1</ele>
        <time>2023-05-18T15:43:18Z</time>
      </trkpt>
      <trkpt lat="47.90096" lon="7.09842">
        <ele>1422.3</ele>
        <time>2023-05-18T15:43:26Z</time>
      </trkpt>
      <trkpt lat="47.901" lon="7.09841">
        <ele>1422.4</ele>
        <time>2023-05-18T15:43:31Z</time>
      </trkpt>
      <trkpt lat="47.90106" lon="7.09843">
        <ele>1422.5</ele>
        <time>2023-05-18T15:43:36Z</time>
      </trkpt>
      <trkpt lat="47.90115" lon="7.09843">
        <ele>1422</ele>
        <time>2023-05-18T15:43:45Z</time>
      </trkpt>
      <trkpt lat="47.90114" lon="7.09834">
        <ele>1422.4</ele>
        <time>2023-05-18T15:43:54Z</time>
      </trkpt>
      <trkpt lat="47.9011" lon="7.0983">
        <ele>1422.6</ele>
        <time>2023-05-18T15:44:02Z</time>
      </trkpt>
      <trkpt lat="47.90106" lon="7.09825">
        <ele>1421.9</ele>
        <time>2023-05-18T15:44:13Z</time>
      </trkpt>
      <trkpt lat="47.90103" lon="7.09819">
        <ele>1421.2</ele>
        <time>2023-05-18T15:44:31Z</time>
      </trkpt>
      <trkpt lat="47.90101" lon="7.09814">
        <ele>1420.5</ele>
        <time>2023-05-18T15:44:48Z</time>
      </trkpt>
      <trkpt lat="47.90097" lon="7.09815">
        <ele>1420.5</ele>
        <time>2023-05-18T15:46:06Z</time>
      </trkpt>
      <trkpt lat="47.90098" lon="7.09826">
        <ele>1421.7</ele>
        <time>2023-05-18T15:46:19Z</time>
      </trkpt>
      <trkpt lat="47.90104" lon="7.09825">
        <ele>1421.8</ele>
        <time>2023-05-18T15:46:28Z</time>
      </trkpt>
      <trkpt lat="47.9011" lon="7.09829">
        <ele>1422.5</ele>
        <time>2023-05-18T15:46:38Z</time>
      </trkpt>
      <trkpt lat="47.90114" lon="7.09833">
        <ele>1422.3</ele>
        <time>2023-05-18T15:46:47Z</time>
      </trkpt>
      <trkpt lat="47.90114" lon="7.09843">
        <ele>1422.1</ele>
        <time>2023-05-18T15:46:57Z</time>
      </trkpt>
      <trkpt lat="47.90109" lon="7.09841">
        <ele>1422.7</ele>
        <time>2023-05-18T15:47:01Z</time>
      </trkpt>
      <trkpt lat="47.90105" lon="7.0984">
        <ele>1422.6</ele>
        <time>2023-05-18T15:47:05Z</time>
      </trkpt>
      <trkpt lat="47.90101" lon="7.09841">
        <ele>1422.5</ele>
        <time>2023-05-18T15:47:09Z</time>
      </trkpt>
      <trkpt lat="47.90097" lon="7.09845">
        <ele>1422.3</ele>
        <time>2023-05-18T15:47:13Z</time>
      </trkpt>
      <trkpt lat="47.90093" lon="7.09849">
        <ele>1422.2</ele>
        <time>2023-05-18T15:47:17Z</time>
      </trkpt>
      <trkpt lat="47.9009" lon="7.09854">
        <ele>1422.1</ele>
        <time>2023-05-18T15:47:21Z</time>
      </trkpt>
      <trkpt lat="47.90087" lon="7.09861">
        <ele>1422</ele>
        <time>2023-05-18T15:47:26Z</time>
      </trkpt>
      <trkpt lat="47.90084" lon="7.09865">
        <ele>1421.7</ele>
        <time>2023-05-18T15:47:30Z</time>
      </trkpt>
      <trkpt lat="47.90081" lon="7.0987">
        <ele>1421</ele>
        <time>2023-05-18T15:47:34Z</time>
      </trkpt>
      <trkpt lat="47.90076" lon="7.09873">
        <ele>1419.9</ele>
        <time>2023-05-18T15:47:38Z</time>
      </trkpt>
      <trkpt lat="47.90071" lon="7.09876">
        <ele>1418.9</ele>
        <time>2023-05-18T15:47:42Z</time>
      </trkpt>
      <trkpt lat="47.90051" lon="7.09891">
        <ele>1415.2</ele>
        <time>2023-05-18T15:48:07Z</time>
      </trkpt>
      <trkpt lat="47.90047" lon="7.09896">
        <ele>1414.4</ele>
        <time>2023-05-18T15:48:11Z</time>
      </trkpt>
      <trkpt lat="47.90045" lon="7.09901">
        <ele>1413.9</ele>
        <time>2023-05-18T15:48:15Z</time>
      </trkpt>
      <trkpt lat="47.9004" lon="7.09914">
        <ele>1413</ele>
        <time>2023-05-18T15:48:23Z</time>
      </trkpt>
      <trkpt lat="47.90036" lon="7.09918">
        <ele>1412.4</ele>
        <time>2023-05-18T15:48:27Z</time>
      </trkpt>
      <trkpt lat="47.90033" lon="7.0992">
        <ele>1412</ele>
        <time>2023-05-18T15:48:31Z</time>
      </trkpt>
      <trkpt lat="47.90028" lon="7.09922">
        <ele>1411.4</ele>
        <time>2023-05-18T15:48:35Z</time>
      </trkpt>
      <trkpt lat="47.90024" lon="7.09924">
        <ele>1410.7</ele>
        <time>2023-05-18T15:48:39Z</time>
      </trkpt>
      <trkpt lat="47.90019" lon="7.09926">
        <ele>1409.9</ele>
        <time>2023-05-18T15:48:44Z</time>
      </trkpt>
      <trkpt lat="47.90015" lon="7.09932">
        <ele>1409</ele>
        <time>2023-05-18T15:48:53Z</time>
      </trkpt>
      <trkpt lat="47.90016" lon="7.09946">
        <ele>1407.8</ele>
        <time>2023-05-18T15:49:01Z</time>
      </trkpt>
      <trkpt lat="47.90018" lon="7.09952">
        <ele>1406.8</ele>
        <time>2023-05-18T15:49:04Z</time>
      </trkpt>
      <trkpt lat="47.90022" lon="7.0996">
        <ele>1405.3</ele>
        <time>2023-05-18T15:49:10Z</time>
      </trkpt>
      <trkpt lat="47.90023" lon="7.09971">
        <ele>1403.1</ele>
        <time>2023-05-18T15:49:19Z</time>
      </trkpt>
      <trkpt lat="47.9002" lon="7.09979">
        <ele>1400.9</ele>
        <time>2023-05-18T15:49:26Z</time>
      </trkpt>
      <trkpt lat="47.90015" lon="7.09981">
        <ele>1400.3</ele>
        <time>2023-05-18T15:49:30Z</time>
      </trkpt>
      <trkpt lat="47.9001" lon="7.09982">
        <ele>1400</ele>
        <time>2023-05-18T15:49:34Z</time>
      </trkpt>
      <trkpt lat="47.90006" lon="7.09985">
        <ele>1399.3</ele>
        <time>2023-05-18T15:49:38Z</time>
      </trkpt>
      <trkpt lat="47.90003" lon="7.09989">
        <ele>1398.4</ele>
        <time>2023-05-18T15:49:42Z</time>
      </trkpt>
      <trkpt lat="47.89999" lon="7.09992">
        <ele>1397.6</ele>
        <time>2023-05-18T15:49:46Z</time>
      </trkpt>
      <trkpt lat="47.89995" lon="7.09995">
        <ele>1396.4</ele>
        <time>2023-05-18T15:49:51Z</time>
      </trkpt>
      <trkpt lat="47.8999" lon="7.09995">
        <ele>1395.6</ele>
        <time>2023-05-18T15:49:55Z</time>
      </trkpt>
      <trkpt lat="47.89986" lon="7.09994">
        <ele>1395.3</ele>
        <time>2023-05-18T15:49:59Z</time>
      </trkpt>
      <trkpt lat="47.8998" lon="7.09995">
        <ele>1394.2</ele>
        <time>2023-05-18T15:50:06Z</time>
      </trkpt>
      <trkpt lat="47.89975" lon="7.09995">
        <ele>1393.5</ele>
        <time>2023-05-18T15:50:14Z</time>
      </trkpt>
      <trkpt lat="47.89967" lon="7.09994">
        <ele>1391.7</ele>
        <time>2023-05-18T15:50:24Z</time>
      </trkpt>
      <trkpt lat="47.89963" lon="7.09992">
        <ele>1390.8</ele>
        <time>2023-05-18T15:50:28Z</time>
      </trkpt>
      <trkpt lat="47.8995" lon="7.09984">
        <ele>1387.7</ele>
        <time>2023-05-18T15:50:45Z</time>
      </trkpt>
      <trkpt lat="47.89947" lon="7.09978">
        <ele>1387.3</ele>
        <time>2023-05-18T15:50:50Z</time>
      </trkpt>
      <trkpt lat="47.89942" lon="7.09975">
        <ele>1386</ele>
        <time>2023-05-18T15:50:55Z</time>
      </trkpt>
      <trkpt lat="47.89922" lon="7.09945">
        <ele>1383.5</ele>
        <time>2023-05-18T15:51:23Z</time>
      </trkpt>
      <trkpt lat="47.89908" lon="7.09932">
        <ele>1378.9</ele>
        <time>2023-05-18T15:51:39Z</time>
      </trkpt>
      <trkpt lat="47.89899" lon="7.0992">
        <ele>1375.6</ele>
        <time>2023-05-18T15:51:53Z</time>
      </trkpt>
      <trkpt lat="47.89899" lon="7.09913">
        <ele>1374.9</ele>
        <time>2023-05-18T15:51:58Z</time>
      </trkpt>
      <trkpt lat="47.89901" lon="7.09898">
        <ele>1372.6</ele>
        <time>2023-05-18T15:52:07Z</time>
      </trkpt>
      <trkpt lat="47.8991" lon="7.09882">
        <ele>1372.9</ele>
        <time>2023-05-18T15:52:22Z</time>
      </trkpt>
      <trkpt lat="47.89912" lon="7.09876">
        <ele>1372.4</ele>
        <time>2023-05-18T15:52:26Z</time>
      </trkpt>
      <trkpt lat="47.89914" lon="7.09871">
        <ele>1372.1</ele>
        <time>2023-05-18T15:52:30Z</time>
      </trkpt>
      <trkpt lat="47.89918" lon="7.09856">
        <ele>1370.2</ele>
        <time>2023-05-18T15:52:43Z</time>
      </trkpt>
      <trkpt lat="47.8992" lon="7.0985">
        <ele>1369.4</ele>
        <time>2023-05-18T15:52:48Z</time>
      </trkpt>
      <trkpt lat="47.89922" lon="7.09843">
        <ele>1368.4</ele>
        <time>2023-05-18T15:52:54Z</time>
      </trkpt>
      <trkpt lat="47.89926" lon="7.09834">
        <ele>1367.8</ele>
        <time>2023-05-18T15:53:05Z</time>
      </trkpt>
      <trkpt lat="47.89927" lon="7.09827">
        <ele>1366.6</ele>
        <time>2023-05-18T15:53:10Z</time>
      </trkpt>
      <trkpt lat="47.89937" lon="7.09799">
        <ele>1362.9</ele>
        <time>2023-05-18T15:53:30Z</time>
      </trkpt>
      <trkpt lat="47.89938" lon="7.09789">
        <ele>1360.7</ele>
        <time>2023-05-18T15:53:37Z</time>
      </trkpt>
      <trkpt lat="47.8994" lon="7.09783">
        <ele>1359.9</ele>
        <time>2023-05-18T15:53:41Z</time>
      </trkpt>
      <trkpt lat="47.89943" lon="7.09777">
        <ele>1359.3</ele>
        <time>2023-05-18T15:53:45Z</time>
      </trkpt>
      <trkpt lat="47.89946" lon="7.09772">
        <ele>1358.8</ele>
        <time>2023-05-18T15:53:50Z</time>
      </trkpt>
      <trkpt lat="47.89949" lon="7.09761">
        <ele>1356.5</ele>
        <time>2023-05-18T15:54:00Z</time>
      </trkpt>
      <trkpt lat="47.8996" lon="7.09745">
        <ele>1355.1</ele>
        <time>2023-05-18T15:54:14Z</time>
      </trkpt>
      <trkpt lat="47.89962" lon="7.09739">
        <ele>1354</ele>
        <time>2023-05-18T15:54:18Z</time>
      </trkpt>
      <trkpt lat="47.89974" lon="7.09716">
        <ele>1351.5</ele>
        <time>2023-05-18T15:54:36Z</time>
      </trkpt>
      <trkpt lat="47.89978" lon="7.0971">
        <ele>1350.8</ele>
        <time>2023-05-18T15:54:43Z</time>
      </trkpt>
      <trkpt lat="47.8998" lon="7.09703">
        <ele>1349.2</ele>
        <time>2023-05-18T15:54:48Z</time>
      </trkpt>
      <trkpt lat="47.89983" lon="7.09697">
        <ele>1348.3</ele>
        <time>2023-05-18T15:54:53Z</time>
      </trkpt>
      <trkpt lat="47.89987" lon="7.09691">
        <ele>1347.7</ele>
        <time>2023-05-18T15:54:58Z</time>
      </trkpt>
      <trkpt lat="47.8999" lon="7.09685">
        <ele>1346.9</ele>
        <time>2023-05-18T15:55:02Z</time>
      </trkpt>
      <trkpt lat="47.89992" lon="7.09678">
        <ele>1345.5</ele>
        <time>2023-05-18T15:55:06Z</time>
      </trkpt>
      <trkpt lat="47.89995" lon="7.09673">
        <ele>1345.1</ele>
        <time>2023-05-18T15:55:11Z</time>
      </trkpt>
      <trkpt lat="47.89997" lon="7.09665">
        <ele>1343.3</ele>
        <time>2023-05-18T15:55:18Z</time>
      </trkpt>
      <trkpt lat="47.89998" lon="7.09657">
        <ele>1340.8</ele>
        <time>2023-05-18T15:55:22Z</time>
      </trkpt>
      <trkpt lat="47.9" lon="7.09652">
        <ele>1339.7</ele>
        <time>2023-05-18T15:55:26Z</time>
      </trkpt>
      <trkpt lat="47.90004" lon="7.09648">
        <ele>1339.9</ele>
        <time>2023-05-18T15:55:31Z</time>
      </trkpt>
      <trkpt lat="47.90014" lon="7.09633">
        <ele>1339</ele>
        <time>2023-05-18T15:55:43Z</time>
      </trkpt>
      <trkpt lat="47.90016" lon="7.09625">
        <ele>1337.1</ele>
        <time>2023-05-18T15:55:48Z</time>
      </trkpt>
      <trkpt lat="47.90019" lon="7.0962">
        <ele>1336.6</ele>
        <time>2023-05-18T15:55:51Z</time>
      </trkpt>
      <trkpt lat="47.90029" lon="7.09604">
        <ele>1334.8</ele>
        <time>2023-05-18T15:56:08Z</time>
      </trkpt>
      <trkpt lat="47.90033" lon="7.09601">
        <ele>1334.9</ele>
        <time>2023-05-18T15:56:13Z</time>
      </trkpt>
      <trkpt lat="47.90038" lon="7.09583">
        <ele>1329.4</ele>
        <time>2023-05-18T15:56:29Z</time>
      </trkpt>
      <trkpt lat="47.90047" lon="7.09573">
        <ele>1326.9</ele>
        <time>2023-05-18T15:56:41Z</time>
      </trkpt>
      <trkpt lat="47.90051" lon="7.09572">
        <ele>1327.3</ele>
        <time>2023-05-18T15:56:45Z</time>
      </trkpt>
      <trkpt lat="47.90061" lon="7.09568">
        <ele>1327.1</ele>
        <time>2023-05-18T15:56:54Z</time>
      </trkpt>
      <trkpt lat="47.90065" lon="7.09563">
        <ele>1325.1</ele>
        <time>2023-05-18T15:56:58Z</time>
      </trkpt>
      <trkpt lat="47.9007" lon="7.09561">
        <ele>1324.8</ele>
        <time>2023-05-18T15:57:02Z</time>
      </trkpt>
      <trkpt lat="47.90074" lon="7.09558">
        <ele>1323.9</ele>
        <time>2023-05-18T15:57:05Z</time>
      </trkpt>
      <trkpt lat="47.90081" lon="7.09553">
        <ele>1322.3</ele>
        <time>2023-05-18T15:57:14Z</time>
      </trkpt>
      <trkpt lat="47.90091" lon="7.0955">
        <ele>1322.4</ele>
        <time>2023-05-18T15:57:26Z</time>
      </trkpt>
      <trkpt lat="47.90104" lon="7.09535">
        <ele>1317.2</ele>
        <time>2023-05-18T15:57:49Z</time>
      </trkpt>
      <trkpt lat="47.90133" lon="7.0951">
        <ele>1312.5</ele>
        <time>2023-05-18T15:58:21Z</time>
      </trkpt>
      <trkpt lat="47.90137" lon="7.09508">
        <ele>1312.5</ele>
        <time>2023-05-18T15:58:27Z</time>
      </trkpt>
      <trkpt lat="47.90141" lon="7.09504">
        <ele>1311.3</ele>
        <time>2023-05-18T15:58:31Z</time>
      </trkpt>
      <trkpt lat="47.90146" lon="7.09499">
        <ele>1309.5</ele>
        <time>2023-05-18T15:58:41Z</time>
      </trkpt>
      <trkpt lat="47.9015" lon="7.09494">
        <ele>1307.4</ele>
        <time>2023-05-18T15:58:45Z</time>
      </trkpt>
      <trkpt lat="47.90159" lon="7.09491">
        <ele>1307.3</ele>
        <time>2023-05-18T15:58:52Z</time>
      </trkpt>
      <trkpt lat="47.90165" lon="7.09487">
        <ele>1306.2</ele>
        <time>2023-05-18T15:59:04Z</time>
      </trkpt>
      <trkpt lat="47.90169" lon="7.09481">
        <ele>1304.2</ele>
        <time>2023-05-18T15:59:08Z</time>
      </trkpt>
      <trkpt lat="47.90173" lon="7.09478">
        <ele>1304.1</ele>
        <time>2023-05-18T15:59:12Z</time>
      </trkpt>
      <trkpt lat="47.90176" lon="7.09473">
        <ele>1303</ele>
        <time>2023-05-18T15:59:20Z</time>
      </trkpt>
      <trkpt lat="47.90178" lon="7.09465">
        <ele>1301.3</ele>
        <time>2023-05-18T15:59:23Z</time>
      </trkpt>
      <trkpt lat="47.90182" lon="7.09461">
        <ele>1302</ele>
        <time>2023-05-18T15:59:26Z</time>
      </trkpt>
      <trkpt lat="47.90186" lon="7.09457">
        <ele>1302.9</ele>
        <time>2023-05-18T15:59:33Z</time>
      </trkpt>
      <trkpt lat="47.90188" lon="7.09446">
        <ele>1301.4</ele>
        <time>2023-05-18T15:59:40Z</time>
      </trkpt>
      <trkpt lat="47.90188" lon="7.09439">
        <ele>1301.4</ele>
        <time>2023-05-18T15:59:44Z</time>
      </trkpt>
      <trkpt lat="47.90187" lon="7.09432">
        <ele>1301.1</ele>
        <time>2023-05-18T15:59:48Z</time>
      </trkpt>
      <trkpt lat="47.90184" lon="7.09419">
        <ele>1299.3</ele>
        <time>2023-05-18T15:59:56Z</time>
      </trkpt>
      <trkpt lat="47.90183" lon="7.0941">
        <ele>1297.9</ele>
        <time>2023-05-18T16:00:03Z</time>
      </trkpt>
      <trkpt lat="47.90186" lon="7.09399">
        <ele>1299</ele>
        <time>2023-05-18T16:00:12Z</time>
      </trkpt>
      <trkpt lat="47.90186" lon="7.09393">
        <ele>1298.4</ele>
        <time>2023-05-18T16:00:16Z</time>
      </trkpt>
      <trkpt lat="47.90188" lon="7.09387">
        <ele>1299</ele>
        <time>2023-05-18T16:00:20Z</time>
      </trkpt>
      <trkpt lat="47.90194" lon="7.0936">
        <ele>1297.5</ele>
        <time>2023-05-18T16:00:37Z</time>
      </trkpt>
      <trkpt lat="47.90196" lon="7.0935">
        <ele>1295.9</ele>
        <time>2023-05-18T16:00:46Z</time>
      </trkpt>
      <trkpt lat="47.90202" lon="7.09342">
        <ele>1295</ele>
        <time>2023-05-18T16:00:54Z</time>
      </trkpt>
      <trkpt lat="47.90208" lon="7.09328">
        <ele>1292.4</ele>
        <time>2023-05-18T16:01:04Z</time>
      </trkpt>
      <trkpt lat="47.90213" lon="7.09322">
        <ele>1291.4</ele>
        <time>2023-05-18T16:01:11Z</time>
      </trkpt>
      <trkpt lat="47.90216" lon="7.09317">
        <ele>1290.4</ele>
        <time>2023-05-18T16:01:15Z</time>
      </trkpt>
      <trkpt lat="47.9023" lon="7.09301">
        <ele>1287.4</ele>
        <time>2023-05-18T16:01:29Z</time>
      </trkpt>
      <trkpt lat="47.90238" lon="7.0929">
        <ele>1284.7</ele>
        <time>2023-05-18T16:01:38Z</time>
      </trkpt>
      <trkpt lat="47.90248" lon="7.09285">
        <ele>1284.1</ele>
        <time>2023-05-18T16:01:47Z</time>
      </trkpt>
      <trkpt lat="47.90261" lon="7.09282">
        <ele>1282.5</ele>
        <time>2023-05-18T16:01:58Z</time>
      </trkpt>
      <trkpt lat="47.90266" lon="7.09284">
        <ele>1282.6</ele>
        <time>2023-05-18T16:02:02Z</time>
      </trkpt>
      <trkpt lat="47.9027" lon="7.09284">
        <ele>1282.3</ele>
        <time>2023-05-18T16:02:06Z</time>
      </trkpt>
      <trkpt lat="47.90276" lon="7.09281">
        <ele>1281</ele>
        <time>2023-05-18T16:02:11Z</time>
      </trkpt>
      <trkpt lat="47.90281" lon="7.09281">
        <ele>1280.3</ele>
        <time>2023-05-18T16:02:14Z</time>
      </trkpt>
      <trkpt lat="47.90285" lon="7.09279">
        <ele>1279.3</ele>
        <time>2023-05-18T16:02:17Z</time>
      </trkpt>
      <trkpt lat="47.90295" lon="7.0928">
        <ele>1278.1</ele>
        <time>2023-05-18T16:02:24Z</time>
      </trkpt>
      <trkpt lat="47.90304" lon="7.09283">
        <ele>1277.5</ele>
        <time>2023-05-18T16:02:30Z</time>
      </trkpt>
      <trkpt lat="47.90318" lon="7.09281">
        <ele>1274.5</ele>
        <time>2023-05-18T16:02:43Z</time>
      </trkpt>
      <trkpt lat="47.90322" lon="7.09284">
        <ele>1274.5</ele>
        <time>2023-05-18T16:02:47Z</time>
      </trkpt>
      <trkpt lat="47.90327" lon="7.09286">
        <ele>1274</ele>
        <time>2023-05-18T16:02:51Z</time>
      </trkpt>
      <trkpt lat="47.90336" lon="7.09286">
        <ele>1272.2</ele>
        <time>2023-05-18T16:02:59Z</time>
      </trkpt>
      <trkpt lat="47.90341" lon="7.09286">
        <ele>1271.1</ele>
        <time>2023-05-18T16:03:03Z</time>
      </trkpt>
      <trkpt lat="47.90344" lon="7.09289">
        <ele>1271.1</ele>
        <time>2023-05-18T16:03:06Z</time>
      </trkpt>
      <trkpt lat="47.90349" lon="7.09291">
        <ele>1270.5</ele>
        <time>2023-05-18T16:03:10Z</time>
      </trkpt>
      <trkpt lat="47.90354" lon="7.09292">
        <ele>1269.6</ele>
        <time>2023-05-18T16:03:15Z</time>
      </trkpt>
      <trkpt lat="47.90359" lon="7.09294">
        <ele>1269</ele>
        <time>2023-05-18T16:03:19Z</time>
      </trkpt>
      <trkpt lat="47.90364" lon="7.09294">
        <ele>1268</ele>
        <time>2023-05-18T16:03:24Z</time>
      </trkpt>
      <trkpt lat="47.90371" lon="7.09296">
        <ele>1267</ele>
        <time>2023-05-18T16:03:30Z</time>
      </trkpt>
      <trkpt lat="47.90379" lon="7.09295">
        <ele>1265.3</ele>
        <time>2023-05-18T16:03:49Z</time>
      </trkpt>
      <trkpt lat="47.90384" lon="7.09296">
        <ele>1264.6</ele>
        <time>2023-05-18T16:03:53Z</time>
      </trkpt>
      <trkpt lat="47.90388" lon="7.09297">
        <ele>1263.9</ele>
        <time>2023-05-18T16:03:57Z</time>
      </trkpt>
      <trkpt lat="47.90393" lon="7.09297">
        <ele>1263.3</ele>
        <time>2023-05-18T16:04:01Z</time>
      </trkpt>
      <trkpt lat="47.90398" lon="7.09295">
        <ele>1262.5</ele>
        <time>2023-05-18T16:04:06Z</time>
      </trkpt>
      <trkpt lat="47.90401" lon="7.09289">
        <ele>1261.3</ele>
        <time>2023-05-18T16:04:11Z</time>
      </trkpt>
      <trkpt lat="47.90409" lon="7.09269">
        <ele>1257.8</ele>
        <time>2023-05-18T16:04:26Z</time>
      </trkpt>
      <trkpt lat="47.90423" lon="7.09225">
        <ele>1250.7</ele>
        <time>2023-05-18T16:04:58Z</time>
      </trkpt>
      <trkpt lat="47.90428" lon="7.09204">
        <ele>1247.4</ele>
        <time>2023-05-18T16:05:12Z</time>
      </trkpt>
      <trkpt lat="47.90429" lon="7.09197">
        <ele>1246.4</ele>
        <time>2023-05-18T16:05:17Z</time>
      </trkpt>
      <trkpt lat="47.90435" lon="7.09178">
        <ele>1244.3</ele>
        <time>2023-05-18T16:05:31Z</time>
      </trkpt>
      <trkpt lat="47.90444" lon="7.09154">
        <ele>1242.1</ele>
        <time>2023-05-18T16:05:48Z</time>
      </trkpt>
      <trkpt lat="47.90458" lon="7.09102">
        <ele>1236.9</ele>
        <time>2023-05-18T16:06:20Z</time>
      </trkpt>
      <trkpt lat="47.90466" lon="7.09086">
        <ele>1235.4</ele>
        <time>2023-05-18T16:06:32Z</time>
      </trkpt>
      <trkpt lat="47.90493" lon="7.09046">
        <ele>1232.5</ele>
        <time>2023-05-18T16:07:05Z</time>
      </trkpt>
      <trkpt lat="47.90496" lon="7.09041">
        <ele>1232</ele>
        <time>2023-05-18T16:07:09Z</time>
      </trkpt>
      <trkpt lat="47.90498" lon="7.09035">
        <ele>1231.5</ele>
        <time>2023-05-18T16:07:13Z</time>
      </trkpt>
      <trkpt lat="47.90503" lon="7.0903">
        <ele>1231.1</ele>
        <time>2023-05-18T16:07:21Z</time>
      </trkpt>
      <trkpt lat="47.90504" lon="7.09023">
        <ele>1230.9</ele>
        <time>2023-05-18T16:07:25Z</time>
      </trkpt>
      <trkpt lat="47.90505" lon="7.09007">
        <ele>1230.4</ele>
        <time>2023-05-18T16:08:05Z</time>
      </trkpt>
      <trkpt lat="47.90504" lon="7.08999">
        <ele>1230.2</ele>
        <time>2023-05-18T16:08:12Z</time>
      </trkpt>
      <trkpt lat="47.90501" lon="7.08994">
        <ele>1230.1</ele>
        <time>2023-05-18T16:08:16Z</time>
      </trkpt>
      <trkpt lat="47.90497" lon="7.08988">
        <ele>1229.8</ele>
        <time>2023-05-18T16:08:20Z</time>
      </trkpt>
      <trkpt lat="47.90494" lon="7.0898">
        <ele>1229.6</ele>
        <time>2023-05-18T16:08:26Z</time>
      </trkpt>
      <trkpt lat="47.90491" lon="7.08974">
        <ele>1229.4</ele>
        <time>2023-05-18T16:08:30Z</time>
      </trkpt>
      <trkpt lat="47.90491" lon="7.08967">
        <ele>1229.7</ele>
        <time>2023-05-18T16:08:35Z</time>
      </trkpt>
      <trkpt lat="47.90509" lon="7.08978">
        <ele>1230.8</ele>
        <time>2023-05-18T16:47:07Z</time>
      </trkpt>
      <trkpt lat="47.90512" lon="7.08976">
        <ele>1231.2</ele>
        <time>2023-05-18T16:47:12Z</time>
      </trkpt>
      <trkpt lat="47.90515" lon="7.08974">
        <ele>1231.6</ele>
        <time>2023-05-18T16:47:16Z</time>
      </trkpt>
      <trkpt lat="47.90518" lon="7.08968">
        <ele>1232.4</ele>
        <time>2023-05-18T16:47:21Z</time>
      </trkpt>
      <trkpt lat="47.90519" lon="7.08961">
        <ele>1233.4</ele>
        <time>2023-05-18T16:47:26Z</time>
      </trkpt>
      <trkpt lat="47.90517" lon="7.08955">
        <ele>1233.8</ele>
        <time>2023-05-18T16:47:30Z</time>
      </trkpt>
      <trkpt lat="47.90513" lon="7.08951">
        <ele>1233.6</ele>
        <time>2023-05-18T16:47:34Z</time>
      </trkpt>
      <trkpt lat="47.90504" lon="7.08943">
        <ele>1232.9</ele>
        <time>2023-05-18T16:47:41Z</time>
      </trkpt>
      <trkpt lat="47.90503" lon="7.08937">
        <ele>1233.6</ele>
        <time>2023-05-18T16:47:45Z</time>
      </trkpt>
      <trkpt lat="47.90496" lon="7.08931">
        <ele>1233.2</ele>
        <time>2023-05-18T16:48:04Z</time>
      </trkpt>
      <trkpt lat="47.9049" lon="7.08919">
        <ele>1233.3</ele>
        <time>2023-05-18T16:48:17Z</time>
      </trkpt>
      <trkpt lat="47.90488" lon="7.08909">
        <ele>1233.4</ele>
        <time>2023-05-18T16:48:24Z</time>
      </trkpt>
      <trkpt lat="47.90486" lon="7.08902">
        <ele>1233.3</ele>
        <time>2023-05-18T16:48:29Z</time>
      </trkpt>
      <trkpt lat="47.90486" lon="7.08891">
        <ele>1233.9</ele>
        <time>2023-05-18T16:48:36Z</time>
      </trkpt>
      <trkpt lat="47.90484" lon="7.08882">
        <ele>1233.7</ele>
        <time>2023-05-18T16:48:41Z</time>
      </trkpt>
      <trkpt lat="47.90482" lon="7.08874">
        <ele>1233.5</ele>
        <time>2023-05-18T16:48:46Z</time>
      </trkpt>
      <trkpt lat="47.90478" lon="7.08869">
        <ele>1232.5</ele>
        <time>2023-05-18T16:48:49Z</time>
      </trkpt>
      <trkpt lat="47.90475" lon="7.08863">
        <ele>1231.8</ele>
        <time>2023-05-18T16:48:53Z</time>
      </trkpt>
      <trkpt lat="47.90471" lon="7.0886">
        <ele>1230.6</ele>
        <time>2023-05-18T16:48:58Z</time>
      </trkpt>
      <trkpt lat="47.90471" lon="7.08852">
        <ele>1231.2</ele>
        <time>2023-05-18T16:49:03Z</time>
      </trkpt>
      <trkpt lat="47.90474" lon="7.08839">
        <ele>1233.2</ele>
        <time>2023-05-18T16:49:12Z</time>
      </trkpt>
      <trkpt lat="47.90475" lon="7.08819">
        <ele>1234.9</ele>
        <time>2023-05-18T16:49:26Z</time>
      </trkpt>
      <trkpt lat="47.90474" lon="7.08812">
        <ele>1235.1</ele>
        <time>2023-05-18T16:49:30Z</time>
      </trkpt>
      <trkpt lat="47.90473" lon="7.08805">
        <ele>1235.3</ele>
        <time>2023-05-18T16:49:34Z</time>
      </trkpt>
      <trkpt lat="47.90472" lon="7.08797">
        <ele>1235.5</ele>
        <time>2023-05-18T16:49:38Z</time>
      </trkpt>
      <trkpt lat="47.90468" lon="7.08779">
        <ele>1234.9</ele>
        <time>2023-05-18T16:49:52Z</time>
      </trkpt>
      <trkpt lat="47.90464" lon="7.0877">
        <ele>1233.9</ele>
        <time>2023-05-18T16:50:01Z</time>
      </trkpt>
      <trkpt lat="47.90451" lon="7.08733">
        <ele>1233.5</ele>
        <time>2023-05-18T16:50:23Z</time>
      </trkpt>
      <trkpt lat="47.90448" lon="7.08727">
        <ele>1233.4</ele>
        <time>2023-05-18T16:50:27Z</time>
      </trkpt>
      <trkpt lat="47.90444" lon="7.08716">
        <ele>1233.9</ele>
        <time>2023-05-18T16:50:34Z</time>
      </trkpt>
      <trkpt lat="47.90442" lon="7.08709">
        <ele>1234.4</ele>
        <time>2023-05-18T16:50:38Z</time>
      </trkpt>
      <trkpt lat="47.90441" lon="7.08703">
        <ele>1235.1</ele>
        <time>2023-05-18T16:50:42Z</time>
      </trkpt>
      <trkpt lat="47.90438" lon="7.08696">
        <ele>1235.2</ele>
        <time>2023-05-18T16:50:46Z</time>
      </trkpt>
      <trkpt lat="47.90436" lon="7.08691">
        <ele>1235.4</ele>
        <time>2023-05-18T16:50:50Z</time>
      </trkpt>
      <trkpt lat="47.90433" lon="7.08685">
        <ele>1235.5</ele>
        <time>2023-05-18T16:50:54Z</time>
      </trkpt>
      <trkpt lat="47.90427" lon="7.0867">
        <ele>1236.4</ele>
        <time>2023-05-18T16:51:05Z</time>
      </trkpt>
      <trkpt lat="47.90426" lon="7.08664">
        <ele>1237.2</ele>
        <time>2023-05-18T16:51:09Z</time>
      </trkpt>
      <trkpt lat="47.90419" lon="7.08641">
        <ele>1239.4</ele>
        <time>2023-05-18T16:51:27Z</time>
      </trkpt>
      <trkpt lat="47.90416" lon="7.08627">
        <ele>1241.8</ele>
        <time>2023-05-18T16:51:36Z</time>
      </trkpt>
      <trkpt lat="47.90406" lon="7.08607">
        <ele>1244</ele>
        <time>2023-05-18T16:51:55Z</time>
      </trkpt>
      <trkpt lat="47.90404" lon="7.08598">
        <ele>1245.7</ele>
        <time>2023-05-18T16:52:02Z</time>
      </trkpt>
      <trkpt lat="47.90401" lon="7.08592">
        <ele>1246.3</ele>
        <time>2023-05-18T16:52:06Z</time>
      </trkpt>
      <trkpt lat="47.90395" lon="7.08583">
        <ele>1246.9</ele>
        <time>2023-05-18T16:52:14Z</time>
      </trkpt>
      <trkpt lat="47.90399" lon="7.08579">
        <ele>1249</ele>
        <time>2023-05-18T16:52:25Z</time>
      </trkpt>
      <trkpt lat="47.90404" lon="7.08581">
        <ele>1249.9</ele>
        <time>2023-05-18T16:52:30Z</time>
      </trkpt>
      <trkpt lat="47.90404" lon="7.08577">
        <ele>1250.9</ele>
        <time>2023-05-18T16:53:44Z</time>
      </trkpt>
      <trkpt lat="47.90402" lon="7.0857">
        <ele>1252.2</ele>
        <time>2023-05-18T16:54:01Z</time>
      </trkpt>
      <trkpt lat="47.90397" lon="7.08591">
        <ele>1245.4</ele>
        <time>2023-05-18T16:55:02Z</time>
      </trkpt>
      <trkpt lat="47.90404" lon="7.08594">
        <ele>1246.7</ele>
        <time>2023-05-18T16:55:13Z</time>
      </trkpt>
      <trkpt lat="47.90407" lon="7.08592">
        <ele>1248</ele>
        <time>2023-05-18T16:55:18Z</time>
      </trkpt>
      <trkpt lat="47.9041" lon="7.08587">
        <ele>1250.2</ele>
        <time>2023-05-18T16:55:24Z</time>
      </trkpt>
      <trkpt lat="47.90406" lon="7.08581">
        <ele>1250.5</ele>
        <time>2023-05-18T16:56:29Z</time>
      </trkpt>
      <trkpt lat="47.90398" lon="7.0858">
        <ele>1248.5</ele>
        <time>2023-05-18T16:57:01Z</time>
      </trkpt>
      <trkpt lat="47.90395" lon="7.08576">
        <ele>1248.8</ele>
        <time>2023-05-18T16:57:06Z</time>
      </trkpt>
      <trkpt lat="47.90374" lon="7.08545">
        <ele>1251</ele>
        <time>2023-05-18T16:57:36Z</time>
      </trkpt>
      <trkpt lat="47.90371" lon="7.08537">
        <ele>1252.3</ele>
        <time>2023-05-18T16:57:46Z</time>
      </trkpt>
      <trkpt lat="47.90361" lon="7.08515">
        <ele>1255.2</ele>
        <time>2023-05-18T16:58:05Z</time>
      </trkpt>
      <trkpt lat="47.90359" lon="7.08508">
        <ele>1256.3</ele>
        <time>2023-05-18T16:58:13Z</time>
      </trkpt>
      <trkpt lat="47.9036" lon="7.08501">
        <ele>1258.4</ele>
        <time>2023-05-18T16:58:19Z</time>
      </trkpt>
      <trkpt lat="47.90369" lon="7.08486">
        <ele>1264.4</ele>
        <time>2023-05-18T16:58:32Z</time>
      </trkpt>
      <trkpt lat="47.9037" lon="7.08475">
        <ele>1267</ele>
        <time>2023-05-18T16:58:40Z</time>
      </trkpt>
      <trkpt lat="47.90367" lon="7.08456">
        <ele>1270.2</ele>
        <time>2023-05-18T16:59:00Z</time>
      </trkpt>
      <trkpt lat="47.90362" lon="7.08448">
        <ele>1270.5</ele>
        <time>2023-05-18T16:59:12Z</time>
      </trkpt>
      <trkpt lat="47.90357" lon="7.08442">
        <ele>1270</ele>
        <time>2023-05-18T16:59:19Z</time>
      </trkpt>
      <trkpt lat="47.90356" lon="7.08436">
        <ele>1270.6</ele>
        <time>2023-05-18T16:59:27Z</time>
      </trkpt>
      <trkpt lat="47.90352" lon="7.08431">
        <ele>1270</ele>
        <time>2023-05-18T16:59:33Z</time>
      </trkpt>
      <trkpt lat="47.90355" lon="7.08426">
        <ele>1271.7</ele>
        <time>2023-05-18T16:59:51Z</time>
      </trkpt>
      <trkpt lat="47.9036" lon="7.08426">
        <ele>1273.3</ele>
        <time>2023-05-18T17:00:01Z</time>
      </trkpt>
      <trkpt lat="47.90364" lon="7.08428">
        <ele>1274.4</ele>
        <time>2023-05-18T17:00:22Z</time>
      </trkpt>
      <trkpt lat="47.90368" lon="7.08429">
        <ele>1275.6</ele>
        <time>2023-05-18T17:00:41Z</time>
      </trkpt>
      <trkpt lat="47.90368" lon="7.08422">
        <ele>1276.8</ele>
        <time>2023-05-18T17:00:45Z</time>
      </trkpt>
      <trkpt lat="47.90361" lon="7.08389">
        <ele>1279.9</ele>
        <time>2023-05-18T17:01:10Z</time>
      </trkpt>
      <trkpt lat="47.90358" lon="7.08385">
        <ele>1279.7</ele>
        <time>2023-05-18T17:01:15Z</time>
      </trkpt>
      <trkpt lat="47.9036" lon="7.08375">
        <ele>1282.6</ele>
        <time>2023-05-18T17:01:27Z</time>
      </trkpt>
      <trkpt lat="47.90352" lon="7.08355">
        <ele>1284.3</ele>
        <time>2023-05-18T17:01:47Z</time>
      </trkpt>
      <trkpt lat="47.90354" lon="7.08345">
        <ele>1287.8</ele>
        <time>2023-05-18T17:01:57Z</time>
      </trkpt>
      <trkpt lat="47.90352" lon="7.08337">
        <ele>1289.1</ele>
        <time>2023-05-18T17:02:08Z</time>
      </trkpt>
      <trkpt lat="47.90348" lon="7.08322">
        <ele>1291.6</ele>
        <time>2023-05-18T17:02:28Z</time>
      </trkpt>
      <trkpt lat="47.90349" lon="7.08314">
        <ele>1294.3</ele>
        <time>2023-05-18T17:02:32Z</time>
      </trkpt>
      <trkpt lat="47.90344" lon="7.08296">
        <ele>1297.1</ele>
        <time>2023-05-18T17:02:52Z</time>
      </trkpt>
      <trkpt lat="47.90341" lon="7.08264">
        <ele>1304.3</ele>
        <time>2023-05-18T17:03:27Z</time>
      </trkpt>
      <trkpt lat="47.90345" lon="7.08262">
        <ele>1306.9</ele>
        <time>2023-05-18T17:03:35Z</time>
      </trkpt>
      <trkpt lat="47.90346" lon="7.08253">
        <ele>1310</ele>
        <time>2023-05-18T17:03:47Z</time>
      </trkpt>
      <trkpt lat="47.90345" lon="7.08246">
        <ele>1311.4</ele>
        <time>2023-05-18T17:03:53Z</time>
      </trkpt>
      <trkpt lat="47.9034" lon="7.08209">
        <ele>1317.9</ele>
        <time>2023-05-18T17:04:27Z</time>
      </trkpt>
      <trkpt lat="47.90341" lon="7.08203">
        <ele>1319.9</ele>
        <time>2023-05-18T17:04:32Z</time>
      </trkpt>
      <trkpt lat="47.90338" lon="7.08166">
        <ele>1329.3</ele>
        <time>2023-05-18T17:05:09Z</time>
      </trkpt>
      <trkpt lat="47.9033" lon="7.08143">
        <ele>1334.6</ele>
        <time>2023-05-18T17:05:39Z</time>
      </trkpt>
      <trkpt lat="47.90328" lon="7.08135">
        <ele>1336.1</ele>
        <time>2023-05-18T17:05:48Z</time>
      </trkpt>
      <trkpt lat="47.90326" lon="7.08118">
        <ele>1337.9</ele>
        <time>2023-05-18T17:06:10Z</time>
      </trkpt>
      <trkpt lat="47.90331" lon="7.08112">
        <ele>1338.8</ele>
        <time>2023-05-18T17:06:23Z</time>
      </trkpt>
      <trkpt lat="47.90338" lon="7.08109">
        <ele>1338.9</ele>
        <time>2023-05-18T17:06:41Z</time>
      </trkpt>
      <trkpt lat="47.90342" lon="7.08101">
        <ele>1339.1</ele>
        <time>2023-05-18T17:06:49Z</time>
      </trkpt>
      <trkpt lat="47.90345" lon="7.08097">
        <ele>1339.1</ele>
        <time>2023-05-18T17:06:54Z</time>
      </trkpt>
      <trkpt lat="47.90349" lon="7.08094">
        <ele>1339.1</ele>
        <time>2023-05-18T17:06:59Z</time>
      </trkpt>
      <trkpt lat="47.90353" lon="7.081">
        <ele>1338.7</ele>
        <time>2023-05-18T17:07:19Z</time>
      </trkpt>
      <trkpt lat="47.90358" lon="7.08101">
        <ele>1338.5</ele>
        <time>2023-05-18T17:07:23Z</time>
      </trkpt>
      <trkpt lat="47.90362" lon="7.08102">
        <ele>1338.3</ele>
        <time>2023-05-18T17:07:27Z</time>
      </trkpt>
      <trkpt lat="47.90368" lon="7.08104">
        <ele>1338.4</ele>
        <time>2023-05-18T17:07:36Z</time>
      </trkpt>
      <trkpt lat="47.90373" lon="7.08111">
        <ele>1338.4</ele>
        <time>2023-05-18T17:07:56Z</time>
      </trkpt>
      <trkpt lat="47.90385" lon="7.08124">
        <ele>1338.8</ele>
        <time>2023-05-18T17:08:10Z</time>
      </trkpt>
      <trkpt lat="47.90392" lon="7.0813">
        <ele>1339.3</ele>
        <time>2023-05-18T17:08:26Z</time>
      </trkpt>
      <trkpt lat="47.90391" lon="7.08138">
        <ele>1339.3</ele>
        <time>2023-05-18T17:08:42Z</time>
      </trkpt>
      <trkpt lat="47.90385" lon="7.08133">
        <ele>1338.7</ele>
        <time>2023-05-18T17:08:53Z</time>
      </trkpt>
      <trkpt lat="47.90383" lon="7.0814">
        <ele>1338.6</ele>
        <time>2023-05-18T17:09:05Z</time>
      </trkpt>
      <trkpt lat="47.90383" lon="7.08139">
        <ele>1338.6</ele>
        <time>2023-05-18T17:09:35Z</time>
      </trkpt>
    </trkseg>
  </trk>
  <trk>
    <name><![CDATA[20 mai 2023 à 07:26:50]]></name>
    <extensions>
      <line xmlns="http://www.topografix.com/GPX/gpx_style/0/2">
        <color>00ffff</color>
        <width>9</width>
      </line>
    </extensions>
    <trkseg>
      <trkpt lat="48.0376" lon="7.02676">
        <ele>1206.8</ele>
        <time>2023-05-20T05:26:50Z</time>
      </trkpt>
      <trkpt lat="48.03759" lon="7.02671">
        <ele>1207.9</ele>
        <time>2023-05-20T05:26:52Z</time>
      </trkpt>
      <trkpt lat="48.03756" lon="7.02676">
        <ele>1207.7</ele>
        <time>2023-05-20T05:27:03Z</time>
      </trkpt>
      <trkpt lat="48.03751" lon="7.02678">
        <ele>1208.3</ele>
        <time>2023-05-20T05:27:09Z</time>
      </trkpt>
      <trkpt lat="48.03746" lon="7.02684">
        <ele>1207.8</ele>
        <time>2023-05-20T05:27:15Z</time>
      </trkpt>
      <trkpt lat="48.0374" lon="7.02682">
        <ele>1209</ele>
        <time>2023-05-20T05:27:19Z</time>
      </trkpt>
      <trkpt lat="48.03729" lon="7.02672">
        <ele>1211.8</ele>
        <time>2023-05-20T05:27:34Z</time>
      </trkpt>
      <trkpt lat="48.03723" lon="7.02668">
        <ele>1212.8</ele>
        <time>2023-05-20T05:27:47Z</time>
      </trkpt>
      <trkpt lat="48.03719" lon="7.02663">
        <ele>1213.9</ele>
        <time>2023-05-20T05:28:17Z</time>
      </trkpt>
      <trkpt lat="48.03698" lon="7.02645">
        <ele>1218.8</ele>
        <time>2023-05-20T05:29:36Z</time>
      </trkpt>
      <trkpt lat="48.03698" lon="7.02646">
        <ele>1218.7</ele>
        <time>2023-05-20T05:29:37Z</time>
      </trkpt>
      <trkpt lat="48.03685" lon="7.02651">
        <ele>1220.2</ele>
        <time>2023-05-20T05:29:50Z</time>
      </trkpt>
      <trkpt lat="48.03654" lon="7.02647">
        <ele>1225.1</ele>
        <time>2023-05-20T05:30:18Z</time>
      </trkpt>
      <trkpt lat="48.03643" lon="7.02642">
        <ele>1226.5</ele>
        <time>2023-05-20T05:30:30Z</time>
      </trkpt>
      <trkpt lat="48.0364" lon="7.02638">
        <ele>1226.9</ele>
        <time>2023-05-20T05:30:35Z</time>
      </trkpt>
      <trkpt lat="48.03636" lon="7.02633">
        <ele>1227.3</ele>
        <time>2023-05-20T05:30:40Z</time>
      </trkpt>
      <trkpt lat="48.03635" lon="7.02617">
        <ele>1228.3</ele>
        <time>2023-05-20T05:30:51Z</time>
      </trkpt>
      <trkpt lat="48.03636" lon="7.0261">
        <ele>1228.9</ele>
        <time>2023-05-20T05:30:55Z</time>
      </trkpt>
      <trkpt lat="48.03637" lon="7.02595">
        <ele>1230.6</ele>
        <time>2023-05-20T05:31:04Z</time>
      </trkpt>
      <trkpt lat="48.0364" lon="7.02564">
        <ele>1233.4</ele>
        <time>2023-05-20T05:31:24Z</time>
      </trkpt>
      <trkpt lat="48.03655" lon="7.02533">
        <ele>1237.4</ele>
        <time>2023-05-20T05:31:49Z</time>
      </trkpt>
      <trkpt lat="48.03655" lon="7.02524">
        <ele>1239</ele>
        <time>2023-05-20T05:31:58Z</time>
      </trkpt>
      <trkpt lat="48.03647" lon="7.02508">
        <ele>1242.2</ele>
        <time>2023-05-20T05:32:12Z</time>
      </trkpt>
      <trkpt lat="48.03645" lon="7.02501">
        <ele>1243.8</ele>
        <time>2023-05-20T05:32:20Z</time>
      </trkpt>
      <trkpt lat="48.03638" lon="7.02493">
        <ele>1245.7</ele>
        <time>2023-05-20T05:32:43Z</time>
      </trkpt>
      <trkpt lat="48.03636" lon="7.02485">
        <ele>1247.5</ele>
        <time>2023-05-20T05:32:50Z</time>
      </trkpt>
      <trkpt lat="48.03629" lon="7.02478">
        <ele>1248.7</ele>
        <time>2023-05-20T05:32:59Z</time>
      </trkpt>
      <trkpt lat="48.03627" lon="7.02472">
        <ele>1250.2</ele>
        <time>2023-05-20T05:33:07Z</time>
      </trkpt>
      <trkpt lat="48.03622" lon="7.02468">
        <ele>1250.9</ele>
        <time>2023-05-20T05:33:19Z</time>
      </trkpt>
      <trkpt lat="48.03621" lon="7.02449">
        <ele>1256.1</ele>
        <time>2023-05-20T05:33:40Z</time>
      </trkpt>
      <trkpt lat="48.03616" lon="7.02448">
        <ele>1256.2</ele>
        <time>2023-05-20T05:33:46Z</time>
      </trkpt>
      <trkpt lat="48.03612" lon="7.02443">
        <ele>1257.3</ele>
        <time>2023-05-20T05:33:53Z</time>
      </trkpt>
      <trkpt lat="48.03608" lon="7.02438">
        <ele>1257.5</ele>
        <time>2023-05-20T05:34:01Z</time>
      </trkpt>
      <trkpt lat="48.03607" lon="7.02432">
        <ele>1258.3</ele>
        <time>2023-05-20T05:34:06Z</time>
      </trkpt>
      <trkpt lat="48.03604" lon="7.02426">
        <ele>1258.6</ele>
        <time>2023-05-20T05:34:12Z</time>
      </trkpt>
      <trkpt lat="48.036" lon="7.02412">
        <ele>1259.4</ele>
        <time>2023-05-20T05:34:23Z</time>
      </trkpt>
      <trkpt lat="48.03599" lon="7.02405">
        <ele>1259.3</ele>
        <time>2023-05-20T05:34:29Z</time>
      </trkpt>
      <trkpt lat="48.03599" lon="7.02398">
        <ele>1259.6</ele>
        <time>2023-05-20T05:34:34Z</time>
      </trkpt>
      <trkpt lat="48.03598" lon="7.0239">
        <ele>1259.4</ele>
        <time>2023-05-20T05:34:42Z</time>
      </trkpt>
      <trkpt lat="48.03601" lon="7.02381">
        <ele>1261.2</ele>
        <time>2023-05-20T05:34:54Z</time>
      </trkpt>
      <trkpt lat="48.03603" lon="7.02371">
        <ele>1262.9</ele>
        <time>2023-05-20T05:35:06Z</time>
      </trkpt>
      <trkpt lat="48.03605" lon="7.02364">
        <ele>1264.6</ele>
        <time>2023-05-20T05:35:12Z</time>
      </trkpt>
      <trkpt lat="48.03606" lon="7.02345">
        <ele>1266</ele>
        <time>2023-05-20T05:35:29Z</time>
      </trkpt>
      <trkpt lat="48.03608" lon="7.02337">
        <ele>1267.6</ele>
        <time>2023-05-20T05:35:41Z</time>
      </trkpt>
      <trkpt lat="48.03622" lon="7.02331">
        <ele>1271.7</ele>
        <time>2023-05-20T05:36:02Z</time>
      </trkpt>
      <trkpt lat="48.03626" lon="7.02328">
        <ele>1272.3</ele>
        <time>2023-05-20T05:36:06Z</time>
      </trkpt>
      <trkpt lat="48.03631" lon="7.0232">
        <ele>1273.3</ele>
        <time>2023-05-20T05:36:13Z</time>
      </trkpt>
      <trkpt lat="48.03633" lon="7.02314">
        <ele>1274</ele>
        <time>2023-05-20T05:36:20Z</time>
      </trkpt>
      <trkpt lat="48.03634" lon="7.02307">
        <ele>1274.5</ele>
        <time>2023-05-20T05:36:25Z</time>
      </trkpt>
      <trkpt lat="48.03636" lon="7.02298">
        <ele>1276</ele>
        <time>2023-05-20T05:36:32Z</time>
      </trkpt>
      <trkpt lat="48.03639" lon="7.02277">
        <ele>1279.1</ele>
        <time>2023-05-20T05:36:50Z</time>
      </trkpt>
      <trkpt lat="48.03643" lon="7.02267">
        <ele>1280.6</ele>
        <time>2023-05-20T05:37:02Z</time>
      </trkpt>
      <trkpt lat="48.03648" lon="7.02233">
        <ele>1284.7</ele>
        <time>2023-05-20T05:37:33Z</time>
      </trkpt>
      <trkpt lat="48.03654" lon="7.02192">
        <ele>1289.4</ele>
        <time>2023-05-20T05:38:04Z</time>
      </trkpt>
      <trkpt lat="48.03656" lon="7.02184">
        <ele>1290.3</ele>
        <time>2023-05-20T05:38:12Z</time>
      </trkpt>
      <trkpt lat="48.03662" lon="7.02154">
        <ele>1293</ele>
        <time>2023-05-20T05:38:33Z</time>
      </trkpt>
      <trkpt lat="48.03664" lon="7.02147">
        <ele>1293.9</ele>
        <time>2023-05-20T05:38:38Z</time>
      </trkpt>
      <trkpt lat="48.03665" lon="7.02141">
        <ele>1294.4</ele>
        <time>2023-05-20T05:38:42Z</time>
      </trkpt>
      <trkpt lat="48.03665" lon="7.02133">
        <ele>1294.6</ele>
        <time>2023-05-20T05:38:46Z</time>
      </trkpt>
      <trkpt lat="48.03667" lon="7.02081">
        <ele>1296.1</ele>
        <time>2023-05-20T05:39:20Z</time>
      </trkpt>
      <trkpt lat="48.03668" lon="7.0203">
        <ele>1299.3</ele>
        <time>2023-05-20T05:39:52Z</time>
      </trkpt>
      <trkpt lat="48.03659" lon="7.01975">
        <ele>1304</ele>
        <time>2023-05-20T05:40:29Z</time>
      </trkpt>
      <trkpt lat="48.03659" lon="7.01968">
        <ele>1305.4</ele>
        <time>2023-05-20T05:40:35Z</time>
      </trkpt>
      <trkpt lat="48.03656" lon="7.01962">
        <ele>1305.9</ele>
        <time>2023-05-20T05:40:41Z</time>
      </trkpt>
      <trkpt lat="48.03656" lon="7.01954">
        <ele>1307.8</ele>
        <time>2023-05-20T05:40:49Z</time>
      </trkpt>
      <trkpt lat="48.03651" lon="7.01947">
        <ele>1308.5</ele>
        <time>2023-05-20T05:41:00Z</time>
      </trkpt>
      <trkpt lat="48.03645" lon="7.01944">
        <ele>1308.2</ele>
        <time>2023-05-20T05:41:08Z</time>
      </trkpt>
      <trkpt lat="48.03645" lon="7.01933">
        <ele>1311.4</ele>
        <time>2023-05-20T05:41:20Z</time>
      </trkpt>
      <trkpt lat="48.03633" lon="7.01922">
        <ele>1312.9</ele>
        <time>2023-05-20T05:41:36Z</time>
      </trkpt>
      <trkpt lat="48.03625" lon="7.01911">
        <ele>1314.5</ele>
        <time>2023-05-20T05:41:50Z</time>
      </trkpt>
      <trkpt lat="48.0362" lon="7.01904">
        <ele>1315.6</ele>
        <time>2023-05-20T05:42:02Z</time>
      </trkpt>
      <trkpt lat="48.03619" lon="7.01896">
        <ele>1317.8</ele>
        <time>2023-05-20T05:42:08Z</time>
      </trkpt>
      <trkpt lat="48.03611" lon="7.01888">
        <ele>1319.1</ele>
        <time>2023-05-20T05:42:19Z</time>
      </trkpt>
      <trkpt lat="48.0361" lon="7.01882">
        <ele>1319.5</ele>
        <time>2023-05-20T05:42:27Z</time>
      </trkpt>
      <trkpt lat="48.03621" lon="7.01867">
        <ele>1323.2</ele>
        <time>2023-05-20T05:42:50Z</time>
      </trkpt>
      <trkpt lat="48.03624" lon="7.01861">
        <ele>1324.4</ele>
        <time>2023-05-20T05:42:55Z</time>
      </trkpt>
      <trkpt lat="48.03623" lon="7.01853">
        <ele>1323.6</ele>
        <time>2023-05-20T05:43:01Z</time>
      </trkpt>
      <trkpt lat="48.03627" lon="7.01848">
        <ele>1324</ele>
        <time>2023-05-20T05:43:06Z</time>
      </trkpt>
      <trkpt lat="48.03635" lon="7.01843">
        <ele>1325.7</ele>
        <time>2023-05-20T05:43:15Z</time>
      </trkpt>
      <trkpt lat="48.03639" lon="7.01836">
        <ele>1326.9</ele>
        <time>2023-05-20T05:43:22Z</time>
      </trkpt>
      <trkpt lat="48.03643" lon="7.01832">
        <ele>1327.5</ele>
        <time>2023-05-20T05:43:27Z</time>
      </trkpt>
      <trkpt lat="48.03648" lon="7.01826">
        <ele>1328.1</ele>
        <time>2023-05-20T05:43:34Z</time>
      </trkpt>
      <trkpt lat="48.03666" lon="7.01793">
        <ele>1334.7</ele>
        <time>2023-05-20T05:44:12Z</time>
      </trkpt>
      <trkpt lat="48.03678" lon="7.0177">
        <ele>1337.2</ele>
        <time>2023-05-20T05:44:34Z</time>
      </trkpt>
      <trkpt lat="48.03683" lon="7.01759">
        <ele>1338.5</ele>
        <time>2023-05-20T05:44:44Z</time>
      </trkpt>
      <trkpt lat="48.03686" lon="7.01752">
        <ele>1339.6</ele>
        <time>2023-05-20T05:44:52Z</time>
      </trkpt>
      <trkpt lat="48.03691" lon="7.01739">
        <ele>1341.4</ele>
        <time>2023-05-20T05:45:10Z</time>
      </trkpt>
      <trkpt lat="48.03695" lon="7.01735">
        <ele>1343.1</ele>
        <time>2023-05-20T05:45:51Z</time>
      </trkpt>
      <trkpt lat="48.03699" lon="7.01732">
        <ele>1344.1</ele>
        <time>2023-05-20T05:46:38Z</time>
      </trkpt>
      <trkpt lat="48.0371" lon="7.01723">
        <ele>1347.4</ele>
        <time>2023-05-20T05:47:02Z</time>
      </trkpt>
      <trkpt lat="48.03718" lon="7.01706">
        <ele>1351.2</ele>
        <time>2023-05-20T05:47:21Z</time>
      </trkpt>
      <trkpt lat="48.03721" lon="7.01701">
        <ele>1352.8</ele>
        <time>2023-05-20T05:47:29Z</time>
      </trkpt>
      <trkpt lat="48.03723" lon="7.01695">
        <ele>1354.1</ele>
        <time>2023-05-20T05:47:35Z</time>
      </trkpt>
      <trkpt lat="48.03725" lon="7.01686">
        <ele>1355.4</ele>
        <time>2023-05-20T05:47:47Z</time>
      </trkpt>
      <trkpt lat="48.03728" lon="7.01679">
        <ele>1356.6</ele>
        <time>2023-05-20T05:47:58Z</time>
      </trkpt>
      <trkpt lat="48.0373" lon="7.01672">
        <ele>1357.6</ele>
        <time>2023-05-20T05:48:09Z</time>
      </trkpt>
      <trkpt lat="48.03739" lon="7.01656">
        <ele>1359.8</ele>
        <time>2023-05-20T05:48:32Z</time>
      </trkpt>
      <trkpt lat="48.03746" lon="7.01649">
        <ele>1361.1</ele>
        <time>2023-05-20T05:48:42Z</time>
      </trkpt>
      <trkpt lat="48.03749" lon="7.01644">
        <ele>1361.7</ele>
        <time>2023-05-20T05:48:47Z</time>
      </trkpt>
      <trkpt lat="48.03751" lon="7.01636">
        <ele>1362</ele>
        <time>2023-05-20T05:48:52Z</time>
      </trkpt>
      <trkpt lat="48.03751" lon="7.01617">
        <ele>1362</ele>
        <time>2023-05-20T05:49:05Z</time>
      </trkpt>
      <trkpt lat="48.03748" lon="7.01599">
        <ele>1361.6</ele>
        <time>2023-05-20T05:49:20Z</time>
      </trkpt>
      <trkpt lat="48.03744" lon="7.01584">
        <ele>1360.7</ele>
        <time>2023-05-20T05:49:33Z</time>
      </trkpt>
      <trkpt lat="48.03743" lon="7.01578">
        <ele>1360.3</ele>
        <time>2023-05-20T05:49:41Z</time>
      </trkpt>
      <trkpt lat="48.03741" lon="7.0157">
        <ele>1359.6</ele>
        <time>2023-05-20T05:49:53Z</time>
      </trkpt>
      <trkpt lat="48.03738" lon="7.01563">
        <ele>1358.7</ele>
        <time>2023-05-20T05:50:04Z</time>
      </trkpt>
      <trkpt lat="48.03734" lon="7.01558">
        <ele>1357.6</ele>
        <time>2023-05-20T05:50:09Z</time>
      </trkpt>
      <trkpt lat="48.03732" lon="7.01544">
        <ele>1356.4</ele>
        <time>2023-05-20T05:50:19Z</time>
      </trkpt>
      <trkpt lat="48.03732" lon="7.01536">
        <ele>1355.9</ele>
        <time>2023-05-20T05:50:24Z</time>
      </trkpt>
      <trkpt lat="48.03727" lon="7.0152">
        <ele>1354.3</ele>
        <time>2023-05-20T05:50:38Z</time>
      </trkpt>
      <trkpt lat="48.0372" lon="7.01507">
        <ele>1351.7</ele>
        <time>2023-05-20T05:50:48Z</time>
      </trkpt>
      <trkpt lat="48.0372" lon="7.01499">
        <ele>1351.2</ele>
        <time>2023-05-20T05:50:52Z</time>
      </trkpt>
      <trkpt lat="48.03718" lon="7.01489">
        <ele>1349.4</ele>
        <time>2023-05-20T05:51:00Z</time>
      </trkpt>
      <trkpt lat="48.03719" lon="7.01482">
        <ele>1349.6</ele>
        <time>2023-05-20T05:51:05Z</time>
      </trkpt>
      <trkpt lat="48.03713" lon="7.01472">
        <ele>1347.7</ele>
        <time>2023-05-20T05:51:14Z</time>
      </trkpt>
      <trkpt lat="48.03705" lon="7.01466">
        <ele>1345.3</ele>
        <time>2023-05-20T05:51:23Z</time>
      </trkpt>
      <trkpt lat="48.03703" lon="7.01461">
        <ele>1344.5</ele>
        <time>2023-05-20T05:51:27Z</time>
      </trkpt>
      <trkpt lat="48.03703" lon="7.01454">
        <ele>1344.1</ele>
        <time>2023-05-20T05:51:31Z</time>
      </trkpt>
      <trkpt lat="48.03703" lon="7.01447">
        <ele>1343.7</ele>
        <time>2023-05-20T05:51:35Z</time>
      </trkpt>
      <trkpt lat="48.037" lon="7.01431">
        <ele>1341.9</ele>
        <time>2023-05-20T05:51:47Z</time>
      </trkpt>
      <trkpt lat="48.03696" lon="7.01419">
        <ele>1340.4</ele>
        <time>2023-05-20T05:51:55Z</time>
      </trkpt>
      <trkpt lat="48.03698" lon="7.01412">
        <ele>1340.1</ele>
        <time>2023-05-20T05:51:59Z</time>
      </trkpt>
      <trkpt lat="48.037" lon="7.01406">
        <ele>1339.9</ele>
        <time>2023-05-20T05:52:04Z</time>
      </trkpt>
      <trkpt lat="48.03706" lon="7.01387">
        <ele>1338.6</ele>
        <time>2023-05-20T05:52:15Z</time>
      </trkpt>
      <trkpt lat="48.03708" lon="7.01381">
        <ele>1337.8</ele>
        <time>2023-05-20T05:52:19Z</time>
      </trkpt>
      <trkpt lat="48.03709" lon="7.01367">
        <ele>1335.9</ele>
        <time>2023-05-20T05:52:27Z</time>
      </trkpt>
      <trkpt lat="48.03703" lon="7.01364">
        <ele>1335</ele>
        <time>2023-05-20T05:52:34Z</time>
      </trkpt>
      <trkpt lat="48.03683" lon="7.01364">
        <ele>1331.3</ele>
        <time>2023-05-20T05:52:51Z</time>
      </trkpt>
      <trkpt lat="48.03679" lon="7.0136">
        <ele>1330</ele>
        <time>2023-05-20T05:52:56Z</time>
      </trkpt>
      <trkpt lat="48.03682" lon="7.01353">
        <ele>1330.1</ele>
        <time>2023-05-20T05:53:00Z</time>
      </trkpt>
      <trkpt lat="48.03687" lon="7.01341">
        <ele>1329.8</ele>
        <time>2023-05-20T05:53:07Z</time>
      </trkpt>
      <trkpt lat="48.03682" lon="7.01339">
        <ele>1328.7</ele>
        <time>2023-05-20T05:53:13Z</time>
      </trkpt>
      <trkpt lat="48.03677" lon="7.0134">
        <ele>1328</ele>
        <time>2023-05-20T05:53:18Z</time>
      </trkpt>
      <trkpt lat="48.03673" lon="7.0134">
        <ele>1327.3</ele>
        <time>2023-05-20T05:53:23Z</time>
      </trkpt>
      <trkpt lat="48.03671" lon="7.01328">
        <ele>1325.8</ele>
        <time>2023-05-20T05:53:32Z</time>
      </trkpt>
      <trkpt lat="48.03683" lon="7.01284">
        <ele>1320.1</ele>
        <time>2023-05-20T05:54:02Z</time>
      </trkpt>
      <trkpt lat="48.03668" lon="7.01277">
        <ele>1318</ele>
        <time>2023-05-20T05:54:18Z</time>
      </trkpt>
      <trkpt lat="48.03663" lon="7.01277">
        <ele>1317.2</ele>
        <time>2023-05-20T05:54:22Z</time>
      </trkpt>
      <trkpt lat="48.03658" lon="7.01277">
        <ele>1316.3</ele>
        <time>2023-05-20T05:54:27Z</time>
      </trkpt>
      <trkpt lat="48.03652" lon="7.01274">
        <ele>1314.9</ele>
        <time>2023-05-20T05:54:34Z</time>
      </trkpt>
      <trkpt lat="48.03648" lon="7.01276">
        <ele>1314.4</ele>
        <time>2023-05-20T05:54:39Z</time>
      </trkpt>
      <trkpt lat="48.03645" lon="7.01271">
        <ele>1313.3</ele>
        <time>2023-05-20T05:54:46Z</time>
      </trkpt>
      <trkpt lat="48.03645" lon="7.01264">
        <ele>1312.5</ele>
        <time>2023-05-20T05:54:50Z</time>
      </trkpt>
      <trkpt lat="48.03641" lon="7.01258">
        <ele>1311.2</ele>
        <time>2023-05-20T05:54:56Z</time>
      </trkpt>
      <trkpt lat="48.0364" lon="7.01251">
        <ele>1310.3</ele>
        <time>2023-05-20T05:55:00Z</time>
      </trkpt>
      <trkpt lat="48.03642" lon="7.01243">
        <ele>1309.7</ele>
        <time>2023-05-20T05:55:04Z</time>
      </trkpt>
      <trkpt lat="48.03639" lon="7.01237">
        <ele>1308.6</ele>
        <time>2023-05-20T05:55:12Z</time>
      </trkpt>
      <trkpt lat="48.0363" lon="7.01241">
        <ele>1307.9</ele>
        <time>2023-05-20T05:55:20Z</time>
      </trkpt>
      <trkpt lat="48.03626" lon="7.01242">
        <ele>1307.4</ele>
        <time>2023-05-20T05:55:24Z</time>
      </trkpt>
      <trkpt lat="48.03617" lon="7.01245">
        <ele>1306.4</ele>
        <time>2023-05-20T05:55:32Z</time>
      </trkpt>
      <trkpt lat="48.03612" lon="7.01246">
        <ele>1305.8</ele>
        <time>2023-05-20T05:55:36Z</time>
      </trkpt>
      <trkpt lat="48.03603" lon="7.01249">
        <ele>1304.8</ele>
        <time>2023-05-20T05:55:44Z</time>
      </trkpt>
      <trkpt lat="48.0359" lon="7.01254">
        <ele>1302.6</ele>
        <time>2023-05-20T05:55:56Z</time>
      </trkpt>
      <trkpt lat="48.0359" lon="7.01267">
        <ele>1301.4</ele>
        <time>2023-05-20T05:56:04Z</time>
      </trkpt>
      <trkpt lat="48.0358" lon="7.01262">
        <ele>1298.7</ele>
        <time>2023-05-20T05:56:16Z</time>
      </trkpt>
      <trkpt lat="48.03576" lon="7.01259">
        <ele>1297.7</ele>
        <time>2023-05-20T05:56:20Z</time>
      </trkpt>
      <trkpt lat="48.03572" lon="7.01255">
        <ele>1297.2</ele>
        <time>2023-05-20T05:56:25Z</time>
      </trkpt>
      <trkpt lat="48.03568" lon="7.01252">
        <ele>1296.9</ele>
        <time>2023-05-20T05:56:29Z</time>
      </trkpt>
      <trkpt lat="48.03563" lon="7.01249">
        <ele>1296.2</ele>
        <time>2023-05-20T05:56:33Z</time>
      </trkpt>
      <trkpt lat="48.03559" lon="7.01244">
        <ele>1295.2</ele>
        <time>2023-05-20T05:56:38Z</time>
      </trkpt>
      <trkpt lat="48.03556" lon="7.0124">
        <ele>1294.5</ele>
        <time>2023-05-20T05:56:42Z</time>
      </trkpt>
      <trkpt lat="48.03555" lon="7.01233">
        <ele>1294.4</ele>
        <time>2023-05-20T05:56:46Z</time>
      </trkpt>
      <trkpt lat="48.03554" lon="7.01225">
        <ele>1294.3</ele>
        <time>2023-05-20T05:56:50Z</time>
      </trkpt>
      <trkpt lat="48.03553" lon="7.01213">
        <ele>1293.4</ele>
        <time>2023-05-20T05:56:57Z</time>
      </trkpt>
      <trkpt lat="48.03552" lon="7.01199">
        <ele>1292.1</ele>
        <time>2023-05-20T05:57:05Z</time>
      </trkpt>
      <trkpt lat="48.03551" lon="7.01191">
        <ele>1291.2</ele>
        <time>2023-05-20T05:57:09Z</time>
      </trkpt>
      <trkpt lat="48.03553" lon="7.01178">
        <ele>1290.5</ele>
        <time>2023-05-20T05:57:16Z</time>
      </trkpt>
      <trkpt lat="48.03554" lon="7.01172">
        <ele>1290.2</ele>
        <time>2023-05-20T05:57:20Z</time>
      </trkpt>
      <trkpt lat="48.03556" lon="7.01164">
        <ele>1289.7</ele>
        <time>2023-05-20T05:57:24Z</time>
      </trkpt>
      <trkpt lat="48.03557" lon="7.01157">
        <ele>1288.8</ele>
        <time>2023-05-20T05:57:28Z</time>
      </trkpt>
      <trkpt lat="48.03559" lon="7.01149">
        <ele>1288</ele>
        <time>2023-05-20T05:57:32Z</time>
      </trkpt>
      <trkpt lat="48.03561" lon="7.01144">
        <ele>1287.6</ele>
        <time>2023-05-20T05:57:36Z</time>
      </trkpt>
      <trkpt lat="48.03562" lon="7.01136">
        <ele>1286.6</ele>
        <time>2023-05-20T05:57:40Z</time>
      </trkpt>
      <trkpt lat="48.03564" lon="7.0113">
        <ele>1286.2</ele>
        <time>2023-05-20T05:57:45Z</time>
      </trkpt>
      <trkpt lat="48.03558" lon="7.01131">
        <ele>1285.5</ele>
        <time>2023-05-20T05:57:49Z</time>
      </trkpt>
      <trkpt lat="48.03554" lon="7.01133">
        <ele>1285.2</ele>
        <time>2023-05-20T05:57:52Z</time>
      </trkpt>
      <trkpt lat="48.03549" lon="7.01134">
        <ele>1284.6</ele>
        <time>2023-05-20T05:57:56Z</time>
      </trkpt>
      <trkpt lat="48.03544" lon="7.01137">
        <ele>1284.2</ele>
        <time>2023-05-20T05:58:00Z</time>
      </trkpt>
      <trkpt lat="48.03533" lon="7.01141">
        <ele>1282.9</ele>
        <time>2023-05-20T05:58:09Z</time>
      </trkpt>
      <trkpt lat="48.03529" lon="7.01141">
        <ele>1282.3</ele>
        <time>2023-05-20T05:58:13Z</time>
      </trkpt>
      <trkpt lat="48.03524" lon="7.01142">
        <ele>1281.5</ele>
        <time>2023-05-20T05:58:18Z</time>
      </trkpt>
      <trkpt lat="48.03515" lon="7.01134">
        <ele>1280.1</ele>
        <time>2023-05-20T05:58:29Z</time>
      </trkpt>
      <trkpt lat="48.03506" lon="7.01131">
        <ele>1278.8</ele>
        <time>2023-05-20T05:58:36Z</time>
      </trkpt>
      <trkpt lat="48.03502" lon="7.01129">
        <ele>1278.3</ele>
        <time>2023-05-20T05:58:40Z</time>
      </trkpt>
      <trkpt lat="48.03497" lon="7.01127">
        <ele>1277.4</ele>
        <time>2023-05-20T05:58:44Z</time>
      </trkpt>
      <trkpt lat="48.03493" lon="7.01123">
        <ele>1276.8</ele>
        <time>2023-05-20T05:58:48Z</time>
      </trkpt>
      <trkpt lat="48.0349" lon="7.01119">
        <ele>1276.7</ele>
        <time>2023-05-20T05:58:51Z</time>
      </trkpt>
      <trkpt lat="48.03478" lon="7.01102">
        <ele>1276.9</ele>
        <time>2023-05-20T05:59:05Z</time>
      </trkpt>
      <trkpt lat="48.03474" lon="7.01097">
        <ele>1277.1</ele>
        <time>2023-05-20T05:59:10Z</time>
      </trkpt>
      <trkpt lat="48.03471" lon="7.01093">
        <ele>1277.2</ele>
        <time>2023-05-20T05:59:13Z</time>
      </trkpt>
      <trkpt lat="48.03466" lon="7.01089">
        <ele>1277.4</ele>
        <time>2023-05-20T05:59:17Z</time>
      </trkpt>
      <trkpt lat="48.03463" lon="7.01085">
        <ele>1277.8</ele>
        <time>2023-05-20T05:59:21Z</time>
      </trkpt>
      <trkpt lat="48.03458" lon="7.01083">
        <ele>1278</ele>
        <time>2023-05-20T05:59:25Z</time>
      </trkpt>
      <trkpt lat="48.03452" lon="7.01077">
        <ele>1278.5</ele>
        <time>2023-05-20T05:59:32Z</time>
      </trkpt>
      <trkpt lat="48.03447" lon="7.01075">
        <ele>1278.8</ele>
        <time>2023-05-20T05:59:36Z</time>
      </trkpt>
      <trkpt lat="48.03443" lon="7.01071">
        <ele>1279.3</ele>
        <time>2023-05-20T05:59:40Z</time>
      </trkpt>
      <trkpt lat="48.03436" lon="7.01067">
        <ele>1280</ele>
        <time>2023-05-20T05:59:49Z</time>
      </trkpt>
      <trkpt lat="48.03412" lon="7.01048">
        <ele>1285.6</ele>
        <time>2023-05-20T06:00:21Z</time>
      </trkpt>
      <trkpt lat="48.03407" lon="7.01044">
        <ele>1286.7</ele>
        <time>2023-05-20T06:00:27Z</time>
      </trkpt>
      <trkpt lat="48.03403" lon="7.01042">
        <ele>1287.4</ele>
        <time>2023-05-20T06:00:32Z</time>
      </trkpt>
      <trkpt lat="48.03399" lon="7.0104">
        <ele>1288.1</ele>
        <time>2023-05-20T06:00:37Z</time>
      </trkpt>
      <trkpt lat="48.03372" lon="7.0103">
        <ele>1293.2</ele>
        <time>2023-05-20T06:01:08Z</time>
      </trkpt>
      <trkpt lat="48.03367" lon="7.0103">
        <ele>1293.7</ele>
        <time>2023-05-20T06:01:12Z</time>
      </trkpt>
      <trkpt lat="48.03362" lon="7.01032">
        <ele>1293.5</ele>
        <time>2023-05-20T06:01:16Z</time>
      </trkpt>
      <trkpt lat="48.03345" lon="7.01029">
        <ele>1296.9</ele>
        <time>2023-05-20T06:01:31Z</time>
      </trkpt>
      <trkpt lat="48.0334" lon="7.01031">
        <ele>1297.1</ele>
        <time>2023-05-20T06:01:35Z</time>
      </trkpt>
      <trkpt lat="48.03336" lon="7.01032">
        <ele>1297.4</ele>
        <time>2023-05-20T06:01:39Z</time>
      </trkpt>
      <trkpt lat="48.0333" lon="7.01036">
        <ele>1297.2</ele>
        <time>2023-05-20T06:01:43Z</time>
      </trkpt>
      <trkpt lat="48.03327" lon="7.0104">
        <ele>1296.8</ele>
        <time>2023-05-20T06:01:47Z</time>
      </trkpt>
      <trkpt lat="48.03323" lon="7.01043">
        <ele>1297</ele>
        <time>2023-05-20T06:01:51Z</time>
      </trkpt>
      <trkpt lat="48.03313" lon="7.01053">
        <ele>1297.9</ele>
        <time>2023-05-20T06:02:01Z</time>
      </trkpt>
      <trkpt lat="48.0331" lon="7.01057">
        <ele>1298.2</ele>
        <time>2023-05-20T06:02:06Z</time>
      </trkpt>
      <trkpt lat="48.03305" lon="7.01061">
        <ele>1298.7</ele>
        <time>2023-05-20T06:02:10Z</time>
      </trkpt>
      <trkpt lat="48.03298" lon="7.0107">
        <ele>1297.3</ele>
        <time>2023-05-20T06:02:17Z</time>
      </trkpt>
      <trkpt lat="48.03291" lon="7.01082">
        <ele>1296.4</ele>
        <time>2023-05-20T06:02:25Z</time>
      </trkpt>
      <trkpt lat="48.03287" lon="7.01089">
        <ele>1296.1</ele>
        <time>2023-05-20T06:02:30Z</time>
      </trkpt>
      <trkpt lat="48.03284" lon="7.01094">
        <ele>1296.2</ele>
        <time>2023-05-20T06:02:34Z</time>
      </trkpt>
      <trkpt lat="48.03277" lon="7.01106">
        <ele>1296.7</ele>
        <time>2023-05-20T06:02:43Z</time>
      </trkpt>
      <trkpt lat="48.03274" lon="7.01111">
        <ele>1296.7</ele>
        <time>2023-05-20T06:02:47Z</time>
      </trkpt>
      <trkpt lat="48.03267" lon="7.0113">
        <ele>1295.9</ele>
        <time>2023-05-20T06:02:58Z</time>
      </trkpt>
      <trkpt lat="48.03266" lon="7.01138">
        <ele>1295.3</ele>
        <time>2023-05-20T06:03:02Z</time>
      </trkpt>
      <trkpt lat="48.03264" lon="7.01145">
        <ele>1295.2</ele>
        <time>2023-05-20T06:03:06Z</time>
      </trkpt>
      <trkpt lat="48.03262" lon="7.01152">
        <ele>1295.1</ele>
        <time>2023-05-20T06:03:10Z</time>
      </trkpt>
      <trkpt lat="48.03259" lon="7.01158">
        <ele>1295.7</ele>
        <time>2023-05-20T06:03:14Z</time>
      </trkpt>
      <trkpt lat="48.03252" lon="7.01178">
        <ele>1297.2</ele>
        <time>2023-05-20T06:03:25Z</time>
      </trkpt>
      <trkpt lat="48.0325" lon="7.01185">
        <ele>1297.7</ele>
        <time>2023-05-20T06:03:28Z</time>
      </trkpt>
      <trkpt lat="48.03248" lon="7.01191">
        <ele>1297.7</ele>
        <time>2023-05-20T06:03:32Z</time>
      </trkpt>
      <trkpt lat="48.03239" lon="7.01207">
        <ele>1299.2</ele>
        <time>2023-05-20T06:03:43Z</time>
      </trkpt>
      <trkpt lat="48.03235" lon="7.01216">
        <ele>1300.1</ele>
        <time>2023-05-20T06:03:50Z</time>
      </trkpt>
      <trkpt lat="48.03229" lon="7.01227">
        <ele>1301.4</ele>
        <time>2023-05-20T06:03:59Z</time>
      </trkpt>
      <trkpt lat="48.03225" lon="7.01233">
        <ele>1302.3</ele>
        <time>2023-05-20T06:04:04Z</time>
      </trkpt>
      <trkpt lat="48.03221" lon="7.01238">
        <ele>1303</ele>
        <time>2023-05-20T06:04:08Z</time>
      </trkpt>
      <trkpt lat="48.03216" lon="7.01241">
        <ele>1303.2</ele>
        <time>2023-05-20T06:04:12Z</time>
      </trkpt>
      <trkpt lat="48.03211" lon="7.0124">
        <ele>1303.7</ele>
        <time>2023-05-20T06:04:16Z</time>
      </trkpt>
      <trkpt lat="48.03207" lon="7.01242">
        <ele>1303.8</ele>
        <time>2023-05-20T06:04:20Z</time>
      </trkpt>
      <trkpt lat="48.03202" lon="7.01244">
        <ele>1304</ele>
        <time>2023-05-20T06:04:24Z</time>
      </trkpt>
      <trkpt lat="48.03197" lon="7.01244">
        <ele>1304.4</ele>
        <time>2023-05-20T06:04:28Z</time>
      </trkpt>
      <trkpt lat="48.03193" lon="7.01248">
        <ele>1304.3</ele>
        <time>2023-05-20T06:04:32Z</time>
      </trkpt>
      <trkpt lat="48.03187" lon="7.01261">
        <ele>1300.1</ele>
        <time>2023-05-20T06:04:41Z</time>
      </trkpt>
      <trkpt lat="48.0318" lon="7.0127">
        <ele>1299.5</ele>
        <time>2023-05-20T06:04:49Z</time>
      </trkpt>
      <trkpt lat="48.03176" lon="7.01273">
        <ele>1300.6</ele>
        <time>2023-05-20T06:04:53Z</time>
      </trkpt>
      <trkpt lat="48.03172" lon="7.01276">
        <ele>1302.2</ele>
        <time>2023-05-20T06:04:57Z</time>
      </trkpt>
      <trkpt lat="48.03166" lon="7.01288">
        <ele>1303.6</ele>
        <time>2023-05-20T06:05:05Z</time>
      </trkpt>
      <trkpt lat="48.03165" lon="7.01296">
        <ele>1302.5</ele>
        <time>2023-05-20T06:05:09Z</time>
      </trkpt>
      <trkpt lat="48.03162" lon="7.01301">
        <ele>1302.1</ele>
        <time>2023-05-20T06:05:13Z</time>
      </trkpt>
      <trkpt lat="48.03158" lon="7.01314">
        <ele>1299.9</ele>
        <time>2023-05-20T06:05:21Z</time>
      </trkpt>
      <trkpt lat="48.03148" lon="7.01331">
        <ele>1298.2</ele>
        <time>2023-05-20T06:05:34Z</time>
      </trkpt>
      <trkpt lat="48.03144" lon="7.01343">
        <ele>1297.2</ele>
        <time>2023-05-20T06:05:41Z</time>
      </trkpt>
      <trkpt lat="48.03142" lon="7.0135">
        <ele>1296.7</ele>
        <time>2023-05-20T06:05:45Z</time>
      </trkpt>
      <trkpt lat="48.03139" lon="7.01356">
        <ele>1296.7</ele>
        <time>2023-05-20T06:05:50Z</time>
      </trkpt>
      <trkpt lat="48.03133" lon="7.01354">
        <ele>1295.8</ele>
        <time>2023-05-20T06:05:57Z</time>
      </trkpt>
      <trkpt lat="48.03129" lon="7.01351">
        <ele>1295.6</ele>
        <time>2023-05-20T06:06:02Z</time>
      </trkpt>
      <trkpt lat="48.03121" lon="7.01343">
        <ele>1296.2</ele>
        <time>2023-05-20T06:06:15Z</time>
      </trkpt>
      <trkpt lat="48.03113" lon="7.01334">
        <ele>1297.9</ele>
        <time>2023-05-20T06:06:23Z</time>
      </trkpt>
      <trkpt lat="48.03109" lon="7.01331">
        <ele>1296.9</ele>
        <time>2023-05-20T06:06:27Z</time>
      </trkpt>
      <trkpt lat="48.03105" lon="7.01328">
        <ele>1294.8</ele>
        <time>2023-05-20T06:06:31Z</time>
      </trkpt>
      <trkpt lat="48.03102" lon="7.01322">
        <ele>1294.3</ele>
        <time>2023-05-20T06:06:35Z</time>
      </trkpt>
      <trkpt lat="48.031" lon="7.01316">
        <ele>1294.8</ele>
        <time>2023-05-20T06:06:39Z</time>
      </trkpt>
      <trkpt lat="48.03097" lon="7.01311">
        <ele>1294.8</ele>
        <time>2023-05-20T06:06:43Z</time>
      </trkpt>
      <trkpt lat="48.03093" lon="7.01305">
        <ele>1295.2</ele>
        <time>2023-05-20T06:06:48Z</time>
      </trkpt>
      <trkpt lat="48.03091" lon="7.01299">
        <ele>1295.8</ele>
        <time>2023-05-20T06:06:52Z</time>
      </trkpt>
      <trkpt lat="48.03088" lon="7.01292">
        <ele>1296.5</ele>
        <time>2023-05-20T06:06:56Z</time>
      </trkpt>
      <trkpt lat="48.03078" lon="7.01276">
        <ele>1294.5</ele>
        <time>2023-05-20T06:07:08Z</time>
      </trkpt>
      <trkpt lat="48.03076" lon="7.01269">
        <ele>1294.5</ele>
        <time>2023-05-20T06:07:12Z</time>
      </trkpt>
      <trkpt lat="48.03063" lon="7.01239">
        <ele>1297.4</ele>
        <time>2023-05-20T06:07:32Z</time>
      </trkpt>
      <trkpt lat="48.0306" lon="7.01233">
        <ele>1297.8</ele>
        <time>2023-05-20T06:07:36Z</time>
      </trkpt>
      <trkpt lat="48.03058" lon="7.01226">
        <ele>1298.6</ele>
        <time>2023-05-20T06:07:39Z</time>
      </trkpt>
      <trkpt lat="48.03055" lon="7.01222">
        <ele>1298.7</ele>
        <time>2023-05-20T06:07:43Z</time>
      </trkpt>
      <trkpt lat="48.03043" lon="7.01199">
        <ele>1296.6</ele>
        <time>2023-05-20T06:07:59Z</time>
      </trkpt>
      <trkpt lat="48.03034" lon="7.0119">
        <ele>1296.7</ele>
        <time>2023-05-20T06:08:07Z</time>
      </trkpt>
      <trkpt lat="48.03022" lon="7.01177">
        <ele>1296</ele>
        <time>2023-05-20T06:08:19Z</time>
      </trkpt>
      <trkpt lat="48.0301" lon="7.01164">
        <ele>1297.2</ele>
        <time>2023-05-20T06:08:30Z</time>
      </trkpt>
      <trkpt lat="48.03007" lon="7.0116">
        <ele>1297.2</ele>
        <time>2023-05-20T06:08:34Z</time>
      </trkpt>
      <trkpt lat="48.03002" lon="7.01157">
        <ele>1296.9</ele>
        <time>2023-05-20T06:08:38Z</time>
      </trkpt>
      <trkpt lat="48.02993" lon="7.0115">
        <ele>1295.6</ele>
        <time>2023-05-20T06:08:47Z</time>
      </trkpt>
      <trkpt lat="48.02981" lon="7.01139">
        <ele>1295.9</ele>
        <time>2023-05-20T06:09:00Z</time>
      </trkpt>
      <trkpt lat="48.02969" lon="7.01129">
        <ele>1295.2</ele>
        <time>2023-05-20T06:09:12Z</time>
      </trkpt>
      <trkpt lat="48.02965" lon="7.01124">
        <ele>1294.9</ele>
        <time>2023-05-20T06:09:16Z</time>
      </trkpt>
      <trkpt lat="48.02962" lon="7.01119">
        <ele>1294.9</ele>
        <time>2023-05-20T06:09:20Z</time>
      </trkpt>
      <trkpt lat="48.02953" lon="7.01112">
        <ele>1294.1</ele>
        <time>2023-05-20T06:09:28Z</time>
      </trkpt>
      <trkpt lat="48.02948" lon="7.01109">
        <ele>1293.7</ele>
        <time>2023-05-20T06:09:32Z</time>
      </trkpt>
      <trkpt lat="48.02944" lon="7.01104">
        <ele>1293.4</ele>
        <time>2023-05-20T06:09:36Z</time>
      </trkpt>
      <trkpt lat="48.02933" lon="7.0109">
        <ele>1292.8</ele>
        <time>2023-05-20T06:09:47Z</time>
      </trkpt>
      <trkpt lat="48.0293" lon="7.01086">
        <ele>1292.7</ele>
        <time>2023-05-20T06:09:51Z</time>
      </trkpt>
      <trkpt lat="48.02924" lon="7.01075">
        <ele>1292.1</ele>
        <time>2023-05-20T06:09:59Z</time>
      </trkpt>
      <trkpt lat="48.02921" lon="7.01069">
        <ele>1291.7</ele>
        <time>2023-05-20T06:10:03Z</time>
      </trkpt>
      <trkpt lat="48.02918" lon="7.01063">
        <ele>1291.2</ele>
        <time>2023-05-20T06:10:07Z</time>
      </trkpt>
      <trkpt lat="48.02906" lon="7.01026">
        <ele>1287.2</ele>
        <time>2023-05-20T06:10:30Z</time>
      </trkpt>
      <trkpt lat="48.02904" lon="7.01012">
        <ele>1286.4</ele>
        <time>2023-05-20T06:10:38Z</time>
      </trkpt>
      <trkpt lat="48.02902" lon="7.01004">
        <ele>1285.7</ele>
        <time>2023-05-20T06:10:42Z</time>
      </trkpt>
      <trkpt lat="48.02898" lon="7.00983">
        <ele>1283.7</ele>
        <time>2023-05-20T06:10:54Z</time>
      </trkpt>
      <trkpt lat="48.02898" lon="7.00976">
        <ele>1283.4</ele>
        <time>2023-05-20T06:10:59Z</time>
      </trkpt>
      <trkpt lat="48.02897" lon="7.00968">
        <ele>1282.9</ele>
        <time>2023-05-20T06:11:03Z</time>
      </trkpt>
      <trkpt lat="48.02896" lon="7.00961">
        <ele>1282.7</ele>
        <time>2023-05-20T06:11:08Z</time>
      </trkpt>
      <trkpt lat="48.02895" lon="7.00954">
        <ele>1282.4</ele>
        <time>2023-05-20T06:11:13Z</time>
      </trkpt>
      <trkpt lat="48.02892" lon="7.00949">
        <ele>1281.7</ele>
        <time>2023-05-20T06:11:17Z</time>
      </trkpt>
      <trkpt lat="48.02887" lon="7.00938">
        <ele>1280.6</ele>
        <time>2023-05-20T06:11:25Z</time>
      </trkpt>
      <trkpt lat="48.02882" lon="7.00927">
        <ele>1279.7</ele>
        <time>2023-05-20T06:11:32Z</time>
      </trkpt>
      <trkpt lat="48.02877" lon="7.00916">
        <ele>1279.5</ele>
        <time>2023-05-20T06:11:41Z</time>
      </trkpt>
      <trkpt lat="48.02874" lon="7.00912">
        <ele>1279.2</ele>
        <time>2023-05-20T06:11:45Z</time>
      </trkpt>
      <trkpt lat="48.02871" lon="7.00907">
        <ele>1279.2</ele>
        <time>2023-05-20T06:11:48Z</time>
      </trkpt>
      <trkpt lat="48.02867" lon="7.00899">
        <ele>1279.4</ele>
        <time>2023-05-20T06:11:54Z</time>
      </trkpt>
      <trkpt lat="48.02862" lon="7.00898">
        <ele>1278.8</ele>
        <time>2023-05-20T06:11:59Z</time>
      </trkpt>
      <trkpt lat="48.02856" lon="7.00899">
        <ele>1278.8</ele>
        <time>2023-05-20T06:12:03Z</time>
      </trkpt>
      <trkpt lat="48.02846" lon="7.00899">
        <ele>1279.4</ele>
        <time>2023-05-20T06:12:11Z</time>
      </trkpt>
      <trkpt lat="48.02842" lon="7.00896">
        <ele>1280.2</ele>
        <time>2023-05-20T06:12:15Z</time>
      </trkpt>
      <trkpt lat="48.02836" lon="7.00892">
        <ele>1281.3</ele>
        <time>2023-05-20T06:12:21Z</time>
      </trkpt>
      <trkpt lat="48.02832" lon="7.00893">
        <ele>1281.4</ele>
        <time>2023-05-20T06:12:25Z</time>
      </trkpt>
      <trkpt lat="48.02827" lon="7.00895">
        <ele>1281.4</ele>
        <time>2023-05-20T06:12:29Z</time>
      </trkpt>
      <trkpt lat="48.02817" lon="7.00896">
        <ele>1281.9</ele>
        <time>2023-05-20T06:12:37Z</time>
      </trkpt>
      <trkpt lat="48.02813" lon="7.00895">
        <ele>1282.4</ele>
        <time>2023-05-20T06:12:41Z</time>
      </trkpt>
      <trkpt lat="48.02806" lon="7.00894">
        <ele>1283</ele>
        <time>2023-05-20T06:12:49Z</time>
      </trkpt>
      <trkpt lat="48.02802" lon="7.00894">
        <ele>1283.3</ele>
        <time>2023-05-20T06:12:53Z</time>
      </trkpt>
      <trkpt lat="48.02794" lon="7.00896">
        <ele>1283.4</ele>
        <time>2023-05-20T06:13:01Z</time>
      </trkpt>
      <trkpt lat="48.02786" lon="7.00896">
        <ele>1283.9</ele>
        <time>2023-05-20T06:13:09Z</time>
      </trkpt>
      <trkpt lat="48.02782" lon="7.00896">
        <ele>1284.2</ele>
        <time>2023-05-20T06:13:13Z</time>
      </trkpt>
      <trkpt lat="48.02778" lon="7.00896">
        <ele>1284.4</ele>
        <time>2023-05-20T06:13:17Z</time>
      </trkpt>
      <trkpt lat="48.02774" lon="7.00893">
        <ele>1285.4</ele>
        <time>2023-05-20T06:13:21Z</time>
      </trkpt>
      <trkpt lat="48.02769" lon="7.00891">
        <ele>1286.1</ele>
        <time>2023-05-20T06:13:25Z</time>
      </trkpt>
      <trkpt lat="48.02765" lon="7.00892">
        <ele>1285.5</ele>
        <time>2023-05-20T06:13:28Z</time>
      </trkpt>
      <trkpt lat="48.0276" lon="7.00891">
        <ele>1285.9</ele>
        <time>2023-05-20T06:13:32Z</time>
      </trkpt>
      <trkpt lat="48.02755" lon="7.00889">
        <ele>1286.9</ele>
        <time>2023-05-20T06:13:36Z</time>
      </trkpt>
      <trkpt lat="48.02747" lon="7.00885">
        <ele>1287.1</ele>
        <time>2023-05-20T06:13:44Z</time>
      </trkpt>
      <trkpt lat="48.02742" lon="7.00883">
        <ele>1287</ele>
        <time>2023-05-20T06:13:48Z</time>
      </trkpt>
      <trkpt lat="48.02738" lon="7.00881">
        <ele>1286.9</ele>
        <time>2023-05-20T06:13:52Z</time>
      </trkpt>
      <trkpt lat="48.02729" lon="7.00878">
        <ele>1286.8</ele>
        <time>2023-05-20T06:13:59Z</time>
      </trkpt>
      <trkpt lat="48.02724" lon="7.00877">
        <ele>1286.7</ele>
        <time>2023-05-20T06:14:03Z</time>
      </trkpt>
      <trkpt lat="48.0272" lon="7.00878">
        <ele>1286.5</ele>
        <time>2023-05-20T06:14:07Z</time>
      </trkpt>
      <trkpt lat="48.02715" lon="7.00881">
        <ele>1286.3</ele>
        <time>2023-05-20T06:14:11Z</time>
      </trkpt>
      <trkpt lat="48.0271" lon="7.00881">
        <ele>1286.8</ele>
        <time>2023-05-20T06:14:15Z</time>
      </trkpt>
      <trkpt lat="48.02687" lon="7.00879">
        <ele>1286.9</ele>
        <time>2023-05-20T06:14:35Z</time>
      </trkpt>
      <trkpt lat="48.02682" lon="7.00877">
        <ele>1286.4</ele>
        <time>2023-05-20T06:14:40Z</time>
      </trkpt>
      <trkpt lat="48.02677" lon="7.00876">
        <ele>1285.8</ele>
        <time>2023-05-20T06:14:44Z</time>
      </trkpt>
      <trkpt lat="48.02673" lon="7.00874">
        <ele>1285.9</ele>
        <time>2023-05-20T06:14:48Z</time>
      </trkpt>
      <trkpt lat="48.02665" lon="7.0087">
        <ele>1286.7</ele>
        <time>2023-05-20T06:14:57Z</time>
      </trkpt>
      <trkpt lat="48.0266" lon="7.00869">
        <ele>1286.6</ele>
        <time>2023-05-20T06:15:01Z</time>
      </trkpt>
      <trkpt lat="48.0265" lon="7.00868">
        <ele>1286.1</ele>
        <time>2023-05-20T06:15:11Z</time>
      </trkpt>
      <trkpt lat="48.02645" lon="7.00866">
        <ele>1286.7</ele>
        <time>2023-05-20T06:15:15Z</time>
      </trkpt>
      <trkpt lat="48.02641" lon="7.00867">
        <ele>1285.8</ele>
        <time>2023-05-20T06:15:19Z</time>
      </trkpt>
      <trkpt lat="48.02636" lon="7.00866">
        <ele>1286.1</ele>
        <time>2023-05-20T06:15:23Z</time>
      </trkpt>
      <trkpt lat="48.02631" lon="7.00867">
        <ele>1285.5</ele>
        <time>2023-05-20T06:15:26Z</time>
      </trkpt>
      <trkpt lat="48.02627" lon="7.00867">
        <ele>1285.5</ele>
        <time>2023-05-20T06:15:30Z</time>
      </trkpt>
      <trkpt lat="48.02622" lon="7.00866">
        <ele>1285.8</ele>
        <time>2023-05-20T06:15:34Z</time>
      </trkpt>
      <trkpt lat="48.02617" lon="7.00865">
        <ele>1286.1</ele>
        <time>2023-05-20T06:15:38Z</time>
      </trkpt>
      <trkpt lat="48.02611" lon="7.00864">
        <ele>1286.2</ele>
        <time>2023-05-20T06:15:42Z</time>
      </trkpt>
      <trkpt lat="48.02606" lon="7.00862">
        <ele>1286.4</ele>
        <time>2023-05-20T06:15:46Z</time>
      </trkpt>
      <trkpt lat="48.02601" lon="7.00862">
        <ele>1286</ele>
        <time>2023-05-20T06:15:50Z</time>
      </trkpt>
      <trkpt lat="48.02591" lon="7.00863">
        <ele>1285.1</ele>
        <time>2023-05-20T06:15:58Z</time>
      </trkpt>
      <trkpt lat="48.02581" lon="7.00863">
        <ele>1284.4</ele>
        <time>2023-05-20T06:16:05Z</time>
      </trkpt>
      <trkpt lat="48.02576" lon="7.00862">
        <ele>1284.3</ele>
        <time>2023-05-20T06:16:09Z</time>
      </trkpt>
      <trkpt lat="48.02572" lon="7.00859">
        <ele>1284.5</ele>
        <time>2023-05-20T06:16:13Z</time>
      </trkpt>
      <trkpt lat="48.02567" lon="7.00856">
        <ele>1284.6</ele>
        <time>2023-05-20T06:16:17Z</time>
      </trkpt>
      <trkpt lat="48.02563" lon="7.00853">
        <ele>1284.7</ele>
        <time>2023-05-20T06:16:21Z</time>
      </trkpt>
      <trkpt lat="48.02556" lon="7.00842">
        <ele>1285.8</ele>
        <time>2023-05-20T06:16:29Z</time>
      </trkpt>
      <trkpt lat="48.02548" lon="7.00834">
        <ele>1286.4</ele>
        <time>2023-05-20T06:16:37Z</time>
      </trkpt>
      <trkpt lat="48.02544" lon="7.0083">
        <ele>1286.6</ele>
        <time>2023-05-20T06:16:42Z</time>
      </trkpt>
      <trkpt lat="48.02539" lon="7.00827">
        <ele>1286.6</ele>
        <time>2023-05-20T06:16:46Z</time>
      </trkpt>
      <trkpt lat="48.02536" lon="7.00823">
        <ele>1286.8</ele>
        <time>2023-05-20T06:16:50Z</time>
      </trkpt>
      <trkpt lat="48.02528" lon="7.00816">
        <ele>1286.9</ele>
        <time>2023-05-20T06:16:58Z</time>
      </trkpt>
      <trkpt lat="48.02515" lon="7.00808">
        <ele>1287.2</ele>
        <time>2023-05-20T06:17:10Z</time>
      </trkpt>
      <trkpt lat="48.02512" lon="7.00803">
        <ele>1287.7</ele>
        <time>2023-05-20T06:17:15Z</time>
      </trkpt>
      <trkpt lat="48.02508" lon="7.008">
        <ele>1287.9</ele>
        <time>2023-05-20T06:17:19Z</time>
      </trkpt>
      <trkpt lat="48.02505" lon="7.00796">
        <ele>1288.3</ele>
        <time>2023-05-20T06:17:22Z</time>
      </trkpt>
      <trkpt lat="48.02501" lon="7.00792">
        <ele>1288.5</ele>
        <time>2023-05-20T06:17:26Z</time>
      </trkpt>
      <trkpt lat="48.02497" lon="7.00788">
        <ele>1288.4</ele>
        <time>2023-05-20T06:17:30Z</time>
      </trkpt>
      <trkpt lat="48.02495" lon="7.00782">
        <ele>1288.8</ele>
        <time>2023-05-20T06:17:34Z</time>
      </trkpt>
      <trkpt lat="48.02484" lon="7.00769">
        <ele>1288.6</ele>
        <time>2023-05-20T06:17:45Z</time>
      </trkpt>
      <trkpt lat="48.0248" lon="7.00766">
        <ele>1288.4</ele>
        <time>2023-05-20T06:17:49Z</time>
      </trkpt>
      <trkpt lat="48.02466" lon="7.00759">
        <ele>1287.4</ele>
        <time>2023-05-20T06:18:02Z</time>
      </trkpt>
      <trkpt lat="48.02452" lon="7.00741">
        <ele>1288.7</ele>
        <time>2023-05-20T06:18:16Z</time>
      </trkpt>
      <trkpt lat="48.02445" lon="7.00727">
        <ele>1289.6</ele>
        <time>2023-05-20T06:18:26Z</time>
      </trkpt>
      <trkpt lat="48.02435" lon="7.00724">
        <ele>1288.4</ele>
        <time>2023-05-20T06:18:34Z</time>
      </trkpt>
      <trkpt lat="48.0243" lon="7.0072">
        <ele>1288.2</ele>
        <time>2023-05-20T06:18:38Z</time>
      </trkpt>
      <trkpt lat="48.02409" lon="7.00703">
        <ele>1287.5</ele>
        <time>2023-05-20T06:18:58Z</time>
      </trkpt>
      <trkpt lat="48.02404" lon="7.007">
        <ele>1287.2</ele>
        <time>2023-05-20T06:19:02Z</time>
      </trkpt>
      <trkpt lat="48.02395" lon="7.00694">
        <ele>1287</ele>
        <time>2023-05-20T06:19:10Z</time>
      </trkpt>
      <trkpt lat="48.02391" lon="7.00691">
        <ele>1287</ele>
        <time>2023-05-20T06:19:14Z</time>
      </trkpt>
      <trkpt lat="48.02381" lon="7.00685">
        <ele>1286.9</ele>
        <time>2023-05-20T06:19:23Z</time>
      </trkpt>
      <trkpt lat="48.02377" lon="7.00681">
        <ele>1287.2</ele>
        <time>2023-05-20T06:19:27Z</time>
      </trkpt>
      <trkpt lat="48.0235" lon="7.00662">
        <ele>1288.2</ele>
        <time>2023-05-20T06:19:51Z</time>
      </trkpt>
      <trkpt lat="48.02344" lon="7.0066">
        <ele>1288.2</ele>
        <time>2023-05-20T06:19:55Z</time>
      </trkpt>
      <trkpt lat="48.02339" lon="7.00662">
        <ele>1287.4</ele>
        <time>2023-05-20T06:20:00Z</time>
      </trkpt>
      <trkpt lat="48.02334" lon="7.00666">
        <ele>1286.2</ele>
        <time>2023-05-20T06:20:05Z</time>
      </trkpt>
      <trkpt lat="48.0233" lon="7.00669">
        <ele>1286.3</ele>
        <time>2023-05-20T06:20:09Z</time>
      </trkpt>
      <trkpt lat="48.02296" lon="7.00676">
        <ele>1291.6</ele>
        <time>2023-05-20T06:20:41Z</time>
      </trkpt>
      <trkpt lat="48.02291" lon="7.00678">
        <ele>1292</ele>
        <time>2023-05-20T06:20:45Z</time>
      </trkpt>
      <trkpt lat="48.02287" lon="7.00678">
        <ele>1292.6</ele>
        <time>2023-05-20T06:20:49Z</time>
      </trkpt>
      <trkpt lat="48.02282" lon="7.00679">
        <ele>1293.2</ele>
        <time>2023-05-20T06:20:53Z</time>
      </trkpt>
      <trkpt lat="48.02269" lon="7.00675">
        <ele>1296.2</ele>
        <time>2023-05-20T06:21:06Z</time>
      </trkpt>
      <trkpt lat="48.02264" lon="7.00676">
        <ele>1296.6</ele>
        <time>2023-05-20T06:21:11Z</time>
      </trkpt>
      <trkpt lat="48.0226" lon="7.00678">
        <ele>1296.7</ele>
        <time>2023-05-20T06:21:14Z</time>
      </trkpt>
      <trkpt lat="48.02255" lon="7.00678">
        <ele>1297.4</ele>
        <time>2023-05-20T06:21:18Z</time>
      </trkpt>
      <trkpt lat="48.02248" lon="7.00677">
        <ele>1298.7</ele>
        <time>2023-05-20T06:21:25Z</time>
      </trkpt>
      <trkpt lat="48.02243" lon="7.00677">
        <ele>1299.6</ele>
        <time>2023-05-20T06:21:31Z</time>
      </trkpt>
      <trkpt lat="48.02239" lon="7.00677">
        <ele>1300.3</ele>
        <time>2023-05-20T06:21:35Z</time>
      </trkpt>
      <trkpt lat="48.02234" lon="7.00677">
        <ele>1301.1</ele>
        <time>2023-05-20T06:21:39Z</time>
      </trkpt>
      <trkpt lat="48.02198" lon="7.0068">
        <ele>1307</ele>
        <time>2023-05-20T06:22:15Z</time>
      </trkpt>
      <trkpt lat="48.02192" lon="7.00682">
        <ele>1307.6</ele>
        <time>2023-05-20T06:22:20Z</time>
      </trkpt>
      <trkpt lat="48.02176" lon="7.007">
        <ele>1306.9</ele>
        <time>2023-05-20T06:22:36Z</time>
      </trkpt>
      <trkpt lat="48.02167" lon="7.00703">
        <ele>1308.1</ele>
        <time>2023-05-20T06:22:44Z</time>
      </trkpt>
      <trkpt lat="48.02161" lon="7.00708">
        <ele>1308.4</ele>
        <time>2023-05-20T06:22:51Z</time>
      </trkpt>
      <trkpt lat="48.02154" lon="7.0072">
        <ele>1308</ele>
        <time>2023-05-20T06:22:59Z</time>
      </trkpt>
      <trkpt lat="48.0215" lon="7.00725">
        <ele>1308.3</ele>
        <time>2023-05-20T06:23:04Z</time>
      </trkpt>
      <trkpt lat="48.02141" lon="7.00739">
        <ele>1308.3</ele>
        <time>2023-05-20T06:23:16Z</time>
      </trkpt>
      <trkpt lat="48.02133" lon="7.0075">
        <ele>1308.5</ele>
        <time>2023-05-20T06:23:26Z</time>
      </trkpt>
      <trkpt lat="48.02123" lon="7.00769">
        <ele>1307.7</ele>
        <time>2023-05-20T06:23:41Z</time>
      </trkpt>
      <trkpt lat="48.02115" lon="7.00787">
        <ele>1306.7</ele>
        <time>2023-05-20T06:23:54Z</time>
      </trkpt>
      <trkpt lat="48.02112" lon="7.00792">
        <ele>1306.6</ele>
        <time>2023-05-20T06:23:58Z</time>
      </trkpt>
      <trkpt lat="48.02109" lon="7.00797">
        <ele>1306.3</ele>
        <time>2023-05-20T06:24:02Z</time>
      </trkpt>
      <trkpt lat="48.02107" lon="7.00803">
        <ele>1305.4</ele>
        <time>2023-05-20T06:24:06Z</time>
      </trkpt>
      <trkpt lat="48.02087" lon="7.00836">
        <ele>1304.3</ele>
        <time>2023-05-20T06:24:30Z</time>
      </trkpt>
      <trkpt lat="48.02083" lon="7.00842">
        <ele>1304.2</ele>
        <time>2023-05-20T06:24:36Z</time>
      </trkpt>
      <trkpt lat="48.0208" lon="7.00847">
        <ele>1303.6</ele>
        <time>2023-05-20T06:24:40Z</time>
      </trkpt>
      <trkpt lat="48.02078" lon="7.00852">
        <ele>1303</ele>
        <time>2023-05-20T06:24:44Z</time>
      </trkpt>
      <trkpt lat="48.02074" lon="7.00856">
        <ele>1303</ele>
        <time>2023-05-20T06:24:48Z</time>
      </trkpt>
      <trkpt lat="48.02071" lon="7.00862">
        <ele>1302.4</ele>
        <time>2023-05-20T06:24:52Z</time>
      </trkpt>
      <trkpt lat="48.02068" lon="7.00868">
        <ele>1301.4</ele>
        <time>2023-05-20T06:24:57Z</time>
      </trkpt>
      <trkpt lat="48.02066" lon="7.00874">
        <ele>1300.4</ele>
        <time>2023-05-20T06:25:01Z</time>
      </trkpt>
      <trkpt lat="48.02064" lon="7.0088">
        <ele>1299.5</ele>
        <time>2023-05-20T06:25:05Z</time>
      </trkpt>
      <trkpt lat="48.02061" lon="7.00886">
        <ele>1299.3</ele>
        <time>2023-05-20T06:25:09Z</time>
      </trkpt>
      <trkpt lat="48.02056" lon="7.00896">
        <ele>1299.7</ele>
        <time>2023-05-20T06:25:17Z</time>
      </trkpt>
      <trkpt lat="48.02053" lon="7.00901">
        <ele>1299.6</ele>
        <time>2023-05-20T06:25:21Z</time>
      </trkpt>
      <trkpt lat="48.02046" lon="7.00919">
        <ele>1297.6</ele>
        <time>2023-05-20T06:25:34Z</time>
      </trkpt>
      <trkpt lat="48.02043" lon="7.00924">
        <ele>1296.6</ele>
        <time>2023-05-20T06:25:39Z</time>
      </trkpt>
      <trkpt lat="48.02037" lon="7.00935">
        <ele>1295.3</ele>
        <time>2023-05-20T06:25:47Z</time>
      </trkpt>
      <trkpt lat="48.02034" lon="7.00941">
        <ele>1295</ele>
        <time>2023-05-20T06:25:52Z</time>
      </trkpt>
      <trkpt lat="48.02027" lon="7.00959">
        <ele>1294.4</ele>
        <time>2023-05-20T06:26:04Z</time>
      </trkpt>
      <trkpt lat="48.02024" lon="7.00963">
        <ele>1294</ele>
        <time>2023-05-20T06:26:08Z</time>
      </trkpt>
      <trkpt lat="48.02014" lon="7.00987">
        <ele>1290.8</ele>
        <time>2023-05-20T06:26:31Z</time>
      </trkpt>
      <trkpt lat="48.02002" lon="7.01013">
        <ele>1287.9</ele>
        <time>2023-05-20T06:26:49Z</time>
      </trkpt>
      <trkpt lat="48.01998" lon="7.01024">
        <ele>1286.6</ele>
        <time>2023-05-20T06:26:57Z</time>
      </trkpt>
      <trkpt lat="48.01996" lon="7.0103">
        <ele>1285.8</ele>
        <time>2023-05-20T06:27:05Z</time>
      </trkpt>
      <trkpt lat="48.01985" lon="7.01057">
        <ele>1282.3</ele>
        <time>2023-05-20T06:27:23Z</time>
      </trkpt>
      <trkpt lat="48.0198" lon="7.01079">
        <ele>1277.9</ele>
        <time>2023-05-20T06:27:37Z</time>
      </trkpt>
      <trkpt lat="48.01977" lon="7.01085">
        <ele>1276.7</ele>
        <time>2023-05-20T06:27:41Z</time>
      </trkpt>
      <trkpt lat="48.01974" lon="7.01091">
        <ele>1275.6</ele>
        <time>2023-05-20T06:27:46Z</time>
      </trkpt>
      <trkpt lat="48.01967" lon="7.01108">
        <ele>1272.2</ele>
        <time>2023-05-20T06:27:58Z</time>
      </trkpt>
      <trkpt lat="48.01963" lon="7.01112">
        <ele>1271.1</ele>
        <time>2023-05-20T06:28:02Z</time>
      </trkpt>
      <trkpt lat="48.01956" lon="7.01122">
        <ele>1268.5</ele>
        <time>2023-05-20T06:28:10Z</time>
      </trkpt>
      <trkpt lat="48.01954" lon="7.01128">
        <ele>1267</ele>
        <time>2023-05-20T06:28:14Z</time>
      </trkpt>
      <trkpt lat="48.01951" lon="7.01134">
        <ele>1265.5</ele>
        <time>2023-05-20T06:28:18Z</time>
      </trkpt>
      <trkpt lat="48.01949" lon="7.0114">
        <ele>1264.1</ele>
        <time>2023-05-20T06:28:22Z</time>
      </trkpt>
      <trkpt lat="48.01946" lon="7.01145">
        <ele>1263</ele>
        <time>2023-05-20T06:28:26Z</time>
      </trkpt>
      <trkpt lat="48.01941" lon="7.01149">
        <ele>1261.9</ele>
        <time>2023-05-20T06:28:30Z</time>
      </trkpt>
      <trkpt lat="48.01933" lon="7.01153">
        <ele>1260.6</ele>
        <time>2023-05-20T06:28:37Z</time>
      </trkpt>
      <trkpt lat="48.01929" lon="7.01157">
        <ele>1259.6</ele>
        <time>2023-05-20T06:28:41Z</time>
      </trkpt>
      <trkpt lat="48.01924" lon="7.0116">
        <ele>1258.7</ele>
        <time>2023-05-20T06:28:45Z</time>
      </trkpt>
      <trkpt lat="48.01916" lon="7.01168">
        <ele>1256.8</ele>
        <time>2023-05-20T06:29:17Z</time>
      </trkpt>
      <trkpt lat="48.01893" lon="7.01191">
        <ele>1251.8</ele>
        <time>2023-05-20T06:29:42Z</time>
      </trkpt>
      <trkpt lat="48.01889" lon="7.01195">
        <ele>1250.9</ele>
        <time>2023-05-20T06:29:46Z</time>
      </trkpt>
      <trkpt lat="48.01881" lon="7.01204">
        <ele>1249.3</ele>
        <time>2023-05-20T06:29:56Z</time>
      </trkpt>
      <trkpt lat="48.01876" lon="7.01205">
        <ele>1248.8</ele>
        <time>2023-05-20T06:30:00Z</time>
      </trkpt>
      <trkpt lat="48.01846" lon="7.01228">
        <ele>1242.7</ele>
        <time>2023-05-20T06:30:28Z</time>
      </trkpt>
      <trkpt lat="48.01836" lon="7.01231">
        <ele>1241.3</ele>
        <time>2023-05-20T06:30:37Z</time>
      </trkpt>
      <trkpt lat="48.01808" lon="7.01276">
        <ele>1232.6</ele>
        <time>2023-05-20T06:31:12Z</time>
      </trkpt>
      <trkpt lat="48.01798" lon="7.01287">
        <ele>1229.6</ele>
        <time>2023-05-20T06:31:23Z</time>
      </trkpt>
      <trkpt lat="48.01794" lon="7.01289">
        <ele>1228.7</ele>
        <time>2023-05-20T06:31:27Z</time>
      </trkpt>
      <trkpt lat="48.0179" lon="7.01289">
        <ele>1228.1</ele>
        <time>2023-05-20T06:31:31Z</time>
      </trkpt>
      <trkpt lat="48.01782" lon="7.01295">
        <ele>1226.1</ele>
        <time>2023-05-20T06:31:40Z</time>
      </trkpt>
      <trkpt lat="48.01775" lon="7.01299">
        <ele>1224.4</ele>
        <time>2023-05-20T06:31:49Z</time>
      </trkpt>
      <trkpt lat="48.0177" lon="7.01303">
        <ele>1222.9</ele>
        <time>2023-05-20T06:31:57Z</time>
      </trkpt>
      <trkpt lat="48.01765" lon="7.01305">
        <ele>1221.8</ele>
        <time>2023-05-20T06:32:02Z</time>
      </trkpt>
      <trkpt lat="48.01761" lon="7.01308">
        <ele>1220.6</ele>
        <time>2023-05-20T06:32:06Z</time>
      </trkpt>
      <trkpt lat="48.01757" lon="7.01309">
        <ele>1219.8</ele>
        <time>2023-05-20T06:32:10Z</time>
      </trkpt>
      <trkpt lat="48.01748" lon="7.01315">
        <ele>1217.2</ele>
        <time>2023-05-20T06:32:19Z</time>
      </trkpt>
      <trkpt lat="48.0171" lon="7.01318">
        <ele>1208.6</ele>
        <time>2023-05-20T06:32:51Z</time>
      </trkpt>
      <trkpt lat="48.01706" lon="7.01316">
        <ele>1208</ele>
        <time>2023-05-20T06:32:54Z</time>
      </trkpt>
      <trkpt lat="48.01701" lon="7.01315">
        <ele>1207.1</ele>
        <time>2023-05-20T06:32:58Z</time>
      </trkpt>
      <trkpt lat="48.01673" lon="7.01316">
        <ele>1200.9</ele>
        <time>2023-05-20T06:33:27Z</time>
      </trkpt>
      <trkpt lat="48.01669" lon="7.01315">
        <ele>1200.1</ele>
        <time>2023-05-20T06:33:32Z</time>
      </trkpt>
      <trkpt lat="48.01663" lon="7.01314">
        <ele>1198.7</ele>
        <time>2023-05-20T06:33:37Z</time>
      </trkpt>
      <trkpt lat="48.01656" lon="7.0131">
        <ele>1197.3</ele>
        <time>2023-05-20T06:33:47Z</time>
      </trkpt>
      <trkpt lat="48.01651" lon="7.01308">
        <ele>1196.1</ele>
        <time>2023-05-20T06:33:52Z</time>
      </trkpt>
      <trkpt lat="48.01636" lon="7.01302">
        <ele>1192.8</ele>
        <time>2023-05-20T06:34:08Z</time>
      </trkpt>
      <trkpt lat="48.01633" lon="7.01298">
        <ele>1192.5</ele>
        <time>2023-05-20T06:34:12Z</time>
      </trkpt>
      <trkpt lat="48.01629" lon="7.01293">
        <ele>1192.2</ele>
        <time>2023-05-20T06:34:16Z</time>
      </trkpt>
      <trkpt lat="48.01625" lon="7.01293">
        <ele>1191.1</ele>
        <time>2023-05-20T06:34:21Z</time>
      </trkpt>
      <trkpt lat="48.0162" lon="7.01293">
        <ele>1189.7</ele>
        <time>2023-05-20T06:34:25Z</time>
      </trkpt>
      <trkpt lat="48.01589" lon="7.01282">
        <ele>1182.9</ele>
        <time>2023-05-20T06:34:56Z</time>
      </trkpt>
      <trkpt lat="48.01582" lon="7.0128">
        <ele>1181.3</ele>
        <time>2023-05-20T06:35:02Z</time>
      </trkpt>
      <trkpt lat="48.01578" lon="7.01276">
        <ele>1180.8</ele>
        <time>2023-05-20T06:35:07Z</time>
      </trkpt>
      <trkpt lat="48.01574" lon="7.01276">
        <ele>1179.8</ele>
        <time>2023-05-20T06:35:12Z</time>
      </trkpt>
      <trkpt lat="48.01565" lon="7.0127">
        <ele>1178.2</ele>
        <time>2023-05-20T06:35:20Z</time>
      </trkpt>
      <trkpt lat="48.01558" lon="7.01263">
        <ele>1177.2</ele>
        <time>2023-05-20T06:35:29Z</time>
      </trkpt>
      <trkpt lat="48.01548" lon="7.0126">
        <ele>1175.3</ele>
        <time>2023-05-20T06:35:37Z</time>
      </trkpt>
      <trkpt lat="48.01534" lon="7.01253">
        <ele>1173</ele>
        <time>2023-05-20T06:35:51Z</time>
      </trkpt>
      <trkpt lat="48.01529" lon="7.01253">
        <ele>1171.9</ele>
        <time>2023-05-20T06:35:55Z</time>
      </trkpt>
      <trkpt lat="48.01525" lon="7.0125">
        <ele>1171.4</ele>
        <time>2023-05-20T06:36:00Z</time>
      </trkpt>
      <trkpt lat="48.01522" lon="7.0124">
        <ele>1171.4</ele>
        <time>2023-05-20T06:36:12Z</time>
      </trkpt>
      <trkpt lat="48.01522" lon="7.01233">
        <ele>1171.8</ele>
        <time>2023-05-20T06:36:16Z</time>
      </trkpt>
      <trkpt lat="48.0152" lon="7.01226">
        <ele>1171.8</ele>
        <time>2023-05-20T06:36:20Z</time>
      </trkpt>
      <trkpt lat="48.01515" lon="7.01214">
        <ele>1170.8</ele>
        <time>2023-05-20T06:36:29Z</time>
      </trkpt>
      <trkpt lat="48.01511" lon="7.01209">
        <ele>1169.8</ele>
        <time>2023-05-20T06:36:34Z</time>
      </trkpt>
      <trkpt lat="48.01511" lon="7.01199">
        <ele>1169.8</ele>
        <time>2023-05-20T06:36:59Z</time>
      </trkpt>
      <trkpt lat="48.01511" lon="7.01192">
        <ele>1169.6</ele>
        <time>2023-05-20T06:37:03Z</time>
      </trkpt>
      <trkpt lat="48.01515" lon="7.0118">
        <ele>1170</ele>
        <time>2023-05-20T06:37:10Z</time>
      </trkpt>
      <trkpt lat="48.01527" lon="7.01158">
        <ele>1171.9</ele>
        <time>2023-05-20T06:37:26Z</time>
      </trkpt>
      <trkpt lat="48.01531" lon="7.01154">
        <ele>1172.5</ele>
        <time>2023-05-20T06:37:31Z</time>
      </trkpt>
      <trkpt lat="48.01536" lon="7.0115">
        <ele>1173.4</ele>
        <time>2023-05-20T06:37:39Z</time>
      </trkpt>
      <trkpt lat="48.0154" lon="7.01144">
        <ele>1174</ele>
        <time>2023-05-20T06:37:44Z</time>
      </trkpt>
      <trkpt lat="48.01543" lon="7.01139">
        <ele>1174.4</ele>
        <time>2023-05-20T06:37:48Z</time>
      </trkpt>
      <trkpt lat="48.01551" lon="7.0113">
        <ele>1175.4</ele>
        <time>2023-05-20T06:37:56Z</time>
      </trkpt>
      <trkpt lat="48.01554" lon="7.01125">
        <ele>1175.6</ele>
        <time>2023-05-20T06:38:00Z</time>
      </trkpt>
      <trkpt lat="48.01558" lon="7.01121">
        <ele>1176.2</ele>
        <time>2023-05-20T06:38:04Z</time>
      </trkpt>
      <trkpt lat="48.01572" lon="7.01099">
        <ele>1177.1</ele>
        <time>2023-05-20T06:38:21Z</time>
      </trkpt>
      <trkpt lat="48.0158" lon="7.01091">
        <ele>1178.3</ele>
        <time>2023-05-20T06:38:29Z</time>
      </trkpt>
      <trkpt lat="48.01589" lon="7.01074">
        <ele>1178.8</ele>
        <time>2023-05-20T06:38:41Z</time>
      </trkpt>
      <trkpt lat="48.01591" lon="7.01068">
        <ele>1178.7</ele>
        <time>2023-05-20T06:38:45Z</time>
      </trkpt>
      <trkpt lat="48.01601" lon="7.01051">
        <ele>1180.3</ele>
        <time>2023-05-20T06:38:58Z</time>
      </trkpt>
      <trkpt lat="48.01605" lon="7.01046">
        <ele>1181.2</ele>
        <time>2023-05-20T06:39:01Z</time>
      </trkpt>
      <trkpt lat="48.01609" lon="7.01037">
        <ele>1181.5</ele>
        <time>2023-05-20T06:39:08Z</time>
      </trkpt>
      <trkpt lat="48.01614" lon="7.01028">
        <ele>1182.3</ele>
        <time>2023-05-20T06:40:53Z</time>
      </trkpt>
      <trkpt lat="48.01617" lon="7.01022">
        <ele>1183</ele>
        <time>2023-05-20T06:40:57Z</time>
      </trkpt>
      <trkpt lat="48.0162" lon="7.01017">
        <ele>1183.8</ele>
        <time>2023-05-20T06:41:01Z</time>
      </trkpt>
      <trkpt lat="48.01632" lon="7.00977">
        <ele>1186.1</ele>
        <time>2023-05-20T06:41:32Z</time>
      </trkpt>
      <trkpt lat="48.01634" lon="7.00971">
        <ele>1186.8</ele>
        <time>2023-05-20T06:41:36Z</time>
      </trkpt>
      <trkpt lat="48.01635" lon="7.00923">
        <ele>1189.6</ele>
        <time>2023-05-20T06:42:07Z</time>
      </trkpt>
      <trkpt lat="48.01633" lon="7.00912">
        <ele>1188.9</ele>
        <time>2023-05-20T06:42:14Z</time>
      </trkpt>
      <trkpt lat="48.01634" lon="7.00902">
        <ele>1190.2</ele>
        <time>2023-05-20T06:42:20Z</time>
      </trkpt>
      <trkpt lat="48.01633" lon="7.0088">
        <ele>1190.7</ele>
        <time>2023-05-20T06:42:36Z</time>
      </trkpt>
      <trkpt lat="48.01634" lon="7.00873">
        <ele>1191.4</ele>
        <time>2023-05-20T06:42:40Z</time>
      </trkpt>
      <trkpt lat="48.01633" lon="7.00857">
        <ele>1191.4</ele>
        <time>2023-05-20T06:42:50Z</time>
      </trkpt>
      <trkpt lat="48.01634" lon="7.00849">
        <ele>1192.5</ele>
        <time>2023-05-20T06:42:55Z</time>
      </trkpt>
      <trkpt lat="48.01633" lon="7.00842">
        <ele>1192.6</ele>
        <time>2023-05-20T06:42:58Z</time>
      </trkpt>
      <trkpt lat="48.01634" lon="7.00836">
        <ele>1193.5</ele>
        <time>2023-05-20T06:43:02Z</time>
      </trkpt>
      <trkpt lat="48.01633" lon="7.00828">
        <ele>1193.3</ele>
        <time>2023-05-20T06:43:06Z</time>
      </trkpt>
      <trkpt lat="48.01634" lon="7.00816">
        <ele>1193.8</ele>
        <time>2023-05-20T06:43:13Z</time>
      </trkpt>
      <trkpt lat="48.01636" lon="7.0081">
        <ele>1194.7</ele>
        <time>2023-05-20T06:43:17Z</time>
      </trkpt>
      <trkpt lat="48.01636" lon="7.00803">
        <ele>1194.9</ele>
        <time>2023-05-20T06:43:21Z</time>
      </trkpt>
      <trkpt lat="48.01638" lon="7.00798">
        <ele>1195.9</ele>
        <time>2023-05-20T06:43:24Z</time>
      </trkpt>
      <trkpt lat="48.01635" lon="7.00748">
        <ele>1196.5</ele>
        <time>2023-05-20T06:43:53Z</time>
      </trkpt>
      <trkpt lat="48.01637" lon="7.00741">
        <ele>1197.6</ele>
        <time>2023-05-20T06:43:57Z</time>
      </trkpt>
      <trkpt lat="48.01635" lon="7.00728">
        <ele>1197.4</ele>
        <time>2023-05-20T06:44:05Z</time>
      </trkpt>
      <trkpt lat="48.01635" lon="7.00699">
        <ele>1197.5</ele>
        <time>2023-05-20T06:44:21Z</time>
      </trkpt>
      <trkpt lat="48.01648" lon="7.00653">
        <ele>1200.9</ele>
        <time>2023-05-20T06:44:54Z</time>
      </trkpt>
      <trkpt lat="48.01654" lon="7.00625">
        <ele>1202.1</ele>
        <time>2023-05-20T06:45:11Z</time>
      </trkpt>
      <trkpt lat="48.01657" lon="7.0062">
        <ele>1203.1</ele>
        <time>2023-05-20T06:45:16Z</time>
      </trkpt>
      <trkpt lat="48.01659" lon="7.00613">
        <ele>1203.5</ele>
        <time>2023-05-20T06:45:19Z</time>
      </trkpt>
      <trkpt lat="48.01662" lon="7.00608">
        <ele>1204.5</ele>
        <time>2023-05-20T06:45:23Z</time>
      </trkpt>
      <trkpt lat="48.01663" lon="7.00602">
        <ele>1204.3</ele>
        <time>2023-05-20T06:45:26Z</time>
      </trkpt>
      <trkpt lat="48.01665" lon="7.00589">
        <ele>1203.8</ele>
        <time>2023-05-20T06:45:34Z</time>
      </trkpt>
      <trkpt lat="48.01668" lon="7.00584">
        <ele>1204.6</ele>
        <time>2023-05-20T06:45:38Z</time>
      </trkpt>
      <trkpt lat="48.01673" lon="7.00577">
        <ele>1205.1</ele>
        <time>2023-05-20T06:45:45Z</time>
      </trkpt>
      <trkpt lat="48.01679" lon="7.00566">
        <ele>1205.1</ele>
        <time>2023-05-20T06:45:53Z</time>
      </trkpt>
      <trkpt lat="48.01687" lon="7.00557">
        <ele>1206.4</ele>
        <time>2023-05-20T06:46:01Z</time>
      </trkpt>
      <trkpt lat="48.01693" lon="7.00547">
        <ele>1206.6</ele>
        <time>2023-05-20T06:46:09Z</time>
      </trkpt>
      <trkpt lat="48.01698" lon="7.00541">
        <ele>1207.1</ele>
        <time>2023-05-20T06:46:14Z</time>
      </trkpt>
      <trkpt lat="48.01704" lon="7.00529">
        <ele>1206.7</ele>
        <time>2023-05-20T06:46:23Z</time>
      </trkpt>
      <trkpt lat="48.01712" lon="7.00522">
        <ele>1208.6</ele>
        <time>2023-05-20T06:46:30Z</time>
      </trkpt>
      <trkpt lat="48.01714" lon="7.00516">
        <ele>1208.6</ele>
        <time>2023-05-20T06:46:34Z</time>
      </trkpt>
      <trkpt lat="48.01728" lon="7.00491">
        <ele>1211.2</ele>
        <time>2023-05-20T06:46:55Z</time>
      </trkpt>
      <trkpt lat="48.01733" lon="7.00479">
        <ele>1212.2</ele>
        <time>2023-05-20T06:47:03Z</time>
      </trkpt>
      <trkpt lat="48.01734" lon="7.00471">
        <ele>1212</ele>
        <time>2023-05-20T06:47:07Z</time>
      </trkpt>
      <trkpt lat="48.0174" lon="7.00455">
        <ele>1212.8</ele>
        <time>2023-05-20T06:47:19Z</time>
      </trkpt>
      <trkpt lat="48.01743" lon="7.00446">
        <ele>1213.1</ele>
        <time>2023-05-20T06:47:25Z</time>
      </trkpt>
      <trkpt lat="48.01749" lon="7.00432">
        <ele>1215.1</ele>
        <time>2023-05-20T06:47:36Z</time>
      </trkpt>
      <trkpt lat="48.01752" lon="7.00424">
        <ele>1216.2</ele>
        <time>2023-05-20T06:47:41Z</time>
      </trkpt>
      <trkpt lat="48.01761" lon="7.00376">
        <ele>1219.3</ele>
        <time>2023-05-20T06:48:13Z</time>
      </trkpt>
      <trkpt lat="48.01771" lon="7.00337">
        <ele>1222.9</ele>
        <time>2023-05-20T06:48:37Z</time>
      </trkpt>
      <trkpt lat="48.01772" lon="7.00309">
        <ele>1224.7</ele>
        <time>2023-05-20T06:48:58Z</time>
      </trkpt>
      <trkpt lat="48.01771" lon="7.00303">
        <ele>1224.6</ele>
        <time>2023-05-20T06:49:02Z</time>
      </trkpt>
      <trkpt lat="48.01771" lon="7.00257">
        <ele>1228.3</ele>
        <time>2023-05-20T06:49:29Z</time>
      </trkpt>
      <trkpt lat="48.01774" lon="7.00254">
        <ele>1229.9</ele>
        <time>2023-05-20T06:50:07Z</time>
      </trkpt>
      <trkpt lat="48.01782" lon="7.00252">
        <ele>1233.9</ele>
        <time>2023-05-20T06:51:05Z</time>
      </trkpt>
      <trkpt lat="48.01776" lon="7.00246">
        <ele>1231.4</ele>
        <time>2023-05-20T06:52:37Z</time>
      </trkpt>
      <trkpt lat="48.01771" lon="7.0025">
        <ele>1228.6</ele>
        <time>2023-05-20T06:52:40Z</time>
      </trkpt>
      <trkpt lat="48.01787" lon="7.00249">
        <ele>1236.4</ele>
        <time>2023-05-20T06:52:53Z</time>
      </trkpt>
      <trkpt lat="48.01781" lon="7.00245">
        <ele>1233.9</ele>
        <time>2023-05-20T06:53:32Z</time>
      </trkpt>
      <trkpt lat="48.01774" lon="7.00247">
        <ele>1230.3</ele>
        <time>2023-05-20T06:53:44Z</time>
      </trkpt>
      <trkpt lat="48.01769" lon="7.00241">
        <ele>1228.3</ele>
        <time>2023-05-20T06:53:46Z</time>
      </trkpt>
      <trkpt lat="48.01765" lon="7.00226">
        <ele>1227.7</ele>
        <time>2023-05-20T06:53:52Z</time>
      </trkpt>
      <trkpt lat="48.01761" lon="7.00223">
        <ele>1226.1</ele>
        <time>2023-05-20T06:54:00Z</time>
      </trkpt>
      <trkpt lat="48.01753" lon="7.00213">
        <ele>1223.4</ele>
        <time>2023-05-20T06:54:05Z</time>
      </trkpt>
      <trkpt lat="48.01753" lon="7.00199">
        <ele>1224.9</ele>
        <time>2023-05-20T06:54:13Z</time>
      </trkpt>
      <trkpt lat="48.01747" lon="7.00197">
        <ele>1222.3</ele>
        <time>2023-05-20T06:54:16Z</time>
      </trkpt>
      <trkpt lat="48.01748" lon="7.00189">
        <ele>1223.8</ele>
        <time>2023-05-20T06:54:20Z</time>
      </trkpt>
      <trkpt lat="48.01749" lon="7.00183">
        <ele>1225.2</ele>
        <time>2023-05-20T06:54:24Z</time>
      </trkpt>
      <trkpt lat="48.01744" lon="7.00168">
        <ele>1225</ele>
        <time>2023-05-20T06:54:34Z</time>
      </trkpt>
      <trkpt lat="48.01736" lon="7.00132">
        <ele>1227.3</ele>
        <time>2023-05-20T06:54:58Z</time>
      </trkpt>
      <trkpt lat="48.01737" lon="7.00123">
        <ele>1228.9</ele>
        <time>2023-05-20T06:55:06Z</time>
      </trkpt>
      <trkpt lat="48.01734" lon="7.00118">
        <ele>1228.2</ele>
        <time>2023-05-20T06:55:10Z</time>
      </trkpt>
      <trkpt lat="48.01731" lon="7.00113">
        <ele>1227.5</ele>
        <time>2023-05-20T06:55:14Z</time>
      </trkpt>
      <trkpt lat="48.0173" lon="7.00105">
        <ele>1228</ele>
        <time>2023-05-20T06:55:17Z</time>
      </trkpt>
      <trkpt lat="48.01729" lon="7.0009">
        <ele>1229.2</ele>
        <time>2023-05-20T06:55:26Z</time>
      </trkpt>
      <trkpt lat="48.0173" lon="7.00083">
        <ele>1230.4</ele>
        <time>2023-05-20T06:55:29Z</time>
      </trkpt>
      <trkpt lat="48.01726" lon="7.00073">
        <ele>1229.7</ele>
        <time>2023-05-20T06:55:37Z</time>
      </trkpt>
      <trkpt lat="48.01725" lon="7.00065">
        <ele>1230.2</ele>
        <time>2023-05-20T06:55:42Z</time>
      </trkpt>
      <trkpt lat="48.01727" lon="7.00057">
        <ele>1231.9</ele>
        <time>2023-05-20T06:55:47Z</time>
      </trkpt>
      <trkpt lat="48.01722" lon="7.00034">
        <ele>1231.5</ele>
        <time>2023-05-20T06:55:58Z</time>
      </trkpt>
      <trkpt lat="48.01721" lon="7.00023">
        <ele>1232</ele>
        <time>2023-05-20T06:56:06Z</time>
      </trkpt>
      <trkpt lat="48.01722" lon="7.00017">
        <ele>1233.1</ele>
        <time>2023-05-20T06:56:10Z</time>
      </trkpt>
      <trkpt lat="48.01727" lon="7.00005">
        <ele>1236.4</ele>
        <time>2023-05-20T06:56:21Z</time>
      </trkpt>
      <trkpt lat="48.01726" lon="6.99969">
        <ele>1237.7</ele>
        <time>2023-05-20T06:56:42Z</time>
      </trkpt>
      <trkpt lat="48.01726" lon="6.99961">
        <ele>1238.2</ele>
        <time>2023-05-20T06:56:47Z</time>
      </trkpt>
      <trkpt lat="48.01726" lon="6.99953">
        <ele>1238.8</ele>
        <time>2023-05-20T06:56:51Z</time>
      </trkpt>
      <trkpt lat="48.01726" lon="6.9994">
        <ele>1239.5</ele>
        <time>2023-05-20T06:56:59Z</time>
      </trkpt>
      <trkpt lat="48.01726" lon="6.99924">
        <ele>1240</ele>
        <time>2023-05-20T06:57:07Z</time>
      </trkpt>
      <trkpt lat="48.01725" lon="6.99917">
        <ele>1239.9</ele>
        <time>2023-05-20T06:57:12Z</time>
      </trkpt>
      <trkpt lat="48.01727" lon="6.99902">
        <ele>1240.6</ele>
        <time>2023-05-20T06:57:20Z</time>
      </trkpt>
      <trkpt lat="48.01727" lon="6.99888">
        <ele>1240.7</ele>
        <time>2023-05-20T06:57:28Z</time>
      </trkpt>
      <trkpt lat="48.0173" lon="6.99874">
        <ele>1241.4</ele>
        <time>2023-05-20T06:57:36Z</time>
      </trkpt>
      <trkpt lat="48.01733" lon="6.99866">
        <ele>1242.4</ele>
        <time>2023-05-20T06:57:42Z</time>
      </trkpt>
      <trkpt lat="48.01733" lon="6.99859">
        <ele>1242.3</ele>
        <time>2023-05-20T06:57:46Z</time>
      </trkpt>
      <trkpt lat="48.01733" lon="6.99848">
        <ele>1242.5</ele>
        <time>2023-05-20T06:57:54Z</time>
      </trkpt>
      <trkpt lat="48.01735" lon="6.99841">
        <ele>1243.4</ele>
        <time>2023-05-20T06:57:58Z</time>
      </trkpt>
      <trkpt lat="48.01734" lon="6.99826">
        <ele>1243</ele>
        <time>2023-05-20T06:58:06Z</time>
      </trkpt>
      <trkpt lat="48.01736" lon="6.99818">
        <ele>1243.7</ele>
        <time>2023-05-20T06:58:10Z</time>
      </trkpt>
      <trkpt lat="48.01739" lon="6.99813">
        <ele>1244.8</ele>
        <time>2023-05-20T06:58:14Z</time>
      </trkpt>
      <trkpt lat="48.01742" lon="6.99808">
        <ele>1245.9</ele>
        <time>2023-05-20T06:58:18Z</time>
      </trkpt>
      <trkpt lat="48.01744" lon="6.99793">
        <ele>1245.4</ele>
        <time>2023-05-20T06:58:28Z</time>
      </trkpt>
      <trkpt lat="48.01747" lon="6.99788">
        <ele>1246</ele>
        <time>2023-05-20T06:58:32Z</time>
      </trkpt>
      <trkpt lat="48.01752" lon="6.99785">
        <ele>1247.5</ele>
        <time>2023-05-20T06:58:37Z</time>
      </trkpt>
      <trkpt lat="48.01754" lon="6.99779">
        <ele>1247.6</ele>
        <time>2023-05-20T06:58:45Z</time>
      </trkpt>
      <trkpt lat="48.01757" lon="6.99774">
        <ele>1247.8</ele>
        <time>2023-05-20T06:58:50Z</time>
      </trkpt>
      <trkpt lat="48.0176" lon="6.99768">
        <ele>1247.8</ele>
        <time>2023-05-20T06:58:55Z</time>
      </trkpt>
      <trkpt lat="48.01768" lon="6.99759">
        <ele>1249.1</ele>
        <time>2023-05-20T06:59:05Z</time>
      </trkpt>
      <trkpt lat="48.01774" lon="6.99755">
        <ele>1250.5</ele>
        <time>2023-05-20T06:59:09Z</time>
      </trkpt>
      <trkpt lat="48.01781" lon="6.99745">
        <ele>1250.8</ele>
        <time>2023-05-20T06:59:17Z</time>
      </trkpt>
      <trkpt lat="48.01784" lon="6.9974">
        <ele>1250.6</ele>
        <time>2023-05-20T06:59:21Z</time>
      </trkpt>
      <trkpt lat="48.01787" lon="6.99734">
        <ele>1250.1</ele>
        <time>2023-05-20T06:59:24Z</time>
      </trkpt>
      <trkpt lat="48.01791" lon="6.9973">
        <ele>1250.6</ele>
        <time>2023-05-20T06:59:28Z</time>
      </trkpt>
      <trkpt lat="48.01794" lon="6.99725">
        <ele>1250.5</ele>
        <time>2023-05-20T06:59:32Z</time>
      </trkpt>
      <trkpt lat="48.01798" lon="6.99721">
        <ele>1251</ele>
        <time>2023-05-20T06:59:35Z</time>
      </trkpt>
      <trkpt lat="48.01804" lon="6.99716">
        <ele>1251.9</ele>
        <time>2023-05-20T06:59:42Z</time>
      </trkpt>
      <trkpt lat="48.0181" lon="6.99705">
        <ele>1251.3</ele>
        <time>2023-05-20T06:59:51Z</time>
      </trkpt>
      <trkpt lat="48.01819" lon="6.99696">
        <ele>1252.3</ele>
        <time>2023-05-20T07:00:00Z</time>
      </trkpt>
      <trkpt lat="48.01824" lon="6.99695">
        <ele>1253.8</ele>
        <time>2023-05-20T07:00:03Z</time>
      </trkpt>
      <trkpt lat="48.01827" lon="6.99689">
        <ele>1253.6</ele>
        <time>2023-05-20T07:00:07Z</time>
      </trkpt>
      <trkpt lat="48.0183" lon="6.99683">
        <ele>1253.6</ele>
        <time>2023-05-20T07:00:12Z</time>
      </trkpt>
      <trkpt lat="48.01834" lon="6.9968">
        <ele>1254.7</ele>
        <time>2023-05-20T07:00:21Z</time>
      </trkpt>
      <trkpt lat="48.01837" lon="6.99659">
        <ele>1252.3</ele>
        <time>2023-05-20T07:00:33Z</time>
      </trkpt>
      <trkpt lat="48.01841" lon="6.99655">
        <ele>1253.5</ele>
        <time>2023-05-20T07:00:38Z</time>
      </trkpt>
      <trkpt lat="48.01846" lon="6.9965">
        <ele>1254.9</ele>
        <time>2023-05-20T07:00:45Z</time>
      </trkpt>
      <trkpt lat="48.01849" lon="6.99645">
        <ele>1255.4</ele>
        <time>2023-05-20T07:00:49Z</time>
      </trkpt>
      <trkpt lat="48.01849" lon="6.99637">
        <ele>1254</ele>
        <time>2023-05-20T07:00:55Z</time>
      </trkpt>
      <trkpt lat="48.01871" lon="6.99598">
        <ele>1256.6</ele>
        <time>2023-05-20T07:01:25Z</time>
      </trkpt>
      <trkpt lat="48.01881" lon="6.99589">
        <ele>1259.4</ele>
        <time>2023-05-20T07:01:36Z</time>
      </trkpt>
      <trkpt lat="48.01882" lon="6.99576">
        <ele>1256.5</ele>
        <time>2023-05-20T07:01:50Z</time>
      </trkpt>
      <trkpt lat="48.01889" lon="6.99566">
        <ele>1257.1</ele>
        <time>2023-05-20T07:01:58Z</time>
      </trkpt>
      <trkpt lat="48.01893" lon="6.99553">
        <ele>1255.6</ele>
        <time>2023-05-20T07:02:07Z</time>
      </trkpt>
      <trkpt lat="48.01896" lon="6.99549">
        <ele>1256.4</ele>
        <time>2023-05-20T07:02:11Z</time>
      </trkpt>
      <trkpt lat="48.019" lon="6.99545">
        <ele>1257.7</ele>
        <time>2023-05-20T07:02:13Z</time>
      </trkpt>
      <trkpt lat="48.01901" lon="6.99538">
        <ele>1256.9</ele>
        <time>2023-05-20T07:02:16Z</time>
      </trkpt>
      <trkpt lat="48.01906" lon="6.99524">
        <ele>1256.8</ele>
        <time>2023-05-20T07:02:25Z</time>
      </trkpt>
      <trkpt lat="48.01909" lon="6.99516">
        <ele>1256.5</ele>
        <time>2023-05-20T07:02:34Z</time>
      </trkpt>
      <trkpt lat="48.01909" lon="6.99509">
        <ele>1254.9</ele>
        <time>2023-05-20T07:02:38Z</time>
      </trkpt>
      <trkpt lat="48.01917" lon="6.99487">
        <ele>1252.9</ele>
        <time>2023-05-20T07:02:54Z</time>
      </trkpt>
      <trkpt lat="48.01921" lon="6.99479">
        <ele>1252.3</ele>
        <time>2023-05-20T07:03:00Z</time>
      </trkpt>
      <trkpt lat="48.01923" lon="6.99473">
        <ele>1251.4</ele>
        <time>2023-05-20T07:03:05Z</time>
      </trkpt>
      <trkpt lat="48.01925" lon="6.99466">
        <ele>1250.5</ele>
        <time>2023-05-20T07:03:10Z</time>
      </trkpt>
      <trkpt lat="48.01927" lon="6.99459">
        <ele>1249.6</ele>
        <time>2023-05-20T07:03:15Z</time>
      </trkpt>
      <trkpt lat="48.01931" lon="6.99446">
        <ele>1248.7</ele>
        <time>2023-05-20T07:03:22Z</time>
      </trkpt>
      <trkpt lat="48.01931" lon="6.99439">
        <ele>1247.6</ele>
        <time>2023-05-20T07:03:27Z</time>
      </trkpt>
      <trkpt lat="48.01929" lon="6.99425">
        <ele>1244.6</ele>
        <time>2023-05-20T07:03:38Z</time>
      </trkpt>
      <trkpt lat="48.01929" lon="6.99418">
        <ele>1243.7</ele>
        <time>2023-05-20T07:03:42Z</time>
      </trkpt>
      <trkpt lat="48.01935" lon="6.99413">
        <ele>1246.8</ele>
        <time>2023-05-20T07:03:47Z</time>
      </trkpt>
      <trkpt lat="48.01935" lon="6.99406">
        <ele>1245.9</ele>
        <time>2023-05-20T07:03:51Z</time>
      </trkpt>
      <trkpt lat="48.01937" lon="6.99397">
        <ele>1246</ele>
        <time>2023-05-20T07:03:56Z</time>
      </trkpt>
      <trkpt lat="48.0194" lon="6.99383">
        <ele>1245.5</ele>
        <time>2023-05-20T07:04:03Z</time>
      </trkpt>
      <trkpt lat="48.01939" lon="6.99377">
        <ele>1243.8</ele>
        <time>2023-05-20T07:04:07Z</time>
      </trkpt>
      <trkpt lat="48.01947" lon="6.99355">
        <ele>1243.9</ele>
        <time>2023-05-20T07:04:21Z</time>
      </trkpt>
      <trkpt lat="48.01948" lon="6.99347">
        <ele>1243.8</ele>
        <time>2023-05-20T07:04:23Z</time>
      </trkpt>
      <trkpt lat="48.01951" lon="6.99339">
        <ele>1244.6</ele>
        <time>2023-05-20T07:04:27Z</time>
      </trkpt>
      <trkpt lat="48.0195" lon="6.99326">
        <ele>1243.8</ele>
        <time>2023-05-20T07:04:34Z</time>
      </trkpt>
      <trkpt lat="48.01949" lon="6.9932">
        <ele>1243.5</ele>
        <time>2023-05-20T07:04:38Z</time>
      </trkpt>
      <trkpt lat="48.01949" lon="6.99301">
        <ele>1244.2</ele>
        <time>2023-05-20T07:04:51Z</time>
      </trkpt>
      <trkpt lat="48.01946" lon="6.99292">
        <ele>1244</ele>
        <time>2023-05-20T07:05:00Z</time>
      </trkpt>
      <trkpt lat="48.01945" lon="6.99285">
        <ele>1244.4</ele>
        <time>2023-05-20T07:05:04Z</time>
      </trkpt>
      <trkpt lat="48.01945" lon="6.99278">
        <ele>1245.2</ele>
        <time>2023-05-20T07:05:08Z</time>
      </trkpt>
      <trkpt lat="48.01951" lon="6.99258">
        <ele>1246.6</ele>
        <time>2023-05-20T07:05:20Z</time>
      </trkpt>
      <trkpt lat="48.01948" lon="6.99251">
        <ele>1245.3</ele>
        <time>2023-05-20T07:05:25Z</time>
      </trkpt>
      <trkpt lat="48.01945" lon="6.99243">
        <ele>1246.4</ele>
        <time>2023-05-20T07:05:28Z</time>
      </trkpt>
      <trkpt lat="48.01938" lon="6.99237">
        <ele>1247.3</ele>
        <time>2023-05-20T07:05:37Z</time>
      </trkpt>
      <trkpt lat="48.01928" lon="6.99229">
        <ele>1248.7</ele>
        <time>2023-05-20T07:05:51Z</time>
      </trkpt>
      <trkpt lat="48.01924" lon="6.99227">
        <ele>1249</ele>
        <time>2023-05-20T07:05:59Z</time>
      </trkpt>
      <trkpt lat="48.01919" lon="6.99227">
        <ele>1248.4</ele>
        <time>2023-05-20T07:06:05Z</time>
      </trkpt>
      <trkpt lat="48.01915" lon="6.99223">
        <ele>1249</ele>
        <time>2023-05-20T07:06:09Z</time>
      </trkpt>
      <trkpt lat="48.01914" lon="6.99216">
        <ele>1250.6</ele>
        <time>2023-05-20T07:06:12Z</time>
      </trkpt>
      <trkpt lat="48.0191" lon="6.99211">
        <ele>1250.5</ele>
        <time>2023-05-20T07:06:16Z</time>
      </trkpt>
      <trkpt lat="48.01906" lon="6.9921">
        <ele>1249.4</ele>
        <time>2023-05-20T07:06:19Z</time>
      </trkpt>
      <trkpt lat="48.019" lon="6.99201">
        <ele>1250.1</ele>
        <time>2023-05-20T07:06:27Z</time>
      </trkpt>
      <trkpt lat="48.01897" lon="6.99185">
        <ele>1251.9</ele>
        <time>2023-05-20T07:06:36Z</time>
      </trkpt>
      <trkpt lat="48.01899" lon="6.99171">
        <ele>1253.4</ele>
        <time>2023-05-20T07:06:44Z</time>
      </trkpt>
      <trkpt lat="48.01896" lon="6.99167">
        <ele>1252.5</ele>
        <time>2023-05-20T07:06:47Z</time>
      </trkpt>
      <trkpt lat="48.01894" lon="6.99157">
        <ele>1252.2</ele>
        <time>2023-05-20T07:06:53Z</time>
      </trkpt>
      <trkpt lat="48.01891" lon="6.99151">
        <ele>1251.3</ele>
        <time>2023-05-20T07:06:57Z</time>
      </trkpt>
      <trkpt lat="48.01888" lon="6.99146">
        <ele>1250.4</ele>
        <time>2023-05-20T07:07:02Z</time>
      </trkpt>
      <trkpt lat="48.01886" lon="6.99137">
        <ele>1250</ele>
        <time>2023-05-20T07:07:08Z</time>
      </trkpt>
      <trkpt lat="48.01881" lon="6.99134">
        <ele>1248.3</ele>
        <time>2023-05-20T07:07:13Z</time>
      </trkpt>
      <trkpt lat="48.01878" lon="6.99128">
        <ele>1247.4</ele>
        <time>2023-05-20T07:07:16Z</time>
      </trkpt>
      <trkpt lat="48.01881" lon="6.99122">
        <ele>1248.5</ele>
        <time>2023-05-20T07:07:19Z</time>
      </trkpt>
      <trkpt lat="48.01881" lon="6.99107">
        <ele>1248.7</ele>
        <time>2023-05-20T07:07:26Z</time>
      </trkpt>
      <trkpt lat="48.0188" lon="6.99101">
        <ele>1248.4</ele>
        <time>2023-05-20T07:07:30Z</time>
      </trkpt>
      <trkpt lat="48.01871" lon="6.99069">
        <ele>1247.3</ele>
        <time>2023-05-20T07:07:47Z</time>
      </trkpt>
      <trkpt lat="48.01871" lon="6.99061">
        <ele>1247.6</ele>
        <time>2023-05-20T07:07:50Z</time>
      </trkpt>
      <trkpt lat="48.01868" lon="6.99047">
        <ele>1247.2</ele>
        <time>2023-05-20T07:07:57Z</time>
      </trkpt>
      <trkpt lat="48.01867" lon="6.9904">
        <ele>1247.1</ele>
        <time>2023-05-20T07:08:01Z</time>
      </trkpt>
      <trkpt lat="48.01853" lon="6.98989">
        <ele>1244.3</ele>
        <time>2023-05-20T07:08:29Z</time>
      </trkpt>
      <trkpt lat="48.01851" lon="6.98982">
        <ele>1243.8</ele>
        <time>2023-05-20T07:08:32Z</time>
      </trkpt>
      <trkpt lat="48.01849" lon="6.98976">
        <ele>1243.3</ele>
        <time>2023-05-20T07:08:36Z</time>
      </trkpt>
      <trkpt lat="48.01848" lon="6.9897">
        <ele>1243</ele>
        <time>2023-05-20T07:08:40Z</time>
      </trkpt>
      <trkpt lat="48.01844" lon="6.98957">
        <ele>1242</ele>
        <time>2023-05-20T07:08:49Z</time>
      </trkpt>
      <trkpt lat="48.01845" lon="6.98949">
        <ele>1241.8</ele>
        <time>2023-05-20T07:08:53Z</time>
      </trkpt>
      <trkpt lat="48.01842" lon="6.98943">
        <ele>1241.2</ele>
        <time>2023-05-20T07:08:58Z</time>
      </trkpt>
      <trkpt lat="48.01834" lon="6.98936">
        <ele>1239.8</ele>
        <time>2023-05-20T07:09:06Z</time>
      </trkpt>
      <trkpt lat="48.01832" lon="6.98931">
        <ele>1239.3</ele>
        <time>2023-05-20T07:09:10Z</time>
      </trkpt>
      <trkpt lat="48.01807" lon="6.98905">
        <ele>1234.3</ele>
        <time>2023-05-20T07:09:38Z</time>
      </trkpt>
      <trkpt lat="48.01797" lon="6.98901">
        <ele>1232.5</ele>
        <time>2023-05-20T07:09:48Z</time>
      </trkpt>
      <trkpt lat="48.01789" lon="6.98893">
        <ele>1230.8</ele>
        <time>2023-05-20T07:09:56Z</time>
      </trkpt>
      <trkpt lat="48.01786" lon="6.98888">
        <ele>1230.1</ele>
        <time>2023-05-20T07:10:00Z</time>
      </trkpt>
      <trkpt lat="48.01778" lon="6.9888">
        <ele>1228.7</ele>
        <time>2023-05-20T07:10:08Z</time>
      </trkpt>
      <trkpt lat="48.01769" lon="6.98875">
        <ele>1227.2</ele>
        <time>2023-05-20T07:10:17Z</time>
      </trkpt>
      <trkpt lat="48.01762" lon="6.98866">
        <ele>1225.9</ele>
        <time>2023-05-20T07:10:26Z</time>
      </trkpt>
      <trkpt lat="48.01758" lon="6.98863">
        <ele>1225.2</ele>
        <time>2023-05-20T07:10:30Z</time>
      </trkpt>
      <trkpt lat="48.01749" lon="6.98852">
        <ele>1222.9</ele>
        <time>2023-05-20T07:10:40Z</time>
      </trkpt>
      <trkpt lat="48.01744" lon="6.98851">
        <ele>1222.3</ele>
        <time>2023-05-20T07:10:45Z</time>
      </trkpt>
      <trkpt lat="48.01739" lon="6.98844">
        <ele>1221</ele>
        <time>2023-05-20T07:10:53Z</time>
      </trkpt>
      <trkpt lat="48.01734" lon="6.98841">
        <ele>1220.1</ele>
        <time>2023-05-20T07:10:58Z</time>
      </trkpt>
      <trkpt lat="48.01728" lon="6.98833">
        <ele>1218.6</ele>
        <time>2023-05-20T07:11:07Z</time>
      </trkpt>
      <trkpt lat="48.01729" lon="6.98823">
        <ele>1218.2</ele>
        <time>2023-05-20T07:11:22Z</time>
      </trkpt>
      <trkpt lat="48.01729" lon="6.98816">
        <ele>1217.8</ele>
        <time>2023-05-20T07:11:28Z</time>
      </trkpt>
      <trkpt lat="48.01729" lon="6.98809">
        <ele>1217.4</ele>
        <time>2023-05-20T07:11:33Z</time>
      </trkpt>
      <trkpt lat="48.01731" lon="6.98802">
        <ele>1217.1</ele>
        <time>2023-05-20T07:11:37Z</time>
      </trkpt>
      <trkpt lat="48.01734" lon="6.98789">
        <ele>1216.2</ele>
        <time>2023-05-20T07:11:46Z</time>
      </trkpt>
      <trkpt lat="48.01736" lon="6.98775">
        <ele>1215.3</ele>
        <time>2023-05-20T07:11:55Z</time>
      </trkpt>
      <trkpt lat="48.01741" lon="6.98763">
        <ele>1214.6</ele>
        <time>2023-05-20T07:12:04Z</time>
      </trkpt>
      <trkpt lat="48.01745" lon="6.98759">
        <ele>1214.5</ele>
        <time>2023-05-20T07:12:09Z</time>
      </trkpt>
      <trkpt lat="48.0175" lon="6.98752">
        <ele>1214.1</ele>
        <time>2023-05-20T07:12:17Z</time>
      </trkpt>
      <trkpt lat="48.0175" lon="6.98743">
        <ele>1213.7</ele>
        <time>2023-05-20T07:12:24Z</time>
      </trkpt>
      <trkpt lat="48.0175" lon="6.98715">
        <ele>1212.5</ele>
        <time>2023-05-20T07:12:40Z</time>
      </trkpt>
      <trkpt lat="48.01749" lon="6.98709">
        <ele>1212</ele>
        <time>2023-05-20T07:12:44Z</time>
      </trkpt>
      <trkpt lat="48.01748" lon="6.98701">
        <ele>1211.4</ele>
        <time>2023-05-20T07:12:48Z</time>
      </trkpt>
      <trkpt lat="48.01752" lon="6.98688">
        <ele>1210.5</ele>
        <time>2023-05-20T07:13:00Z</time>
      </trkpt>
      <trkpt lat="48.01756" lon="6.98684">
        <ele>1210.2</ele>
        <time>2023-05-20T07:13:12Z</time>
      </trkpt>
      <trkpt lat="48.01756" lon="6.9868">
        <ele>1209.8</ele>
        <time>2023-05-20T07:51:44Z</time>
      </trkpt>
      <trkpt lat="48.01756" lon="6.9868">
        <ele>1209.8</ele>
        <time>2023-05-20T07:51:45Z</time>
      </trkpt>
      <trkpt lat="48.01751" lon="6.98682">
        <ele>1210.1</ele>
        <time>2023-05-20T07:51:51Z</time>
      </trkpt>
      <trkpt lat="48.01746" lon="6.98681">
        <ele>1209.9</ele>
        <time>2023-05-20T07:51:56Z</time>
      </trkpt>
      <trkpt lat="48.0174" lon="6.98681">
        <ele>1209.7</ele>
        <time>2023-05-20T07:52:03Z</time>
      </trkpt>
      <trkpt lat="48.01736" lon="6.98686">
        <ele>1209.9</ele>
        <time>2023-05-20T07:52:08Z</time>
      </trkpt>
      <trkpt lat="48.01736" lon="6.98693">
        <ele>1210.4</ele>
        <time>2023-05-20T07:52:12Z</time>
      </trkpt>
      <trkpt lat="48.0174" lon="6.98698">
        <ele>1210.8</ele>
        <time>2023-05-20T07:52:17Z</time>
      </trkpt>
      <trkpt lat="48.01745" lon="6.987">
        <ele>1211.2</ele>
        <time>2023-05-20T07:52:22Z</time>
      </trkpt>
      <trkpt lat="48.01746" lon="6.98707">
        <ele>1211.7</ele>
        <time>2023-05-20T07:52:26Z</time>
      </trkpt>
      <trkpt lat="48.01748" lon="6.9872">
        <ele>1212.7</ele>
        <time>2023-05-20T07:52:35Z</time>
      </trkpt>
      <trkpt lat="48.01748" lon="6.98728">
        <ele>1213.1</ele>
        <time>2023-05-20T07:52:40Z</time>
      </trkpt>
      <trkpt lat="48.01752" lon="6.9874">
        <ele>1213.8</ele>
        <time>2023-05-20T07:52:47Z</time>
      </trkpt>
      <trkpt lat="48.01753" lon="6.98747">
        <ele>1214.1</ele>
        <time>2023-05-20T07:52:51Z</time>
      </trkpt>
      <trkpt lat="48.0175" lon="6.98752">
        <ele>1214.1</ele>
        <time>2023-05-20T07:52:55Z</time>
      </trkpt>
      <trkpt lat="48.01747" lon="6.98758">
        <ele>1214.5</ele>
        <time>2023-05-20T07:52:59Z</time>
      </trkpt>
      <trkpt lat="48.01736" lon="6.9876">
        <ele>1214.2</ele>
        <time>2023-05-20T07:53:10Z</time>
      </trkpt>
      <trkpt lat="48.01731" lon="6.98763">
        <ele>1214.3</ele>
        <time>2023-05-20T07:53:14Z</time>
      </trkpt>
      <trkpt lat="48.01723" lon="6.98767">
        <ele>1214.3</ele>
        <time>2023-05-20T07:53:21Z</time>
      </trkpt>
      <trkpt lat="48.01719" lon="6.98767">
        <ele>1214.1</ele>
        <time>2023-05-20T07:53:25Z</time>
      </trkpt>
      <trkpt lat="48.0171" lon="6.98771">
        <ele>1214.1</ele>
        <time>2023-05-20T07:53:32Z</time>
      </trkpt>
      <trkpt lat="48.01705" lon="6.98773">
        <ele>1214</ele>
        <time>2023-05-20T07:53:36Z</time>
      </trkpt>
      <trkpt lat="48.01689" lon="6.98777">
        <ele>1214.1</ele>
        <time>2023-05-20T07:53:49Z</time>
      </trkpt>
      <trkpt lat="48.01684" lon="6.98775">
        <ele>1214.1</ele>
        <time>2023-05-20T07:53:53Z</time>
      </trkpt>
      <trkpt lat="48.0168" lon="6.98771">
        <ele>1213.9</ele>
        <time>2023-05-20T07:53:57Z</time>
      </trkpt>
      <trkpt lat="48.01656" lon="6.98732">
        <ele>1210.2</ele>
        <time>2023-05-20T07:54:25Z</time>
      </trkpt>
      <trkpt lat="48.01651" lon="6.9872">
        <ele>1209.2</ele>
        <time>2023-05-20T07:54:33Z</time>
      </trkpt>
      <trkpt lat="48.01644" lon="6.98712">
        <ele>1208.4</ele>
        <time>2023-05-20T07:54:39Z</time>
      </trkpt>
      <trkpt lat="48.01635" lon="6.98694">
        <ele>1206.8</ele>
        <time>2023-05-20T07:54:50Z</time>
      </trkpt>
      <trkpt lat="48.01632" lon="6.98689">
        <ele>1206.3</ele>
        <time>2023-05-20T07:54:53Z</time>
      </trkpt>
      <trkpt lat="48.01627" lon="6.98685">
        <ele>1206</ele>
        <time>2023-05-20T07:54:57Z</time>
      </trkpt>
      <trkpt lat="48.01624" lon="6.98679">
        <ele>1205.7</ele>
        <time>2023-05-20T07:55:01Z</time>
      </trkpt>
      <trkpt lat="48.01622" lon="6.98672">
        <ele>1205.4</ele>
        <time>2023-05-20T07:55:05Z</time>
      </trkpt>
      <trkpt lat="48.01613" lon="6.98664">
        <ele>1205.6</ele>
        <time>2023-05-20T07:55:13Z</time>
      </trkpt>
      <trkpt lat="48.0161" lon="6.98657">
        <ele>1205.1</ele>
        <time>2023-05-20T07:55:17Z</time>
      </trkpt>
      <trkpt lat="48.01609" lon="6.98643">
        <ele>1203.6</ele>
        <time>2023-05-20T07:55:25Z</time>
      </trkpt>
      <trkpt lat="48.01605" lon="6.98631">
        <ele>1201.6</ele>
        <time>2023-05-20T07:55:33Z</time>
      </trkpt>
      <trkpt lat="48.01597" lon="6.9862">
        <ele>1199.8</ele>
        <time>2023-05-20T07:55:45Z</time>
      </trkpt>
      <trkpt lat="48.0159" lon="6.98618">
        <ele>1199.8</ele>
        <time>2023-05-20T07:55:56Z</time>
      </trkpt>
      <trkpt lat="48.01585" lon="6.98618">
        <ele>1200.1</ele>
        <time>2023-05-20T07:56:00Z</time>
      </trkpt>
      <trkpt lat="48.01581" lon="6.98616">
        <ele>1199.9</ele>
        <time>2023-05-20T07:56:03Z</time>
      </trkpt>
      <trkpt lat="48.01571" lon="6.98613">
        <ele>1199.3</ele>
        <time>2023-05-20T07:56:11Z</time>
      </trkpt>
      <trkpt lat="48.01566" lon="6.98612">
        <ele>1199.1</ele>
        <time>2023-05-20T07:56:15Z</time>
      </trkpt>
      <trkpt lat="48.01561" lon="6.98612">
        <ele>1199.1</ele>
        <time>2023-05-20T07:56:19Z</time>
      </trkpt>
      <trkpt lat="48.01547" lon="6.98611">
        <ele>1198.1</ele>
        <time>2023-05-20T07:56:32Z</time>
      </trkpt>
      <trkpt lat="48.01543" lon="6.98607">
        <ele>1197.1</ele>
        <time>2023-05-20T07:56:37Z</time>
      </trkpt>
      <trkpt lat="48.01529" lon="6.98592">
        <ele>1194.7</ele>
        <time>2023-05-20T07:56:50Z</time>
      </trkpt>
      <trkpt lat="48.01525" lon="6.98588">
        <ele>1194.2</ele>
        <time>2023-05-20T07:56:54Z</time>
      </trkpt>
      <trkpt lat="48.01515" lon="6.98585">
        <ele>1193.5</ele>
        <time>2023-05-20T07:57:02Z</time>
      </trkpt>
      <trkpt lat="48.01499" lon="6.98566">
        <ele>1191.8</ele>
        <time>2023-05-20T07:57:18Z</time>
      </trkpt>
      <trkpt lat="48.01494" lon="6.98564">
        <ele>1191.8</ele>
        <time>2023-05-20T07:57:22Z</time>
      </trkpt>
      <trkpt lat="48.01484" lon="6.9856">
        <ele>1192.2</ele>
        <time>2023-05-20T07:57:30Z</time>
      </trkpt>
      <trkpt lat="48.0148" lon="6.98555">
        <ele>1192.4</ele>
        <time>2023-05-20T07:57:34Z</time>
      </trkpt>
      <trkpt lat="48.01471" lon="6.98547">
        <ele>1192.9</ele>
        <time>2023-05-20T07:57:42Z</time>
      </trkpt>
      <trkpt lat="48.01461" lon="6.98542">
        <ele>1194.3</ele>
        <time>2023-05-20T07:57:50Z</time>
      </trkpt>
      <trkpt lat="48.01453" lon="6.98534">
        <ele>1195.1</ele>
        <time>2023-05-20T07:57:59Z</time>
      </trkpt>
      <trkpt lat="48.01442" lon="6.98519">
        <ele>1195.9</ele>
        <time>2023-05-20T07:58:11Z</time>
      </trkpt>
      <trkpt lat="48.01438" lon="6.98515">
        <ele>1196.5</ele>
        <time>2023-05-20T07:58:14Z</time>
      </trkpt>
      <trkpt lat="48.01433" lon="6.98514">
        <ele>1197.5</ele>
        <time>2023-05-20T07:58:18Z</time>
      </trkpt>
      <trkpt lat="48.01428" lon="6.98508">
        <ele>1198.1</ele>
        <time>2023-05-20T07:58:25Z</time>
      </trkpt>
      <trkpt lat="48.01417" lon="6.98505">
        <ele>1200.3</ele>
        <time>2023-05-20T07:58:39Z</time>
      </trkpt>
      <trkpt lat="48.01413" lon="6.98499">
        <ele>1200.4</ele>
        <time>2023-05-20T07:58:45Z</time>
      </trkpt>
      <trkpt lat="48.01397" lon="6.98488">
        <ele>1201.8</ele>
        <time>2023-05-20T07:58:59Z</time>
      </trkpt>
      <trkpt lat="48.01392" lon="6.98489">
        <ele>1202.7</ele>
        <time>2023-05-20T07:59:03Z</time>
      </trkpt>
      <trkpt lat="48.0138" lon="6.98478">
        <ele>1204.3</ele>
        <time>2023-05-20T07:59:14Z</time>
      </trkpt>
      <trkpt lat="48.01377" lon="6.98475">
        <ele>1204.7</ele>
        <time>2023-05-20T07:59:18Z</time>
      </trkpt>
      <trkpt lat="48.01374" lon="6.9847">
        <ele>1205.1</ele>
        <time>2023-05-20T07:59:21Z</time>
      </trkpt>
      <trkpt lat="48.0137" lon="6.98463">
        <ele>1205.6</ele>
        <time>2023-05-20T07:59:28Z</time>
      </trkpt>
      <trkpt lat="48.01365" lon="6.9845">
        <ele>1206.2</ele>
        <time>2023-05-20T07:59:37Z</time>
      </trkpt>
      <trkpt lat="48.01349" lon="6.98432">
        <ele>1208.5</ele>
        <time>2023-05-20T07:59:54Z</time>
      </trkpt>
      <trkpt lat="48.01343" lon="6.98428">
        <ele>1209.4</ele>
        <time>2023-05-20T07:59:58Z</time>
      </trkpt>
      <trkpt lat="48.01337" lon="6.98421">
        <ele>1209.8</ele>
        <time>2023-05-20T08:00:06Z</time>
      </trkpt>
      <trkpt lat="48.01334" lon="6.98414">
        <ele>1209.4</ele>
        <time>2023-05-20T08:00:10Z</time>
      </trkpt>
      <trkpt lat="48.0133" lon="6.9841">
        <ele>1209.7</ele>
        <time>2023-05-20T08:00:14Z</time>
      </trkpt>
      <trkpt lat="48.01326" lon="6.98409">
        <ele>1210.5</ele>
        <time>2023-05-20T08:00:18Z</time>
      </trkpt>
      <trkpt lat="48.01317" lon="6.98401">
        <ele>1211.6</ele>
        <time>2023-05-20T08:00:26Z</time>
      </trkpt>
      <trkpt lat="48.01311" lon="6.984">
        <ele>1213.1</ele>
        <time>2023-05-20T08:00:34Z</time>
      </trkpt>
      <trkpt lat="48.01296" lon="6.98384">
        <ele>1214.7</ele>
        <time>2023-05-20T08:00:49Z</time>
      </trkpt>
      <trkpt lat="48.01292" lon="6.98381">
        <ele>1215.3</ele>
        <time>2023-05-20T08:00:54Z</time>
      </trkpt>
      <trkpt lat="48.01285" lon="6.98376">
        <ele>1216.3</ele>
        <time>2023-05-20T08:01:00Z</time>
      </trkpt>
      <trkpt lat="48.01277" lon="6.98367">
        <ele>1217</ele>
        <time>2023-05-20T08:01:07Z</time>
      </trkpt>
      <trkpt lat="48.01272" lon="6.98362">
        <ele>1217.6</ele>
        <time>2023-05-20T08:01:11Z</time>
      </trkpt>
      <trkpt lat="48.01269" lon="6.98356">
        <ele>1217.5</ele>
        <time>2023-05-20T08:01:15Z</time>
      </trkpt>
      <trkpt lat="48.01246" lon="6.98333">
        <ele>1221</ele>
        <time>2023-05-20T08:01:40Z</time>
      </trkpt>
      <trkpt lat="48.01231" lon="6.98298">
        <ele>1221.1</ele>
        <time>2023-05-20T08:02:01Z</time>
      </trkpt>
      <trkpt lat="48.01226" lon="6.98294">
        <ele>1222.4</ele>
        <time>2023-05-20T08:02:05Z</time>
      </trkpt>
      <trkpt lat="48.01207" lon="6.98248">
        <ele>1224.9</ele>
        <time>2023-05-20T08:02:37Z</time>
      </trkpt>
      <trkpt lat="48.01204" lon="6.98235">
        <ele>1224.5</ele>
        <time>2023-05-20T08:02:45Z</time>
      </trkpt>
      <trkpt lat="48.012" lon="6.98227">
        <ele>1225.5</ele>
        <time>2023-05-20T08:02:52Z</time>
      </trkpt>
      <trkpt lat="48.01188" lon="6.98201">
        <ele>1227.7</ele>
        <time>2023-05-20T08:03:07Z</time>
      </trkpt>
      <trkpt lat="48.01184" lon="6.98197">
        <ele>1229.1</ele>
        <time>2023-05-20T08:03:10Z</time>
      </trkpt>
      <trkpt lat="48.0118" lon="6.98194">
        <ele>1230.7</ele>
        <time>2023-05-20T08:03:14Z</time>
      </trkpt>
      <trkpt lat="48.01178" lon="6.98179">
        <ele>1229.4</ele>
        <time>2023-05-20T08:03:23Z</time>
      </trkpt>
      <trkpt lat="48.01174" lon="6.98172">
        <ele>1230.6</ele>
        <time>2023-05-20T08:03:29Z</time>
      </trkpt>
      <trkpt lat="48.0117" lon="6.98159">
        <ele>1230.3</ele>
        <time>2023-05-20T08:03:37Z</time>
      </trkpt>
      <trkpt lat="48.01163" lon="6.9815">
        <ele>1232.3</ele>
        <time>2023-05-20T08:03:45Z</time>
      </trkpt>
      <trkpt lat="48.01161" lon="6.98144">
        <ele>1232.1</ele>
        <time>2023-05-20T08:03:49Z</time>
      </trkpt>
      <trkpt lat="48.01158" lon="6.98139">
        <ele>1232.7</ele>
        <time>2023-05-20T08:03:52Z</time>
      </trkpt>
      <trkpt lat="48.01152" lon="6.98129">
        <ele>1234</ele>
        <time>2023-05-20T08:04:00Z</time>
      </trkpt>
      <trkpt lat="48.01148" lon="6.98124">
        <ele>1235.4</ele>
        <time>2023-05-20T08:04:04Z</time>
      </trkpt>
      <trkpt lat="48.01146" lon="6.98118">
        <ele>1235.6</ele>
        <time>2023-05-20T08:04:07Z</time>
      </trkpt>
      <trkpt lat="48.01141" lon="6.98105">
        <ele>1236.3</ele>
        <time>2023-05-20T08:04:16Z</time>
      </trkpt>
      <trkpt lat="48.01123" lon="6.98076">
        <ele>1240</ele>
        <time>2023-05-20T08:04:40Z</time>
      </trkpt>
      <trkpt lat="48.01116" lon="6.98059">
        <ele>1240.7</ele>
        <time>2023-05-20T08:04:51Z</time>
      </trkpt>
      <trkpt lat="48.01113" lon="6.98053">
        <ele>1241.4</ele>
        <time>2023-05-20T08:04:55Z</time>
      </trkpt>
      <trkpt lat="48.01108" lon="6.98039">
        <ele>1241.7</ele>
        <time>2023-05-20T08:05:05Z</time>
      </trkpt>
      <trkpt lat="48.01102" lon="6.98027">
        <ele>1242.8</ele>
        <time>2023-05-20T08:05:12Z</time>
      </trkpt>
      <trkpt lat="48.011" lon="6.98021">
        <ele>1242.5</ele>
        <time>2023-05-20T08:05:16Z</time>
      </trkpt>
      <trkpt lat="48.01098" lon="6.98011">
        <ele>1241.5</ele>
        <time>2023-05-20T08:05:22Z</time>
      </trkpt>
      <trkpt lat="48.01095" lon="6.98005">
        <ele>1241.8</ele>
        <time>2023-05-20T08:05:26Z</time>
      </trkpt>
      <trkpt lat="48.01088" lon="6.97995">
        <ele>1243.2</ele>
        <time>2023-05-20T08:05:35Z</time>
      </trkpt>
      <trkpt lat="48.01085" lon="6.97988">
        <ele>1243.1</ele>
        <time>2023-05-20T08:05:39Z</time>
      </trkpt>
      <trkpt lat="48.01083" lon="6.97983">
        <ele>1242.9</ele>
        <time>2023-05-20T08:05:42Z</time>
      </trkpt>
      <trkpt lat="48.01068" lon="6.97966">
        <ele>1243</ele>
        <time>2023-05-20T08:05:57Z</time>
      </trkpt>
      <trkpt lat="48.01057" lon="6.97962">
        <ele>1245</ele>
        <time>2023-05-20T08:06:08Z</time>
      </trkpt>
      <trkpt lat="48.01053" lon="6.9796">
        <ele>1245.4</ele>
        <time>2023-05-20T08:06:13Z</time>
      </trkpt>
      <trkpt lat="48.0105" lon="6.97954">
        <ele>1243.9</ele>
        <time>2023-05-20T08:06:17Z</time>
      </trkpt>
      <trkpt lat="48.01045" lon="6.97951">
        <ele>1245.1</ele>
        <time>2023-05-20T08:06:22Z</time>
      </trkpt>
      <trkpt lat="48.01042" lon="6.97946">
        <ele>1244.9</ele>
        <time>2023-05-20T08:06:25Z</time>
      </trkpt>
      <trkpt lat="48.0104" lon="6.97923">
        <ele>1242.6</ele>
        <time>2023-05-20T08:07:22Z</time>
      </trkpt>
      <trkpt lat="48.01038" lon="6.97917">
        <ele>1243.3</ele>
        <time>2023-05-20T08:07:28Z</time>
      </trkpt>
      <trkpt lat="48.01037" lon="6.9791">
        <ele>1242.8</ele>
        <time>2023-05-20T08:07:33Z</time>
      </trkpt>
      <trkpt lat="48.01035" lon="6.97904">
        <ele>1243.2</ele>
        <time>2023-05-20T08:07:37Z</time>
      </trkpt>
      <trkpt lat="48.0103" lon="6.97884">
        <ele>1242.3</ele>
        <time>2023-05-20T08:07:47Z</time>
      </trkpt>
      <trkpt lat="48.01028" lon="6.97879">
        <ele>1242.4</ele>
        <time>2023-05-20T08:07:51Z</time>
      </trkpt>
      <trkpt lat="48.01025" lon="6.97871">
        <ele>1242.1</ele>
        <time>2023-05-20T08:07:55Z</time>
      </trkpt>
      <trkpt lat="48.01022" lon="6.97865">
        <ele>1242.3</ele>
        <time>2023-05-20T08:07:58Z</time>
      </trkpt>
      <trkpt lat="48.01018" lon="6.9785">
        <ele>1241.4</ele>
        <time>2023-05-20T08:08:07Z</time>
      </trkpt>
      <trkpt lat="48.01016" lon="6.97843">
        <ele>1241.1</ele>
        <time>2023-05-20T08:08:11Z</time>
      </trkpt>
      <trkpt lat="48.01011" lon="6.9783">
        <ele>1241.4</ele>
        <time>2023-05-20T08:08:19Z</time>
      </trkpt>
      <trkpt lat="48.01008" lon="6.97825">
        <ele>1242</ele>
        <time>2023-05-20T08:08:23Z</time>
      </trkpt>
      <trkpt lat="48.01005" lon="6.97818">
        <ele>1242.1</ele>
        <time>2023-05-20T08:08:29Z</time>
      </trkpt>
      <trkpt lat="48.01003" lon="6.97813">
        <ele>1242</ele>
        <time>2023-05-20T08:08:33Z</time>
      </trkpt>
      <trkpt lat="48.01001" lon="6.97798">
        <ele>1239.7</ele>
        <time>2023-05-20T08:08:41Z</time>
      </trkpt>
      <trkpt lat="48.0099" lon="6.9777">
        <ele>1239.7</ele>
        <time>2023-05-20T08:08:54Z</time>
      </trkpt>
      <trkpt lat="48.00975" lon="6.97739">
        <ele>1241.7</ele>
        <time>2023-05-20T08:09:15Z</time>
      </trkpt>
      <trkpt lat="48.00973" lon="6.97725">
        <ele>1240</ele>
        <time>2023-05-20T08:09:22Z</time>
      </trkpt>
      <trkpt lat="48.00969" lon="6.97719">
        <ele>1240.8</ele>
        <time>2023-05-20T08:09:26Z</time>
      </trkpt>
      <trkpt lat="48.0096" lon="6.97686">
        <ele>1238.3</ele>
        <time>2023-05-20T08:09:45Z</time>
      </trkpt>
      <trkpt lat="48.00957" lon="6.97674">
        <ele>1237.4</ele>
        <time>2023-05-20T08:09:53Z</time>
      </trkpt>
      <trkpt lat="48.00948" lon="6.97647">
        <ele>1237.9</ele>
        <time>2023-05-20T08:10:09Z</time>
      </trkpt>
      <trkpt lat="48.00945" lon="6.97643">
        <ele>1239.3</ele>
        <time>2023-05-20T08:10:13Z</time>
      </trkpt>
      <trkpt lat="48.00938" lon="6.97631">
        <ele>1238.3</ele>
        <time>2023-05-20T08:10:21Z</time>
      </trkpt>
      <trkpt lat="48.00932" lon="6.97619">
        <ele>1237.1</ele>
        <time>2023-05-20T08:10:29Z</time>
      </trkpt>
      <trkpt lat="48.00932" lon="6.97583">
        <ele>1231.2</ele>
        <time>2023-05-20T08:10:51Z</time>
      </trkpt>
      <trkpt lat="48.00928" lon="6.9755">
        <ele>1228.7</ele>
        <time>2023-05-20T08:11:08Z</time>
      </trkpt>
      <trkpt lat="48.0093" lon="6.97543">
        <ele>1228.1</ele>
        <time>2023-05-20T08:11:12Z</time>
      </trkpt>
      <trkpt lat="48.00929" lon="6.97536">
        <ele>1227.6</ele>
        <time>2023-05-20T08:11:15Z</time>
      </trkpt>
      <trkpt lat="48.00928" lon="6.9753">
        <ele>1227.2</ele>
        <time>2023-05-20T08:11:19Z</time>
      </trkpt>
      <trkpt lat="48.00924" lon="6.97527">
        <ele>1226.9</ele>
        <time>2023-05-20T08:11:22Z</time>
      </trkpt>
      <trkpt lat="48.00919" lon="6.97516">
        <ele>1225.8</ele>
        <time>2023-05-20T08:11:29Z</time>
      </trkpt>
      <trkpt lat="48.00915" lon="6.97512">
        <ele>1225.1</ele>
        <time>2023-05-20T08:11:33Z</time>
      </trkpt>
      <trkpt lat="48.00909" lon="6.97508">
        <ele>1224.1</ele>
        <time>2023-05-20T08:11:37Z</time>
      </trkpt>
      <trkpt lat="48.00907" lon="6.97498">
        <ele>1222.7</ele>
        <time>2023-05-20T08:11:44Z</time>
      </trkpt>
      <trkpt lat="48.00903" lon="6.97493">
        <ele>1221.8</ele>
        <time>2023-05-20T08:11:50Z</time>
      </trkpt>
      <trkpt lat="48.00902" lon="6.97482">
        <ele>1220.5</ele>
        <time>2023-05-20T08:11:58Z</time>
      </trkpt>
      <trkpt lat="48.0089" lon="6.9747">
        <ele>1217.7</ele>
        <time>2023-05-20T08:12:11Z</time>
      </trkpt>
      <trkpt lat="48.00886" lon="6.97466">
        <ele>1216.3</ele>
        <time>2023-05-20T08:12:16Z</time>
      </trkpt>
      <trkpt lat="48.0088" lon="6.97462">
        <ele>1214.4</ele>
        <time>2023-05-20T08:12:23Z</time>
      </trkpt>
      <trkpt lat="48.00877" lon="6.97457">
        <ele>1212.9</ele>
        <time>2023-05-20T08:12:28Z</time>
      </trkpt>
      <trkpt lat="48.00875" lon="6.9745">
        <ele>1211.4</ele>
        <time>2023-05-20T08:12:34Z</time>
      </trkpt>
      <trkpt lat="48.00871" lon="6.97445">
        <ele>1209.9</ele>
        <time>2023-05-20T08:12:42Z</time>
      </trkpt>
      <trkpt lat="48.00861" lon="6.97438">
        <ele>1207.1</ele>
        <time>2023-05-20T08:12:52Z</time>
      </trkpt>
      <trkpt lat="48.00861" lon="6.97431">
        <ele>1206</ele>
        <time>2023-05-20T08:12:57Z</time>
      </trkpt>
      <trkpt lat="48.00858" lon="6.97426">
        <ele>1204.7</ele>
        <time>2023-05-20T08:13:01Z</time>
      </trkpt>
      <trkpt lat="48.00852" lon="6.97423">
        <ele>1203</ele>
        <time>2023-05-20T08:13:12Z</time>
      </trkpt>
      <trkpt lat="48.00852" lon="6.97417">
        <ele>1202.1</ele>
        <time>2023-05-20T08:13:17Z</time>
      </trkpt>
      <trkpt lat="48.00849" lon="6.9741">
        <ele>1200.3</ele>
        <time>2023-05-20T08:13:22Z</time>
      </trkpt>
      <trkpt lat="48.0084" lon="6.97406">
        <ele>1197.8</ele>
        <time>2023-05-20T08:13:30Z</time>
      </trkpt>
      <trkpt lat="48.00839" lon="6.97398">
        <ele>1196.4</ele>
        <time>2023-05-20T08:13:35Z</time>
      </trkpt>
      <trkpt lat="48.00841" lon="6.9739">
        <ele>1195.6</ele>
        <time>2023-05-20T08:13:39Z</time>
      </trkpt>
      <trkpt lat="48.00835" lon="6.97369">
        <ele>1192.1</ele>
        <time>2023-05-20T08:13:53Z</time>
      </trkpt>
      <trkpt lat="48.00829" lon="6.97364">
        <ele>1190.5</ele>
        <time>2023-05-20T08:14:00Z</time>
      </trkpt>
      <trkpt lat="48.00816" lon="6.97329">
        <ele>1183.4</ele>
        <time>2023-05-20T08:14:26Z</time>
      </trkpt>
      <trkpt lat="48.0081" lon="6.97317">
        <ele>1181.3</ele>
        <time>2023-05-20T08:14:34Z</time>
      </trkpt>
      <trkpt lat="48.00806" lon="6.97324">
        <ele>1181.4</ele>
        <time>2023-05-20T08:14:47Z</time>
      </trkpt>
      <trkpt lat="48.00796" lon="6.97376">
        <ele>1184.3</ele>
        <time>2023-05-20T08:15:17Z</time>
      </trkpt>
      <trkpt lat="48.00798" lon="6.97385">
        <ele>1185.3</ele>
        <time>2023-05-20T08:15:24Z</time>
      </trkpt>
      <trkpt lat="48.00794" lon="6.97399">
        <ele>1185.3</ele>
        <time>2023-05-20T08:15:32Z</time>
      </trkpt>
      <trkpt lat="48.00795" lon="6.97421">
        <ele>1188</ele>
        <time>2023-05-20T08:15:44Z</time>
      </trkpt>
      <trkpt lat="48.00797" lon="6.97428">
        <ele>1189.3</ele>
        <time>2023-05-20T08:15:48Z</time>
      </trkpt>
      <trkpt lat="48.00796" lon="6.97438">
        <ele>1189.9</ele>
        <time>2023-05-20T08:15:55Z</time>
      </trkpt>
      <trkpt lat="48.00794" lon="6.97447">
        <ele>1190.1</ele>
        <time>2023-05-20T08:16:02Z</time>
      </trkpt>
      <trkpt lat="48.00794" lon="6.97457">
        <ele>1191.1</ele>
        <time>2023-05-20T08:16:09Z</time>
      </trkpt>
      <trkpt lat="48.00791" lon="6.97474">
        <ele>1191.5</ele>
        <time>2023-05-20T08:16:20Z</time>
      </trkpt>
      <trkpt lat="48.00788" lon="6.97479">
        <ele>1191.2</ele>
        <time>2023-05-20T08:16:23Z</time>
      </trkpt>
      <trkpt lat="48.00783" lon="6.97492">
        <ele>1192</ele>
        <time>2023-05-20T08:16:30Z</time>
      </trkpt>
      <trkpt lat="48.00781" lon="6.97498">
        <ele>1192.7</ele>
        <time>2023-05-20T08:16:34Z</time>
      </trkpt>
      <trkpt lat="48.00778" lon="6.97503">
        <ele>1192.7</ele>
        <time>2023-05-20T08:16:38Z</time>
      </trkpt>
      <trkpt lat="48.00775" lon="6.975">
        <ele>1191</ele>
        <time>2023-05-20T08:17:30Z</time>
      </trkpt>
      <trkpt lat="48.00788" lon="6.97462">
        <ele>1189</ele>
        <time>2023-05-20T08:22:22Z</time>
      </trkpt>
      <trkpt lat="48.00789" lon="6.9746">
        <ele>1189.3</ele>
        <time>2023-05-20T08:22:23Z</time>
      </trkpt>
      <trkpt lat="48.00793" lon="6.97441">
        <ele>1189.2</ele>
        <time>2023-05-20T08:22:32Z</time>
      </trkpt>
      <trkpt lat="48.00793" lon="6.97406">
        <ele>1185.8</ele>
        <time>2023-05-20T08:22:51Z</time>
      </trkpt>
      <trkpt lat="48.00795" lon="6.97384">
        <ele>1184.4</ele>
        <time>2023-05-20T08:23:03Z</time>
      </trkpt>
      <trkpt lat="48.00795" lon="6.9737">
        <ele>1183.7</ele>
        <time>2023-05-20T08:23:11Z</time>
      </trkpt>
      <trkpt lat="48.00795" lon="6.97362">
        <ele>1183.4</ele>
        <time>2023-05-20T08:23:14Z</time>
      </trkpt>
      <trkpt lat="48.00806" lon="6.97317">
        <ele>1180.9</ele>
        <time>2023-05-20T08:23:39Z</time>
      </trkpt>
      <trkpt lat="48.00801" lon="6.97317">
        <ele>1179.9</ele>
        <time>2023-05-20T08:23:47Z</time>
      </trkpt>
      <trkpt lat="48.00798" lon="6.9732">
        <ele>1179.5</ele>
        <time>2023-05-20T08:23:52Z</time>
      </trkpt>
      <trkpt lat="48.0079" lon="6.97314">
        <ele>1177.6</ele>
        <time>2023-05-20T08:24:01Z</time>
      </trkpt>
      <trkpt lat="48.00785" lon="6.97312">
        <ele>1176.6</ele>
        <time>2023-05-20T08:24:05Z</time>
      </trkpt>
      <trkpt lat="48.00782" lon="6.973">
        <ele>1174.9</ele>
        <time>2023-05-20T08:24:13Z</time>
      </trkpt>
      <trkpt lat="48.00766" lon="6.97258">
        <ele>1165.8</ele>
        <time>2023-05-20T08:24:45Z</time>
      </trkpt>
      <trkpt lat="48.00763" lon="6.97251">
        <ele>1164.9</ele>
        <time>2023-05-20T08:24:48Z</time>
      </trkpt>
      <trkpt lat="48.00759" lon="6.97247">
        <ele>1164</ele>
        <time>2023-05-20T08:24:51Z</time>
      </trkpt>
      <trkpt lat="48.00755" lon="6.97245">
        <ele>1163.3</ele>
        <time>2023-05-20T08:24:55Z</time>
      </trkpt>
      <trkpt lat="48.00752" lon="6.9724">
        <ele>1162.5</ele>
        <time>2023-05-20T08:24:59Z</time>
      </trkpt>
      <trkpt lat="48.00745" lon="6.97211">
        <ele>1159</ele>
        <time>2023-05-20T08:25:20Z</time>
      </trkpt>
      <trkpt lat="48.00744" lon="6.97204">
        <ele>1158</ele>
        <time>2023-05-20T08:25:24Z</time>
      </trkpt>
      <trkpt lat="48.00746" lon="6.97197">
        <ele>1157.2</ele>
        <time>2023-05-20T08:25:29Z</time>
      </trkpt>
      <trkpt lat="48.00747" lon="6.97189">
        <ele>1156.3</ele>
        <time>2023-05-20T08:25:32Z</time>
      </trkpt>
      <trkpt lat="48.00742" lon="6.97175">
        <ele>1154.2</ele>
        <time>2023-05-20T08:25:42Z</time>
      </trkpt>
      <trkpt lat="48.00739" lon="6.97168">
        <ele>1153</ele>
        <time>2023-05-20T08:25:47Z</time>
      </trkpt>
      <trkpt lat="48.00728" lon="6.97156">
        <ele>1151.3</ele>
        <time>2023-05-20T08:26:00Z</time>
      </trkpt>
      <trkpt lat="48.00723" lon="6.97155">
        <ele>1151</ele>
        <time>2023-05-20T08:26:03Z</time>
      </trkpt>
      <trkpt lat="48.0072" lon="6.97151">
        <ele>1150.7</ele>
        <time>2023-05-20T08:26:06Z</time>
      </trkpt>
      <trkpt lat="48.00711" lon="6.97136">
        <ele>1148.7</ele>
        <time>2023-05-20T08:26:16Z</time>
      </trkpt>
      <trkpt lat="48.00692" lon="6.97102">
        <ele>1144.8</ele>
        <time>2023-05-20T08:26:43Z</time>
      </trkpt>
      <trkpt lat="48.0069" lon="6.97097">
        <ele>1144.2</ele>
        <time>2023-05-20T08:26:48Z</time>
      </trkpt>
      <trkpt lat="48.00686" lon="6.97094">
        <ele>1143.6</ele>
        <time>2023-05-20T08:26:53Z</time>
      </trkpt>
      <trkpt lat="48.00685" lon="6.97088">
        <ele>1143</ele>
        <time>2023-05-20T08:26:56Z</time>
      </trkpt>
      <trkpt lat="48.00682" lon="6.97083">
        <ele>1142.5</ele>
        <time>2023-05-20T08:27:00Z</time>
      </trkpt>
      <trkpt lat="48.00675" lon="6.97071">
        <ele>1141.3</ele>
        <time>2023-05-20T08:27:09Z</time>
      </trkpt>
      <trkpt lat="48.00673" lon="6.97065">
        <ele>1140.8</ele>
        <time>2023-05-20T08:27:13Z</time>
      </trkpt>
      <trkpt lat="48.00655" lon="6.97038">
        <ele>1137.3</ele>
        <time>2023-05-20T08:27:37Z</time>
      </trkpt>
      <trkpt lat="48.0065" lon="6.97022">
        <ele>1135.4</ele>
        <time>2023-05-20T08:27:49Z</time>
      </trkpt>
      <trkpt lat="48.00646" lon="6.96993">
        <ele>1131.1</ele>
        <time>2023-05-20T08:28:10Z</time>
      </trkpt>
      <trkpt lat="48.00646" lon="6.96985">
        <ele>1129.8</ele>
        <time>2023-05-20T08:28:14Z</time>
      </trkpt>
      <trkpt lat="48.00642" lon="6.96973">
        <ele>1128</ele>
        <time>2023-05-20T08:28:20Z</time>
      </trkpt>
      <trkpt lat="48.00639" lon="6.96968">
        <ele>1127.4</ele>
        <time>2023-05-20T08:28:24Z</time>
      </trkpt>
      <trkpt lat="48.00638" lon="6.9696">
        <ele>1126.1</ele>
        <time>2023-05-20T08:28:29Z</time>
      </trkpt>
      <trkpt lat="48.00634" lon="6.96953">
        <ele>1124.3</ele>
        <time>2023-05-20T08:28:37Z</time>
      </trkpt>
      <trkpt lat="48.00633" lon="6.9693">
        <ele>1120.3</ele>
        <time>2023-05-20T08:28:50Z</time>
      </trkpt>
      <trkpt lat="48.0063" lon="6.96924">
        <ele>1118.9</ele>
        <time>2023-05-20T08:28:54Z</time>
      </trkpt>
      <trkpt lat="48.00628" lon="6.96914">
        <ele>1117.1</ele>
        <time>2023-05-20T08:29:02Z</time>
      </trkpt>
      <trkpt lat="48.00628" lon="6.96906">
        <ele>1116.2</ele>
        <time>2023-05-20T08:29:06Z</time>
      </trkpt>
      <trkpt lat="48.00625" lon="6.969">
        <ele>1115.2</ele>
        <time>2023-05-20T08:29:10Z</time>
      </trkpt>
      <trkpt lat="48.00611" lon="6.96885">
        <ele>1112</ele>
        <time>2023-05-20T08:29:33Z</time>
      </trkpt>
      <trkpt lat="48.00607" lon="6.96895">
        <ele>1111.6</ele>
        <time>2023-05-20T08:29:45Z</time>
      </trkpt>
      <trkpt lat="48.00604" lon="6.9691">
        <ele>1110.9</ele>
        <time>2023-05-20T08:29:55Z</time>
      </trkpt>
      <trkpt lat="48.00602" lon="6.96916">
        <ele>1110.1</ele>
        <time>2023-05-20T08:29:59Z</time>
      </trkpt>
      <trkpt lat="48.006" lon="6.96924">
        <ele>1109.9</ele>
        <time>2023-05-20T08:30:03Z</time>
      </trkpt>
      <trkpt lat="48.00597" lon="6.9693">
        <ele>1109.1</ele>
        <time>2023-05-20T08:30:07Z</time>
      </trkpt>
      <trkpt lat="48.00589" lon="6.96938">
        <ele>1106</ele>
        <time>2023-05-20T08:30:16Z</time>
      </trkpt>
      <trkpt lat="48.00581" lon="6.96954">
        <ele>1105.7</ele>
        <time>2023-05-20T08:30:27Z</time>
      </trkpt>
      <trkpt lat="48.00577" lon="6.96948">
        <ele>1101.5</ele>
        <time>2023-05-20T08:30:35Z</time>
      </trkpt>
      <trkpt lat="48.00577" lon="6.96941">
        <ele>1099.9</ele>
        <time>2023-05-20T08:30:38Z</time>
      </trkpt>
      <trkpt lat="48.00575" lon="6.96933">
        <ele>1097.6</ele>
        <time>2023-05-20T08:30:42Z</time>
      </trkpt>
      <trkpt lat="48.00578" lon="6.96919">
        <ele>1097.3</ele>
        <time>2023-05-20T08:30:50Z</time>
      </trkpt>
      <trkpt lat="48.00575" lon="6.96904">
        <ele>1096.2</ele>
        <time>2023-05-20T08:30:58Z</time>
      </trkpt>
      <trkpt lat="48.00573" lon="6.96911">
        <ele>1094.6</ele>
        <time>2023-05-20T08:31:05Z</time>
      </trkpt>
      <trkpt lat="48.00574" lon="6.9692">
        <ele>1095.1</ele>
        <time>2023-05-20T08:31:09Z</time>
      </trkpt>
      <trkpt lat="48.0057" lon="6.96933">
        <ele>1094.7</ele>
        <time>2023-05-20T08:31:16Z</time>
      </trkpt>
      <trkpt lat="48.00566" lon="6.96942">
        <ele>1093.7</ele>
        <time>2023-05-20T08:31:23Z</time>
      </trkpt>
      <trkpt lat="48.00559" lon="6.96946">
        <ele>1090.4</ele>
        <time>2023-05-20T08:31:29Z</time>
      </trkpt>
      <trkpt lat="48.00557" lon="6.96941">
        <ele>1088.3</ele>
        <time>2023-05-20T08:31:33Z</time>
      </trkpt>
      <trkpt lat="48.00559" lon="6.96914">
        <ele>1086.4</ele>
        <time>2023-05-20T08:31:46Z</time>
      </trkpt>
      <trkpt lat="48.00554" lon="6.9692">
        <ele>1083.6</ele>
        <time>2023-05-20T08:31:53Z</time>
      </trkpt>
      <trkpt lat="48.00551" lon="6.96934">
        <ele>1083.7</ele>
        <time>2023-05-20T08:31:59Z</time>
      </trkpt>
      <trkpt lat="48.00548" lon="6.9694">
        <ele>1082.6</ele>
        <time>2023-05-20T08:32:04Z</time>
      </trkpt>
      <trkpt lat="48.00545" lon="6.96933">
        <ele>1080</ele>
        <time>2023-05-20T08:32:07Z</time>
      </trkpt>
      <trkpt lat="48.00541" lon="6.9692">
        <ele>1076.4</ele>
        <time>2023-05-20T08:32:13Z</time>
      </trkpt>
      <trkpt lat="48.00539" lon="6.96929">
        <ele>1076</ele>
        <time>2023-05-20T08:32:22Z</time>
      </trkpt>
      <trkpt lat="48.00539" lon="6.96938">
        <ele>1076.8</ele>
        <time>2023-05-20T08:32:27Z</time>
      </trkpt>
      <trkpt lat="48.00537" lon="6.96945">
        <ele>1076.1</ele>
        <time>2023-05-20T08:32:30Z</time>
      </trkpt>
      <trkpt lat="48.00531" lon="6.96954">
        <ele>1074.5</ele>
        <time>2023-05-20T08:32:37Z</time>
      </trkpt>
      <trkpt lat="48.00526" lon="6.96949">
        <ele>1069.9</ele>
        <time>2023-05-20T08:32:43Z</time>
      </trkpt>
      <trkpt lat="48.00526" lon="6.96942">
        <ele>1068.6</ele>
        <time>2023-05-20T08:32:46Z</time>
      </trkpt>
      <trkpt lat="48.00525" lon="6.96935">
        <ele>1067.7</ele>
        <time>2023-05-20T08:32:49Z</time>
      </trkpt>
      <trkpt lat="48.00518" lon="6.96917">
        <ele>1062.3</ele>
        <time>2023-05-20T08:33:00Z</time>
      </trkpt>
      <trkpt lat="48.00518" lon="6.96908">
        <ele>1063</ele>
        <time>2023-05-20T08:33:07Z</time>
      </trkpt>
      <trkpt lat="48.00516" lon="6.96911">
        <ele>1061.4</ele>
        <time>2023-05-20T08:33:26Z</time>
      </trkpt>
      <trkpt lat="48.00516" lon="6.96918">
        <ele>1061</ele>
        <time>2023-05-20T08:33:29Z</time>
      </trkpt>
      <trkpt lat="48.00515" lon="6.96925">
        <ele>1060.4</ele>
        <time>2023-05-20T08:33:34Z</time>
      </trkpt>
      <trkpt lat="48.00511" lon="6.96918">
        <ele>1057.5</ele>
        <time>2023-05-20T08:33:42Z</time>
      </trkpt>
      <trkpt lat="48.00509" lon="6.96912">
        <ele>1056.6</ele>
        <time>2023-05-20T08:33:46Z</time>
      </trkpt>
      <trkpt lat="48.00505" lon="6.96906">
        <ele>1054.5</ele>
        <time>2023-05-20T08:33:51Z</time>
      </trkpt>
      <trkpt lat="48.00502" lon="6.96902">
        <ele>1052.9</ele>
        <time>2023-05-20T08:33:55Z</time>
      </trkpt>
      <trkpt lat="48.00494" lon="6.96889">
        <ele>1049.1</ele>
        <time>2023-05-20T08:34:05Z</time>
      </trkpt>
      <trkpt lat="48.00492" lon="6.96881">
        <ele>1048.6</ele>
        <time>2023-05-20T08:34:09Z</time>
      </trkpt>
      <trkpt lat="48.00485" lon="6.96871">
        <ele>1045.6</ele>
        <time>2023-05-20T08:34:18Z</time>
      </trkpt>
      <trkpt lat="48.00485" lon="6.96865">
        <ele>1046.4</ele>
        <time>2023-05-20T08:34:22Z</time>
      </trkpt>
      <trkpt lat="48.00482" lon="6.96861">
        <ele>1045.3</ele>
        <time>2023-05-20T08:34:31Z</time>
      </trkpt>
      <trkpt lat="48.00476" lon="6.9685">
        <ele>1042.2</ele>
        <time>2023-05-20T08:34:39Z</time>
      </trkpt>
      <trkpt lat="48.00474" lon="6.96844">
        <ele>1041.4</ele>
        <time>2023-05-20T08:34:43Z</time>
      </trkpt>
      <trkpt lat="48.00472" lon="6.9683">
        <ele>1040.6</ele>
        <time>2023-05-20T08:34:53Z</time>
      </trkpt>
      <trkpt lat="48.00468" lon="6.96826">
        <ele>1038.9</ele>
        <time>2023-05-20T08:35:03Z</time>
      </trkpt>
      <trkpt lat="48.00464" lon="6.96831">
        <ele>1037.9</ele>
        <time>2023-05-20T08:35:07Z</time>
      </trkpt>
      <trkpt lat="48.00457" lon="6.96836">
        <ele>1035.4</ele>
        <time>2023-05-20T08:35:17Z</time>
      </trkpt>
      <trkpt lat="48.00454" lon="6.9683">
        <ele>1034.5</ele>
        <time>2023-05-20T08:35:21Z</time>
      </trkpt>
      <trkpt lat="48.00452" lon="6.96824">
        <ele>1033.9</ele>
        <time>2023-05-20T08:35:25Z</time>
      </trkpt>
      <trkpt lat="48.00448" lon="6.9682">
        <ele>1032.9</ele>
        <time>2023-05-20T08:35:29Z</time>
      </trkpt>
      <trkpt lat="48.00444" lon="6.9682">
        <ele>1031.9</ele>
        <time>2023-05-20T08:35:33Z</time>
      </trkpt>
      <trkpt lat="48.00439" lon="6.96823">
        <ele>1030.5</ele>
        <time>2023-05-20T08:35:38Z</time>
      </trkpt>
      <trkpt lat="48.00435" lon="6.96821">
        <ele>1029.9</ele>
        <time>2023-05-20T08:35:43Z</time>
      </trkpt>
      <trkpt lat="48.0043" lon="6.96822">
        <ele>1028.7</ele>
        <time>2023-05-20T08:35:48Z</time>
      </trkpt>
      <trkpt lat="48.00417" lon="6.96815">
        <ele>1027.7</ele>
        <time>2023-05-20T08:36:01Z</time>
      </trkpt>
      <trkpt lat="48.00413" lon="6.96805">
        <ele>1028.9</ele>
        <time>2023-05-20T08:36:10Z</time>
      </trkpt>
      <trkpt lat="48.00412" lon="6.96799">
        <ele>1028.2</ele>
        <time>2023-05-20T08:36:14Z</time>
      </trkpt>
      <trkpt lat="48.00414" lon="6.96791">
        <ele>1028</ele>
        <time>2023-05-20T08:36:18Z</time>
      </trkpt>
      <trkpt lat="48.00413" lon="6.96785">
        <ele>1027.3</ele>
        <time>2023-05-20T08:36:22Z</time>
      </trkpt>
      <trkpt lat="48.00408" lon="6.96768">
        <ele>1025.8</ele>
        <time>2023-05-20T08:36:34Z</time>
      </trkpt>
      <trkpt lat="48.00405" lon="6.96763">
        <ele>1025.3</ele>
        <time>2023-05-20T08:36:36Z</time>
      </trkpt>
      <trkpt lat="48.00397" lon="6.96754">
        <ele>1024.5</ele>
        <time>2023-05-20T08:36:43Z</time>
      </trkpt>
      <trkpt lat="48.00393" lon="6.96753">
        <ele>1024.3</ele>
        <time>2023-05-20T08:36:47Z</time>
      </trkpt>
      <trkpt lat="48.00386" lon="6.96743">
        <ele>1023.4</ele>
        <time>2023-05-20T08:36:54Z</time>
      </trkpt>
      <trkpt lat="48.00384" lon="6.96737">
        <ele>1023</ele>
        <time>2023-05-20T08:37:14Z</time>
      </trkpt>
      <trkpt lat="48.00381" lon="6.96718">
        <ele>1022.2</ele>
        <time>2023-05-20T08:37:30Z</time>
      </trkpt>
      <trkpt lat="48.00378" lon="6.96712">
        <ele>1021.6</ele>
        <time>2023-05-20T08:37:35Z</time>
      </trkpt>
      <trkpt lat="48.00376" lon="6.96702">
        <ele>1021</ele>
        <time>2023-05-20T08:37:42Z</time>
      </trkpt>
      <trkpt lat="48.00373" lon="6.96696">
        <ele>1020.5</ele>
        <time>2023-05-20T08:37:45Z</time>
      </trkpt>
      <trkpt lat="48.0037" lon="6.96683">
        <ele>1020.6</ele>
        <time>2023-05-20T08:37:53Z</time>
      </trkpt>
      <trkpt lat="48.00367" lon="6.96676">
        <ele>1021</ele>
        <time>2023-05-20T08:38:01Z</time>
      </trkpt>
      <trkpt lat="48.00366" lon="6.96669">
        <ele>1021.4</ele>
        <time>2023-05-20T08:38:05Z</time>
      </trkpt>
      <trkpt lat="48.0036" lon="6.96651">
        <ele>1022</ele>
        <time>2023-05-20T08:38:16Z</time>
      </trkpt>
      <trkpt lat="48.00353" lon="6.96642">
        <ele>1022.5</ele>
        <time>2023-05-20T08:38:24Z</time>
      </trkpt>
      <trkpt lat="48.00347" lon="6.9663">
        <ele>1023.8</ele>
        <time>2023-05-20T08:38:32Z</time>
      </trkpt>
      <trkpt lat="48.00346" lon="6.96609">
        <ele>1025.8</ele>
        <time>2023-05-20T08:38:43Z</time>
      </trkpt>
      <trkpt lat="48.00344" lon="6.96602">
        <ele>1026.4</ele>
        <time>2023-05-20T08:38:50Z</time>
      </trkpt>
      <trkpt lat="48.00344" lon="6.96594">
        <ele>1026.5</ele>
        <time>2023-05-20T08:38:53Z</time>
      </trkpt>
      <trkpt lat="48.00341" lon="6.96589">
        <ele>1027.4</ele>
        <time>2023-05-20T08:38:57Z</time>
      </trkpt>
      <trkpt lat="48.00337" lon="6.96581">
        <ele>1028.5</ele>
        <time>2023-05-20T08:39:05Z</time>
      </trkpt>
      <trkpt lat="48.00332" lon="6.96582">
        <ele>1030.1</ele>
        <time>2023-05-20T08:39:09Z</time>
      </trkpt>
      <trkpt lat="48.00328" lon="6.96574">
        <ele>1030.1</ele>
        <time>2023-05-20T08:39:12Z</time>
      </trkpt>
      <trkpt lat="48.0033" lon="6.96568">
        <ele>1029.1</ele>
        <time>2023-05-20T08:39:14Z</time>
      </trkpt>
      <trkpt lat="48.00324" lon="6.96564">
        <ele>1030.3</ele>
        <time>2023-05-20T08:39:20Z</time>
      </trkpt>
      <trkpt lat="48.00314" lon="6.96553">
        <ele>1032.4</ele>
        <time>2023-05-20T08:39:31Z</time>
      </trkpt>
      <trkpt lat="48.00309" lon="6.96556">
        <ele>1034</ele>
        <time>2023-05-20T08:39:39Z</time>
      </trkpt>
      <trkpt lat="48.00303" lon="6.96554">
        <ele>1035.4</ele>
        <time>2023-05-20T08:39:49Z</time>
      </trkpt>
      <trkpt lat="48.00301" lon="6.96547">
        <ele>1035.7</ele>
        <time>2023-05-20T08:39:52Z</time>
      </trkpt>
      <trkpt lat="48.00295" lon="6.96544">
        <ele>1037</ele>
        <time>2023-05-20T08:40:02Z</time>
      </trkpt>
      <trkpt lat="48.00276" lon="6.96523">
        <ele>1042.3</ele>
        <time>2023-05-20T08:40:29Z</time>
      </trkpt>
      <trkpt lat="48.00276" lon="6.96516">
        <ele>1042.3</ele>
        <time>2023-05-20T08:40:34Z</time>
      </trkpt>
      <trkpt lat="48.0026" lon="6.96496">
        <ele>1046.2</ele>
        <time>2023-05-20T08:41:00Z</time>
      </trkpt>
      <trkpt lat="48.00254" lon="6.96492">
        <ele>1047.5</ele>
        <time>2023-05-20T08:41:07Z</time>
      </trkpt>
      <trkpt lat="48.00252" lon="6.9648">
        <ele>1047.1</ele>
        <time>2023-05-20T08:41:15Z</time>
      </trkpt>
      <trkpt lat="48.00245" lon="6.96469">
        <ele>1047.6</ele>
        <time>2023-05-20T08:41:26Z</time>
      </trkpt>
      <trkpt lat="48.00242" lon="6.96465">
        <ele>1048</ele>
        <time>2023-05-20T08:41:31Z</time>
      </trkpt>
      <trkpt lat="48.00237" lon="6.96464">
        <ele>1048.7</ele>
        <time>2023-05-20T08:41:36Z</time>
      </trkpt>
      <trkpt lat="48.00231" lon="6.96456">
        <ele>1049.9</ele>
        <time>2023-05-20T08:41:45Z</time>
      </trkpt>
      <trkpt lat="48.00213" lon="6.96457">
        <ele>1051.1</ele>
        <time>2023-05-20T08:42:00Z</time>
      </trkpt>
      <trkpt lat="48.00209" lon="6.96456">
        <ele>1051.2</ele>
        <time>2023-05-20T08:42:05Z</time>
      </trkpt>
      <trkpt lat="48.00198" lon="6.96456">
        <ele>1051.3</ele>
        <time>2023-05-20T08:42:14Z</time>
      </trkpt>
      <trkpt lat="48.00192" lon="6.96447">
        <ele>1052.7</ele>
        <time>2023-05-20T08:42:21Z</time>
      </trkpt>
      <trkpt lat="48.0018" lon="6.96435">
        <ele>1054.5</ele>
        <time>2023-05-20T08:42:30Z</time>
      </trkpt>
      <trkpt lat="48.00169" lon="6.96432">
        <ele>1055.3</ele>
        <time>2023-05-20T08:42:40Z</time>
      </trkpt>
      <trkpt lat="48.00166" lon="6.96438">
        <ele>1054.7</ele>
        <time>2023-05-20T08:42:45Z</time>
      </trkpt>
      <trkpt lat="48.0016" lon="6.96439">
        <ele>1054.2</ele>
        <time>2023-05-20T08:42:49Z</time>
      </trkpt>
      <trkpt lat="48.00155" lon="6.96437">
        <ele>1054.2</ele>
        <time>2023-05-20T08:42:53Z</time>
      </trkpt>
      <trkpt lat="48.00149" lon="6.96434">
        <ele>1054.7</ele>
        <time>2023-05-20T08:42:58Z</time>
      </trkpt>
      <trkpt lat="48.00144" lon="6.96436">
        <ele>1054</ele>
        <time>2023-05-20T08:43:03Z</time>
      </trkpt>
      <trkpt lat="48.00127" lon="6.96438">
        <ele>1052.7</ele>
        <time>2023-05-20T08:43:16Z</time>
      </trkpt>
      <trkpt lat="48.00123" lon="6.96436">
        <ele>1053.2</ele>
        <time>2023-05-20T08:43:20Z</time>
      </trkpt>
      <trkpt lat="48.00119" lon="6.9644">
        <ele>1051.7</ele>
        <time>2023-05-20T08:43:30Z</time>
      </trkpt>
      <trkpt lat="48.00114" lon="6.9644">
        <ele>1051.5</ele>
        <time>2023-05-20T08:43:36Z</time>
      </trkpt>
      <trkpt lat="48.00109" lon="6.96438">
        <ele>1051.9</ele>
        <time>2023-05-20T08:43:40Z</time>
      </trkpt>
      <trkpt lat="48.00104" lon="6.9644">
        <ele>1050.9</ele>
        <time>2023-05-20T08:43:43Z</time>
      </trkpt>
      <trkpt lat="48.00086" lon="6.96443">
        <ele>1048.6</ele>
        <time>2023-05-20T08:43:58Z</time>
      </trkpt>
      <trkpt lat="48.00067" lon="6.96441">
        <ele>1047.4</ele>
        <time>2023-05-20T08:44:15Z</time>
      </trkpt>
      <trkpt lat="48.00054" lon="6.96443">
        <ele>1045.5</ele>
        <time>2023-05-20T08:44:26Z</time>
      </trkpt>
      <trkpt lat="48.00049" lon="6.96442">
        <ele>1045.9</ele>
        <time>2023-05-20T08:44:29Z</time>
      </trkpt>
      <trkpt lat="48.00045" lon="6.96443">
        <ele>1045.5</ele>
        <time>2023-05-20T08:44:33Z</time>
      </trkpt>
      <trkpt lat="48.0004" lon="6.9644">
        <ele>1046.6</ele>
        <time>2023-05-20T08:44:37Z</time>
      </trkpt>
      <trkpt lat="48.0002" lon="6.96426">
        <ele>1050.8</ele>
        <time>2023-05-20T08:44:54Z</time>
      </trkpt>
      <trkpt lat="48.00016" lon="6.96426">
        <ele>1050.4</ele>
        <time>2023-05-20T08:44:58Z</time>
      </trkpt>
      <trkpt lat="47.99999" lon="6.96415">
        <ele>1052.4</ele>
        <time>2023-05-20T08:45:13Z</time>
      </trkpt>
      <trkpt lat="47.99994" lon="6.96413">
        <ele>1052.1</ele>
        <time>2023-05-20T08:45:17Z</time>
      </trkpt>
      <trkpt lat="47.99985" lon="6.96404">
        <ele>1053.6</ele>
        <time>2023-05-20T08:45:26Z</time>
      </trkpt>
      <trkpt lat="47.99979" lon="6.96402">
        <ele>1053.1</ele>
        <time>2023-05-20T08:45:32Z</time>
      </trkpt>
      <trkpt lat="47.99974" lon="6.96398">
        <ele>1053.7</ele>
        <time>2023-05-20T08:45:35Z</time>
      </trkpt>
      <trkpt lat="47.99972" lon="6.96392">
        <ele>1055.7</ele>
        <time>2023-05-20T08:45:39Z</time>
      </trkpt>
      <trkpt lat="47.99967" lon="6.96387">
        <ele>1056.6</ele>
        <time>2023-05-20T08:45:48Z</time>
      </trkpt>
      <trkpt lat="47.99961" lon="6.96386">
        <ele>1055.7</ele>
        <time>2023-05-20T08:45:51Z</time>
      </trkpt>
      <trkpt lat="47.99956" lon="6.96385">
        <ele>1055</ele>
        <time>2023-05-20T08:45:55Z</time>
      </trkpt>
      <trkpt lat="47.99952" lon="6.9638">
        <ele>1056.2</ele>
        <time>2023-05-20T08:46:00Z</time>
      </trkpt>
      <trkpt lat="47.99939" lon="6.96362">
        <ele>1060.7</ele>
        <time>2023-05-20T08:46:18Z</time>
      </trkpt>
      <trkpt lat="47.99936" lon="6.96352">
        <ele>1064</ele>
        <time>2023-05-20T08:46:24Z</time>
      </trkpt>
      <trkpt lat="47.99928" lon="6.96345">
        <ele>1065.1</ele>
        <time>2023-05-20T08:46:30Z</time>
      </trkpt>
      <trkpt lat="47.9992" lon="6.9634">
        <ele>1065.3</ele>
        <time>2023-05-20T08:46:37Z</time>
      </trkpt>
      <trkpt lat="47.99916" lon="6.96338">
        <ele>1065.2</ele>
        <time>2023-05-20T08:46:39Z</time>
      </trkpt>
      <trkpt lat="47.99904" lon="6.96334">
        <ele>1064.9</ele>
        <time>2023-05-20T08:46:52Z</time>
      </trkpt>
      <trkpt lat="47.99899" lon="6.96329">
        <ele>1066.4</ele>
        <time>2023-05-20T08:46:55Z</time>
      </trkpt>
      <trkpt lat="47.99892" lon="6.96324">
        <ele>1067.5</ele>
        <time>2023-05-20T08:47:05Z</time>
      </trkpt>
      <trkpt lat="47.99888" lon="6.9632">
        <ele>1068.6</ele>
        <time>2023-05-20T08:47:08Z</time>
      </trkpt>
      <trkpt lat="47.99879" lon="6.96317">
        <ele>1068</ele>
        <time>2023-05-20T08:47:18Z</time>
      </trkpt>
      <trkpt lat="47.99873" lon="6.96309">
        <ele>1070.5</ele>
        <time>2023-05-20T08:47:28Z</time>
      </trkpt>
      <trkpt lat="47.99869" lon="6.96303">
        <ele>1072.8</ele>
        <time>2023-05-20T08:47:31Z</time>
      </trkpt>
      <trkpt lat="47.99862" lon="6.96307">
        <ele>1069.4</ele>
        <time>2023-05-20T08:47:39Z</time>
      </trkpt>
      <trkpt lat="47.99853" lon="6.96307">
        <ele>1068.1</ele>
        <time>2023-05-20T08:47:44Z</time>
      </trkpt>
      <trkpt lat="47.99848" lon="6.96302">
        <ele>1070</ele>
        <time>2023-05-20T08:47:46Z</time>
      </trkpt>
      <trkpt lat="47.99843" lon="6.96293">
        <ele>1073.9</ele>
        <time>2023-05-20T08:47:56Z</time>
      </trkpt>
      <trkpt lat="47.99837" lon="6.96293">
        <ele>1072.9</ele>
        <time>2023-05-20T08:48:00Z</time>
      </trkpt>
      <trkpt lat="47.99825" lon="6.96284">
        <ele>1076.6</ele>
        <time>2023-05-20T08:48:12Z</time>
      </trkpt>
      <trkpt lat="47.99821" lon="6.96284">
        <ele>1076.5</ele>
        <time>2023-05-20T08:48:17Z</time>
      </trkpt>
      <trkpt lat="47.99814" lon="6.96281">
        <ele>1077.8</ele>
        <time>2023-05-20T08:48:27Z</time>
      </trkpt>
      <trkpt lat="47.99808" lon="6.96281">
        <ele>1077.6</ele>
        <time>2023-05-20T08:48:33Z</time>
      </trkpt>
      <trkpt lat="47.99804" lon="6.9628">
        <ele>1077.7</ele>
        <time>2023-05-20T08:48:37Z</time>
      </trkpt>
      <trkpt lat="47.99798" lon="6.96273">
        <ele>1079.2</ele>
        <time>2023-05-20T08:48:46Z</time>
      </trkpt>
      <trkpt lat="47.99794" lon="6.9627">
        <ele>1079.5</ele>
        <time>2023-05-20T08:48:52Z</time>
      </trkpt>
      <trkpt lat="47.99789" lon="6.96268">
        <ele>1079.2</ele>
        <time>2023-05-20T08:48:56Z</time>
      </trkpt>
      <trkpt lat="47.99785" lon="6.96263">
        <ele>1079.9</ele>
        <time>2023-05-20T08:49:00Z</time>
      </trkpt>
      <trkpt lat="47.99771" lon="6.96245">
        <ele>1080.9</ele>
        <time>2023-05-20T08:49:12Z</time>
      </trkpt>
      <trkpt lat="47.99772" lon="6.96237">
        <ele>1081.9</ele>
        <time>2023-05-20T08:49:15Z</time>
      </trkpt>
      <trkpt lat="47.9977" lon="6.96232">
        <ele>1081.7</ele>
        <time>2023-05-20T08:49:19Z</time>
      </trkpt>
      <trkpt lat="47.9977" lon="6.96222">
        <ele>1082.5</ele>
        <time>2023-05-20T08:49:25Z</time>
      </trkpt>
      <trkpt lat="47.99769" lon="6.96213">
        <ele>1081.7</ele>
        <time>2023-05-20T08:49:29Z</time>
      </trkpt>
      <trkpt lat="47.99772" lon="6.96205">
        <ele>1082.6</ele>
        <time>2023-05-20T08:49:36Z</time>
      </trkpt>
      <trkpt lat="47.99776" lon="6.962">
        <ele>1084.2</ele>
        <time>2023-05-20T08:49:40Z</time>
      </trkpt>
      <trkpt lat="47.99778" lon="6.96193">
        <ele>1085.1</ele>
        <time>2023-05-20T08:49:45Z</time>
      </trkpt>
      <trkpt lat="47.99778" lon="6.96185">
        <ele>1085.1</ele>
        <time>2023-05-20T08:49:48Z</time>
      </trkpt>
      <trkpt lat="47.99782" lon="6.96172">
        <ele>1086.5</ele>
        <time>2023-05-20T08:49:56Z</time>
      </trkpt>
      <trkpt lat="47.99781" lon="6.96165">
        <ele>1086.2</ele>
        <time>2023-05-20T08:50:00Z</time>
      </trkpt>
      <trkpt lat="47.99782" lon="6.96158">
        <ele>1086.6</ele>
        <time>2023-05-20T08:50:05Z</time>
      </trkpt>
      <trkpt lat="47.99781" lon="6.96147">
        <ele>1086.3</ele>
        <time>2023-05-20T08:50:12Z</time>
      </trkpt>
      <trkpt lat="47.99781" lon="6.96141">
        <ele>1086.4</ele>
        <time>2023-05-20T08:50:16Z</time>
      </trkpt>
      <trkpt lat="47.99782" lon="6.96133">
        <ele>1087</ele>
        <time>2023-05-20T08:50:21Z</time>
      </trkpt>
      <trkpt lat="47.99781" lon="6.96133">
        <ele>1086.5</ele>
        <time>2023-05-20T08:50:47Z</time>
      </trkpt>
      <trkpt lat="47.9978" lon="6.96133">
        <ele>1086</ele>
        <time>2023-05-20T08:51:45Z</time>
      </trkpt>
      <trkpt lat="47.99789" lon="6.96097">
        <ele>1091.3</ele>
        <time>2023-05-20T08:59:39Z</time>
      </trkpt>
      <trkpt lat="47.99789" lon="6.96096">
        <ele>1091.2</ele>
        <time>2023-05-20T08:59:40Z</time>
      </trkpt>
      <trkpt lat="47.99794" lon="6.96092">
        <ele>1094.4</ele>
        <time>2023-05-20T08:59:46Z</time>
      </trkpt>
      <trkpt lat="47.99799" lon="6.96077">
        <ele>1096.3</ele>
        <time>2023-05-20T09:00:02Z</time>
      </trkpt>
      <trkpt lat="47.99801" lon="6.9607">
        <ele>1096.2</ele>
        <time>2023-05-20T09:00:06Z</time>
      </trkpt>
      <trkpt lat="47.99803" lon="6.96065">
        <ele>1096.4</ele>
        <time>2023-05-20T09:00:10Z</time>
      </trkpt>
      <trkpt lat="47.99808" lon="6.96059">
        <ele>1098</ele>
        <time>2023-05-20T09:00:15Z</time>
      </trkpt>
      <trkpt lat="47.99812" lon="6.96053">
        <ele>1098.6</ele>
        <time>2023-05-20T09:00:19Z</time>
      </trkpt>
      <trkpt lat="47.99816" lon="6.9604">
        <ele>1097.2</ele>
        <time>2023-05-20T09:00:27Z</time>
      </trkpt>
      <trkpt lat="47.99822" lon="6.96035">
        <ele>1099.2</ele>
        <time>2023-05-20T09:00:35Z</time>
      </trkpt>
      <trkpt lat="47.99826" lon="6.96039">
        <ele>1102.4</ele>
        <time>2023-05-20T09:00:41Z</time>
      </trkpt>
      <trkpt lat="47.99832" lon="6.96033">
        <ele>1104.4</ele>
        <time>2023-05-20T09:00:48Z</time>
      </trkpt>
      <trkpt lat="47.99835" lon="6.96027">
        <ele>1104.4</ele>
        <time>2023-05-20T09:00:52Z</time>
      </trkpt>
      <trkpt lat="47.99844" lon="6.96013">
        <ele>1102.8</ele>
        <time>2023-05-20T09:01:05Z</time>
      </trkpt>
      <trkpt lat="47.99851" lon="6.96004">
        <ele>1102.7</ele>
        <time>2023-05-20T09:01:11Z</time>
      </trkpt>
      <trkpt lat="47.99855" lon="6.96">
        <ele>1103.1</ele>
        <time>2023-05-20T09:01:15Z</time>
      </trkpt>
      <trkpt lat="47.9986" lon="6.95997">
        <ele>1104.4</ele>
        <time>2023-05-20T09:01:19Z</time>
      </trkpt>
      <trkpt lat="47.99872" lon="6.95973">
        <ele>1101.7</ele>
        <time>2023-05-20T09:01:35Z</time>
      </trkpt>
      <trkpt lat="47.99879" lon="6.95931">
        <ele>1094.6</ele>
        <time>2023-05-20T09:01:57Z</time>
      </trkpt>
      <trkpt lat="47.99895" lon="6.95902">
        <ele>1092.1</ele>
        <time>2023-05-20T09:02:16Z</time>
      </trkpt>
      <trkpt lat="47.99899" lon="6.95898">
        <ele>1091.6</ele>
        <time>2023-05-20T09:02:19Z</time>
      </trkpt>
      <trkpt lat="47.99904" lon="6.95896">
        <ele>1092.3</ele>
        <time>2023-05-20T09:02:23Z</time>
      </trkpt>
      <trkpt lat="47.99918" lon="6.95883">
        <ele>1090.5</ele>
        <time>2023-05-20T09:02:37Z</time>
      </trkpt>
      <trkpt lat="47.99921" lon="6.95879">
        <ele>1089.4</ele>
        <time>2023-05-20T09:02:40Z</time>
      </trkpt>
      <trkpt lat="47.99935" lon="6.95873">
        <ele>1089.9</ele>
        <time>2023-05-20T09:02:52Z</time>
      </trkpt>
      <trkpt lat="47.99938" lon="6.95868">
        <ele>1088.4</ele>
        <time>2023-05-20T09:02:57Z</time>
      </trkpt>
      <trkpt lat="47.99943" lon="6.95867">
        <ele>1089.2</ele>
        <time>2023-05-20T09:03:01Z</time>
      </trkpt>
      <trkpt lat="47.9995" lon="6.95858">
        <ele>1088.1</ele>
        <time>2023-05-20T09:03:08Z</time>
      </trkpt>
      <trkpt lat="47.99953" lon="6.95852">
        <ele>1087.4</ele>
        <time>2023-05-20T09:03:11Z</time>
      </trkpt>
      <trkpt lat="47.99954" lon="6.95845">
        <ele>1085.6</ele>
        <time>2023-05-20T09:03:14Z</time>
      </trkpt>
      <trkpt lat="47.9996" lon="6.95833">
        <ele>1084.7</ele>
        <time>2023-05-20T09:03:22Z</time>
      </trkpt>
      <trkpt lat="47.99963" lon="6.95827">
        <ele>1084.5</ele>
        <time>2023-05-20T09:03:33Z</time>
      </trkpt>
      <trkpt lat="47.99969" lon="6.9583">
        <ele>1088.4</ele>
        <time>2023-05-20T09:03:37Z</time>
      </trkpt>
      <trkpt lat="47.9997" lon="6.95822">
        <ele>1086.6</ele>
        <time>2023-05-20T09:03:42Z</time>
      </trkpt>
      <trkpt lat="47.99971" lon="6.95814">
        <ele>1084.8</ele>
        <time>2023-05-20T09:03:47Z</time>
      </trkpt>
      <trkpt lat="47.99975" lon="6.95805">
        <ele>1084.2</ele>
        <time>2023-05-20T09:03:54Z</time>
      </trkpt>
      <trkpt lat="47.99984" lon="6.95785">
        <ele>1081.3</ele>
        <time>2023-05-20T09:04:07Z</time>
      </trkpt>
      <trkpt lat="47.99988" lon="6.95782">
        <ele>1081.9</ele>
        <time>2023-05-20T09:04:12Z</time>
      </trkpt>
      <trkpt lat="47.99995" lon="6.95772">
        <ele>1081</ele>
        <time>2023-05-20T09:04:20Z</time>
      </trkpt>
      <trkpt lat="47.99997" lon="6.95764">
        <ele>1078.9</ele>
        <time>2023-05-20T09:04:25Z</time>
      </trkpt>
      <trkpt lat="48.00002" lon="6.95761">
        <ele>1079.7</ele>
        <time>2023-05-20T09:04:29Z</time>
      </trkpt>
      <trkpt lat="48.00011" lon="6.95745">
        <ele>1077</ele>
        <time>2023-05-20T09:04:41Z</time>
      </trkpt>
      <trkpt lat="48.00025" lon="6.95733">
        <ele>1077.3</ele>
        <time>2023-05-20T09:04:51Z</time>
      </trkpt>
      <trkpt lat="48.00031" lon="6.9572">
        <ele>1074.9</ele>
        <time>2023-05-20T09:04:58Z</time>
      </trkpt>
      <trkpt lat="48.00033" lon="6.95703">
        <ele>1071.8</ele>
        <time>2023-05-20T09:05:09Z</time>
      </trkpt>
      <trkpt lat="48.00042" lon="6.95693">
        <ele>1072.8</ele>
        <time>2023-05-20T09:05:18Z</time>
      </trkpt>
      <trkpt lat="48.00051" lon="6.95664">
        <ele>1069.2</ele>
        <time>2023-05-20T09:05:33Z</time>
      </trkpt>
      <trkpt lat="48.00055" lon="6.95659">
        <ele>1069.4</ele>
        <time>2023-05-20T09:05:38Z</time>
      </trkpt>
      <trkpt lat="48.00056" lon="6.95653">
        <ele>1068.7</ele>
        <time>2023-05-20T09:05:41Z</time>
      </trkpt>
      <trkpt lat="48.00059" lon="6.95646">
        <ele>1068.8</ele>
        <time>2023-05-20T09:05:45Z</time>
      </trkpt>
      <trkpt lat="48.0006" lon="6.95637">
        <ele>1068.1</ele>
        <time>2023-05-20T09:05:49Z</time>
      </trkpt>
      <trkpt lat="48.00058" lon="6.95623">
        <ele>1067.2</ele>
        <time>2023-05-20T09:05:58Z</time>
      </trkpt>
      <trkpt lat="48.00056" lon="6.95615">
        <ele>1066.2</ele>
        <time>2023-05-20T09:06:05Z</time>
      </trkpt>
      <trkpt lat="48.00053" lon="6.95608">
        <ele>1065.1</ele>
        <time>2023-05-20T09:06:10Z</time>
      </trkpt>
      <trkpt lat="48.00052" lon="6.95592">
        <ele>1065.4</ele>
        <time>2023-05-20T09:06:22Z</time>
      </trkpt>
      <trkpt lat="48.00049" lon="6.95588">
        <ele>1064.4</ele>
        <time>2023-05-20T09:06:25Z</time>
      </trkpt>
      <trkpt lat="48.00041" lon="6.95578">
        <ele>1062.1</ele>
        <time>2023-05-20T09:06:34Z</time>
      </trkpt>
      <trkpt lat="48.00039" lon="6.95573">
        <ele>1061.6</ele>
        <time>2023-05-20T09:06:37Z</time>
      </trkpt>
      <trkpt lat="48.00037" lon="6.95565">
        <ele>1061.4</ele>
        <time>2023-05-20T09:06:40Z</time>
      </trkpt>
      <trkpt lat="48.00032" lon="6.95551">
        <ele>1060.5</ele>
        <time>2023-05-20T09:06:49Z</time>
      </trkpt>
      <trkpt lat="48.0003" lon="6.95535">
        <ele>1060.4</ele>
        <time>2023-05-20T09:06:57Z</time>
      </trkpt>
      <trkpt lat="48.00027" lon="6.95531">
        <ele>1059.6</ele>
        <time>2023-05-20T09:07:01Z</time>
      </trkpt>
      <trkpt lat="48.00019" lon="6.95525">
        <ele>1056.7</ele>
        <time>2023-05-20T09:07:09Z</time>
      </trkpt>
      <trkpt lat="48.00017" lon="6.95519">
        <ele>1056.1</ele>
        <time>2023-05-20T09:07:11Z</time>
      </trkpt>
      <trkpt lat="48.00006" lon="6.95468">
        <ele>1051.5</ele>
        <time>2023-05-20T09:07:36Z</time>
      </trkpt>
      <trkpt lat="48.00008" lon="6.95447">
        <ele>1052.1</ele>
        <time>2023-05-20T09:07:47Z</time>
      </trkpt>
      <trkpt lat="48.00007" lon="6.95438">
        <ele>1051.5</ele>
        <time>2023-05-20T09:07:51Z</time>
      </trkpt>
      <trkpt lat="48.00007" lon="6.95432">
        <ele>1051.4</ele>
        <time>2023-05-20T09:07:55Z</time>
      </trkpt>
      <trkpt lat="48.00004" lon="6.95421">
        <ele>1049.9</ele>
        <time>2023-05-20T09:08:03Z</time>
      </trkpt>
      <trkpt lat="48" lon="6.95409">
        <ele>1047.4</ele>
        <time>2023-05-20T09:08:09Z</time>
      </trkpt>
      <trkpt lat="48" lon="6.95403">
        <ele>1047</ele>
        <time>2023-05-20T09:08:13Z</time>
      </trkpt>
      <trkpt lat="48.00002" lon="6.95395">
        <ele>1047.5</ele>
        <time>2023-05-20T09:08:17Z</time>
      </trkpt>
      <trkpt lat="48.00002" lon="6.95388">
        <ele>1046.9</ele>
        <time>2023-05-20T09:08:22Z</time>
      </trkpt>
      <trkpt lat="48.00005" lon="6.95379">
        <ele>1047</ele>
        <time>2023-05-20T09:08:25Z</time>
      </trkpt>
      <trkpt lat="48.00004" lon="6.95372">
        <ele>1045.3</ele>
        <time>2023-05-20T09:08:28Z</time>
      </trkpt>
      <trkpt lat="48.00001" lon="6.95366">
        <ele>1042.5</ele>
        <time>2023-05-20T09:08:31Z</time>
      </trkpt>
      <trkpt lat="48.00003" lon="6.9536">
        <ele>1042.7</ele>
        <time>2023-05-20T09:08:35Z</time>
      </trkpt>
      <trkpt lat="48.00006" lon="6.95353">
        <ele>1043.9</ele>
        <time>2023-05-20T09:08:39Z</time>
      </trkpt>
      <trkpt lat="48.00007" lon="6.95345">
        <ele>1043.7</ele>
        <time>2023-05-20T09:08:42Z</time>
      </trkpt>
      <trkpt lat="48.00006" lon="6.95338">
        <ele>1042.5</ele>
        <time>2023-05-20T09:08:45Z</time>
      </trkpt>
      <trkpt lat="48.00008" lon="6.95322">
        <ele>1043</ele>
        <time>2023-05-20T09:08:54Z</time>
      </trkpt>
      <trkpt lat="47.99996" lon="6.95269">
        <ele>1036.1</ele>
        <time>2023-05-20T09:09:28Z</time>
      </trkpt>
      <trkpt lat="47.99995" lon="6.95252">
        <ele>1034.7</ele>
        <time>2023-05-20T09:09:36Z</time>
      </trkpt>
      <trkpt lat="47.9999" lon="6.95228">
        <ele>1030.4</ele>
        <time>2023-05-20T09:09:52Z</time>
      </trkpt>
      <trkpt lat="47.99992" lon="6.95221">
        <ele>1031.4</ele>
        <time>2023-05-20T09:09:55Z</time>
      </trkpt>
      <trkpt lat="47.9999" lon="6.95207">
        <ele>1028.9</ele>
        <time>2023-05-20T09:10:02Z</time>
      </trkpt>
      <trkpt lat="47.99992" lon="6.95199">
        <ele>1029.5</ele>
        <time>2023-05-20T09:10:05Z</time>
      </trkpt>
      <trkpt lat="47.99991" lon="6.95188">
        <ele>1027.6</ele>
        <time>2023-05-20T09:10:11Z</time>
      </trkpt>
      <trkpt lat="47.9999" lon="6.95174">
        <ele>1025</ele>
        <time>2023-05-20T09:10:18Z</time>
      </trkpt>
      <trkpt lat="47.99993" lon="6.95166">
        <ele>1025.4</ele>
        <time>2023-05-20T09:10:20Z</time>
      </trkpt>
      <trkpt lat="47.99992" lon="6.9516">
        <ele>1024.6</ele>
        <time>2023-05-20T09:10:23Z</time>
      </trkpt>
      <trkpt lat="47.99994" lon="6.95152">
        <ele>1025</ele>
        <time>2023-05-20T09:10:28Z</time>
      </trkpt>
      <trkpt lat="47.99995" lon="6.95138">
        <ele>1024.6</ele>
        <time>2023-05-20T09:10:37Z</time>
      </trkpt>
      <trkpt lat="47.99992" lon="6.95131">
        <ele>1022.2</ele>
        <time>2023-05-20T09:10:40Z</time>
      </trkpt>
      <trkpt lat="47.99995" lon="6.95117">
        <ele>1022</ele>
        <time>2023-05-20T09:10:49Z</time>
      </trkpt>
      <trkpt lat="47.99995" lon="6.95108">
        <ele>1021.3</ele>
        <time>2023-05-20T09:10:52Z</time>
      </trkpt>
      <trkpt lat="47.9999" lon="6.9509">
        <ele>1018.9</ele>
        <time>2023-05-20T09:11:04Z</time>
      </trkpt>
      <trkpt lat="47.99988" lon="6.95084">
        <ele>1017.9</ele>
        <time>2023-05-20T09:11:07Z</time>
      </trkpt>
      <trkpt lat="47.99988" lon="6.95077">
        <ele>1018</ele>
        <time>2023-05-20T09:11:11Z</time>
      </trkpt>
      <trkpt lat="47.99988" lon="6.9507">
        <ele>1018</ele>
        <time>2023-05-20T09:11:14Z</time>
      </trkpt>
      <trkpt lat="47.99984" lon="6.95058">
        <ele>1016.7</ele>
        <time>2023-05-20T09:11:20Z</time>
      </trkpt>
      <trkpt lat="47.99986" lon="6.95052">
        <ele>1017</ele>
        <time>2023-05-20T09:11:23Z</time>
      </trkpt>
      <trkpt lat="47.99986" lon="6.95044">
        <ele>1015.8</ele>
        <time>2023-05-20T09:11:30Z</time>
      </trkpt>
      <trkpt lat="47.99988" lon="6.95036">
        <ele>1015.3</ele>
        <time>2023-05-20T09:11:36Z</time>
      </trkpt>
      <trkpt lat="47.99992" lon="6.95021">
        <ele>1013.8</ele>
        <time>2023-05-20T09:11:42Z</time>
      </trkpt>
      <trkpt lat="47.99993" lon="6.95013">
        <ele>1012.3</ele>
        <time>2023-05-20T09:11:46Z</time>
      </trkpt>
      <trkpt lat="47.99994" lon="6.95007">
        <ele>1011.2</ele>
        <time>2023-05-20T09:11:49Z</time>
      </trkpt>
      <trkpt lat="47.99995" lon="6.94998">
        <ele>1009.5</ele>
        <time>2023-05-20T09:11:53Z</time>
      </trkpt>
      <trkpt lat="47.99999" lon="6.94993">
        <ele>1009.6</ele>
        <time>2023-05-20T09:11:57Z</time>
      </trkpt>
      <trkpt lat="48.00003" lon="6.94977">
        <ele>1006.5</ele>
        <time>2023-05-20T09:12:05Z</time>
      </trkpt>
      <trkpt lat="48.00006" lon="6.94973">
        <ele>1006.6</ele>
        <time>2023-05-20T09:12:09Z</time>
      </trkpt>
      <trkpt lat="48.00005" lon="6.94965">
        <ele>1006.5</ele>
        <time>2023-05-20T09:12:14Z</time>
      </trkpt>
      <trkpt lat="48.00009" lon="6.94955">
        <ele>1009</ele>
        <time>2023-05-20T09:12:21Z</time>
      </trkpt>
      <trkpt lat="48" lon="6.94952">
        <ele>1005.5</ele>
        <time>2023-05-20T09:12:38Z</time>
      </trkpt>
      <trkpt lat="47.99995" lon="6.94949">
        <ele>1003.5</ele>
        <time>2023-05-20T09:12:41Z</time>
      </trkpt>
      <trkpt lat="47.99991" lon="6.94942">
        <ele>1001.9</ele>
        <time>2023-05-20T09:12:44Z</time>
      </trkpt>
      <trkpt lat="47.9998" lon="6.94886">
        <ele>996</ele>
        <time>2023-05-20T09:13:17Z</time>
      </trkpt>
      <trkpt lat="47.99979" lon="6.94877">
        <ele>994</ele>
        <time>2023-05-20T09:13:21Z</time>
      </trkpt>
      <trkpt lat="47.99981" lon="6.94866">
        <ele>993.5</ele>
        <time>2023-05-20T09:13:33Z</time>
      </trkpt>
      <trkpt lat="47.9998" lon="6.94853">
        <ele>991.2</ele>
        <time>2023-05-20T09:13:39Z</time>
      </trkpt>
      <trkpt lat="47.99978" lon="6.94847">
        <ele>989.1</ele>
        <time>2023-05-20T09:13:43Z</time>
      </trkpt>
      <trkpt lat="47.99981" lon="6.94835">
        <ele>990.1</ele>
        <time>2023-05-20T09:13:53Z</time>
      </trkpt>
      <trkpt lat="47.99983" lon="6.94828">
        <ele>990.7</ele>
        <time>2023-05-20T09:13:57Z</time>
      </trkpt>
      <trkpt lat="47.99987" lon="6.94822">
        <ele>993.1</ele>
        <time>2023-05-20T09:14:02Z</time>
      </trkpt>
      <trkpt lat="47.99992" lon="6.94803">
        <ele>994.4</ele>
        <time>2023-05-20T09:14:14Z</time>
      </trkpt>
      <trkpt lat="47.99993" lon="6.94794">
        <ele>992.6</ele>
        <time>2023-05-20T09:14:18Z</time>
      </trkpt>
      <trkpt lat="47.99996" lon="6.94786">
        <ele>992.6</ele>
        <time>2023-05-20T09:14:23Z</time>
      </trkpt>
      <trkpt lat="47.99997" lon="6.94779">
        <ele>991.2</ele>
        <time>2023-05-20T09:14:27Z</time>
      </trkpt>
      <trkpt lat="47.99997" lon="6.94769">
        <ele>988.7</ele>
        <time>2023-05-20T09:14:32Z</time>
      </trkpt>
      <trkpt lat="48.00001" lon="6.94753">
        <ele>987.2</ele>
        <time>2023-05-20T09:14:43Z</time>
      </trkpt>
      <trkpt lat="48" lon="6.94745">
        <ele>985.5</ele>
        <time>2023-05-20T09:15:02Z</time>
      </trkpt>
      <trkpt lat="47.99998" lon="6.94739">
        <ele>983.4</ele>
        <time>2023-05-20T09:15:05Z</time>
      </trkpt>
      <trkpt lat="47.99998" lon="6.94732">
        <ele>982.6</ele>
        <time>2023-05-20T09:15:09Z</time>
      </trkpt>
      <trkpt lat="47.99994" lon="6.94718">
        <ele>979</ele>
        <time>2023-05-20T09:15:17Z</time>
      </trkpt>
      <trkpt lat="47.99992" lon="6.94709">
        <ele>978.1</ele>
        <time>2023-05-20T09:15:25Z</time>
      </trkpt>
      <trkpt lat="47.9999" lon="6.94687">
        <ele>976.3</ele>
        <time>2023-05-20T09:15:36Z</time>
      </trkpt>
      <trkpt lat="47.99993" lon="6.94654">
        <ele>971.3</ele>
        <time>2023-05-20T09:15:53Z</time>
      </trkpt>
      <trkpt lat="48" lon="6.94643">
        <ele>971.5</ele>
        <time>2023-05-20T09:16:00Z</time>
      </trkpt>
      <trkpt lat="48.00002" lon="6.94635">
        <ele>968.9</ele>
        <time>2023-05-20T09:16:04Z</time>
      </trkpt>
      <trkpt lat="48.00008" lon="6.94631">
        <ele>968.1</ele>
        <time>2023-05-20T09:16:12Z</time>
      </trkpt>
      <trkpt lat="48.00012" lon="6.94628">
        <ele>967.5</ele>
        <time>2023-05-20T09:16:15Z</time>
      </trkpt>
      <trkpt lat="48.00016" lon="6.94623">
        <ele>965.9</ele>
        <time>2023-05-20T09:16:19Z</time>
      </trkpt>
      <trkpt lat="48.00019" lon="6.94615">
        <ele>963</ele>
        <time>2023-05-20T09:16:26Z</time>
      </trkpt>
      <trkpt lat="48.00026" lon="6.94607">
        <ele>961.1</ele>
        <time>2023-05-20T09:16:33Z</time>
      </trkpt>
      <trkpt lat="48.00018" lon="6.94604">
        <ele>960</ele>
        <time>2023-05-20T09:16:54Z</time>
      </trkpt>
      <trkpt lat="48.00016" lon="6.94595">
        <ele>958.3</ele>
        <time>2023-05-20T09:17:04Z</time>
      </trkpt>
      <trkpt lat="48.00025" lon="6.94578">
        <ele>956.7</ele>
        <time>2023-05-20T09:17:15Z</time>
      </trkpt>
      <trkpt lat="48.00027" lon="6.94572">
        <ele>956.6</ele>
        <time>2023-05-20T09:17:18Z</time>
      </trkpt>
      <trkpt lat="48.00027" lon="6.94555">
        <ele>956.2</ele>
        <time>2023-05-20T09:17:29Z</time>
      </trkpt>
      <trkpt lat="48.00029" lon="6.94558">
        <ele>956.1</ele>
        <time>2023-05-20T09:18:02Z</time>
      </trkpt>
      <trkpt lat="48.00028" lon="6.94557">
        <ele>956.1</ele>
        <time>2023-05-20T09:18:28Z</time>
      </trkpt>
      <trkpt lat="48.00026" lon="6.94563">
        <ele>956.4</ele>
        <time>2023-05-20T09:18:56Z</time>
      </trkpt>
      <trkpt lat="48.00024" lon="6.94569">
        <ele>956.6</ele>
        <time>2023-05-20T09:18:59Z</time>
      </trkpt>
      <trkpt lat="48.00018" lon="6.94565">
        <ele>957</ele>
        <time>2023-05-20T09:19:04Z</time>
      </trkpt>
      <trkpt lat="48.00015" lon="6.94561">
        <ele>957.5</ele>
        <time>2023-05-20T09:19:06Z</time>
      </trkpt>
      <trkpt lat="48.00014" lon="6.94569">
        <ele>957</ele>
        <time>2023-05-20T09:19:12Z</time>
      </trkpt>
      <trkpt lat="48.00008" lon="6.94583">
        <ele>955.6</ele>
        <time>2023-05-20T09:19:19Z</time>
      </trkpt>
      <trkpt lat="48.00004" lon="6.94586">
        <ele>955.8</ele>
        <time>2023-05-20T09:19:22Z</time>
      </trkpt>
      <trkpt lat="47.99991" lon="6.94594">
        <ele>955.7</ele>
        <time>2023-05-20T09:19:34Z</time>
      </trkpt>
      <trkpt lat="47.99986" lon="6.94589">
        <ele>954.8</ele>
        <time>2023-05-20T09:19:52Z</time>
      </trkpt>
      <trkpt lat="47.99983" lon="6.94583">
        <ele>954.4</ele>
        <time>2023-05-20T09:19:57Z</time>
      </trkpt>
      <trkpt lat="47.99979" lon="6.94574">
        <ele>955.7</ele>
        <time>2023-05-20T09:20:05Z</time>
      </trkpt>
      <trkpt lat="47.99981" lon="6.94567">
        <ele>956.9</ele>
        <time>2023-05-20T09:20:08Z</time>
      </trkpt>
      <trkpt lat="47.9998" lon="6.94559">
        <ele>958</ele>
        <time>2023-05-20T09:20:11Z</time>
      </trkpt>
      <trkpt lat="47.99968" lon="6.94541">
        <ele>959.1</ele>
        <time>2023-05-20T09:20:20Z</time>
      </trkpt>
      <trkpt lat="47.99964" lon="6.94537">
        <ele>959.4</ele>
        <time>2023-05-20T09:20:24Z</time>
      </trkpt>
      <trkpt lat="47.99961" lon="6.94527">
        <ele>961.1</ele>
        <time>2023-05-20T09:20:30Z</time>
      </trkpt>
      <trkpt lat="47.99959" lon="6.94519">
        <ele>962.7</ele>
        <time>2023-05-20T09:20:35Z</time>
      </trkpt>
      <trkpt lat="47.99958" lon="6.94513">
        <ele>964</ele>
        <time>2023-05-20T09:20:38Z</time>
      </trkpt>
      <trkpt lat="47.99956" lon="6.9451">
        <ele>965</ele>
        <time>2023-05-20T09:20:54Z</time>
      </trkpt>
      <trkpt lat="47.99952" lon="6.94513">
        <ele>965</ele>
        <time>2023-05-20T09:20:59Z</time>
      </trkpt>
      <trkpt lat="47.99945" lon="6.94518">
        <ele>964.5</ele>
        <time>2023-05-20T09:21:06Z</time>
      </trkpt>
      <trkpt lat="47.99935" lon="6.94528">
        <ele>964.7</ele>
        <time>2023-05-20T09:21:18Z</time>
      </trkpt>
      <trkpt lat="47.99934" lon="6.94535">
        <ele>962.8</ele>
        <time>2023-05-20T09:21:21Z</time>
      </trkpt>
      <trkpt lat="47.99931" lon="6.9454">
        <ele>962.4</ele>
        <time>2023-05-20T09:21:25Z</time>
      </trkpt>
      <trkpt lat="47.99904" lon="6.94561">
        <ele>965.3</ele>
        <time>2023-05-20T09:21:54Z</time>
      </trkpt>
      <trkpt lat="47.999" lon="6.94559">
        <ele>967.3</ele>
        <time>2023-05-20T09:22:02Z</time>
      </trkpt>
      <trkpt lat="47.99895" lon="6.94559">
        <ele>969</ele>
        <time>2023-05-20T09:22:07Z</time>
      </trkpt>
      <trkpt lat="47.99891" lon="6.94563">
        <ele>969.1</ele>
        <time>2023-05-20T09:22:11Z</time>
      </trkpt>
      <trkpt lat="47.99883" lon="6.94564">
        <ele>968.3</ele>
        <time>2023-05-20T09:22:17Z</time>
      </trkpt>
      <trkpt lat="47.99879" lon="6.94563">
        <ele>967.7</ele>
        <time>2023-05-20T09:22:21Z</time>
      </trkpt>
      <trkpt lat="47.99874" lon="6.94548">
        <ele>971.8</ele>
        <time>2023-05-20T09:22:28Z</time>
      </trkpt>
      <trkpt lat="47.99871" lon="6.94544">
        <ele>973</ele>
        <time>2023-05-20T09:22:31Z</time>
      </trkpt>
      <trkpt lat="47.99867" lon="6.94545">
        <ele>971.9</ele>
        <time>2023-05-20T09:22:34Z</time>
      </trkpt>
      <trkpt lat="47.99859" lon="6.94536">
        <ele>974.5</ele>
        <time>2023-05-20T09:22:42Z</time>
      </trkpt>
      <trkpt lat="47.9985" lon="6.94531">
        <ele>974</ele>
        <time>2023-05-20T09:22:50Z</time>
      </trkpt>
      <trkpt lat="47.99845" lon="6.94521">
        <ele>976.9</ele>
        <time>2023-05-20T09:22:58Z</time>
      </trkpt>
      <trkpt lat="47.99835" lon="6.94509">
        <ele>978.7</ele>
        <time>2023-05-20T09:23:05Z</time>
      </trkpt>
      <trkpt lat="47.99832" lon="6.94507">
        <ele>979.4</ele>
        <time>2023-05-20T09:23:10Z</time>
      </trkpt>
      <trkpt lat="47.99826" lon="6.94515">
        <ele>977.3</ele>
        <time>2023-05-20T09:23:17Z</time>
      </trkpt>
      <trkpt lat="47.99823" lon="6.94522">
        <ele>974.7</ele>
        <time>2023-05-20T09:23:22Z</time>
      </trkpt>
      <trkpt lat="47.99817" lon="6.94527">
        <ele>973.3</ele>
        <time>2023-05-20T09:23:28Z</time>
      </trkpt>
      <trkpt lat="47.99811" lon="6.94525">
        <ele>975.5</ele>
        <time>2023-05-20T09:23:34Z</time>
      </trkpt>
      <trkpt lat="47.99805" lon="6.94525">
        <ele>976.8</ele>
        <time>2023-05-20T09:23:44Z</time>
      </trkpt>
      <trkpt lat="47.99798" lon="6.94525">
        <ele>978.7</ele>
        <time>2023-05-20T09:23:54Z</time>
      </trkpt>
      <trkpt lat="47.99795" lon="6.94528">
        <ele>977.9</ele>
        <time>2023-05-20T09:23:59Z</time>
      </trkpt>
      <trkpt lat="47.99789" lon="6.94527">
        <ele>980.2</ele>
        <time>2023-05-20T09:24:07Z</time>
      </trkpt>
      <trkpt lat="47.99787" lon="6.94534">
        <ele>976.7</ele>
        <time>2023-05-20T09:24:13Z</time>
      </trkpt>
      <trkpt lat="47.99781" lon="6.94534">
        <ele>978.2</ele>
        <time>2023-05-20T09:24:19Z</time>
      </trkpt>
      <trkpt lat="47.99778" lon="6.94529">
        <ele>982.1</ele>
        <time>2023-05-20T09:24:23Z</time>
      </trkpt>
      <trkpt lat="47.99768" lon="6.94524">
        <ele>987.2</ele>
        <time>2023-05-20T09:24:32Z</time>
      </trkpt>
      <trkpt lat="47.99758" lon="6.94532">
        <ele>984.8</ele>
        <time>2023-05-20T09:24:41Z</time>
      </trkpt>
      <trkpt lat="47.99756" lon="6.94537">
        <ele>982.2</ele>
        <time>2023-05-20T09:24:45Z</time>
      </trkpt>
      <trkpt lat="47.99749" lon="6.94537">
        <ele>984.3</ele>
        <time>2023-05-20T09:24:52Z</time>
      </trkpt>
      <trkpt lat="47.99746" lon="6.94541">
        <ele>983.6</ele>
        <time>2023-05-20T09:24:56Z</time>
      </trkpt>
      <trkpt lat="47.99741" lon="6.94545">
        <ele>984</ele>
        <time>2023-05-20T09:24:59Z</time>
      </trkpt>
      <trkpt lat="47.99731" lon="6.94554">
        <ele>983.6</ele>
        <time>2023-05-20T09:25:14Z</time>
      </trkpt>
      <trkpt lat="47.99725" lon="6.94561">
        <ele>982.5</ele>
        <time>2023-05-20T09:25:26Z</time>
      </trkpt>
      <trkpt lat="47.99718" lon="6.9456">
        <ele>986.4</ele>
        <time>2023-05-20T09:25:33Z</time>
      </trkpt>
      <trkpt lat="47.99714" lon="6.94558">
        <ele>989.5</ele>
        <time>2023-05-20T09:25:39Z</time>
      </trkpt>
      <trkpt lat="47.99707" lon="6.94558">
        <ele>992.8</ele>
        <time>2023-05-20T09:25:49Z</time>
      </trkpt>
      <trkpt lat="47.99704" lon="6.94553">
        <ele>996.9</ele>
        <time>2023-05-20T09:25:53Z</time>
      </trkpt>
      <trkpt lat="47.99696" lon="6.94565">
        <ele>994.2</ele>
        <time>2023-05-20T09:26:12Z</time>
      </trkpt>
      <trkpt lat="47.99689" lon="6.94566">
        <ele>997</ele>
        <time>2023-05-20T09:26:25Z</time>
      </trkpt>
      <trkpt lat="47.99684" lon="6.94563">
        <ele>1000.8</ele>
        <time>2023-05-20T09:26:31Z</time>
      </trkpt>
      <trkpt lat="47.9968" lon="6.9457">
        <ele>999.8</ele>
        <time>2023-05-20T09:26:42Z</time>
      </trkpt>
      <trkpt lat="47.99674" lon="6.9457">
        <ele>1003</ele>
        <time>2023-05-20T09:26:45Z</time>
      </trkpt>
      <trkpt lat="47.99674" lon="6.94578">
        <ele>1000.1</ele>
        <time>2023-05-20T09:26:57Z</time>
      </trkpt>
      <trkpt lat="47.99673" lon="6.94587">
        <ele>997.3</ele>
        <time>2023-05-20T09:27:03Z</time>
      </trkpt>
      <trkpt lat="47.99666" lon="6.94586">
        <ele>1002.3</ele>
        <time>2023-05-20T09:27:09Z</time>
      </trkpt>
      <trkpt lat="47.99662" lon="6.94589">
        <ele>1002.9</ele>
        <time>2023-05-20T09:27:13Z</time>
      </trkpt>
      <trkpt lat="47.99658" lon="6.94585">
        <ele>1006.8</ele>
        <time>2023-05-20T09:27:22Z</time>
      </trkpt>
      <trkpt lat="47.99656" lon="6.94581">
        <ele>1009.6</ele>
        <time>2023-05-20T09:27:32Z</time>
      </trkpt>
      <trkpt lat="47.99651" lon="6.94583">
        <ele>1011.6</ele>
        <time>2023-05-20T09:27:41Z</time>
      </trkpt>
      <trkpt lat="47.99647" lon="6.9459">
        <ele>1008.9</ele>
        <time>2023-05-20T09:27:47Z</time>
      </trkpt>
      <trkpt lat="47.99641" lon="6.94602">
        <ele>1002</ele>
        <time>2023-05-20T09:28:00Z</time>
      </trkpt>
      <trkpt lat="47.99637" lon="6.94595">
        <ele>1008.5</ele>
        <time>2023-05-20T09:28:07Z</time>
      </trkpt>
      <trkpt lat="47.99632" lon="6.94597">
        <ele>1007.5</ele>
        <time>2023-05-20T09:28:13Z</time>
      </trkpt>
      <trkpt lat="47.9962" lon="6.94593">
        <ele>1011.7</ele>
        <time>2023-05-20T09:28:29Z</time>
      </trkpt>
      <trkpt lat="47.99613" lon="6.94591">
        <ele>1013.5</ele>
        <time>2023-05-20T09:28:37Z</time>
      </trkpt>
      <trkpt lat="47.99608" lon="6.94584">
        <ele>1018.3</ele>
        <time>2023-05-20T09:28:50Z</time>
      </trkpt>
      <trkpt lat="47.99609" lon="6.94572">
        <ele>1021.8</ele>
        <time>2023-05-20T09:28:59Z</time>
      </trkpt>
      <trkpt lat="47.99602" lon="6.94569">
        <ele>1024.6</ele>
        <time>2023-05-20T09:29:08Z</time>
      </trkpt>
      <trkpt lat="47.996" lon="6.94577">
        <ele>1022.5</ele>
        <time>2023-05-20T09:29:12Z</time>
      </trkpt>
      <trkpt lat="47.99598" lon="6.94585">
        <ele>1020.4</ele>
        <time>2023-05-20T09:29:16Z</time>
      </trkpt>
      <trkpt lat="47.99593" lon="6.94587">
        <ele>1021.3</ele>
        <time>2023-05-20T09:29:20Z</time>
      </trkpt>
      <trkpt lat="47.99588" lon="6.94587">
        <ele>1022.9</ele>
        <time>2023-05-20T09:29:25Z</time>
      </trkpt>
      <trkpt lat="47.99583" lon="6.9459">
        <ele>1024.7</ele>
        <time>2023-05-20T09:29:33Z</time>
      </trkpt>
      <trkpt lat="47.99579" lon="6.94592">
        <ele>1027.4</ele>
        <time>2023-05-20T09:29:36Z</time>
      </trkpt>
      <trkpt lat="47.99574" lon="6.94592">
        <ele>1030.7</ele>
        <time>2023-05-20T09:29:39Z</time>
      </trkpt>
      <trkpt lat="47.99576" lon="6.946">
        <ele>1029.7</ele>
        <time>2023-05-20T09:29:46Z</time>
      </trkpt>
      <trkpt lat="47.9958" lon="6.94607">
        <ele>1027.7</ele>
        <time>2023-05-20T09:29:52Z</time>
      </trkpt>
      <trkpt lat="47.99586" lon="6.94605">
        <ele>1023.6</ele>
        <time>2023-05-20T09:29:56Z</time>
      </trkpt>
      <trkpt lat="47.99585" lon="6.94609">
        <ele>1024.5</ele>
        <time>2023-05-20T09:30:05Z</time>
      </trkpt>
      <trkpt lat="47.99575" lon="6.94611">
        <ele>1030.8</ele>
        <time>2023-05-20T09:30:09Z</time>
      </trkpt>
      <trkpt lat="47.99574" lon="6.94624">
        <ele>1029.2</ele>
        <time>2023-05-20T09:30:21Z</time>
      </trkpt>
      <trkpt lat="47.99569" lon="6.94627">
        <ele>1031.7</ele>
        <time>2023-05-20T09:30:25Z</time>
      </trkpt>
      <trkpt lat="47.99564" lon="6.94636">
        <ele>1033.3</ele>
        <time>2023-05-20T09:30:34Z</time>
      </trkpt>
      <trkpt lat="47.99559" lon="6.94639">
        <ele>1035.9</ele>
        <time>2023-05-20T09:30:43Z</time>
      </trkpt>
      <trkpt lat="47.99556" lon="6.94646">
        <ele>1035.4</ele>
        <time>2023-05-20T09:30:48Z</time>
      </trkpt>
      <trkpt lat="47.99551" lon="6.94648">
        <ele>1036.5</ele>
        <time>2023-05-20T09:30:56Z</time>
      </trkpt>
      <trkpt lat="47.99537" lon="6.94654">
        <ele>1039.2</ele>
        <time>2023-05-20T09:31:11Z</time>
      </trkpt>
      <trkpt lat="47.99528" lon="6.94655">
        <ele>1041.9</ele>
        <time>2023-05-20T09:31:22Z</time>
      </trkpt>
      <trkpt lat="47.99519" lon="6.94652">
        <ele>1045.2</ele>
        <time>2023-05-20T09:31:34Z</time>
      </trkpt>
      <trkpt lat="47.99514" lon="6.94656">
        <ele>1045.9</ele>
        <time>2023-05-20T09:31:38Z</time>
      </trkpt>
      <trkpt lat="47.99506" lon="6.94655">
        <ele>1048.5</ele>
        <time>2023-05-20T09:31:49Z</time>
      </trkpt>
      <trkpt lat="47.99506" lon="6.94651">
        <ele>1049</ele>
        <time>2023-05-20T09:31:58Z</time>
      </trkpt>
      <trkpt lat="47.99514" lon="6.9464">
        <ele>1048.8</ele>
        <time>2023-05-20T09:32:09Z</time>
      </trkpt>
      <trkpt lat="47.99519" lon="6.94617">
        <ele>1049.7</ele>
        <time>2023-05-20T09:32:21Z</time>
      </trkpt>
      <trkpt lat="47.99518" lon="6.94611">
        <ele>1050.5</ele>
        <time>2023-05-20T09:32:24Z</time>
      </trkpt>
      <trkpt lat="47.99513" lon="6.94615">
        <ele>1051.4</ele>
        <time>2023-05-20T09:32:32Z</time>
      </trkpt>
      <trkpt lat="47.9951" lon="6.94631">
        <ele>1050.6</ele>
        <time>2023-05-20T09:32:52Z</time>
      </trkpt>
      <trkpt lat="47.99499" lon="6.9463">
        <ele>1053.4</ele>
        <time>2023-05-20T09:33:04Z</time>
      </trkpt>
      <trkpt lat="47.99495" lon="6.94632">
        <ele>1055</ele>
        <time>2023-05-20T09:33:08Z</time>
      </trkpt>
      <trkpt lat="47.99487" lon="6.9464">
        <ele>1057.9</ele>
        <time>2023-05-20T09:33:27Z</time>
      </trkpt>
      <trkpt lat="47.99484" lon="6.94652">
        <ele>1057.8</ele>
        <time>2023-05-20T09:33:38Z</time>
      </trkpt>
      <trkpt lat="47.9948" lon="6.94658">
        <ele>1058.8</ele>
        <time>2023-05-20T09:33:47Z</time>
      </trkpt>
      <trkpt lat="47.99477" lon="6.94664">
        <ele>1059.3</ele>
        <time>2023-05-20T09:33:52Z</time>
      </trkpt>
      <trkpt lat="47.99467" lon="6.94674">
        <ele>1062.3</ele>
        <time>2023-05-20T09:34:01Z</time>
      </trkpt>
      <trkpt lat="47.99464" lon="6.94679">
        <ele>1062.8</ele>
        <time>2023-05-20T09:34:05Z</time>
      </trkpt>
      <trkpt lat="47.99456" lon="6.94686">
        <ele>1063.7</ele>
        <time>2023-05-20T09:34:15Z</time>
      </trkpt>
      <trkpt lat="47.99453" lon="6.94691">
        <ele>1063.8</ele>
        <time>2023-05-20T09:34:19Z</time>
      </trkpt>
      <trkpt lat="47.99448" lon="6.94692">
        <ele>1064</ele>
        <time>2023-05-20T09:34:23Z</time>
      </trkpt>
      <trkpt lat="47.99444" lon="6.94689">
        <ele>1064.6</ele>
        <time>2023-05-20T09:34:26Z</time>
      </trkpt>
      <trkpt lat="47.99441" lon="6.94683">
        <ele>1066.4</ele>
        <time>2023-05-20T09:34:29Z</time>
      </trkpt>
      <trkpt lat="47.99436" lon="6.9467">
        <ele>1069.9</ele>
        <time>2023-05-20T09:34:39Z</time>
      </trkpt>
      <trkpt lat="47.99437" lon="6.94663">
        <ele>1070.5</ele>
        <time>2023-05-20T09:34:41Z</time>
      </trkpt>
      <trkpt lat="47.99437" lon="6.94657">
        <ele>1071.6</ele>
        <time>2023-05-20T09:34:44Z</time>
      </trkpt>
      <trkpt lat="47.9944" lon="6.94648">
        <ele>1072.3</ele>
        <time>2023-05-20T09:34:50Z</time>
      </trkpt>
      <trkpt lat="47.99444" lon="6.94643">
        <ele>1072.1</ele>
        <time>2023-05-20T09:34:54Z</time>
      </trkpt>
      <trkpt lat="47.99454" lon="6.9464">
        <ele>1070</ele>
        <time>2023-05-20T09:35:02Z</time>
      </trkpt>
      <trkpt lat="47.99464" lon="6.94633">
        <ele>1067.8</ele>
        <time>2023-05-20T09:35:11Z</time>
      </trkpt>
      <trkpt lat="47.99464" lon="6.94627">
        <ele>1068.3</ele>
        <time>2023-05-20T09:35:19Z</time>
      </trkpt>
      <trkpt lat="47.99462" lon="6.94621">
        <ele>1069.6</ele>
        <time>2023-05-20T09:35:24Z</time>
      </trkpt>
      <trkpt lat="47.99458" lon="6.94615">
        <ele>1072.2</ele>
        <time>2023-05-20T09:35:28Z</time>
      </trkpt>
      <trkpt lat="47.99453" lon="6.94611">
        <ele>1075.4</ele>
        <time>2023-05-20T09:35:34Z</time>
      </trkpt>
      <trkpt lat="47.9945" lon="6.94603">
        <ele>1078</ele>
        <time>2023-05-20T09:35:41Z</time>
      </trkpt>
      <trkpt lat="47.99449" lon="6.94591">
        <ele>1079.9</ele>
        <time>2023-05-20T09:35:48Z</time>
      </trkpt>
      <trkpt lat="47.99452" lon="6.94586">
        <ele>1079.1</ele>
        <time>2023-05-20T09:35:51Z</time>
      </trkpt>
      <trkpt lat="47.99455" lon="6.94581">
        <ele>1078.6</ele>
        <time>2023-05-20T09:35:54Z</time>
      </trkpt>
      <trkpt lat="47.9946" lon="6.94557">
        <ele>1081.2</ele>
        <time>2023-05-20T09:36:10Z</time>
      </trkpt>
      <trkpt lat="47.99467" lon="6.94547">
        <ele>1078.2</ele>
        <time>2023-05-20T09:36:18Z</time>
      </trkpt>
      <trkpt lat="47.99465" lon="6.94538">
        <ele>1080.3</ele>
        <time>2023-05-20T09:36:26Z</time>
      </trkpt>
      <trkpt lat="47.99468" lon="6.94533">
        <ele>1079.3</ele>
        <time>2023-05-20T09:36:31Z</time>
      </trkpt>
      <trkpt lat="47.99469" lon="6.94526">
        <ele>1079.7</ele>
        <time>2023-05-20T09:36:35Z</time>
      </trkpt>
      <trkpt lat="47.99461" lon="6.94514">
        <ele>1083.5</ele>
        <time>2023-05-20T09:36:45Z</time>
      </trkpt>
      <trkpt lat="47.99456" lon="6.9451">
        <ele>1085.3</ele>
        <time>2023-05-20T09:36:49Z</time>
      </trkpt>
      <trkpt lat="47.99452" lon="6.94504">
        <ele>1086.3</ele>
        <time>2023-05-20T09:36:56Z</time>
      </trkpt>
      <trkpt lat="47.99446" lon="6.945">
        <ele>1087.6</ele>
        <time>2023-05-20T09:36:59Z</time>
      </trkpt>
      <trkpt lat="47.99444" lon="6.94485">
        <ele>1088.8</ele>
        <time>2023-05-20T09:37:06Z</time>
      </trkpt>
      <trkpt lat="47.99439" lon="6.94489">
        <ele>1090.9</ele>
        <time>2023-05-20T09:37:25Z</time>
      </trkpt>
      <trkpt lat="47.99438" lon="6.945">
        <ele>1090.6</ele>
        <time>2023-05-20T09:37:29Z</time>
      </trkpt>
      <trkpt lat="47.99443" lon="6.94505">
        <ele>1089.1</ele>
        <time>2023-05-20T09:37:32Z</time>
      </trkpt>
      <trkpt lat="47.9944" lon="6.94513">
        <ele>1091</ele>
        <time>2023-05-20T09:37:43Z</time>
      </trkpt>
      <trkpt lat="47.9944" lon="6.94521">
        <ele>1091.8</ele>
        <time>2023-05-20T09:37:46Z</time>
      </trkpt>
      <trkpt lat="47.99441" lon="6.94528">
        <ele>1092.1</ele>
        <time>2023-05-20T09:37:51Z</time>
      </trkpt>
      <trkpt lat="47.99445" lon="6.94532">
        <ele>1090.7</ele>
        <time>2023-05-20T09:37:56Z</time>
      </trkpt>
      <trkpt lat="47.99443" lon="6.94539">
        <ele>1091.4</ele>
        <time>2023-05-20T09:38:04Z</time>
      </trkpt>
      <trkpt lat="47.99428" lon="6.94551">
        <ele>1095.3</ele>
        <time>2023-05-20T09:38:12Z</time>
      </trkpt>
      <trkpt lat="47.99425" lon="6.94558">
        <ele>1095.6</ele>
        <time>2023-05-20T09:38:15Z</time>
      </trkpt>
      <trkpt lat="47.99425" lon="6.94563">
        <ele>1094.9</ele>
        <time>2023-05-20T09:38:20Z</time>
      </trkpt>
      <trkpt lat="47.99419" lon="6.94568">
        <ele>1096.3</ele>
        <time>2023-05-20T09:38:26Z</time>
      </trkpt>
      <trkpt lat="47.99409" lon="6.94562">
        <ele>1100.2</ele>
        <time>2023-05-20T09:38:33Z</time>
      </trkpt>
      <trkpt lat="47.9941" lon="6.94583">
        <ele>1098.2</ele>
        <time>2023-05-20T09:38:52Z</time>
      </trkpt>
      <trkpt lat="47.99405" lon="6.9459">
        <ele>1098.6</ele>
        <time>2023-05-20T09:38:59Z</time>
      </trkpt>
      <trkpt lat="47.99401" lon="6.94592">
        <ele>1099.7</ele>
        <time>2023-05-20T09:39:02Z</time>
      </trkpt>
      <trkpt lat="47.99393" lon="6.94584">
        <ele>1103.6</ele>
        <time>2023-05-20T09:39:10Z</time>
      </trkpt>
      <trkpt lat="47.99384" lon="6.94592">
        <ele>1105.1</ele>
        <time>2023-05-20T09:39:21Z</time>
      </trkpt>
      <trkpt lat="47.99378" lon="6.946">
        <ele>1105.2</ele>
        <time>2023-05-20T09:39:32Z</time>
      </trkpt>
      <trkpt lat="47.99375" lon="6.94605">
        <ele>1105</ele>
        <time>2023-05-20T09:39:36Z</time>
      </trkpt>
      <trkpt lat="47.99371" lon="6.94607">
        <ele>1105.3</ele>
        <time>2023-05-20T09:39:42Z</time>
      </trkpt>
      <trkpt lat="47.99365" lon="6.94604">
        <ele>1106.9</ele>
        <time>2023-05-20T09:39:52Z</time>
      </trkpt>
      <trkpt lat="47.99362" lon="6.946">
        <ele>1108.2</ele>
        <time>2023-05-20T09:39:55Z</time>
      </trkpt>
      <trkpt lat="47.99358" lon="6.94586">
        <ele>1110.4</ele>
        <time>2023-05-20T09:40:02Z</time>
      </trkpt>
      <trkpt lat="47.99355" lon="6.9458">
        <ele>1111.1</ele>
        <time>2023-05-20T09:40:05Z</time>
      </trkpt>
      <trkpt lat="47.99343" lon="6.94569">
        <ele>1112.7</ele>
        <time>2023-05-20T09:40:23Z</time>
      </trkpt>
      <trkpt lat="47.99339" lon="6.94566">
        <ele>1113.7</ele>
        <time>2023-05-20T09:40:27Z</time>
      </trkpt>
      <trkpt lat="47.99334" lon="6.94566">
        <ele>1113.4</ele>
        <time>2023-05-20T09:40:33Z</time>
      </trkpt>
      <trkpt lat="47.99326" lon="6.94564">
        <ele>1113.1</ele>
        <time>2023-05-20T09:40:41Z</time>
      </trkpt>
      <trkpt lat="47.9932" lon="6.94562">
        <ele>1113.1</ele>
        <time>2023-05-20T09:40:47Z</time>
      </trkpt>
      <trkpt lat="47.99316" lon="6.94558">
        <ele>1114.6</ele>
        <time>2023-05-20T09:40:52Z</time>
      </trkpt>
      <trkpt lat="47.99312" lon="6.94558">
        <ele>1113.8</ele>
        <time>2023-05-20T09:40:54Z</time>
      </trkpt>
      <trkpt lat="47.99308" lon="6.94554">
        <ele>1115.5</ele>
        <time>2023-05-20T09:40:56Z</time>
      </trkpt>
      <trkpt lat="47.99304" lon="6.94548">
        <ele>1119.4</ele>
        <time>2023-05-20T09:41:04Z</time>
      </trkpt>
      <trkpt lat="47.99299" lon="6.94548">
        <ele>1119.1</ele>
        <time>2023-05-20T09:41:09Z</time>
      </trkpt>
      <trkpt lat="47.99295" lon="6.94545">
        <ele>1120.9</ele>
        <time>2023-05-20T09:41:13Z</time>
      </trkpt>
      <trkpt lat="47.99286" lon="6.94543">
        <ele>1121.7</ele>
        <time>2023-05-20T09:41:26Z</time>
      </trkpt>
      <trkpt lat="47.99281" lon="6.94543">
        <ele>1121.4</ele>
        <time>2023-05-20T09:41:30Z</time>
      </trkpt>
      <trkpt lat="47.99275" lon="6.94547">
        <ele>1119.5</ele>
        <time>2023-05-20T09:41:38Z</time>
      </trkpt>
      <trkpt lat="47.99269" lon="6.94548">
        <ele>1121</ele>
        <time>2023-05-20T09:41:44Z</time>
      </trkpt>
      <trkpt lat="47.99263" lon="6.94548">
        <ele>1123.1</ele>
        <time>2023-05-20T09:41:54Z</time>
      </trkpt>
      <trkpt lat="47.9926" lon="6.94553">
        <ele>1121</ele>
        <time>2023-05-20T09:42:00Z</time>
      </trkpt>
      <trkpt lat="47.99256" lon="6.94556">
        <ele>1120.6</ele>
        <time>2023-05-20T09:42:05Z</time>
      </trkpt>
      <trkpt lat="47.99252" lon="6.9456">
        <ele>1120.2</ele>
        <time>2023-05-20T09:42:08Z</time>
      </trkpt>
      <trkpt lat="47.9925" lon="6.94566">
        <ele>1118.1</ele>
        <time>2023-05-20T09:42:11Z</time>
      </trkpt>
      <trkpt lat="47.99244" lon="6.94565">
        <ele>1121.2</ele>
        <time>2023-05-20T09:42:19Z</time>
      </trkpt>
      <trkpt lat="47.99235" lon="6.9457">
        <ele>1123</ele>
        <time>2023-05-20T09:42:28Z</time>
      </trkpt>
      <trkpt lat="47.99221" lon="6.94584">
        <ele>1123.4</ele>
        <time>2023-05-20T09:42:43Z</time>
      </trkpt>
      <trkpt lat="47.99215" lon="6.94588">
        <ele>1124.7</ele>
        <time>2023-05-20T09:42:51Z</time>
      </trkpt>
      <trkpt lat="47.9921" lon="6.94592">
        <ele>1125.6</ele>
        <time>2023-05-20T09:42:59Z</time>
      </trkpt>
      <trkpt lat="47.99205" lon="6.94589">
        <ele>1129.3</ele>
        <time>2023-05-20T09:43:12Z</time>
      </trkpt>
      <trkpt lat="47.99197" lon="6.94594">
        <ele>1131.1</ele>
        <time>2023-05-20T09:43:21Z</time>
      </trkpt>
      <trkpt lat="47.99192" lon="6.94616">
        <ele>1125.9</ele>
        <time>2023-05-20T09:43:45Z</time>
      </trkpt>
      <trkpt lat="47.99193" lon="6.94623">
        <ele>1123.3</ele>
        <time>2023-05-20T09:43:48Z</time>
      </trkpt>
      <trkpt lat="47.99192" lon="6.9463">
        <ele>1122.3</ele>
        <time>2023-05-20T09:43:52Z</time>
      </trkpt>
      <trkpt lat="47.99186" lon="6.94638">
        <ele>1125.2</ele>
        <time>2023-05-20T09:43:58Z</time>
      </trkpt>
      <trkpt lat="47.9918" lon="6.94644">
        <ele>1128.4</ele>
        <time>2023-05-20T09:44:04Z</time>
      </trkpt>
      <trkpt lat="47.99174" lon="6.94643">
        <ele>1133.6</ele>
        <time>2023-05-20T09:44:08Z</time>
      </trkpt>
      <trkpt lat="47.9917" lon="6.94645">
        <ele>1136.3</ele>
        <time>2023-05-20T09:44:14Z</time>
      </trkpt>
      <trkpt lat="47.99168" lon="6.94651">
        <ele>1136</ele>
        <time>2023-05-20T09:44:19Z</time>
      </trkpt>
      <trkpt lat="47.99166" lon="6.94659">
        <ele>1135.1</ele>
        <time>2023-05-20T09:44:23Z</time>
      </trkpt>
      <trkpt lat="47.99165" lon="6.9467">
        <ele>1132.3</ele>
        <time>2023-05-20T09:44:36Z</time>
      </trkpt>
      <trkpt lat="47.99154" lon="6.94676">
        <ele>1139.9</ele>
        <time>2023-05-20T09:44:48Z</time>
      </trkpt>
      <trkpt lat="47.99153" lon="6.94683">
        <ele>1138.5</ele>
        <time>2023-05-20T09:44:52Z</time>
      </trkpt>
      <trkpt lat="47.9915" lon="6.94687">
        <ele>1140</ele>
        <time>2023-05-20T09:44:55Z</time>
      </trkpt>
      <trkpt lat="47.99147" lon="6.94697">
        <ele>1139.6</ele>
        <time>2023-05-20T09:45:03Z</time>
      </trkpt>
      <trkpt lat="47.99144" lon="6.94701">
        <ele>1141.1</ele>
        <time>2023-05-20T09:45:07Z</time>
      </trkpt>
      <trkpt lat="47.99136" lon="6.94713">
        <ele>1143</ele>
        <time>2023-05-20T09:45:13Z</time>
      </trkpt>
      <trkpt lat="47.99135" lon="6.9472">
        <ele>1141.4</ele>
        <time>2023-05-20T09:45:18Z</time>
      </trkpt>
      <trkpt lat="47.99137" lon="6.94726">
        <ele>1138.9</ele>
        <time>2023-05-20T09:45:25Z</time>
      </trkpt>
      <trkpt lat="47.9913" lon="6.94735">
        <ele>1141.1</ele>
        <time>2023-05-20T09:45:38Z</time>
      </trkpt>
      <trkpt lat="47.99124" lon="6.94743">
        <ele>1144.4</ele>
        <time>2023-05-20T09:45:46Z</time>
      </trkpt>
      <trkpt lat="47.99123" lon="6.94734">
        <ele>1145.7</ele>
        <time>2023-05-20T09:45:51Z</time>
      </trkpt>
      <trkpt lat="47.99124" lon="6.94728">
        <ele>1145.5</ele>
        <time>2023-05-20T09:45:54Z</time>
      </trkpt>
      <trkpt lat="47.99129" lon="6.94715">
        <ele>1145</ele>
        <time>2023-05-20T09:45:59Z</time>
      </trkpt>
      <trkpt lat="47.99132" lon="6.94702">
        <ele>1147</ele>
        <time>2023-05-20T09:46:12Z</time>
      </trkpt>
      <trkpt lat="47.99128" lon="6.94707">
        <ele>1146.9</ele>
        <time>2023-05-20T09:46:17Z</time>
      </trkpt>
      <trkpt lat="47.99123" lon="6.94709">
        <ele>1148</ele>
        <time>2023-05-20T09:46:21Z</time>
      </trkpt>
      <trkpt lat="47.99119" lon="6.94714">
        <ele>1148.9</ele>
        <time>2023-05-20T09:46:26Z</time>
      </trkpt>
      <trkpt lat="47.99099" lon="6.94711">
        <ele>1150.3</ele>
        <time>2023-05-20T09:46:45Z</time>
      </trkpt>
      <trkpt lat="47.99096" lon="6.94706">
        <ele>1149.3</ele>
        <time>2023-05-20T09:46:50Z</time>
      </trkpt>
      <trkpt lat="47.99091" lon="6.94707">
        <ele>1148.7</ele>
        <time>2023-05-20T09:46:54Z</time>
      </trkpt>
      <trkpt lat="47.99086" lon="6.94706">
        <ele>1147.9</ele>
        <time>2023-05-20T09:46:59Z</time>
      </trkpt>
      <trkpt lat="47.99082" lon="6.94701">
        <ele>1146.1</ele>
        <time>2023-05-20T09:47:02Z</time>
      </trkpt>
      <trkpt lat="47.99076" lon="6.94692">
        <ele>1143.8</ele>
        <time>2023-05-20T09:47:10Z</time>
      </trkpt>
      <trkpt lat="47.99072" lon="6.94691">
        <ele>1143.1</ele>
        <time>2023-05-20T09:47:14Z</time>
      </trkpt>
      <trkpt lat="47.99069" lon="6.94677">
        <ele>1143</ele>
        <time>2023-05-20T09:47:23Z</time>
      </trkpt>
      <trkpt lat="47.99062" lon="6.94661">
        <ele>1142.4</ele>
        <time>2023-05-20T09:47:37Z</time>
      </trkpt>
      <trkpt lat="47.99057" lon="6.94657">
        <ele>1141.2</ele>
        <time>2023-05-20T09:47:42Z</time>
      </trkpt>
      <trkpt lat="47.99048" lon="6.94639">
        <ele>1139.8</ele>
        <time>2023-05-20T09:47:58Z</time>
      </trkpt>
      <trkpt lat="47.99044" lon="6.9464">
        <ele>1138.6</ele>
        <time>2023-05-20T09:48:02Z</time>
      </trkpt>
      <trkpt lat="47.99035" lon="6.94634">
        <ele>1136.2</ele>
        <time>2023-05-20T09:48:11Z</time>
      </trkpt>
      <trkpt lat="47.99031" lon="6.94613">
        <ele>1134.6</ele>
        <time>2023-05-20T09:48:22Z</time>
      </trkpt>
      <trkpt lat="47.99018" lon="6.94599">
        <ele>1132.4</ele>
        <time>2023-05-20T09:48:34Z</time>
      </trkpt>
      <trkpt lat="47.99017" lon="6.94592">
        <ele>1132.9</ele>
        <time>2023-05-20T09:48:39Z</time>
      </trkpt>
      <trkpt lat="47.99011" lon="6.94586">
        <ele>1132.1</ele>
        <time>2023-05-20T09:48:47Z</time>
      </trkpt>
      <trkpt lat="47.99012" lon="6.94594">
        <ele>1131.7</ele>
        <time>2023-05-20T09:48:55Z</time>
      </trkpt>
      <trkpt lat="47.99016" lon="6.94604">
        <ele>1131.5</ele>
        <time>2023-05-20T09:49:06Z</time>
      </trkpt>
      <trkpt lat="47.99011" lon="6.94611">
        <ele>1130</ele>
        <time>2023-05-20T09:49:09Z</time>
      </trkpt>
      <trkpt lat="47.99004" lon="6.94613">
        <ele>1128.4</ele>
        <time>2023-05-20T09:49:13Z</time>
      </trkpt>
      <trkpt lat="47.99001" lon="6.94608">
        <ele>1128.4</ele>
        <time>2023-05-20T09:49:16Z</time>
      </trkpt>
      <trkpt lat="47.98999" lon="6.94602">
        <ele>1128.3</ele>
        <time>2023-05-20T09:49:18Z</time>
      </trkpt>
      <trkpt lat="47.98992" lon="6.94598">
        <ele>1126.5</ele>
        <time>2023-05-20T09:49:24Z</time>
      </trkpt>
      <trkpt lat="47.98987" lon="6.94607">
        <ele>1123.8</ele>
        <time>2023-05-20T09:49:34Z</time>
      </trkpt>
      <trkpt lat="47.98982" lon="6.94605">
        <ele>1122.4</ele>
        <time>2023-05-20T09:49:39Z</time>
      </trkpt>
      <trkpt lat="47.98977" lon="6.94599">
        <ele>1121.7</ele>
        <time>2023-05-20T09:49:46Z</time>
      </trkpt>
      <trkpt lat="47.98975" lon="6.94593">
        <ele>1122.1</ele>
        <time>2023-05-20T09:49:48Z</time>
      </trkpt>
      <trkpt lat="47.98967" lon="6.94586">
        <ele>1120.4</ele>
        <time>2023-05-20T09:49:54Z</time>
      </trkpt>
      <trkpt lat="47.98964" lon="6.94581">
        <ele>1120.4</ele>
        <time>2023-05-20T09:49:57Z</time>
      </trkpt>
      <trkpt lat="47.98955" lon="6.94577">
        <ele>1117.9</ele>
        <time>2023-05-20T09:50:07Z</time>
      </trkpt>
      <trkpt lat="47.98939" lon="6.94563">
        <ele>1115.5</ele>
        <time>2023-05-20T09:50:22Z</time>
      </trkpt>
      <trkpt lat="47.98931" lon="6.94553">
        <ele>1115</ele>
        <time>2023-05-20T09:50:34Z</time>
      </trkpt>
      <trkpt lat="47.98925" lon="6.94549">
        <ele>1113.5</ele>
        <time>2023-05-20T09:50:40Z</time>
      </trkpt>
      <trkpt lat="47.98918" lon="6.94537">
        <ele>1112.5</ele>
        <time>2023-05-20T09:50:49Z</time>
      </trkpt>
      <trkpt lat="47.98923" lon="6.94543">
        <ele>1113.5</ele>
        <time>2023-05-20T09:51:03Z</time>
      </trkpt>
      <trkpt lat="47.98926" lon="6.94548">
        <ele>1113.9</ele>
        <time>2023-05-20T09:51:08Z</time>
      </trkpt>
      <trkpt lat="47.98927" lon="6.94556">
        <ele>1113.3</ele>
        <time>2023-05-20T09:51:11Z</time>
      </trkpt>
      <trkpt lat="47.98928" lon="6.94562">
        <ele>1112.3</ele>
        <time>2023-05-20T09:51:15Z</time>
      </trkpt>
      <trkpt lat="47.98926" lon="6.94569">
        <ele>1110.3</ele>
        <time>2023-05-20T09:51:19Z</time>
      </trkpt>
      <trkpt lat="47.98921" lon="6.94567">
        <ele>1109.2</ele>
        <time>2023-05-20T09:51:22Z</time>
      </trkpt>
      <trkpt lat="47.98917" lon="6.94561">
        <ele>1109.1</ele>
        <time>2023-05-20T09:51:25Z</time>
      </trkpt>
      <trkpt lat="47.98915" lon="6.94555">
        <ele>1109.3</ele>
        <time>2023-05-20T09:51:28Z</time>
      </trkpt>
      <trkpt lat="47.98908" lon="6.94537">
        <ele>1107.8</ele>
        <time>2023-05-20T09:51:37Z</time>
      </trkpt>
      <trkpt lat="47.98899" lon="6.94522">
        <ele>1104.9</ele>
        <time>2023-05-20T09:51:47Z</time>
      </trkpt>
      <trkpt lat="47.98894" lon="6.94513">
        <ele>1103.7</ele>
        <time>2023-05-20T09:51:54Z</time>
      </trkpt>
      <trkpt lat="47.9889" lon="6.94508">
        <ele>1102.4</ele>
        <time>2023-05-20T09:51:58Z</time>
      </trkpt>
      <trkpt lat="47.98889" lon="6.94501">
        <ele>1102.9</ele>
        <time>2023-05-20T09:52:02Z</time>
      </trkpt>
      <trkpt lat="47.98882" lon="6.94489">
        <ele>1102.7</ele>
        <time>2023-05-20T09:52:12Z</time>
      </trkpt>
      <trkpt lat="47.98878" lon="6.94492">
        <ele>1101.1</ele>
        <time>2023-05-20T09:52:20Z</time>
      </trkpt>
      <trkpt lat="47.9887" lon="6.94505">
        <ele>1097.1</ele>
        <time>2023-05-20T09:52:33Z</time>
      </trkpt>
      <trkpt lat="47.98866" lon="6.94516">
        <ele>1095.1</ele>
        <time>2023-05-20T09:52:41Z</time>
      </trkpt>
      <trkpt lat="47.98863" lon="6.94524">
        <ele>1093.7</ele>
        <time>2023-05-20T09:52:50Z</time>
      </trkpt>
      <trkpt lat="47.98856" lon="6.94523">
        <ele>1093.1</ele>
        <time>2023-05-20T09:52:53Z</time>
      </trkpt>
      <trkpt lat="47.98853" lon="6.94519">
        <ele>1093.2</ele>
        <time>2023-05-20T09:52:55Z</time>
      </trkpt>
      <trkpt lat="47.98846" lon="6.94517">
        <ele>1093</ele>
        <time>2023-05-20T09:52:59Z</time>
      </trkpt>
      <trkpt lat="47.98842" lon="6.94517">
        <ele>1092.8</ele>
        <time>2023-05-20T09:53:02Z</time>
      </trkpt>
      <trkpt lat="47.98832" lon="6.9452">
        <ele>1092.3</ele>
        <time>2023-05-20T09:53:12Z</time>
      </trkpt>
      <trkpt lat="47.98829" lon="6.94526">
        <ele>1092.2</ele>
        <time>2023-05-20T09:53:27Z</time>
      </trkpt>
      <trkpt lat="47.98798" lon="6.94529">
        <ele>1093.6</ele>
        <time>2023-05-20T09:55:34Z</time>
      </trkpt>
      <trkpt lat="47.98797" lon="6.94528">
        <ele>1093.6</ele>
        <time>2023-05-20T09:55:35Z</time>
      </trkpt>
      <trkpt lat="47.9879" lon="6.94535">
        <ele>1094.3</ele>
        <time>2023-05-20T09:55:44Z</time>
      </trkpt>
      <trkpt lat="47.98787" lon="6.94539">
        <ele>1094.6</ele>
        <time>2023-05-20T09:55:49Z</time>
      </trkpt>
      <trkpt lat="47.98782" lon="6.9454">
        <ele>1095.1</ele>
        <time>2023-05-20T09:55:54Z</time>
      </trkpt>
      <trkpt lat="47.98778" lon="6.94535">
        <ele>1095.2</ele>
        <time>2023-05-20T09:55:59Z</time>
      </trkpt>
      <trkpt lat="47.98768" lon="6.94533">
        <ele>1096.2</ele>
        <time>2023-05-20T09:56:07Z</time>
      </trkpt>
      <trkpt lat="47.98764" lon="6.94529">
        <ele>1096.5</ele>
        <time>2023-05-20T09:56:10Z</time>
      </trkpt>
      <trkpt lat="47.98759" lon="6.94528">
        <ele>1097</ele>
        <time>2023-05-20T09:56:14Z</time>
      </trkpt>
      <trkpt lat="47.98755" lon="6.9453">
        <ele>1097.5</ele>
        <time>2023-05-20T09:56:17Z</time>
      </trkpt>
      <trkpt lat="47.98747" lon="6.94524">
        <ele>1097.6</ele>
        <time>2023-05-20T09:56:26Z</time>
      </trkpt>
      <trkpt lat="47.98734" lon="6.94519">
        <ele>1097.4</ele>
        <time>2023-05-20T09:56:36Z</time>
      </trkpt>
      <trkpt lat="47.98729" lon="6.9452">
        <ele>1097.6</ele>
        <time>2023-05-20T09:56:39Z</time>
      </trkpt>
      <trkpt lat="47.9872" lon="6.94513">
        <ele>1097.3</ele>
        <time>2023-05-20T09:56:48Z</time>
      </trkpt>
      <trkpt lat="47.98716" lon="6.9451">
        <ele>1097</ele>
        <time>2023-05-20T09:56:51Z</time>
      </trkpt>
      <trkpt lat="47.98699" lon="6.94491">
        <ele>1096.6</ele>
        <time>2023-05-20T09:57:08Z</time>
      </trkpt>
      <trkpt lat="47.98692" lon="6.94479">
        <ele>1096.2</ele>
        <time>2023-05-20T09:57:18Z</time>
      </trkpt>
      <trkpt lat="47.98679" lon="6.94466">
        <ele>1095.4</ele>
        <time>2023-05-20T09:57:33Z</time>
      </trkpt>
      <trkpt lat="47.98676" lon="6.94462">
        <ele>1095</ele>
        <time>2023-05-20T09:57:39Z</time>
      </trkpt>
      <trkpt lat="47.9867" lon="6.94461">
        <ele>1095.1</ele>
        <time>2023-05-20T09:57:43Z</time>
      </trkpt>
      <trkpt lat="47.98665" lon="6.94457">
        <ele>1094.8</ele>
        <time>2023-05-20T09:57:51Z</time>
      </trkpt>
      <trkpt lat="47.98655" lon="6.94449">
        <ele>1093.8</ele>
        <time>2023-05-20T09:58:02Z</time>
      </trkpt>
      <trkpt lat="47.98651" lon="6.94443">
        <ele>1093.3</ele>
        <time>2023-05-20T09:58:07Z</time>
      </trkpt>
      <trkpt lat="47.98641" lon="6.94438">
        <ele>1092.6</ele>
        <time>2023-05-20T09:58:15Z</time>
      </trkpt>
      <trkpt lat="47.98642" lon="6.94431">
        <ele>1092</ele>
        <time>2023-05-20T09:58:19Z</time>
      </trkpt>
      <trkpt lat="47.98638" lon="6.94423">
        <ele>1091.4</ele>
        <time>2023-05-20T09:58:26Z</time>
      </trkpt>
      <trkpt lat="47.98629" lon="6.94413">
        <ele>1089.9</ele>
        <time>2023-05-20T09:58:36Z</time>
      </trkpt>
      <trkpt lat="47.98619" lon="6.94406">
        <ele>1089.1</ele>
        <time>2023-05-20T09:58:43Z</time>
      </trkpt>
      <trkpt lat="47.98615" lon="6.94397">
        <ele>1088.9</ele>
        <time>2023-05-20T09:58:50Z</time>
      </trkpt>
      <trkpt lat="47.9859" lon="6.94379">
        <ele>1086.4</ele>
        <time>2023-05-20T09:59:13Z</time>
      </trkpt>
      <trkpt lat="47.98586" lon="6.94373">
        <ele>1086.1</ele>
        <time>2023-05-20T09:59:17Z</time>
      </trkpt>
      <trkpt lat="47.98585" lon="6.94365">
        <ele>1086</ele>
        <time>2023-05-20T09:59:21Z</time>
      </trkpt>
      <trkpt lat="47.98572" lon="6.94336">
        <ele>1086.2</ele>
        <time>2023-05-20T09:59:40Z</time>
      </trkpt>
      <trkpt lat="47.98568" lon="6.94329">
        <ele>1086.3</ele>
        <time>2023-05-20T09:59:48Z</time>
      </trkpt>
      <trkpt lat="47.98564" lon="6.94327">
        <ele>1086.6</ele>
        <time>2023-05-20T09:59:52Z</time>
      </trkpt>
      <trkpt lat="47.98552" lon="6.94314">
        <ele>1086.6</ele>
        <time>2023-05-20T10:00:03Z</time>
      </trkpt>
      <trkpt lat="47.98548" lon="6.94309">
        <ele>1086.4</ele>
        <time>2023-05-20T10:00:08Z</time>
      </trkpt>
      <trkpt lat="47.98537" lon="6.94303">
        <ele>1086.5</ele>
        <time>2023-05-20T10:00:19Z</time>
      </trkpt>
      <trkpt lat="47.98533" lon="6.943">
        <ele>1086.5</ele>
        <time>2023-05-20T10:00:23Z</time>
      </trkpt>
      <trkpt lat="47.98529" lon="6.94298">
        <ele>1086.6</ele>
        <time>2023-05-20T10:00:26Z</time>
      </trkpt>
      <trkpt lat="47.9852" lon="6.94281">
        <ele>1086.3</ele>
        <time>2023-05-20T10:00:38Z</time>
      </trkpt>
      <trkpt lat="47.98513" lon="6.9427">
        <ele>1086.1</ele>
        <time>2023-05-20T10:00:48Z</time>
      </trkpt>
      <trkpt lat="47.98503" lon="6.94262">
        <ele>1086.7</ele>
        <time>2023-05-20T10:00:57Z</time>
      </trkpt>
      <trkpt lat="47.985" lon="6.94258">
        <ele>1087</ele>
        <time>2023-05-20T10:00:59Z</time>
      </trkpt>
      <trkpt lat="47.98498" lon="6.94251">
        <ele>1087.2</ele>
        <time>2023-05-20T10:01:04Z</time>
      </trkpt>
      <trkpt lat="47.98497" lon="6.94244">
        <ele>1086.9</ele>
        <time>2023-05-20T10:01:07Z</time>
      </trkpt>
      <trkpt lat="47.98493" lon="6.94238">
        <ele>1087.1</ele>
        <time>2023-05-20T10:01:10Z</time>
      </trkpt>
      <trkpt lat="47.98488" lon="6.94224">
        <ele>1087.2</ele>
        <time>2023-05-20T10:01:21Z</time>
      </trkpt>
      <trkpt lat="47.98485" lon="6.9422">
        <ele>1087.4</ele>
        <time>2023-05-20T10:01:24Z</time>
      </trkpt>
      <trkpt lat="47.98481" lon="6.94209">
        <ele>1086.8</ele>
        <time>2023-05-20T10:01:32Z</time>
      </trkpt>
      <trkpt lat="47.98478" lon="6.94204">
        <ele>1086.9</ele>
        <time>2023-05-20T10:01:35Z</time>
      </trkpt>
      <trkpt lat="47.98471" lon="6.94196">
        <ele>1087.3</ele>
        <time>2023-05-20T10:01:45Z</time>
      </trkpt>
      <trkpt lat="47.98464" lon="6.94192">
        <ele>1087.2</ele>
        <time>2023-05-20T10:01:53Z</time>
      </trkpt>
      <trkpt lat="47.9845" lon="6.94185">
        <ele>1087.2</ele>
        <time>2023-05-20T10:02:04Z</time>
      </trkpt>
      <trkpt lat="47.98444" lon="6.94187">
        <ele>1088</ele>
        <time>2023-05-20T10:02:08Z</time>
      </trkpt>
      <trkpt lat="47.98435" lon="6.94185">
        <ele>1088.3</ele>
        <time>2023-05-20T10:02:16Z</time>
      </trkpt>
      <trkpt lat="47.9843" lon="6.94182">
        <ele>1088.2</ele>
        <time>2023-05-20T10:02:20Z</time>
      </trkpt>
      <trkpt lat="47.98425" lon="6.94179">
        <ele>1088.2</ele>
        <time>2023-05-20T10:02:25Z</time>
      </trkpt>
      <trkpt lat="47.98422" lon="6.94174">
        <ele>1087.7</ele>
        <time>2023-05-20T10:02:29Z</time>
      </trkpt>
      <trkpt lat="47.98416" lon="6.94169">
        <ele>1087.4</ele>
        <time>2023-05-20T10:02:35Z</time>
      </trkpt>
      <trkpt lat="47.98411" lon="6.94165">
        <ele>1087.2</ele>
        <time>2023-05-20T10:02:43Z</time>
      </trkpt>
      <trkpt lat="47.98405" lon="6.94168">
        <ele>1088.1</ele>
        <time>2023-05-20T10:02:47Z</time>
      </trkpt>
      <trkpt lat="47.984" lon="6.94166">
        <ele>1088.1</ele>
        <time>2023-05-20T10:02:50Z</time>
      </trkpt>
      <trkpt lat="47.98396" lon="6.94163">
        <ele>1088.1</ele>
        <time>2023-05-20T10:02:53Z</time>
      </trkpt>
      <trkpt lat="47.98391" lon="6.94163">
        <ele>1088.4</ele>
        <time>2023-05-20T10:02:56Z</time>
      </trkpt>
      <trkpt lat="47.98367" lon="6.94155">
        <ele>1089.1</ele>
        <time>2023-05-20T10:03:17Z</time>
      </trkpt>
      <trkpt lat="47.98363" lon="6.94151">
        <ele>1088.5</ele>
        <time>2023-05-20T10:03:21Z</time>
      </trkpt>
      <trkpt lat="47.98357" lon="6.94147">
        <ele>1087.6</ele>
        <time>2023-05-20T10:03:28Z</time>
      </trkpt>
      <trkpt lat="47.98351" lon="6.94147">
        <ele>1087.5</ele>
        <time>2023-05-20T10:03:36Z</time>
      </trkpt>
      <trkpt lat="47.98347" lon="6.94145">
        <ele>1086.9</ele>
        <time>2023-05-20T10:03:40Z</time>
      </trkpt>
      <trkpt lat="47.98338" lon="6.94147">
        <ele>1087.2</ele>
        <time>2023-05-20T10:03:46Z</time>
      </trkpt>
      <trkpt lat="47.98334" lon="6.94144">
        <ele>1086.3</ele>
        <time>2023-05-20T10:03:51Z</time>
      </trkpt>
      <trkpt lat="47.98318" lon="6.94139">
        <ele>1084.5</ele>
        <time>2023-05-20T10:04:06Z</time>
      </trkpt>
      <trkpt lat="47.98302" lon="6.9414">
        <ele>1084.4</ele>
        <time>2023-05-20T10:04:16Z</time>
      </trkpt>
      <trkpt lat="47.98292" lon="6.94134">
        <ele>1083.7</ele>
        <time>2023-05-20T10:04:26Z</time>
      </trkpt>
      <trkpt lat="47.98282" lon="6.94132">
        <ele>1083.6</ele>
        <time>2023-05-20T10:04:34Z</time>
      </trkpt>
      <trkpt lat="47.98259" lon="6.94133">
        <ele>1083.4</ele>
        <time>2023-05-20T10:04:53Z</time>
      </trkpt>
      <trkpt lat="47.98251" lon="6.94125">
        <ele>1082</ele>
        <time>2023-05-20T10:05:00Z</time>
      </trkpt>
      <trkpt lat="47.98246" lon="6.94125">
        <ele>1082.1</ele>
        <time>2023-05-20T10:05:04Z</time>
      </trkpt>
      <trkpt lat="47.98242" lon="6.94122">
        <ele>1081.7</ele>
        <time>2023-05-20T10:05:08Z</time>
      </trkpt>
      <trkpt lat="47.98235" lon="6.94119">
        <ele>1081.3</ele>
        <time>2023-05-20T10:05:15Z</time>
      </trkpt>
      <trkpt lat="47.98226" lon="6.94118">
        <ele>1081.2</ele>
        <time>2023-05-20T10:05:21Z</time>
      </trkpt>
      <trkpt lat="47.98216" lon="6.94104">
        <ele>1079.1</ele>
        <time>2023-05-20T10:05:32Z</time>
      </trkpt>
      <trkpt lat="47.9819" lon="6.9408">
        <ele>1075.5</ele>
        <time>2023-05-20T10:06:01Z</time>
      </trkpt>
      <trkpt lat="47.98181" lon="6.94067">
        <ele>1073.4</ele>
        <time>2023-05-20T10:06:13Z</time>
      </trkpt>
      <trkpt lat="47.98176" lon="6.94064">
        <ele>1072.8</ele>
        <time>2023-05-20T10:06:17Z</time>
      </trkpt>
      <trkpt lat="47.98171" lon="6.94056">
        <ele>1071.2</ele>
        <time>2023-05-20T10:06:25Z</time>
      </trkpt>
      <trkpt lat="47.98166" lon="6.94055">
        <ele>1070.9</ele>
        <time>2023-05-20T10:06:30Z</time>
      </trkpt>
      <trkpt lat="47.98162" lon="6.94047">
        <ele>1069.7</ele>
        <time>2023-05-20T10:06:36Z</time>
      </trkpt>
      <trkpt lat="47.98136" lon="6.9403">
        <ele>1066.3</ele>
        <time>2023-05-20T10:07:01Z</time>
      </trkpt>
      <trkpt lat="47.98129" lon="6.9403">
        <ele>1066</ele>
        <time>2023-05-20T10:07:08Z</time>
      </trkpt>
      <trkpt lat="47.98116" lon="6.94021">
        <ele>1063.8</ele>
        <time>2023-05-20T10:07:22Z</time>
      </trkpt>
      <trkpt lat="47.98111" lon="6.94016">
        <ele>1062.4</ele>
        <time>2023-05-20T10:07:29Z</time>
      </trkpt>
      <trkpt lat="47.98104" lon="6.94017">
        <ele>1062.2</ele>
        <time>2023-05-20T10:07:36Z</time>
      </trkpt>
      <trkpt lat="47.98094" lon="6.94013">
        <ele>1060.6</ele>
        <time>2023-05-20T10:07:48Z</time>
      </trkpt>
      <trkpt lat="47.98077" lon="6.94013">
        <ele>1058.8</ele>
        <time>2023-05-20T10:08:09Z</time>
      </trkpt>
      <trkpt lat="47.98072" lon="6.94014">
        <ele>1058.2</ele>
        <time>2023-05-20T10:08:15Z</time>
      </trkpt>
      <trkpt lat="47.98068" lon="6.94018">
        <ele>1058.3</ele>
        <time>2023-05-20T10:08:19Z</time>
      </trkpt>
      <trkpt lat="47.98063" lon="6.94023">
        <ele>1058.4</ele>
        <time>2023-05-20T10:08:25Z</time>
      </trkpt>
      <trkpt lat="47.98051" lon="6.94029">
        <ele>1057.6</ele>
        <time>2023-05-20T10:08:36Z</time>
      </trkpt>
      <trkpt lat="47.98047" lon="6.94035">
        <ele>1058.1</ele>
        <time>2023-05-20T10:08:39Z</time>
      </trkpt>
      <trkpt lat="47.98035" lon="6.94053">
        <ele>1059.6</ele>
        <time>2023-05-20T10:08:57Z</time>
      </trkpt>
      <trkpt lat="47.9803" lon="6.94056">
        <ele>1059.4</ele>
        <time>2023-05-20T10:09:03Z</time>
      </trkpt>
      <trkpt lat="47.98007" lon="6.94061">
        <ele>1058.3</ele>
        <time>2023-05-20T10:09:18Z</time>
      </trkpt>
      <trkpt lat="47.97997" lon="6.94062">
        <ele>1058</ele>
        <time>2023-05-20T10:09:26Z</time>
      </trkpt>
      <trkpt lat="47.97991" lon="6.94058">
        <ele>1057.6</ele>
        <time>2023-05-20T10:09:29Z</time>
      </trkpt>
      <trkpt lat="47.97988" lon="6.94053">
        <ele>1057</ele>
        <time>2023-05-20T10:09:33Z</time>
      </trkpt>
      <trkpt lat="47.97982" lon="6.94049">
        <ele>1056.6</ele>
        <time>2023-05-20T10:09:38Z</time>
      </trkpt>
      <trkpt lat="47.9798" lon="6.94041">
        <ele>1055.5</ele>
        <time>2023-05-20T10:09:43Z</time>
      </trkpt>
      <trkpt lat="47.97976" lon="6.94026">
        <ele>1053.5</ele>
        <time>2023-05-20T10:09:53Z</time>
      </trkpt>
      <trkpt lat="47.97973" lon="6.9402">
        <ele>1053.1</ele>
        <time>2023-05-20T10:09:58Z</time>
      </trkpt>
      <trkpt lat="47.9797" lon="6.94012">
        <ele>1053</ele>
        <time>2023-05-20T10:10:04Z</time>
      </trkpt>
      <trkpt lat="47.97967" lon="6.94009">
        <ele>1053.7</ele>
        <time>2023-05-20T10:10:07Z</time>
      </trkpt>
      <trkpt lat="47.97962" lon="6.94002">
        <ele>1054.8</ele>
        <time>2023-05-20T10:10:15Z</time>
      </trkpt>
      <trkpt lat="47.97964" lon="6.93995">
        <ele>1053.7</ele>
        <time>2023-05-20T10:10:18Z</time>
      </trkpt>
      <trkpt lat="47.97964" lon="6.93987">
        <ele>1053.2</ele>
        <time>2023-05-20T10:10:22Z</time>
      </trkpt>
      <trkpt lat="47.97962" lon="6.93972">
        <ele>1053</ele>
        <time>2023-05-20T10:10:30Z</time>
      </trkpt>
      <trkpt lat="47.97958" lon="6.93933">
        <ele>1052</ele>
        <time>2023-05-20T10:10:53Z</time>
      </trkpt>
      <trkpt lat="47.97947" lon="6.93903">
        <ele>1053.3</ele>
        <time>2023-05-20T10:11:12Z</time>
      </trkpt>
      <trkpt lat="47.97945" lon="6.93881">
        <ele>1052.3</ele>
        <time>2023-05-20T10:11:23Z</time>
      </trkpt>
      <trkpt lat="47.97946" lon="6.93874">
        <ele>1051.4</ele>
        <time>2023-05-20T10:11:26Z</time>
      </trkpt>
      <trkpt lat="47.97944" lon="6.93861">
        <ele>1051.1</ele>
        <time>2023-05-20T10:11:32Z</time>
      </trkpt>
      <trkpt lat="47.97945" lon="6.93838">
        <ele>1048.3</ele>
        <time>2023-05-20T10:11:46Z</time>
      </trkpt>
      <trkpt lat="47.97943" lon="6.93794">
        <ele>1046</ele>
        <time>2023-05-20T10:12:10Z</time>
      </trkpt>
      <trkpt lat="47.97946" lon="6.93789">
        <ele>1045.1</ele>
        <time>2023-05-20T10:12:15Z</time>
      </trkpt>
      <trkpt lat="47.97947" lon="6.93745">
        <ele>1044.9</ele>
        <time>2023-05-20T10:12:47Z</time>
      </trkpt>
      <trkpt lat="47.97948" lon="6.93738">
        <ele>1044.3</ele>
        <time>2023-05-20T10:12:51Z</time>
      </trkpt>
      <trkpt lat="47.9795" lon="6.93732">
        <ele>1043.4</ele>
        <time>2023-05-20T10:12:55Z</time>
      </trkpt>
      <trkpt lat="47.97956" lon="6.93701">
        <ele>1040.5</ele>
        <time>2023-05-20T10:13:14Z</time>
      </trkpt>
      <trkpt lat="47.9796" lon="6.93689">
        <ele>1038.4</ele>
        <time>2023-05-20T10:13:22Z</time>
      </trkpt>
      <trkpt lat="47.97961" lon="6.93682">
        <ele>1037.5</ele>
        <time>2023-05-20T10:13:25Z</time>
      </trkpt>
      <trkpt lat="47.97961" lon="6.93676">
        <ele>1037.1</ele>
        <time>2023-05-20T10:13:29Z</time>
      </trkpt>
      <trkpt lat="47.97962" lon="6.93668">
        <ele>1036.1</ele>
        <time>2023-05-20T10:13:33Z</time>
      </trkpt>
      <trkpt lat="47.97958" lon="6.93635">
        <ele>1034.1</ele>
        <time>2023-05-20T10:13:53Z</time>
      </trkpt>
      <trkpt lat="47.97953" lon="6.93626">
        <ele>1034.9</ele>
        <time>2023-05-20T10:14:01Z</time>
      </trkpt>
      <trkpt lat="47.97945" lon="6.9361">
        <ele>1035.6</ele>
        <time>2023-05-20T10:14:13Z</time>
      </trkpt>
      <trkpt lat="47.97945" lon="6.93602">
        <ele>1034.2</ele>
        <time>2023-05-20T10:14:17Z</time>
      </trkpt>
      <trkpt lat="47.97931" lon="6.93574">
        <ele>1034</ele>
        <time>2023-05-20T10:14:40Z</time>
      </trkpt>
      <trkpt lat="47.9793" lon="6.93566">
        <ele>1032.7</ele>
        <time>2023-05-20T10:14:44Z</time>
      </trkpt>
      <trkpt lat="47.97931" lon="6.9356">
        <ele>1031.3</ele>
        <time>2023-05-20T10:14:48Z</time>
      </trkpt>
      <trkpt lat="47.97931" lon="6.93543">
        <ele>1029</ele>
        <time>2023-05-20T10:14:55Z</time>
      </trkpt>
      <trkpt lat="47.97927" lon="6.93539">
        <ele>1029.6</ele>
        <time>2023-05-20T10:14:59Z</time>
      </trkpt>
      <trkpt lat="47.97922" lon="6.9352">
        <ele>1028.8</ele>
        <time>2023-05-20T10:15:11Z</time>
      </trkpt>
      <trkpt lat="47.97919" lon="6.93507">
        <ele>1028.1</ele>
        <time>2023-05-20T10:15:19Z</time>
      </trkpt>
      <trkpt lat="47.97919" lon="6.93499">
        <ele>1027.1</ele>
        <time>2023-05-20T10:15:23Z</time>
      </trkpt>
      <trkpt lat="47.97916" lon="6.93494">
        <ele>1026.8</ele>
        <time>2023-05-20T10:15:26Z</time>
      </trkpt>
      <trkpt lat="47.97905" lon="6.9346">
        <ele>1021.1</ele>
        <time>2023-05-20T10:15:53Z</time>
      </trkpt>
      <trkpt lat="47.97902" lon="6.93456">
        <ele>1020.6</ele>
        <time>2023-05-20T10:15:57Z</time>
      </trkpt>
      <trkpt lat="47.97894" lon="6.93435">
        <ele>1017.2</ele>
        <time>2023-05-20T10:16:13Z</time>
      </trkpt>
      <trkpt lat="47.97891" lon="6.9343">
        <ele>1016.4</ele>
        <time>2023-05-20T10:16:16Z</time>
      </trkpt>
      <trkpt lat="47.97871" lon="6.93419">
        <ele>1014.5</ele>
        <time>2023-05-20T10:16:38Z</time>
      </trkpt>
      <trkpt lat="47.97868" lon="6.93414">
        <ele>1013.7</ele>
        <time>2023-05-20T10:16:42Z</time>
      </trkpt>
      <trkpt lat="47.97869" lon="6.93406">
        <ele>1012.9</ele>
        <time>2023-05-20T10:16:50Z</time>
      </trkpt>
      <trkpt lat="47.97873" lon="6.93409">
        <ele>1013.1</ele>
        <time>2023-05-20T10:17:19Z</time>
      </trkpt>
      <trkpt lat="47.97869" lon="6.93419">
        <ele>1014.5</ele>
        <time>2023-05-20T10:17:25Z</time>
      </trkpt>
      <trkpt lat="47.97864" lon="6.93422">
        <ele>1015.1</ele>
        <time>2023-05-20T10:17:26Z</time>
      </trkpt>
      <trkpt lat="47.9786" lon="6.9342">
        <ele>1014.8</ele>
        <time>2023-05-20T10:17:33Z</time>
      </trkpt>
      <trkpt lat="47.97846" lon="6.93412">
        <ele>1013.9</ele>
        <time>2023-05-20T10:17:48Z</time>
      </trkpt>
      <trkpt lat="47.9784" lon="6.93411">
        <ele>1013.9</ele>
        <time>2023-05-20T10:17:59Z</time>
      </trkpt>
      <trkpt lat="47.97814" lon="6.93416">
        <ele>1014.2</ele>
        <time>2023-05-20T10:18:18Z</time>
      </trkpt>
      <trkpt lat="47.9781" lon="6.93413">
        <ele>1013.4</ele>
        <time>2023-05-20T10:18:23Z</time>
      </trkpt>
      <trkpt lat="47.97805" lon="6.93415">
        <ele>1013.6</ele>
        <time>2023-05-20T10:18:27Z</time>
      </trkpt>
      <trkpt lat="47.97799" lon="6.93413">
        <ele>1012.5</ele>
        <time>2023-05-20T10:18:34Z</time>
      </trkpt>
      <trkpt lat="47.97794" lon="6.93414">
        <ele>1012.1</ele>
        <time>2023-05-20T10:18:40Z</time>
      </trkpt>
      <trkpt lat="47.9779" lon="6.93412">
        <ele>1011.2</ele>
        <time>2023-05-20T10:18:45Z</time>
      </trkpt>
      <trkpt lat="47.97785" lon="6.93414">
        <ele>1011.1</ele>
        <time>2023-05-20T10:18:49Z</time>
      </trkpt>
      <trkpt lat="47.97748" lon="6.93444">
        <ele>1012.3</ele>
        <time>2023-05-20T10:19:26Z</time>
      </trkpt>
      <trkpt lat="47.97746" lon="6.93452">
        <ele>1014.3</ele>
        <time>2023-05-20T10:19:31Z</time>
      </trkpt>
      <trkpt lat="47.97725" lon="6.93465">
        <ele>1012.5</ele>
        <time>2023-05-20T10:19:48Z</time>
      </trkpt>
      <trkpt lat="47.97707" lon="6.93483">
        <ele>1012.4</ele>
        <time>2023-05-20T10:20:03Z</time>
      </trkpt>
      <trkpt lat="47.977" lon="6.93489">
        <ele>1012.1</ele>
        <time>2023-05-20T10:20:12Z</time>
      </trkpt>
      <trkpt lat="47.97685" lon="6.93499">
        <ele>1011.3</ele>
        <time>2023-05-20T10:20:24Z</time>
      </trkpt>
      <trkpt lat="47.97676" lon="6.93503">
        <ele>1010.5</ele>
        <time>2023-05-20T10:20:32Z</time>
      </trkpt>
      <trkpt lat="47.97674" lon="6.9351">
        <ele>1012.8</ele>
        <time>2023-05-20T10:20:34Z</time>
      </trkpt>
      <trkpt lat="47.9767" lon="6.93513">
        <ele>1013</ele>
        <time>2023-05-20T10:20:38Z</time>
      </trkpt>
      <trkpt lat="47.97635" lon="6.93524">
        <ele>1011.5</ele>
        <time>2023-05-20T10:21:03Z</time>
      </trkpt>
      <trkpt lat="47.97616" lon="6.93536">
        <ele>1011.2</ele>
        <time>2023-05-20T10:21:24Z</time>
      </trkpt>
      <trkpt lat="47.97602" lon="6.93552">
        <ele>1013.8</ele>
        <time>2023-05-20T10:21:39Z</time>
      </trkpt>
      <trkpt lat="47.9757" lon="6.93569">
        <ele>1016.3</ele>
        <time>2023-05-20T10:22:02Z</time>
      </trkpt>
      <trkpt lat="47.97566" lon="6.93567">
        <ele>1015.7</ele>
        <time>2023-05-20T10:22:05Z</time>
      </trkpt>
      <trkpt lat="47.97561" lon="6.93567">
        <ele>1015.9</ele>
        <time>2023-05-20T10:22:08Z</time>
      </trkpt>
      <trkpt lat="47.97556" lon="6.93564">
        <ele>1015</ele>
        <time>2023-05-20T10:22:11Z</time>
      </trkpt>
      <trkpt lat="47.9755" lon="6.93554">
        <ele>1013.7</ele>
        <time>2023-05-20T10:22:17Z</time>
      </trkpt>
      <trkpt lat="47.97548" lon="6.93548">
        <ele>1013.9</ele>
        <time>2023-05-20T10:22:20Z</time>
      </trkpt>
      <trkpt lat="47.97544" lon="6.93527">
        <ele>1013.7</ele>
        <time>2023-05-20T10:22:31Z</time>
      </trkpt>
      <trkpt lat="47.97541" lon="6.93521">
        <ele>1014.2</ele>
        <time>2023-05-20T10:22:35Z</time>
      </trkpt>
      <trkpt lat="47.9754" lon="6.93514">
        <ele>1014</ele>
        <time>2023-05-20T10:22:39Z</time>
      </trkpt>
      <trkpt lat="47.97537" lon="6.9351">
        <ele>1014.7</ele>
        <time>2023-05-20T10:22:43Z</time>
      </trkpt>
      <trkpt lat="47.97534" lon="6.93497">
        <ele>1014.4</ele>
        <time>2023-05-20T10:22:51Z</time>
      </trkpt>
      <trkpt lat="47.97532" lon="6.93491">
        <ele>1013.8</ele>
        <time>2023-05-20T10:22:54Z</time>
      </trkpt>
      <trkpt lat="47.97529" lon="6.93486">
        <ele>1013.6</ele>
        <time>2023-05-20T10:22:57Z</time>
      </trkpt>
      <trkpt lat="47.97521" lon="6.93481">
        <ele>1014.1</ele>
        <time>2023-05-20T10:23:04Z</time>
      </trkpt>
      <trkpt lat="47.97517" lon="6.93475">
        <ele>1013.5</ele>
        <time>2023-05-20T10:23:08Z</time>
      </trkpt>
      <trkpt lat="47.97504" lon="6.93465">
        <ele>1014.2</ele>
        <time>2023-05-20T10:23:19Z</time>
      </trkpt>
      <trkpt lat="47.97487" lon="6.93438">
        <ele>1014.1</ele>
        <time>2023-05-20T10:23:39Z</time>
      </trkpt>
      <trkpt lat="47.97484" lon="6.93432">
        <ele>1014</ele>
        <time>2023-05-20T10:23:43Z</time>
      </trkpt>
      <trkpt lat="47.9748" lon="6.93428">
        <ele>1014</ele>
        <time>2023-05-20T10:23:46Z</time>
      </trkpt>
      <trkpt lat="47.97477" lon="6.93423">
        <ele>1013.6</ele>
        <time>2023-05-20T10:23:49Z</time>
      </trkpt>
      <trkpt lat="47.97473" lon="6.93417">
        <ele>1013</ele>
        <time>2023-05-20T10:23:53Z</time>
      </trkpt>
      <trkpt lat="47.97469" lon="6.93413">
        <ele>1013.3</ele>
        <time>2023-05-20T10:23:57Z</time>
      </trkpt>
      <trkpt lat="47.97467" lon="6.93406">
        <ele>1013.2</ele>
        <time>2023-05-20T10:24:01Z</time>
      </trkpt>
      <trkpt lat="47.97465" lon="6.934">
        <ele>1013.2</ele>
        <time>2023-05-20T10:24:04Z</time>
      </trkpt>
      <trkpt lat="47.97448" lon="6.93348">
        <ele>1012.8</ele>
        <time>2023-05-20T10:24:35Z</time>
      </trkpt>
      <trkpt lat="47.97435" lon="6.93327">
        <ele>1014</ele>
        <time>2023-05-20T10:24:51Z</time>
      </trkpt>
      <trkpt lat="47.9742" lon="6.93309">
        <ele>1014.9</ele>
        <time>2023-05-20T10:25:08Z</time>
      </trkpt>
      <trkpt lat="47.97412" lon="6.93305">
        <ele>1015</ele>
        <time>2023-05-20T10:25:16Z</time>
      </trkpt>
      <trkpt lat="47.97402" lon="6.93306">
        <ele>1015.6</ele>
        <time>2023-05-20T10:25:23Z</time>
      </trkpt>
      <trkpt lat="47.97397" lon="6.93304">
        <ele>1015.5</ele>
        <time>2023-05-20T10:25:27Z</time>
      </trkpt>
      <trkpt lat="47.97392" lon="6.93304">
        <ele>1015.7</ele>
        <time>2023-05-20T10:25:31Z</time>
      </trkpt>
      <trkpt lat="47.97388" lon="6.93299">
        <ele>1015.6</ele>
        <time>2023-05-20T10:25:35Z</time>
      </trkpt>
      <trkpt lat="47.97383" lon="6.93299">
        <ele>1016</ele>
        <time>2023-05-20T10:25:38Z</time>
      </trkpt>
      <trkpt lat="47.97379" lon="6.93293">
        <ele>1016.3</ele>
        <time>2023-05-20T10:25:42Z</time>
      </trkpt>
      <trkpt lat="47.97377" lon="6.93286">
        <ele>1016.5</ele>
        <time>2023-05-20T10:25:46Z</time>
      </trkpt>
      <trkpt lat="47.97371" lon="6.93274">
        <ele>1017.4</ele>
        <time>2023-05-20T10:25:53Z</time>
      </trkpt>
      <trkpt lat="47.9736" lon="6.93249">
        <ele>1017</ele>
        <time>2023-05-20T10:26:09Z</time>
      </trkpt>
      <trkpt lat="47.97338" lon="6.93214">
        <ele>1015.5</ele>
        <time>2023-05-20T10:26:37Z</time>
      </trkpt>
      <trkpt lat="47.97336" lon="6.93208">
        <ele>1015.1</ele>
        <time>2023-05-20T10:26:41Z</time>
      </trkpt>
      <trkpt lat="47.97331" lon="6.93205">
        <ele>1015.1</ele>
        <time>2023-05-20T10:26:45Z</time>
      </trkpt>
      <trkpt lat="47.97325" lon="6.93205">
        <ele>1015</ele>
        <time>2023-05-20T10:26:51Z</time>
      </trkpt>
      <trkpt lat="47.9732" lon="6.9321">
        <ele>1015.1</ele>
        <time>2023-05-20T10:27:04Z</time>
      </trkpt>
      <trkpt lat="47.97313" lon="6.93218">
        <ele>1014.8</ele>
        <time>2023-05-20T10:27:13Z</time>
      </trkpt>
      <trkpt lat="47.97309" lon="6.93228">
        <ele>1014.2</ele>
        <time>2023-05-20T10:27:23Z</time>
      </trkpt>
      <trkpt lat="47.97299" lon="6.93243">
        <ele>1012.4</ele>
        <time>2023-05-20T10:27:36Z</time>
      </trkpt>
      <trkpt lat="47.97288" lon="6.93242">
        <ele>1011.1</ele>
        <time>2023-05-20T10:27:44Z</time>
      </trkpt>
      <trkpt lat="47.97283" lon="6.9324">
        <ele>1010.7</ele>
        <time>2023-05-20T10:27:48Z</time>
      </trkpt>
      <trkpt lat="47.97277" lon="6.93237">
        <ele>1010.3</ele>
        <time>2023-05-20T10:27:51Z</time>
      </trkpt>
      <trkpt lat="47.97273" lon="6.93235">
        <ele>1010.2</ele>
        <time>2023-05-20T10:27:55Z</time>
      </trkpt>
      <trkpt lat="47.97257" lon="6.93239">
        <ele>1008.1</ele>
        <time>2023-05-20T10:28:08Z</time>
      </trkpt>
      <trkpt lat="47.97252" lon="6.93234">
        <ele>1008.6</ele>
        <time>2023-05-20T10:28:11Z</time>
      </trkpt>
      <trkpt lat="47.97247" lon="6.93231">
        <ele>1009.5</ele>
        <time>2023-05-20T10:28:15Z</time>
      </trkpt>
      <trkpt lat="47.97242" lon="6.9323">
        <ele>1010.4</ele>
        <time>2023-05-20T10:28:19Z</time>
      </trkpt>
      <trkpt lat="47.97237" lon="6.93238">
        <ele>1008.9</ele>
        <time>2023-05-20T10:28:28Z</time>
      </trkpt>
      <trkpt lat="47.97232" lon="6.93245">
        <ele>1007.2</ele>
        <time>2023-05-20T10:28:36Z</time>
      </trkpt>
      <trkpt lat="47.97222" lon="6.93249">
        <ele>1006.4</ele>
        <time>2023-05-20T10:28:46Z</time>
      </trkpt>
      <trkpt lat="47.97215" lon="6.9325">
        <ele>1006.5</ele>
        <time>2023-05-20T10:28:50Z</time>
      </trkpt>
      <trkpt lat="47.97211" lon="6.93252">
        <ele>1006.6</ele>
        <time>2023-05-20T10:28:54Z</time>
      </trkpt>
      <trkpt lat="47.97204" lon="6.93253">
        <ele>1007.1</ele>
        <time>2023-05-20T10:29:03Z</time>
      </trkpt>
      <trkpt lat="47.97196" lon="6.93246">
        <ele>1008.2</ele>
        <time>2023-05-20T10:29:13Z</time>
      </trkpt>
      <trkpt lat="47.97186" lon="6.93245">
        <ele>1009.6</ele>
        <time>2023-05-20T10:29:21Z</time>
      </trkpt>
      <trkpt lat="47.97179" lon="6.93242">
        <ele>1011</ele>
        <time>2023-05-20T10:29:31Z</time>
      </trkpt>
      <trkpt lat="47.97173" lon="6.93245">
        <ele>1011.6</ele>
        <time>2023-05-20T10:29:43Z</time>
      </trkpt>
      <trkpt lat="47.97166" lon="6.93248">
        <ele>1012.5</ele>
        <time>2023-05-20T10:29:49Z</time>
      </trkpt>
      <trkpt lat="47.97164" lon="6.93257">
        <ele>1013.3</ele>
        <time>2023-05-20T10:29:58Z</time>
      </trkpt>
      <trkpt lat="47.97166" lon="6.93262">
        <ele>1012.3</ele>
        <time>2023-05-20T10:30:02Z</time>
      </trkpt>
      <trkpt lat="47.97166" lon="6.93276">
        <ele>1012.4</ele>
        <time>2023-05-20T10:30:10Z</time>
      </trkpt>
      <trkpt lat="47.97165" lon="6.93285">
        <ele>1012.7</ele>
        <time>2023-05-20T10:30:17Z</time>
      </trkpt>
      <trkpt lat="47.97165" lon="6.93302">
        <ele>1012.1</ele>
        <time>2023-05-20T10:30:30Z</time>
      </trkpt>
      <trkpt lat="47.97163" lon="6.93309">
        <ele>1013.4</ele>
        <time>2023-05-20T10:30:33Z</time>
      </trkpt>
      <trkpt lat="47.97164" lon="6.93319">
        <ele>1013.4</ele>
        <time>2023-05-20T10:30:41Z</time>
      </trkpt>
      <trkpt lat="47.97163" lon="6.93326">
        <ele>1014.3</ele>
        <time>2023-05-20T10:30:45Z</time>
      </trkpt>
      <trkpt lat="47.97164" lon="6.93334">
        <ele>1014.3</ele>
        <time>2023-05-20T10:30:49Z</time>
      </trkpt>
      <trkpt lat="47.97163" lon="6.93341">
        <ele>1015.6</ele>
        <time>2023-05-20T10:30:53Z</time>
      </trkpt>
      <trkpt lat="47.97162" lon="6.93375">
        <ele>1018.4</ele>
        <time>2023-05-20T10:31:17Z</time>
      </trkpt>
      <trkpt lat="47.9716" lon="6.9338">
        <ele>1018.9</ele>
        <time>2023-05-20T10:31:21Z</time>
      </trkpt>
      <trkpt lat="47.97154" lon="6.93381">
        <ele>1019.9</ele>
        <time>2023-05-20T10:31:24Z</time>
      </trkpt>
      <trkpt lat="47.97149" lon="6.93376">
        <ele>1021</ele>
        <time>2023-05-20T10:31:27Z</time>
      </trkpt>
      <trkpt lat="47.97147" lon="6.93369">
        <ele>1021.6</ele>
        <time>2023-05-20T10:31:32Z</time>
      </trkpt>
      <trkpt lat="47.97145" lon="6.93361">
        <ele>1022.5</ele>
        <time>2023-05-20T10:31:37Z</time>
      </trkpt>
      <trkpt lat="47.97145" lon="6.93355">
        <ele>1022.6</ele>
        <time>2023-05-20T10:31:41Z</time>
      </trkpt>
      <trkpt lat="47.97142" lon="6.93335">
        <ele>1024.5</ele>
        <time>2023-05-20T10:31:54Z</time>
      </trkpt>
      <trkpt lat="47.9714" lon="6.93306">
        <ele>1027.3</ele>
        <time>2023-05-20T10:32:12Z</time>
      </trkpt>
      <trkpt lat="47.97138" lon="6.93298">
        <ele>1028.3</ele>
        <time>2023-05-20T10:32:19Z</time>
      </trkpt>
      <trkpt lat="47.97138" lon="6.93291">
        <ele>1028.1</ele>
        <time>2023-05-20T10:32:25Z</time>
      </trkpt>
      <trkpt lat="47.97135" lon="6.93283">
        <ele>1029.8</ele>
        <time>2023-05-20T10:32:31Z</time>
      </trkpt>
      <trkpt lat="47.97129" lon="6.93247">
        <ele>1031.6</ele>
        <time>2023-05-20T10:32:59Z</time>
      </trkpt>
      <trkpt lat="47.97118" lon="6.93218">
        <ele>1036.3</ele>
        <time>2023-05-20T10:33:25Z</time>
      </trkpt>
      <trkpt lat="47.97116" lon="6.93211">
        <ele>1037.1</ele>
        <time>2023-05-20T10:33:30Z</time>
      </trkpt>
      <trkpt lat="47.97107" lon="6.93198">
        <ele>1039.8</ele>
        <time>2023-05-20T10:33:51Z</time>
      </trkpt>
      <trkpt lat="47.971" lon="6.93193">
        <ele>1042.1</ele>
        <time>2023-05-20T10:34:03Z</time>
      </trkpt>
      <trkpt lat="47.97102" lon="6.93188">
        <ele>1041.7</ele>
        <time>2023-05-20T10:34:07Z</time>
      </trkpt>
      <trkpt lat="47.971" lon="6.93176">
        <ele>1042.9</ele>
        <time>2023-05-20T10:34:15Z</time>
      </trkpt>
      <trkpt lat="47.97102" lon="6.93168">
        <ele>1042.9</ele>
        <time>2023-05-20T10:34:20Z</time>
      </trkpt>
      <trkpt lat="47.97097" lon="6.9317">
        <ele>1043.9</ele>
        <time>2023-05-20T10:34:30Z</time>
      </trkpt>
      <trkpt lat="47.97091" lon="6.9317">
        <ele>1045.3</ele>
        <time>2023-05-20T10:34:36Z</time>
      </trkpt>
      <trkpt lat="47.97085" lon="6.93166">
        <ele>1046.7</ele>
        <time>2023-05-20T10:34:47Z</time>
      </trkpt>
      <trkpt lat="47.9708" lon="6.93158">
        <ele>1047.8</ele>
        <time>2023-05-20T10:35:00Z</time>
      </trkpt>
      <trkpt lat="47.97075" lon="6.93159">
        <ele>1047.9</ele>
        <time>2023-05-20T10:35:05Z</time>
      </trkpt>
      <trkpt lat="47.97073" lon="6.93167">
        <ele>1047</ele>
        <time>2023-05-20T10:35:15Z</time>
      </trkpt>
      <trkpt lat="47.97067" lon="6.93166">
        <ele>1047.1</ele>
        <time>2023-05-20T10:35:19Z</time>
      </trkpt>
      <trkpt lat="47.97065" lon="6.93161">
        <ele>1047.9</ele>
        <time>2023-05-20T10:35:23Z</time>
      </trkpt>
      <trkpt lat="47.97059" lon="6.93159">
        <ele>1048.5</ele>
        <time>2023-05-20T10:35:28Z</time>
      </trkpt>
      <trkpt lat="47.97048" lon="6.9316">
        <ele>1049.7</ele>
        <time>2023-05-20T10:35:38Z</time>
      </trkpt>
      <trkpt lat="47.97043" lon="6.93164">
        <ele>1049.5</ele>
        <time>2023-05-20T10:35:44Z</time>
      </trkpt>
      <trkpt lat="47.97039" lon="6.93166">
        <ele>1049.6</ele>
        <time>2023-05-20T10:35:48Z</time>
      </trkpt>
      <trkpt lat="47.97033" lon="6.93165">
        <ele>1050.8</ele>
        <time>2023-05-20T10:35:56Z</time>
      </trkpt>
      <trkpt lat="47.97025" lon="6.93167">
        <ele>1051.3</ele>
        <time>2023-05-20T10:36:04Z</time>
      </trkpt>
      <trkpt lat="47.97012" lon="6.93166">
        <ele>1053.5</ele>
        <time>2023-05-20T10:36:17Z</time>
      </trkpt>
      <trkpt lat="47.97" lon="6.93164">
        <ele>1055.7</ele>
        <time>2023-05-20T10:36:30Z</time>
      </trkpt>
      <trkpt lat="47.96995" lon="6.93165">
        <ele>1056.2</ele>
        <time>2023-05-20T10:36:37Z</time>
      </trkpt>
      <trkpt lat="47.96987" lon="6.93173">
        <ele>1056</ele>
        <time>2023-05-20T10:36:47Z</time>
      </trkpt>
      <trkpt lat="47.96979" lon="6.93176">
        <ele>1057.3</ele>
        <time>2023-05-20T10:36:56Z</time>
      </trkpt>
      <trkpt lat="47.96975" lon="6.93179">
        <ele>1057.9</ele>
        <time>2023-05-20T10:37:00Z</time>
      </trkpt>
      <trkpt lat="47.9697" lon="6.93178">
        <ele>1057.8</ele>
        <time>2023-05-20T10:37:04Z</time>
      </trkpt>
      <trkpt lat="47.96968" lon="6.93172">
        <ele>1057.4</ele>
        <time>2023-05-20T10:37:07Z</time>
      </trkpt>
      <trkpt lat="47.96965" lon="6.93162">
        <ele>1057.9</ele>
        <time>2023-05-20T10:37:14Z</time>
      </trkpt>
      <trkpt lat="47.96949" lon="6.93143">
        <ele>1056.9</ele>
        <time>2023-05-20T10:37:29Z</time>
      </trkpt>
      <trkpt lat="47.96946" lon="6.93134">
        <ele>1057.5</ele>
        <time>2023-05-20T10:37:40Z</time>
      </trkpt>
      <trkpt lat="47.96941" lon="6.93127">
        <ele>1057.8</ele>
        <time>2023-05-20T10:37:44Z</time>
      </trkpt>
      <trkpt lat="47.96939" lon="6.93112">
        <ele>1060.1</ele>
        <time>2023-05-20T10:37:53Z</time>
      </trkpt>
      <trkpt lat="47.96938" lon="6.93106">
        <ele>1060.4</ele>
        <time>2023-05-20T10:37:57Z</time>
      </trkpt>
      <trkpt lat="47.96938" lon="6.93094">
        <ele>1061.3</ele>
        <time>2023-05-20T10:38:07Z</time>
      </trkpt>
      <trkpt lat="47.9693" lon="6.93066">
        <ele>1063.7</ele>
        <time>2023-05-20T10:38:22Z</time>
      </trkpt>
      <trkpt lat="47.96924" lon="6.9306">
        <ele>1063.2</ele>
        <time>2023-05-20T10:38:26Z</time>
      </trkpt>
      <trkpt lat="47.9692" lon="6.93063">
        <ele>1061.9</ele>
        <time>2023-05-20T10:38:30Z</time>
      </trkpt>
      <trkpt lat="47.96916" lon="6.93059">
        <ele>1061.6</ele>
        <time>2023-05-20T10:38:37Z</time>
      </trkpt>
      <trkpt lat="47.96915" lon="6.93051">
        <ele>1063.3</ele>
        <time>2023-05-20T10:38:43Z</time>
      </trkpt>
      <trkpt lat="47.96904" lon="6.93049">
        <ele>1062.6</ele>
        <time>2023-05-20T10:38:54Z</time>
      </trkpt>
      <trkpt lat="47.96899" lon="6.93043">
        <ele>1063.1</ele>
        <time>2023-05-20T10:39:02Z</time>
      </trkpt>
      <trkpt lat="47.96895" lon="6.93035">
        <ele>1063.6</ele>
        <time>2023-05-20T10:39:10Z</time>
      </trkpt>
      <trkpt lat="47.96882" lon="6.93022">
        <ele>1066.3</ele>
        <time>2023-05-20T10:39:27Z</time>
      </trkpt>
      <trkpt lat="47.96876" lon="6.93012">
        <ele>1070.2</ele>
        <time>2023-05-20T10:39:35Z</time>
      </trkpt>
      <trkpt lat="47.9687" lon="6.93012">
        <ele>1071.6</ele>
        <time>2023-05-20T10:39:41Z</time>
      </trkpt>
      <trkpt lat="47.96872" lon="6.93024">
        <ele>1068.7</ele>
        <time>2023-05-20T10:39:55Z</time>
      </trkpt>
      <trkpt lat="47.96867" lon="6.93032">
        <ele>1068.1</ele>
        <time>2023-05-20T10:40:05Z</time>
      </trkpt>
      <trkpt lat="47.96863" lon="6.93036">
        <ele>1067.9</ele>
        <time>2023-05-20T10:40:09Z</time>
      </trkpt>
      <trkpt lat="47.96861" lon="6.93041">
        <ele>1066.8</ele>
        <time>2023-05-20T10:40:16Z</time>
      </trkpt>
      <trkpt lat="47.96854" lon="6.93053">
        <ele>1065.5</ele>
        <time>2023-05-20T10:40:25Z</time>
      </trkpt>
      <trkpt lat="47.96852" lon="6.93059">
        <ele>1064.7</ele>
        <time>2023-05-20T10:40:29Z</time>
      </trkpt>
      <trkpt lat="47.96846" lon="6.9306">
        <ele>1066.6</ele>
        <time>2023-05-20T10:40:31Z</time>
      </trkpt>
      <trkpt lat="47.96842" lon="6.93065">
        <ele>1066.9</ele>
        <time>2023-05-20T10:40:34Z</time>
      </trkpt>
      <trkpt lat="47.96831" lon="6.93064">
        <ele>1070.6</ele>
        <time>2023-05-20T10:40:41Z</time>
      </trkpt>
      <trkpt lat="47.9682" lon="6.93069">
        <ele>1073.1</ele>
        <time>2023-05-20T10:40:55Z</time>
      </trkpt>
      <trkpt lat="47.96814" lon="6.93069">
        <ele>1075.2</ele>
        <time>2023-05-20T10:41:01Z</time>
      </trkpt>
      <trkpt lat="47.96809" lon="6.93079">
        <ele>1075.3</ele>
        <time>2023-05-20T10:41:08Z</time>
      </trkpt>
      <trkpt lat="47.96797" lon="6.93082">
        <ele>1079.8</ele>
        <time>2023-05-20T10:41:16Z</time>
      </trkpt>
      <trkpt lat="47.96792" lon="6.93085">
        <ele>1082</ele>
        <time>2023-05-20T10:41:29Z</time>
      </trkpt>
      <trkpt lat="47.96788" lon="6.9309">
        <ele>1084.2</ele>
        <time>2023-05-20T10:41:31Z</time>
      </trkpt>
      <trkpt lat="47.96782" lon="6.93079">
        <ele>1086.3</ele>
        <time>2023-05-20T10:41:47Z</time>
      </trkpt>
      <trkpt lat="47.96782" lon="6.93071">
        <ele>1086.4</ele>
        <time>2023-05-20T10:41:50Z</time>
      </trkpt>
      <trkpt lat="47.96787" lon="6.93065">
        <ele>1084.9</ele>
        <time>2023-05-20T10:41:53Z</time>
      </trkpt>
      <trkpt lat="47.96789" lon="6.93058">
        <ele>1084.6</ele>
        <time>2023-05-20T10:41:56Z</time>
      </trkpt>
      <trkpt lat="47.9679" lon="6.93051">
        <ele>1085.3</ele>
        <time>2023-05-20T10:42:00Z</time>
      </trkpt>
      <trkpt lat="47.9679" lon="6.93036">
        <ele>1087.9</ele>
        <time>2023-05-20T10:42:06Z</time>
      </trkpt>
      <trkpt lat="47.96792" lon="6.9303">
        <ele>1088.5</ele>
        <time>2023-05-20T10:42:11Z</time>
      </trkpt>
      <trkpt lat="47.96797" lon="6.93017">
        <ele>1089.8</ele>
        <time>2023-05-20T10:42:20Z</time>
      </trkpt>
      <trkpt lat="47.96791" lon="6.93018">
        <ele>1090.7</ele>
        <time>2023-05-20T10:42:27Z</time>
      </trkpt>
      <trkpt lat="47.96776" lon="6.93046">
        <ele>1090.1</ele>
        <time>2023-05-20T10:42:48Z</time>
      </trkpt>
      <trkpt lat="47.96772" lon="6.93043">
        <ele>1092.1</ele>
        <time>2023-05-20T10:42:52Z</time>
      </trkpt>
      <trkpt lat="47.96769" lon="6.93035">
        <ele>1094.1</ele>
        <time>2023-05-20T10:42:56Z</time>
      </trkpt>
      <trkpt lat="47.9677" lon="6.93021">
        <ele>1095.1</ele>
        <time>2023-05-20T10:43:03Z</time>
      </trkpt>
      <trkpt lat="47.96772" lon="6.93014">
        <ele>1095.2</ele>
        <time>2023-05-20T10:43:07Z</time>
      </trkpt>
      <trkpt lat="47.96773" lon="6.93005">
        <ele>1095.7</ele>
        <time>2023-05-20T10:43:12Z</time>
      </trkpt>
      <trkpt lat="47.96771" lon="6.92994">
        <ele>1097</ele>
        <time>2023-05-20T10:43:22Z</time>
      </trkpt>
      <trkpt lat="47.96767" lon="6.92985">
        <ele>1098.5</ele>
        <time>2023-05-20T10:43:31Z</time>
      </trkpt>
      <trkpt lat="47.96762" lon="6.92984">
        <ele>1099.9</ele>
        <time>2023-05-20T10:43:39Z</time>
      </trkpt>
      <trkpt lat="47.96759" lon="6.92988">
        <ele>1100.5</ele>
        <time>2023-05-20T10:43:43Z</time>
      </trkpt>
      <trkpt lat="47.9675" lon="6.93003">
        <ele>1101.9</ele>
        <time>2023-05-20T10:44:02Z</time>
      </trkpt>
      <trkpt lat="47.96747" lon="6.93009">
        <ele>1102.2</ele>
        <time>2023-05-20T10:44:06Z</time>
      </trkpt>
      <trkpt lat="47.96741" lon="6.93031">
        <ele>1102</ele>
        <time>2023-05-20T10:44:23Z</time>
      </trkpt>
      <trkpt lat="47.96735" lon="6.93032">
        <ele>1102.8</ele>
        <time>2023-05-20T10:44:28Z</time>
      </trkpt>
      <trkpt lat="47.96722" lon="6.93006">
        <ele>1107.1</ele>
        <time>2023-05-20T10:44:47Z</time>
      </trkpt>
      <trkpt lat="47.96723" lon="6.92998">
        <ele>1108.2</ele>
        <time>2023-05-20T10:44:52Z</time>
      </trkpt>
      <trkpt lat="47.96718" lon="6.92992">
        <ele>1109.5</ele>
        <time>2023-05-20T10:44:59Z</time>
      </trkpt>
      <trkpt lat="47.96716" lon="6.92985">
        <ele>1111.2</ele>
        <time>2023-05-20T10:45:09Z</time>
      </trkpt>
      <trkpt lat="47.96717" lon="6.92977">
        <ele>1113</ele>
        <time>2023-05-20T10:45:13Z</time>
      </trkpt>
      <trkpt lat="47.96713" lon="6.9297">
        <ele>1115.1</ele>
        <time>2023-05-20T10:45:18Z</time>
      </trkpt>
      <trkpt lat="47.96707" lon="6.92966">
        <ele>1116.5</ele>
        <time>2023-05-20T10:45:29Z</time>
      </trkpt>
      <trkpt lat="47.96704" lon="6.92954">
        <ele>1117.6</ele>
        <time>2023-05-20T10:45:39Z</time>
      </trkpt>
      <trkpt lat="47.96698" lon="6.92953">
        <ele>1118.9</ele>
        <time>2023-05-20T10:45:48Z</time>
      </trkpt>
      <trkpt lat="47.96694" lon="6.92959">
        <ele>1119.5</ele>
        <time>2023-05-20T10:45:58Z</time>
      </trkpt>
      <trkpt lat="47.96689" lon="6.92957">
        <ele>1120.5</ele>
        <time>2023-05-20T10:46:03Z</time>
      </trkpt>
      <trkpt lat="47.96672" lon="6.92926">
        <ele>1127.4</ele>
        <time>2023-05-20T10:46:41Z</time>
      </trkpt>
      <trkpt lat="47.96668" lon="6.92925">
        <ele>1128.9</ele>
        <time>2023-05-20T10:46:44Z</time>
      </trkpt>
      <trkpt lat="47.96665" lon="6.92918">
        <ele>1129.8</ele>
        <time>2023-05-20T10:46:50Z</time>
      </trkpt>
      <trkpt lat="47.96657" lon="6.92918">
        <ele>1129.5</ele>
        <time>2023-05-20T10:47:00Z</time>
      </trkpt>
      <trkpt lat="47.96649" lon="6.92908">
        <ele>1129.7</ele>
        <time>2023-05-20T10:47:15Z</time>
      </trkpt>
      <trkpt lat="47.96647" lon="6.92902">
        <ele>1130.1</ele>
        <time>2023-05-20T10:47:21Z</time>
      </trkpt>
      <trkpt lat="47.96645" lon="6.92896">
        <ele>1130.6</ele>
        <time>2023-05-20T10:47:26Z</time>
      </trkpt>
      <trkpt lat="47.96639" lon="6.92892">
        <ele>1131.7</ele>
        <time>2023-05-20T10:47:38Z</time>
      </trkpt>
      <trkpt lat="47.96634" lon="6.92888">
        <ele>1130.7</ele>
        <time>2023-05-20T10:47:44Z</time>
      </trkpt>
      <trkpt lat="47.96629" lon="6.92889">
        <ele>1129.5</ele>
        <time>2023-05-20T10:47:52Z</time>
      </trkpt>
      <trkpt lat="47.96621" lon="6.92889">
        <ele>1127.5</ele>
        <time>2023-05-20T10:48:05Z</time>
      </trkpt>
      <trkpt lat="47.96618" lon="6.92885">
        <ele>1126.6</ele>
        <time>2023-05-20T10:48:10Z</time>
      </trkpt>
      <trkpt lat="47.96614" lon="6.92889">
        <ele>1125.7</ele>
        <time>2023-05-20T10:48:16Z</time>
      </trkpt>
      <trkpt lat="47.9661" lon="6.92883">
        <ele>1124.7</ele>
        <time>2023-05-20T10:48:31Z</time>
      </trkpt>
      <trkpt lat="47.96604" lon="6.92878">
        <ele>1123</ele>
        <time>2023-05-20T10:48:43Z</time>
      </trkpt>
      <trkpt lat="47.96598" lon="6.92876">
        <ele>1121.4</ele>
        <time>2023-05-20T10:48:51Z</time>
      </trkpt>
      <trkpt lat="47.96592" lon="6.92871">
        <ele>1120.1</ele>
        <time>2023-05-20T10:48:58Z</time>
      </trkpt>
      <trkpt lat="47.96584" lon="6.92874">
        <ele>1117.8</ele>
        <time>2023-05-20T10:49:08Z</time>
      </trkpt>
      <trkpt lat="47.9658" lon="6.92871">
        <ele>1117.7</ele>
        <time>2023-05-20T10:49:13Z</time>
      </trkpt>
      <trkpt lat="47.96577" lon="6.92866">
        <ele>1118</ele>
        <time>2023-05-20T10:49:17Z</time>
      </trkpt>
      <trkpt lat="47.96575" lon="6.9286">
        <ele>1118.4</ele>
        <time>2023-05-20T10:49:20Z</time>
      </trkpt>
      <trkpt lat="47.9657" lon="6.92857">
        <ele>1118</ele>
        <time>2023-05-20T10:49:23Z</time>
      </trkpt>
      <trkpt lat="47.96565" lon="6.92855">
        <ele>1117.8</ele>
        <time>2023-05-20T10:49:27Z</time>
      </trkpt>
      <trkpt lat="47.96561" lon="6.9285">
        <ele>1117.6</ele>
        <time>2023-05-20T10:49:31Z</time>
      </trkpt>
      <trkpt lat="47.96559" lon="6.92845">
        <ele>1117.7</ele>
        <time>2023-05-20T10:49:34Z</time>
      </trkpt>
      <trkpt lat="47.96555" lon="6.92843">
        <ele>1117.7</ele>
        <time>2023-05-20T10:49:38Z</time>
      </trkpt>
      <trkpt lat="47.96544" lon="6.92843">
        <ele>1118.5</ele>
        <time>2023-05-20T10:49:50Z</time>
      </trkpt>
      <trkpt lat="47.96533" lon="6.92839">
        <ele>1119.4</ele>
        <time>2023-05-20T10:50:01Z</time>
      </trkpt>
      <trkpt lat="47.96526" lon="6.92838">
        <ele>1119.8</ele>
        <time>2023-05-20T10:50:09Z</time>
      </trkpt>
      <trkpt lat="47.96522" lon="6.92837">
        <ele>1119.9</ele>
        <time>2023-05-20T10:50:13Z</time>
      </trkpt>
      <trkpt lat="47.96488" lon="6.92846">
        <ele>1120.4</ele>
        <time>2023-05-20T10:50:48Z</time>
      </trkpt>
      <trkpt lat="47.96484" lon="6.92848">
        <ele>1120.6</ele>
        <time>2023-05-20T10:50:52Z</time>
      </trkpt>
      <trkpt lat="47.96462" lon="6.92849">
        <ele>1121.7</ele>
        <time>2023-05-20T10:51:08Z</time>
      </trkpt>
      <trkpt lat="47.96457" lon="6.92852">
        <ele>1122.1</ele>
        <time>2023-05-20T10:51:10Z</time>
      </trkpt>
      <trkpt lat="47.96451" lon="6.92851">
        <ele>1122.5</ele>
        <time>2023-05-20T10:51:14Z</time>
      </trkpt>
      <trkpt lat="47.96447" lon="6.92853">
        <ele>1122.8</ele>
        <time>2023-05-20T10:51:17Z</time>
      </trkpt>
      <trkpt lat="47.96441" lon="6.92853">
        <ele>1123.3</ele>
        <time>2023-05-20T10:51:20Z</time>
      </trkpt>
      <trkpt lat="47.96434" lon="6.92848">
        <ele>1123.9</ele>
        <time>2023-05-20T10:51:27Z</time>
      </trkpt>
      <trkpt lat="47.96429" lon="6.92849">
        <ele>1124.4</ele>
        <time>2023-05-20T10:51:31Z</time>
      </trkpt>
      <trkpt lat="47.96424" lon="6.92848">
        <ele>1124.8</ele>
        <time>2023-05-20T10:51:33Z</time>
      </trkpt>
      <trkpt lat="47.9642" lon="6.92849">
        <ele>1125.1</ele>
        <time>2023-05-20T10:51:36Z</time>
      </trkpt>
      <trkpt lat="47.96407" lon="6.92851">
        <ele>1126.5</ele>
        <time>2023-05-20T10:51:51Z</time>
      </trkpt>
      <trkpt lat="47.96403" lon="6.92845">
        <ele>1127.3</ele>
        <time>2023-05-20T10:51:54Z</time>
      </trkpt>
      <trkpt lat="47.96394" lon="6.92842">
        <ele>1128.7</ele>
        <time>2023-05-20T10:52:02Z</time>
      </trkpt>
      <trkpt lat="47.9639" lon="6.92843">
        <ele>1129.2</ele>
        <time>2023-05-20T10:52:06Z</time>
      </trkpt>
      <trkpt lat="47.96366" lon="6.92841">
        <ele>1133</ele>
        <time>2023-05-20T10:52:35Z</time>
      </trkpt>
      <trkpt lat="47.96357" lon="6.92831">
        <ele>1134.5</ele>
        <time>2023-05-20T10:52:43Z</time>
      </trkpt>
      <trkpt lat="47.96344" lon="6.92823">
        <ele>1136.2</ele>
        <time>2023-05-20T10:52:59Z</time>
      </trkpt>
      <trkpt lat="47.96339" lon="6.92824">
        <ele>1136.7</ele>
        <time>2023-05-20T10:53:05Z</time>
      </trkpt>
      <trkpt lat="47.96334" lon="6.92822">
        <ele>1137.3</ele>
        <time>2023-05-20T10:53:09Z</time>
      </trkpt>
      <trkpt lat="47.9633" lon="6.92817">
        <ele>1137.8</ele>
        <time>2023-05-20T10:53:13Z</time>
      </trkpt>
      <trkpt lat="47.96321" lon="6.92814">
        <ele>1138.6</ele>
        <time>2023-05-20T10:53:20Z</time>
      </trkpt>
      <trkpt lat="47.96316" lon="6.92814">
        <ele>1138.9</ele>
        <time>2023-05-20T10:53:25Z</time>
      </trkpt>
      <trkpt lat="47.96307" lon="6.92822">
        <ele>1139.3</ele>
        <time>2023-05-20T10:53:36Z</time>
      </trkpt>
      <trkpt lat="47.96296" lon="6.92823">
        <ele>1140.4</ele>
        <time>2023-05-20T10:53:45Z</time>
      </trkpt>
      <trkpt lat="47.96291" lon="6.92821">
        <ele>1141</ele>
        <time>2023-05-20T10:53:49Z</time>
      </trkpt>
      <trkpt lat="47.96277" lon="6.92826">
        <ele>1142.5</ele>
        <time>2023-05-20T10:54:01Z</time>
      </trkpt>
      <trkpt lat="47.96266" lon="6.92825">
        <ele>1146.2</ele>
        <time>2023-05-20T10:54:16Z</time>
      </trkpt>
      <trkpt lat="47.96262" lon="6.9283">
        <ele>1147.3</ele>
        <time>2023-05-20T10:54:21Z</time>
      </trkpt>
      <trkpt lat="47.96255" lon="6.92832">
        <ele>1149.5</ele>
        <time>2023-05-20T10:54:33Z</time>
      </trkpt>
      <trkpt lat="47.96252" lon="6.92827">
        <ele>1150.8</ele>
        <time>2023-05-20T10:54:36Z</time>
      </trkpt>
      <trkpt lat="47.96244" lon="6.92829">
        <ele>1152.6</ele>
        <time>2023-05-20T10:54:53Z</time>
      </trkpt>
      <trkpt lat="47.96239" lon="6.92827">
        <ele>1153.9</ele>
        <time>2023-05-20T10:55:00Z</time>
      </trkpt>
      <trkpt lat="47.96234" lon="6.92832">
        <ele>1154.6</ele>
        <time>2023-05-20T10:55:04Z</time>
      </trkpt>
      <trkpt lat="47.96228" lon="6.92824">
        <ele>1156.7</ele>
        <time>2023-05-20T10:55:14Z</time>
      </trkpt>
      <trkpt lat="47.96227" lon="6.92818">
        <ele>1157.5</ele>
        <time>2023-05-20T10:55:18Z</time>
      </trkpt>
      <trkpt lat="47.96221" lon="6.92818">
        <ele>1158.9</ele>
        <time>2023-05-20T10:55:24Z</time>
      </trkpt>
      <trkpt lat="47.96213" lon="6.92825">
        <ele>1159.8</ele>
        <time>2023-05-20T10:55:37Z</time>
      </trkpt>
      <trkpt lat="47.9621" lon="6.92822">
        <ele>1160.7</ele>
        <time>2023-05-20T10:55:39Z</time>
      </trkpt>
      <trkpt lat="47.96202" lon="6.92825">
        <ele>1162</ele>
        <time>2023-05-20T10:56:22Z</time>
      </trkpt>
      <trkpt lat="47.96198" lon="6.92829">
        <ele>1162.6</ele>
        <time>2023-05-20T10:56:27Z</time>
      </trkpt>
      <trkpt lat="47.96193" lon="6.92823">
        <ele>1163.8</ele>
        <time>2023-05-20T10:56:35Z</time>
      </trkpt>
      <trkpt lat="47.96189" lon="6.92819">
        <ele>1164.1</ele>
        <time>2023-05-20T10:56:41Z</time>
      </trkpt>
      <trkpt lat="47.96176" lon="6.92815">
        <ele>1165</ele>
        <time>2023-05-20T10:57:01Z</time>
      </trkpt>
      <trkpt lat="47.9617" lon="6.92804">
        <ele>1166.8</ele>
        <time>2023-05-20T10:57:10Z</time>
      </trkpt>
      <trkpt lat="47.96162" lon="6.9279">
        <ele>1166.9</ele>
        <time>2023-05-20T10:57:23Z</time>
      </trkpt>
      <trkpt lat="47.96159" lon="6.92774">
        <ele>1167.5</ele>
        <time>2023-05-20T10:57:31Z</time>
      </trkpt>
      <trkpt lat="47.96154" lon="6.92767">
        <ele>1167.4</ele>
        <time>2023-05-20T10:57:38Z</time>
      </trkpt>
      <trkpt lat="47.96151" lon="6.92761">
        <ele>1167.6</ele>
        <time>2023-05-20T10:57:42Z</time>
      </trkpt>
      <trkpt lat="47.96139" lon="6.92739">
        <ele>1169.8</ele>
        <time>2023-05-20T10:57:59Z</time>
      </trkpt>
      <trkpt lat="47.96131" lon="6.92724">
        <ele>1169.7</ele>
        <time>2023-05-20T10:58:16Z</time>
      </trkpt>
      <trkpt lat="47.9613" lon="6.92717">
        <ele>1170.4</ele>
        <time>2023-05-20T10:58:19Z</time>
      </trkpt>
      <trkpt lat="47.96119" lon="6.92709">
        <ele>1170.8</ele>
        <time>2023-05-20T10:58:33Z</time>
      </trkpt>
      <trkpt lat="47.96114" lon="6.92696">
        <ele>1173.5</ele>
        <time>2023-05-20T10:58:40Z</time>
      </trkpt>
      <trkpt lat="47.9611" lon="6.92691">
        <ele>1174.2</ele>
        <time>2023-05-20T10:58:43Z</time>
      </trkpt>
      <trkpt lat="47.9611" lon="6.92684">
        <ele>1175</ele>
        <time>2023-05-20T10:58:48Z</time>
      </trkpt>
      <trkpt lat="47.96105" lon="6.92675">
        <ele>1175.7</ele>
        <time>2023-05-20T10:58:59Z</time>
      </trkpt>
      <trkpt lat="47.96103" lon="6.92667">
        <ele>1176.7</ele>
        <time>2023-05-20T10:59:05Z</time>
      </trkpt>
      <trkpt lat="47.96097" lon="6.9266">
        <ele>1177.1</ele>
        <time>2023-05-20T10:59:16Z</time>
      </trkpt>
      <trkpt lat="47.96096" lon="6.92653">
        <ele>1177.8</ele>
        <time>2023-05-20T10:59:21Z</time>
      </trkpt>
      <trkpt lat="47.96091" lon="6.92649">
        <ele>1178.3</ele>
        <time>2023-05-20T10:59:24Z</time>
      </trkpt>
      <trkpt lat="47.96087" lon="6.92636">
        <ele>1180</ele>
        <time>2023-05-20T10:59:32Z</time>
      </trkpt>
      <trkpt lat="47.96083" lon="6.9263">
        <ele>1181</ele>
        <time>2023-05-20T10:59:38Z</time>
      </trkpt>
      <trkpt lat="47.9608" lon="6.92624">
        <ele>1181.8</ele>
        <time>2023-05-20T10:59:43Z</time>
      </trkpt>
      <trkpt lat="47.96078" lon="6.92619">
        <ele>1182.5</ele>
        <time>2023-05-20T10:59:51Z</time>
      </trkpt>
      <trkpt lat="47.96075" lon="6.92612">
        <ele>1183.5</ele>
        <time>2023-05-20T10:59:57Z</time>
      </trkpt>
      <trkpt lat="47.9607" lon="6.9261">
        <ele>1184.1</ele>
        <time>2023-05-20T11:00:00Z</time>
      </trkpt>
      <trkpt lat="47.96068" lon="6.92604">
        <ele>1184.9</ele>
        <time>2023-05-20T11:00:03Z</time>
      </trkpt>
      <trkpt lat="47.96064" lon="6.926">
        <ele>1185.7</ele>
        <time>2023-05-20T11:00:10Z</time>
      </trkpt>
      <trkpt lat="47.96059" lon="6.92603">
        <ele>1185.8</ele>
        <time>2023-05-20T11:00:14Z</time>
      </trkpt>
      <trkpt lat="47.96057" lon="6.92594">
        <ele>1187.3</ele>
        <time>2023-05-20T11:00:21Z</time>
      </trkpt>
      <trkpt lat="47.96058" lon="6.92586">
        <ele>1188.3</ele>
        <time>2023-05-20T11:00:25Z</time>
      </trkpt>
      <trkpt lat="47.96054" lon="6.92581">
        <ele>1189.7</ele>
        <time>2023-05-20T11:00:33Z</time>
      </trkpt>
      <trkpt lat="47.96052" lon="6.92575">
        <ele>1190.8</ele>
        <time>2023-05-20T11:00:39Z</time>
      </trkpt>
      <trkpt lat="47.96036" lon="6.92583">
        <ele>1194.7</ele>
        <time>2023-05-20T11:01:09Z</time>
      </trkpt>
      <trkpt lat="47.96032" lon="6.9258">
        <ele>1195.9</ele>
        <time>2023-05-20T11:01:14Z</time>
      </trkpt>
      <trkpt lat="47.96022" lon="6.92576">
        <ele>1198</ele>
        <time>2023-05-20T11:01:25Z</time>
      </trkpt>
      <trkpt lat="47.96018" lon="6.92573">
        <ele>1198.6</ele>
        <time>2023-05-20T11:01:29Z</time>
      </trkpt>
      <trkpt lat="47.96011" lon="6.92563">
        <ele>1199.7</ele>
        <time>2023-05-20T11:01:37Z</time>
      </trkpt>
      <trkpt lat="47.96005" lon="6.92556">
        <ele>1200.5</ele>
        <time>2023-05-20T11:01:44Z</time>
      </trkpt>
      <trkpt lat="47.96" lon="6.92553">
        <ele>1201</ele>
        <time>2023-05-20T11:01:50Z</time>
      </trkpt>
      <trkpt lat="47.95983" lon="6.92553">
        <ele>1202.2</ele>
        <time>2023-05-20T11:02:07Z</time>
      </trkpt>
      <trkpt lat="47.95955" lon="6.92552">
        <ele>1203.6</ele>
        <time>2023-05-20T11:02:41Z</time>
      </trkpt>
      <trkpt lat="47.95951" lon="6.92547">
        <ele>1203.8</ele>
        <time>2023-05-20T11:02:49Z</time>
      </trkpt>
      <trkpt lat="47.95946" lon="6.92547">
        <ele>1203.9</ele>
        <time>2023-05-20T11:03:51Z</time>
      </trkpt>
      <trkpt lat="47.9595" lon="6.92505">
        <ele>1203</ele>
        <time>2023-05-20T11:05:36Z</time>
      </trkpt>
      <trkpt lat="47.95951" lon="6.92504">
        <ele>1202.9</ele>
        <time>2023-05-20T11:05:37Z</time>
      </trkpt>
      <trkpt lat="47.95953" lon="6.92485">
        <ele>1201.8</ele>
        <time>2023-05-20T11:05:48Z</time>
      </trkpt>
      <trkpt lat="47.95956" lon="6.92479">
        <ele>1201.4</ele>
        <time>2023-05-20T11:05:52Z</time>
      </trkpt>
      <trkpt lat="47.95962" lon="6.92421">
        <ele>1197.3</ele>
        <time>2023-05-20T11:06:26Z</time>
      </trkpt>
      <trkpt lat="47.95971" lon="6.92368">
        <ele>1191</ele>
        <time>2023-05-20T11:07:03Z</time>
      </trkpt>
      <trkpt lat="47.95973" lon="6.9236">
        <ele>1189.8</ele>
        <time>2023-05-20T11:07:10Z</time>
      </trkpt>
      <trkpt lat="47.95976" lon="6.92355">
        <ele>1188.8</ele>
        <time>2023-05-20T11:07:15Z</time>
      </trkpt>
      <trkpt lat="47.95976" lon="6.92348">
        <ele>1187.8</ele>
        <time>2023-05-20T11:07:21Z</time>
      </trkpt>
      <trkpt lat="47.95975" lon="6.9234">
        <ele>1186.7</ele>
        <time>2023-05-20T11:07:26Z</time>
      </trkpt>
      <trkpt lat="47.95979" lon="6.92327">
        <ele>1184.5</ele>
        <time>2023-05-20T11:07:36Z</time>
      </trkpt>
      <trkpt lat="47.95981" lon="6.92319">
        <ele>1183.3</ele>
        <time>2023-05-20T11:07:43Z</time>
      </trkpt>
      <trkpt lat="47.95986" lon="6.92306">
        <ele>1181.6</ele>
        <time>2023-05-20T11:07:51Z</time>
      </trkpt>
      <trkpt lat="47.95987" lon="6.9229">
        <ele>1179.2</ele>
        <time>2023-05-20T11:08:03Z</time>
      </trkpt>
      <trkpt lat="47.9599" lon="6.92282">
        <ele>1178</ele>
        <time>2023-05-20T11:08:11Z</time>
      </trkpt>
      <trkpt lat="47.9599" lon="6.92273">
        <ele>1176.7</ele>
        <time>2023-05-20T11:08:17Z</time>
      </trkpt>
      <trkpt lat="47.95992" lon="6.92264">
        <ele>1175.4</ele>
        <time>2023-05-20T11:08:25Z</time>
      </trkpt>
      <trkpt lat="47.95994" lon="6.92258">
        <ele>1174.5</ele>
        <time>2023-05-20T11:08:30Z</time>
      </trkpt>
      <trkpt lat="47.95996" lon="6.92249">
        <ele>1173.1</ele>
        <time>2023-05-20T11:08:38Z</time>
      </trkpt>
      <trkpt lat="47.96001" lon="6.92235">
        <ele>1170.7</ele>
        <time>2023-05-20T11:08:50Z</time>
      </trkpt>
      <trkpt lat="47.96004" lon="6.92229">
        <ele>1169.5</ele>
        <time>2023-05-20T11:08:57Z</time>
      </trkpt>
      <trkpt lat="47.96005" lon="6.92218">
        <ele>1167.9</ele>
        <time>2023-05-20T11:09:08Z</time>
      </trkpt>
      <trkpt lat="47.96016" lon="6.92176">
        <ele>1160</ele>
        <time>2023-05-20T11:09:45Z</time>
      </trkpt>
      <trkpt lat="47.96017" lon="6.92169">
        <ele>1158.6</ele>
        <time>2023-05-20T11:10:04Z</time>
      </trkpt>
      <trkpt lat="47.96022" lon="6.92164">
        <ele>1157.1</ele>
        <time>2023-05-20T11:10:16Z</time>
      </trkpt>
      <trkpt lat="47.9603" lon="6.92165">
        <ele>1156.1</ele>
        <time>2023-05-20T11:10:33Z</time>
      </trkpt>
      <trkpt lat="47.96032" lon="6.92172">
        <ele>1156.9</ele>
        <time>2023-05-20T11:10:47Z</time>
      </trkpt>
      <trkpt lat="47.96029" lon="6.92176">
        <ele>1158.4</ele>
        <time>2023-05-20T11:10:51Z</time>
      </trkpt>
      <trkpt lat="47.96026" lon="6.92171">
        <ele>1158</ele>
        <time>2023-05-20T11:11:27Z</time>
      </trkpt>
      <trkpt lat="47.96021" lon="6.92164">
        <ele>1157.3</ele>
        <time>2023-05-20T12:21:01Z</time>
      </trkpt>
      <trkpt lat="47.96021" lon="6.92163">
        <ele>1157.1</ele>
        <time>2023-05-20T12:21:02Z</time>
      </trkpt>
      <trkpt lat="47.96019" lon="6.92153">
        <ele>1155.5</ele>
        <time>2023-05-20T12:21:08Z</time>
      </trkpt>
      <trkpt lat="47.96022" lon="6.92148">
        <ele>1154.3</ele>
        <time>2023-05-20T12:21:16Z</time>
      </trkpt>
      <trkpt lat="47.96024" lon="6.92143">
        <ele>1153.1</ele>
        <time>2023-05-20T12:21:21Z</time>
      </trkpt>
      <trkpt lat="47.96027" lon="6.92135">
        <ele>1151.4</ele>
        <time>2023-05-20T12:21:34Z</time>
      </trkpt>
      <trkpt lat="47.96023" lon="6.92126">
        <ele>1150.2</ele>
        <time>2023-05-20T12:22:04Z</time>
      </trkpt>
      <trkpt lat="47.9602" lon="6.92121">
        <ele>1149.6</ele>
        <time>2023-05-20T12:22:08Z</time>
      </trkpt>
      <trkpt lat="47.96012" lon="6.92113">
        <ele>1149</ele>
        <time>2023-05-20T12:22:16Z</time>
      </trkpt>
      <trkpt lat="47.95991" lon="6.92096">
        <ele>1147.9</ele>
        <time>2023-05-20T12:22:38Z</time>
      </trkpt>
      <trkpt lat="47.95987" lon="6.92092">
        <ele>1147.5</ele>
        <time>2023-05-20T12:22:42Z</time>
      </trkpt>
      <trkpt lat="47.95974" lon="6.92084">
        <ele>1147</ele>
        <time>2023-05-20T12:22:53Z</time>
      </trkpt>
      <trkpt lat="47.9595" lon="6.9208">
        <ele>1147.4</ele>
        <time>2023-05-20T12:23:13Z</time>
      </trkpt>
      <trkpt lat="47.95926" lon="6.92083">
        <ele>1147.9</ele>
        <time>2023-05-20T12:23:33Z</time>
      </trkpt>
      <trkpt lat="47.95903" lon="6.92094">
        <ele>1148.9</ele>
        <time>2023-05-20T12:23:51Z</time>
      </trkpt>
      <trkpt lat="47.95886" lon="6.92103">
        <ele>1149.1</ele>
        <time>2023-05-20T12:24:06Z</time>
      </trkpt>
      <trkpt lat="47.95881" lon="6.92109">
        <ele>1149.2</ele>
        <time>2023-05-20T12:24:13Z</time>
      </trkpt>
      <trkpt lat="47.95866" lon="6.92128">
        <ele>1149.3</ele>
        <time>2023-05-20T12:24:32Z</time>
      </trkpt>
      <trkpt lat="47.95861" lon="6.92141">
        <ele>1150.3</ele>
        <time>2023-05-20T12:24:40Z</time>
      </trkpt>
      <trkpt lat="47.95846" lon="6.92166">
        <ele>1151.2</ele>
        <time>2023-05-20T12:25:00Z</time>
      </trkpt>
      <trkpt lat="47.95835" lon="6.92195">
        <ele>1153.4</ele>
        <time>2023-05-20T12:25:21Z</time>
      </trkpt>
      <trkpt lat="47.95831" lon="6.922">
        <ele>1153.1</ele>
        <time>2023-05-20T12:25:25Z</time>
      </trkpt>
      <trkpt lat="47.95829" lon="6.92206">
        <ele>1153.4</ele>
        <time>2023-05-20T12:25:29Z</time>
      </trkpt>
      <trkpt lat="47.95829" lon="6.92212">
        <ele>1154.1</ele>
        <time>2023-05-20T12:25:33Z</time>
      </trkpt>
      <trkpt lat="47.95823" lon="6.92222">
        <ele>1154.1</ele>
        <time>2023-05-20T12:25:41Z</time>
      </trkpt>
      <trkpt lat="47.95814" lon="6.92234">
        <ele>1154.2</ele>
        <time>2023-05-20T12:25:50Z</time>
      </trkpt>
      <trkpt lat="47.95808" lon="6.92245">
        <ele>1154.7</ele>
        <time>2023-05-20T12:25:57Z</time>
      </trkpt>
      <trkpt lat="47.95808" lon="6.92252">
        <ele>1155.7</ele>
        <time>2023-05-20T12:26:00Z</time>
      </trkpt>
      <trkpt lat="47.95805" lon="6.92257">
        <ele>1155.9</ele>
        <time>2023-05-20T12:26:04Z</time>
      </trkpt>
      <trkpt lat="47.95793" lon="6.92274">
        <ele>1156.6</ele>
        <time>2023-05-20T12:26:20Z</time>
      </trkpt>
      <trkpt lat="47.95784" lon="6.9231">
        <ele>1158.6</ele>
        <time>2023-05-20T12:26:44Z</time>
      </trkpt>
      <trkpt lat="47.95783" lon="6.92318">
        <ele>1159.4</ele>
        <time>2023-05-20T12:26:47Z</time>
      </trkpt>
      <trkpt lat="47.95779" lon="6.92325">
        <ele>1159.4</ele>
        <time>2023-05-20T12:26:51Z</time>
      </trkpt>
      <trkpt lat="47.95776" lon="6.92332">
        <ele>1159.7</ele>
        <time>2023-05-20T12:26:58Z</time>
      </trkpt>
      <trkpt lat="47.95771" lon="6.92337">
        <ele>1159.8</ele>
        <time>2023-05-20T12:27:01Z</time>
      </trkpt>
      <trkpt lat="47.95767" lon="6.92342">
        <ele>1160.1</ele>
        <time>2023-05-20T12:27:04Z</time>
      </trkpt>
      <trkpt lat="47.95765" lon="6.92347">
        <ele>1160.6</ele>
        <time>2023-05-20T12:27:07Z</time>
      </trkpt>
      <trkpt lat="47.95761" lon="6.9235">
        <ele>1160.6</ele>
        <time>2023-05-20T12:27:10Z</time>
      </trkpt>
      <trkpt lat="47.95743" lon="6.92357">
        <ele>1158.7</ele>
        <time>2023-05-20T12:27:26Z</time>
      </trkpt>
      <trkpt lat="47.95731" lon="6.92368">
        <ele>1157.2</ele>
        <time>2023-05-20T12:27:39Z</time>
      </trkpt>
      <trkpt lat="47.95721" lon="6.92383">
        <ele>1156.9</ele>
        <time>2023-05-20T12:27:54Z</time>
      </trkpt>
      <trkpt lat="47.95718" lon="6.92387">
        <ele>1157</ele>
        <time>2023-05-20T12:27:58Z</time>
      </trkpt>
      <trkpt lat="47.95707" lon="6.92394">
        <ele>1156.1</ele>
        <time>2023-05-20T12:28:08Z</time>
      </trkpt>
      <trkpt lat="47.95704" lon="6.92398">
        <ele>1156.1</ele>
        <time>2023-05-20T12:28:10Z</time>
      </trkpt>
      <trkpt lat="47.957" lon="6.92404">
        <ele>1156.3</ele>
        <time>2023-05-20T12:28:14Z</time>
      </trkpt>
      <trkpt lat="47.95688" lon="6.92415">
        <ele>1155.8</ele>
        <time>2023-05-20T12:28:25Z</time>
      </trkpt>
      <trkpt lat="47.95666" lon="6.92422">
        <ele>1153.9</ele>
        <time>2023-05-20T12:28:43Z</time>
      </trkpt>
      <trkpt lat="47.95661" lon="6.92421">
        <ele>1153.2</ele>
        <time>2023-05-20T12:28:46Z</time>
      </trkpt>
      <trkpt lat="47.95639" lon="6.92435">
        <ele>1153.3</ele>
        <time>2023-05-20T12:29:05Z</time>
      </trkpt>
      <trkpt lat="47.95634" lon="6.92436">
        <ele>1153.2</ele>
        <time>2023-05-20T12:29:09Z</time>
      </trkpt>
      <trkpt lat="47.9563" lon="6.92438">
        <ele>1153.3</ele>
        <time>2023-05-20T12:29:13Z</time>
      </trkpt>
      <trkpt lat="47.95626" lon="6.92438">
        <ele>1153</ele>
        <time>2023-05-20T12:29:16Z</time>
      </trkpt>
      <trkpt lat="47.95621" lon="6.9244">
        <ele>1153</ele>
        <time>2023-05-20T12:29:20Z</time>
      </trkpt>
      <trkpt lat="47.95614" lon="6.9244">
        <ele>1152.6</ele>
        <time>2023-05-20T12:29:27Z</time>
      </trkpt>
      <trkpt lat="47.95605" lon="6.92442">
        <ele>1152</ele>
        <time>2023-05-20T12:29:35Z</time>
      </trkpt>
      <trkpt lat="47.95601" lon="6.92441">
        <ele>1151.5</ele>
        <time>2023-05-20T12:29:38Z</time>
      </trkpt>
      <trkpt lat="47.95596" lon="6.92444">
        <ele>1151.3</ele>
        <time>2023-05-20T12:29:42Z</time>
      </trkpt>
      <trkpt lat="47.95588" lon="6.92449">
        <ele>1150.8</ele>
        <time>2023-05-20T12:29:49Z</time>
      </trkpt>
      <trkpt lat="47.95582" lon="6.92454">
        <ele>1150.5</ele>
        <time>2023-05-20T12:29:59Z</time>
      </trkpt>
      <trkpt lat="47.95577" lon="6.92457">
        <ele>1150.1</ele>
        <time>2023-05-20T12:30:03Z</time>
      </trkpt>
      <trkpt lat="47.95573" lon="6.92454">
        <ele>1149.4</ele>
        <time>2023-05-20T12:30:06Z</time>
      </trkpt>
      <trkpt lat="47.95554" lon="6.92433">
        <ele>1146.3</ele>
        <time>2023-05-20T12:30:25Z</time>
      </trkpt>
      <trkpt lat="47.95528" lon="6.92416">
        <ele>1142</ele>
        <time>2023-05-20T12:30:49Z</time>
      </trkpt>
      <trkpt lat="47.95519" lon="6.92413">
        <ele>1140.5</ele>
        <time>2023-05-20T12:31:02Z</time>
      </trkpt>
      <trkpt lat="47.95492" lon="6.92399">
        <ele>1136.8</ele>
        <time>2023-05-20T12:31:26Z</time>
      </trkpt>
      <trkpt lat="47.95487" lon="6.92399">
        <ele>1135.9</ele>
        <time>2023-05-20T12:31:31Z</time>
      </trkpt>
      <trkpt lat="47.9548" lon="6.92393">
        <ele>1135.1</ele>
        <time>2023-05-20T12:31:39Z</time>
      </trkpt>
      <trkpt lat="47.95461" lon="6.92387">
        <ele>1134.1</ele>
        <time>2023-05-20T12:31:53Z</time>
      </trkpt>
      <trkpt lat="47.95451" lon="6.92386">
        <ele>1134.1</ele>
        <time>2023-05-20T12:32:01Z</time>
      </trkpt>
      <trkpt lat="47.95446" lon="6.92383">
        <ele>1134.2</ele>
        <time>2023-05-20T12:32:05Z</time>
      </trkpt>
      <trkpt lat="47.95442" lon="6.92381">
        <ele>1134.5</ele>
        <time>2023-05-20T12:32:08Z</time>
      </trkpt>
      <trkpt lat="47.95433" lon="6.92378">
        <ele>1135.6</ele>
        <time>2023-05-20T12:32:15Z</time>
      </trkpt>
      <trkpt lat="47.95429" lon="6.92378">
        <ele>1136.1</ele>
        <time>2023-05-20T12:32:19Z</time>
      </trkpt>
      <trkpt lat="47.95418" lon="6.92379">
        <ele>1137.2</ele>
        <time>2023-05-20T12:32:27Z</time>
      </trkpt>
      <trkpt lat="47.95412" lon="6.92376">
        <ele>1138.1</ele>
        <time>2023-05-20T12:32:33Z</time>
      </trkpt>
      <trkpt lat="47.95402" lon="6.92372">
        <ele>1139.4</ele>
        <time>2023-05-20T12:32:41Z</time>
      </trkpt>
      <trkpt lat="47.95398" lon="6.9237">
        <ele>1139.9</ele>
        <time>2023-05-20T12:32:45Z</time>
      </trkpt>
      <trkpt lat="47.95393" lon="6.9237">
        <ele>1140.5</ele>
        <time>2023-05-20T12:32:50Z</time>
      </trkpt>
      <trkpt lat="47.95381" lon="6.92367">
        <ele>1141.8</ele>
        <time>2023-05-20T12:33:02Z</time>
      </trkpt>
      <trkpt lat="47.95376" lon="6.92367">
        <ele>1142.3</ele>
        <time>2023-05-20T12:33:06Z</time>
      </trkpt>
      <trkpt lat="47.95372" lon="6.92364">
        <ele>1142.8</ele>
        <time>2023-05-20T12:33:11Z</time>
      </trkpt>
      <trkpt lat="47.95356" lon="6.92363">
        <ele>1143.9</ele>
        <time>2023-05-20T12:33:26Z</time>
      </trkpt>
      <trkpt lat="47.95352" lon="6.92361">
        <ele>1144</ele>
        <time>2023-05-20T12:33:30Z</time>
      </trkpt>
      <trkpt lat="47.95347" lon="6.92363">
        <ele>1143.9</ele>
        <time>2023-05-20T12:33:35Z</time>
      </trkpt>
      <trkpt lat="47.9534" lon="6.92365">
        <ele>1143.6</ele>
        <time>2023-05-20T12:33:42Z</time>
      </trkpt>
      <trkpt lat="47.95336" lon="6.92366">
        <ele>1143.5</ele>
        <time>2023-05-20T12:33:46Z</time>
      </trkpt>
      <trkpt lat="47.95332" lon="6.92367">
        <ele>1143.5</ele>
        <time>2023-05-20T12:33:50Z</time>
      </trkpt>
      <trkpt lat="47.95327" lon="6.92365">
        <ele>1144.2</ele>
        <time>2023-05-20T12:33:54Z</time>
      </trkpt>
      <trkpt lat="47.95322" lon="6.92364">
        <ele>1144.8</ele>
        <time>2023-05-20T12:33:58Z</time>
      </trkpt>
      <trkpt lat="47.95318" lon="6.92365">
        <ele>1145</ele>
        <time>2023-05-20T12:34:03Z</time>
      </trkpt>
      <trkpt lat="47.95299" lon="6.92355">
        <ele>1147.4</ele>
        <time>2023-05-20T12:34:19Z</time>
      </trkpt>
      <trkpt lat="47.95294" lon="6.92354">
        <ele>1147.5</ele>
        <time>2023-05-20T12:34:23Z</time>
      </trkpt>
      <trkpt lat="47.9529" lon="6.92351">
        <ele>1147.7</ele>
        <time>2023-05-20T12:34:27Z</time>
      </trkpt>
      <trkpt lat="47.95285" lon="6.9235">
        <ele>1147.8</ele>
        <time>2023-05-20T12:34:31Z</time>
      </trkpt>
      <trkpt lat="47.95275" lon="6.9235">
        <ele>1147.7</ele>
        <time>2023-05-20T12:34:38Z</time>
      </trkpt>
      <trkpt lat="47.9527" lon="6.92351">
        <ele>1147.3</ele>
        <time>2023-05-20T12:34:43Z</time>
      </trkpt>
      <trkpt lat="47.95246" lon="6.92365">
        <ele>1145</ele>
        <time>2023-05-20T12:35:08Z</time>
      </trkpt>
      <trkpt lat="47.95239" lon="6.92367">
        <ele>1144.3</ele>
        <time>2023-05-20T12:35:15Z</time>
      </trkpt>
      <trkpt lat="47.95222" lon="6.92381">
        <ele>1142.6</ele>
        <time>2023-05-20T12:35:29Z</time>
      </trkpt>
      <trkpt lat="47.95219" lon="6.92387">
        <ele>1142.6</ele>
        <time>2023-05-20T12:35:33Z</time>
      </trkpt>
      <trkpt lat="47.95211" lon="6.92394">
        <ele>1143.3</ele>
        <time>2023-05-20T12:35:42Z</time>
      </trkpt>
      <trkpt lat="47.95207" lon="6.92397">
        <ele>1143.8</ele>
        <time>2023-05-20T12:35:47Z</time>
      </trkpt>
      <trkpt lat="47.95202" lon="6.92403">
        <ele>1144.3</ele>
        <time>2023-05-20T12:35:55Z</time>
      </trkpt>
      <trkpt lat="47.95197" lon="6.92406">
        <ele>1145</ele>
        <time>2023-05-20T12:36:00Z</time>
      </trkpt>
      <trkpt lat="47.95184" lon="6.92426">
        <ele>1145.3</ele>
        <time>2023-05-20T12:36:18Z</time>
      </trkpt>
      <trkpt lat="47.95175" lon="6.92434">
        <ele>1146</ele>
        <time>2023-05-20T12:36:28Z</time>
      </trkpt>
      <trkpt lat="47.9517" lon="6.92445">
        <ele>1146.5</ele>
        <time>2023-05-20T12:36:35Z</time>
      </trkpt>
      <trkpt lat="47.95168" lon="6.92451">
        <ele>1146.1</ele>
        <time>2023-05-20T12:36:39Z</time>
      </trkpt>
      <trkpt lat="47.95167" lon="6.92458">
        <ele>1145.5</ele>
        <time>2023-05-20T12:36:44Z</time>
      </trkpt>
      <trkpt lat="47.95167" lon="6.92465">
        <ele>1144.7</ele>
        <time>2023-05-20T12:36:48Z</time>
      </trkpt>
      <trkpt lat="47.95165" lon="6.92471">
        <ele>1144.8</ele>
        <time>2023-05-20T12:36:51Z</time>
      </trkpt>
      <trkpt lat="47.95161" lon="6.92488">
        <ele>1143.5</ele>
        <time>2023-05-20T12:37:00Z</time>
      </trkpt>
      <trkpt lat="47.95159" lon="6.92494">
        <ele>1143.3</ele>
        <time>2023-05-20T12:37:04Z</time>
      </trkpt>
      <trkpt lat="47.95157" lon="6.925">
        <ele>1143.2</ele>
        <time>2023-05-20T12:37:07Z</time>
      </trkpt>
      <trkpt lat="47.95156" lon="6.92507">
        <ele>1141.6</ele>
        <time>2023-05-20T12:37:10Z</time>
      </trkpt>
      <trkpt lat="47.95155" lon="6.92514">
        <ele>1140</ele>
        <time>2023-05-20T12:37:14Z</time>
      </trkpt>
      <trkpt lat="47.95146" lon="6.92519">
        <ele>1142.5</ele>
        <time>2023-05-20T12:37:25Z</time>
      </trkpt>
      <trkpt lat="47.95144" lon="6.92524">
        <ele>1141.9</ele>
        <time>2023-05-20T12:37:33Z</time>
      </trkpt>
      <trkpt lat="47.9513" lon="6.92529">
        <ele>1142.5</ele>
        <time>2023-05-20T12:37:47Z</time>
      </trkpt>
      <trkpt lat="47.95126" lon="6.92528">
        <ele>1142.9</ele>
        <time>2023-05-20T12:37:51Z</time>
      </trkpt>
      <trkpt lat="47.95121" lon="6.92531">
        <ele>1141.9</ele>
        <time>2023-05-20T12:37:55Z</time>
      </trkpt>
      <trkpt lat="47.95116" lon="6.92529">
        <ele>1142.6</ele>
        <time>2023-05-20T12:37:59Z</time>
      </trkpt>
      <trkpt lat="47.95111" lon="6.9253">
        <ele>1142.3</ele>
        <time>2023-05-20T12:38:03Z</time>
      </trkpt>
      <trkpt lat="47.95107" lon="6.92534">
        <ele>1141.1</ele>
        <time>2023-05-20T12:38:08Z</time>
      </trkpt>
      <trkpt lat="47.95092" lon="6.92541">
        <ele>1139.1</ele>
        <time>2023-05-20T12:38:20Z</time>
      </trkpt>
      <trkpt lat="47.95082" lon="6.92541">
        <ele>1139.2</ele>
        <time>2023-05-20T12:38:26Z</time>
      </trkpt>
      <trkpt lat="47.95078" lon="6.9254">
        <ele>1139.5</ele>
        <time>2023-05-20T12:38:29Z</time>
      </trkpt>
      <trkpt lat="47.95073" lon="6.92541">
        <ele>1139.2</ele>
        <time>2023-05-20T12:38:32Z</time>
      </trkpt>
      <trkpt lat="47.95059" lon="6.92548">
        <ele>1137.9</ele>
        <time>2023-05-20T12:38:44Z</time>
      </trkpt>
      <trkpt lat="47.95049" lon="6.92554">
        <ele>1137</ele>
        <time>2023-05-20T12:38:51Z</time>
      </trkpt>
      <trkpt lat="47.95046" lon="6.92558">
        <ele>1136</ele>
        <time>2023-05-20T12:38:55Z</time>
      </trkpt>
      <trkpt lat="47.95033" lon="6.92567">
        <ele>1133.5</ele>
        <time>2023-05-20T12:39:06Z</time>
      </trkpt>
      <trkpt lat="47.95028" lon="6.92569">
        <ele>1133.1</ele>
        <time>2023-05-20T12:39:09Z</time>
      </trkpt>
      <trkpt lat="47.95011" lon="6.92569">
        <ele>1131</ele>
        <time>2023-05-20T12:39:21Z</time>
      </trkpt>
      <trkpt lat="47.94998" lon="6.92563">
        <ele>1129.5</ele>
        <time>2023-05-20T12:39:31Z</time>
      </trkpt>
      <trkpt lat="47.94994" lon="6.9256">
        <ele>1128.2</ele>
        <time>2023-05-20T12:39:35Z</time>
      </trkpt>
      <trkpt lat="47.94992" lon="6.92546">
        <ele>1128.2</ele>
        <time>2023-05-20T12:39:43Z</time>
      </trkpt>
      <trkpt lat="47.94991" lon="6.92539">
        <ele>1128.1</ele>
        <time>2023-05-20T12:39:46Z</time>
      </trkpt>
      <trkpt lat="47.94989" lon="6.92532">
        <ele>1127.4</ele>
        <time>2023-05-20T12:39:50Z</time>
      </trkpt>
      <trkpt lat="47.94985" lon="6.92489">
        <ele>1125.6</ele>
        <time>2023-05-20T12:40:13Z</time>
      </trkpt>
      <trkpt lat="47.9498" lon="6.92467">
        <ele>1123.6</ele>
        <time>2023-05-20T12:40:25Z</time>
      </trkpt>
      <trkpt lat="47.94978" lon="6.9246">
        <ele>1123</ele>
        <time>2023-05-20T12:40:29Z</time>
      </trkpt>
      <trkpt lat="47.94976" lon="6.92431">
        <ele>1121.8</ele>
        <time>2023-05-20T12:40:47Z</time>
      </trkpt>
      <trkpt lat="47.94977" lon="6.92423">
        <ele>1121.5</ele>
        <time>2023-05-20T12:40:51Z</time>
      </trkpt>
      <trkpt lat="47.94987" lon="6.92391">
        <ele>1118.6</ele>
        <time>2023-05-20T12:41:08Z</time>
      </trkpt>
      <trkpt lat="47.9499" lon="6.92377">
        <ele>1117.4</ele>
        <time>2023-05-20T12:41:15Z</time>
      </trkpt>
      <trkpt lat="47.94992" lon="6.92371">
        <ele>1117.1</ele>
        <time>2023-05-20T12:41:19Z</time>
      </trkpt>
      <trkpt lat="47.94992" lon="6.92364">
        <ele>1116.1</ele>
        <time>2023-05-20T12:41:23Z</time>
      </trkpt>
      <trkpt lat="47.94996" lon="6.92359">
        <ele>1116.5</ele>
        <time>2023-05-20T12:41:27Z</time>
      </trkpt>
      <trkpt lat="47.94998" lon="6.92353">
        <ele>1116</ele>
        <time>2023-05-20T12:41:31Z</time>
      </trkpt>
      <trkpt lat="47.94998" lon="6.92345">
        <ele>1114.5</ele>
        <time>2023-05-20T12:41:35Z</time>
      </trkpt>
      <trkpt lat="47.95" lon="6.9234">
        <ele>1114.2</ele>
        <time>2023-05-20T12:41:39Z</time>
      </trkpt>
      <trkpt lat="47.94997" lon="6.92343">
        <ele>1113.9</ele>
        <time>2023-05-20T12:41:58Z</time>
      </trkpt>
      <trkpt lat="47.94993" lon="6.92345">
        <ele>1113.1</ele>
        <time>2023-05-20T12:42:02Z</time>
      </trkpt>
      <trkpt lat="47.94984" lon="6.9236">
        <ele>1113.2</ele>
        <time>2023-05-20T12:42:14Z</time>
      </trkpt>
      <trkpt lat="47.94979" lon="6.92363">
        <ele>1112.2</ele>
        <time>2023-05-20T12:42:18Z</time>
      </trkpt>
      <trkpt lat="47.94961" lon="6.92398">
        <ele>1109.4</ele>
        <time>2023-05-20T12:42:46Z</time>
      </trkpt>
      <trkpt lat="47.94957" lon="6.92393">
        <ele>1106.3</ele>
        <time>2023-05-20T12:42:49Z</time>
      </trkpt>
      <trkpt lat="47.94953" lon="6.92381">
        <ele>1102.7</ele>
        <time>2023-05-20T12:42:55Z</time>
      </trkpt>
      <trkpt lat="47.94955" lon="6.92353">
        <ele>1100.2</ele>
        <time>2023-05-20T12:43:08Z</time>
      </trkpt>
      <trkpt lat="47.94952" lon="6.9234">
        <ele>1097.1</ele>
        <time>2023-05-20T12:43:15Z</time>
      </trkpt>
      <trkpt lat="47.94955" lon="6.92318">
        <ele>1095.7</ele>
        <time>2023-05-20T12:43:26Z</time>
      </trkpt>
      <trkpt lat="47.94958" lon="6.92312">
        <ele>1096.2</ele>
        <time>2023-05-20T12:43:30Z</time>
      </trkpt>
      <trkpt lat="47.94959" lon="6.92297">
        <ele>1095.1</ele>
        <time>2023-05-20T12:43:37Z</time>
      </trkpt>
      <trkpt lat="47.94959" lon="6.9229">
        <ele>1094.6</ele>
        <time>2023-05-20T12:43:40Z</time>
      </trkpt>
      <trkpt lat="47.94964" lon="6.92265">
        <ele>1094.1</ele>
        <time>2023-05-20T12:43:56Z</time>
      </trkpt>
      <trkpt lat="47.9495" lon="6.9225">
        <ele>1093.2</ele>
        <time>2023-05-20T12:44:17Z</time>
      </trkpt>
      <trkpt lat="47.94945" lon="6.92249">
        <ele>1093.1</ele>
        <time>2023-05-20T12:44:20Z</time>
      </trkpt>
      <trkpt lat="47.94941" lon="6.92247">
        <ele>1094.6</ele>
        <time>2023-05-20T12:44:23Z</time>
      </trkpt>
      <trkpt lat="47.94938" lon="6.92244">
        <ele>1096</ele>
        <time>2023-05-20T12:44:26Z</time>
      </trkpt>
      <trkpt lat="47.94932" lon="6.92249">
        <ele>1098</ele>
        <time>2023-05-20T12:44:33Z</time>
      </trkpt>
      <trkpt lat="47.94929" lon="6.92254">
        <ele>1098.8</ele>
        <time>2023-05-20T12:44:37Z</time>
      </trkpt>
      <trkpt lat="47.94929" lon="6.92283">
        <ele>1096.5</ele>
        <time>2023-05-20T12:44:55Z</time>
      </trkpt>
      <trkpt lat="47.94924" lon="6.92293">
        <ele>1096.9</ele>
        <time>2023-05-20T12:45:05Z</time>
      </trkpt>
      <trkpt lat="47.94924" lon="6.923">
        <ele>1095.9</ele>
        <time>2023-05-20T12:45:08Z</time>
      </trkpt>
      <trkpt lat="47.94921" lon="6.92306">
        <ele>1095.8</ele>
        <time>2023-05-20T12:45:11Z</time>
      </trkpt>
      <trkpt lat="47.94916" lon="6.92317">
        <ele>1094.9</ele>
        <time>2023-05-20T12:45:18Z</time>
      </trkpt>
      <trkpt lat="47.94912" lon="6.92321">
        <ele>1096.4</ele>
        <time>2023-05-20T12:45:22Z</time>
      </trkpt>
      <trkpt lat="47.94908" lon="6.92327">
        <ele>1097.5</ele>
        <time>2023-05-20T12:45:26Z</time>
      </trkpt>
      <trkpt lat="47.94906" lon="6.92333">
        <ele>1097.6</ele>
        <time>2023-05-20T12:45:30Z</time>
      </trkpt>
      <trkpt lat="47.94903" lon="6.92339">
        <ele>1098.1</ele>
        <time>2023-05-20T12:45:34Z</time>
      </trkpt>
      <trkpt lat="47.94895" lon="6.92338">
        <ele>1103.3</ele>
        <time>2023-05-20T12:45:44Z</time>
      </trkpt>
      <trkpt lat="47.94896" lon="6.92323">
        <ele>1105.3</ele>
        <time>2023-05-20T12:45:51Z</time>
      </trkpt>
      <trkpt lat="47.94894" lon="6.92317">
        <ele>1107.4</ele>
        <time>2023-05-20T12:45:54Z</time>
      </trkpt>
      <trkpt lat="47.94896" lon="6.9231">
        <ele>1107.4</ele>
        <time>2023-05-20T12:45:58Z</time>
      </trkpt>
      <trkpt lat="47.94893" lon="6.92303">
        <ele>1110.2</ele>
        <time>2023-05-20T12:46:01Z</time>
      </trkpt>
      <trkpt lat="47.94895" lon="6.92289">
        <ele>1111.2</ele>
        <time>2023-05-20T12:46:10Z</time>
      </trkpt>
      <trkpt lat="47.94897" lon="6.92262">
        <ele>1113.5</ele>
        <time>2023-05-20T12:46:28Z</time>
      </trkpt>
      <trkpt lat="47.94895" lon="6.92244">
        <ele>1115.8</ele>
        <time>2023-05-20T12:46:43Z</time>
      </trkpt>
      <trkpt lat="47.9489" lon="6.92239">
        <ele>1118.4</ele>
        <time>2023-05-20T12:46:57Z</time>
      </trkpt>
      <trkpt lat="47.94883" lon="6.92263">
        <ele>1119.1</ele>
        <time>2023-05-20T12:47:16Z</time>
      </trkpt>
      <trkpt lat="47.94876" lon="6.92275">
        <ele>1119.9</ele>
        <time>2023-05-20T12:47:27Z</time>
      </trkpt>
      <trkpt lat="47.94869" lon="6.92279">
        <ele>1121.6</ele>
        <time>2023-05-20T12:47:46Z</time>
      </trkpt>
      <trkpt lat="47.94864" lon="6.92279">
        <ele>1123.1</ele>
        <time>2023-05-20T12:47:50Z</time>
      </trkpt>
      <trkpt lat="47.94859" lon="6.92282">
        <ele>1123.9</ele>
        <time>2023-05-20T12:47:57Z</time>
      </trkpt>
      <trkpt lat="47.94853" lon="6.92289">
        <ele>1123.8</ele>
        <time>2023-05-20T12:48:07Z</time>
      </trkpt>
      <trkpt lat="47.94851" lon="6.92296">
        <ele>1123.3</ele>
        <time>2023-05-20T12:48:14Z</time>
      </trkpt>
      <trkpt lat="47.9484" lon="6.92287">
        <ele>1125.1</ele>
        <time>2023-05-20T12:48:27Z</time>
      </trkpt>
      <trkpt lat="47.9483" lon="6.92281">
        <ele>1126.5</ele>
        <time>2023-05-20T12:48:37Z</time>
      </trkpt>
      <trkpt lat="47.94827" lon="6.92277">
        <ele>1127.1</ele>
        <time>2023-05-20T12:48:41Z</time>
      </trkpt>
      <trkpt lat="47.94825" lon="6.92271">
        <ele>1128</ele>
        <time>2023-05-20T12:48:45Z</time>
      </trkpt>
      <trkpt lat="47.94821" lon="6.92266">
        <ele>1128.7</ele>
        <time>2023-05-20T12:48:48Z</time>
      </trkpt>
      <trkpt lat="47.94817" lon="6.92264">
        <ele>1129</ele>
        <time>2023-05-20T12:48:52Z</time>
      </trkpt>
      <trkpt lat="47.94815" lon="6.92257">
        <ele>1130</ele>
        <time>2023-05-20T12:48:57Z</time>
      </trkpt>
      <trkpt lat="47.94804" lon="6.9225">
        <ele>1131.1</ele>
        <time>2023-05-20T12:49:12Z</time>
      </trkpt>
      <trkpt lat="47.94802" lon="6.92236">
        <ele>1132.1</ele>
        <time>2023-05-20T12:49:19Z</time>
      </trkpt>
      <trkpt lat="47.94798" lon="6.92233">
        <ele>1132.3</ele>
        <time>2023-05-20T12:49:22Z</time>
      </trkpt>
      <trkpt lat="47.94786" lon="6.92219">
        <ele>1133.1</ele>
        <time>2023-05-20T12:49:37Z</time>
      </trkpt>
      <trkpt lat="47.94784" lon="6.92212">
        <ele>1133.4</ele>
        <time>2023-05-20T12:49:41Z</time>
      </trkpt>
      <trkpt lat="47.94777" lon="6.92204">
        <ele>1133.6</ele>
        <time>2023-05-20T12:49:49Z</time>
      </trkpt>
      <trkpt lat="47.94774" lon="6.92198">
        <ele>1133.6</ele>
        <time>2023-05-20T12:49:53Z</time>
      </trkpt>
      <trkpt lat="47.94769" lon="6.92184">
        <ele>1133.9</ele>
        <time>2023-05-20T12:50:01Z</time>
      </trkpt>
      <trkpt lat="47.94767" lon="6.92171">
        <ele>1134.4</ele>
        <time>2023-05-20T12:50:09Z</time>
      </trkpt>
      <trkpt lat="47.94764" lon="6.92166">
        <ele>1134.5</ele>
        <time>2023-05-20T12:50:12Z</time>
      </trkpt>
      <trkpt lat="47.9476" lon="6.92154">
        <ele>1134.7</ele>
        <time>2023-05-20T12:50:19Z</time>
      </trkpt>
      <trkpt lat="47.94756" lon="6.92146">
        <ele>1134.8</ele>
        <time>2023-05-20T12:50:26Z</time>
      </trkpt>
      <trkpt lat="47.94753" lon="6.92142">
        <ele>1134.9</ele>
        <time>2023-05-20T12:50:29Z</time>
      </trkpt>
      <trkpt lat="47.9475" lon="6.92137">
        <ele>1135.2</ele>
        <time>2023-05-20T12:50:32Z</time>
      </trkpt>
      <trkpt lat="47.94747" lon="6.92132">
        <ele>1135.8</ele>
        <time>2023-05-20T12:50:37Z</time>
      </trkpt>
      <trkpt lat="47.94746" lon="6.92126">
        <ele>1136.5</ele>
        <time>2023-05-20T12:50:41Z</time>
      </trkpt>
      <trkpt lat="47.94739" lon="6.92113">
        <ele>1137.8</ele>
        <time>2023-05-20T12:50:53Z</time>
      </trkpt>
      <trkpt lat="47.94735" lon="6.92109">
        <ele>1138.2</ele>
        <time>2023-05-20T12:50:58Z</time>
      </trkpt>
      <trkpt lat="47.9473" lon="6.92107">
        <ele>1138.5</ele>
        <time>2023-05-20T12:51:02Z</time>
      </trkpt>
      <trkpt lat="47.94726" lon="6.92109">
        <ele>1138.3</ele>
        <time>2023-05-20T12:51:06Z</time>
      </trkpt>
      <trkpt lat="47.9472" lon="6.92108">
        <ele>1138.5</ele>
        <time>2023-05-20T12:51:10Z</time>
      </trkpt>
      <trkpt lat="47.94715" lon="6.92102">
        <ele>1139.5</ele>
        <time>2023-05-20T12:51:16Z</time>
      </trkpt>
      <trkpt lat="47.94707" lon="6.92105">
        <ele>1139.3</ele>
        <time>2023-05-20T12:51:23Z</time>
      </trkpt>
      <trkpt lat="47.94703" lon="6.92108">
        <ele>1139.1</ele>
        <time>2023-05-20T12:51:28Z</time>
      </trkpt>
      <trkpt lat="47.94698" lon="6.92106">
        <ele>1139.4</ele>
        <time>2023-05-20T12:51:32Z</time>
      </trkpt>
      <trkpt lat="47.94692" lon="6.92096">
        <ele>1140.4</ele>
        <time>2023-05-20T12:51:39Z</time>
      </trkpt>
      <trkpt lat="47.94689" lon="6.92087">
        <ele>1140.9</ele>
        <time>2023-05-20T12:51:45Z</time>
      </trkpt>
      <trkpt lat="47.94685" lon="6.92082">
        <ele>1140.8</ele>
        <time>2023-05-20T12:51:49Z</time>
      </trkpt>
      <trkpt lat="47.94678" lon="6.92075">
        <ele>1140.8</ele>
        <time>2023-05-20T12:51:56Z</time>
      </trkpt>
      <trkpt lat="47.94668" lon="6.92072">
        <ele>1140.5</ele>
        <time>2023-05-20T12:52:05Z</time>
      </trkpt>
      <trkpt lat="47.94665" lon="6.92067">
        <ele>1141.5</ele>
        <time>2023-05-20T12:52:09Z</time>
      </trkpt>
      <trkpt lat="47.94655" lon="6.92061">
        <ele>1142.7</ele>
        <time>2023-05-20T12:52:17Z</time>
      </trkpt>
      <trkpt lat="47.9465" lon="6.92062">
        <ele>1142.5</ele>
        <time>2023-05-20T12:52:21Z</time>
      </trkpt>
      <trkpt lat="47.94639" lon="6.92061">
        <ele>1142.6</ele>
        <time>2023-05-20T12:52:33Z</time>
      </trkpt>
      <trkpt lat="47.94634" lon="6.9206">
        <ele>1143.4</ele>
        <time>2023-05-20T12:52:38Z</time>
      </trkpt>
      <trkpt lat="47.9463" lon="6.92061">
        <ele>1143.6</ele>
        <time>2023-05-20T12:52:43Z</time>
      </trkpt>
      <trkpt lat="47.94625" lon="6.92062">
        <ele>1143.9</ele>
        <time>2023-05-20T12:52:46Z</time>
      </trkpt>
      <trkpt lat="47.94619" lon="6.92062">
        <ele>1144.5</ele>
        <time>2023-05-20T12:52:53Z</time>
      </trkpt>
      <trkpt lat="47.9461" lon="6.92058">
        <ele>1146.3</ele>
        <time>2023-05-20T12:53:01Z</time>
      </trkpt>
      <trkpt lat="47.946" lon="6.92051">
        <ele>1147</ele>
        <time>2023-05-20T12:53:11Z</time>
      </trkpt>
      <trkpt lat="47.94594" lon="6.9205">
        <ele>1146.9</ele>
        <time>2023-05-20T12:53:17Z</time>
      </trkpt>
      <trkpt lat="47.94584" lon="6.92052">
        <ele>1146.4</ele>
        <time>2023-05-20T12:53:24Z</time>
      </trkpt>
      <trkpt lat="47.94578" lon="6.92049">
        <ele>1142.4</ele>
        <time>2023-05-20T12:53:32Z</time>
      </trkpt>
      <trkpt lat="47.94576" lon="6.92044">
        <ele>1141.7</ele>
        <time>2023-05-20T12:53:38Z</time>
      </trkpt>
      <trkpt lat="47.94576" lon="6.92034">
        <ele>1143.8</ele>
        <time>2023-05-20T12:54:39Z</time>
      </trkpt>
      <trkpt lat="47.94576" lon="6.92028">
        <ele>1145</ele>
        <time>2023-05-20T12:54:44Z</time>
      </trkpt>
      <trkpt lat="47.94571" lon="6.92018">
        <ele>1143.6</ele>
        <time>2023-05-20T12:54:54Z</time>
      </trkpt>
      <trkpt lat="47.94566" lon="6.92012">
        <ele>1142.6</ele>
        <time>2023-05-20T12:55:01Z</time>
      </trkpt>
      <trkpt lat="47.94563" lon="6.92005">
        <ele>1143.2</ele>
        <time>2023-05-20T12:55:06Z</time>
      </trkpt>
      <trkpt lat="47.94559" lon="6.92">
        <ele>1143.6</ele>
        <time>2023-05-20T12:55:10Z</time>
      </trkpt>
      <trkpt lat="47.94554" lon="6.92003">
        <ele>1142.1</ele>
        <time>2023-05-20T12:55:18Z</time>
      </trkpt>
      <trkpt lat="47.94548" lon="6.92013">
        <ele>1139.1</ele>
        <time>2023-05-20T12:55:27Z</time>
      </trkpt>
      <trkpt lat="47.94526" lon="6.92006">
        <ele>1141.9</ele>
        <time>2023-05-20T12:55:44Z</time>
      </trkpt>
      <trkpt lat="47.94516" lon="6.92006">
        <ele>1141</ele>
        <time>2023-05-20T12:55:53Z</time>
      </trkpt>
      <trkpt lat="47.94509" lon="6.92004">
        <ele>1141.2</ele>
        <time>2023-05-20T12:56:00Z</time>
      </trkpt>
      <trkpt lat="47.94504" lon="6.92003">
        <ele>1141.1</ele>
        <time>2023-05-20T12:56:04Z</time>
      </trkpt>
      <trkpt lat="47.94499" lon="6.91998">
        <ele>1142</ele>
        <time>2023-05-20T12:56:11Z</time>
      </trkpt>
      <trkpt lat="47.94491" lon="6.9199">
        <ele>1141.6</ele>
        <time>2023-05-20T12:56:20Z</time>
      </trkpt>
      <trkpt lat="47.94486" lon="6.91988">
        <ele>1141</ele>
        <time>2023-05-20T12:56:25Z</time>
      </trkpt>
      <trkpt lat="47.94475" lon="6.91977">
        <ele>1140.7</ele>
        <time>2023-05-20T12:56:36Z</time>
      </trkpt>
      <trkpt lat="47.94467" lon="6.9197">
        <ele>1140.8</ele>
        <time>2023-05-20T12:56:44Z</time>
      </trkpt>
      <trkpt lat="47.94463" lon="6.91966">
        <ele>1140.9</ele>
        <time>2023-05-20T12:56:48Z</time>
      </trkpt>
      <trkpt lat="47.94447" lon="6.9196">
        <ele>1140.5</ele>
        <time>2023-05-20T12:57:01Z</time>
      </trkpt>
      <trkpt lat="47.94443" lon="6.91956">
        <ele>1140.6</ele>
        <time>2023-05-20T12:57:05Z</time>
      </trkpt>
      <trkpt lat="47.94438" lon="6.91956">
        <ele>1140.1</ele>
        <time>2023-05-20T12:57:10Z</time>
      </trkpt>
      <trkpt lat="47.94433" lon="6.91954">
        <ele>1139.7</ele>
        <time>2023-05-20T12:57:15Z</time>
      </trkpt>
      <trkpt lat="47.94429" lon="6.91955">
        <ele>1139.2</ele>
        <time>2023-05-20T12:57:19Z</time>
      </trkpt>
      <trkpt lat="47.94424" lon="6.91957">
        <ele>1138.4</ele>
        <time>2023-05-20T12:57:24Z</time>
      </trkpt>
      <trkpt lat="47.94422" lon="6.91963">
        <ele>1137.6</ele>
        <time>2023-05-20T12:57:29Z</time>
      </trkpt>
      <trkpt lat="47.94423" lon="6.91994">
        <ele>1133</ele>
        <time>2023-05-20T12:57:50Z</time>
      </trkpt>
      <trkpt lat="47.94416" lon="6.91996">
        <ele>1134.1</ele>
        <time>2023-05-20T12:58:00Z</time>
      </trkpt>
      <trkpt lat="47.94411" lon="6.91994">
        <ele>1132.8</ele>
        <time>2023-05-20T12:58:08Z</time>
      </trkpt>
      <trkpt lat="47.94406" lon="6.91992">
        <ele>1131.6</ele>
        <time>2023-05-20T12:58:14Z</time>
      </trkpt>
      <trkpt lat="47.94396" lon="6.91992">
        <ele>1128.7</ele>
        <time>2023-05-20T12:58:22Z</time>
      </trkpt>
      <trkpt lat="47.94401" lon="6.92">
        <ele>1128.9</ele>
        <time>2023-05-20T12:58:37Z</time>
      </trkpt>
      <trkpt lat="47.94399" lon="6.92006">
        <ele>1125.4</ele>
        <time>2023-05-20T12:58:47Z</time>
      </trkpt>
      <trkpt lat="47.94394" lon="6.92007">
        <ele>1123.4</ele>
        <time>2023-05-20T12:58:52Z</time>
      </trkpt>
      <trkpt lat="47.94389" lon="6.92008">
        <ele>1121.6</ele>
        <time>2023-05-20T12:58:56Z</time>
      </trkpt>
      <trkpt lat="47.94386" lon="6.9201">
        <ele>1119.2</ele>
        <time>2023-05-20T12:59:01Z</time>
      </trkpt>
      <trkpt lat="47.94393" lon="6.92014">
        <ele>1120</ele>
        <time>2023-05-20T12:59:13Z</time>
      </trkpt>
      <trkpt lat="47.94398" lon="6.92016">
        <ele>1120.3</ele>
        <time>2023-05-20T12:59:18Z</time>
      </trkpt>
      <trkpt lat="47.94397" lon="6.92021">
        <ele>1117.7</ele>
        <time>2023-05-20T12:59:31Z</time>
      </trkpt>
      <trkpt lat="47.944" lon="6.92025">
        <ele>1116.4</ele>
        <time>2023-05-20T12:59:54Z</time>
      </trkpt>
      <trkpt lat="47.94385" lon="6.9204">
        <ele>1106.3</ele>
        <time>2023-05-20T13:00:13Z</time>
      </trkpt>
      <trkpt lat="47.94379" lon="6.9204">
        <ele>1105.4</ele>
        <time>2023-05-20T13:00:18Z</time>
      </trkpt>
      <trkpt lat="47.94375" lon="6.92038">
        <ele>1105.4</ele>
        <time>2023-05-20T13:00:23Z</time>
      </trkpt>
      <trkpt lat="47.94371" lon="6.92042">
        <ele>1103.7</ele>
        <time>2023-05-20T13:00:34Z</time>
      </trkpt>
      <trkpt lat="47.94377" lon="6.92051">
        <ele>1101.4</ele>
        <time>2023-05-20T13:00:45Z</time>
      </trkpt>
      <trkpt lat="47.94378" lon="6.92057">
        <ele>1099.1</ele>
        <time>2023-05-20T13:00:57Z</time>
      </trkpt>
      <trkpt lat="47.94373" lon="6.9206">
        <ele>1098.3</ele>
        <time>2023-05-20T13:01:00Z</time>
      </trkpt>
      <trkpt lat="47.9437" lon="6.92064">
        <ele>1096.9</ele>
        <time>2023-05-20T13:01:04Z</time>
      </trkpt>
      <trkpt lat="47.94364" lon="6.92063">
        <ele>1098</ele>
        <time>2023-05-20T13:01:07Z</time>
      </trkpt>
      <trkpt lat="47.94356" lon="6.92057">
        <ele>1099.4</ele>
        <time>2023-05-20T13:01:15Z</time>
      </trkpt>
      <trkpt lat="47.94344" lon="6.92044">
        <ele>1098.3</ele>
        <time>2023-05-20T13:01:26Z</time>
      </trkpt>
      <trkpt lat="47.94338" lon="6.92042">
        <ele>1097.1</ele>
        <time>2023-05-20T13:01:33Z</time>
      </trkpt>
      <trkpt lat="47.94344" lon="6.92077">
        <ele>1092.9</ele>
        <time>2023-05-20T13:01:57Z</time>
      </trkpt>
      <trkpt lat="47.94341" lon="6.92083">
        <ele>1091.8</ele>
        <time>2023-05-20T13:02:02Z</time>
      </trkpt>
      <trkpt lat="47.94341" lon="6.9209">
        <ele>1089.8</ele>
        <time>2023-05-20T13:02:08Z</time>
      </trkpt>
      <trkpt lat="47.94341" lon="6.92098">
        <ele>1087.5</ele>
        <time>2023-05-20T13:02:11Z</time>
      </trkpt>
      <trkpt lat="47.94335" lon="6.9211">
        <ele>1086.5</ele>
        <time>2023-05-20T13:02:19Z</time>
      </trkpt>
      <trkpt lat="47.94326" lon="6.92113">
        <ele>1085.5</ele>
        <time>2023-05-20T13:02:26Z</time>
      </trkpt>
      <trkpt lat="47.94303" lon="6.92127">
        <ele>1082.1</ele>
        <time>2023-05-20T13:02:47Z</time>
      </trkpt>
      <trkpt lat="47.943" lon="6.92131">
        <ele>1081</ele>
        <time>2023-05-20T13:02:51Z</time>
      </trkpt>
      <trkpt lat="47.94299" lon="6.92139">
        <ele>1079.8</ele>
        <time>2023-05-20T13:03:00Z</time>
      </trkpt>
      <trkpt lat="47.94301" lon="6.92145">
        <ele>1078.5</ele>
        <time>2023-05-20T13:03:05Z</time>
      </trkpt>
      <trkpt lat="47.94296" lon="6.92153">
        <ele>1075.9</ele>
        <time>2023-05-20T13:03:16Z</time>
      </trkpt>
      <trkpt lat="47.94272" lon="6.92155">
        <ele>1074.3</ele>
        <time>2023-05-20T13:03:34Z</time>
      </trkpt>
      <trkpt lat="47.94261" lon="6.9216">
        <ele>1073.1</ele>
        <time>2023-05-20T13:03:43Z</time>
      </trkpt>
      <trkpt lat="47.94254" lon="6.92159">
        <ele>1072.6</ele>
        <time>2023-05-20T13:03:50Z</time>
      </trkpt>
      <trkpt lat="47.94241" lon="6.92169">
        <ele>1071.9</ele>
        <time>2023-05-20T13:04:01Z</time>
      </trkpt>
      <trkpt lat="47.94237" lon="6.92172">
        <ele>1071.8</ele>
        <time>2023-05-20T13:04:04Z</time>
      </trkpt>
      <trkpt lat="47.94228" lon="6.92173">
        <ele>1071.8</ele>
        <time>2023-05-20T13:04:10Z</time>
      </trkpt>
      <trkpt lat="47.94224" lon="6.92174">
        <ele>1071.7</ele>
        <time>2023-05-20T13:04:13Z</time>
      </trkpt>
      <trkpt lat="47.94209" lon="6.92166">
        <ele>1070.1</ele>
        <time>2023-05-20T13:04:27Z</time>
      </trkpt>
      <trkpt lat="47.94199" lon="6.9217">
        <ele>1068.5</ele>
        <time>2023-05-20T13:04:35Z</time>
      </trkpt>
      <trkpt lat="47.94195" lon="6.92169">
        <ele>1068</ele>
        <time>2023-05-20T13:04:39Z</time>
      </trkpt>
      <trkpt lat="47.9419" lon="6.92172">
        <ele>1067.7</ele>
        <time>2023-05-20T13:04:43Z</time>
      </trkpt>
      <trkpt lat="47.94183" lon="6.9218">
        <ele>1067.5</ele>
        <time>2023-05-20T13:04:51Z</time>
      </trkpt>
      <trkpt lat="47.94178" lon="6.92185">
        <ele>1067.5</ele>
        <time>2023-05-20T13:04:55Z</time>
      </trkpt>
      <trkpt lat="47.94173" lon="6.92181">
        <ele>1067.5</ele>
        <time>2023-05-20T13:04:58Z</time>
      </trkpt>
      <trkpt lat="47.9417" lon="6.92175">
        <ele>1067.3</ele>
        <time>2023-05-20T13:05:01Z</time>
      </trkpt>
      <trkpt lat="47.94169" lon="6.92168">
        <ele>1067.1</ele>
        <time>2023-05-20T13:05:06Z</time>
      </trkpt>
      <trkpt lat="47.94158" lon="6.92146">
        <ele>1067.2</ele>
        <time>2023-05-20T13:05:19Z</time>
      </trkpt>
      <trkpt lat="47.94156" lon="6.92139">
        <ele>1067</ele>
        <time>2023-05-20T13:05:23Z</time>
      </trkpt>
      <trkpt lat="47.9415" lon="6.92127">
        <ele>1066.6</ele>
        <time>2023-05-20T13:05:31Z</time>
      </trkpt>
      <trkpt lat="47.94146" lon="6.92123">
        <ele>1066.4</ele>
        <time>2023-05-20T13:05:35Z</time>
      </trkpt>
      <trkpt lat="47.94124" lon="6.92092">
        <ele>1065.7</ele>
        <time>2023-05-20T13:05:59Z</time>
      </trkpt>
      <trkpt lat="47.94112" lon="6.9208">
        <ele>1065.8</ele>
        <time>2023-05-20T13:06:10Z</time>
      </trkpt>
      <trkpt lat="47.94101" lon="6.92067">
        <ele>1065.6</ele>
        <time>2023-05-20T13:06:22Z</time>
      </trkpt>
      <trkpt lat="47.94082" lon="6.92059">
        <ele>1065.1</ele>
        <time>2023-05-20T13:06:37Z</time>
      </trkpt>
      <trkpt lat="47.94077" lon="6.92056">
        <ele>1064.4</ele>
        <time>2023-05-20T13:06:41Z</time>
      </trkpt>
      <trkpt lat="47.94072" lon="6.92059">
        <ele>1064.1</ele>
        <time>2023-05-20T13:06:45Z</time>
      </trkpt>
      <trkpt lat="47.94067" lon="6.92058">
        <ele>1063.5</ele>
        <time>2023-05-20T13:06:49Z</time>
      </trkpt>
      <trkpt lat="47.94062" lon="6.9206">
        <ele>1063.1</ele>
        <time>2023-05-20T13:06:53Z</time>
      </trkpt>
      <trkpt lat="47.94046" lon="6.92057">
        <ele>1061.1</ele>
        <time>2023-05-20T13:07:06Z</time>
      </trkpt>
      <trkpt lat="47.94042" lon="6.92055">
        <ele>1060.5</ele>
        <time>2023-05-20T13:07:11Z</time>
      </trkpt>
      <trkpt lat="47.94026" lon="6.92053">
        <ele>1058.7</ele>
        <time>2023-05-20T13:07:25Z</time>
      </trkpt>
      <trkpt lat="47.94016" lon="6.92049">
        <ele>1058</ele>
        <time>2023-05-20T13:07:33Z</time>
      </trkpt>
      <trkpt lat="47.94011" lon="6.92049">
        <ele>1057.8</ele>
        <time>2023-05-20T13:07:37Z</time>
      </trkpt>
      <trkpt lat="47.93996" lon="6.92047">
        <ele>1056.8</ele>
        <time>2023-05-20T13:07:49Z</time>
      </trkpt>
      <trkpt lat="47.93967" lon="6.92063">
        <ele>1056.3</ele>
        <time>2023-05-20T13:08:12Z</time>
      </trkpt>
      <trkpt lat="47.93958" lon="6.92069">
        <ele>1056.2</ele>
        <time>2023-05-20T13:08:20Z</time>
      </trkpt>
      <trkpt lat="47.93943" lon="6.92078">
        <ele>1055.9</ele>
        <time>2023-05-20T13:08:32Z</time>
      </trkpt>
      <trkpt lat="47.93937" lon="6.92079">
        <ele>1054.6</ele>
        <time>2023-05-20T13:08:36Z</time>
      </trkpt>
      <trkpt lat="47.93925" lon="6.92089">
        <ele>1052.7</ele>
        <time>2023-05-20T13:08:48Z</time>
      </trkpt>
      <trkpt lat="47.93903" lon="6.92119">
        <ele>1051.2</ele>
        <time>2023-05-20T13:09:16Z</time>
      </trkpt>
      <trkpt lat="47.93897" lon="6.92143">
        <ele>1050.2</ele>
        <time>2023-05-20T13:09:38Z</time>
      </trkpt>
      <trkpt lat="47.93901" lon="6.92146">
        <ele>1051.4</ele>
        <time>2023-05-20T13:09:46Z</time>
      </trkpt>
      <trkpt lat="47.93889" lon="6.92137">
        <ele>1048.1</ele>
        <time>2023-05-20T13:10:10Z</time>
      </trkpt>
      <trkpt lat="47.93889" lon="6.92138">
        <ele>1048.1</ele>
        <time>2023-05-20T13:10:55Z</time>
      </trkpt>
      <trkpt lat="47.93886" lon="6.92142">
        <ele>1048.6</ele>
        <time>2023-05-20T13:11:25Z</time>
      </trkpt>
      <trkpt lat="47.9389" lon="6.92145">
        <ele>1048.3</ele>
        <time>2023-05-20T13:11:47Z</time>
      </trkpt>
      <trkpt lat="47.93893" lon="6.92137">
        <ele>1049.1</ele>
        <time>2023-05-20T13:12:41Z</time>
      </trkpt>
      <trkpt lat="47.93897" lon="6.9214">
        <ele>1050.1</ele>
        <time>2023-05-20T13:12:53Z</time>
      </trkpt>
      <trkpt lat="47.93903" lon="6.92143">
        <ele>1051.8</ele>
        <time>2023-05-20T13:12:56Z</time>
      </trkpt>
      <trkpt lat="47.93903" lon="6.92152">
        <ele>1052.3</ele>
        <time>2023-05-20T13:13:15Z</time>
      </trkpt>
      <trkpt lat="47.939" lon="6.92157">
        <ele>1051.6</ele>
        <time>2023-05-20T13:13:19Z</time>
      </trkpt>
      <trkpt lat="47.93899" lon="6.92165">
        <ele>1051.6</ele>
        <time>2023-05-20T13:13:23Z</time>
      </trkpt>
      <trkpt lat="47.93891" lon="6.92193">
        <ele>1049.7</ele>
        <time>2023-05-20T13:13:41Z</time>
      </trkpt>
      <trkpt lat="47.93892" lon="6.922">
        <ele>1050.2</ele>
        <time>2023-05-20T13:13:45Z</time>
      </trkpt>
      <trkpt lat="47.93889" lon="6.92214">
        <ele>1049</ele>
        <time>2023-05-20T13:13:53Z</time>
      </trkpt>
      <trkpt lat="47.93884" lon="6.9222">
        <ele>1048.2</ele>
        <time>2023-05-20T13:13:56Z</time>
      </trkpt>
      <trkpt lat="47.9388" lon="6.92222">
        <ele>1047.4</ele>
        <time>2023-05-20T13:13:59Z</time>
      </trkpt>
      <trkpt lat="47.93873" lon="6.92218">
        <ele>1046.7</ele>
        <time>2023-05-20T13:14:02Z</time>
      </trkpt>
      <trkpt lat="47.93869" lon="6.92217">
        <ele>1046.2</ele>
        <time>2023-05-20T13:14:04Z</time>
      </trkpt>
      <trkpt lat="47.93863" lon="6.92216">
        <ele>1045.6</ele>
        <time>2023-05-20T13:14:07Z</time>
      </trkpt>
      <trkpt lat="47.93848" lon="6.92215">
        <ele>1045</ele>
        <time>2023-05-20T13:14:18Z</time>
      </trkpt>
      <trkpt lat="47.93842" lon="6.92215">
        <ele>1044.7</ele>
        <time>2023-05-20T13:14:24Z</time>
      </trkpt>
      <trkpt lat="47.9381" lon="6.92212">
        <ele>1048.1</ele>
        <time>2023-05-20T13:14:50Z</time>
      </trkpt>
      <trkpt lat="47.93802" lon="6.92214">
        <ele>1049.9</ele>
        <time>2023-05-20T13:14:58Z</time>
      </trkpt>
      <trkpt lat="47.93798" lon="6.92216">
        <ele>1051.3</ele>
        <time>2023-05-20T13:15:01Z</time>
      </trkpt>
      <trkpt lat="47.93794" lon="6.92215">
        <ele>1052.8</ele>
        <time>2023-05-20T13:15:06Z</time>
      </trkpt>
      <trkpt lat="47.93789" lon="6.92219">
        <ele>1054.6</ele>
        <time>2023-05-20T13:15:20Z</time>
      </trkpt>
      <trkpt lat="47.9379" lon="6.92231">
        <ele>1053.4</ele>
        <time>2023-05-20T13:15:31Z</time>
      </trkpt>
      <trkpt lat="47.93779" lon="6.92265">
        <ele>1056.2</ele>
        <time>2023-05-20T13:15:55Z</time>
      </trkpt>
      <trkpt lat="47.93778" lon="6.92272">
        <ele>1056.3</ele>
        <time>2023-05-20T13:16:00Z</time>
      </trkpt>
      <trkpt lat="47.93772" lon="6.92267">
        <ele>1059.4</ele>
        <time>2023-05-20T13:16:08Z</time>
      </trkpt>
      <trkpt lat="47.93765" lon="6.9225">
        <ele>1064.4</ele>
        <time>2023-05-20T13:16:19Z</time>
      </trkpt>
      <trkpt lat="47.93765" lon="6.92242">
        <ele>1064.6</ele>
        <time>2023-05-20T13:16:24Z</time>
      </trkpt>
      <trkpt lat="47.93765" lon="6.92224">
        <ele>1064.9</ele>
        <time>2023-05-20T13:16:36Z</time>
      </trkpt>
      <trkpt lat="47.93763" lon="6.92213">
        <ele>1065.2</ele>
        <time>2023-05-20T13:16:45Z</time>
      </trkpt>
      <trkpt lat="47.9376" lon="6.92222">
        <ele>1067.3</ele>
        <time>2023-05-20T13:17:03Z</time>
      </trkpt>
      <trkpt lat="47.93761" lon="6.92229">
        <ele>1066.8</ele>
        <time>2023-05-20T13:17:07Z</time>
      </trkpt>
      <trkpt lat="47.93759" lon="6.92243">
        <ele>1067.5</ele>
        <time>2023-05-20T13:17:15Z</time>
      </trkpt>
      <trkpt lat="47.93758" lon="6.92251">
        <ele>1067.8</ele>
        <time>2023-05-20T13:17:19Z</time>
      </trkpt>
      <trkpt lat="47.93755" lon="6.92256">
        <ele>1068.7</ele>
        <time>2023-05-20T13:17:23Z</time>
      </trkpt>
      <trkpt lat="47.93751" lon="6.92261">
        <ele>1069.9</ele>
        <time>2023-05-20T13:17:27Z</time>
      </trkpt>
      <trkpt lat="47.93749" lon="6.92268">
        <ele>1069.8</ele>
        <time>2023-05-20T13:17:35Z</time>
      </trkpt>
      <trkpt lat="47.9374" lon="6.92283">
        <ele>1072.1</ele>
        <time>2023-05-20T13:17:47Z</time>
      </trkpt>
      <trkpt lat="47.93735" lon="6.92286">
        <ele>1074.5</ele>
        <time>2023-05-20T13:17:50Z</time>
      </trkpt>
      <trkpt lat="47.93736" lon="6.92269">
        <ele>1075.3</ele>
        <time>2023-05-20T13:17:57Z</time>
      </trkpt>
      <trkpt lat="47.93738" lon="6.92262">
        <ele>1075.2</ele>
        <time>2023-05-20T13:18:01Z</time>
      </trkpt>
      <trkpt lat="47.93737" lon="6.92255">
        <ele>1076.2</ele>
        <time>2023-05-20T13:18:05Z</time>
      </trkpt>
      <trkpt lat="47.93734" lon="6.92251">
        <ele>1077.7</ele>
        <time>2023-05-20T13:18:09Z</time>
      </trkpt>
      <trkpt lat="47.93737" lon="6.92245">
        <ele>1076.6</ele>
        <time>2023-05-20T13:18:12Z</time>
      </trkpt>
      <trkpt lat="47.9373" lon="6.92232">
        <ele>1078.7</ele>
        <time>2023-05-20T13:18:24Z</time>
      </trkpt>
      <trkpt lat="47.93725" lon="6.92229">
        <ele>1080.3</ele>
        <time>2023-05-20T13:18:34Z</time>
      </trkpt>
      <trkpt lat="47.9372" lon="6.92236">
        <ele>1082</ele>
        <time>2023-05-20T13:18:43Z</time>
      </trkpt>
      <trkpt lat="47.93712" lon="6.92242">
        <ele>1084.3</ele>
        <time>2023-05-20T13:18:55Z</time>
      </trkpt>
      <trkpt lat="47.93709" lon="6.92248">
        <ele>1085.6</ele>
        <time>2023-05-20T13:19:01Z</time>
      </trkpt>
      <trkpt lat="47.9371" lon="6.92254">
        <ele>1085.8</ele>
        <time>2023-05-20T13:19:08Z</time>
      </trkpt>
      <trkpt lat="47.93709" lon="6.92262">
        <ele>1086.6</ele>
        <time>2023-05-20T13:19:13Z</time>
      </trkpt>
      <trkpt lat="47.93709" lon="6.92268">
        <ele>1087</ele>
        <time>2023-05-20T13:19:21Z</time>
      </trkpt>
      <trkpt lat="47.93709" lon="6.92276">
        <ele>1087.5</ele>
        <time>2023-05-20T13:19:26Z</time>
      </trkpt>
      <trkpt lat="47.93714" lon="6.92288">
        <ele>1086.1</ele>
        <time>2023-05-20T13:19:36Z</time>
      </trkpt>
      <trkpt lat="47.93714" lon="6.92312">
        <ele>1089</ele>
        <time>2023-05-20T13:19:52Z</time>
      </trkpt>
      <trkpt lat="47.9371" lon="6.92318">
        <ele>1092.3</ele>
        <time>2023-05-20T13:20:03Z</time>
      </trkpt>
      <trkpt lat="47.93706" lon="6.92314">
        <ele>1093.8</ele>
        <time>2023-05-20T13:20:07Z</time>
      </trkpt>
      <trkpt lat="47.93704" lon="6.92308">
        <ele>1093.9</ele>
        <time>2023-05-20T13:20:10Z</time>
      </trkpt>
      <trkpt lat="47.93691" lon="6.92288">
        <ele>1097.4</ele>
        <time>2023-05-20T13:20:26Z</time>
      </trkpt>
      <trkpt lat="47.93684" lon="6.92288">
        <ele>1099.2</ele>
        <time>2023-05-20T13:20:35Z</time>
      </trkpt>
      <trkpt lat="47.9368" lon="6.92293">
        <ele>1101.1</ele>
        <time>2023-05-20T13:20:47Z</time>
      </trkpt>
      <trkpt lat="47.93683" lon="6.92301">
        <ele>1101.6</ele>
        <time>2023-05-20T13:20:58Z</time>
      </trkpt>
      <trkpt lat="47.93686" lon="6.92306">
        <ele>1101.5</ele>
        <time>2023-05-20T13:21:02Z</time>
      </trkpt>
      <trkpt lat="47.93686" lon="6.92314">
        <ele>1102.6</ele>
        <time>2023-05-20T13:21:07Z</time>
      </trkpt>
      <trkpt lat="47.93692" lon="6.92326">
        <ele>1102.6</ele>
        <time>2023-05-20T13:21:15Z</time>
      </trkpt>
      <trkpt lat="47.93694" lon="6.92333">
        <ele>1103.1</ele>
        <time>2023-05-20T13:21:20Z</time>
      </trkpt>
      <trkpt lat="47.93692" lon="6.92341">
        <ele>1104.6</ele>
        <time>2023-05-20T13:21:27Z</time>
      </trkpt>
      <trkpt lat="47.93694" lon="6.92348">
        <ele>1104.7</ele>
        <time>2023-05-20T13:21:32Z</time>
      </trkpt>
      <trkpt lat="47.93695" lon="6.92364">
        <ele>1106</ele>
        <time>2023-05-20T13:21:43Z</time>
      </trkpt>
      <trkpt lat="47.93694" lon="6.92372">
        <ele>1107.3</ele>
        <time>2023-05-20T13:21:46Z</time>
      </trkpt>
      <trkpt lat="47.93688" lon="6.92368">
        <ele>1109.2</ele>
        <time>2023-05-20T13:21:55Z</time>
      </trkpt>
      <trkpt lat="47.93685" lon="6.92364">
        <ele>1109.8</ele>
        <time>2023-05-20T13:21:59Z</time>
      </trkpt>
      <trkpt lat="47.9368" lon="6.92362">
        <ele>1111.3</ele>
        <time>2023-05-20T13:22:04Z</time>
      </trkpt>
      <trkpt lat="47.93675" lon="6.92357">
        <ele>1112.3</ele>
        <time>2023-05-20T13:22:09Z</time>
      </trkpt>
      <trkpt lat="47.93664" lon="6.92357">
        <ele>1115.9</ele>
        <time>2023-05-20T13:22:20Z</time>
      </trkpt>
      <trkpt lat="47.93655" lon="6.92347">
        <ele>1116.2</ele>
        <time>2023-05-20T13:22:31Z</time>
      </trkpt>
      <trkpt lat="47.9366" lon="6.92357">
        <ele>1116.7</ele>
        <time>2023-05-20T13:22:48Z</time>
      </trkpt>
      <trkpt lat="47.93664" lon="6.92362">
        <ele>1116.7</ele>
        <time>2023-05-20T13:22:52Z</time>
      </trkpt>
      <trkpt lat="47.93666" lon="6.92368">
        <ele>1117.4</ele>
        <time>2023-05-20T13:22:56Z</time>
      </trkpt>
      <trkpt lat="47.9367" lon="6.92371">
        <ele>1116.5</ele>
        <time>2023-05-20T13:23:00Z</time>
      </trkpt>
      <trkpt lat="47.93671" lon="6.92377">
        <ele>1117.1</ele>
        <time>2023-05-20T13:23:04Z</time>
      </trkpt>
      <trkpt lat="47.93665" lon="6.92384">
        <ele>1120.4</ele>
        <time>2023-05-20T13:23:14Z</time>
      </trkpt>
      <trkpt lat="47.93656" lon="6.92394">
        <ele>1122.9</ele>
        <time>2023-05-20T13:23:26Z</time>
      </trkpt>
      <trkpt lat="47.93654" lon="6.92401">
        <ele>1123.7</ele>
        <time>2023-05-20T13:23:29Z</time>
      </trkpt>
      <trkpt lat="47.93646" lon="6.92418">
        <ele>1126.6</ele>
        <time>2023-05-20T13:23:39Z</time>
      </trkpt>
      <trkpt lat="47.93644" lon="6.92426">
        <ele>1128.2</ele>
        <time>2023-05-20T13:23:47Z</time>
      </trkpt>
      <trkpt lat="47.93639" lon="6.92433">
        <ele>1130.3</ele>
        <time>2023-05-20T13:23:59Z</time>
      </trkpt>
      <trkpt lat="47.93632" lon="6.92457">
        <ele>1133.9</ele>
        <time>2023-05-20T13:24:25Z</time>
      </trkpt>
      <trkpt lat="47.93617" lon="6.92472">
        <ele>1136.4</ele>
        <time>2023-05-20T13:24:42Z</time>
      </trkpt>
      <trkpt lat="47.93608" lon="6.92478">
        <ele>1136.5</ele>
        <time>2023-05-20T13:24:50Z</time>
      </trkpt>
      <trkpt lat="47.93603" lon="6.92477">
        <ele>1136.8</ele>
        <time>2023-05-20T13:24:54Z</time>
      </trkpt>
      <trkpt lat="47.93588" lon="6.92482">
        <ele>1137.1</ele>
        <time>2023-05-20T13:25:05Z</time>
      </trkpt>
      <trkpt lat="47.93584" lon="6.92483">
        <ele>1137.2</ele>
        <time>2023-05-20T13:25:09Z</time>
      </trkpt>
      <trkpt lat="47.93579" lon="6.92485">
        <ele>1137.3</ele>
        <time>2023-05-20T13:25:13Z</time>
      </trkpt>
      <trkpt lat="47.9357" lon="6.92488">
        <ele>1137.6</ele>
        <time>2023-05-20T13:25:19Z</time>
      </trkpt>
      <trkpt lat="47.93566" lon="6.9249">
        <ele>1137.7</ele>
        <time>2023-05-20T13:25:22Z</time>
      </trkpt>
      <trkpt lat="47.93562" lon="6.92492">
        <ele>1137.9</ele>
        <time>2023-05-20T13:25:25Z</time>
      </trkpt>
      <trkpt lat="47.93557" lon="6.92492">
        <ele>1138.2</ele>
        <time>2023-05-20T13:25:30Z</time>
      </trkpt>
      <trkpt lat="47.93552" lon="6.92493">
        <ele>1138.5</ele>
        <time>2023-05-20T13:25:34Z</time>
      </trkpt>
      <trkpt lat="47.93524" lon="6.92495">
        <ele>1140.3</ele>
        <time>2023-05-20T13:25:57Z</time>
      </trkpt>
      <trkpt lat="47.93515" lon="6.92492">
        <ele>1140.7</ele>
        <time>2023-05-20T13:26:06Z</time>
      </trkpt>
      <trkpt lat="47.93502" lon="6.92501">
        <ele>1140.8</ele>
        <time>2023-05-20T13:26:16Z</time>
      </trkpt>
      <trkpt lat="47.93497" lon="6.92501">
        <ele>1141.1</ele>
        <time>2023-05-20T13:26:20Z</time>
      </trkpt>
      <trkpt lat="47.93492" lon="6.92503">
        <ele>1141.3</ele>
        <time>2023-05-20T13:26:24Z</time>
      </trkpt>
      <trkpt lat="47.93487" lon="6.92505">
        <ele>1141.5</ele>
        <time>2023-05-20T13:26:28Z</time>
      </trkpt>
      <trkpt lat="47.93472" lon="6.92504">
        <ele>1142.6</ele>
        <time>2023-05-20T13:26:40Z</time>
      </trkpt>
      <trkpt lat="47.93467" lon="6.92506">
        <ele>1142.2</ele>
        <time>2023-05-20T13:26:44Z</time>
      </trkpt>
      <trkpt lat="47.93461" lon="6.92508">
        <ele>1141.7</ele>
        <time>2023-05-20T13:26:53Z</time>
      </trkpt>
      <trkpt lat="47.93456" lon="6.92509">
        <ele>1141.4</ele>
        <time>2023-05-20T13:26:58Z</time>
      </trkpt>
      <trkpt lat="47.93451" lon="6.9251">
        <ele>1141.2</ele>
        <time>2023-05-20T13:27:02Z</time>
      </trkpt>
      <trkpt lat="47.93447" lon="6.92511">
        <ele>1140.9</ele>
        <time>2023-05-20T13:27:06Z</time>
      </trkpt>
      <trkpt lat="47.93431" lon="6.9251">
        <ele>1139.5</ele>
        <time>2023-05-20T13:27:17Z</time>
      </trkpt>
      <trkpt lat="47.93426" lon="6.92512">
        <ele>1138.7</ele>
        <time>2023-05-20T13:27:21Z</time>
      </trkpt>
      <trkpt lat="47.93422" lon="6.92513">
        <ele>1138.2</ele>
        <time>2023-05-20T13:27:25Z</time>
      </trkpt>
      <trkpt lat="47.93407" lon="6.92509">
        <ele>1135.9</ele>
        <time>2023-05-20T13:27:37Z</time>
      </trkpt>
      <trkpt lat="47.934" lon="6.925">
        <ele>1136</ele>
        <time>2023-05-20T13:27:44Z</time>
      </trkpt>
      <trkpt lat="47.93382" lon="6.92487">
        <ele>1132.4</ele>
        <time>2023-05-20T13:28:00Z</time>
      </trkpt>
      <trkpt lat="47.93375" lon="6.92478">
        <ele>1131.7</ele>
        <time>2023-05-20T13:28:08Z</time>
      </trkpt>
      <trkpt lat="47.93367" lon="6.92473">
        <ele>1130.9</ele>
        <time>2023-05-20T13:28:16Z</time>
      </trkpt>
      <trkpt lat="47.93357" lon="6.92469">
        <ele>1129.2</ele>
        <time>2023-05-20T13:28:24Z</time>
      </trkpt>
      <trkpt lat="47.93348" lon="6.92461">
        <ele>1128.6</ele>
        <time>2023-05-20T13:28:32Z</time>
      </trkpt>
      <trkpt lat="47.93336" lon="6.92451">
        <ele>1129.8</ele>
        <time>2023-05-20T13:28:44Z</time>
      </trkpt>
      <trkpt lat="47.9333" lon="6.9245">
        <ele>1129.6</ele>
        <time>2023-05-20T13:28:48Z</time>
      </trkpt>
      <trkpt lat="47.93317" lon="6.9244">
        <ele>1131</ele>
        <time>2023-05-20T13:29:00Z</time>
      </trkpt>
      <trkpt lat="47.93314" lon="6.92438">
        <ele>1131.2</ele>
        <time>2023-05-20T13:29:03Z</time>
      </trkpt>
      <trkpt lat="47.93305" lon="6.92432">
        <ele>1132.1</ele>
        <time>2023-05-20T13:29:09Z</time>
      </trkpt>
      <trkpt lat="47.93276" lon="6.9241">
        <ele>1137.7</ele>
        <time>2023-05-20T13:29:39Z</time>
      </trkpt>
      <trkpt lat="47.93267" lon="6.92409">
        <ele>1137.7</ele>
        <time>2023-05-20T13:29:49Z</time>
      </trkpt>
      <trkpt lat="47.93263" lon="6.92405">
        <ele>1138.2</ele>
        <time>2023-05-20T13:29:53Z</time>
      </trkpt>
      <trkpt lat="47.9326" lon="6.924">
        <ele>1138.9</ele>
        <time>2023-05-20T13:29:58Z</time>
      </trkpt>
      <trkpt lat="47.93251" lon="6.92396">
        <ele>1139.7</ele>
        <time>2023-05-20T13:30:05Z</time>
      </trkpt>
      <trkpt lat="47.93237" lon="6.92396">
        <ele>1141.1</ele>
        <time>2023-05-20T13:30:17Z</time>
      </trkpt>
      <trkpt lat="47.93233" lon="6.92394">
        <ele>1141.9</ele>
        <time>2023-05-20T13:30:21Z</time>
      </trkpt>
      <trkpt lat="47.93224" lon="6.92391">
        <ele>1143.4</ele>
        <time>2023-05-20T13:30:29Z</time>
      </trkpt>
      <trkpt lat="47.93215" lon="6.92385">
        <ele>1144.4</ele>
        <time>2023-05-20T13:30:37Z</time>
      </trkpt>
      <trkpt lat="47.93206" lon="6.92383">
        <ele>1144.7</ele>
        <time>2023-05-20T13:30:44Z</time>
      </trkpt>
      <trkpt lat="47.93192" lon="6.92389">
        <ele>1144.9</ele>
        <time>2023-05-20T13:30:57Z</time>
      </trkpt>
      <trkpt lat="47.93178" lon="6.92398">
        <ele>1144</ele>
        <time>2023-05-20T13:31:09Z</time>
      </trkpt>
      <trkpt lat="47.93174" lon="6.92404">
        <ele>1143.8</ele>
        <time>2023-05-20T13:31:14Z</time>
      </trkpt>
      <trkpt lat="47.9317" lon="6.92413">
        <ele>1143.8</ele>
        <time>2023-05-20T13:31:21Z</time>
      </trkpt>
      <trkpt lat="47.93168" lon="6.92419">
        <ele>1143.7</ele>
        <time>2023-05-20T13:31:24Z</time>
      </trkpt>
      <trkpt lat="47.93163" lon="6.92431">
        <ele>1143</ele>
        <time>2023-05-20T13:31:33Z</time>
      </trkpt>
      <trkpt lat="47.93157" lon="6.9244">
        <ele>1142.8</ele>
        <time>2023-05-20T13:31:41Z</time>
      </trkpt>
      <trkpt lat="47.93154" lon="6.92446">
        <ele>1142.8</ele>
        <time>2023-05-20T13:31:45Z</time>
      </trkpt>
      <trkpt lat="47.93145" lon="6.92462">
        <ele>1142.5</ele>
        <time>2023-05-20T13:31:57Z</time>
      </trkpt>
      <trkpt lat="47.93139" lon="6.92473">
        <ele>1143</ele>
        <time>2023-05-20T13:32:05Z</time>
      </trkpt>
      <trkpt lat="47.93135" lon="6.92478">
        <ele>1143.6</ele>
        <time>2023-05-20T13:32:10Z</time>
      </trkpt>
      <trkpt lat="47.93132" lon="6.92483">
        <ele>1144.2</ele>
        <time>2023-05-20T13:32:14Z</time>
      </trkpt>
      <trkpt lat="47.93113" lon="6.92521">
        <ele>1149.1</ele>
        <time>2023-05-20T13:32:47Z</time>
      </trkpt>
      <trkpt lat="47.93097" lon="6.92552">
        <ele>1154.3</ele>
        <time>2023-05-20T13:33:18Z</time>
      </trkpt>
      <trkpt lat="47.93096" lon="6.92559">
        <ele>1155</ele>
        <time>2023-05-20T13:33:24Z</time>
      </trkpt>
      <trkpt lat="47.93095" lon="6.92566">
        <ele>1155.5</ele>
        <time>2023-05-20T13:33:30Z</time>
      </trkpt>
      <trkpt lat="47.93092" lon="6.92576">
        <ele>1157</ele>
        <time>2023-05-20T13:33:41Z</time>
      </trkpt>
      <trkpt lat="47.93088" lon="6.92581">
        <ele>1158.9</ele>
        <time>2023-05-20T13:33:47Z</time>
      </trkpt>
      <trkpt lat="47.93083" lon="6.9259">
        <ele>1160.5</ele>
        <time>2023-05-20T13:34:00Z</time>
      </trkpt>
      <trkpt lat="47.93079" lon="6.92593">
        <ele>1160.3</ele>
        <time>2023-05-20T13:34:04Z</time>
      </trkpt>
      <trkpt lat="47.93069" lon="6.92594">
        <ele>1160.1</ele>
        <time>2023-05-20T13:34:13Z</time>
      </trkpt>
      <trkpt lat="47.9306" lon="6.92586">
        <ele>1160.1</ele>
        <time>2023-05-20T13:34:23Z</time>
      </trkpt>
      <trkpt lat="47.93029" lon="6.92572">
        <ele>1156.7</ele>
        <time>2023-05-20T13:34:54Z</time>
      </trkpt>
      <trkpt lat="47.93001" lon="6.92558">
        <ele>1151.1</ele>
        <time>2023-05-20T13:35:26Z</time>
      </trkpt>
      <trkpt lat="47.92996" lon="6.92557">
        <ele>1149.9</ele>
        <time>2023-05-20T13:35:31Z</time>
      </trkpt>
      <trkpt lat="47.92988" lon="6.92553">
        <ele>1147.9</ele>
        <time>2023-05-20T13:35:39Z</time>
      </trkpt>
      <trkpt lat="47.92984" lon="6.92551">
        <ele>1146.8</ele>
        <time>2023-05-20T13:35:44Z</time>
      </trkpt>
      <trkpt lat="47.9298" lon="6.92551">
        <ele>1145.9</ele>
        <time>2023-05-20T13:35:48Z</time>
      </trkpt>
      <trkpt lat="47.92969" lon="6.92546">
        <ele>1143.2</ele>
        <time>2023-05-20T13:35:59Z</time>
      </trkpt>
      <trkpt lat="47.92964" lon="6.92541">
        <ele>1141.9</ele>
        <time>2023-05-20T13:36:15Z</time>
      </trkpt>
      <trkpt lat="47.92951" lon="6.92532">
        <ele>1139.2</ele>
        <time>2023-05-20T13:36:27Z</time>
      </trkpt>
      <trkpt lat="47.92946" lon="6.92526">
        <ele>1138.3</ele>
        <time>2023-05-20T13:36:35Z</time>
      </trkpt>
      <trkpt lat="47.92938" lon="6.92519">
        <ele>1136.4</ele>
        <time>2023-05-20T13:36:44Z</time>
      </trkpt>
      <trkpt lat="47.92934" lon="6.92516">
        <ele>1135.5</ele>
        <time>2023-05-20T13:36:47Z</time>
      </trkpt>
      <trkpt lat="47.9293" lon="6.92513">
        <ele>1134.6</ele>
        <time>2023-05-20T13:36:50Z</time>
      </trkpt>
      <trkpt lat="47.92926" lon="6.92511">
        <ele>1133.8</ele>
        <time>2023-05-20T13:36:53Z</time>
      </trkpt>
      <trkpt lat="47.92896" lon="6.92491">
        <ele>1128.2</ele>
        <time>2023-05-20T13:37:23Z</time>
      </trkpt>
      <trkpt lat="47.92884" lon="6.92479">
        <ele>1125.8</ele>
        <time>2023-05-20T13:37:36Z</time>
      </trkpt>
      <trkpt lat="47.92849" lon="6.92464">
        <ele>1117.4</ele>
        <time>2023-05-20T13:38:09Z</time>
      </trkpt>
      <trkpt lat="47.92811" lon="6.92447">
        <ele>1109.8</ele>
        <time>2023-05-20T13:38:43Z</time>
      </trkpt>
      <trkpt lat="47.92801" lon="6.92441">
        <ele>1108.4</ele>
        <time>2023-05-20T13:38:52Z</time>
      </trkpt>
      <trkpt lat="47.92784" lon="6.92436">
        <ele>1106</ele>
        <time>2023-05-20T13:39:08Z</time>
      </trkpt>
      <trkpt lat="47.92774" lon="6.92428">
        <ele>1104.2</ele>
        <time>2023-05-20T13:39:19Z</time>
      </trkpt>
      <trkpt lat="47.92763" lon="6.92415">
        <ele>1102.3</ele>
        <time>2023-05-20T13:39:30Z</time>
      </trkpt>
      <trkpt lat="47.92753" lon="6.92405">
        <ele>1100.1</ele>
        <time>2023-05-20T13:39:42Z</time>
      </trkpt>
      <trkpt lat="47.92744" lon="6.92407">
        <ele>1097.4</ele>
        <time>2023-05-20T13:39:50Z</time>
      </trkpt>
      <trkpt lat="47.92741" lon="6.92401">
        <ele>1096.2</ele>
        <time>2023-05-20T13:40:30Z</time>
      </trkpt>
      <trkpt lat="47.92741" lon="6.92393">
        <ele>1096.1</ele>
        <time>2023-05-20T13:40:34Z</time>
      </trkpt>
      <trkpt lat="47.92736" lon="6.92382">
        <ele>1093.5</ele>
        <time>2023-05-20T13:40:41Z</time>
      </trkpt>
      <trkpt lat="47.92702" lon="6.92342">
        <ele>1083.3</ele>
        <time>2023-05-20T13:41:14Z</time>
      </trkpt>
      <trkpt lat="47.92693" lon="6.92335">
        <ele>1081.4</ele>
        <time>2023-05-20T13:41:22Z</time>
      </trkpt>
      <trkpt lat="47.92691" lon="6.92329">
        <ele>1080.1</ele>
        <time>2023-05-20T13:41:27Z</time>
      </trkpt>
      <trkpt lat="47.92676" lon="6.92337">
        <ele>1074.7</ele>
        <time>2023-05-20T13:41:44Z</time>
      </trkpt>
      <trkpt lat="47.92668" lon="6.92328">
        <ele>1071.3</ele>
        <time>2023-05-20T13:42:03Z</time>
      </trkpt>
      <trkpt lat="47.92666" lon="6.92323">
        <ele>1070.3</ele>
        <time>2023-05-20T13:42:06Z</time>
      </trkpt>
      <trkpt lat="47.92666" lon="6.92314">
        <ele>1070</ele>
        <time>2023-05-20T13:42:10Z</time>
      </trkpt>
      <trkpt lat="47.92667" lon="6.92307">
        <ele>1070.1</ele>
        <time>2023-05-20T13:42:13Z</time>
      </trkpt>
      <trkpt lat="47.9267" lon="6.92301">
        <ele>1070.4</ele>
        <time>2023-05-20T13:42:17Z</time>
      </trkpt>
      <trkpt lat="47.92671" lon="6.92295">
        <ele>1069.9</ele>
        <time>2023-05-20T13:42:21Z</time>
      </trkpt>
      <trkpt lat="47.92674" lon="6.92289">
        <ele>1069.7</ele>
        <time>2023-05-20T13:42:25Z</time>
      </trkpt>
      <trkpt lat="47.92672" lon="6.92287">
        <ele>1069</ele>
        <time>2023-05-20T13:42:44Z</time>
      </trkpt>
      <trkpt lat="47.9267" lon="6.92278">
        <ele>1067.5</ele>
        <time>2023-05-20T13:44:04Z</time>
      </trkpt>
      <trkpt lat="47.92662" lon="6.92279">
        <ele>1065.3</ele>
        <time>2023-05-20T13:44:16Z</time>
      </trkpt>
      <trkpt lat="47.92657" lon="6.92277">
        <ele>1063.1</ele>
        <time>2023-05-20T13:44:22Z</time>
      </trkpt>
      <trkpt lat="47.92653" lon="6.9228">
        <ele>1061.7</ele>
        <time>2023-05-20T13:44:27Z</time>
      </trkpt>
      <trkpt lat="47.92648" lon="6.92272">
        <ele>1059.1</ele>
        <time>2023-05-20T13:44:34Z</time>
      </trkpt>
      <trkpt lat="47.92646" lon="6.92266">
        <ele>1057.8</ele>
        <time>2023-05-20T13:44:37Z</time>
      </trkpt>
      <trkpt lat="47.92644" lon="6.9226">
        <ele>1056.8</ele>
        <time>2023-05-20T13:44:40Z</time>
      </trkpt>
      <trkpt lat="47.92639" lon="6.92253">
        <ele>1055.1</ele>
        <time>2023-05-20T13:44:48Z</time>
      </trkpt>
      <trkpt lat="47.92629" lon="6.92245">
        <ele>1051.6</ele>
        <time>2023-05-20T13:45:01Z</time>
      </trkpt>
      <trkpt lat="47.92613" lon="6.92239">
        <ele>1047.3</ele>
        <time>2023-05-20T13:45:17Z</time>
      </trkpt>
      <trkpt lat="47.92603" lon="6.92244">
        <ele>1045.2</ele>
        <time>2023-05-20T13:45:24Z</time>
      </trkpt>
      <trkpt lat="47.92598" lon="6.92244">
        <ele>1044.4</ele>
        <time>2023-05-20T13:45:27Z</time>
      </trkpt>
      <trkpt lat="47.92594" lon="6.92242">
        <ele>1044</ele>
        <time>2023-05-20T13:45:31Z</time>
      </trkpt>
      <trkpt lat="47.92585" lon="6.92243">
        <ele>1042.5</ele>
        <time>2023-05-20T13:45:39Z</time>
      </trkpt>
      <trkpt lat="47.92581" lon="6.92242">
        <ele>1041.1</ele>
        <time>2023-05-20T13:45:43Z</time>
      </trkpt>
      <trkpt lat="47.92578" lon="6.92237">
        <ele>1040.4</ele>
        <time>2023-05-20T13:45:47Z</time>
      </trkpt>
      <trkpt lat="47.92577" lon="6.92231">
        <ele>1041.1</ele>
        <time>2023-05-20T13:45:51Z</time>
      </trkpt>
      <trkpt lat="47.92575" lon="6.92216">
        <ele>1041.5</ele>
        <time>2023-05-20T13:46:00Z</time>
      </trkpt>
      <trkpt lat="47.92575" lon="6.92206">
        <ele>1041.1</ele>
        <time>2023-05-20T13:46:06Z</time>
      </trkpt>
      <trkpt lat="47.92583" lon="6.92187">
        <ele>1041.3</ele>
        <time>2023-05-20T13:46:17Z</time>
      </trkpt>
      <trkpt lat="47.92586" lon="6.92182">
        <ele>1040.5</ele>
        <time>2023-05-20T13:46:21Z</time>
      </trkpt>
      <trkpt lat="47.92588" lon="6.92176">
        <ele>1039.2</ele>
        <time>2023-05-20T13:46:25Z</time>
      </trkpt>
      <trkpt lat="47.92593" lon="6.92167">
        <ele>1037.4</ele>
        <time>2023-05-20T13:46:32Z</time>
      </trkpt>
      <trkpt lat="47.92595" lon="6.92162">
        <ele>1036.3</ele>
        <time>2023-05-20T13:46:36Z</time>
      </trkpt>
      <trkpt lat="47.92628" lon="6.92144">
        <ele>1031</ele>
        <time>2023-05-20T13:47:04Z</time>
      </trkpt>
      <trkpt lat="47.92638" lon="6.92141">
        <ele>1029.7</ele>
        <time>2023-05-20T13:47:11Z</time>
      </trkpt>
      <trkpt lat="47.92642" lon="6.92142">
        <ele>1030</ele>
        <time>2023-05-20T13:47:15Z</time>
      </trkpt>
      <trkpt lat="47.92664" lon="6.92134">
        <ele>1027.4</ele>
        <time>2023-05-20T13:47:35Z</time>
      </trkpt>
      <trkpt lat="47.92663" lon="6.92132">
        <ele>1026.7</ele>
        <time>2023-05-20T13:47:54Z</time>
      </trkpt>
      <trkpt lat="47.92657" lon="6.92136">
        <ele>1028</ele>
        <time>2023-05-20T13:47:58Z</time>
      </trkpt>
      <trkpt lat="47.92643" lon="6.92134">
        <ele>1027.3</ele>
        <time>2023-05-20T13:48:08Z</time>
      </trkpt>
      <trkpt lat="47.92631" lon="6.92119">
        <ele>1022.5</ele>
        <time>2023-05-20T13:48:21Z</time>
      </trkpt>
      <trkpt lat="47.92626" lon="6.92117">
        <ele>1022.3</ele>
        <time>2023-05-20T13:48:25Z</time>
      </trkpt>
      <trkpt lat="47.92622" lon="6.92112">
        <ele>1021.1</ele>
        <time>2023-05-20T13:48:29Z</time>
      </trkpt>
      <trkpt lat="47.92616" lon="6.92111">
        <ele>1021.4</ele>
        <time>2023-05-20T13:48:33Z</time>
      </trkpt>
      <trkpt lat="47.92611" lon="6.92107">
        <ele>1020.5</ele>
        <time>2023-05-20T13:48:41Z</time>
      </trkpt>
      <trkpt lat="47.92605" lon="6.92104">
        <ele>1019.7</ele>
        <time>2023-05-20T13:48:45Z</time>
      </trkpt>
      <trkpt lat="47.92593" lon="6.92093">
        <ele>1016.6</ele>
        <time>2023-05-20T13:48:56Z</time>
      </trkpt>
      <trkpt lat="47.92574" lon="6.9209">
        <ele>1014.9</ele>
        <time>2023-05-20T13:49:14Z</time>
      </trkpt>
      <trkpt lat="47.92571" lon="6.92085">
        <ele>1013.5</ele>
        <time>2023-05-20T13:49:17Z</time>
      </trkpt>
      <trkpt lat="47.92563" lon="6.92085">
        <ele>1012.8</ele>
        <time>2023-05-20T13:49:25Z</time>
      </trkpt>
      <trkpt lat="47.92557" lon="6.92079">
        <ele>1011</ele>
        <time>2023-05-20T13:49:31Z</time>
      </trkpt>
      <trkpt lat="47.92553" lon="6.92079">
        <ele>1009.8</ele>
        <time>2023-05-20T13:49:35Z</time>
      </trkpt>
      <trkpt lat="47.92553" lon="6.9207">
        <ele>1007.8</ele>
        <time>2023-05-20T13:49:43Z</time>
      </trkpt>
      <trkpt lat="47.92593" lon="6.92048">
        <ele>999.6</ele>
        <time>2023-05-20T13:50:14Z</time>
      </trkpt>
      <trkpt lat="47.92604" lon="6.92045">
        <ele>997.7</ele>
        <time>2023-05-20T13:50:23Z</time>
      </trkpt>
      <trkpt lat="47.92609" lon="6.92045">
        <ele>997.4</ele>
        <time>2023-05-20T13:50:27Z</time>
      </trkpt>
      <trkpt lat="47.92605" lon="6.9205">
        <ele>999.4</ele>
        <time>2023-05-20T13:50:36Z</time>
      </trkpt>
      <trkpt lat="47.926" lon="6.92051">
        <ele>1000.2</ele>
        <time>2023-05-20T13:50:41Z</time>
      </trkpt>
      <trkpt lat="47.92596" lon="6.92049">
        <ele>999.7</ele>
        <time>2023-05-20T13:50:44Z</time>
      </trkpt>
      <trkpt lat="47.92585" lon="6.92051">
        <ele>1001.2</ele>
        <time>2023-05-20T13:50:52Z</time>
      </trkpt>
      <trkpt lat="47.92582" lon="6.92046">
        <ele>999.7</ele>
        <time>2023-05-20T13:50:56Z</time>
      </trkpt>
      <trkpt lat="47.92567" lon="6.92037">
        <ele>997.9</ele>
        <time>2023-05-20T13:51:08Z</time>
      </trkpt>
      <trkpt lat="47.92559" lon="6.92028">
        <ele>995.7</ele>
        <time>2023-05-20T13:51:16Z</time>
      </trkpt>
      <trkpt lat="47.92546" lon="6.92021">
        <ele>993.2</ele>
        <time>2023-05-20T13:51:28Z</time>
      </trkpt>
      <trkpt lat="47.92538" lon="6.92024">
        <ele>994.1</ele>
        <time>2023-05-20T13:51:36Z</time>
      </trkpt>
      <trkpt lat="47.92525" lon="6.92014">
        <ele>990.9</ele>
        <time>2023-05-20T13:51:50Z</time>
      </trkpt>
      <trkpt lat="47.92519" lon="6.92014">
        <ele>990.6</ele>
        <time>2023-05-20T13:51:55Z</time>
      </trkpt>
      <trkpt lat="47.92509" lon="6.9201">
        <ele>989</ele>
        <time>2023-05-20T13:52:03Z</time>
      </trkpt>
      <trkpt lat="47.92505" lon="6.9201">
        <ele>988.8</ele>
        <time>2023-05-20T13:52:06Z</time>
      </trkpt>
      <trkpt lat="47.92496" lon="6.92005">
        <ele>986.6</ele>
        <time>2023-05-20T13:52:13Z</time>
      </trkpt>
      <trkpt lat="47.92489" lon="6.91992">
        <ele>983.5</ele>
        <time>2023-05-20T13:52:21Z</time>
      </trkpt>
      <trkpt lat="47.92486" lon="6.91985">
        <ele>982.3</ele>
        <time>2023-05-20T13:52:24Z</time>
      </trkpt>
      <trkpt lat="47.92484" lon="6.91978">
        <ele>981.5</ele>
        <time>2023-05-20T13:52:29Z</time>
      </trkpt>
      <trkpt lat="47.9248" lon="6.91973">
        <ele>981.2</ele>
        <time>2023-05-20T13:52:34Z</time>
      </trkpt>
      <trkpt lat="47.92475" lon="6.9197">
        <ele>981.2</ele>
        <time>2023-05-20T13:52:38Z</time>
      </trkpt>
      <trkpt lat="47.92472" lon="6.91963">
        <ele>980</ele>
        <time>2023-05-20T13:52:44Z</time>
      </trkpt>
      <trkpt lat="47.92482" lon="6.91954">
        <ele>977</ele>
        <time>2023-05-20T13:52:51Z</time>
      </trkpt>
      <trkpt lat="47.92512" lon="6.91952">
        <ele>973.3</ele>
        <time>2023-05-20T13:53:12Z</time>
      </trkpt>
      <trkpt lat="47.92522" lon="6.91946">
        <ele>970.3</ele>
        <time>2023-05-20T13:53:24Z</time>
      </trkpt>
      <trkpt lat="47.92527" lon="6.91946">
        <ele>969.6</ele>
        <time>2023-05-20T13:53:28Z</time>
      </trkpt>
      <trkpt lat="47.92539" lon="6.91939">
        <ele>966.5</ele>
        <time>2023-05-20T13:53:40Z</time>
      </trkpt>
      <trkpt lat="47.92552" lon="6.91939">
        <ele>965.7</ele>
        <time>2023-05-20T13:53:50Z</time>
      </trkpt>
      <trkpt lat="47.92535" lon="6.91939">
        <ele>966.8</ele>
        <time>2023-05-20T13:54:12Z</time>
      </trkpt>
      <trkpt lat="47.92529" lon="6.91935">
        <ele>965.9</ele>
        <time>2023-05-20T13:54:18Z</time>
      </trkpt>
      <trkpt lat="47.92524" lon="6.91935">
        <ele>966.6</ele>
        <time>2023-05-20T13:54:23Z</time>
      </trkpt>
      <trkpt lat="47.92515" lon="6.91922">
        <ele>964.3</ele>
        <time>2023-05-20T13:54:33Z</time>
      </trkpt>
      <trkpt lat="47.92513" lon="6.91916">
        <ele>963</ele>
        <time>2023-05-20T13:54:36Z</time>
      </trkpt>
      <trkpt lat="47.9251" lon="6.91912">
        <ele>962.4</ele>
        <time>2023-05-20T13:54:40Z</time>
      </trkpt>
      <trkpt lat="47.92509" lon="6.91904">
        <ele>960.3</ele>
        <time>2023-05-20T13:54:44Z</time>
      </trkpt>
      <trkpt lat="47.92498" lon="6.91881">
        <ele>955.7</ele>
        <time>2023-05-20T13:54:59Z</time>
      </trkpt>
      <trkpt lat="47.92493" lon="6.9188">
        <ele>956</ele>
        <time>2023-05-20T13:55:07Z</time>
      </trkpt>
      <trkpt lat="47.92488" lon="6.91873">
        <ele>954.4</ele>
        <time>2023-05-20T13:55:11Z</time>
      </trkpt>
      <trkpt lat="47.92484" lon="6.9187">
        <ele>954</ele>
        <time>2023-05-20T13:55:16Z</time>
      </trkpt>
      <trkpt lat="47.9247" lon="6.91851">
        <ele>950.3</ele>
        <time>2023-05-20T13:55:32Z</time>
      </trkpt>
      <trkpt lat="47.92465" lon="6.91847">
        <ele>949.7</ele>
        <time>2023-05-20T13:55:40Z</time>
      </trkpt>
      <trkpt lat="47.92458" lon="6.91837">
        <ele>947.2</ele>
        <time>2023-05-20T13:55:47Z</time>
      </trkpt>
      <trkpt lat="47.92445" lon="6.91832">
        <ele>946.5</ele>
        <time>2023-05-20T13:56:00Z</time>
      </trkpt>
      <trkpt lat="47.9244" lon="6.91832">
        <ele>946.9</ele>
        <time>2023-05-20T13:56:04Z</time>
      </trkpt>
      <trkpt lat="47.92412" lon="6.91807">
        <ele>940.8</ele>
        <time>2023-05-20T13:56:35Z</time>
      </trkpt>
      <trkpt lat="47.92409" lon="6.91802">
        <ele>939.3</ele>
        <time>2023-05-20T13:56:39Z</time>
      </trkpt>
      <trkpt lat="47.92395" lon="6.9179">
        <ele>936.8</ele>
        <time>2023-05-20T13:56:53Z</time>
      </trkpt>
      <trkpt lat="47.92374" lon="6.91762">
        <ele>928.4</ele>
        <time>2023-05-20T13:57:18Z</time>
      </trkpt>
      <trkpt lat="47.92372" lon="6.91756">
        <ele>926.7</ele>
        <time>2023-05-20T13:57:22Z</time>
      </trkpt>
      <trkpt lat="47.92366" lon="6.91756">
        <ele>926.6</ele>
        <time>2023-05-20T13:57:27Z</time>
      </trkpt>
      <trkpt lat="47.92357" lon="6.91761">
        <ele>925.8</ele>
        <time>2023-05-20T13:57:40Z</time>
      </trkpt>
      <trkpt lat="47.92354" lon="6.91755">
        <ele>922.7</ele>
        <time>2023-05-20T13:57:44Z</time>
      </trkpt>
      <trkpt lat="47.92359" lon="6.91743">
        <ele>921.7</ele>
        <time>2023-05-20T13:57:50Z</time>
      </trkpt>
      <trkpt lat="47.92364" lon="6.91739">
        <ele>921.4</ele>
        <time>2023-05-20T13:57:54Z</time>
      </trkpt>
      <trkpt lat="47.92366" lon="6.91733">
        <ele>919.5</ele>
        <time>2023-05-20T13:57:57Z</time>
      </trkpt>
      <trkpt lat="47.92368" lon="6.91728">
        <ele>917.9</ele>
        <time>2023-05-20T13:58:01Z</time>
      </trkpt>
      <trkpt lat="47.92381" lon="6.9172">
        <ele>915.2</ele>
        <time>2023-05-20T13:58:12Z</time>
      </trkpt>
      <trkpt lat="47.92395" lon="6.9172">
        <ele>913.9</ele>
        <time>2023-05-20T13:58:28Z</time>
      </trkpt>
      <trkpt lat="47.92404" lon="6.91714">
        <ele>909.9</ele>
        <time>2023-05-20T13:58:36Z</time>
      </trkpt>
      <trkpt lat="47.92409" lon="6.91716">
        <ele>909.6</ele>
        <time>2023-05-20T13:58:40Z</time>
      </trkpt>
      <trkpt lat="47.92407" lon="6.91711">
        <ele>908.3</ele>
        <time>2023-05-20T13:58:48Z</time>
      </trkpt>
      <trkpt lat="47.92402" lon="6.91712">
        <ele>909.7</ele>
        <time>2023-05-20T13:58:52Z</time>
      </trkpt>
      <trkpt lat="47.92391" lon="6.91706">
        <ele>909.7</ele>
        <time>2023-05-20T13:59:05Z</time>
      </trkpt>
      <trkpt lat="47.92375" lon="6.91686">
        <ele>902.3</ele>
        <time>2023-05-20T13:59:30Z</time>
      </trkpt>
      <trkpt lat="47.92366" lon="6.91691">
        <ele>903.8</ele>
        <time>2023-05-20T13:59:43Z</time>
      </trkpt>
      <trkpt lat="47.9236" lon="6.91691">
        <ele>903.1</ele>
        <time>2023-05-20T13:59:48Z</time>
      </trkpt>
      <trkpt lat="47.92356" lon="6.91695">
        <ele>903.2</ele>
        <time>2023-05-20T13:59:53Z</time>
      </trkpt>
      <trkpt lat="47.92345" lon="6.91698">
        <ele>899.8</ele>
        <time>2023-05-20T14:00:02Z</time>
      </trkpt>
      <trkpt lat="47.9234" lon="6.91703">
        <ele>899.3</ele>
        <time>2023-05-20T14:00:10Z</time>
      </trkpt>
      <trkpt lat="47.92335" lon="6.91704">
        <ele>897.5</ele>
        <time>2023-05-20T14:00:13Z</time>
      </trkpt>
      <trkpt lat="47.9233" lon="6.91703">
        <ele>895.4</ele>
        <time>2023-05-20T14:00:16Z</time>
      </trkpt>
      <trkpt lat="47.92327" lon="6.91708">
        <ele>895.9</ele>
        <time>2023-05-20T14:00:19Z</time>
      </trkpt>
      <trkpt lat="47.92321" lon="6.9171">
        <ele>894.4</ele>
        <time>2023-05-20T14:00:23Z</time>
      </trkpt>
      <trkpt lat="47.92316" lon="6.9171">
        <ele>892.8</ele>
        <time>2023-05-20T14:00:26Z</time>
      </trkpt>
      <trkpt lat="47.92314" lon="6.91716">
        <ele>893.6</ele>
        <time>2023-05-20T14:00:31Z</time>
      </trkpt>
      <trkpt lat="47.92309" lon="6.91717">
        <ele>892.1</ele>
        <time>2023-05-20T14:00:35Z</time>
      </trkpt>
      <trkpt lat="47.92306" lon="6.91721">
        <ele>891.9</ele>
        <time>2023-05-20T14:00:40Z</time>
      </trkpt>
      <trkpt lat="47.92302" lon="6.91725">
        <ele>891.6</ele>
        <time>2023-05-20T14:00:44Z</time>
      </trkpt>
      <trkpt lat="47.92297" lon="6.91731">
        <ele>891.4</ele>
        <time>2023-05-20T14:00:51Z</time>
      </trkpt>
      <trkpt lat="47.92282" lon="6.91739">
        <ele>887.4</ele>
        <time>2023-05-20T14:01:04Z</time>
      </trkpt>
      <trkpt lat="47.92274" lon="6.91742">
        <ele>885.8</ele>
        <time>2023-05-20T14:01:14Z</time>
      </trkpt>
      <trkpt lat="47.92269" lon="6.9174">
        <ele>885.2</ele>
        <time>2023-05-20T14:03:03Z</time>
      </trkpt>
      <trkpt lat="47.9226" lon="6.91735">
        <ele>884.5</ele>
        <time>2023-05-20T14:03:13Z</time>
      </trkpt>
      <trkpt lat="47.92257" lon="6.91739">
        <ele>884.3</ele>
        <time>2023-05-20T14:03:18Z</time>
      </trkpt>
      <trkpt lat="47.92253" lon="6.91742">
        <ele>883.9</ele>
        <time>2023-05-20T14:03:22Z</time>
      </trkpt>
      <trkpt lat="47.92236" lon="6.91746">
        <ele>884.8</ele>
        <time>2023-05-20T14:03:38Z</time>
      </trkpt>
      <trkpt lat="47.92232" lon="6.91749">
        <ele>885</ele>
        <time>2023-05-20T14:03:42Z</time>
      </trkpt>
      <trkpt lat="47.92228" lon="6.91753">
        <ele>885.3</ele>
        <time>2023-05-20T14:03:46Z</time>
      </trkpt>
      <trkpt lat="47.92222" lon="6.91754">
        <ele>885.9</ele>
        <time>2023-05-20T14:03:54Z</time>
      </trkpt>
      <trkpt lat="47.92219" lon="6.91759">
        <ele>886.9</ele>
        <time>2023-05-20T14:03:59Z</time>
      </trkpt>
      <trkpt lat="47.92216" lon="6.91771">
        <ele>887.3</ele>
        <time>2023-05-20T14:04:08Z</time>
      </trkpt>
      <trkpt lat="47.92213" lon="6.9178">
        <ele>887.3</ele>
        <time>2023-05-20T14:04:15Z</time>
      </trkpt>
      <trkpt lat="47.92214" lon="6.91787">
        <ele>886.1</ele>
        <time>2023-05-20T14:04:19Z</time>
      </trkpt>
      <trkpt lat="47.92209" lon="6.91796">
        <ele>885.9</ele>
        <time>2023-05-20T14:04:27Z</time>
      </trkpt>
      <trkpt lat="47.92201" lon="6.91803">
        <ele>886.3</ele>
        <time>2023-05-20T14:04:35Z</time>
      </trkpt>
      <trkpt lat="47.92192" lon="6.91804">
        <ele>887.4</ele>
        <time>2023-05-20T14:04:43Z</time>
      </trkpt>
      <trkpt lat="47.92186" lon="6.91801">
        <ele>888.2</ele>
        <time>2023-05-20T14:04:46Z</time>
      </trkpt>
      <trkpt lat="47.92178" lon="6.91795">
        <ele>889.4</ele>
        <time>2023-05-20T14:04:52Z</time>
      </trkpt>
      <trkpt lat="47.92174" lon="6.91794">
        <ele>889.6</ele>
        <time>2023-05-20T14:04:56Z</time>
      </trkpt>
      <trkpt lat="47.92147" lon="6.91815">
        <ele>890.2</ele>
        <time>2023-05-20T14:05:22Z</time>
      </trkpt>
      <trkpt lat="47.92129" lon="6.91817">
        <ele>891.3</ele>
        <time>2023-05-20T14:05:35Z</time>
      </trkpt>
      <trkpt lat="47.92124" lon="6.91816">
        <ele>891.4</ele>
        <time>2023-05-20T14:05:40Z</time>
      </trkpt>
      <trkpt lat="47.9212" lon="6.91816">
        <ele>891.5</ele>
        <time>2023-05-20T14:05:44Z</time>
      </trkpt>
      <trkpt lat="47.92107" lon="6.91807">
        <ele>891.4</ele>
        <time>2023-05-20T14:05:55Z</time>
      </trkpt>
      <trkpt lat="47.92102" lon="6.91806">
        <ele>891.7</ele>
        <time>2023-05-20T14:06:00Z</time>
      </trkpt>
      <trkpt lat="47.92096" lon="6.91807">
        <ele>892</ele>
        <time>2023-05-20T14:06:04Z</time>
      </trkpt>
      <trkpt lat="47.9209" lon="6.91809">
        <ele>892.2</ele>
        <time>2023-05-20T14:06:09Z</time>
      </trkpt>
      <trkpt lat="47.92088" lon="6.91814">
        <ele>891.8</ele>
        <time>2023-05-20T14:06:13Z</time>
      </trkpt>
      <trkpt lat="47.92083" lon="6.91819">
        <ele>891.2</ele>
        <time>2023-05-20T14:06:17Z</time>
      </trkpt>
      <trkpt lat="47.92081" lon="6.91825">
        <ele>890.8</ele>
        <time>2023-05-20T14:06:21Z</time>
      </trkpt>
      <trkpt lat="47.92077" lon="6.91828">
        <ele>891.5</ele>
        <time>2023-05-20T14:06:25Z</time>
      </trkpt>
      <trkpt lat="47.92061" lon="6.91842">
        <ele>892.6</ele>
        <time>2023-05-20T14:06:40Z</time>
      </trkpt>
      <trkpt lat="47.92052" lon="6.91847">
        <ele>893.4</ele>
        <time>2023-05-20T14:06:48Z</time>
      </trkpt>
      <trkpt lat="47.92048" lon="6.91851">
        <ele>893.3</ele>
        <time>2023-05-20T14:06:52Z</time>
      </trkpt>
      <trkpt lat="47.92035" lon="6.91861">
        <ele>893.5</ele>
        <time>2023-05-20T14:07:04Z</time>
      </trkpt>
      <trkpt lat="47.92031" lon="6.91866">
        <ele>893.4</ele>
        <time>2023-05-20T14:07:08Z</time>
      </trkpt>
      <trkpt lat="47.92027" lon="6.91867">
        <ele>894.2</ele>
        <time>2023-05-20T14:07:11Z</time>
      </trkpt>
      <trkpt lat="47.92024" lon="6.91873">
        <ele>893.8</ele>
        <time>2023-05-20T14:07:15Z</time>
      </trkpt>
      <trkpt lat="47.91995" lon="6.91907">
        <ele>896.1</ele>
        <time>2023-05-20T14:07:49Z</time>
      </trkpt>
      <trkpt lat="47.9199" lon="6.91917">
        <ele>896.9</ele>
        <time>2023-05-20T14:07:57Z</time>
      </trkpt>
      <trkpt lat="47.91989" lon="6.91923">
        <ele>897.3</ele>
        <time>2023-05-20T14:08:02Z</time>
      </trkpt>
      <trkpt lat="47.91978" lon="6.91938">
        <ele>900.9</ele>
        <time>2023-05-20T14:08:22Z</time>
      </trkpt>
      <trkpt lat="47.91976" lon="6.91954">
        <ele>902.1</ele>
        <time>2023-05-20T14:08:40Z</time>
      </trkpt>
      <trkpt lat="47.91973" lon="6.91959">
        <ele>903.3</ele>
        <time>2023-05-20T14:08:46Z</time>
      </trkpt>
      <trkpt lat="47.91966" lon="6.9197">
        <ele>904.9</ele>
        <time>2023-05-20T14:08:59Z</time>
      </trkpt>
      <trkpt lat="47.91962" lon="6.91975">
        <ele>905.1</ele>
        <time>2023-05-20T14:09:04Z</time>
      </trkpt>
      <trkpt lat="47.91953" lon="6.91978">
        <ele>905.7</ele>
        <time>2023-05-20T14:09:13Z</time>
      </trkpt>
      <trkpt lat="47.9195" lon="6.91973">
        <ele>907</ele>
        <time>2023-05-20T14:09:16Z</time>
      </trkpt>
      <trkpt lat="47.91944" lon="6.91975">
        <ele>907.4</ele>
        <time>2023-05-20T14:09:22Z</time>
      </trkpt>
      <trkpt lat="47.9194" lon="6.91977">
        <ele>907.4</ele>
        <time>2023-05-20T14:09:26Z</time>
      </trkpt>
      <trkpt lat="47.91934" lon="6.91977">
        <ele>908.1</ele>
        <time>2023-05-20T14:09:33Z</time>
      </trkpt>
      <trkpt lat="47.91923" lon="6.91978">
        <ele>909.1</ele>
        <time>2023-05-20T14:09:41Z</time>
      </trkpt>
      <trkpt lat="47.91919" lon="6.91976">
        <ele>909.9</ele>
        <time>2023-05-20T14:09:46Z</time>
      </trkpt>
      <trkpt lat="47.9192" lon="6.91985">
        <ele>907.9</ele>
        <time>2023-05-20T14:09:53Z</time>
      </trkpt>
      <trkpt lat="47.91914" lon="6.91983">
        <ele>909.4</ele>
        <time>2023-05-20T14:10:01Z</time>
      </trkpt>
      <trkpt lat="47.9191" lon="6.91978">
        <ele>911.1</ele>
        <time>2023-05-20T14:10:03Z</time>
      </trkpt>
      <trkpt lat="47.91907" lon="6.91973">
        <ele>912.3</ele>
        <time>2023-05-20T14:10:06Z</time>
      </trkpt>
      <trkpt lat="47.91898" lon="6.91974">
        <ele>913.6</ele>
        <time>2023-05-20T14:10:19Z</time>
      </trkpt>
      <trkpt lat="47.91892" lon="6.91979">
        <ele>914.8</ele>
        <time>2023-05-20T14:10:26Z</time>
      </trkpt>
      <trkpt lat="47.91872" lon="6.9198">
        <ele>920</ele>
        <time>2023-05-20T14:10:47Z</time>
      </trkpt>
      <trkpt lat="47.91867" lon="6.91987">
        <ele>922</ele>
        <time>2023-05-20T14:10:52Z</time>
      </trkpt>
      <trkpt lat="47.91865" lon="6.91992">
        <ele>923.1</ele>
        <time>2023-05-20T14:10:55Z</time>
      </trkpt>
      <trkpt lat="47.91863" lon="6.92004">
        <ele>925</ele>
        <time>2023-05-20T14:11:05Z</time>
      </trkpt>
      <trkpt lat="47.91867" lon="6.92013">
        <ele>925.1</ele>
        <time>2023-05-20T14:11:17Z</time>
      </trkpt>
      <trkpt lat="47.91868" lon="6.92027">
        <ele>926.7</ele>
        <time>2023-05-20T14:11:28Z</time>
      </trkpt>
      <trkpt lat="47.91858" lon="6.9204">
        <ele>932.3</ele>
        <time>2023-05-20T14:11:50Z</time>
      </trkpt>
      <trkpt lat="47.91858" lon="6.92055">
        <ele>934.2</ele>
        <time>2023-05-20T14:12:02Z</time>
      </trkpt>
      <trkpt lat="47.91858" lon="6.92069">
        <ele>937.8</ele>
        <time>2023-05-20T14:12:14Z</time>
      </trkpt>
      <trkpt lat="47.91859" lon="6.92079">
        <ele>940.3</ele>
        <time>2023-05-20T14:12:25Z</time>
      </trkpt>
      <trkpt lat="47.91863" lon="6.92086">
        <ele>941.2</ele>
        <time>2023-05-20T14:12:37Z</time>
      </trkpt>
      <trkpt lat="47.91868" lon="6.92092">
        <ele>941.4</ele>
        <time>2023-05-20T14:12:49Z</time>
      </trkpt>
      <trkpt lat="47.91867" lon="6.92102">
        <ele>944.1</ele>
        <time>2023-05-20T14:13:01Z</time>
      </trkpt>
      <trkpt lat="47.9187" lon="6.92112">
        <ele>945.6</ele>
        <time>2023-05-20T14:13:14Z</time>
      </trkpt>
      <trkpt lat="47.9187" lon="6.92119">
        <ele>946.8</ele>
        <time>2023-05-20T14:13:19Z</time>
      </trkpt>
      <trkpt lat="47.91863" lon="6.92141">
        <ele>951.9</ele>
        <time>2023-05-20T14:13:40Z</time>
      </trkpt>
      <trkpt lat="47.91859" lon="6.92144">
        <ele>952.8</ele>
        <time>2023-05-20T14:13:46Z</time>
      </trkpt>
      <trkpt lat="47.91857" lon="6.9215">
        <ele>953.8</ele>
        <time>2023-05-20T14:13:52Z</time>
      </trkpt>
      <trkpt lat="47.91854" lon="6.92155">
        <ele>954.7</ele>
        <time>2023-05-20T14:13:55Z</time>
      </trkpt>
      <trkpt lat="47.91849" lon="6.92159">
        <ele>955.6</ele>
        <time>2023-05-20T14:13:59Z</time>
      </trkpt>
      <trkpt lat="47.91834" lon="6.92181">
        <ele>960.5</ele>
        <time>2023-05-20T14:14:26Z</time>
      </trkpt>
      <trkpt lat="47.91832" lon="6.92188">
        <ele>961.8</ele>
        <time>2023-05-20T14:14:31Z</time>
      </trkpt>
      <trkpt lat="47.91831" lon="6.92193">
        <ele>962.7</ele>
        <time>2023-05-20T14:14:40Z</time>
      </trkpt>
      <trkpt lat="47.9183" lon="6.92205">
        <ele>964.5</ele>
        <time>2023-05-20T14:14:54Z</time>
      </trkpt>
      <trkpt lat="47.91827" lon="6.92213">
        <ele>965.7</ele>
        <time>2023-05-20T14:15:06Z</time>
      </trkpt>
      <trkpt lat="47.91824" lon="6.92228">
        <ele>967.8</ele>
        <time>2023-05-20T14:15:18Z</time>
      </trkpt>
      <trkpt lat="47.91821" lon="6.92233">
        <ele>968.4</ele>
        <time>2023-05-20T14:15:23Z</time>
      </trkpt>
      <trkpt lat="47.91818" lon="6.92251">
        <ele>970.5</ele>
        <time>2023-05-20T14:15:38Z</time>
      </trkpt>
      <trkpt lat="47.91814" lon="6.92256">
        <ele>970.7</ele>
        <time>2023-05-20T14:15:45Z</time>
      </trkpt>
      <trkpt lat="47.9181" lon="6.92269">
        <ele>971.1</ele>
        <time>2023-05-20T14:15:54Z</time>
      </trkpt>
      <trkpt lat="47.91811" lon="6.92277">
        <ele>971.5</ele>
        <time>2023-05-20T14:15:58Z</time>
      </trkpt>
      <trkpt lat="47.91808" lon="6.92292">
        <ele>972.2</ele>
        <time>2023-05-20T14:16:07Z</time>
      </trkpt>
      <trkpt lat="47.91801" lon="6.92306">
        <ele>974.1</ele>
        <time>2023-05-20T14:16:18Z</time>
      </trkpt>
      <trkpt lat="47.91781" lon="6.92315">
        <ele>980.6</ele>
        <time>2023-05-20T14:16:37Z</time>
      </trkpt>
      <trkpt lat="47.91771" lon="6.92305">
        <ele>979.6</ele>
        <time>2023-05-20T14:16:47Z</time>
      </trkpt>
      <trkpt lat="47.91765" lon="6.92304">
        <ele>980</ele>
        <time>2023-05-20T14:16:53Z</time>
      </trkpt>
      <trkpt lat="47.91753" lon="6.92308">
        <ele>982.2</ele>
        <time>2023-05-20T14:17:08Z</time>
      </trkpt>
      <trkpt lat="47.91747" lon="6.92311">
        <ele>983</ele>
        <time>2023-05-20T14:17:19Z</time>
      </trkpt>
      <trkpt lat="47.9174" lon="6.92311">
        <ele>982.7</ele>
        <time>2023-05-20T14:17:24Z</time>
      </trkpt>
      <trkpt lat="47.91733" lon="6.92324">
        <ele>984.6</ele>
        <time>2023-05-20T14:17:35Z</time>
      </trkpt>
      <trkpt lat="47.91731" lon="6.92331">
        <ele>985.6</ele>
        <time>2023-05-20T14:17:43Z</time>
      </trkpt>
      <trkpt lat="47.91733" lon="6.92345">
        <ele>987.2</ele>
        <time>2023-05-20T14:17:55Z</time>
      </trkpt>
      <trkpt lat="47.9174" lon="6.92351">
        <ele>988.6</ele>
        <time>2023-05-20T14:18:06Z</time>
      </trkpt>
      <trkpt lat="47.91752" lon="6.92347">
        <ele>989.4</ele>
        <time>2023-05-20T14:18:18Z</time>
      </trkpt>
      <trkpt lat="47.91756" lon="6.92352">
        <ele>989.7</ele>
        <time>2023-05-20T14:18:25Z</time>
      </trkpt>
      <trkpt lat="47.91765" lon="6.92382">
        <ele>992.4</ele>
        <time>2023-05-20T14:18:48Z</time>
      </trkpt>
      <trkpt lat="47.91769" lon="6.92386">
        <ele>992.7</ele>
        <time>2023-05-20T14:18:54Z</time>
      </trkpt>
      <trkpt lat="47.91771" lon="6.92396">
        <ele>993.8</ele>
        <time>2023-05-20T14:19:02Z</time>
      </trkpt>
      <trkpt lat="47.91772" lon="6.9241">
        <ele>995.3</ele>
        <time>2023-05-20T14:19:11Z</time>
      </trkpt>
      <trkpt lat="47.91775" lon="6.92424">
        <ele>997.4</ele>
        <time>2023-05-20T14:19:19Z</time>
      </trkpt>
      <trkpt lat="47.91778" lon="6.9242">
        <ele>996.6</ele>
        <time>2023-05-20T14:19:41Z</time>
      </trkpt>
      <trkpt lat="47.9178" lon="6.92428">
        <ele>997.8</ele>
        <time>2023-05-20T14:19:44Z</time>
      </trkpt>
      <trkpt lat="47.91789" lon="6.92456">
        <ele>1002</ele>
        <time>2023-05-20T14:20:08Z</time>
      </trkpt>
      <trkpt lat="47.91788" lon="6.92465">
        <ele>1004.2</ele>
        <time>2023-05-20T14:20:16Z</time>
      </trkpt>
      <trkpt lat="47.9179" lon="6.92472">
        <ele>1005.3</ele>
        <time>2023-05-20T14:20:23Z</time>
      </trkpt>
      <trkpt lat="47.91797" lon="6.92488">
        <ele>1007.8</ele>
        <time>2023-05-20T14:20:42Z</time>
      </trkpt>
      <trkpt lat="47.91799" lon="6.92495">
        <ele>1008.9</ele>
        <time>2023-05-20T14:20:53Z</time>
      </trkpt>
      <trkpt lat="47.91803" lon="6.92501">
        <ele>1009.1</ele>
        <time>2023-05-20T14:20:57Z</time>
      </trkpt>
      <trkpt lat="47.91807" lon="6.92504">
        <ele>1008.5</ele>
        <time>2023-05-20T14:21:02Z</time>
      </trkpt>
      <trkpt lat="47.91808" lon="6.92515">
        <ele>1011.1</ele>
        <time>2023-05-20T14:21:16Z</time>
      </trkpt>
      <trkpt lat="47.91806" lon="6.92525">
        <ele>1015</ele>
        <time>2023-05-20T14:21:28Z</time>
      </trkpt>
      <trkpt lat="47.91812" lon="6.92536">
        <ele>1014.9</ele>
        <time>2023-05-20T14:21:41Z</time>
      </trkpt>
      <trkpt lat="47.91812" lon="6.92543">
        <ele>1017.1</ele>
        <time>2023-05-20T14:21:52Z</time>
      </trkpt>
      <trkpt lat="47.91811" lon="6.9255">
        <ele>1019.9</ele>
        <time>2023-05-20T14:21:58Z</time>
      </trkpt>
      <trkpt lat="47.91802" lon="6.92551">
        <ele>1024.9</ele>
        <time>2023-05-20T14:22:10Z</time>
      </trkpt>
      <trkpt lat="47.91795" lon="6.92549">
        <ele>1027</ele>
        <time>2023-05-20T14:22:16Z</time>
      </trkpt>
      <trkpt lat="47.91791" lon="6.92543">
        <ele>1026.5</ele>
        <time>2023-05-20T14:22:22Z</time>
      </trkpt>
      <trkpt lat="47.91773" lon="6.92536">
        <ele>1029.9</ele>
        <time>2023-05-20T14:22:52Z</time>
      </trkpt>
      <trkpt lat="47.91771" lon="6.9254">
        <ele>1031.6</ele>
        <time>2023-05-20T14:23:17Z</time>
      </trkpt>
      <trkpt lat="47.91774" lon="6.92549">
        <ele>1034.2</ele>
        <time>2023-05-20T14:23:29Z</time>
      </trkpt>
      <trkpt lat="47.9178" lon="6.92556">
        <ele>1035.2</ele>
        <time>2023-05-20T14:23:41Z</time>
      </trkpt>
      <trkpt lat="47.91786" lon="6.92566">
        <ele>1035.5</ele>
        <time>2023-05-20T14:23:51Z</time>
      </trkpt>
      <trkpt lat="47.91784" lon="6.92572">
        <ele>1038</ele>
        <time>2023-05-20T14:23:55Z</time>
      </trkpt>
      <trkpt lat="47.91781" lon="6.92577">
        <ele>1040.7</ele>
        <time>2023-05-20T14:24:03Z</time>
      </trkpt>
      <trkpt lat="47.91775" lon="6.92576">
        <ele>1042.4</ele>
        <time>2023-05-20T14:24:08Z</time>
      </trkpt>
      <trkpt lat="47.9177" lon="6.92579">
        <ele>1044.1</ele>
        <time>2023-05-20T14:24:15Z</time>
      </trkpt>
      <trkpt lat="47.91763" lon="6.9258">
        <ele>1045.6</ele>
        <time>2023-05-20T14:24:24Z</time>
      </trkpt>
      <trkpt lat="47.9177" lon="6.92586">
        <ele>1045.9</ele>
        <time>2023-05-20T14:24:43Z</time>
      </trkpt>
      <trkpt lat="47.91772" lon="6.92594">
        <ele>1046.8</ele>
        <time>2023-05-20T14:24:53Z</time>
      </trkpt>
      <trkpt lat="47.91767" lon="6.92599">
        <ele>1048.9</ele>
        <time>2023-05-20T14:24:59Z</time>
      </trkpt>
      <trkpt lat="47.91761" lon="6.92601">
        <ele>1050.7</ele>
        <time>2023-05-20T14:25:05Z</time>
      </trkpt>
      <trkpt lat="47.91758" lon="6.92605">
        <ele>1052.3</ele>
        <time>2023-05-20T14:25:15Z</time>
      </trkpt>
      <trkpt lat="47.9176" lon="6.9261">
        <ele>1052.9</ele>
        <time>2023-05-20T14:25:19Z</time>
      </trkpt>
      <trkpt lat="47.91758" lon="6.92619">
        <ele>1053.8</ele>
        <time>2023-05-20T14:25:26Z</time>
      </trkpt>
      <trkpt lat="47.91754" lon="6.92622">
        <ele>1054.9</ele>
        <time>2023-05-20T14:25:31Z</time>
      </trkpt>
      <trkpt lat="47.91748" lon="6.92625">
        <ele>1056.1</ele>
        <time>2023-05-20T14:25:40Z</time>
      </trkpt>
      <trkpt lat="47.91745" lon="6.9263">
        <ele>1056.4</ele>
        <time>2023-05-20T14:25:44Z</time>
      </trkpt>
      <trkpt lat="47.91742" lon="6.92635">
        <ele>1057</ele>
        <time>2023-05-20T14:25:48Z</time>
      </trkpt>
      <trkpt lat="47.91738" lon="6.92638">
        <ele>1057.7</ele>
        <time>2023-05-20T14:25:52Z</time>
      </trkpt>
      <trkpt lat="47.91733" lon="6.92643">
        <ele>1058.5</ele>
        <time>2023-05-20T14:25:59Z</time>
      </trkpt>
      <trkpt lat="47.91729" lon="6.9265">
        <ele>1059.2</ele>
        <time>2023-05-20T14:26:11Z</time>
      </trkpt>
      <trkpt lat="47.91725" lon="6.92651">
        <ele>1059.9</ele>
        <time>2023-05-20T14:26:16Z</time>
      </trkpt>
      <trkpt lat="47.91717" lon="6.92662">
        <ele>1061.9</ele>
        <time>2023-05-20T14:26:26Z</time>
      </trkpt>
      <trkpt lat="47.9171" lon="6.92666">
        <ele>1063.6</ele>
        <time>2023-05-20T14:26:34Z</time>
      </trkpt>
      <trkpt lat="47.91703" lon="6.92674">
        <ele>1065.1</ele>
        <time>2023-05-20T14:26:43Z</time>
      </trkpt>
      <trkpt lat="47.91686" lon="6.9268">
        <ele>1067.7</ele>
        <time>2023-05-20T14:27:04Z</time>
      </trkpt>
      <trkpt lat="47.91681" lon="6.9268">
        <ele>1068.5</ele>
        <time>2023-05-20T14:27:09Z</time>
      </trkpt>
      <trkpt lat="47.91668" lon="6.92684">
        <ele>1070.2</ele>
        <time>2023-05-20T14:27:28Z</time>
      </trkpt>
      <trkpt lat="47.91662" lon="6.92679">
        <ele>1071.5</ele>
        <time>2023-05-20T14:27:34Z</time>
      </trkpt>
      <trkpt lat="47.91655" lon="6.92684">
        <ele>1073</ele>
        <time>2023-05-20T14:27:44Z</time>
      </trkpt>
      <trkpt lat="47.9165" lon="6.92684">
        <ele>1074.1</ele>
        <time>2023-05-20T14:27:49Z</time>
      </trkpt>
      <trkpt lat="47.91641" lon="6.92696">
        <ele>1076.3</ele>
        <time>2023-05-20T14:28:10Z</time>
      </trkpt>
      <trkpt lat="47.91636" lon="6.92702">
        <ele>1076.9</ele>
        <time>2023-05-20T14:28:22Z</time>
      </trkpt>
      <trkpt lat="47.91631" lon="6.92702">
        <ele>1078</ele>
        <time>2023-05-20T14:28:28Z</time>
      </trkpt>
      <trkpt lat="47.91614" lon="6.92709">
        <ele>1081.7</ele>
        <time>2023-05-20T14:28:45Z</time>
      </trkpt>
      <trkpt lat="47.91609" lon="6.92709">
        <ele>1083</ele>
        <time>2023-05-20T14:28:52Z</time>
      </trkpt>
      <trkpt lat="47.91604" lon="6.92712">
        <ele>1084.3</ele>
        <time>2023-05-20T14:28:56Z</time>
      </trkpt>
      <trkpt lat="47.91599" lon="6.92719">
        <ele>1085.6</ele>
        <time>2023-05-20T14:29:10Z</time>
      </trkpt>
      <trkpt lat="47.91595" lon="6.92717">
        <ele>1086.7</ele>
        <time>2023-05-20T14:29:15Z</time>
      </trkpt>
      <trkpt lat="47.9159" lon="6.92718">
        <ele>1088.1</ele>
        <time>2023-05-20T14:29:18Z</time>
      </trkpt>
      <trkpt lat="47.91584" lon="6.92715">
        <ele>1089.8</ele>
        <time>2023-05-20T14:29:28Z</time>
      </trkpt>
      <trkpt lat="47.91576" lon="6.92716">
        <ele>1092.1</ele>
        <time>2023-05-20T14:29:40Z</time>
      </trkpt>
      <trkpt lat="47.91549" lon="6.92732">
        <ele>1098.3</ele>
        <time>2023-05-20T14:30:17Z</time>
      </trkpt>
      <trkpt lat="47.91541" lon="6.9273">
        <ele>1100.2</ele>
        <time>2023-05-20T14:30:29Z</time>
      </trkpt>
      <trkpt lat="47.91537" lon="6.92727">
        <ele>1101.4</ele>
        <time>2023-05-20T14:30:35Z</time>
      </trkpt>
      <trkpt lat="47.91531" lon="6.9273">
        <ele>1102.2</ele>
        <time>2023-05-20T14:30:44Z</time>
      </trkpt>
      <trkpt lat="47.91518" lon="6.92729">
        <ele>1103.7</ele>
        <time>2023-05-20T14:30:58Z</time>
      </trkpt>
      <trkpt lat="47.9151" lon="6.92726">
        <ele>1104.7</ele>
        <time>2023-05-20T14:31:05Z</time>
      </trkpt>
      <trkpt lat="47.915" lon="6.92727">
        <ele>1105.3</ele>
        <time>2023-05-20T14:31:14Z</time>
      </trkpt>
      <trkpt lat="47.91488" lon="6.92727">
        <ele>1106.2</ele>
        <time>2023-05-20T14:31:28Z</time>
      </trkpt>
      <trkpt lat="47.91476" lon="6.92722">
        <ele>1107.7</ele>
        <time>2023-05-20T14:31:41Z</time>
      </trkpt>
      <trkpt lat="47.91472" lon="6.92722">
        <ele>1108</ele>
        <time>2023-05-20T14:31:45Z</time>
      </trkpt>
      <trkpt lat="47.91468" lon="6.92723">
        <ele>1108.2</ele>
        <time>2023-05-20T14:31:49Z</time>
      </trkpt>
      <trkpt lat="47.91463" lon="6.92721">
        <ele>1108.7</ele>
        <time>2023-05-20T14:31:53Z</time>
      </trkpt>
      <trkpt lat="47.91457" lon="6.92724">
        <ele>1108.8</ele>
        <time>2023-05-20T14:32:01Z</time>
      </trkpt>
      <trkpt lat="47.91449" lon="6.9272">
        <ele>1109.8</ele>
        <time>2023-05-20T14:32:10Z</time>
      </trkpt>
      <trkpt lat="47.91444" lon="6.92721">
        <ele>1110.1</ele>
        <time>2023-05-20T14:32:14Z</time>
      </trkpt>
      <trkpt lat="47.91439" lon="6.92719">
        <ele>1110.9</ele>
        <time>2023-05-20T14:32:18Z</time>
      </trkpt>
      <trkpt lat="47.91433" lon="6.92721">
        <ele>1111.7</ele>
        <time>2023-05-20T14:32:25Z</time>
      </trkpt>
      <trkpt lat="47.91416" lon="6.92718">
        <ele>1114.2</ele>
        <time>2023-05-20T14:32:44Z</time>
      </trkpt>
      <trkpt lat="47.91408" lon="6.92719">
        <ele>1115.1</ele>
        <time>2023-05-20T14:32:53Z</time>
      </trkpt>
      <trkpt lat="47.91401" lon="6.92708">
        <ele>1116.5</ele>
        <time>2023-05-20T14:33:02Z</time>
      </trkpt>
      <trkpt lat="47.91396" lon="6.92706">
        <ele>1117.3</ele>
        <time>2023-05-20T14:33:06Z</time>
      </trkpt>
      <trkpt lat="47.9139" lon="6.92709">
        <ele>1117.8</ele>
        <time>2023-05-20T14:33:20Z</time>
      </trkpt>
      <trkpt lat="47.91381" lon="6.92716">
        <ele>1119.3</ele>
        <time>2023-05-20T14:33:34Z</time>
      </trkpt>
      <trkpt lat="47.91373" lon="6.92713">
        <ele>1121.5</ele>
        <time>2023-05-20T14:33:45Z</time>
      </trkpt>
      <trkpt lat="47.91367" lon="6.92713">
        <ele>1122.9</ele>
        <time>2023-05-20T14:33:53Z</time>
      </trkpt>
      <trkpt lat="47.91358" lon="6.92721">
        <ele>1124.6</ele>
        <time>2023-05-20T14:34:07Z</time>
      </trkpt>
      <trkpt lat="47.91354" lon="6.92719">
        <ele>1126.8</ele>
        <time>2023-05-20T14:34:12Z</time>
      </trkpt>
      <trkpt lat="47.91344" lon="6.92718">
        <ele>1131.5</ele>
        <time>2023-05-20T14:34:36Z</time>
      </trkpt>
      <trkpt lat="47.91341" lon="6.92725">
        <ele>1130.9</ele>
        <time>2023-05-20T14:34:48Z</time>
      </trkpt>
      <trkpt lat="47.91338" lon="6.92718">
        <ele>1134.3</ele>
        <time>2023-05-20T14:34:54Z</time>
      </trkpt>
      <trkpt lat="47.91338" lon="6.92712">
        <ele>1135</ele>
        <time>2023-05-20T14:34:58Z</time>
      </trkpt>
      <trkpt lat="47.91336" lon="6.92704">
        <ele>1136.8</ele>
        <time>2023-05-20T14:35:05Z</time>
      </trkpt>
      <trkpt lat="47.91332" lon="6.92699">
        <ele>1139</ele>
        <time>2023-05-20T14:35:13Z</time>
      </trkpt>
      <trkpt lat="47.91331" lon="6.92712">
        <ele>1138.1</ele>
        <time>2023-05-20T14:35:24Z</time>
      </trkpt>
      <trkpt lat="47.91328" lon="6.9272">
        <ele>1138.7</ele>
        <time>2023-05-20T14:35:32Z</time>
      </trkpt>
      <trkpt lat="47.91317" lon="6.92731">
        <ele>1138.5</ele>
        <time>2023-05-20T14:35:47Z</time>
      </trkpt>
      <trkpt lat="47.91315" lon="6.92722">
        <ele>1144.6</ele>
        <time>2023-05-20T14:35:55Z</time>
      </trkpt>
      <trkpt lat="47.91315" lon="6.92715">
        <ele>1144.8</ele>
        <time>2023-05-20T14:36:00Z</time>
      </trkpt>
      <trkpt lat="47.91309" lon="6.92709">
        <ele>1147.6</ele>
        <time>2023-05-20T14:36:11Z</time>
      </trkpt>
      <trkpt lat="47.91304" lon="6.9272">
        <ele>1149.6</ele>
        <time>2023-05-20T14:36:21Z</time>
      </trkpt>
      <trkpt lat="47.913" lon="6.92724">
        <ele>1150.3</ele>
        <time>2023-05-20T14:36:28Z</time>
      </trkpt>
      <trkpt lat="47.91294" lon="6.92721">
        <ele>1153.5</ele>
        <time>2023-05-20T14:36:40Z</time>
      </trkpt>
      <trkpt lat="47.9129" lon="6.92718">
        <ele>1154.9</ele>
        <time>2023-05-20T14:36:49Z</time>
      </trkpt>
      <trkpt lat="47.91285" lon="6.92718">
        <ele>1156.8</ele>
        <time>2023-05-20T14:36:54Z</time>
      </trkpt>
      <trkpt lat="47.91282" lon="6.92727">
        <ele>1156.7</ele>
        <time>2023-05-20T14:37:10Z</time>
      </trkpt>
      <trkpt lat="47.91277" lon="6.92734">
        <ele>1156.9</ele>
        <time>2023-05-20T14:37:22Z</time>
      </trkpt>
      <trkpt lat="47.9127" lon="6.92724">
        <ele>1162.1</ele>
        <time>2023-05-20T14:37:32Z</time>
      </trkpt>
      <trkpt lat="47.91263" lon="6.92721">
        <ele>1164.6</ele>
        <time>2023-05-20T14:37:45Z</time>
      </trkpt>
      <trkpt lat="47.91259" lon="6.92728">
        <ele>1165.1</ele>
        <time>2023-05-20T14:37:57Z</time>
      </trkpt>
      <trkpt lat="47.91252" lon="6.92735">
        <ele>1166.8</ele>
        <time>2023-05-20T14:38:09Z</time>
      </trkpt>
      <trkpt lat="47.91233" lon="6.92742">
        <ele>1171.4</ele>
        <time>2023-05-20T14:38:36Z</time>
      </trkpt>
      <trkpt lat="47.9123" lon="6.92738">
        <ele>1172.4</ele>
        <time>2023-05-20T14:38:41Z</time>
      </trkpt>
      <trkpt lat="47.91225" lon="6.92739">
        <ele>1173.7</ele>
        <time>2023-05-20T14:38:47Z</time>
      </trkpt>
      <trkpt lat="47.91221" lon="6.92743">
        <ele>1174.5</ele>
        <time>2023-05-20T14:38:52Z</time>
      </trkpt>
      <trkpt lat="47.91218" lon="6.92747">
        <ele>1175.1</ele>
        <time>2023-05-20T14:38:56Z</time>
      </trkpt>
      <trkpt lat="47.91212" lon="6.92751">
        <ele>1176.4</ele>
        <time>2023-05-20T14:39:04Z</time>
      </trkpt>
      <trkpt lat="47.91208" lon="6.92756">
        <ele>1176.6</ele>
        <time>2023-05-20T14:39:09Z</time>
      </trkpt>
      <trkpt lat="47.91199" lon="6.92764">
        <ele>1178.8</ele>
        <time>2023-05-20T14:39:23Z</time>
      </trkpt>
      <trkpt lat="47.91195" lon="6.92764">
        <ele>1180.3</ele>
        <time>2023-05-20T14:39:29Z</time>
      </trkpt>
      <trkpt lat="47.91189" lon="6.92767">
        <ele>1181.3</ele>
        <time>2023-05-20T14:39:36Z</time>
      </trkpt>
      <trkpt lat="47.91185" lon="6.92768">
        <ele>1182</ele>
        <time>2023-05-20T14:39:41Z</time>
      </trkpt>
      <trkpt lat="47.91158" lon="6.92792">
        <ele>1187.2</ele>
        <time>2023-05-20T14:40:19Z</time>
      </trkpt>
      <trkpt lat="47.91155" lon="6.92797">
        <ele>1187.9</ele>
        <time>2023-05-20T14:40:24Z</time>
      </trkpt>
      <trkpt lat="47.9115" lon="6.92801">
        <ele>1189.1</ele>
        <time>2023-05-20T14:40:32Z</time>
      </trkpt>
      <trkpt lat="47.91141" lon="6.92803">
        <ele>1191.3</ele>
        <time>2023-05-20T14:40:41Z</time>
      </trkpt>
      <trkpt lat="47.91136" lon="6.92809">
        <ele>1192.3</ele>
        <time>2023-05-20T14:40:49Z</time>
      </trkpt>
      <trkpt lat="47.9113" lon="6.92812">
        <ele>1193.4</ele>
        <time>2023-05-20T14:40:59Z</time>
      </trkpt>
      <trkpt lat="47.91123" lon="6.92823">
        <ele>1195</ele>
        <time>2023-05-20T14:41:55Z</time>
      </trkpt>
      <trkpt lat="47.91106" lon="6.92832">
        <ele>1200.7</ele>
        <time>2023-05-20T14:42:22Z</time>
      </trkpt>
      <trkpt lat="47.91104" lon="6.92843">
        <ele>1201.9</ele>
        <time>2023-05-20T14:42:35Z</time>
      </trkpt>
      <trkpt lat="47.91106" lon="6.92849">
        <ele>1201.3</ele>
        <time>2023-05-20T14:42:52Z</time>
      </trkpt>
      <trkpt lat="47.91101" lon="6.92848">
        <ele>1203.4</ele>
        <time>2023-05-20T14:42:57Z</time>
      </trkpt>
      <trkpt lat="47.91098" lon="6.92844">
        <ele>1204.4</ele>
        <time>2023-05-20T14:43:01Z</time>
      </trkpt>
      <trkpt lat="47.91093" lon="6.92847">
        <ele>1206.8</ele>
        <time>2023-05-20T14:43:10Z</time>
      </trkpt>
      <trkpt lat="47.91088" lon="6.92869">
        <ele>1208.9</ele>
        <time>2023-05-20T14:43:29Z</time>
      </trkpt>
      <trkpt lat="47.91085" lon="6.92874">
        <ele>1209.3</ele>
        <time>2023-05-20T14:43:34Z</time>
      </trkpt>
      <trkpt lat="47.91075" lon="6.92877">
        <ele>1211.9</ele>
        <time>2023-05-20T14:43:52Z</time>
      </trkpt>
      <trkpt lat="47.91066" lon="6.92876">
        <ele>1214.6</ele>
        <time>2023-05-20T14:44:01Z</time>
      </trkpt>
      <trkpt lat="47.9106" lon="6.92879">
        <ele>1216</ele>
        <time>2023-05-20T14:44:10Z</time>
      </trkpt>
      <trkpt lat="47.91055" lon="6.92877">
        <ele>1217.5</ele>
        <time>2023-05-20T14:44:16Z</time>
      </trkpt>
      <trkpt lat="47.91051" lon="6.92879">
        <ele>1218.1</ele>
        <time>2023-05-20T14:44:19Z</time>
      </trkpt>
      <trkpt lat="47.91046" lon="6.92879">
        <ele>1219</ele>
        <time>2023-05-20T14:44:26Z</time>
      </trkpt>
      <trkpt lat="47.91041" lon="6.92882">
        <ele>1219.7</ele>
        <time>2023-05-20T14:44:31Z</time>
      </trkpt>
      <trkpt lat="47.91036" lon="6.92883">
        <ele>1220.6</ele>
        <time>2023-05-20T14:44:36Z</time>
      </trkpt>
      <trkpt lat="47.91032" lon="6.92882">
        <ele>1221.3</ele>
        <time>2023-05-20T14:44:40Z</time>
      </trkpt>
      <trkpt lat="47.91012" lon="6.92886">
        <ele>1223</ele>
        <time>2023-05-20T14:45:00Z</time>
      </trkpt>
      <trkpt lat="47.91007" lon="6.92884">
        <ele>1223.2</ele>
        <time>2023-05-20T14:45:05Z</time>
      </trkpt>
      <trkpt lat="47.91" lon="6.92883">
        <ele>1223.6</ele>
        <time>2023-05-20T14:45:15Z</time>
      </trkpt>
      <trkpt lat="47.90996" lon="6.92886">
        <ele>1223</ele>
        <time>2023-05-20T14:45:20Z</time>
      </trkpt>
      <trkpt lat="47.9099" lon="6.92888">
        <ele>1221.8</ele>
        <time>2023-05-20T14:45:32Z</time>
      </trkpt>
      <trkpt lat="47.90977" lon="6.92872">
        <ele>1219.8</ele>
        <time>2023-05-20T15:19:14Z</time>
      </trkpt>
      <trkpt lat="47.90978" lon="6.92872">
        <ele>1220</ele>
        <time>2023-05-20T15:19:15Z</time>
      </trkpt>
      <trkpt lat="47.90972" lon="6.92864">
        <ele>1219.7</ele>
        <time>2023-05-20T15:19:23Z</time>
      </trkpt>
      <trkpt lat="47.9097" lon="6.92858">
        <ele>1219</ele>
        <time>2023-05-20T15:19:27Z</time>
      </trkpt>
      <trkpt lat="47.90964" lon="6.92854">
        <ele>1216.9</ele>
        <time>2023-05-20T15:19:31Z</time>
      </trkpt>
      <trkpt lat="47.9096" lon="6.92855">
        <ele>1215.9</ele>
        <time>2023-05-20T15:19:34Z</time>
      </trkpt>
      <trkpt lat="47.90956" lon="6.92854">
        <ele>1214.7</ele>
        <time>2023-05-20T15:19:38Z</time>
      </trkpt>
      <trkpt lat="47.90942" lon="6.92843">
        <ele>1211.4</ele>
        <time>2023-05-20T15:19:54Z</time>
      </trkpt>
      <trkpt lat="47.90937" lon="6.92842">
        <ele>1209.6</ele>
        <time>2023-05-20T15:20:00Z</time>
      </trkpt>
      <trkpt lat="47.90932" lon="6.92842">
        <ele>1207.8</ele>
        <time>2023-05-20T15:20:04Z</time>
      </trkpt>
      <trkpt lat="47.90928" lon="6.92839">
        <ele>1206.8</ele>
        <time>2023-05-20T15:20:07Z</time>
      </trkpt>
      <trkpt lat="47.90925" lon="6.92833">
        <ele>1206.7</ele>
        <time>2023-05-20T15:20:11Z</time>
      </trkpt>
      <trkpt lat="47.9092" lon="6.92828">
        <ele>1205.4</ele>
        <time>2023-05-20T15:20:16Z</time>
      </trkpt>
      <trkpt lat="47.90916" lon="6.92816">
        <ele>1205</ele>
        <time>2023-05-20T15:20:23Z</time>
      </trkpt>
      <trkpt lat="47.90916" lon="6.92809">
        <ele>1205.5</ele>
        <time>2023-05-20T15:20:26Z</time>
      </trkpt>
      <trkpt lat="47.90913" lon="6.92802">
        <ele>1204.6</ele>
        <time>2023-05-20T15:20:29Z</time>
      </trkpt>
      <trkpt lat="47.90912" lon="6.92796">
        <ele>1204</ele>
        <time>2023-05-20T15:20:33Z</time>
      </trkpt>
      <trkpt lat="47.90908" lon="6.92791">
        <ele>1202.6</ele>
        <time>2023-05-20T15:20:37Z</time>
      </trkpt>
      <trkpt lat="47.90906" lon="6.92785">
        <ele>1201.9</ele>
        <time>2023-05-20T15:20:40Z</time>
      </trkpt>
      <trkpt lat="47.90905" lon="6.92779">
        <ele>1201.5</ele>
        <time>2023-05-20T15:20:45Z</time>
      </trkpt>
      <trkpt lat="47.90901" lon="6.92773">
        <ele>1200.2</ele>
        <time>2023-05-20T15:20:49Z</time>
      </trkpt>
      <trkpt lat="47.90897" lon="6.92771">
        <ele>1199.4</ele>
        <time>2023-05-20T15:20:53Z</time>
      </trkpt>
      <trkpt lat="47.90889" lon="6.92758">
        <ele>1198</ele>
        <time>2023-05-20T15:21:03Z</time>
      </trkpt>
      <trkpt lat="47.90886" lon="6.92755">
        <ele>1197</ele>
        <time>2023-05-20T15:21:08Z</time>
      </trkpt>
      <trkpt lat="47.90882" lon="6.92753">
        <ele>1195.7</ele>
        <time>2023-05-20T15:21:13Z</time>
      </trkpt>
      <trkpt lat="47.9087" lon="6.92751">
        <ele>1191.9</ele>
        <time>2023-05-20T15:21:28Z</time>
      </trkpt>
      <trkpt lat="47.90868" lon="6.92745">
        <ele>1191</ele>
        <time>2023-05-20T15:21:36Z</time>
      </trkpt>
      <trkpt lat="47.90855" lon="6.92736">
        <ele>1187.5</ele>
        <time>2023-05-20T15:21:53Z</time>
      </trkpt>
      <trkpt lat="47.90849" lon="6.92736">
        <ele>1186</ele>
        <time>2023-05-20T15:21:57Z</time>
      </trkpt>
      <trkpt lat="47.90845" lon="6.92731">
        <ele>1185.2</ele>
        <time>2023-05-20T15:22:00Z</time>
      </trkpt>
      <trkpt lat="47.90844" lon="6.92725">
        <ele>1185.2</ele>
        <time>2023-05-20T15:22:04Z</time>
      </trkpt>
      <trkpt lat="47.90829" lon="6.92718">
        <ele>1182</ele>
        <time>2023-05-20T15:22:17Z</time>
      </trkpt>
      <trkpt lat="47.90826" lon="6.92712">
        <ele>1181.2</ele>
        <time>2023-05-20T15:22:21Z</time>
      </trkpt>
      <trkpt lat="47.90809" lon="6.92706">
        <ele>1178.2</ele>
        <time>2023-05-20T15:22:35Z</time>
      </trkpt>
      <trkpt lat="47.90795" lon="6.92705">
        <ele>1176.2</ele>
        <time>2023-05-20T15:22:47Z</time>
      </trkpt>
      <trkpt lat="47.9079" lon="6.92704">
        <ele>1175.6</ele>
        <time>2023-05-20T15:22:51Z</time>
      </trkpt>
      <trkpt lat="47.90785" lon="6.92696">
        <ele>1175.6</ele>
        <time>2023-05-20T15:22:56Z</time>
      </trkpt>
      <trkpt lat="47.90781" lon="6.92694">
        <ele>1175.3</ele>
        <time>2023-05-20T15:22:59Z</time>
      </trkpt>
      <trkpt lat="47.90771" lon="6.92694">
        <ele>1174.8</ele>
        <time>2023-05-20T15:23:08Z</time>
      </trkpt>
      <trkpt lat="47.90762" lon="6.92688">
        <ele>1174.6</ele>
        <time>2023-05-20T15:23:15Z</time>
      </trkpt>
      <trkpt lat="47.90749" lon="6.92686">
        <ele>1174.3</ele>
        <time>2023-05-20T15:23:25Z</time>
      </trkpt>
      <trkpt lat="47.90745" lon="6.92683">
        <ele>1174.3</ele>
        <time>2023-05-20T15:23:31Z</time>
      </trkpt>
      <trkpt lat="47.90735" lon="6.92683">
        <ele>1174</ele>
        <time>2023-05-20T15:23:39Z</time>
      </trkpt>
      <trkpt lat="47.9073" lon="6.92678">
        <ele>1174.4</ele>
        <time>2023-05-20T15:23:43Z</time>
      </trkpt>
      <trkpt lat="47.90727" lon="6.92672">
        <ele>1175.2</ele>
        <time>2023-05-20T15:23:47Z</time>
      </trkpt>
      <trkpt lat="47.90727" lon="6.92664">
        <ele>1176</ele>
        <time>2023-05-20T15:23:50Z</time>
      </trkpt>
      <trkpt lat="47.90723" lon="6.92658">
        <ele>1176.6</ele>
        <time>2023-05-20T15:23:55Z</time>
      </trkpt>
      <trkpt lat="47.90711" lon="6.92654">
        <ele>1176.9</ele>
        <time>2023-05-20T15:24:12Z</time>
      </trkpt>
      <trkpt lat="47.90706" lon="6.92655">
        <ele>1176.7</ele>
        <time>2023-05-20T15:24:15Z</time>
      </trkpt>
      <trkpt lat="47.90704" lon="6.9265">
        <ele>1177.3</ele>
        <time>2023-05-20T15:24:18Z</time>
      </trkpt>
      <trkpt lat="47.90701" lon="6.92643">
        <ele>1178.2</ele>
        <time>2023-05-20T15:24:21Z</time>
      </trkpt>
      <trkpt lat="47.90696" lon="6.92642">
        <ele>1178.5</ele>
        <time>2023-05-20T15:24:25Z</time>
      </trkpt>
      <trkpt lat="47.90692" lon="6.92638">
        <ele>1178.9</ele>
        <time>2023-05-20T15:24:29Z</time>
      </trkpt>
      <trkpt lat="47.90686" lon="6.92633">
        <ele>1178.9</ele>
        <time>2023-05-20T15:24:36Z</time>
      </trkpt>
      <trkpt lat="47.90682" lon="6.92631">
        <ele>1178.9</ele>
        <time>2023-05-20T15:24:40Z</time>
      </trkpt>
      <trkpt lat="47.90673" lon="6.92624">
        <ele>1179.6</ele>
        <time>2023-05-20T15:24:48Z</time>
      </trkpt>
      <trkpt lat="47.90664" lon="6.92616">
        <ele>1181.2</ele>
        <time>2023-05-20T15:24:56Z</time>
      </trkpt>
      <trkpt lat="47.90637" lon="6.92602">
        <ele>1183.6</ele>
        <time>2023-05-20T15:25:22Z</time>
      </trkpt>
      <trkpt lat="47.90634" lon="6.92596">
        <ele>1184.1</ele>
        <time>2023-05-20T15:25:26Z</time>
      </trkpt>
      <trkpt lat="47.90624" lon="6.92592">
        <ele>1184.6</ele>
        <time>2023-05-20T15:25:36Z</time>
      </trkpt>
      <trkpt lat="47.90613" lon="6.92583">
        <ele>1185.9</ele>
        <time>2023-05-20T15:25:47Z</time>
      </trkpt>
      <trkpt lat="47.9061" lon="6.92578">
        <ele>1185.3</ele>
        <time>2023-05-20T15:25:52Z</time>
      </trkpt>
      <trkpt lat="47.90605" lon="6.92557">
        <ele>1181.9</ele>
        <time>2023-05-20T15:26:09Z</time>
      </trkpt>
      <trkpt lat="47.90598" lon="6.92543">
        <ele>1177.4</ele>
        <time>2023-05-20T15:26:25Z</time>
      </trkpt>
      <trkpt lat="47.90599" lon="6.92532">
        <ele>1175.2</ele>
        <time>2023-05-20T15:26:35Z</time>
      </trkpt>
      <trkpt lat="47.90598" lon="6.92525">
        <ele>1173.5</ele>
        <time>2023-05-20T15:26:39Z</time>
      </trkpt>
      <trkpt lat="47.9059" lon="6.92507">
        <ele>1168.3</ele>
        <time>2023-05-20T15:26:52Z</time>
      </trkpt>
      <trkpt lat="47.9058" lon="6.92492">
        <ele>1163.7</ele>
        <time>2023-05-20T15:27:11Z</time>
      </trkpt>
      <trkpt lat="47.90578" lon="6.92477">
        <ele>1160.6</ele>
        <time>2023-05-20T15:27:19Z</time>
      </trkpt>
      <trkpt lat="47.90578" lon="6.92469">
        <ele>1159.4</ele>
        <time>2023-05-20T15:27:27Z</time>
      </trkpt>
      <trkpt lat="47.90578" lon="6.92461">
        <ele>1158.4</ele>
        <time>2023-05-20T15:27:32Z</time>
      </trkpt>
      <trkpt lat="47.90581" lon="6.92452">
        <ele>1157.7</ele>
        <time>2023-05-20T15:27:39Z</time>
      </trkpt>
      <trkpt lat="47.90575" lon="6.92427">
        <ele>1152.8</ele>
        <time>2023-05-20T15:27:53Z</time>
      </trkpt>
      <trkpt lat="47.90572" lon="6.92421">
        <ele>1151.5</ele>
        <time>2023-05-20T15:27:58Z</time>
      </trkpt>
      <trkpt lat="47.9057" lon="6.92413">
        <ele>1149.9</ele>
        <time>2023-05-20T15:28:07Z</time>
      </trkpt>
      <trkpt lat="47.90572" lon="6.92406">
        <ele>1148.9</ele>
        <time>2023-05-20T15:28:12Z</time>
      </trkpt>
      <trkpt lat="47.90567" lon="6.92391">
        <ele>1145.5</ele>
        <time>2023-05-20T15:28:21Z</time>
      </trkpt>
      <trkpt lat="47.90565" lon="6.92382">
        <ele>1144.2</ele>
        <time>2023-05-20T15:28:27Z</time>
      </trkpt>
      <trkpt lat="47.90563" lon="6.92378">
        <ele>1143.6</ele>
        <time>2023-05-20T15:28:32Z</time>
      </trkpt>
      <trkpt lat="47.90562" lon="6.92371">
        <ele>1143.1</ele>
        <time>2023-05-20T15:28:37Z</time>
      </trkpt>
      <trkpt lat="47.90559" lon="6.92362">
        <ele>1142.3</ele>
        <time>2023-05-20T15:28:46Z</time>
      </trkpt>
      <trkpt lat="47.90556" lon="6.92358">
        <ele>1142.1</ele>
        <time>2023-05-20T15:28:49Z</time>
      </trkpt>
      <trkpt lat="47.90552" lon="6.92353">
        <ele>1141.2</ele>
        <time>2023-05-20T15:29:03Z</time>
      </trkpt>
      <trkpt lat="47.90546" lon="6.92349">
        <ele>1140.1</ele>
        <time>2023-05-20T15:29:15Z</time>
      </trkpt>
      <trkpt lat="47.90542" lon="6.92343">
        <ele>1140.6</ele>
        <time>2023-05-20T15:29:20Z</time>
      </trkpt>
      <trkpt lat="47.90539" lon="6.92336">
        <ele>1142.2</ele>
        <time>2023-05-20T15:29:23Z</time>
      </trkpt>
      <trkpt lat="47.90536" lon="6.92332">
        <ele>1143.2</ele>
        <time>2023-05-20T15:29:27Z</time>
      </trkpt>
      <trkpt lat="47.90531" lon="6.92327">
        <ele>1144.2</ele>
        <time>2023-05-20T15:29:35Z</time>
      </trkpt>
      <trkpt lat="47.90529" lon="6.92319">
        <ele>1146</ele>
        <time>2023-05-20T15:29:40Z</time>
      </trkpt>
      <trkpt lat="47.90528" lon="6.9231">
        <ele>1148</ele>
        <time>2023-05-20T15:29:47Z</time>
      </trkpt>
      <trkpt lat="47.90525" lon="6.92304">
        <ele>1147.3</ele>
        <time>2023-05-20T15:29:53Z</time>
      </trkpt>
      <trkpt lat="47.90523" lon="6.92299">
        <ele>1146.5</ele>
        <time>2023-05-20T15:29:58Z</time>
      </trkpt>
      <trkpt lat="47.90518" lon="6.92289">
        <ele>1145.1</ele>
        <time>2023-05-20T15:30:05Z</time>
      </trkpt>
      <trkpt lat="47.90516" lon="6.92283">
        <ele>1145.3</ele>
        <time>2023-05-20T15:30:09Z</time>
      </trkpt>
      <trkpt lat="47.90515" lon="6.92276">
        <ele>1146.1</ele>
        <time>2023-05-20T15:30:12Z</time>
      </trkpt>
      <trkpt lat="47.90498" lon="6.92243">
        <ele>1151.5</ele>
        <time>2023-05-20T15:30:37Z</time>
      </trkpt>
      <trkpt lat="47.90489" lon="6.92231">
        <ele>1149.7</ele>
        <time>2023-05-20T15:30:50Z</time>
      </trkpt>
      <trkpt lat="47.90486" lon="6.92218">
        <ele>1151.6</ele>
        <time>2023-05-20T15:30:58Z</time>
      </trkpt>
      <trkpt lat="47.90466" lon="6.92186">
        <ele>1156.7</ele>
        <time>2023-05-20T15:31:29Z</time>
      </trkpt>
      <trkpt lat="47.90461" lon="6.9218">
        <ele>1156.7</ele>
        <time>2023-05-20T15:31:37Z</time>
      </trkpt>
      <trkpt lat="47.90457" lon="6.92169">
        <ele>1158.6</ele>
        <time>2023-05-20T15:31:49Z</time>
      </trkpt>
      <trkpt lat="47.90453" lon="6.92163">
        <ele>1159.4</ele>
        <time>2023-05-20T15:31:58Z</time>
      </trkpt>
      <trkpt lat="47.90449" lon="6.92157">
        <ele>1159.8</ele>
        <time>2023-05-20T15:32:06Z</time>
      </trkpt>
      <trkpt lat="47.90446" lon="6.92147">
        <ele>1160.5</ele>
        <time>2023-05-20T15:32:30Z</time>
      </trkpt>
      <trkpt lat="47.90445" lon="6.92141">
        <ele>1160.8</ele>
        <time>2023-05-20T15:32:35Z</time>
      </trkpt>
      <trkpt lat="47.90445" lon="6.92132">
        <ele>1159.9</ele>
        <time>2023-05-20T15:32:43Z</time>
      </trkpt>
      <trkpt lat="47.9044" lon="6.92117">
        <ele>1154</ele>
        <time>2023-05-20T15:32:55Z</time>
      </trkpt>
      <trkpt lat="47.90439" lon="6.92103">
        <ele>1152.4</ele>
        <time>2023-05-20T15:33:03Z</time>
      </trkpt>
      <trkpt lat="47.90435" lon="6.92079">
        <ele>1150.4</ele>
        <time>2023-05-20T15:33:16Z</time>
      </trkpt>
      <trkpt lat="47.90433" lon="6.92074">
        <ele>1150.3</ele>
        <time>2023-05-20T15:33:20Z</time>
      </trkpt>
      <trkpt lat="47.90432" lon="6.92066">
        <ele>1151.3</ele>
        <time>2023-05-20T15:33:25Z</time>
      </trkpt>
      <trkpt lat="47.9043" lon="6.9206">
        <ele>1152</ele>
        <time>2023-05-20T15:33:28Z</time>
      </trkpt>
      <trkpt lat="47.90427" lon="6.92049">
        <ele>1153.8</ele>
        <time>2023-05-20T15:33:36Z</time>
      </trkpt>
      <trkpt lat="47.90419" lon="6.9204">
        <ele>1156.2</ele>
        <time>2023-05-20T15:33:44Z</time>
      </trkpt>
      <trkpt lat="47.90412" lon="6.92016">
        <ele>1159.6</ele>
        <time>2023-05-20T15:34:05Z</time>
      </trkpt>
      <trkpt lat="47.90399" lon="6.91985">
        <ele>1162.7</ele>
        <time>2023-05-20T15:34:38Z</time>
      </trkpt>
      <trkpt lat="47.90396" lon="6.91979">
        <ele>1164</ele>
        <time>2023-05-20T15:34:44Z</time>
      </trkpt>
      <trkpt lat="47.90392" lon="6.91971">
        <ele>1166.1</ele>
        <time>2023-05-20T15:34:51Z</time>
      </trkpt>
      <trkpt lat="47.90389" lon="6.91966">
        <ele>1167</ele>
        <time>2023-05-20T15:34:56Z</time>
      </trkpt>
      <trkpt lat="47.90385" lon="6.91962">
        <ele>1165.9</ele>
        <time>2023-05-20T15:35:00Z</time>
      </trkpt>
      <trkpt lat="47.90381" lon="6.91956">
        <ele>1165.2</ele>
        <time>2023-05-20T15:35:04Z</time>
      </trkpt>
      <trkpt lat="47.90375" lon="6.91938">
        <ele>1166</ele>
        <time>2023-05-20T15:35:17Z</time>
      </trkpt>
      <trkpt lat="47.90375" lon="6.91931">
        <ele>1166.5</ele>
        <time>2023-05-20T15:35:31Z</time>
      </trkpt>
      <trkpt lat="47.90369" lon="6.91913">
        <ele>1168.6</ele>
        <time>2023-05-20T15:35:51Z</time>
      </trkpt>
      <trkpt lat="47.90363" lon="6.91902">
        <ele>1170.1</ele>
        <time>2023-05-20T15:36:01Z</time>
      </trkpt>
      <trkpt lat="47.90355" lon="6.91887">
        <ele>1170.1</ele>
        <time>2023-05-20T15:36:16Z</time>
      </trkpt>
      <trkpt lat="47.90347" lon="6.91869">
        <ele>1170.1</ele>
        <time>2023-05-20T15:36:30Z</time>
      </trkpt>
      <trkpt lat="47.90345" lon="6.91858">
        <ele>1170.9</ele>
        <time>2023-05-20T15:36:38Z</time>
      </trkpt>
      <trkpt lat="47.90343" lon="6.91852">
        <ele>1171.7</ele>
        <time>2023-05-20T15:36:43Z</time>
      </trkpt>
      <trkpt lat="47.90341" lon="6.91846">
        <ele>1172.7</ele>
        <time>2023-05-20T15:36:49Z</time>
      </trkpt>
      <trkpt lat="47.90337" lon="6.91842">
        <ele>1173.9</ele>
        <time>2023-05-20T15:36:55Z</time>
      </trkpt>
      <trkpt lat="47.90333" lon="6.91834">
        <ele>1175.8</ele>
        <time>2023-05-20T15:37:06Z</time>
      </trkpt>
      <trkpt lat="47.90328" lon="6.91822">
        <ele>1175.6</ele>
        <time>2023-05-20T15:37:15Z</time>
      </trkpt>
      <trkpt lat="47.90318" lon="6.91797">
        <ele>1178.3</ele>
        <time>2023-05-20T15:37:41Z</time>
      </trkpt>
      <trkpt lat="47.90304" lon="6.91765">
        <ele>1183.1</ele>
        <time>2023-05-20T15:38:09Z</time>
      </trkpt>
      <trkpt lat="47.903" lon="6.91761">
        <ele>1183.4</ele>
        <time>2023-05-20T15:38:14Z</time>
      </trkpt>
      <trkpt lat="47.90296" lon="6.9176">
        <ele>1183.8</ele>
        <time>2023-05-20T15:38:18Z</time>
      </trkpt>
      <trkpt lat="47.90269" lon="6.91735">
        <ele>1187.2</ele>
        <time>2023-05-20T15:38:49Z</time>
      </trkpt>
      <trkpt lat="47.90258" lon="6.91726">
        <ele>1189.1</ele>
        <time>2023-05-20T15:39:00Z</time>
      </trkpt>
      <trkpt lat="47.90255" lon="6.91722">
        <ele>1190.1</ele>
        <time>2023-05-20T15:39:04Z</time>
      </trkpt>
      <trkpt lat="47.90246" lon="6.91713">
        <ele>1191.3</ele>
        <time>2023-05-20T15:39:15Z</time>
      </trkpt>
      <trkpt lat="47.90242" lon="6.9171">
        <ele>1191.9</ele>
        <time>2023-05-20T15:39:19Z</time>
      </trkpt>
      <trkpt lat="47.90231" lon="6.917">
        <ele>1194.8</ele>
        <time>2023-05-20T15:39:33Z</time>
      </trkpt>
      <trkpt lat="47.90228" lon="6.91695">
        <ele>1196.4</ele>
        <time>2023-05-20T15:39:38Z</time>
      </trkpt>
      <trkpt lat="47.90219" lon="6.91682">
        <ele>1197.9</ele>
        <time>2023-05-20T15:39:54Z</time>
      </trkpt>
      <trkpt lat="47.90219" lon="6.91673">
        <ele>1197.9</ele>
        <time>2023-05-20T15:40:03Z</time>
      </trkpt>
      <trkpt lat="47.9019" lon="6.91681">
        <ele>1196.4</ele>
        <time>2023-05-20T15:44:34Z</time>
      </trkpt>
      <trkpt lat="47.9019" lon="6.91681">
        <ele>1196.4</ele>
        <time>2023-05-20T15:44:35Z</time>
      </trkpt>
      <trkpt lat="47.90184" lon="6.91684">
        <ele>1195.5</ele>
        <time>2023-05-20T15:44:39Z</time>
      </trkpt>
      <trkpt lat="47.9018" lon="6.91685">
        <ele>1194.9</ele>
        <time>2023-05-20T15:44:44Z</time>
      </trkpt>
      <trkpt lat="47.90174" lon="6.91686">
        <ele>1194.1</ele>
        <time>2023-05-20T15:44:52Z</time>
      </trkpt>
      <trkpt lat="47.90169" lon="6.91687">
        <ele>1193.3</ele>
        <time>2023-05-20T15:44:56Z</time>
      </trkpt>
      <trkpt lat="47.90165" lon="6.91688">
        <ele>1192.6</ele>
        <time>2023-05-20T15:45:01Z</time>
      </trkpt>
      <trkpt lat="47.90161" lon="6.91689">
        <ele>1191.7</ele>
        <time>2023-05-20T15:45:06Z</time>
      </trkpt>
      <trkpt lat="47.90157" lon="6.91692">
        <ele>1190.9</ele>
        <time>2023-05-20T15:45:10Z</time>
      </trkpt>
      <trkpt lat="47.9014" lon="6.91696">
        <ele>1187.2</ele>
        <time>2023-05-20T15:45:27Z</time>
      </trkpt>
      <trkpt lat="47.90131" lon="6.91704">
        <ele>1185.8</ele>
        <time>2023-05-20T15:45:35Z</time>
      </trkpt>
      <trkpt lat="47.90127" lon="6.9171">
        <ele>1185.4</ele>
        <time>2023-05-20T15:45:39Z</time>
      </trkpt>
      <trkpt lat="47.90123" lon="6.91714">
        <ele>1185.2</ele>
        <time>2023-05-20T15:45:43Z</time>
      </trkpt>
      <trkpt lat="47.90116" lon="6.91722">
        <ele>1185.2</ele>
        <time>2023-05-20T15:45:50Z</time>
      </trkpt>
      <trkpt lat="47.90109" lon="6.9173">
        <ele>1184.6</ele>
        <time>2023-05-20T15:45:58Z</time>
      </trkpt>
      <trkpt lat="47.90098" lon="6.91744">
        <ele>1183.9</ele>
        <time>2023-05-20T15:46:10Z</time>
      </trkpt>
      <trkpt lat="47.90092" lon="6.91752">
        <ele>1183.8</ele>
        <time>2023-05-20T15:46:16Z</time>
      </trkpt>
      <trkpt lat="47.90088" lon="6.91755">
        <ele>1183.8</ele>
        <time>2023-05-20T15:46:20Z</time>
      </trkpt>
      <trkpt lat="47.90084" lon="6.91757">
        <ele>1184.2</ele>
        <time>2023-05-20T15:46:24Z</time>
      </trkpt>
      <trkpt lat="47.9007" lon="6.91761">
        <ele>1183.2</ele>
        <time>2023-05-20T15:46:37Z</time>
      </trkpt>
      <trkpt lat="47.90061" lon="6.91761">
        <ele>1182.5</ele>
        <time>2023-05-20T15:46:45Z</time>
      </trkpt>
      <trkpt lat="47.90048" lon="6.9176">
        <ele>1181.2</ele>
        <time>2023-05-20T15:46:57Z</time>
      </trkpt>
      <trkpt lat="47.90043" lon="6.9176">
        <ele>1180.6</ele>
        <time>2023-05-20T15:47:01Z</time>
      </trkpt>
      <trkpt lat="47.90006" lon="6.9176">
        <ele>1176.4</ele>
        <time>2023-05-20T15:47:33Z</time>
      </trkpt>
      <trkpt lat="47.89979" lon="6.91763">
        <ele>1174.1</ele>
        <time>2023-05-20T15:47:57Z</time>
      </trkpt>
      <trkpt lat="47.89975" lon="6.91762">
        <ele>1173.7</ele>
        <time>2023-05-20T15:48:01Z</time>
      </trkpt>
      <trkpt lat="47.8997" lon="6.91762">
        <ele>1173.5</ele>
        <time>2023-05-20T15:48:06Z</time>
      </trkpt>
      <trkpt lat="47.89949" lon="6.91744">
        <ele>1172</ele>
        <time>2023-05-20T15:48:41Z</time>
      </trkpt>
      <trkpt lat="47.89942" lon="6.91736">
        <ele>1170.7</ele>
        <time>2023-05-20T15:48:49Z</time>
      </trkpt>
      <trkpt lat="47.89933" lon="6.91731">
        <ele>1170.4</ele>
        <time>2023-05-20T15:48:58Z</time>
      </trkpt>
      <trkpt lat="47.89926" lon="6.91721">
        <ele>1169</ele>
        <time>2023-05-20T15:49:07Z</time>
      </trkpt>
      <trkpt lat="47.89921" lon="6.91719">
        <ele>1168.8</ele>
        <time>2023-05-20T15:49:11Z</time>
      </trkpt>
      <trkpt lat="47.89917" lon="6.91715">
        <ele>1167.9</ele>
        <time>2023-05-20T15:49:16Z</time>
      </trkpt>
      <trkpt lat="47.89913" lon="6.91708">
        <ele>1166.4</ele>
        <time>2023-05-20T15:49:36Z</time>
      </trkpt>
      <trkpt lat="47.8991" lon="6.91703">
        <ele>1165.4</ele>
        <time>2023-05-20T15:49:48Z</time>
      </trkpt>
      <trkpt lat="47.89884" lon="6.9169">
        <ele>1165.4</ele>
        <time>2023-05-20T15:51:30Z</time>
      </trkpt>
      <trkpt lat="47.89882" lon="6.91689">
        <ele>1165.4</ele>
        <time>2023-05-20T15:51:31Z</time>
      </trkpt>
      <trkpt lat="47.89875" lon="6.91683">
        <ele>1164.7</ele>
        <time>2023-05-20T15:51:38Z</time>
      </trkpt>
      <trkpt lat="47.89869" lon="6.91678">
        <ele>1164.1</ele>
        <time>2023-05-20T15:51:46Z</time>
      </trkpt>
      <trkpt lat="47.89864" lon="6.91666">
        <ele>1161.4</ele>
        <time>2023-05-20T15:51:54Z</time>
      </trkpt>
      <trkpt lat="47.89851" lon="6.91656">
        <ele>1160.7</ele>
        <time>2023-05-20T15:52:07Z</time>
      </trkpt>
      <trkpt lat="47.89845" lon="6.91651">
        <ele>1160.4</ele>
        <time>2023-05-20T15:52:17Z</time>
      </trkpt>
      <trkpt lat="47.89842" lon="6.91646">
        <ele>1159.5</ele>
        <time>2023-05-20T15:52:29Z</time>
      </trkpt>
      <trkpt lat="47.89833" lon="6.91637">
        <ele>1158.4</ele>
        <time>2023-05-20T15:52:40Z</time>
      </trkpt>
      <trkpt lat="47.89828" lon="6.91635">
        <ele>1158.7</ele>
        <time>2023-05-20T15:52:44Z</time>
      </trkpt>
      <trkpt lat="47.89824" lon="6.91631">
        <ele>1158.2</ele>
        <time>2023-05-20T15:52:48Z</time>
      </trkpt>
      <trkpt lat="47.89822" lon="6.91625">
        <ele>1156.7</ele>
        <time>2023-05-20T15:52:53Z</time>
      </trkpt>
      <trkpt lat="47.89818" lon="6.9162">
        <ele>1156</ele>
        <time>2023-05-20T15:52:57Z</time>
      </trkpt>
      <trkpt lat="47.89815" lon="6.91607">
        <ele>1152.7</ele>
        <time>2023-05-20T15:53:05Z</time>
      </trkpt>
      <trkpt lat="47.89813" lon="6.91601">
        <ele>1151.3</ele>
        <time>2023-05-20T15:53:13Z</time>
      </trkpt>
      <trkpt lat="47.8981" lon="6.91595">
        <ele>1150.2</ele>
        <time>2023-05-20T15:53:17Z</time>
      </trkpt>
      <trkpt lat="47.89805" lon="6.9159">
        <ele>1150</ele>
        <time>2023-05-20T15:53:23Z</time>
      </trkpt>
      <trkpt lat="47.89803" lon="6.91581">
        <ele>1147.6</ele>
        <time>2023-05-20T15:53:32Z</time>
      </trkpt>
      <trkpt lat="47.89799" lon="6.91576">
        <ele>1146.7</ele>
        <time>2023-05-20T15:53:35Z</time>
      </trkpt>
      <trkpt lat="47.89781" lon="6.9154">
        <ele>1139.6</ele>
        <time>2023-05-20T15:54:03Z</time>
      </trkpt>
      <trkpt lat="47.89778" lon="6.9153">
        <ele>1137.6</ele>
        <time>2023-05-20T15:54:12Z</time>
      </trkpt>
      <trkpt lat="47.89772" lon="6.91519">
        <ele>1135.7</ele>
        <time>2023-05-20T15:54:22Z</time>
      </trkpt>
      <trkpt lat="47.8977" lon="6.9151">
        <ele>1133.6</ele>
        <time>2023-05-20T15:54:31Z</time>
      </trkpt>
      <trkpt lat="47.89764" lon="6.915">
        <ele>1132.5</ele>
        <time>2023-05-20T15:54:40Z</time>
      </trkpt>
      <trkpt lat="47.89761" lon="6.91493">
        <ele>1131.7</ele>
        <time>2023-05-20T15:54:49Z</time>
      </trkpt>
      <trkpt lat="47.89763" lon="6.91484">
        <ele>1128.8</ele>
        <time>2023-05-20T15:54:57Z</time>
      </trkpt>
      <trkpt lat="47.8976" lon="6.91477">
        <ele>1128</ele>
        <time>2023-05-20T15:55:02Z</time>
      </trkpt>
      <trkpt lat="47.89754" lon="6.91466">
        <ele>1127.3</ele>
        <time>2023-05-20T15:55:11Z</time>
      </trkpt>
      <trkpt lat="47.8975" lon="6.9144">
        <ele>1123.2</ele>
        <time>2023-05-20T15:55:27Z</time>
      </trkpt>
      <trkpt lat="47.8975" lon="6.91434">
        <ele>1122.1</ele>
        <time>2023-05-20T15:55:31Z</time>
      </trkpt>
      <trkpt lat="47.89749" lon="6.91427">
        <ele>1121.2</ele>
        <time>2023-05-20T15:55:35Z</time>
      </trkpt>
      <trkpt lat="47.89745" lon="6.9137">
        <ele>1112.3</ele>
        <time>2023-05-20T15:56:09Z</time>
      </trkpt>
      <trkpt lat="47.89743" lon="6.91364">
        <ele>1112.2</ele>
        <time>2023-05-20T15:56:13Z</time>
      </trkpt>
      <trkpt lat="47.89745" lon="6.91336">
        <ele>1105.9</ele>
        <time>2023-05-20T15:56:33Z</time>
      </trkpt>
      <trkpt lat="47.89742" lon="6.91321">
        <ele>1104.7</ele>
        <time>2023-05-20T15:56:43Z</time>
      </trkpt>
      <trkpt lat="47.89738" lon="6.91284">
        <ele>1100.1</ele>
        <time>2023-05-20T15:57:04Z</time>
      </trkpt>
      <trkpt lat="47.89741" lon="6.91278">
        <ele>1097.2</ele>
        <time>2023-05-20T15:57:09Z</time>
      </trkpt>
      <trkpt lat="47.89738" lon="6.91262">
        <ele>1096.1</ele>
        <time>2023-05-20T15:57:20Z</time>
      </trkpt>
      <trkpt lat="47.89738" lon="6.91255">
        <ele>1094.8</ele>
        <time>2023-05-20T15:57:25Z</time>
      </trkpt>
      <trkpt lat="47.89738" lon="6.91246">
        <ele>1093.2</ele>
        <time>2023-05-20T15:57:34Z</time>
      </trkpt>
      <trkpt lat="47.89741" lon="6.91239">
        <ele>1090.2</ele>
        <time>2023-05-20T15:57:40Z</time>
      </trkpt>
      <trkpt lat="47.89739" lon="6.9123">
        <ele>1089.7</ele>
        <time>2023-05-20T15:57:46Z</time>
      </trkpt>
      <trkpt lat="47.89731" lon="6.91208">
        <ele>1090.7</ele>
        <time>2023-05-20T15:58:00Z</time>
      </trkpt>
      <trkpt lat="47.89731" lon="6.91194">
        <ele>1088.6</ele>
        <time>2023-05-20T15:58:07Z</time>
      </trkpt>
      <trkpt lat="47.89734" lon="6.91187">
        <ele>1087.1</ele>
        <time>2023-05-20T15:58:11Z</time>
      </trkpt>
      <trkpt lat="47.89732" lon="6.9118">
        <ele>1088.5</ele>
        <time>2023-05-20T15:58:14Z</time>
      </trkpt>
      <trkpt lat="47.89736" lon="6.91168">
        <ele>1086.5</ele>
        <time>2023-05-20T15:58:23Z</time>
      </trkpt>
      <trkpt lat="47.89741" lon="6.91167">
        <ele>1083.5</ele>
        <time>2023-05-20T15:58:26Z</time>
      </trkpt>
      <trkpt lat="47.89746" lon="6.91164">
        <ele>1080.7</ele>
        <time>2023-05-20T15:58:30Z</time>
      </trkpt>
      <trkpt lat="47.8975" lon="6.91158">
        <ele>1078.6</ele>
        <time>2023-05-20T15:58:37Z</time>
      </trkpt>
      <trkpt lat="47.89764" lon="6.91115">
        <ele>1069.9</ele>
        <time>2023-05-20T15:59:11Z</time>
      </trkpt>
      <trkpt lat="47.89765" lon="6.91108">
        <ele>1069.2</ele>
        <time>2023-05-20T15:59:16Z</time>
      </trkpt>
      <trkpt lat="47.89767" lon="6.91102">
        <ele>1067.8</ele>
        <time>2023-05-20T15:59:20Z</time>
      </trkpt>
      <trkpt lat="47.89767" lon="6.91094">
        <ele>1067.8</ele>
        <time>2023-05-20T15:59:25Z</time>
      </trkpt>
      <trkpt lat="47.8977" lon="6.91087">
        <ele>1065.6</ele>
        <time>2023-05-20T15:59:29Z</time>
      </trkpt>
      <trkpt lat="47.8977" lon="6.9108">
        <ele>1065.9</ele>
        <time>2023-05-20T15:59:34Z</time>
      </trkpt>
      <trkpt lat="47.89775" lon="6.91075">
        <ele>1063.1</ele>
        <time>2023-05-20T15:59:38Z</time>
      </trkpt>
      <trkpt lat="47.89778" lon="6.91064">
        <ele>1062.6</ele>
        <time>2023-05-20T15:59:47Z</time>
      </trkpt>
      <trkpt lat="47.89782" lon="6.91061">
        <ele>1060.2</ele>
        <time>2023-05-20T15:59:50Z</time>
      </trkpt>
      <trkpt lat="47.89785" lon="6.91043">
        <ele>1058.6</ele>
        <time>2023-05-20T16:00:03Z</time>
      </trkpt>
      <trkpt lat="47.89787" lon="6.91035">
        <ele>1057.1</ele>
        <time>2023-05-20T16:00:09Z</time>
      </trkpt>
      <trkpt lat="47.8979" lon="6.91029">
        <ele>1055.1</ele>
        <time>2023-05-20T16:00:12Z</time>
      </trkpt>
      <trkpt lat="47.89791" lon="6.91003">
        <ele>1051.7</ele>
        <time>2023-05-20T16:00:33Z</time>
      </trkpt>
      <trkpt lat="47.89794" lon="6.90996">
        <ele>1049.1</ele>
        <time>2023-05-20T16:00:38Z</time>
      </trkpt>
      <trkpt lat="47.89796" lon="6.90977">
        <ele>1045.2</ele>
        <time>2023-05-20T16:00:51Z</time>
      </trkpt>
      <trkpt lat="47.8979" lon="6.90958">
        <ele>1044.6</ele>
        <time>2023-05-20T16:01:06Z</time>
      </trkpt>
      <trkpt lat="47.89791" lon="6.90944">
        <ele>1040.8</ele>
        <time>2023-05-20T16:01:14Z</time>
      </trkpt>
      <trkpt lat="47.89788" lon="6.90938">
        <ele>1041</ele>
        <time>2023-05-20T16:01:18Z</time>
      </trkpt>
      <trkpt lat="47.89789" lon="6.90931">
        <ele>1038.9</ele>
        <time>2023-05-20T16:01:22Z</time>
      </trkpt>
      <trkpt lat="47.89786" lon="6.90915">
        <ele>1036.7</ele>
        <time>2023-05-20T16:01:32Z</time>
      </trkpt>
      <trkpt lat="47.89782" lon="6.90908">
        <ele>1036.9</ele>
        <time>2023-05-20T16:01:38Z</time>
      </trkpt>
      <trkpt lat="47.8978" lon="6.90893">
        <ele>1034.1</ele>
        <time>2023-05-20T16:01:46Z</time>
      </trkpt>
      <trkpt lat="47.89777" lon="6.90889">
        <ele>1034.4</ele>
        <time>2023-05-20T16:01:52Z</time>
      </trkpt>
      <trkpt lat="47.8978" lon="6.90876">
        <ele>1029.4</ele>
        <time>2023-05-20T16:02:01Z</time>
      </trkpt>
      <trkpt lat="47.8978" lon="6.90869">
        <ele>1027.4</ele>
        <time>2023-05-20T16:02:04Z</time>
      </trkpt>
      <trkpt lat="47.89776" lon="6.90857">
        <ele>1025.5</ele>
        <time>2023-05-20T16:02:14Z</time>
      </trkpt>
      <trkpt lat="47.89775" lon="6.90847">
        <ele>1023</ele>
        <time>2023-05-20T16:02:19Z</time>
      </trkpt>
      <trkpt lat="47.89772" lon="6.90839">
        <ele>1021.9</ele>
        <time>2023-05-20T16:02:27Z</time>
      </trkpt>
      <trkpt lat="47.8977" lon="6.90831">
        <ele>1020.3</ele>
        <time>2023-05-20T16:02:34Z</time>
      </trkpt>
      <trkpt lat="47.89768" lon="6.90826">
        <ele>1019.4</ele>
        <time>2023-05-20T16:02:37Z</time>
      </trkpt>
      <trkpt lat="47.89766" lon="6.90819">
        <ele>1017.8</ele>
        <time>2023-05-20T16:02:45Z</time>
      </trkpt>
      <trkpt lat="47.89761" lon="6.90813">
        <ele>1017.6</ele>
        <time>2023-05-20T16:02:50Z</time>
      </trkpt>
      <trkpt lat="47.89758" lon="6.90808">
        <ele>1017</ele>
        <time>2023-05-20T16:02:56Z</time>
      </trkpt>
      <trkpt lat="47.89761" lon="6.90801">
        <ele>1013.8</ele>
        <time>2023-05-20T16:03:01Z</time>
      </trkpt>
      <trkpt lat="47.89758" lon="6.90787">
        <ele>1011</ele>
        <time>2023-05-20T16:03:11Z</time>
      </trkpt>
      <trkpt lat="47.89752" lon="6.90783">
        <ele>1011.8</ele>
        <time>2023-05-20T16:03:21Z</time>
      </trkpt>
      <trkpt lat="47.8975" lon="6.90777">
        <ele>1010.8</ele>
        <time>2023-05-20T16:03:25Z</time>
      </trkpt>
      <trkpt lat="47.89749" lon="6.9077">
        <ele>1009.4</ele>
        <time>2023-05-20T16:03:29Z</time>
      </trkpt>
      <trkpt lat="47.89749" lon="6.90742">
        <ele>1002.6</ele>
        <time>2023-05-20T16:03:45Z</time>
      </trkpt>
      <trkpt lat="47.89747" lon="6.90734">
        <ele>1001.6</ele>
        <time>2023-05-20T16:03:54Z</time>
      </trkpt>
      <trkpt lat="47.89737" lon="6.90716">
        <ele>1000.5</ele>
        <time>2023-05-20T16:04:09Z</time>
      </trkpt>
      <trkpt lat="47.89737" lon="6.90705">
        <ele>997.5</ele>
        <time>2023-05-20T16:04:17Z</time>
      </trkpt>
      <trkpt lat="47.8973" lon="6.90692">
        <ele>996.6</ele>
        <time>2023-05-20T16:04:27Z</time>
      </trkpt>
      <trkpt lat="47.89729" lon="6.90685">
        <ele>995.4</ele>
        <time>2023-05-20T16:04:31Z</time>
      </trkpt>
      <trkpt lat="47.89723" lon="6.90664">
        <ele>993.1</ele>
        <time>2023-05-20T16:04:42Z</time>
      </trkpt>
      <trkpt lat="47.89722" lon="6.90655">
        <ele>991.6</ele>
        <time>2023-05-20T16:04:50Z</time>
      </trkpt>
      <trkpt lat="47.89719" lon="6.90647">
        <ele>991.3</ele>
        <time>2023-05-20T16:04:54Z</time>
      </trkpt>
      <trkpt lat="47.89716" lon="6.90617">
        <ele>986.4</ele>
        <time>2023-05-20T16:05:11Z</time>
      </trkpt>
      <trkpt lat="47.89714" lon="6.90611">
        <ele>986.1</ele>
        <time>2023-05-20T16:05:15Z</time>
      </trkpt>
      <trkpt lat="47.89712" lon="6.90602">
        <ele>985.3</ele>
        <time>2023-05-20T16:05:21Z</time>
      </trkpt>
      <trkpt lat="47.89714" lon="6.90587">
        <ele>981.3</ele>
        <time>2023-05-20T16:05:29Z</time>
      </trkpt>
      <trkpt lat="47.89713" lon="6.90581">
        <ele>980.6</ele>
        <time>2023-05-20T16:05:32Z</time>
      </trkpt>
      <trkpt lat="47.89712" lon="6.90553">
        <ele>976</ele>
        <time>2023-05-20T16:05:48Z</time>
      </trkpt>
      <trkpt lat="47.89709" lon="6.90549">
        <ele>976.5</ele>
        <time>2023-05-20T16:05:56Z</time>
      </trkpt>
      <trkpt lat="47.89707" lon="6.90538">
        <ele>975.4</ele>
        <time>2023-05-20T16:06:00Z</time>
      </trkpt>
      <trkpt lat="47.89707" lon="6.90532">
        <ele>974.3</ele>
        <time>2023-05-20T16:06:03Z</time>
      </trkpt>
      <trkpt lat="47.89713" lon="6.90505">
        <ele>967.7</ele>
        <time>2023-05-20T16:06:22Z</time>
      </trkpt>
      <trkpt lat="47.89713" lon="6.90498">
        <ele>966.6</ele>
        <time>2023-05-20T16:06:25Z</time>
      </trkpt>
      <trkpt lat="47.8971" lon="6.90492">
        <ele>967</ele>
        <time>2023-05-20T16:06:29Z</time>
      </trkpt>
      <trkpt lat="47.89711" lon="6.90478">
        <ele>964.2</ele>
        <time>2023-05-20T16:06:41Z</time>
      </trkpt>
      <trkpt lat="47.89709" lon="6.90463">
        <ele>962.2</ele>
        <time>2023-05-20T16:06:50Z</time>
      </trkpt>
      <trkpt lat="47.89705" lon="6.90454">
        <ele>962.1</ele>
        <time>2023-05-20T16:06:58Z</time>
      </trkpt>
      <trkpt lat="47.89705" lon="6.90445">
        <ele>960.2</ele>
        <time>2023-05-20T16:07:06Z</time>
      </trkpt>
      <trkpt lat="47.89704" lon="6.90439">
        <ele>959.4</ele>
        <time>2023-05-20T16:07:11Z</time>
      </trkpt>
      <trkpt lat="47.89705" lon="6.90432">
        <ele>957.5</ele>
        <time>2023-05-20T16:07:15Z</time>
      </trkpt>
      <trkpt lat="47.89703" lon="6.90423">
        <ele>956.6</ele>
        <time>2023-05-20T16:07:20Z</time>
      </trkpt>
      <trkpt lat="47.89703" lon="6.90416">
        <ele>955.2</ele>
        <time>2023-05-20T16:07:23Z</time>
      </trkpt>
      <trkpt lat="47.89698" lon="6.90391">
        <ele>951.5</ele>
        <time>2023-05-20T16:07:40Z</time>
      </trkpt>
      <trkpt lat="47.89693" lon="6.90379">
        <ele>950.3</ele>
        <time>2023-05-20T16:07:48Z</time>
      </trkpt>
      <trkpt lat="47.8969" lon="6.90363">
        <ele>947.7</ele>
        <time>2023-05-20T16:08:02Z</time>
      </trkpt>
      <trkpt lat="47.89679" lon="6.90336">
        <ele>943.2</ele>
        <time>2023-05-20T16:08:24Z</time>
      </trkpt>
      <trkpt lat="47.89668" lon="6.90315">
        <ele>938.4</ele>
        <time>2023-05-20T16:08:39Z</time>
      </trkpt>
      <trkpt lat="47.8966" lon="6.90309">
        <ele>937.1</ele>
        <time>2023-05-20T16:08:48Z</time>
      </trkpt>
      <trkpt lat="47.89656" lon="6.90307">
        <ele>936.7</ele>
        <time>2023-05-20T16:08:52Z</time>
      </trkpt>
      <trkpt lat="47.89646" lon="6.90294">
        <ele>933</ele>
        <time>2023-05-20T16:09:04Z</time>
      </trkpt>
      <trkpt lat="47.89641" lon="6.90289">
        <ele>931.8</ele>
        <time>2023-05-20T16:09:12Z</time>
      </trkpt>
      <trkpt lat="47.89623" lon="6.90266">
        <ele>924.6</ele>
        <time>2023-05-20T16:09:32Z</time>
      </trkpt>
      <trkpt lat="47.89614" lon="6.90265">
        <ele>924.7</ele>
        <time>2023-05-20T16:09:44Z</time>
      </trkpt>
      <trkpt lat="47.89587" lon="6.90241">
        <ele>917.1</ele>
        <time>2023-05-20T16:10:16Z</time>
      </trkpt>
      <trkpt lat="47.89582" lon="6.90239">
        <ele>916.3</ele>
        <time>2023-05-20T16:10:22Z</time>
      </trkpt>
      <trkpt lat="47.89579" lon="6.90234">
        <ele>914.3</ele>
        <time>2023-05-20T16:10:26Z</time>
      </trkpt>
      <trkpt lat="47.89575" lon="6.90231">
        <ele>912.7</ele>
        <time>2023-05-20T16:10:33Z</time>
      </trkpt>
      <trkpt lat="47.8957" lon="6.90229">
        <ele>911.4</ele>
        <time>2023-05-20T16:10:39Z</time>
      </trkpt>
      <trkpt lat="47.89565" lon="6.90226">
        <ele>909.7</ele>
        <time>2023-05-20T16:10:47Z</time>
      </trkpt>
      <trkpt lat="47.89562" lon="6.90221">
        <ele>907.6</ele>
        <time>2023-05-20T16:10:51Z</time>
      </trkpt>
      <trkpt lat="47.89557" lon="6.90217">
        <ele>905.9</ele>
        <time>2023-05-20T16:10:57Z</time>
      </trkpt>
      <trkpt lat="47.89553" lon="6.90212">
        <ele>904.8</ele>
        <time>2023-05-20T16:11:01Z</time>
      </trkpt>
      <trkpt lat="47.89549" lon="6.90209">
        <ele>904.6</ele>
        <time>2023-05-20T16:11:05Z</time>
      </trkpt>
      <trkpt lat="47.8954" lon="6.90206">
        <ele>905.2</ele>
        <time>2023-05-20T16:11:15Z</time>
      </trkpt>
      <trkpt lat="47.8953" lon="6.90196">
        <ele>904.1</ele>
        <time>2023-05-20T16:11:27Z</time>
      </trkpt>
      <trkpt lat="47.89528" lon="6.90191">
        <ele>903.2</ele>
        <time>2023-05-20T16:11:30Z</time>
      </trkpt>
      <trkpt lat="47.89527" lon="6.90184">
        <ele>902</ele>
        <time>2023-05-20T16:11:37Z</time>
      </trkpt>
      <trkpt lat="47.89527" lon="6.9017">
        <ele>898.9</ele>
        <time>2023-05-20T16:11:44Z</time>
      </trkpt>
      <trkpt lat="47.89525" lon="6.90164">
        <ele>898.1</ele>
        <time>2023-05-20T16:11:47Z</time>
      </trkpt>
      <trkpt lat="47.89518" lon="6.90155">
        <ele>897.9</ele>
        <time>2023-05-20T16:11:54Z</time>
      </trkpt>
      <trkpt lat="47.89518" lon="6.90145">
        <ele>895.4</ele>
        <time>2023-05-20T16:11:59Z</time>
      </trkpt>
      <trkpt lat="47.89516" lon="6.9014">
        <ele>894.7</ele>
        <time>2023-05-20T16:12:04Z</time>
      </trkpt>
      <trkpt lat="47.89512" lon="6.9011">
        <ele>889.8</ele>
        <time>2023-05-20T16:12:21Z</time>
      </trkpt>
      <trkpt lat="47.89513" lon="6.90088">
        <ele>886.8</ele>
        <time>2023-05-20T16:12:33Z</time>
      </trkpt>
      <trkpt lat="47.89515" lon="6.90076">
        <ele>884.6</ele>
        <time>2023-05-20T16:12:42Z</time>
      </trkpt>
      <trkpt lat="47.89518" lon="6.90071">
        <ele>883</ele>
        <time>2023-05-20T16:12:44Z</time>
      </trkpt>
      <trkpt lat="47.89518" lon="6.90061">
        <ele>881.6</ele>
        <time>2023-05-20T16:12:51Z</time>
      </trkpt>
      <trkpt lat="47.89516" lon="6.90052">
        <ele>880.6</ele>
        <time>2023-05-20T16:12:59Z</time>
      </trkpt>
      <trkpt lat="47.89514" lon="6.90046">
        <ele>879.9</ele>
        <time>2023-05-20T16:13:03Z</time>
      </trkpt>
      <trkpt lat="47.89511" lon="6.9004">
        <ele>879.4</ele>
        <time>2023-05-20T16:13:07Z</time>
      </trkpt>
      <trkpt lat="47.89509" lon="6.90031">
        <ele>877.8</ele>
        <time>2023-05-20T16:13:15Z</time>
      </trkpt>
      <trkpt lat="47.89506" lon="6.90026">
        <ele>877.2</ele>
        <time>2023-05-20T16:13:20Z</time>
      </trkpt>
      <trkpt lat="47.895" lon="6.90022">
        <ele>877.5</ele>
        <time>2023-05-20T16:13:29Z</time>
      </trkpt>
      <trkpt lat="47.89498" lon="6.90009">
        <ele>874.5</ele>
        <time>2023-05-20T16:13:37Z</time>
      </trkpt>
      <trkpt lat="47.89487" lon="6.8999">
        <ele>871</ele>
        <time>2023-05-20T16:13:54Z</time>
      </trkpt>
      <trkpt lat="47.89483" lon="6.89989">
        <ele>871.3</ele>
        <time>2023-05-20T16:13:58Z</time>
      </trkpt>
      <trkpt lat="47.89479" lon="6.89981">
        <ele>869.6</ele>
        <time>2023-05-20T16:14:05Z</time>
      </trkpt>
      <trkpt lat="47.89476" lon="6.89975">
        <ele>868.3</ele>
        <time>2023-05-20T16:14:08Z</time>
      </trkpt>
      <trkpt lat="47.89471" lon="6.89965">
        <ele>865.9</ele>
        <time>2023-05-20T16:14:19Z</time>
      </trkpt>
      <trkpt lat="47.89454" lon="6.89945">
        <ele>863.8</ele>
        <time>2023-05-20T16:14:38Z</time>
      </trkpt>
      <trkpt lat="47.89451" lon="6.89935">
        <ele>860.9</ele>
        <time>2023-05-20T16:14:45Z</time>
      </trkpt>
      <trkpt lat="47.89448" lon="6.89929">
        <ele>859.5</ele>
        <time>2023-05-20T16:14:51Z</time>
      </trkpt>
      <trkpt lat="47.89443" lon="6.89925">
        <ele>859.3</ele>
        <time>2023-05-20T16:14:55Z</time>
      </trkpt>
      <trkpt lat="47.89442" lon="6.89916">
        <ele>856.4</ele>
        <time>2023-05-20T16:15:01Z</time>
      </trkpt>
      <trkpt lat="47.89434" lon="6.89901">
        <ele>853.6</ele>
        <time>2023-05-20T16:15:15Z</time>
      </trkpt>
      <trkpt lat="47.8943" lon="6.89897">
        <ele>853.3</ele>
        <time>2023-05-20T16:15:18Z</time>
      </trkpt>
      <trkpt lat="47.89425" lon="6.89886">
        <ele>850.8</ele>
        <time>2023-05-20T16:15:25Z</time>
      </trkpt>
      <trkpt lat="47.89423" lon="6.8988">
        <ele>849</ele>
        <time>2023-05-20T16:15:29Z</time>
      </trkpt>
      <trkpt lat="47.89415" lon="6.89866">
        <ele>844.9</ele>
        <time>2023-05-20T16:15:43Z</time>
      </trkpt>
      <trkpt lat="47.89404" lon="6.89855">
        <ele>840.2</ele>
        <time>2023-05-20T16:15:59Z</time>
      </trkpt>
      <trkpt lat="47.89399" lon="6.89854">
        <ele>839.6</ele>
        <time>2023-05-20T16:16:03Z</time>
      </trkpt>
      <trkpt lat="47.89395" lon="6.89854">
        <ele>839.5</ele>
        <time>2023-05-20T16:16:08Z</time>
      </trkpt>
      <trkpt lat="47.8939" lon="6.89851">
        <ele>838.1</ele>
        <time>2023-05-20T16:16:14Z</time>
      </trkpt>
      <trkpt lat="47.89384" lon="6.89852">
        <ele>837</ele>
        <time>2023-05-20T16:16:21Z</time>
      </trkpt>
      <trkpt lat="47.89378" lon="6.89852">
        <ele>835.2</ele>
        <time>2023-05-20T16:16:28Z</time>
      </trkpt>
      <trkpt lat="47.89368" lon="6.89858">
        <ele>834.3</ele>
        <time>2023-05-20T16:16:42Z</time>
      </trkpt>
      <trkpt lat="47.89348" lon="6.89863">
        <ele>830.5</ele>
        <time>2023-05-20T16:17:01Z</time>
      </trkpt>
      <trkpt lat="47.89344" lon="6.89866">
        <ele>830.5</ele>
        <time>2023-05-20T16:17:05Z</time>
      </trkpt>
      <trkpt lat="47.89335" lon="6.89866">
        <ele>827.9</ele>
        <time>2023-05-20T16:17:15Z</time>
      </trkpt>
      <trkpt lat="47.89332" lon="6.89872">
        <ele>828.5</ele>
        <time>2023-05-20T16:17:19Z</time>
      </trkpt>
      <trkpt lat="47.89327" lon="6.89877">
        <ele>827.7</ele>
        <time>2023-05-20T16:17:25Z</time>
      </trkpt>
      <trkpt lat="47.89316" lon="6.89886">
        <ele>825.1</ele>
        <time>2023-05-20T16:17:38Z</time>
      </trkpt>
      <trkpt lat="47.89313" lon="6.89891">
        <ele>825</ele>
        <time>2023-05-20T16:17:41Z</time>
      </trkpt>
      <trkpt lat="47.89309" lon="6.89894">
        <ele>823.8</ele>
        <time>2023-05-20T16:17:46Z</time>
      </trkpt>
      <trkpt lat="47.89304" lon="6.89893">
        <ele>821.2</ele>
        <time>2023-05-20T16:17:50Z</time>
      </trkpt>
      <trkpt lat="47.89298" lon="6.899">
        <ele>820</ele>
        <time>2023-05-20T16:17:58Z</time>
      </trkpt>
      <trkpt lat="47.89293" lon="6.89901">
        <ele>818</ele>
        <time>2023-05-20T16:18:03Z</time>
      </trkpt>
      <trkpt lat="47.89281" lon="6.8991">
        <ele>814.3</ele>
        <time>2023-05-20T16:18:15Z</time>
      </trkpt>
      <trkpt lat="47.89278" lon="6.89916">
        <ele>814</ele>
        <time>2023-05-20T16:18:24Z</time>
      </trkpt>
      <trkpt lat="47.89274" lon="6.89913">
        <ele>812.9</ele>
        <time>2023-05-20T16:18:29Z</time>
      </trkpt>
      <trkpt lat="47.8927" lon="6.89908">
        <ele>811.4</ele>
        <time>2023-05-20T16:18:31Z</time>
      </trkpt>
      <trkpt lat="47.89265" lon="6.89908">
        <ele>810.8</ele>
        <time>2023-05-20T16:18:35Z</time>
      </trkpt>
      <trkpt lat="47.89259" lon="6.89906">
        <ele>809.5</ele>
        <time>2023-05-20T16:18:38Z</time>
      </trkpt>
      <trkpt lat="47.89255" lon="6.89911">
        <ele>810.2</ele>
        <time>2023-05-20T16:18:42Z</time>
      </trkpt>
      <trkpt lat="47.8925" lon="6.89912">
        <ele>809.8</ele>
        <time>2023-05-20T16:18:47Z</time>
      </trkpt>
      <trkpt lat="47.89244" lon="6.89918">
        <ele>811.2</ele>
        <time>2023-05-20T16:18:54Z</time>
      </trkpt>
      <trkpt lat="47.89234" lon="6.89918">
        <ele>810.8</ele>
        <time>2023-05-20T16:19:01Z</time>
      </trkpt>
      <trkpt lat="47.89229" lon="6.89919">
        <ele>810.9</ele>
        <time>2023-05-20T16:19:05Z</time>
      </trkpt>
      <trkpt lat="47.89225" lon="6.89913">
        <ele>809.3</ele>
        <time>2023-05-20T16:19:08Z</time>
      </trkpt>
      <trkpt lat="47.89221" lon="6.89909">
        <ele>808.5</ele>
        <time>2023-05-20T16:19:12Z</time>
      </trkpt>
      <trkpt lat="47.89206" lon="6.89903">
        <ele>808.8</ele>
        <time>2023-05-20T16:19:24Z</time>
      </trkpt>
      <trkpt lat="47.8919" lon="6.89888">
        <ele>805.9</ele>
        <time>2023-05-20T16:19:41Z</time>
      </trkpt>
      <trkpt lat="47.89179" lon="6.89887">
        <ele>806</ele>
        <time>2023-05-20T16:19:48Z</time>
      </trkpt>
      <trkpt lat="47.89168" lon="6.89878">
        <ele>803.8</ele>
        <time>2023-05-20T16:19:59Z</time>
      </trkpt>
      <trkpt lat="47.89165" lon="6.89872">
        <ele>802.3</ele>
        <time>2023-05-20T16:20:03Z</time>
      </trkpt>
      <trkpt lat="47.89143" lon="6.89858">
        <ele>800.6</ele>
        <time>2023-05-20T16:20:24Z</time>
      </trkpt>
      <trkpt lat="47.89136" lon="6.89849">
        <ele>798.6</ele>
        <time>2023-05-20T16:20:33Z</time>
      </trkpt>
      <trkpt lat="47.89124" lon="6.89837">
        <ele>796.5</ele>
        <time>2023-05-20T16:20:46Z</time>
      </trkpt>
      <trkpt lat="47.89105" lon="6.89797">
        <ele>791.6</ele>
        <time>2023-05-20T16:21:10Z</time>
      </trkpt>
      <trkpt lat="47.89101" lon="6.89783">
        <ele>790.1</ele>
        <time>2023-05-20T16:21:18Z</time>
      </trkpt>
      <trkpt lat="47.89101" lon="6.89775">
        <ele>789.3</ele>
        <time>2023-05-20T16:21:22Z</time>
      </trkpt>
      <trkpt lat="47.89103" lon="6.89755">
        <ele>789.3</ele>
        <time>2023-05-20T16:21:31Z</time>
      </trkpt>
      <trkpt lat="47.89098" lon="6.89752">
        <ele>788.3</ele>
        <time>2023-05-20T16:21:36Z</time>
      </trkpt>
      <trkpt lat="47.89094" lon="6.89757">
        <ele>787.9</ele>
        <time>2023-05-20T16:21:41Z</time>
      </trkpt>
      <trkpt lat="47.8909" lon="6.8976">
        <ele>787.6</ele>
        <time>2023-05-20T16:21:46Z</time>
      </trkpt>
      <trkpt lat="47.89082" lon="6.89762">
        <ele>786.9</ele>
        <time>2023-05-20T16:22:00Z</time>
      </trkpt>
      <trkpt lat="47.89067" lon="6.89751">
        <ele>782.2</ele>
        <time>2023-05-20T16:22:16Z</time>
      </trkpt>
      <trkpt lat="47.89061" lon="6.8975">
        <ele>781</ele>
        <time>2023-05-20T16:22:19Z</time>
      </trkpt>
      <trkpt lat="47.89057" lon="6.8975">
        <ele>780.3</ele>
        <time>2023-05-20T16:22:22Z</time>
      </trkpt>
      <trkpt lat="47.89054" lon="6.89745">
        <ele>778.9</ele>
        <time>2023-05-20T16:22:26Z</time>
      </trkpt>
      <trkpt lat="47.89052" lon="6.8974">
        <ele>777.7</ele>
        <time>2023-05-20T16:22:30Z</time>
      </trkpt>
      <trkpt lat="47.89044" lon="6.89733">
        <ele>774.2</ele>
        <time>2023-05-20T16:22:38Z</time>
      </trkpt>
      <trkpt lat="47.89042" lon="6.89725">
        <ele>773.6</ele>
        <time>2023-05-20T16:22:44Z</time>
      </trkpt>
      <trkpt lat="47.89037" lon="6.89722">
        <ele>772</ele>
        <time>2023-05-20T16:22:48Z</time>
      </trkpt>
      <trkpt lat="47.89032" lon="6.89723">
        <ele>770.3</ele>
        <time>2023-05-20T16:22:52Z</time>
      </trkpt>
      <trkpt lat="47.89034" lon="6.89731">
        <ele>770.4</ele>
        <time>2023-05-20T16:22:59Z</time>
      </trkpt>
      <trkpt lat="47.89036" lon="6.89736">
        <ele>770.9</ele>
        <time>2023-05-20T16:23:03Z</time>
      </trkpt>
      <trkpt lat="47.89037" lon="6.89743">
        <ele>771</ele>
        <time>2023-05-20T16:23:07Z</time>
      </trkpt>
      <trkpt lat="47.89029" lon="6.89767">
        <ele>765.6</ele>
        <time>2023-05-20T16:23:20Z</time>
      </trkpt>
      <trkpt lat="47.89029" lon="6.89775">
        <ele>765.1</ele>
        <time>2023-05-20T16:23:23Z</time>
      </trkpt>
      <trkpt lat="47.8903" lon="6.89781">
        <ele>765.2</ele>
        <time>2023-05-20T16:23:28Z</time>
      </trkpt>
      <trkpt lat="47.89031" lon="6.89803">
        <ele>763</ele>
        <time>2023-05-20T16:23:47Z</time>
      </trkpt>
      <trkpt lat="47.89026" lon="6.89799">
        <ele>759.8</ele>
        <time>2023-05-20T16:23:50Z</time>
      </trkpt>
      <trkpt lat="47.89018" lon="6.89789">
        <ele>755.8</ele>
        <time>2023-05-20T16:23:58Z</time>
      </trkpt>
      <trkpt lat="47.88999" lon="6.89772">
        <ele>745</ele>
        <time>2023-05-20T16:24:16Z</time>
      </trkpt>
      <trkpt lat="47.88996" lon="6.89768">
        <ele>744.1</ele>
        <time>2023-05-20T16:24:20Z</time>
      </trkpt>
      <trkpt lat="47.88999" lon="6.89755">
        <ele>746.2</ele>
        <time>2023-05-20T16:24:27Z</time>
      </trkpt>
      <trkpt lat="47.88994" lon="6.89751">
        <ele>744.6</ele>
        <time>2023-05-20T16:24:36Z</time>
      </trkpt>
      <trkpt lat="47.88987" lon="6.89728">
        <ele>744.3</ele>
        <time>2023-05-20T16:24:48Z</time>
      </trkpt>
      <trkpt lat="47.88978" lon="6.89711">
        <ele>741.1</ele>
        <time>2023-05-20T16:25:01Z</time>
      </trkpt>
      <trkpt lat="47.88975" lon="6.89703">
        <ele>740</ele>
        <time>2023-05-20T16:25:06Z</time>
      </trkpt>
      <trkpt lat="47.88974" lon="6.89696">
        <ele>740</ele>
        <time>2023-05-20T16:25:11Z</time>
      </trkpt>
      <trkpt lat="47.88976" lon="6.89689">
        <ele>741.1</ele>
        <time>2023-05-20T16:25:14Z</time>
      </trkpt>
      <trkpt lat="47.88975" lon="6.89682">
        <ele>740.3</ele>
        <time>2023-05-20T16:25:16Z</time>
      </trkpt>
      <trkpt lat="47.8898" lon="6.89665">
        <ele>742.7</ele>
        <time>2023-05-20T16:25:26Z</time>
      </trkpt>
      <trkpt lat="47.88981" lon="6.8965">
        <ele>742.8</ele>
        <time>2023-05-20T16:25:34Z</time>
      </trkpt>
      <trkpt lat="47.88981" lon="6.89639">
        <ele>742.4</ele>
        <time>2023-05-20T16:25:43Z</time>
      </trkpt>
      <trkpt lat="47.88979" lon="6.89624">
        <ele>740.1</ele>
        <time>2023-05-20T16:25:52Z</time>
      </trkpt>
      <trkpt lat="47.88976" lon="6.89619">
        <ele>737.9</ele>
        <time>2023-05-20T16:25:56Z</time>
      </trkpt>
      <trkpt lat="47.88976" lon="6.89622">
        <ele>738.1</ele>
        <time>2023-05-20T16:26:07Z</time>
      </trkpt>
      <trkpt lat="47.88971" lon="6.8964">
        <ele>736.5</ele>
        <time>2023-05-20T16:26:19Z</time>
      </trkpt>
      <trkpt lat="47.88969" lon="6.8965">
        <ele>736.1</ele>
        <time>2023-05-20T16:26:29Z</time>
      </trkpt>
      <trkpt lat="47.88965" lon="6.89664">
        <ele>735.5</ele>
        <time>2023-05-20T16:26:42Z</time>
      </trkpt>
      <trkpt lat="47.8896" lon="6.8966">
        <ele>733.5</ele>
        <time>2023-05-20T16:26:45Z</time>
      </trkpt>
      <trkpt lat="47.88941" lon="6.89633">
        <ele>726.7</ele>
        <time>2023-05-20T16:27:01Z</time>
      </trkpt>
      <trkpt lat="47.88935" lon="6.89632">
        <ele>730.2</ele>
        <time>2023-05-20T16:27:09Z</time>
      </trkpt>
      <trkpt lat="47.88938" lon="6.89635">
        <ele>728.6</ele>
        <time>2023-05-20T16:27:23Z</time>
      </trkpt>
      <trkpt lat="47.88949" lon="6.89647">
        <ele>728</ele>
        <time>2023-05-20T16:27:32Z</time>
      </trkpt>
      <trkpt lat="47.88951" lon="6.89639">
        <ele>727.8</ele>
        <time>2023-05-20T16:28:05Z</time>
      </trkpt>
      <trkpt lat="47.88946" lon="6.89642">
        <ele>726.1</ele>
        <time>2023-05-20T16:30:24Z</time>
      </trkpt>
      <trkpt lat="47.88943" lon="6.89636">
        <ele>725.7</ele>
        <time>2023-05-20T16:30:27Z</time>
      </trkpt>
      <trkpt lat="47.88938" lon="6.89633">
        <ele>728.5</ele>
        <time>2023-05-20T16:30:40Z</time>
      </trkpt>
      <trkpt lat="47.88931" lon="6.89633">
        <ele>732.7</ele>
        <time>2023-05-20T16:30:43Z</time>
      </trkpt>
      <trkpt lat="47.88929" lon="6.89625">
        <ele>733.2</ele>
        <time>2023-05-20T16:30:47Z</time>
      </trkpt>
      <trkpt lat="47.88921" lon="6.89612">
        <ele>736.6</ele>
        <time>2023-05-20T16:30:58Z</time>
      </trkpt>
      <trkpt lat="47.88926" lon="6.89619">
        <ele>734.4</ele>
        <time>2023-05-20T16:31:05Z</time>
      </trkpt>
      <trkpt lat="47.88928" lon="6.89627">
        <ele>734</ele>
        <time>2023-05-20T16:31:09Z</time>
      </trkpt>
      <trkpt lat="47.88931" lon="6.89645">
        <ele>734.2</ele>
        <time>2023-05-20T16:31:20Z</time>
      </trkpt>
      <trkpt lat="47.88931" lon="6.89663">
        <ele>737.1</ele>
        <time>2023-05-20T16:31:34Z</time>
      </trkpt>
      <trkpt lat="47.88937" lon="6.89677">
        <ele>734.4</ele>
        <time>2023-05-20T16:31:44Z</time>
      </trkpt>
      <trkpt lat="47.88937" lon="6.89688">
        <ele>735</ele>
        <time>2023-05-20T16:31:54Z</time>
      </trkpt>
      <trkpt lat="47.88936" lon="6.89704">
        <ele>736.2</ele>
        <time>2023-05-20T16:32:03Z</time>
      </trkpt>
      <trkpt lat="47.88932" lon="6.89709">
        <ele>739.2</ele>
        <time>2023-05-20T16:32:07Z</time>
      </trkpt>
      <trkpt lat="47.88931" lon="6.89716">
        <ele>740.1</ele>
        <time>2023-05-20T16:32:11Z</time>
      </trkpt>
      <trkpt lat="47.88932" lon="6.89724">
        <ele>739.4</ele>
        <time>2023-05-20T16:32:15Z</time>
      </trkpt>
      <trkpt lat="47.88935" lon="6.89731">
        <ele>737.1</ele>
        <time>2023-05-20T16:32:20Z</time>
      </trkpt>
      <trkpt lat="47.88934" lon="6.8974">
        <ele>737.9</ele>
        <time>2023-05-20T16:32:27Z</time>
      </trkpt>
      <trkpt lat="47.88934" lon="6.89764">
        <ele>738.1</ele>
        <time>2023-05-20T16:32:41Z</time>
      </trkpt>
      <trkpt lat="47.88932" lon="6.8977">
        <ele>739.7</ele>
        <time>2023-05-20T16:32:46Z</time>
      </trkpt>
      <trkpt lat="47.88932" lon="6.89783">
        <ele>739.6</ele>
        <time>2023-05-20T16:32:53Z</time>
      </trkpt>
      <trkpt lat="47.88935" lon="6.89789">
        <ele>736.8</ele>
        <time>2023-05-20T16:32:57Z</time>
      </trkpt>
      <trkpt lat="47.88933" lon="6.89795">
        <ele>738.1</ele>
        <time>2023-05-20T16:33:01Z</time>
      </trkpt>
      <trkpt lat="47.88931" lon="6.89803">
        <ele>739.3</ele>
        <time>2023-05-20T16:33:09Z</time>
      </trkpt>
      <trkpt lat="47.88929" lon="6.89819">
        <ele>739.8</ele>
        <time>2023-05-20T16:33:18Z</time>
      </trkpt>
      <trkpt lat="47.88927" lon="6.89827">
        <ele>740.7</ele>
        <time>2023-05-20T16:33:23Z</time>
      </trkpt>
      <trkpt lat="47.88925" lon="6.89841">
        <ele>740.8</ele>
        <time>2023-05-20T16:33:31Z</time>
      </trkpt>
      <trkpt lat="47.88923" lon="6.89847">
        <ele>741.5</ele>
        <time>2023-05-20T16:33:34Z</time>
      </trkpt>
      <trkpt lat="47.88919" lon="6.89859">
        <ele>742.7</ele>
        <time>2023-05-20T16:33:42Z</time>
      </trkpt>
      <trkpt lat="47.88916" lon="6.89866">
        <ele>743.5</ele>
        <time>2023-05-20T16:33:45Z</time>
      </trkpt>
      <trkpt lat="47.88911" lon="6.89884">
        <ele>744.3</ele>
        <time>2023-05-20T16:33:59Z</time>
      </trkpt>
      <trkpt lat="47.8891" lon="6.89891">
        <ele>743.8</ele>
        <time>2023-05-20T16:34:07Z</time>
      </trkpt>
      <trkpt lat="47.88904" lon="6.89905">
        <ele>746.4</ele>
        <time>2023-05-20T16:34:15Z</time>
      </trkpt>
      <trkpt lat="47.88902" lon="6.89912">
        <ele>746.7</ele>
        <time>2023-05-20T16:34:20Z</time>
      </trkpt>
      <trkpt lat="47.88896" lon="6.89925">
        <ele>748.8</ele>
        <time>2023-05-20T16:34:28Z</time>
      </trkpt>
      <trkpt lat="47.88895" lon="6.89934">
        <ele>747.5</ele>
        <time>2023-05-20T16:34:34Z</time>
      </trkpt>
      <trkpt lat="47.88893" lon="6.89943">
        <ele>747</ele>
        <time>2023-05-20T16:34:39Z</time>
      </trkpt>
      <trkpt lat="47.88889" lon="6.89948">
        <ele>749</ele>
        <time>2023-05-20T16:34:42Z</time>
      </trkpt>
      <trkpt lat="47.88879" lon="6.89968">
        <ele>752.4</ele>
        <time>2023-05-20T16:34:53Z</time>
      </trkpt>
      <trkpt lat="47.88878" lon="6.89974">
        <ele>751.6</ele>
        <time>2023-05-20T16:34:58Z</time>
      </trkpt>
      <trkpt lat="47.88877" lon="6.89981">
        <ele>750.9</ele>
        <time>2023-05-20T16:35:03Z</time>
      </trkpt>
      <trkpt lat="47.88878" lon="6.89991">
        <ele>747.8</ele>
        <time>2023-05-20T16:35:14Z</time>
      </trkpt>
      <trkpt lat="47.88875" lon="6.89997">
        <ele>749.1</ele>
        <time>2023-05-20T16:35:18Z</time>
      </trkpt>
      <trkpt lat="47.88874" lon="6.90008">
        <ele>747.2</ele>
        <time>2023-05-20T16:35:23Z</time>
      </trkpt>
      <trkpt lat="47.88871" lon="6.90015">
        <ele>748</ele>
        <time>2023-05-20T16:35:34Z</time>
      </trkpt>
      <trkpt lat="47.88864" lon="6.90019">
        <ele>753</ele>
        <time>2023-05-20T16:35:37Z</time>
      </trkpt>
      <trkpt lat="47.88859" lon="6.90023">
        <ele>756.4</ele>
        <time>2023-05-20T16:35:40Z</time>
      </trkpt>
      <trkpt lat="47.88861" lon="6.90031">
        <ele>752.2</ele>
        <time>2023-05-20T16:35:43Z</time>
      </trkpt>
      <trkpt lat="47.88859" lon="6.90037">
        <ele>752.5</ele>
        <time>2023-05-20T16:35:47Z</time>
      </trkpt>
      <trkpt lat="47.88856" lon="6.90047">
        <ele>752.9</ele>
        <time>2023-05-20T16:35:52Z</time>
      </trkpt>
      <trkpt lat="47.88856" lon="6.90054">
        <ele>751.1</ele>
        <time>2023-05-20T16:35:57Z</time>
      </trkpt>
      <trkpt lat="47.88854" lon="6.9006">
        <ele>751.9</ele>
        <time>2023-05-20T16:36:01Z</time>
      </trkpt>
      <trkpt lat="47.88853" lon="6.90075">
        <ele>749.6</ele>
        <time>2023-05-20T16:36:07Z</time>
      </trkpt>
      <trkpt lat="47.88852" lon="6.90082">
        <ele>749.1</ele>
        <time>2023-05-20T16:36:11Z</time>
      </trkpt>
      <trkpt lat="47.88851" lon="6.90089">
        <ele>748.2</ele>
        <time>2023-05-20T16:36:19Z</time>
      </trkpt>
      <trkpt lat="47.88851" lon="6.90108">
        <ele>742.5</ele>
        <time>2023-05-20T16:36:30Z</time>
      </trkpt>
      <trkpt lat="47.88849" lon="6.90116">
        <ele>742</ele>
        <time>2023-05-20T16:36:33Z</time>
      </trkpt>
      <trkpt lat="47.88845" lon="6.9012">
        <ele>744.7</ele>
        <time>2023-05-20T16:36:38Z</time>
      </trkpt>
      <trkpt lat="47.88843" lon="6.90126">
        <ele>744.6</ele>
        <time>2023-05-20T16:36:41Z</time>
      </trkpt>
      <trkpt lat="47.88842" lon="6.90133">
        <ele>743</ele>
        <time>2023-05-20T16:36:44Z</time>
      </trkpt>
      <trkpt lat="47.88839" lon="6.9014">
        <ele>743.3</ele>
        <time>2023-05-20T16:36:48Z</time>
      </trkpt>
      <trkpt lat="47.88835" lon="6.90144">
        <ele>745.8</ele>
        <time>2023-05-20T16:36:52Z</time>
      </trkpt>
      <trkpt lat="47.88831" lon="6.90147">
        <ele>747.6</ele>
        <time>2023-05-20T16:36:56Z</time>
      </trkpt>
      <trkpt lat="47.88827" lon="6.90151">
        <ele>748.4</ele>
        <time>2023-05-20T16:36:59Z</time>
      </trkpt>
      <trkpt lat="47.88825" lon="6.90159">
        <ele>746.9</ele>
        <time>2023-05-20T16:37:12Z</time>
      </trkpt>
      <trkpt lat="47.88821" lon="6.90165">
        <ele>747.2</ele>
        <time>2023-05-20T16:37:16Z</time>
      </trkpt>
      <trkpt lat="47.88816" lon="6.90168">
        <ele>749</ele>
        <time>2023-05-20T16:37:20Z</time>
      </trkpt>
      <trkpt lat="47.88813" lon="6.90174">
        <ele>748.9</ele>
        <time>2023-05-20T16:37:23Z</time>
      </trkpt>
      <trkpt lat="47.88811" lon="6.90188">
        <ele>746.2</ele>
        <time>2023-05-20T16:37:30Z</time>
      </trkpt>
      <trkpt lat="47.88805" lon="6.90199">
        <ele>747.1</ele>
        <time>2023-05-20T16:37:38Z</time>
      </trkpt>
      <trkpt lat="47.88799" lon="6.90208">
        <ele>748</ele>
        <time>2023-05-20T16:37:45Z</time>
      </trkpt>
      <trkpt lat="47.88797" lon="6.90215">
        <ele>747.4</ele>
        <time>2023-05-20T16:37:49Z</time>
      </trkpt>
      <trkpt lat="47.88782" lon="6.90235">
        <ele>751.7</ele>
        <time>2023-05-20T16:38:06Z</time>
      </trkpt>
      <trkpt lat="47.88775" lon="6.90237">
        <ele>755.5</ele>
        <time>2023-05-20T16:38:12Z</time>
      </trkpt>
      <trkpt lat="47.88769" lon="6.90231">
        <ele>759.9</ele>
        <time>2023-05-20T16:38:17Z</time>
      </trkpt>
      <trkpt lat="47.8877" lon="6.90247">
        <ele>757.2</ele>
        <time>2023-05-20T16:38:29Z</time>
      </trkpt>
      <trkpt lat="47.8876" lon="6.90266">
        <ele>761.5</ele>
        <time>2023-05-20T16:38:45Z</time>
      </trkpt>
      <trkpt lat="47.88762" lon="6.90282">
        <ele>758.9</ele>
        <time>2023-05-20T16:39:02Z</time>
      </trkpt>
      <trkpt lat="47.88759" lon="6.9029">
        <ele>760.3</ele>
        <time>2023-05-20T16:39:16Z</time>
      </trkpt>
      <trkpt lat="47.88752" lon="6.90299">
        <ele>764.2</ele>
        <time>2023-05-20T16:39:26Z</time>
      </trkpt>
      <trkpt lat="47.88749" lon="6.90305">
        <ele>765.9</ele>
        <time>2023-05-20T16:39:31Z</time>
      </trkpt>
      <trkpt lat="47.88748" lon="6.90315">
        <ele>766.3</ele>
        <time>2023-05-20T16:39:37Z</time>
      </trkpt>
      <trkpt lat="47.88747" lon="6.90333">
        <ele>766.3</ele>
        <time>2023-05-20T16:39:47Z</time>
      </trkpt>
      <trkpt lat="47.88742" lon="6.90357">
        <ele>766.6</ele>
        <time>2023-05-20T16:40:02Z</time>
      </trkpt>
      <trkpt lat="47.88739" lon="6.90365">
        <ele>767.6</ele>
        <time>2023-05-20T16:40:07Z</time>
      </trkpt>
      <trkpt lat="47.88739" lon="6.90371">
        <ele>766.5</ele>
        <time>2023-05-20T16:40:10Z</time>
      </trkpt>
      <trkpt lat="47.88731" lon="6.90405">
        <ele>767.2</ele>
        <time>2023-05-20T16:40:32Z</time>
      </trkpt>
      <trkpt lat="47.88731" lon="6.90429">
        <ele>764.8</ele>
        <time>2023-05-20T16:40:46Z</time>
      </trkpt>
      <trkpt lat="47.8873" lon="6.90438">
        <ele>764.9</ele>
        <time>2023-05-20T16:40:50Z</time>
      </trkpt>
      <trkpt lat="47.88731" lon="6.90444">
        <ele>763.7</ele>
        <time>2023-05-20T16:40:55Z</time>
      </trkpt>
      <trkpt lat="47.88728" lon="6.90459">
        <ele>764.8</ele>
        <time>2023-05-20T16:41:03Z</time>
      </trkpt>
      <trkpt lat="47.88728" lon="6.90467">
        <ele>764.2</ele>
        <time>2023-05-20T16:41:08Z</time>
      </trkpt>
      <trkpt lat="47.88722" lon="6.90502">
        <ele>767</ele>
        <time>2023-05-20T16:41:24Z</time>
      </trkpt>
      <trkpt lat="47.88724" lon="6.90512">
        <ele>764.8</ele>
        <time>2023-05-20T16:41:30Z</time>
      </trkpt>
      <trkpt lat="47.88726" lon="6.90524">
        <ele>762.4</ele>
        <time>2023-05-20T16:41:40Z</time>
      </trkpt>
      <trkpt lat="47.88726" lon="6.90531">
        <ele>762</ele>
        <time>2023-05-20T16:41:44Z</time>
      </trkpt>
      <trkpt lat="47.88724" lon="6.9054">
        <ele>763.2</ele>
        <time>2023-05-20T16:41:49Z</time>
      </trkpt>
      <trkpt lat="47.88724" lon="6.90554">
        <ele>762.7</ele>
        <time>2023-05-20T16:41:56Z</time>
      </trkpt>
      <trkpt lat="47.88719" lon="6.90577">
        <ele>766.5</ele>
        <time>2023-05-20T16:42:09Z</time>
      </trkpt>
      <trkpt lat="47.88715" lon="6.90598">
        <ele>768</ele>
        <time>2023-05-20T16:42:19Z</time>
      </trkpt>
      <trkpt lat="47.88718" lon="6.90613">
        <ele>764.2</ele>
        <time>2023-05-20T16:42:29Z</time>
      </trkpt>
      <trkpt lat="47.88716" lon="6.9062">
        <ele>765.2</ele>
        <time>2023-05-20T16:42:33Z</time>
      </trkpt>
      <trkpt lat="47.88713" lon="6.90651">
        <ele>764.4</ele>
        <time>2023-05-20T16:42:49Z</time>
      </trkpt>
      <trkpt lat="47.88711" lon="6.90657">
        <ele>765</ele>
        <time>2023-05-20T16:42:53Z</time>
      </trkpt>
      <trkpt lat="47.88711" lon="6.90667">
        <ele>763.7</ele>
        <time>2023-05-20T16:43:00Z</time>
      </trkpt>
      <trkpt lat="47.88703" lon="6.90706">
        <ele>766.9</ele>
        <time>2023-05-20T16:43:26Z</time>
      </trkpt>
      <trkpt lat="47.88703" lon="6.90716">
        <ele>766</ele>
        <time>2023-05-20T16:43:33Z</time>
      </trkpt>
      <trkpt lat="47.887" lon="6.90723">
        <ele>767.8</ele>
        <time>2023-05-20T16:43:37Z</time>
      </trkpt>
      <trkpt lat="47.88699" lon="6.90734">
        <ele>768</ele>
        <time>2023-05-20T16:43:46Z</time>
      </trkpt>
      <trkpt lat="47.88699" lon="6.90742">
        <ele>767.6</ele>
        <time>2023-05-20T16:43:50Z</time>
      </trkpt>
      <trkpt lat="47.88699" lon="6.90749">
        <ele>767.3</ele>
        <time>2023-05-20T16:43:55Z</time>
      </trkpt>
      <trkpt lat="47.88694" lon="6.90762">
        <ele>769.7</ele>
        <time>2023-05-20T16:44:03Z</time>
      </trkpt>
      <trkpt lat="47.88684" lon="6.90802">
        <ele>771.5</ele>
        <time>2023-05-20T16:44:27Z</time>
      </trkpt>
      <trkpt lat="47.88679" lon="6.90815">
        <ele>772.4</ele>
        <time>2023-05-20T16:44:35Z</time>
      </trkpt>
      <trkpt lat="47.88676" lon="6.90823">
        <ele>772.8</ele>
        <time>2023-05-20T16:44:40Z</time>
      </trkpt>
      <trkpt lat="47.88673" lon="6.90837">
        <ele>771.8</ele>
        <time>2023-05-20T16:44:46Z</time>
      </trkpt>
      <trkpt lat="47.8867" lon="6.90844">
        <ele>772.9</ele>
        <time>2023-05-20T16:44:52Z</time>
      </trkpt>
      <trkpt lat="47.88657" lon="6.90893">
        <ele>774.1</ele>
        <time>2023-05-20T16:45:26Z</time>
      </trkpt>
      <trkpt lat="47.88655" lon="6.909">
        <ele>773.6</ele>
        <time>2023-05-20T16:45:30Z</time>
      </trkpt>
      <trkpt lat="47.88649" lon="6.90913">
        <ele>773.2</ele>
        <time>2023-05-20T16:45:43Z</time>
      </trkpt>
      <trkpt lat="47.8863" lon="6.90937">
        <ele>776.8</ele>
        <time>2023-05-20T16:46:02Z</time>
      </trkpt>
      <trkpt lat="47.88607" lon="6.90973">
        <ele>779.5</ele>
        <time>2023-05-20T16:46:31Z</time>
      </trkpt>
      <trkpt lat="47.88607" lon="6.9098">
        <ele>778.3</ele>
        <time>2023-05-20T16:46:35Z</time>
      </trkpt>
      <trkpt lat="47.88603" lon="6.90993">
        <ele>778.5</ele>
        <time>2023-05-20T16:46:42Z</time>
      </trkpt>
      <trkpt lat="47.88602" lon="6.90999">
        <ele>778.1</ele>
        <time>2023-05-20T16:46:45Z</time>
      </trkpt>
      <trkpt lat="47.88596" lon="6.91005">
        <ele>781</ele>
        <time>2023-05-20T16:46:51Z</time>
      </trkpt>
      <trkpt lat="47.88592" lon="6.91011">
        <ele>782.7</ele>
        <time>2023-05-20T16:46:57Z</time>
      </trkpt>
      <trkpt lat="47.88584" lon="6.91047">
        <ele>782.1</ele>
        <time>2023-05-20T16:47:20Z</time>
      </trkpt>
      <trkpt lat="47.88578" lon="6.91062">
        <ele>783.9</ele>
        <time>2023-05-20T16:47:31Z</time>
      </trkpt>
      <trkpt lat="47.88574" lon="6.91075">
        <ele>784.7</ele>
        <time>2023-05-20T16:47:42Z</time>
      </trkpt>
      <trkpt lat="47.88569" lon="6.91084">
        <ele>786.7</ele>
        <time>2023-05-20T16:47:51Z</time>
      </trkpt>
      <trkpt lat="47.88566" lon="6.91095">
        <ele>787.9</ele>
        <time>2023-05-20T16:47:57Z</time>
      </trkpt>
      <trkpt lat="47.88567" lon="6.91105">
        <ele>786.3</ele>
        <time>2023-05-20T16:48:03Z</time>
      </trkpt>
      <trkpt lat="47.88562" lon="6.91124">
        <ele>788.4</ele>
        <time>2023-05-20T16:48:12Z</time>
      </trkpt>
      <trkpt lat="47.88562" lon="6.91131">
        <ele>787.9</ele>
        <time>2023-05-20T16:48:17Z</time>
      </trkpt>
      <trkpt lat="47.8856" lon="6.91146">
        <ele>789.2</ele>
        <time>2023-05-20T16:48:25Z</time>
      </trkpt>
      <trkpt lat="47.88564" lon="6.91161">
        <ele>787</ele>
        <time>2023-05-20T16:48:36Z</time>
      </trkpt>
      <trkpt lat="47.88563" lon="6.91169">
        <ele>788.1</ele>
        <time>2023-05-20T16:48:41Z</time>
      </trkpt>
      <trkpt lat="47.88564" lon="6.912">
        <ele>787.2</ele>
        <time>2023-05-20T16:48:59Z</time>
      </trkpt>
      <trkpt lat="47.88561" lon="6.91208">
        <ele>788.9</ele>
        <time>2023-05-20T16:49:03Z</time>
      </trkpt>
      <trkpt lat="47.88563" lon="6.9123">
        <ele>786.2</ele>
        <time>2023-05-20T16:49:16Z</time>
      </trkpt>
      <trkpt lat="47.88562" lon="6.91239">
        <ele>786.8</ele>
        <time>2023-05-20T16:49:21Z</time>
      </trkpt>
      <trkpt lat="47.88561" lon="6.91247">
        <ele>787.5</ele>
        <time>2023-05-20T16:49:26Z</time>
      </trkpt>
      <trkpt lat="47.88563" lon="6.91253">
        <ele>785.7</ele>
        <time>2023-05-20T16:49:31Z</time>
      </trkpt>
      <trkpt lat="47.88565" lon="6.9126">
        <ele>783.8</ele>
        <time>2023-05-20T16:49:36Z</time>
      </trkpt>
      <trkpt lat="47.88566" lon="6.91268">
        <ele>782.6</ele>
        <time>2023-05-20T16:49:40Z</time>
      </trkpt>
      <trkpt lat="47.88565" lon="6.91276">
        <ele>783.2</ele>
        <time>2023-05-20T16:49:44Z</time>
      </trkpt>
      <trkpt lat="47.88563" lon="6.91282">
        <ele>784.9</ele>
        <time>2023-05-20T16:49:47Z</time>
      </trkpt>
      <trkpt lat="47.88563" lon="6.91292">
        <ele>784.5</ele>
        <time>2023-05-20T16:49:54Z</time>
      </trkpt>
      <trkpt lat="47.88563" lon="6.91298">
        <ele>784.3</ele>
        <time>2023-05-20T16:49:59Z</time>
      </trkpt>
      <trkpt lat="47.88562" lon="6.91305">
        <ele>785</ele>
        <time>2023-05-20T16:50:03Z</time>
      </trkpt>
      <trkpt lat="47.8856" lon="6.91312">
        <ele>786.1</ele>
        <time>2023-05-20T16:50:07Z</time>
      </trkpt>
      <trkpt lat="47.88558" lon="6.9132">
        <ele>787.2</ele>
        <time>2023-05-20T16:50:11Z</time>
      </trkpt>
      <trkpt lat="47.88557" lon="6.91328">
        <ele>787.2</ele>
        <time>2023-05-20T16:50:21Z</time>
      </trkpt>
      <trkpt lat="47.88556" lon="6.91334">
        <ele>787.5</ele>
        <time>2023-05-20T16:50:27Z</time>
      </trkpt>
      <trkpt lat="47.88558" lon="6.9134">
        <ele>785</ele>
        <time>2023-05-20T16:50:32Z</time>
      </trkpt>
      <trkpt lat="47.88558" lon="6.91347">
        <ele>784.2</ele>
        <time>2023-05-20T16:50:37Z</time>
      </trkpt>
      <trkpt lat="47.88555" lon="6.91352">
        <ele>786.3</ele>
        <time>2023-05-20T16:50:42Z</time>
      </trkpt>
      <trkpt lat="47.88549" lon="6.91365">
        <ele>787.2</ele>
        <time>2023-05-20T16:50:51Z</time>
      </trkpt>
      <trkpt lat="47.88544" lon="6.91368">
        <ele>788.8</ele>
        <time>2023-05-20T16:50:56Z</time>
      </trkpt>
      <trkpt lat="47.88541" lon="6.91376">
        <ele>788</ele>
        <time>2023-05-20T16:51:00Z</time>
      </trkpt>
      <trkpt lat="47.88542" lon="6.91409">
        <ele>778.8</ele>
        <time>2023-05-20T16:51:24Z</time>
      </trkpt>
      <trkpt lat="47.88539" lon="6.91414">
        <ele>778.5</ele>
        <time>2023-05-20T16:51:29Z</time>
      </trkpt>
      <trkpt lat="47.8853" lon="6.91417">
        <ele>780.2</ele>
        <time>2023-05-20T16:51:38Z</time>
      </trkpt>
      <trkpt lat="47.88524" lon="6.91414">
        <ele>781.4</ele>
        <time>2023-05-20T16:51:45Z</time>
      </trkpt>
      <trkpt lat="47.88519" lon="6.91415">
        <ele>780.2</ele>
        <time>2023-05-20T16:51:49Z</time>
      </trkpt>
      <trkpt lat="47.88515" lon="6.91418">
        <ele>777.9</ele>
        <time>2023-05-20T16:51:53Z</time>
      </trkpt>
      <trkpt lat="47.88509" lon="6.91414">
        <ele>779.2</ele>
        <time>2023-05-20T16:51:59Z</time>
      </trkpt>
      <trkpt lat="47.88504" lon="6.91408">
        <ele>782.2</ele>
        <time>2023-05-20T16:52:05Z</time>
      </trkpt>
      <trkpt lat="47.88495" lon="6.9141">
        <ele>780.4</ele>
        <time>2023-05-20T16:52:13Z</time>
      </trkpt>
      <trkpt lat="47.88491" lon="6.91412">
        <ele>778.9</ele>
        <time>2023-05-20T16:52:17Z</time>
      </trkpt>
      <trkpt lat="47.88485" lon="6.91419">
        <ele>774.1</ele>
        <time>2023-05-20T16:52:23Z</time>
      </trkpt>
      <trkpt lat="47.88481" lon="6.91417">
        <ele>775.1</ele>
        <time>2023-05-20T16:52:27Z</time>
      </trkpt>
      <trkpt lat="47.88475" lon="6.91416">
        <ele>775.6</ele>
        <time>2023-05-20T16:52:33Z</time>
      </trkpt>
      <trkpt lat="47.8847" lon="6.91413">
        <ele>778.4</ele>
        <time>2023-05-20T16:52:39Z</time>
      </trkpt>
      <trkpt lat="47.88461" lon="6.91419">
        <ele>778.7</ele>
        <time>2023-05-20T16:52:46Z</time>
      </trkpt>
      <trkpt lat="47.88457" lon="6.9142">
        <ele>779.9</ele>
        <time>2023-05-20T16:52:55Z</time>
      </trkpt>
      <trkpt lat="47.88453" lon="6.91424">
        <ele>779.7</ele>
        <time>2023-05-20T16:53:00Z</time>
      </trkpt>
      <trkpt lat="47.88451" lon="6.91418">
        <ele>783.5</ele>
        <time>2023-05-20T16:53:03Z</time>
      </trkpt>
      <trkpt lat="47.88463" lon="6.91392">
        <ele>793.2</ele>
        <time>2023-05-20T16:53:13Z</time>
      </trkpt>
      <trkpt lat="47.88459" lon="6.914">
        <ele>789.5</ele>
        <time>2023-05-20T16:53:31Z</time>
      </trkpt>
      <trkpt lat="47.88454" lon="6.91403">
        <ele>789.3</ele>
        <time>2023-05-20T16:53:36Z</time>
      </trkpt>
      <trkpt lat="47.88447" lon="6.91408">
        <ele>789.3</ele>
        <time>2023-05-20T16:53:48Z</time>
      </trkpt>
      <trkpt lat="47.88446" lon="6.91414">
        <ele>787.3</ele>
        <time>2023-05-20T16:53:56Z</time>
      </trkpt>
      <trkpt lat="47.88438" lon="6.91414">
        <ele>791.4</ele>
        <time>2023-05-20T16:54:08Z</time>
      </trkpt>
      <trkpt lat="47.88432" lon="6.91413">
        <ele>795</ele>
        <time>2023-05-20T16:54:19Z</time>
      </trkpt>
      <trkpt lat="47.88428" lon="6.91422">
        <ele>792.8</ele>
        <time>2023-05-20T16:54:38Z</time>
      </trkpt>
      <trkpt lat="47.88424" lon="6.91414">
        <ele>798.9</ele>
        <time>2023-05-20T16:54:43Z</time>
      </trkpt>
      <trkpt lat="47.8842" lon="6.91421">
        <ele>797.5</ele>
        <time>2023-05-20T16:54:46Z</time>
      </trkpt>
      <trkpt lat="47.88415" lon="6.91417">
        <ele>801.3</ele>
        <time>2023-05-20T16:54:52Z</time>
      </trkpt>
      <trkpt lat="47.88412" lon="6.9141">
        <ele>802.8</ele>
        <time>2023-05-20T16:54:56Z</time>
      </trkpt>
      <trkpt lat="47.88408" lon="6.91412">
        <ele>800.9</ele>
        <time>2023-05-20T16:55:00Z</time>
      </trkpt>
      <trkpt lat="47.88404" lon="6.91408">
        <ele>801.1</ele>
        <time>2023-05-20T16:55:04Z</time>
      </trkpt>
      <trkpt lat="47.884" lon="6.91403">
        <ele>801.9</ele>
        <time>2023-05-20T16:55:08Z</time>
      </trkpt>
      <trkpt lat="47.88397" lon="6.91406">
        <ele>799.9</ele>
        <time>2023-05-20T16:55:12Z</time>
      </trkpt>
      <trkpt lat="47.88391" lon="6.91395">
        <ele>802.9</ele>
        <time>2023-05-20T16:55:20Z</time>
      </trkpt>
      <trkpt lat="47.88387" lon="6.91393">
        <ele>803.6</ele>
        <time>2023-05-20T16:55:25Z</time>
      </trkpt>
      <trkpt lat="47.88382" lon="6.91393">
        <ele>804.4</ele>
        <time>2023-05-20T16:55:30Z</time>
      </trkpt>
      <trkpt lat="47.88378" lon="6.91392">
        <ele>805.5</ele>
        <time>2023-05-20T16:55:33Z</time>
      </trkpt>
      <trkpt lat="47.88375" lon="6.91397">
        <ele>804.4</ele>
        <time>2023-05-20T16:55:39Z</time>
      </trkpt>
      <trkpt lat="47.88374" lon="6.91405">
        <ele>802</ele>
        <time>2023-05-20T16:55:43Z</time>
      </trkpt>
      <trkpt lat="47.88371" lon="6.91413">
        <ele>800.5</ele>
        <time>2023-05-20T16:55:49Z</time>
      </trkpt>
      <trkpt lat="47.88365" lon="6.91423">
        <ele>799.4</ele>
        <time>2023-05-20T16:55:56Z</time>
      </trkpt>
      <trkpt lat="47.88355" lon="6.91431">
        <ele>800.1</ele>
        <time>2023-05-20T16:56:07Z</time>
      </trkpt>
      <trkpt lat="47.88352" lon="6.91435">
        <ele>799.8</ele>
        <time>2023-05-20T16:56:11Z</time>
      </trkpt>
      <trkpt lat="47.88349" lon="6.91442">
        <ele>798.3</ele>
        <time>2023-05-20T16:56:35Z</time>
      </trkpt>
      <trkpt lat="47.88346" lon="6.91444">
        <ele>798.6</ele>
        <time>2023-05-20T16:56:37Z</time>
      </trkpt>
      <trkpt lat="47.88343" lon="6.91439">
        <ele>801.6</ele>
        <time>2023-05-20T16:56:41Z</time>
      </trkpt>
      <trkpt lat="47.88339" lon="6.91446">
        <ele>800.5</ele>
        <time>2023-05-20T16:56:43Z</time>
      </trkpt>
      <trkpt lat="47.88315" lon="6.91474">
        <ele>801.3</ele>
        <time>2023-05-20T16:57:04Z</time>
      </trkpt>
      <trkpt lat="47.88301" lon="6.91484">
        <ele>801.8</ele>
        <time>2023-05-20T16:57:14Z</time>
      </trkpt>
      <trkpt lat="47.88286" lon="6.91485">
        <ele>803.3</ele>
        <time>2023-05-20T16:57:25Z</time>
      </trkpt>
      <trkpt lat="47.88281" lon="6.91484">
        <ele>804.1</ele>
        <time>2023-05-20T16:57:28Z</time>
      </trkpt>
      <trkpt lat="47.88277" lon="6.91486">
        <ele>804.4</ele>
        <time>2023-05-20T16:57:32Z</time>
      </trkpt>
      <trkpt lat="47.8827" lon="6.91502">
        <ele>803.6</ele>
        <time>2023-05-20T16:57:44Z</time>
      </trkpt>
      <trkpt lat="47.88268" lon="6.91508">
        <ele>802.3</ele>
        <time>2023-05-20T16:57:49Z</time>
      </trkpt>
      <trkpt lat="47.8826" lon="6.91516">
        <ele>802.9</ele>
        <time>2023-05-20T16:57:59Z</time>
      </trkpt>
      <trkpt lat="47.88252" lon="6.91521">
        <ele>804.6</ele>
        <time>2023-05-20T16:58:07Z</time>
      </trkpt>
      <trkpt lat="47.88249" lon="6.91527">
        <ele>803.3</ele>
        <time>2023-05-20T16:58:10Z</time>
      </trkpt>
      <trkpt lat="47.88242" lon="6.91535">
        <ele>800.4</ele>
        <time>2023-05-20T16:58:16Z</time>
      </trkpt>
      <trkpt lat="47.8823" lon="6.91533">
        <ele>801.1</ele>
        <time>2023-05-20T16:58:26Z</time>
      </trkpt>
      <trkpt lat="47.88226" lon="6.9153">
        <ele>802.2</ele>
        <time>2023-05-20T16:58:30Z</time>
      </trkpt>
      <trkpt lat="47.88221" lon="6.91529">
        <ele>803</ele>
        <time>2023-05-20T16:58:33Z</time>
      </trkpt>
      <trkpt lat="47.88212" lon="6.9153">
        <ele>806.2</ele>
        <time>2023-05-20T16:58:40Z</time>
      </trkpt>
      <trkpt lat="47.88209" lon="6.91534">
        <ele>806</ele>
        <time>2023-05-20T16:58:43Z</time>
      </trkpt>
      <trkpt lat="47.88206" lon="6.9154">
        <ele>805</ele>
        <time>2023-05-20T16:58:47Z</time>
      </trkpt>
      <trkpt lat="47.88193" lon="6.91549">
        <ele>806.7</ele>
        <time>2023-05-20T16:59:01Z</time>
      </trkpt>
      <trkpt lat="47.8819" lon="6.91554">
        <ele>805.6</ele>
        <time>2023-05-20T16:59:04Z</time>
      </trkpt>
      <trkpt lat="47.88176" lon="6.91562">
        <ele>806.1</ele>
        <time>2023-05-20T16:59:16Z</time>
      </trkpt>
      <trkpt lat="47.88172" lon="6.91566">
        <ele>806</ele>
        <time>2023-05-20T16:59:21Z</time>
      </trkpt>
      <trkpt lat="47.88165" lon="6.91566">
        <ele>808.2</ele>
        <time>2023-05-20T16:59:27Z</time>
      </trkpt>
      <trkpt lat="47.88159" lon="6.91571">
        <ele>809.9</ele>
        <time>2023-05-20T16:59:31Z</time>
      </trkpt>
      <trkpt lat="47.88156" lon="6.91576">
        <ele>810.3</ele>
        <time>2023-05-20T16:59:34Z</time>
      </trkpt>
      <trkpt lat="47.8815" lon="6.91597">
        <ele>810.9</ele>
        <time>2023-05-20T16:59:52Z</time>
      </trkpt>
      <trkpt lat="47.88147" lon="6.91602">
        <ele>812</ele>
        <time>2023-05-20T16:59:57Z</time>
      </trkpt>
      <trkpt lat="47.88137" lon="6.91644">
        <ele>810.9</ele>
        <time>2023-05-20T17:00:24Z</time>
      </trkpt>
      <trkpt lat="47.88115" lon="6.91685">
        <ele>813.6</ele>
        <time>2023-05-20T17:00:59Z</time>
      </trkpt>
      <trkpt lat="47.88113" lon="6.91691">
        <ele>813</ele>
        <time>2023-05-20T17:01:02Z</time>
      </trkpt>
      <trkpt lat="47.88105" lon="6.91701">
        <ele>812.7</ele>
        <time>2023-05-20T17:01:11Z</time>
      </trkpt>
      <trkpt lat="47.88092" lon="6.91711">
        <ele>812.6</ele>
        <time>2023-05-20T17:01:23Z</time>
      </trkpt>
      <trkpt lat="47.88088" lon="6.91711">
        <ele>813.6</ele>
        <time>2023-05-20T17:01:27Z</time>
      </trkpt>
      <trkpt lat="47.88082" lon="6.91714">
        <ele>813.7</ele>
        <time>2023-05-20T17:01:31Z</time>
      </trkpt>
      <trkpt lat="47.88058" lon="6.91712">
        <ele>816.9</ele>
        <time>2023-05-20T17:01:54Z</time>
      </trkpt>
      <trkpt lat="47.88054" lon="6.91707">
        <ele>819.1</ele>
        <time>2023-05-20T17:01:58Z</time>
      </trkpt>
      <trkpt lat="47.8805" lon="6.91708">
        <ele>817.2</ele>
        <time>2023-05-20T17:02:01Z</time>
      </trkpt>
      <trkpt lat="47.88046" lon="6.91704">
        <ele>817.5</ele>
        <time>2023-05-20T17:02:05Z</time>
      </trkpt>
      <trkpt lat="47.8804" lon="6.91702">
        <ele>816.1</ele>
        <time>2023-05-20T17:02:12Z</time>
      </trkpt>
      <trkpt lat="47.88017" lon="6.9168">
        <ele>813.3</ele>
        <time>2023-05-20T17:02:36Z</time>
      </trkpt>
      <trkpt lat="47.88006" lon="6.91663">
        <ele>813</ele>
        <time>2023-05-20T17:02:51Z</time>
      </trkpt>
      <trkpt lat="47.88" lon="6.91662">
        <ele>810.3</ele>
        <time>2023-05-20T17:02:54Z</time>
      </trkpt>
      <trkpt lat="47.87998" lon="6.91658">
        <ele>810.7</ele>
        <time>2023-05-20T17:02:58Z</time>
      </trkpt>
      <trkpt lat="47.87988" lon="6.91652">
        <ele>808.2</ele>
        <time>2023-05-20T17:03:08Z</time>
      </trkpt>
      <trkpt lat="47.87984" lon="6.91641">
        <ele>809</ele>
        <time>2023-05-20T17:03:15Z</time>
      </trkpt>
      <trkpt lat="47.87976" lon="6.91632">
        <ele>807.1</ele>
        <time>2023-05-20T17:03:23Z</time>
      </trkpt>
      <trkpt lat="47.87971" lon="6.9163">
        <ele>805.4</ele>
        <time>2023-05-20T17:03:27Z</time>
      </trkpt>
      <trkpt lat="47.87958" lon="6.91615">
        <ele>804.9</ele>
        <time>2023-05-20T17:03:42Z</time>
      </trkpt>
      <trkpt lat="47.87952" lon="6.91614">
        <ele>803.5</ele>
        <time>2023-05-20T17:03:46Z</time>
      </trkpt>
      <trkpt lat="47.87948" lon="6.91608">
        <ele>803.2</ele>
        <time>2023-05-20T17:03:50Z</time>
      </trkpt>
      <trkpt lat="47.87945" lon="6.91603">
        <ele>802.7</ele>
        <time>2023-05-20T17:03:53Z</time>
      </trkpt>
      <trkpt lat="47.87942" lon="6.91596">
        <ele>802.6</ele>
        <time>2023-05-20T17:03:57Z</time>
      </trkpt>
      <trkpt lat="47.8794" lon="6.91589">
        <ele>802.8</ele>
        <time>2023-05-20T17:04:02Z</time>
      </trkpt>
      <trkpt lat="47.87941" lon="6.91582">
        <ele>803.5</ele>
        <time>2023-05-20T17:04:05Z</time>
      </trkpt>
      <trkpt lat="47.87939" lon="6.91567">
        <ele>804.4</ele>
        <time>2023-05-20T17:04:14Z</time>
      </trkpt>
      <trkpt lat="47.8794" lon="6.9156">
        <ele>805.3</ele>
        <time>2023-05-20T17:04:17Z</time>
      </trkpt>
      <trkpt lat="47.87937" lon="6.91541">
        <ele>805.6</ele>
        <time>2023-05-20T17:04:28Z</time>
      </trkpt>
      <trkpt lat="47.87937" lon="6.91535">
        <ele>805.9</ele>
        <time>2023-05-20T17:04:30Z</time>
      </trkpt>
      <trkpt lat="47.8794" lon="6.91509">
        <ele>809.3</ele>
        <time>2023-05-20T17:04:47Z</time>
      </trkpt>
      <trkpt lat="47.87936" lon="6.91494">
        <ele>809.4</ele>
        <time>2023-05-20T17:04:58Z</time>
      </trkpt>
      <trkpt lat="47.87937" lon="6.91488">
        <ele>810.5</ele>
        <time>2023-05-20T17:05:02Z</time>
      </trkpt>
      <trkpt lat="47.87935" lon="6.91457">
        <ele>813.2</ele>
        <time>2023-05-20T17:05:22Z</time>
      </trkpt>
      <trkpt lat="47.87937" lon="6.91427">
        <ele>817.9</ele>
        <time>2023-05-20T17:05:40Z</time>
      </trkpt>
      <trkpt lat="47.87935" lon="6.91419">
        <ele>817.9</ele>
        <time>2023-05-20T17:05:43Z</time>
      </trkpt>
      <trkpt lat="47.87936" lon="6.91407">
        <ele>819.8</ele>
        <time>2023-05-20T17:05:54Z</time>
      </trkpt>
      <trkpt lat="47.87933" lon="6.91388">
        <ele>820.3</ele>
        <time>2023-05-20T17:06:07Z</time>
      </trkpt>
      <trkpt lat="47.87935" lon="6.91381">
        <ele>822</ele>
        <time>2023-05-20T17:06:10Z</time>
      </trkpt>
      <trkpt lat="47.87932" lon="6.91376">
        <ele>820.9</ele>
        <time>2023-05-20T17:06:14Z</time>
      </trkpt>
      <trkpt lat="47.87932" lon="6.91369">
        <ele>821.6</ele>
        <time>2023-05-20T17:06:20Z</time>
      </trkpt>
      <trkpt lat="47.87933" lon="6.91357">
        <ele>823.1</ele>
        <time>2023-05-20T17:06:27Z</time>
      </trkpt>
      <trkpt lat="47.87933" lon="6.91341">
        <ele>824.3</ele>
        <time>2023-05-20T17:06:40Z</time>
      </trkpt>
      <trkpt lat="47.87932" lon="6.91327">
        <ele>824.7</ele>
        <time>2023-05-20T17:06:49Z</time>
      </trkpt>
      <trkpt lat="47.87933" lon="6.91316">
        <ele>826.1</ele>
        <time>2023-05-20T17:06:57Z</time>
      </trkpt>
      <trkpt lat="47.87933" lon="6.91301">
        <ele>827.1</ele>
        <time>2023-05-20T17:07:07Z</time>
      </trkpt>
      <trkpt lat="47.87931" lon="6.91294">
        <ele>826.6</ele>
        <time>2023-05-20T17:07:11Z</time>
      </trkpt>
      <trkpt lat="47.87932" lon="6.91283">
        <ele>827.9</ele>
        <time>2023-05-20T17:07:15Z</time>
      </trkpt>
      <trkpt lat="47.87933" lon="6.9127">
        <ele>829.4</ele>
        <time>2023-05-20T17:07:22Z</time>
      </trkpt>
      <trkpt lat="47.87932" lon="6.91263">
        <ele>829.3</ele>
        <time>2023-05-20T17:07:26Z</time>
      </trkpt>
      <trkpt lat="47.87928" lon="6.91258">
        <ele>827.5</ele>
        <time>2023-05-20T17:07:31Z</time>
      </trkpt>
      <trkpt lat="47.87931" lon="6.9125">
        <ele>829.7</ele>
        <time>2023-05-20T17:07:35Z</time>
      </trkpt>
      <trkpt lat="47.8793" lon="6.9121">
        <ele>832.3</ele>
        <time>2023-05-20T17:07:57Z</time>
      </trkpt>
      <trkpt lat="47.87929" lon="6.91195">
        <ele>833.1</ele>
        <time>2023-05-20T17:08:09Z</time>
      </trkpt>
      <trkpt lat="47.87931" lon="6.9118">
        <ele>835.8</ele>
        <time>2023-05-20T17:08:16Z</time>
      </trkpt>
      <trkpt lat="47.87924" lon="6.91171">
        <ele>832.4</ele>
        <time>2023-05-20T17:08:23Z</time>
      </trkpt>
      <trkpt lat="47.87923" lon="6.91158">
        <ele>833.1</ele>
        <time>2023-05-20T17:08:32Z</time>
      </trkpt>
      <trkpt lat="47.87923" lon="6.91151">
        <ele>834</ele>
        <time>2023-05-20T17:08:36Z</time>
      </trkpt>
      <trkpt lat="47.8792" lon="6.91137">
        <ele>834</ele>
        <time>2023-05-20T17:08:45Z</time>
      </trkpt>
      <trkpt lat="47.87918" lon="6.9112">
        <ele>834.8</ele>
        <time>2023-05-20T17:08:56Z</time>
      </trkpt>
      <trkpt lat="47.87912" lon="6.91093">
        <ele>835.4</ele>
        <time>2023-05-20T17:09:13Z</time>
      </trkpt>
      <trkpt lat="47.8791" lon="6.91087">
        <ele>835.6</ele>
        <time>2023-05-20T17:09:17Z</time>
      </trkpt>
      <trkpt lat="47.87909" lon="6.9108">
        <ele>836.2</ele>
        <time>2023-05-20T17:09:21Z</time>
      </trkpt>
      <trkpt lat="47.87898" lon="6.91055">
        <ele>837</ele>
        <time>2023-05-20T17:09:36Z</time>
      </trkpt>
      <trkpt lat="47.87895" lon="6.91034">
        <ele>839.1</ele>
        <time>2023-05-20T17:09:46Z</time>
      </trkpt>
      <trkpt lat="47.87889" lon="6.91024">
        <ele>839.6</ele>
        <time>2023-05-20T17:09:53Z</time>
      </trkpt>
      <trkpt lat="47.87884" lon="6.91023">
        <ele>839.5</ele>
        <time>2023-05-20T17:09:57Z</time>
      </trkpt>
      <trkpt lat="47.8788" lon="6.91019">
        <ele>839.8</ele>
        <time>2023-05-20T17:10:01Z</time>
      </trkpt>
      <trkpt lat="47.87868" lon="6.91019">
        <ele>839.3</ele>
        <time>2023-05-20T17:10:11Z</time>
      </trkpt>
      <trkpt lat="47.87864" lon="6.91019">
        <ele>839.1</ele>
        <time>2023-05-20T17:10:16Z</time>
      </trkpt>
      <trkpt lat="47.87852" lon="6.91022">
        <ele>838.5</ele>
        <time>2023-05-20T17:10:26Z</time>
      </trkpt>
      <trkpt lat="47.87846" lon="6.91027">
        <ele>838.1</ele>
        <time>2023-05-20T17:10:34Z</time>
      </trkpt>
      <trkpt lat="47.87841" lon="6.91029">
        <ele>837.8</ele>
        <time>2023-05-20T17:10:38Z</time>
      </trkpt>
      <trkpt lat="47.87837" lon="6.91032">
        <ele>837.4</ele>
        <time>2023-05-20T17:10:42Z</time>
      </trkpt>
      <trkpt lat="47.87831" lon="6.91035">
        <ele>837.7</ele>
        <time>2023-05-20T17:10:48Z</time>
      </trkpt>
      <trkpt lat="47.87827" lon="6.91038">
        <ele>838.4</ele>
        <time>2023-05-20T17:10:53Z</time>
      </trkpt>
      <trkpt lat="47.87804" lon="6.91076">
        <ele>838.1</ele>
        <time>2023-05-20T17:11:25Z</time>
      </trkpt>
      <trkpt lat="47.878" lon="6.9108">
        <ele>839.5</ele>
        <time>2023-05-20T17:11:29Z</time>
      </trkpt>
      <trkpt lat="47.87792" lon="6.91099">
        <ele>839.4</ele>
        <time>2023-05-20T17:11:41Z</time>
      </trkpt>
      <trkpt lat="47.87786" lon="6.91113">
        <ele>839.6</ele>
        <time>2023-05-20T17:11:51Z</time>
      </trkpt>
      <trkpt lat="47.87784" lon="6.9112">
        <ele>839.6</ele>
        <time>2023-05-20T17:11:55Z</time>
      </trkpt>
      <trkpt lat="47.8778" lon="6.91133">
        <ele>839.7</ele>
        <time>2023-05-20T17:12:03Z</time>
      </trkpt>
      <trkpt lat="47.87758" lon="6.91165">
        <ele>841.5</ele>
        <time>2023-05-20T17:12:27Z</time>
      </trkpt>
      <trkpt lat="47.87754" lon="6.91169">
        <ele>842</ele>
        <time>2023-05-20T17:12:32Z</time>
      </trkpt>
      <trkpt lat="47.87739" lon="6.91189">
        <ele>844</ele>
        <time>2023-05-20T17:12:44Z</time>
      </trkpt>
      <trkpt lat="47.87734" lon="6.91201">
        <ele>844.2</ele>
        <time>2023-05-20T17:12:51Z</time>
      </trkpt>
      <trkpt lat="47.8773" lon="6.91205">
        <ele>845.9</ele>
        <time>2023-05-20T17:12:56Z</time>
      </trkpt>
      <trkpt lat="47.87729" lon="6.91213">
        <ele>845.6</ele>
        <time>2023-05-20T17:13:05Z</time>
      </trkpt>
      <trkpt lat="47.8773" lon="6.91235">
        <ele>843.2</ele>
        <time>2023-05-20T17:13:18Z</time>
      </trkpt>
      <trkpt lat="47.87722" lon="6.91287">
        <ele>844.9</ele>
        <time>2023-05-20T17:13:46Z</time>
      </trkpt>
      <trkpt lat="47.87722" lon="6.91302">
        <ele>844.3</ele>
        <time>2023-05-20T17:13:55Z</time>
      </trkpt>
      <trkpt lat="47.87717" lon="6.91323">
        <ele>848.1</ele>
        <time>2023-05-20T17:14:07Z</time>
      </trkpt>
      <trkpt lat="47.87718" lon="6.9133">
        <ele>847.2</ele>
        <time>2023-05-20T17:14:11Z</time>
      </trkpt>
      <trkpt lat="47.87714" lon="6.91373">
        <ele>851.9</ele>
        <time>2023-05-20T17:14:36Z</time>
      </trkpt>
      <trkpt lat="47.87715" lon="6.91381">
        <ele>852.1</ele>
        <time>2023-05-20T17:14:41Z</time>
      </trkpt>
      <trkpt lat="47.87709" lon="6.91416">
        <ele>851.2</ele>
        <time>2023-05-20T17:15:01Z</time>
      </trkpt>
      <trkpt lat="47.87707" lon="6.91421">
        <ele>851.3</ele>
        <time>2023-05-20T17:15:06Z</time>
      </trkpt>
      <trkpt lat="47.877" lon="6.9143">
        <ele>853.5</ele>
        <time>2023-05-20T17:15:16Z</time>
      </trkpt>
      <trkpt lat="47.87697" lon="6.91435">
        <ele>853.8</ele>
        <time>2023-05-20T17:15:20Z</time>
      </trkpt>
      <trkpt lat="47.87693" lon="6.91439">
        <ele>854.7</ele>
        <time>2023-05-20T17:15:24Z</time>
      </trkpt>
      <trkpt lat="47.87682" lon="6.91441">
        <ele>859.3</ele>
        <time>2023-05-20T17:15:31Z</time>
      </trkpt>
      <trkpt lat="47.87679" lon="6.91447">
        <ele>858.4</ele>
        <time>2023-05-20T17:15:42Z</time>
      </trkpt>
      <trkpt lat="47.87677" lon="6.91437">
        <ele>863.7</ele>
        <time>2023-05-20T17:15:59Z</time>
      </trkpt>
      <trkpt lat="47.87683" lon="6.91439">
        <ele>859.7</ele>
        <time>2023-05-20T17:16:04Z</time>
      </trkpt>
      <trkpt lat="47.87686" lon="6.91444">
        <ele>856.1</ele>
        <time>2023-05-20T17:16:37Z</time>
      </trkpt>
      <trkpt lat="47.87682" lon="6.91449">
        <ele>856.3</ele>
        <time>2023-05-20T17:16:51Z</time>
      </trkpt>
      <trkpt lat="47.87677" lon="6.91442">
        <ele>861.3</ele>
        <time>2023-05-20T17:17:16Z</time>
      </trkpt>
      <trkpt lat="47.87678" lon="6.91435">
        <ele>864.1</ele>
        <time>2023-05-20T17:17:34Z</time>
      </trkpt>
      <trkpt lat="47.87686" lon="6.9144">
        <ele>857.8</ele>
        <time>2023-05-20T17:18:07Z</time>
      </trkpt>
      <trkpt lat="47.87682" lon="6.91445">
        <ele>857.6</ele>
        <time>2023-05-20T17:18:11Z</time>
      </trkpt>
      <trkpt lat="47.87675" lon="6.91437">
        <ele>864.7</ele>
        <time>2023-05-20T17:18:22Z</time>
      </trkpt>
      <trkpt lat="47.87673" lon="6.91447">
        <ele>861.3</ele>
        <time>2023-05-20T17:18:29Z</time>
      </trkpt>
      <trkpt lat="47.87673" lon="6.91455">
        <ele>858.8</ele>
        <time>2023-05-20T17:18:33Z</time>
      </trkpt>
      <trkpt lat="47.8767" lon="6.91469">
        <ele>856.2</ele>
        <time>2023-05-20T17:18:41Z</time>
      </trkpt>
      <trkpt lat="47.87667" lon="6.91478">
        <ele>855.2</ele>
        <time>2023-05-20T17:18:55Z</time>
      </trkpt>
      <trkpt lat="47.8766" lon="6.91484">
        <ele>856.9</ele>
        <time>2023-05-20T17:19:04Z</time>
      </trkpt>
      <trkpt lat="47.87652" lon="6.91491">
        <ele>858.4</ele>
        <time>2023-05-20T17:19:12Z</time>
      </trkpt>
      <trkpt lat="47.87646" lon="6.91504">
        <ele>857.4</ele>
        <time>2023-05-20T17:19:22Z</time>
      </trkpt>
      <trkpt lat="47.87645" lon="6.91512">
        <ele>856.9</ele>
        <time>2023-05-20T17:19:26Z</time>
      </trkpt>
      <trkpt lat="47.87624" lon="6.91546">
        <ele>866.2</ele>
        <time>2023-05-20T17:20:00Z</time>
      </trkpt>
      <trkpt lat="47.87615" lon="6.91571">
        <ele>868.2</ele>
        <time>2023-05-20T17:20:22Z</time>
      </trkpt>
      <trkpt lat="47.87614" lon="6.91591">
        <ele>869.3</ele>
        <time>2023-05-20T17:20:34Z</time>
      </trkpt>
      <trkpt lat="47.87608" lon="6.91602">
        <ele>873.8</ele>
        <time>2023-05-20T17:20:45Z</time>
      </trkpt>
      <trkpt lat="47.87613" lon="6.91609">
        <ele>872.7</ele>
        <time>2023-05-20T17:20:55Z</time>
      </trkpt>
      <trkpt lat="47.8761" lon="6.91617">
        <ele>875.4</ele>
        <time>2023-05-20T17:20:58Z</time>
      </trkpt>
      <trkpt lat="47.87607" lon="6.91663">
        <ele>881.8</ele>
        <time>2023-05-20T17:21:29Z</time>
      </trkpt>
      <trkpt lat="47.87607" lon="6.91676">
        <ele>881.2</ele>
        <time>2023-05-20T17:21:38Z</time>
      </trkpt>
      <trkpt lat="47.87608" lon="6.91685">
        <ele>880.1</ele>
        <time>2023-05-20T17:21:44Z</time>
      </trkpt>
      <trkpt lat="47.87613" lon="6.91678">
        <ele>878.8</ele>
        <time>2023-05-20T17:21:49Z</time>
      </trkpt>
      <trkpt lat="47.87615" lon="6.9167">
        <ele>878.9</ele>
        <time>2023-05-20T17:21:52Z</time>
      </trkpt>
      <trkpt lat="47.87615" lon="6.91664">
        <ele>879.3</ele>
        <time>2023-05-20T17:21:55Z</time>
      </trkpt>
    </trkseg>
  </trk>
  <trk>
    <name><![CDATA[Tour en Thur 2023-05 17-21_5]]></name>
    <extensions>
      <line xmlns="http://www.topografix.com/GPX/gpx_style/0/2">
        <color>0000FF</color>
        <width>9</width>
      </line>
    </extensions>
    <trkseg>
      <trkpt lat="47.79355" lon="7.09672">
        <ele>367.7</ele>
      </trkpt>
      <trkpt lat="47.79384" lon="7.09692">
        <ele>371.3</ele>
      </trkpt>
      <trkpt lat="47.79436" lon="7.09708">
        <ele>377.8</ele>
      </trkpt>
      <trkpt lat="47.79504" lon="7.09738">
        <ele>389.4</ele>
      </trkpt>
      <trkpt lat="47.7955" lon="7.09739">
        <ele>392.4</ele>
      </trkpt>
      <trkpt lat="47.79557" lon="7.09746">
        <ele>393</ele>
      </trkpt>
      <trkpt lat="47.79557" lon="7.09751">
        <ele>393.2</ele>
      </trkpt>
      <trkpt lat="47.79567" lon="7.09757">
        <ele>394.5</ele>
      </trkpt>
      <trkpt lat="47.79582" lon="7.09729">
        <ele>395.1</ele>
      </trkpt>
      <trkpt lat="47.79615" lon="7.09698">
        <ele>396.4</ele>
      </trkpt>
      <trkpt lat="47.79659" lon="7.0967">
        <ele>399.5</ele>
      </trkpt>
      <trkpt lat="47.79688" lon="7.09645">
        <ele>402.7</ele>
      </trkpt>
      <trkpt lat="47.79733" lon="7.09594">
        <ele>408.4</ele>
      </trkpt>
      <trkpt lat="47.79769" lon="7.09605">
        <ele>413</ele>
      </trkpt>
      <trkpt lat="47.79816" lon="7.09612">
        <ele>419.9</ele>
      </trkpt>
      <trkpt lat="47.79862" lon="7.0961">
        <ele>427.2</ele>
      </trkpt>
      <trkpt lat="47.79897" lon="7.09593">
        <ele>433.8</ele>
      </trkpt>
      <trkpt lat="47.79913" lon="7.09531">
        <ele>438.2</ele>
      </trkpt>
      <trkpt lat="47.79944" lon="7.09467">
        <ele>443.9</ele>
      </trkpt>
      <trkpt lat="47.79963" lon="7.09402">
        <ele>446.5</ele>
      </trkpt>
      <trkpt lat="47.79981" lon="7.0938">
        <ele>448.9</ele>
      </trkpt>
      <trkpt lat="47.79989" lon="7.0936">
        <ele>449.8</ele>
      </trkpt>
      <trkpt lat="47.79993" lon="7.09339">
        <ele>450.2</ele>
      </trkpt>
      <trkpt lat="47.79978" lon="7.09299">
        <ele>449</ele>
      </trkpt>
      <trkpt lat="47.79959" lon="7.09264">
        <ele>447.8</ele>
      </trkpt>
      <trkpt lat="47.79974" lon="7.09248">
        <ele>450.2</ele>
      </trkpt>
      <trkpt lat="47.79986" lon="7.09229">
        <ele>452.5</ele>
      </trkpt>
      <trkpt lat="47.79996" lon="7.09196">
        <ele>454.8</ele>
      </trkpt>
      <trkpt lat="47.80003" lon="7.09114">
        <ele>462.8</ele>
      </trkpt>
      <trkpt lat="47.80016" lon="7.09041">
        <ele>470.6</ele>
      </trkpt>
      <trkpt lat="47.80026" lon="7.08995">
        <ele>478.2</ele>
      </trkpt>
      <trkpt lat="47.80043" lon="7.08931">
        <ele>486</ele>
      </trkpt>
      <trkpt lat="47.80054" lon="7.08889">
        <ele>490.8</ele>
      </trkpt>
      <trkpt lat="47.80061" lon="7.0885">
        <ele>496.9</ele>
      </trkpt>
      <trkpt lat="47.80066" lon="7.08813">
        <ele>502.1</ele>
      </trkpt>
      <trkpt lat="47.80077" lon="7.0878">
        <ele>507.4</ele>
      </trkpt>
      <trkpt lat="47.80086" lon="7.08756">
        <ele>511.8</ele>
      </trkpt>
      <trkpt lat="47.80094" lon="7.08747">
        <ele>514.3</ele>
      </trkpt>
      <trkpt lat="47.801" lon="7.08733">
        <ele>517.2</ele>
      </trkpt>
      <trkpt lat="47.80098" lon="7.08705">
        <ele>520.6</ele>
      </trkpt>
      <trkpt lat="47.80083" lon="7.0863">
        <ele>528.2</ele>
      </trkpt>
      <trkpt lat="47.8008" lon="7.08605">
        <ele>531.2</ele>
      </trkpt>
      <trkpt lat="47.80074" lon="7.08575">
        <ele>534.4</ele>
      </trkpt>
      <trkpt lat="47.80072" lon="7.08544">
        <ele>538.6</ele>
      </trkpt>
      <trkpt lat="47.80073" lon="7.08506">
        <ele>544.9</ele>
      </trkpt>
      <trkpt lat="47.80079" lon="7.0845">
        <ele>552.7</ele>
      </trkpt>
      <trkpt lat="47.8009" lon="7.08384">
        <ele>560.2</ele>
      </trkpt>
      <trkpt lat="47.80094" lon="7.08352">
        <ele>562.2</ele>
      </trkpt>
      <trkpt lat="47.801" lon="7.08329">
        <ele>565</ele>
      </trkpt>
      <trkpt lat="47.80105" lon="7.08319">
        <ele>567.9</ele>
      </trkpt>
      <trkpt lat="47.80107" lon="7.08333">
        <ele>568.8</ele>
      </trkpt>
      <trkpt lat="47.80111" lon="7.08349">
        <ele>570.9</ele>
      </trkpt>
      <trkpt lat="47.80115" lon="7.08353">
        <ele>573</ele>
      </trkpt>
      <trkpt lat="47.8012" lon="7.08344">
        <ele>575.7</ele>
      </trkpt>
      <trkpt lat="47.80123" lon="7.08306">
        <ele>578.4</ele>
      </trkpt>
      <trkpt lat="47.80127" lon="7.08268">
        <ele>581.8</ele>
      </trkpt>
      <trkpt lat="47.80132" lon="7.08233">
        <ele>584.4</ele>
      </trkpt>
      <trkpt lat="47.80154" lon="7.0819">
        <ele>593.4</ele>
      </trkpt>
      <trkpt lat="47.80169" lon="7.08147">
        <ele>600.7</ele>
      </trkpt>
      <trkpt lat="47.80172" lon="7.0809">
        <ele>603.8</ele>
      </trkpt>
      <trkpt lat="47.80172" lon="7.0806">
        <ele>605.8</ele>
      </trkpt>
      <trkpt lat="47.80178" lon="7.08004">
        <ele>613.7</ele>
      </trkpt>
      <trkpt lat="47.80181" lon="7.07953">
        <ele>620.7</ele>
      </trkpt>
      <trkpt lat="47.80184" lon="7.07937">
        <ele>624.6</ele>
      </trkpt>
      <trkpt lat="47.802" lon="7.07977">
        <ele>628.5</ele>
      </trkpt>
      <trkpt lat="47.80219" lon="7.08013">
        <ele>634.9</ele>
      </trkpt>
      <trkpt lat="47.80241" lon="7.08059">
        <ele>641</ele>
      </trkpt>
      <trkpt lat="47.80268" lon="7.08131">
        <ele>645.4</ele>
      </trkpt>
      <trkpt lat="47.80266" lon="7.08145">
        <ele>644</ele>
      </trkpt>
      <trkpt lat="47.80266" lon="7.08153">
        <ele>643.1</ele>
      </trkpt>
    </trkseg>
  </trk>
</gpx>